<?xml version="1.0" encoding="UTF-8" standalone="no" ?>
<gpx xmlns="http://www.topografix.com/GPX/1/1" xmlns:xsi="http://www.w3.org/2001/XMLSchema-instance" xsi:schemaLocation="http://www.topografix.com/GPX/1/1 http://www.topografix.com/GPX/1/1/gpx.xsd" version="1.1" creator="VisuGPX - https://www.visugpx.com">
  <metadata>
    <name>Baù de Cézanne</name>
    <desc><![CDATA[Aérien]]></desc>
  </metadata>
  <trk>
    <name><![CDATA[Baù de Cézanne_1]]></name>
    <trkseg>
      <trkpt lat="43.52382" lon="5.56455">
        <ele>282</ele>
        <time>2022-02-15T07:36:09.000Z</time>
      </trkpt>
      <trkpt lat="43.52382" lon="5.56451">
        <ele>305</ele>
        <time>2022-02-15T07:36:10.000Z</time>
      </trkpt>
      <trkpt lat="43.52382" lon="5.56451">
        <ele>305</ele>
        <time>2022-02-15T07:36:11.000Z</time>
      </trkpt>
      <trkpt lat="43.52382" lon="5.56451">
        <ele>306</ele>
        <time>2022-02-15T07:36:12.000Z</time>
      </trkpt>
      <trkpt lat="43.52382" lon="5.56451">
        <ele>306</ele>
        <time>2022-02-15T07:36:13.000Z</time>
      </trkpt>
      <trkpt lat="43.52382" lon="5.56451">
        <ele>306</ele>
        <time>2022-02-15T07:36:14.000Z</time>
      </trkpt>
      <trkpt lat="43.52382" lon="5.56451">
        <ele>306</ele>
        <time>2022-02-15T07:36:15.000Z</time>
      </trkpt>
      <trkpt lat="43.52382" lon="5.56451">
        <ele>306</ele>
        <time>2022-02-15T07:36:16.000Z</time>
      </trkpt>
      <trkpt lat="43.52381" lon="5.56451">
        <ele>305</ele>
        <time>2022-02-15T07:36:17.000Z</time>
      </trkpt>
      <trkpt lat="43.52381" lon="5.56451">
        <ele>305</ele>
        <time>2022-02-15T07:36:18.000Z</time>
      </trkpt>
      <trkpt lat="43.52381" lon="5.56451">
        <ele>304</ele>
        <time>2022-02-15T07:36:19.000Z</time>
      </trkpt>
      <trkpt lat="43.52382" lon="5.5645">
        <ele>304</ele>
        <time>2022-02-15T07:36:20.000Z</time>
      </trkpt>
      <trkpt lat="43.52382" lon="5.5645">
        <ele>304</ele>
        <time>2022-02-15T07:36:21.000Z</time>
      </trkpt>
      <trkpt lat="43.52382" lon="5.5645">
        <ele>303</ele>
        <time>2022-02-15T07:36:22.000Z</time>
      </trkpt>
      <trkpt lat="43.52381" lon="5.5645">
        <ele>303</ele>
        <time>2022-02-15T07:36:23.000Z</time>
      </trkpt>
      <trkpt lat="43.52381" lon="5.56451">
        <ele>302</ele>
        <time>2022-02-15T07:36:24.000Z</time>
      </trkpt>
      <trkpt lat="43.52381" lon="5.56451">
        <ele>302</ele>
        <time>2022-02-15T07:36:25.000Z</time>
      </trkpt>
      <trkpt lat="43.52382" lon="5.56451">
        <ele>302</ele>
        <time>2022-02-15T07:36:26.000Z</time>
      </trkpt>
      <trkpt lat="43.52381" lon="5.5645">
        <ele>302</ele>
        <time>2022-02-15T07:36:27.000Z</time>
      </trkpt>
      <trkpt lat="43.52382" lon="5.5645">
        <ele>302</ele>
        <time>2022-02-15T07:36:28.000Z</time>
      </trkpt>
      <trkpt lat="43.52382" lon="5.5645">
        <ele>302</ele>
        <time>2022-02-15T07:36:29.000Z</time>
      </trkpt>
      <trkpt lat="43.52382" lon="5.5645">
        <ele>302</ele>
        <time>2022-02-15T07:36:30.000Z</time>
      </trkpt>
      <trkpt lat="43.52382" lon="5.5645">
        <ele>302</ele>
        <time>2022-02-15T07:36:31.000Z</time>
      </trkpt>
      <trkpt lat="43.52382" lon="5.5645">
        <ele>302</ele>
        <time>2022-02-15T07:36:32.000Z</time>
      </trkpt>
      <trkpt lat="43.52382" lon="5.5645">
        <ele>301</ele>
        <time>2022-02-15T07:36:33.000Z</time>
      </trkpt>
      <trkpt lat="43.52382" lon="5.5645">
        <ele>301</ele>
        <time>2022-02-15T07:36:34.000Z</time>
      </trkpt>
      <trkpt lat="43.52382" lon="5.5645">
        <ele>301</ele>
        <time>2022-02-15T07:36:35.000Z</time>
      </trkpt>
      <trkpt lat="43.52382" lon="5.5645">
        <ele>301</ele>
        <time>2022-02-15T07:36:36.000Z</time>
      </trkpt>
      <trkpt lat="43.52382" lon="5.5645">
        <ele>301</ele>
        <time>2022-02-15T07:36:37.000Z</time>
      </trkpt>
      <trkpt lat="43.52382" lon="5.5645">
        <ele>300</ele>
        <time>2022-02-15T07:36:38.000Z</time>
      </trkpt>
      <trkpt lat="43.52382" lon="5.5645">
        <ele>300</ele>
        <time>2022-02-15T07:36:39.000Z</time>
      </trkpt>
      <trkpt lat="43.52382" lon="5.5645">
        <ele>300</ele>
        <time>2022-02-15T07:36:40.000Z</time>
      </trkpt>
      <trkpt lat="43.52383" lon="5.56451">
        <ele>300</ele>
        <time>2022-02-15T07:36:41.000Z</time>
      </trkpt>
      <trkpt lat="43.52383" lon="5.56451">
        <ele>300</ele>
        <time>2022-02-15T07:36:42.000Z</time>
      </trkpt>
      <trkpt lat="43.52383" lon="5.56451">
        <ele>299</ele>
        <time>2022-02-15T07:36:43.000Z</time>
      </trkpt>
      <trkpt lat="43.52383" lon="5.56451">
        <ele>299</ele>
        <time>2022-02-15T07:36:44.000Z</time>
      </trkpt>
      <trkpt lat="43.52383" lon="5.56451">
        <ele>299</ele>
        <time>2022-02-15T07:36:45.000Z</time>
      </trkpt>
      <trkpt lat="43.52383" lon="5.56451">
        <ele>299</ele>
        <time>2022-02-15T07:36:46.000Z</time>
      </trkpt>
      <trkpt lat="43.52383" lon="5.56451">
        <ele>299</ele>
        <time>2022-02-15T07:36:47.000Z</time>
      </trkpt>
      <trkpt lat="43.52383" lon="5.56451">
        <ele>299</ele>
        <time>2022-02-15T07:36:48.000Z</time>
      </trkpt>
      <trkpt lat="43.52383" lon="5.56451">
        <ele>299</ele>
        <time>2022-02-15T07:36:49.000Z</time>
      </trkpt>
      <trkpt lat="43.52383" lon="5.56451">
        <ele>298</ele>
        <time>2022-02-15T07:36:50.000Z</time>
      </trkpt>
      <trkpt lat="43.52382" lon="5.56452">
        <ele>298</ele>
        <time>2022-02-15T07:36:51.000Z</time>
      </trkpt>
      <trkpt lat="43.52382" lon="5.56452">
        <ele>298</ele>
        <time>2022-02-15T07:36:52.000Z</time>
      </trkpt>
      <trkpt lat="43.52383" lon="5.56451">
        <ele>298</ele>
        <time>2022-02-15T07:36:53.000Z</time>
      </trkpt>
      <trkpt lat="43.52383" lon="5.56451">
        <ele>298</ele>
        <time>2022-02-15T07:36:54.000Z</time>
      </trkpt>
      <trkpt lat="43.52383" lon="5.56451">
        <ele>298</ele>
        <time>2022-02-15T07:36:55.000Z</time>
      </trkpt>
      <trkpt lat="43.52383" lon="5.56451">
        <ele>298</ele>
        <time>2022-02-15T07:36:56.000Z</time>
      </trkpt>
      <trkpt lat="43.52383" lon="5.56451">
        <ele>298</ele>
        <time>2022-02-15T07:36:57.000Z</time>
      </trkpt>
      <trkpt lat="43.52383" lon="5.56451">
        <ele>298</ele>
        <time>2022-02-15T07:36:58.000Z</time>
      </trkpt>
      <trkpt lat="43.52383" lon="5.56452">
        <ele>298</ele>
        <time>2022-02-15T07:36:59.000Z</time>
      </trkpt>
      <trkpt lat="43.52384" lon="5.56451">
        <ele>298</ele>
        <time>2022-02-15T07:37:00.000Z</time>
      </trkpt>
      <trkpt lat="43.52384" lon="5.56451">
        <ele>298</ele>
        <time>2022-02-15T07:37:01.000Z</time>
      </trkpt>
      <trkpt lat="43.52384" lon="5.56451">
        <ele>298</ele>
        <time>2022-02-15T07:37:02.000Z</time>
      </trkpt>
      <trkpt lat="43.52384" lon="5.56451">
        <ele>298</ele>
        <time>2022-02-15T07:37:03.000Z</time>
      </trkpt>
      <trkpt lat="43.52384" lon="5.56451">
        <ele>298</ele>
        <time>2022-02-15T07:37:04.000Z</time>
      </trkpt>
      <trkpt lat="43.52384" lon="5.56451">
        <ele>299</ele>
        <time>2022-02-15T07:37:05.000Z</time>
      </trkpt>
      <trkpt lat="43.52384" lon="5.56451">
        <ele>299</ele>
        <time>2022-02-15T07:37:06.000Z</time>
      </trkpt>
      <trkpt lat="43.52384" lon="5.5645">
        <ele>299</ele>
        <time>2022-02-15T07:37:07.000Z</time>
      </trkpt>
      <trkpt lat="43.52384" lon="5.5645">
        <ele>299</ele>
        <time>2022-02-15T07:37:08.000Z</time>
      </trkpt>
      <trkpt lat="43.52384" lon="5.5645">
        <ele>299</ele>
        <time>2022-02-15T07:37:09.000Z</time>
      </trkpt>
      <trkpt lat="43.52384" lon="5.5645">
        <ele>299</ele>
        <time>2022-02-15T07:37:10.000Z</time>
      </trkpt>
      <trkpt lat="43.52384" lon="5.5645">
        <ele>299</ele>
        <time>2022-02-15T07:37:11.000Z</time>
      </trkpt>
      <trkpt lat="43.52384" lon="5.56451">
        <ele>299</ele>
        <time>2022-02-15T07:37:12.000Z</time>
      </trkpt>
      <trkpt lat="43.52384" lon="5.56451">
        <ele>299</ele>
        <time>2022-02-15T07:37:13.000Z</time>
      </trkpt>
      <trkpt lat="43.52384" lon="5.56451">
        <ele>299</ele>
        <time>2022-02-15T07:37:14.000Z</time>
      </trkpt>
      <trkpt lat="43.52384" lon="5.56451">
        <ele>299</ele>
        <time>2022-02-15T07:37:15.000Z</time>
      </trkpt>
      <trkpt lat="43.52384" lon="5.56451">
        <ele>299</ele>
        <time>2022-02-15T07:37:16.000Z</time>
      </trkpt>
      <trkpt lat="43.52384" lon="5.56451">
        <ele>299</ele>
        <time>2022-02-15T07:37:17.000Z</time>
      </trkpt>
      <trkpt lat="43.52384" lon="5.56451">
        <ele>299</ele>
        <time>2022-02-15T07:37:18.000Z</time>
      </trkpt>
      <trkpt lat="43.52384" lon="5.56451">
        <ele>299</ele>
        <time>2022-02-15T07:37:19.000Z</time>
      </trkpt>
      <trkpt lat="43.52385" lon="5.56451">
        <ele>299</ele>
        <time>2022-02-15T07:37:20.000Z</time>
      </trkpt>
      <trkpt lat="43.52385" lon="5.56451">
        <ele>299</ele>
        <time>2022-02-15T07:37:21.000Z</time>
      </trkpt>
      <trkpt lat="43.52385" lon="5.56451">
        <ele>299</ele>
        <time>2022-02-15T07:37:22.000Z</time>
      </trkpt>
      <trkpt lat="43.52385" lon="5.56451">
        <ele>299</ele>
        <time>2022-02-15T07:37:23.000Z</time>
      </trkpt>
      <trkpt lat="43.52385" lon="5.56451">
        <ele>299</ele>
        <time>2022-02-15T07:37:24.000Z</time>
      </trkpt>
      <trkpt lat="43.52385" lon="5.56451">
        <ele>299</ele>
        <time>2022-02-15T07:37:25.000Z</time>
      </trkpt>
      <trkpt lat="43.52385" lon="5.56451">
        <ele>299</ele>
        <time>2022-02-15T07:37:26.000Z</time>
      </trkpt>
      <trkpt lat="43.52385" lon="5.56451">
        <ele>299</ele>
        <time>2022-02-15T07:37:27.000Z</time>
      </trkpt>
      <trkpt lat="43.52385" lon="5.56452">
        <ele>299</ele>
        <time>2022-02-15T07:37:28.000Z</time>
      </trkpt>
      <trkpt lat="43.52385" lon="5.56452">
        <ele>299</ele>
        <time>2022-02-15T07:37:29.000Z</time>
      </trkpt>
      <trkpt lat="43.52385" lon="5.56452">
        <ele>299</ele>
        <time>2022-02-15T07:37:30.000Z</time>
      </trkpt>
      <trkpt lat="43.52385" lon="5.56451">
        <ele>299</ele>
        <time>2022-02-15T07:37:31.000Z</time>
      </trkpt>
      <trkpt lat="43.52385" lon="5.56451">
        <ele>299</ele>
        <time>2022-02-15T07:37:32.000Z</time>
      </trkpt>
      <trkpt lat="43.52385" lon="5.56451">
        <ele>299</ele>
        <time>2022-02-15T07:37:33.000Z</time>
      </trkpt>
      <trkpt lat="43.52385" lon="5.56451">
        <ele>299</ele>
        <time>2022-02-15T07:37:34.000Z</time>
      </trkpt>
      <trkpt lat="43.52385" lon="5.56452">
        <ele>299</ele>
        <time>2022-02-15T07:37:35.000Z</time>
      </trkpt>
      <trkpt lat="43.52385" lon="5.56452">
        <ele>299</ele>
        <time>2022-02-15T07:37:36.000Z</time>
      </trkpt>
      <trkpt lat="43.52385" lon="5.56452">
        <ele>299</ele>
        <time>2022-02-15T07:37:37.000Z</time>
      </trkpt>
      <trkpt lat="43.52385" lon="5.56452">
        <ele>299</ele>
        <time>2022-02-15T07:37:38.000Z</time>
      </trkpt>
      <trkpt lat="43.52385" lon="5.56452">
        <ele>299</ele>
        <time>2022-02-15T07:37:39.000Z</time>
      </trkpt>
      <trkpt lat="43.52385" lon="5.56451">
        <ele>299</ele>
        <time>2022-02-15T07:37:40.000Z</time>
      </trkpt>
      <trkpt lat="43.52385" lon="5.56451">
        <ele>299</ele>
        <time>2022-02-15T07:37:41.000Z</time>
      </trkpt>
      <trkpt lat="43.52386" lon="5.5645">
        <ele>299</ele>
        <time>2022-02-15T07:37:42.000Z</time>
      </trkpt>
      <trkpt lat="43.52386" lon="5.5645">
        <ele>299</ele>
        <time>2022-02-15T07:37:43.000Z</time>
      </trkpt>
      <trkpt lat="43.52386" lon="5.5645">
        <ele>299</ele>
        <time>2022-02-15T07:37:44.000Z</time>
      </trkpt>
      <trkpt lat="43.52387" lon="5.5645">
        <ele>299</ele>
        <time>2022-02-15T07:37:45.000Z</time>
      </trkpt>
      <trkpt lat="43.52387" lon="5.5645">
        <ele>299</ele>
        <time>2022-02-15T07:37:46.000Z</time>
      </trkpt>
      <trkpt lat="43.52387" lon="5.5645">
        <ele>299</ele>
        <time>2022-02-15T07:37:47.000Z</time>
      </trkpt>
      <trkpt lat="43.52387" lon="5.5645">
        <ele>299</ele>
        <time>2022-02-15T07:37:48.000Z</time>
      </trkpt>
      <trkpt lat="43.52387" lon="5.5645">
        <ele>299</ele>
        <time>2022-02-15T07:37:49.000Z</time>
      </trkpt>
      <trkpt lat="43.52387" lon="5.5645">
        <ele>299</ele>
        <time>2022-02-15T07:37:50.000Z</time>
      </trkpt>
      <trkpt lat="43.52387" lon="5.5645">
        <ele>299</ele>
        <time>2022-02-15T07:37:51.000Z</time>
      </trkpt>
      <trkpt lat="43.52387" lon="5.5645">
        <ele>299</ele>
        <time>2022-02-15T07:37:52.000Z</time>
      </trkpt>
      <trkpt lat="43.52387" lon="5.5645">
        <ele>299</ele>
        <time>2022-02-15T07:37:53.000Z</time>
      </trkpt>
      <trkpt lat="43.52387" lon="5.5645">
        <ele>299</ele>
        <time>2022-02-15T07:37:54.000Z</time>
      </trkpt>
      <trkpt lat="43.52387" lon="5.5645">
        <ele>299</ele>
        <time>2022-02-15T07:37:55.000Z</time>
      </trkpt>
      <trkpt lat="43.52387" lon="5.5645">
        <ele>299</ele>
        <time>2022-02-15T07:37:56.000Z</time>
      </trkpt>
      <trkpt lat="43.52387" lon="5.5645">
        <ele>299</ele>
        <time>2022-02-15T07:37:57.000Z</time>
      </trkpt>
      <trkpt lat="43.52387" lon="5.5645">
        <ele>299</ele>
        <time>2022-02-15T07:37:58.000Z</time>
      </trkpt>
      <trkpt lat="43.52387" lon="5.5645">
        <ele>299</ele>
        <time>2022-02-15T07:37:59.000Z</time>
      </trkpt>
      <trkpt lat="43.52387" lon="5.5645">
        <ele>299</ele>
        <time>2022-02-15T07:38:00.000Z</time>
      </trkpt>
      <trkpt lat="43.52387" lon="5.5645">
        <ele>299</ele>
        <time>2022-02-15T07:38:01.000Z</time>
      </trkpt>
      <trkpt lat="43.52387" lon="5.5645">
        <ele>299</ele>
        <time>2022-02-15T07:38:02.000Z</time>
      </trkpt>
      <trkpt lat="43.52387" lon="5.5645">
        <ele>299</ele>
        <time>2022-02-15T07:38:03.000Z</time>
      </trkpt>
      <trkpt lat="43.52387" lon="5.5645">
        <ele>299</ele>
        <time>2022-02-15T07:38:04.000Z</time>
      </trkpt>
      <trkpt lat="43.52387" lon="5.5645">
        <ele>299</ele>
        <time>2022-02-15T07:38:05.000Z</time>
      </trkpt>
      <trkpt lat="43.52387" lon="5.5645">
        <ele>299</ele>
        <time>2022-02-15T07:38:06.000Z</time>
      </trkpt>
      <trkpt lat="43.52387" lon="5.5645">
        <ele>299</ele>
        <time>2022-02-15T07:38:07.000Z</time>
      </trkpt>
      <trkpt lat="43.52387" lon="5.5645">
        <ele>299</ele>
        <time>2022-02-15T07:38:08.000Z</time>
      </trkpt>
      <trkpt lat="43.52387" lon="5.5645">
        <ele>299</ele>
        <time>2022-02-15T07:38:09.000Z</time>
      </trkpt>
      <trkpt lat="43.52387" lon="5.5645">
        <ele>299</ele>
        <time>2022-02-15T07:38:10.000Z</time>
      </trkpt>
      <trkpt lat="43.52386" lon="5.5645">
        <ele>299</ele>
        <time>2022-02-15T07:38:11.000Z</time>
      </trkpt>
      <trkpt lat="43.52386" lon="5.5645">
        <ele>299</ele>
        <time>2022-02-15T07:38:12.000Z</time>
      </trkpt>
      <trkpt lat="43.52386" lon="5.5645">
        <ele>299</ele>
        <time>2022-02-15T07:38:13.000Z</time>
      </trkpt>
      <trkpt lat="43.52386" lon="5.5645">
        <ele>299</ele>
        <time>2022-02-15T07:38:14.000Z</time>
      </trkpt>
      <trkpt lat="43.52386" lon="5.5645">
        <ele>299</ele>
        <time>2022-02-15T07:38:15.000Z</time>
      </trkpt>
      <trkpt lat="43.52386" lon="5.5645">
        <ele>299</ele>
        <time>2022-02-15T07:38:16.000Z</time>
      </trkpt>
      <trkpt lat="43.52387" lon="5.56449">
        <ele>299</ele>
        <time>2022-02-15T07:38:17.000Z</time>
      </trkpt>
      <trkpt lat="43.52387" lon="5.56449">
        <ele>299</ele>
        <time>2022-02-15T07:38:18.000Z</time>
      </trkpt>
      <trkpt lat="43.52387" lon="5.56449">
        <ele>299</ele>
        <time>2022-02-15T07:38:19.000Z</time>
      </trkpt>
      <trkpt lat="43.52387" lon="5.5645">
        <ele>299</ele>
        <time>2022-02-15T07:38:20.000Z</time>
      </trkpt>
      <trkpt lat="43.52387" lon="5.5645">
        <ele>299</ele>
        <time>2022-02-15T07:38:21.000Z</time>
      </trkpt>
      <trkpt lat="43.52387" lon="5.5645">
        <ele>299</ele>
        <time>2022-02-15T07:38:22.000Z</time>
      </trkpt>
      <trkpt lat="43.52386" lon="5.5645">
        <ele>299</ele>
        <time>2022-02-15T07:38:23.000Z</time>
      </trkpt>
      <trkpt lat="43.52386" lon="5.5645">
        <ele>299</ele>
        <time>2022-02-15T07:38:24.000Z</time>
      </trkpt>
      <trkpt lat="43.52386" lon="5.56451">
        <ele>299</ele>
        <time>2022-02-15T07:38:25.000Z</time>
      </trkpt>
      <trkpt lat="43.52386" lon="5.56451">
        <ele>299</ele>
        <time>2022-02-15T07:38:26.000Z</time>
      </trkpt>
      <trkpt lat="43.52386" lon="5.56451">
        <ele>299</ele>
        <time>2022-02-15T07:38:27.000Z</time>
      </trkpt>
      <trkpt lat="43.52386" lon="5.56451">
        <ele>299</ele>
        <time>2022-02-15T07:38:28.000Z</time>
      </trkpt>
      <trkpt lat="43.52386" lon="5.56451">
        <ele>299</ele>
        <time>2022-02-15T07:38:29.000Z</time>
      </trkpt>
      <trkpt lat="43.52386" lon="5.5645">
        <ele>299</ele>
        <time>2022-02-15T07:38:30.000Z</time>
      </trkpt>
      <trkpt lat="43.52386" lon="5.5645">
        <ele>299</ele>
        <time>2022-02-15T07:38:31.000Z</time>
      </trkpt>
      <trkpt lat="43.52386" lon="5.5645">
        <ele>299</ele>
        <time>2022-02-15T07:38:32.000Z</time>
      </trkpt>
      <trkpt lat="43.52386" lon="5.5645">
        <ele>299</ele>
        <time>2022-02-15T07:38:33.000Z</time>
      </trkpt>
      <trkpt lat="43.52385" lon="5.5645">
        <ele>299</ele>
        <time>2022-02-15T07:38:34.000Z</time>
      </trkpt>
      <trkpt lat="43.52385" lon="5.5645">
        <ele>299</ele>
        <time>2022-02-15T07:38:35.000Z</time>
      </trkpt>
      <trkpt lat="43.52386" lon="5.5645">
        <ele>299</ele>
        <time>2022-02-15T07:38:36.000Z</time>
      </trkpt>
      <trkpt lat="43.52386" lon="5.56451">
        <ele>299</ele>
        <time>2022-02-15T07:38:37.000Z</time>
      </trkpt>
      <trkpt lat="43.52386" lon="5.56451">
        <ele>299</ele>
        <time>2022-02-15T07:38:38.000Z</time>
      </trkpt>
      <trkpt lat="43.52386" lon="5.56451">
        <ele>299</ele>
        <time>2022-02-15T07:38:39.000Z</time>
      </trkpt>
      <trkpt lat="43.52385" lon="5.56451">
        <ele>299</ele>
        <time>2022-02-15T07:38:40.000Z</time>
      </trkpt>
      <trkpt lat="43.52385" lon="5.56451">
        <ele>299</ele>
        <time>2022-02-15T07:38:41.000Z</time>
      </trkpt>
      <trkpt lat="43.52385" lon="5.56451">
        <ele>299</ele>
        <time>2022-02-15T07:38:42.000Z</time>
      </trkpt>
      <trkpt lat="43.52385" lon="5.56451">
        <ele>299</ele>
        <time>2022-02-15T07:38:43.000Z</time>
      </trkpt>
      <trkpt lat="43.52385" lon="5.56451">
        <ele>299</ele>
        <time>2022-02-15T07:38:44.000Z</time>
      </trkpt>
      <trkpt lat="43.52385" lon="5.56451">
        <ele>299</ele>
        <time>2022-02-15T07:38:45.000Z</time>
      </trkpt>
      <trkpt lat="43.52385" lon="5.56451">
        <ele>299</ele>
        <time>2022-02-15T07:38:46.000Z</time>
      </trkpt>
      <trkpt lat="43.52385" lon="5.56451">
        <ele>299</ele>
        <time>2022-02-15T07:38:47.000Z</time>
      </trkpt>
      <trkpt lat="43.52385" lon="5.56451">
        <ele>299</ele>
        <time>2022-02-15T07:38:48.000Z</time>
      </trkpt>
      <trkpt lat="43.52385" lon="5.56452">
        <ele>299</ele>
        <time>2022-02-15T07:38:49.000Z</time>
      </trkpt>
      <trkpt lat="43.52385" lon="5.56452">
        <ele>299</ele>
        <time>2022-02-15T07:38:50.000Z</time>
      </trkpt>
      <trkpt lat="43.52385" lon="5.56452">
        <ele>299</ele>
        <time>2022-02-15T07:38:51.000Z</time>
      </trkpt>
      <trkpt lat="43.52384" lon="5.56452">
        <ele>299</ele>
        <time>2022-02-15T07:38:52.000Z</time>
      </trkpt>
      <trkpt lat="43.52384" lon="5.56452">
        <ele>299</ele>
        <time>2022-02-15T07:38:53.000Z</time>
      </trkpt>
      <trkpt lat="43.52384" lon="5.56453">
        <ele>299</ele>
        <time>2022-02-15T07:38:54.000Z</time>
      </trkpt>
      <trkpt lat="43.52384" lon="5.56453">
        <ele>299</ele>
        <time>2022-02-15T07:38:55.000Z</time>
      </trkpt>
      <trkpt lat="43.52384" lon="5.56453">
        <ele>299</ele>
        <time>2022-02-15T07:38:56.000Z</time>
      </trkpt>
      <trkpt lat="43.52384" lon="5.56453">
        <ele>299</ele>
        <time>2022-02-15T07:38:57.000Z</time>
      </trkpt>
      <trkpt lat="43.52384" lon="5.56453">
        <ele>299</ele>
        <time>2022-02-15T07:38:58.000Z</time>
      </trkpt>
      <trkpt lat="43.52384" lon="5.56453">
        <ele>299</ele>
        <time>2022-02-15T07:38:59.000Z</time>
      </trkpt>
      <trkpt lat="43.52384" lon="5.56453">
        <ele>299</ele>
        <time>2022-02-15T07:39:00.000Z</time>
      </trkpt>
      <trkpt lat="43.52384" lon="5.56453">
        <ele>299</ele>
        <time>2022-02-15T07:39:01.000Z</time>
      </trkpt>
      <trkpt lat="43.52384" lon="5.56453">
        <ele>299</ele>
        <time>2022-02-15T07:39:02.000Z</time>
      </trkpt>
      <trkpt lat="43.52383" lon="5.56453">
        <ele>299</ele>
        <time>2022-02-15T07:39:03.000Z</time>
      </trkpt>
      <trkpt lat="43.52383" lon="5.56453">
        <ele>299</ele>
        <time>2022-02-15T07:39:04.000Z</time>
      </trkpt>
      <trkpt lat="43.52383" lon="5.56453">
        <ele>299</ele>
        <time>2022-02-15T07:39:05.000Z</time>
      </trkpt>
      <trkpt lat="43.52383" lon="5.56453">
        <ele>299</ele>
        <time>2022-02-15T07:39:06.000Z</time>
      </trkpt>
      <trkpt lat="43.52383" lon="5.56453">
        <ele>299</ele>
        <time>2022-02-15T07:39:07.000Z</time>
      </trkpt>
      <trkpt lat="43.52383" lon="5.56453">
        <ele>299</ele>
        <time>2022-02-15T07:39:08.000Z</time>
      </trkpt>
      <trkpt lat="43.52383" lon="5.56453">
        <ele>299</ele>
        <time>2022-02-15T07:39:09.000Z</time>
      </trkpt>
      <trkpt lat="43.52383" lon="5.56453">
        <ele>299</ele>
        <time>2022-02-15T07:39:10.000Z</time>
      </trkpt>
      <trkpt lat="43.52383" lon="5.56453">
        <ele>299</ele>
        <time>2022-02-15T07:39:11.000Z</time>
      </trkpt>
      <trkpt lat="43.52382" lon="5.56453">
        <ele>299</ele>
        <time>2022-02-15T07:39:12.000Z</time>
      </trkpt>
      <trkpt lat="43.52383" lon="5.56452">
        <ele>299</ele>
        <time>2022-02-15T07:39:13.000Z</time>
      </trkpt>
      <trkpt lat="43.52383" lon="5.56452">
        <ele>299</ele>
        <time>2022-02-15T07:39:14.000Z</time>
      </trkpt>
      <trkpt lat="43.52383" lon="5.56452">
        <ele>299</ele>
        <time>2022-02-15T07:39:15.000Z</time>
      </trkpt>
      <trkpt lat="43.52383" lon="5.56452">
        <ele>300</ele>
        <time>2022-02-15T07:39:16.000Z</time>
      </trkpt>
      <trkpt lat="43.52383" lon="5.56452">
        <ele>300</ele>
        <time>2022-02-15T07:39:17.000Z</time>
      </trkpt>
      <trkpt lat="43.52383" lon="5.56452">
        <ele>300</ele>
        <time>2022-02-15T07:39:18.000Z</time>
      </trkpt>
      <trkpt lat="43.52383" lon="5.56452">
        <ele>300</ele>
        <time>2022-02-15T07:39:19.000Z</time>
      </trkpt>
      <trkpt lat="43.52383" lon="5.56452">
        <ele>300</ele>
        <time>2022-02-15T07:39:20.000Z</time>
      </trkpt>
      <trkpt lat="43.52383" lon="5.56452">
        <ele>300</ele>
        <time>2022-02-15T07:39:21.000Z</time>
      </trkpt>
      <trkpt lat="43.52383" lon="5.56452">
        <ele>300</ele>
        <time>2022-02-15T07:39:22.000Z</time>
      </trkpt>
      <trkpt lat="43.52383" lon="5.56451">
        <ele>300</ele>
        <time>2022-02-15T07:39:23.000Z</time>
      </trkpt>
      <trkpt lat="43.52383" lon="5.56451">
        <ele>300</ele>
        <time>2022-02-15T07:39:24.000Z</time>
      </trkpt>
      <trkpt lat="43.52383" lon="5.56451">
        <ele>300</ele>
        <time>2022-02-15T07:39:25.000Z</time>
      </trkpt>
      <trkpt lat="43.52383" lon="5.56451">
        <ele>300</ele>
        <time>2022-02-15T07:39:26.000Z</time>
      </trkpt>
      <trkpt lat="43.52383" lon="5.56451">
        <ele>300</ele>
        <time>2022-02-15T07:39:27.000Z</time>
      </trkpt>
      <trkpt lat="43.52383" lon="5.56451">
        <ele>300</ele>
        <time>2022-02-15T07:39:28.000Z</time>
      </trkpt>
      <trkpt lat="43.52383" lon="5.56451">
        <ele>300</ele>
        <time>2022-02-15T07:39:29.000Z</time>
      </trkpt>
      <trkpt lat="43.52383" lon="5.56451">
        <ele>300</ele>
        <time>2022-02-15T07:39:30.000Z</time>
      </trkpt>
      <trkpt lat="43.52383" lon="5.56451">
        <ele>300</ele>
        <time>2022-02-15T07:39:31.000Z</time>
      </trkpt>
      <trkpt lat="43.52383" lon="5.56451">
        <ele>300</ele>
        <time>2022-02-15T07:39:32.000Z</time>
      </trkpt>
      <trkpt lat="43.52383" lon="5.56451">
        <ele>300</ele>
        <time>2022-02-15T07:39:33.000Z</time>
      </trkpt>
      <trkpt lat="43.52383" lon="5.56451">
        <ele>300</ele>
        <time>2022-02-15T07:39:34.000Z</time>
      </trkpt>
      <trkpt lat="43.52383" lon="5.56451">
        <ele>300</ele>
        <time>2022-02-15T07:39:35.000Z</time>
      </trkpt>
      <trkpt lat="43.52383" lon="5.56451">
        <ele>300</ele>
        <time>2022-02-15T07:39:36.000Z</time>
      </trkpt>
      <trkpt lat="43.52383" lon="5.56451">
        <ele>300</ele>
        <time>2022-02-15T07:39:37.000Z</time>
      </trkpt>
      <trkpt lat="43.52383" lon="5.56451">
        <ele>300</ele>
        <time>2022-02-15T07:39:38.000Z</time>
      </trkpt>
      <trkpt lat="43.52383" lon="5.56451">
        <ele>301</ele>
        <time>2022-02-15T07:39:39.000Z</time>
      </trkpt>
      <trkpt lat="43.52383" lon="5.56451">
        <ele>301</ele>
        <time>2022-02-15T07:39:40.000Z</time>
      </trkpt>
      <trkpt lat="43.52383" lon="5.56451">
        <ele>300</ele>
        <time>2022-02-15T07:39:41.000Z</time>
      </trkpt>
      <trkpt lat="43.52383" lon="5.5645">
        <ele>300</ele>
        <time>2022-02-15T07:39:42.000Z</time>
      </trkpt>
      <trkpt lat="43.52383" lon="5.5645">
        <ele>300</ele>
        <time>2022-02-15T07:39:43.000Z</time>
      </trkpt>
      <trkpt lat="43.52383" lon="5.5645">
        <ele>300</ele>
        <time>2022-02-15T07:39:44.000Z</time>
      </trkpt>
      <trkpt lat="43.52383" lon="5.5645">
        <ele>301</ele>
        <time>2022-02-15T07:39:45.000Z</time>
      </trkpt>
      <trkpt lat="43.52383" lon="5.5645">
        <ele>301</ele>
        <time>2022-02-15T07:39:46.000Z</time>
      </trkpt>
      <trkpt lat="43.52383" lon="5.5645">
        <ele>301</ele>
        <time>2022-02-15T07:39:47.000Z</time>
      </trkpt>
      <trkpt lat="43.52383" lon="5.5645">
        <ele>301</ele>
        <time>2022-02-15T07:39:48.000Z</time>
      </trkpt>
      <trkpt lat="43.52384" lon="5.5645">
        <ele>301</ele>
        <time>2022-02-15T07:39:49.000Z</time>
      </trkpt>
      <trkpt lat="43.52385" lon="5.5645">
        <ele>301</ele>
        <time>2022-02-15T07:39:50.000Z</time>
      </trkpt>
      <trkpt lat="43.52385" lon="5.5645">
        <ele>301</ele>
        <time>2022-02-15T07:39:51.000Z</time>
      </trkpt>
      <trkpt lat="43.52386" lon="5.56451">
        <ele>301</ele>
        <time>2022-02-15T07:39:52.000Z</time>
      </trkpt>
      <trkpt lat="43.52386" lon="5.56451">
        <ele>301</ele>
        <time>2022-02-15T07:39:53.000Z</time>
      </trkpt>
      <trkpt lat="43.52386" lon="5.56451">
        <ele>301</ele>
        <time>2022-02-15T07:39:54.000Z</time>
      </trkpt>
      <trkpt lat="43.52386" lon="5.56452">
        <ele>300</ele>
        <time>2022-02-15T07:39:55.000Z</time>
      </trkpt>
      <trkpt lat="43.52386" lon="5.56452">
        <ele>300</ele>
        <time>2022-02-15T07:39:56.000Z</time>
      </trkpt>
      <trkpt lat="43.52386" lon="5.56452">
        <ele>300</ele>
        <time>2022-02-15T07:39:57.000Z</time>
      </trkpt>
      <trkpt lat="43.52386" lon="5.56452">
        <ele>300</ele>
        <time>2022-02-15T07:39:58.000Z</time>
      </trkpt>
      <trkpt lat="43.52386" lon="5.56452">
        <ele>300</ele>
        <time>2022-02-15T07:39:59.000Z</time>
      </trkpt>
      <trkpt lat="43.52387" lon="5.56452">
        <ele>300</ele>
        <time>2022-02-15T07:40:00.000Z</time>
      </trkpt>
      <trkpt lat="43.52387" lon="5.56452">
        <ele>300</ele>
        <time>2022-02-15T07:40:01.000Z</time>
      </trkpt>
      <trkpt lat="43.52387" lon="5.56452">
        <ele>300</ele>
        <time>2022-02-15T07:40:02.000Z</time>
      </trkpt>
      <trkpt lat="43.52387" lon="5.56452">
        <ele>300</ele>
        <time>2022-02-15T07:40:03.000Z</time>
      </trkpt>
      <trkpt lat="43.52387" lon="5.56452">
        <ele>300</ele>
        <time>2022-02-15T07:40:04.000Z</time>
      </trkpt>
      <trkpt lat="43.52387" lon="5.56452">
        <ele>299</ele>
        <time>2022-02-15T07:40:05.000Z</time>
      </trkpt>
      <trkpt lat="43.52387" lon="5.56452">
        <ele>299</ele>
        <time>2022-02-15T07:40:06.000Z</time>
      </trkpt>
      <trkpt lat="43.52387" lon="5.56452">
        <ele>299</ele>
        <time>2022-02-15T07:40:07.000Z</time>
      </trkpt>
      <trkpt lat="43.52387" lon="5.56452">
        <ele>299</ele>
        <time>2022-02-15T07:40:08.000Z</time>
      </trkpt>
      <trkpt lat="43.52387" lon="5.56452">
        <ele>299</ele>
        <time>2022-02-15T07:40:09.000Z</time>
      </trkpt>
      <trkpt lat="43.52387" lon="5.56452">
        <ele>299</ele>
        <time>2022-02-15T07:40:10.000Z</time>
      </trkpt>
      <trkpt lat="43.52387" lon="5.56452">
        <ele>299</ele>
        <time>2022-02-15T07:40:11.000Z</time>
      </trkpt>
      <trkpt lat="43.52387" lon="5.56452">
        <ele>299</ele>
        <time>2022-02-15T07:40:12.000Z</time>
      </trkpt>
      <trkpt lat="43.52387" lon="5.56452">
        <ele>299</ele>
        <time>2022-02-15T07:40:13.000Z</time>
      </trkpt>
      <trkpt lat="43.52387" lon="5.56452">
        <ele>299</ele>
        <time>2022-02-15T07:40:14.000Z</time>
      </trkpt>
      <trkpt lat="43.52387" lon="5.56452">
        <ele>299</ele>
        <time>2022-02-15T07:40:15.000Z</time>
      </trkpt>
      <trkpt lat="43.52387" lon="5.56452">
        <ele>299</ele>
        <time>2022-02-15T07:40:16.000Z</time>
      </trkpt>
      <trkpt lat="43.52387" lon="5.56452">
        <ele>299</ele>
        <time>2022-02-15T07:40:17.000Z</time>
      </trkpt>
      <trkpt lat="43.52387" lon="5.56452">
        <ele>299</ele>
        <time>2022-02-15T07:40:18.000Z</time>
      </trkpt>
      <trkpt lat="43.52387" lon="5.56452">
        <ele>299</ele>
        <time>2022-02-15T07:40:19.000Z</time>
      </trkpt>
      <trkpt lat="43.52387" lon="5.56452">
        <ele>299</ele>
        <time>2022-02-15T07:40:20.000Z</time>
      </trkpt>
      <trkpt lat="43.52387" lon="5.56452">
        <ele>299</ele>
        <time>2022-02-15T07:40:21.000Z</time>
      </trkpt>
      <trkpt lat="43.52387" lon="5.56452">
        <ele>299</ele>
        <time>2022-02-15T07:40:22.000Z</time>
      </trkpt>
      <trkpt lat="43.52388" lon="5.56453">
        <ele>299</ele>
        <time>2022-02-15T07:40:23.000Z</time>
      </trkpt>
      <trkpt lat="43.52387" lon="5.56453">
        <ele>299</ele>
        <time>2022-02-15T07:40:24.000Z</time>
      </trkpt>
      <trkpt lat="43.52387" lon="5.56454">
        <ele>299</ele>
        <time>2022-02-15T07:40:25.000Z</time>
      </trkpt>
      <trkpt lat="43.52387" lon="5.56454">
        <ele>298</ele>
        <time>2022-02-15T07:40:26.000Z</time>
      </trkpt>
      <trkpt lat="43.52387" lon="5.56455">
        <ele>298</ele>
        <time>2022-02-15T07:40:27.000Z</time>
      </trkpt>
      <trkpt lat="43.52387" lon="5.56455">
        <ele>298</ele>
        <time>2022-02-15T07:40:28.000Z</time>
      </trkpt>
      <trkpt lat="43.52387" lon="5.56455">
        <ele>298</ele>
        <time>2022-02-15T07:40:29.000Z</time>
      </trkpt>
      <trkpt lat="43.52387" lon="5.56455">
        <ele>298</ele>
        <time>2022-02-15T07:40:30.000Z</time>
      </trkpt>
      <trkpt lat="43.52387" lon="5.56455">
        <ele>298</ele>
        <time>2022-02-15T07:40:31.000Z</time>
      </trkpt>
      <trkpt lat="43.52387" lon="5.56455">
        <ele>298</ele>
        <time>2022-02-15T07:40:32.000Z</time>
      </trkpt>
      <trkpt lat="43.52387" lon="5.56455">
        <ele>297</ele>
        <time>2022-02-15T07:40:33.000Z</time>
      </trkpt>
      <trkpt lat="43.52388" lon="5.56455">
        <ele>297</ele>
        <time>2022-02-15T07:40:34.000Z</time>
      </trkpt>
      <trkpt lat="43.52388" lon="5.56455">
        <ele>297</ele>
        <time>2022-02-15T07:40:35.000Z</time>
      </trkpt>
      <trkpt lat="43.52388" lon="5.56455">
        <ele>297</ele>
        <time>2022-02-15T07:40:36.000Z</time>
      </trkpt>
      <trkpt lat="43.52388" lon="5.56455">
        <ele>297</ele>
        <time>2022-02-15T07:40:37.000Z</time>
      </trkpt>
      <trkpt lat="43.52388" lon="5.56455">
        <ele>297</ele>
        <time>2022-02-15T07:40:38.000Z</time>
      </trkpt>
      <trkpt lat="43.52388" lon="5.56455">
        <ele>297</ele>
        <time>2022-02-15T07:40:39.000Z</time>
      </trkpt>
      <trkpt lat="43.52388" lon="5.56455">
        <ele>297</ele>
        <time>2022-02-15T07:40:40.000Z</time>
      </trkpt>
      <trkpt lat="43.52388" lon="5.56455">
        <ele>297</ele>
        <time>2022-02-15T07:40:41.000Z</time>
      </trkpt>
      <trkpt lat="43.52387" lon="5.56455">
        <ele>297</ele>
        <time>2022-02-15T07:40:42.000Z</time>
      </trkpt>
      <trkpt lat="43.52387" lon="5.56455">
        <ele>297</ele>
        <time>2022-02-15T07:40:43.000Z</time>
      </trkpt>
      <trkpt lat="43.52386" lon="5.56454">
        <ele>297</ele>
        <time>2022-02-15T07:40:44.000Z</time>
      </trkpt>
      <trkpt lat="43.52386" lon="5.56454">
        <ele>297</ele>
        <time>2022-02-15T07:40:45.000Z</time>
      </trkpt>
      <trkpt lat="43.52385" lon="5.56454">
        <ele>297</ele>
        <time>2022-02-15T07:40:46.000Z</time>
      </trkpt>
      <trkpt lat="43.52385" lon="5.56453">
        <ele>297</ele>
        <time>2022-02-15T07:40:47.000Z</time>
      </trkpt>
      <trkpt lat="43.52384" lon="5.56453">
        <ele>297</ele>
        <time>2022-02-15T07:40:48.000Z</time>
      </trkpt>
      <trkpt lat="43.52383" lon="5.56453">
        <ele>297</ele>
        <time>2022-02-15T07:40:49.000Z</time>
      </trkpt>
      <trkpt lat="43.52383" lon="5.56453">
        <ele>297</ele>
        <time>2022-02-15T07:40:50.000Z</time>
      </trkpt>
      <trkpt lat="43.52383" lon="5.56453">
        <ele>297</ele>
        <time>2022-02-15T07:40:51.000Z</time>
      </trkpt>
      <trkpt lat="43.52383" lon="5.56453">
        <ele>297</ele>
        <time>2022-02-15T07:40:52.000Z</time>
      </trkpt>
      <trkpt lat="43.52383" lon="5.56453">
        <ele>297</ele>
        <time>2022-02-15T07:40:53.000Z</time>
      </trkpt>
      <trkpt lat="43.52383" lon="5.56453">
        <ele>297</ele>
        <time>2022-02-15T07:40:54.000Z</time>
      </trkpt>
      <trkpt lat="43.52383" lon="5.56453">
        <ele>297</ele>
        <time>2022-02-15T07:40:55.000Z</time>
      </trkpt>
      <trkpt lat="43.52384" lon="5.56453">
        <ele>297</ele>
        <time>2022-02-15T07:40:56.000Z</time>
      </trkpt>
      <trkpt lat="43.52384" lon="5.56453">
        <ele>297</ele>
        <time>2022-02-15T07:40:57.000Z</time>
      </trkpt>
      <trkpt lat="43.52384" lon="5.56453">
        <ele>297</ele>
        <time>2022-02-15T07:40:58.000Z</time>
      </trkpt>
      <trkpt lat="43.52385" lon="5.56453">
        <ele>297</ele>
        <time>2022-02-15T07:40:59.000Z</time>
      </trkpt>
      <trkpt lat="43.52385" lon="5.56454">
        <ele>297</ele>
        <time>2022-02-15T07:41:00.000Z</time>
      </trkpt>
      <trkpt lat="43.52385" lon="5.56454">
        <ele>297</ele>
        <time>2022-02-15T07:41:01.000Z</time>
      </trkpt>
      <trkpt lat="43.52386" lon="5.56455">
        <ele>297</ele>
        <time>2022-02-15T07:41:02.000Z</time>
      </trkpt>
      <trkpt lat="43.52386" lon="5.56456">
        <ele>297</ele>
        <time>2022-02-15T07:41:03.000Z</time>
      </trkpt>
      <trkpt lat="43.52386" lon="5.56457">
        <ele>297</ele>
        <time>2022-02-15T07:41:04.000Z</time>
      </trkpt>
      <trkpt lat="43.52386" lon="5.56458">
        <ele>297</ele>
        <time>2022-02-15T07:41:05.000Z</time>
      </trkpt>
      <trkpt lat="43.52386" lon="5.56458">
        <ele>297</ele>
        <time>2022-02-15T07:41:06.000Z</time>
      </trkpt>
      <trkpt lat="43.52387" lon="5.56459">
        <ele>297</ele>
        <time>2022-02-15T07:41:07.000Z</time>
      </trkpt>
      <trkpt lat="43.52387" lon="5.5646">
        <ele>297</ele>
        <time>2022-02-15T07:41:08.000Z</time>
      </trkpt>
      <trkpt lat="43.52387" lon="5.56461">
        <ele>297</ele>
        <time>2022-02-15T07:41:09.000Z</time>
      </trkpt>
      <trkpt lat="43.52387" lon="5.56462">
        <ele>297</ele>
        <time>2022-02-15T07:41:10.000Z</time>
      </trkpt>
      <trkpt lat="43.52387" lon="5.56463">
        <ele>297</ele>
        <time>2022-02-15T07:41:11.000Z</time>
      </trkpt>
      <trkpt lat="43.52387" lon="5.56463">
        <ele>297</ele>
        <time>2022-02-15T07:41:12.000Z</time>
      </trkpt>
      <trkpt lat="43.52386" lon="5.56464">
        <ele>296</ele>
        <time>2022-02-15T07:41:13.000Z</time>
      </trkpt>
      <trkpt lat="43.52386" lon="5.56465">
        <ele>296</ele>
        <time>2022-02-15T07:41:14.000Z</time>
      </trkpt>
      <trkpt lat="43.52386" lon="5.56466">
        <ele>296</ele>
        <time>2022-02-15T07:41:15.000Z</time>
      </trkpt>
      <trkpt lat="43.52386" lon="5.56467">
        <ele>296</ele>
        <time>2022-02-15T07:41:16.000Z</time>
      </trkpt>
      <trkpt lat="43.52386" lon="5.56469">
        <ele>296</ele>
        <time>2022-02-15T07:41:17.000Z</time>
      </trkpt>
      <trkpt lat="43.52386" lon="5.56469">
        <ele>296</ele>
        <time>2022-02-15T07:41:18.000Z</time>
      </trkpt>
      <trkpt lat="43.52386" lon="5.5647">
        <ele>296</ele>
        <time>2022-02-15T07:41:19.000Z</time>
      </trkpt>
      <trkpt lat="43.52386" lon="5.56471">
        <ele>297</ele>
        <time>2022-02-15T07:41:20.000Z</time>
      </trkpt>
      <trkpt lat="43.52387" lon="5.56472">
        <ele>297</ele>
        <time>2022-02-15T07:41:21.000Z</time>
      </trkpt>
      <trkpt lat="43.52387" lon="5.56473">
        <ele>297</ele>
        <time>2022-02-15T07:41:22.000Z</time>
      </trkpt>
      <trkpt lat="43.52387" lon="5.56475">
        <ele>297</ele>
        <time>2022-02-15T07:41:23.000Z</time>
      </trkpt>
      <trkpt lat="43.52387" lon="5.56476">
        <ele>297</ele>
        <time>2022-02-15T07:41:24.000Z</time>
      </trkpt>
      <trkpt lat="43.52387" lon="5.56477">
        <ele>297</ele>
        <time>2022-02-15T07:41:25.000Z</time>
      </trkpt>
      <trkpt lat="43.52387" lon="5.56478">
        <ele>297</ele>
        <time>2022-02-15T07:41:26.000Z</time>
      </trkpt>
      <trkpt lat="43.52387" lon="5.5648">
        <ele>297</ele>
        <time>2022-02-15T07:41:27.000Z</time>
      </trkpt>
      <trkpt lat="43.52388" lon="5.56481">
        <ele>297</ele>
        <time>2022-02-15T07:41:28.000Z</time>
      </trkpt>
      <trkpt lat="43.52388" lon="5.56482">
        <ele>297</ele>
        <time>2022-02-15T07:41:29.000Z</time>
      </trkpt>
      <trkpt lat="43.52388" lon="5.56483">
        <ele>297</ele>
        <time>2022-02-15T07:41:30.000Z</time>
      </trkpt>
      <trkpt lat="43.52388" lon="5.56484">
        <ele>297</ele>
        <time>2022-02-15T07:41:31.000Z</time>
      </trkpt>
      <trkpt lat="43.52388" lon="5.56485">
        <ele>297</ele>
        <time>2022-02-15T07:41:32.000Z</time>
      </trkpt>
      <trkpt lat="43.52388" lon="5.56486">
        <ele>297</ele>
        <time>2022-02-15T07:41:33.000Z</time>
      </trkpt>
      <trkpt lat="43.52387" lon="5.56486">
        <ele>297</ele>
        <time>2022-02-15T07:41:34.000Z</time>
      </trkpt>
      <trkpt lat="43.52387" lon="5.56487">
        <ele>297</ele>
        <time>2022-02-15T07:41:35.000Z</time>
      </trkpt>
      <trkpt lat="43.52387" lon="5.56487">
        <ele>298</ele>
        <time>2022-02-15T07:41:36.000Z</time>
      </trkpt>
      <trkpt lat="43.52387" lon="5.56488">
        <ele>298</ele>
        <time>2022-02-15T07:41:37.000Z</time>
      </trkpt>
      <trkpt lat="43.52387" lon="5.56489">
        <ele>298</ele>
        <time>2022-02-15T07:41:38.000Z</time>
      </trkpt>
      <trkpt lat="43.52386" lon="5.5649">
        <ele>298</ele>
        <time>2022-02-15T07:41:39.000Z</time>
      </trkpt>
      <trkpt lat="43.52386" lon="5.5649">
        <ele>298</ele>
        <time>2022-02-15T07:41:40.000Z</time>
      </trkpt>
      <trkpt lat="43.52387" lon="5.56491">
        <ele>298</ele>
        <time>2022-02-15T07:41:41.000Z</time>
      </trkpt>
      <trkpt lat="43.52386" lon="5.56491">
        <ele>299</ele>
        <time>2022-02-15T07:41:42.000Z</time>
      </trkpt>
      <trkpt lat="43.52386" lon="5.56492">
        <ele>299</ele>
        <time>2022-02-15T07:41:43.000Z</time>
      </trkpt>
      <trkpt lat="43.52386" lon="5.56492">
        <ele>299</ele>
        <time>2022-02-15T07:41:44.000Z</time>
      </trkpt>
      <trkpt lat="43.52385" lon="5.56493">
        <ele>299</ele>
        <time>2022-02-15T07:41:45.000Z</time>
      </trkpt>
      <trkpt lat="43.52385" lon="5.56494">
        <ele>299</ele>
        <time>2022-02-15T07:41:46.000Z</time>
      </trkpt>
      <trkpt lat="43.52385" lon="5.56495">
        <ele>299</ele>
        <time>2022-02-15T07:41:47.000Z</time>
      </trkpt>
      <trkpt lat="43.52385" lon="5.56496">
        <ele>299</ele>
        <time>2022-02-15T07:41:48.000Z</time>
      </trkpt>
      <trkpt lat="43.52384" lon="5.56497">
        <ele>299</ele>
        <time>2022-02-15T07:41:49.000Z</time>
      </trkpt>
      <trkpt lat="43.52384" lon="5.56498">
        <ele>300</ele>
        <time>2022-02-15T07:41:50.000Z</time>
      </trkpt>
      <trkpt lat="43.52384" lon="5.56499">
        <ele>300</ele>
        <time>2022-02-15T07:41:51.000Z</time>
      </trkpt>
      <trkpt lat="43.52383" lon="5.565">
        <ele>300</ele>
        <time>2022-02-15T07:41:52.000Z</time>
      </trkpt>
      <trkpt lat="43.52383" lon="5.56501">
        <ele>300</ele>
        <time>2022-02-15T07:41:53.000Z</time>
      </trkpt>
      <trkpt lat="43.52382" lon="5.56503">
        <ele>300</ele>
        <time>2022-02-15T07:41:54.000Z</time>
      </trkpt>
      <trkpt lat="43.52382" lon="5.56504">
        <ele>300</ele>
        <time>2022-02-15T07:41:55.000Z</time>
      </trkpt>
      <trkpt lat="43.52381" lon="5.56505">
        <ele>300</ele>
        <time>2022-02-15T07:41:56.000Z</time>
      </trkpt>
      <trkpt lat="43.52381" lon="5.56506">
        <ele>300</ele>
        <time>2022-02-15T07:41:57.000Z</time>
      </trkpt>
      <trkpt lat="43.52381" lon="5.56507">
        <ele>300</ele>
        <time>2022-02-15T07:41:58.000Z</time>
      </trkpt>
      <trkpt lat="43.52381" lon="5.56508">
        <ele>300</ele>
        <time>2022-02-15T07:41:59.000Z</time>
      </trkpt>
      <trkpt lat="43.52381" lon="5.56509">
        <ele>300</ele>
        <time>2022-02-15T07:42:00.000Z</time>
      </trkpt>
      <trkpt lat="43.5238" lon="5.56511">
        <ele>300</ele>
        <time>2022-02-15T07:42:01.000Z</time>
      </trkpt>
      <trkpt lat="43.5238" lon="5.56511">
        <ele>301</ele>
        <time>2022-02-15T07:42:02.000Z</time>
      </trkpt>
      <trkpt lat="43.5238" lon="5.56512">
        <ele>301</ele>
        <time>2022-02-15T07:42:03.000Z</time>
      </trkpt>
      <trkpt lat="43.5238" lon="5.56513">
        <ele>301</ele>
        <time>2022-02-15T07:42:04.000Z</time>
      </trkpt>
      <trkpt lat="43.52379" lon="5.56514">
        <ele>301</ele>
        <time>2022-02-15T07:42:05.000Z</time>
      </trkpt>
      <trkpt lat="43.52379" lon="5.56514">
        <ele>301</ele>
        <time>2022-02-15T07:42:06.000Z</time>
      </trkpt>
      <trkpt lat="43.52379" lon="5.56514">
        <ele>301</ele>
        <time>2022-02-15T07:42:07.000Z</time>
      </trkpt>
      <trkpt lat="43.52379" lon="5.56514">
        <ele>301</ele>
        <time>2022-02-15T07:42:08.000Z</time>
      </trkpt>
      <trkpt lat="43.52379" lon="5.56515">
        <ele>301</ele>
        <time>2022-02-15T07:42:09.000Z</time>
      </trkpt>
      <trkpt lat="43.5238" lon="5.56515">
        <ele>301</ele>
        <time>2022-02-15T07:42:10.000Z</time>
      </trkpt>
      <trkpt lat="43.5238" lon="5.56515">
        <ele>301</ele>
        <time>2022-02-15T07:42:11.000Z</time>
      </trkpt>
      <trkpt lat="43.5238" lon="5.56515">
        <ele>301</ele>
        <time>2022-02-15T07:42:12.000Z</time>
      </trkpt>
      <trkpt lat="43.5238" lon="5.56515">
        <ele>301</ele>
        <time>2022-02-15T07:42:13.000Z</time>
      </trkpt>
      <trkpt lat="43.5238" lon="5.56515">
        <ele>301</ele>
        <time>2022-02-15T07:42:14.000Z</time>
      </trkpt>
      <trkpt lat="43.5238" lon="5.56515">
        <ele>302</ele>
        <time>2022-02-15T07:42:15.000Z</time>
      </trkpt>
      <trkpt lat="43.5238" lon="5.56515">
        <ele>302</ele>
        <time>2022-02-15T07:42:16.000Z</time>
      </trkpt>
      <trkpt lat="43.5238" lon="5.56515">
        <ele>302</ele>
        <time>2022-02-15T07:42:17.000Z</time>
      </trkpt>
      <trkpt lat="43.5238" lon="5.56516">
        <ele>302</ele>
        <time>2022-02-15T07:42:18.000Z</time>
      </trkpt>
      <trkpt lat="43.5238" lon="5.56516">
        <ele>302</ele>
        <time>2022-02-15T07:42:19.000Z</time>
      </trkpt>
      <trkpt lat="43.5238" lon="5.56516">
        <ele>302</ele>
        <time>2022-02-15T07:42:20.000Z</time>
      </trkpt>
      <trkpt lat="43.5238" lon="5.56516">
        <ele>302</ele>
        <time>2022-02-15T07:42:21.000Z</time>
      </trkpt>
      <trkpt lat="43.5238" lon="5.56516">
        <ele>302</ele>
        <time>2022-02-15T07:42:22.000Z</time>
      </trkpt>
      <trkpt lat="43.5238" lon="5.56516">
        <ele>303</ele>
        <time>2022-02-15T07:42:23.000Z</time>
      </trkpt>
      <trkpt lat="43.52381" lon="5.56516">
        <ele>303</ele>
        <time>2022-02-15T07:42:24.000Z</time>
      </trkpt>
      <trkpt lat="43.52381" lon="5.56516">
        <ele>303</ele>
        <time>2022-02-15T07:42:25.000Z</time>
      </trkpt>
      <trkpt lat="43.52381" lon="5.56516">
        <ele>303</ele>
        <time>2022-02-15T07:42:26.000Z</time>
      </trkpt>
      <trkpt lat="43.52381" lon="5.56516">
        <ele>303</ele>
        <time>2022-02-15T07:42:27.000Z</time>
      </trkpt>
      <trkpt lat="43.52381" lon="5.56516">
        <ele>303</ele>
        <time>2022-02-15T07:42:28.000Z</time>
      </trkpt>
      <trkpt lat="43.52381" lon="5.56516">
        <ele>303</ele>
        <time>2022-02-15T07:42:29.000Z</time>
      </trkpt>
      <trkpt lat="43.52381" lon="5.56516">
        <ele>303</ele>
        <time>2022-02-15T07:42:30.000Z</time>
      </trkpt>
      <trkpt lat="43.52381" lon="5.56516">
        <ele>303</ele>
        <time>2022-02-15T07:42:31.000Z</time>
      </trkpt>
      <trkpt lat="43.5238" lon="5.56516">
        <ele>304</ele>
        <time>2022-02-15T07:42:32.000Z</time>
      </trkpt>
      <trkpt lat="43.5238" lon="5.56516">
        <ele>304</ele>
        <time>2022-02-15T07:42:33.000Z</time>
      </trkpt>
      <trkpt lat="43.5238" lon="5.56517">
        <ele>304</ele>
        <time>2022-02-15T07:42:34.000Z</time>
      </trkpt>
      <trkpt lat="43.5238" lon="5.56517">
        <ele>304</ele>
        <time>2022-02-15T07:42:35.000Z</time>
      </trkpt>
      <trkpt lat="43.5238" lon="5.56517">
        <ele>304</ele>
        <time>2022-02-15T07:42:36.000Z</time>
      </trkpt>
      <trkpt lat="43.5238" lon="5.56517">
        <ele>304</ele>
        <time>2022-02-15T07:42:37.000Z</time>
      </trkpt>
      <trkpt lat="43.52379" lon="5.56516">
        <ele>304</ele>
        <time>2022-02-15T07:42:38.000Z</time>
      </trkpt>
      <trkpt lat="43.52379" lon="5.56516">
        <ele>305</ele>
        <time>2022-02-15T07:42:39.000Z</time>
      </trkpt>
      <trkpt lat="43.52379" lon="5.56516">
        <ele>305</ele>
        <time>2022-02-15T07:42:40.000Z</time>
      </trkpt>
      <trkpt lat="43.52378" lon="5.56516">
        <ele>305</ele>
        <time>2022-02-15T07:42:41.000Z</time>
      </trkpt>
      <trkpt lat="43.52378" lon="5.56516">
        <ele>305</ele>
        <time>2022-02-15T07:42:42.000Z</time>
      </trkpt>
      <trkpt lat="43.52378" lon="5.56516">
        <ele>305</ele>
        <time>2022-02-15T07:42:43.000Z</time>
      </trkpt>
      <trkpt lat="43.52378" lon="5.56516">
        <ele>305</ele>
        <time>2022-02-15T07:42:44.000Z</time>
      </trkpt>
      <trkpt lat="43.52378" lon="5.56516">
        <ele>305</ele>
        <time>2022-02-15T07:42:45.000Z</time>
      </trkpt>
      <trkpt lat="43.52378" lon="5.56516">
        <ele>305</ele>
        <time>2022-02-15T07:42:46.000Z</time>
      </trkpt>
      <trkpt lat="43.52378" lon="5.56516">
        <ele>305</ele>
        <time>2022-02-15T07:42:47.000Z</time>
      </trkpt>
      <trkpt lat="43.52378" lon="5.56516">
        <ele>305</ele>
        <time>2022-02-15T07:42:48.000Z</time>
      </trkpt>
      <trkpt lat="43.52378" lon="5.56516">
        <ele>305</ele>
        <time>2022-02-15T07:42:49.000Z</time>
      </trkpt>
      <trkpt lat="43.52377" lon="5.56516">
        <ele>305</ele>
        <time>2022-02-15T07:42:50.000Z</time>
      </trkpt>
      <trkpt lat="43.52377" lon="5.56515">
        <ele>305</ele>
        <time>2022-02-15T07:42:51.000Z</time>
      </trkpt>
      <trkpt lat="43.52377" lon="5.56515">
        <ele>305</ele>
        <time>2022-02-15T07:42:52.000Z</time>
      </trkpt>
      <trkpt lat="43.52377" lon="5.56515">
        <ele>305</ele>
        <time>2022-02-15T07:42:53.000Z</time>
      </trkpt>
      <trkpt lat="43.52377" lon="5.56516">
        <ele>305</ele>
        <time>2022-02-15T07:42:54.000Z</time>
      </trkpt>
      <trkpt lat="43.52377" lon="5.56516">
        <ele>305</ele>
        <time>2022-02-15T07:42:55.000Z</time>
      </trkpt>
      <trkpt lat="43.52377" lon="5.56516">
        <ele>305</ele>
        <time>2022-02-15T07:42:56.000Z</time>
      </trkpt>
      <trkpt lat="43.52377" lon="5.56516">
        <ele>305</ele>
        <time>2022-02-15T07:42:57.000Z</time>
      </trkpt>
      <trkpt lat="43.52377" lon="5.56516">
        <ele>305</ele>
        <time>2022-02-15T07:42:58.000Z</time>
      </trkpt>
      <trkpt lat="43.52376" lon="5.56516">
        <ele>305</ele>
        <time>2022-02-15T07:42:59.000Z</time>
      </trkpt>
      <trkpt lat="43.52376" lon="5.56516">
        <ele>305</ele>
        <time>2022-02-15T07:43:00.000Z</time>
      </trkpt>
      <trkpt lat="43.52376" lon="5.56516">
        <ele>305</ele>
        <time>2022-02-15T07:43:01.000Z</time>
      </trkpt>
      <trkpt lat="43.52376" lon="5.56516">
        <ele>305</ele>
        <time>2022-02-15T07:43:02.000Z</time>
      </trkpt>
      <trkpt lat="43.52376" lon="5.56517">
        <ele>305</ele>
        <time>2022-02-15T07:43:03.000Z</time>
      </trkpt>
      <trkpt lat="43.52376" lon="5.56517">
        <ele>305</ele>
        <time>2022-02-15T07:43:04.000Z</time>
      </trkpt>
      <trkpt lat="43.52376" lon="5.56517">
        <ele>305</ele>
        <time>2022-02-15T07:43:05.000Z</time>
      </trkpt>
      <trkpt lat="43.52376" lon="5.56517">
        <ele>305</ele>
        <time>2022-02-15T07:43:06.000Z</time>
      </trkpt>
      <trkpt lat="43.52376" lon="5.56517">
        <ele>305</ele>
        <time>2022-02-15T07:43:07.000Z</time>
      </trkpt>
      <trkpt lat="43.52376" lon="5.56517">
        <ele>305</ele>
        <time>2022-02-15T07:43:08.000Z</time>
      </trkpt>
      <trkpt lat="43.52376" lon="5.56517">
        <ele>305</ele>
        <time>2022-02-15T07:43:09.000Z</time>
      </trkpt>
      <trkpt lat="43.52376" lon="5.56518">
        <ele>305</ele>
        <time>2022-02-15T07:43:10.000Z</time>
      </trkpt>
      <trkpt lat="43.52375" lon="5.56518">
        <ele>305</ele>
        <time>2022-02-15T07:43:11.000Z</time>
      </trkpt>
      <trkpt lat="43.52374" lon="5.56519">
        <ele>305</ele>
        <time>2022-02-15T07:43:12.000Z</time>
      </trkpt>
      <trkpt lat="43.52374" lon="5.56521">
        <ele>305</ele>
        <time>2022-02-15T07:43:13.000Z</time>
      </trkpt>
      <trkpt lat="43.52373" lon="5.56522">
        <ele>305</ele>
        <time>2022-02-15T07:43:14.000Z</time>
      </trkpt>
      <trkpt lat="43.52373" lon="5.56523">
        <ele>305</ele>
        <time>2022-02-15T07:43:15.000Z</time>
      </trkpt>
      <trkpt lat="43.52373" lon="5.56524">
        <ele>305</ele>
        <time>2022-02-15T07:43:16.000Z</time>
      </trkpt>
      <trkpt lat="43.52372" lon="5.56525">
        <ele>305</ele>
        <time>2022-02-15T07:43:17.000Z</time>
      </trkpt>
      <trkpt lat="43.52372" lon="5.56526">
        <ele>305</ele>
        <time>2022-02-15T07:43:18.000Z</time>
      </trkpt>
      <trkpt lat="43.52372" lon="5.56527">
        <ele>305</ele>
        <time>2022-02-15T07:43:19.000Z</time>
      </trkpt>
      <trkpt lat="43.52371" lon="5.56529">
        <ele>304</ele>
        <time>2022-02-15T07:43:20.000Z</time>
      </trkpt>
      <trkpt lat="43.52371" lon="5.5653">
        <ele>304</ele>
        <time>2022-02-15T07:43:21.000Z</time>
      </trkpt>
      <trkpt lat="43.5237" lon="5.56531">
        <ele>304</ele>
        <time>2022-02-15T07:43:22.000Z</time>
      </trkpt>
      <trkpt lat="43.52369" lon="5.56532">
        <ele>304</ele>
        <time>2022-02-15T07:43:23.000Z</time>
      </trkpt>
      <trkpt lat="43.52369" lon="5.56533">
        <ele>304</ele>
        <time>2022-02-15T07:43:24.000Z</time>
      </trkpt>
      <trkpt lat="43.52369" lon="5.56534">
        <ele>304</ele>
        <time>2022-02-15T07:43:25.000Z</time>
      </trkpt>
      <trkpt lat="43.52368" lon="5.56536">
        <ele>304</ele>
        <time>2022-02-15T07:43:26.000Z</time>
      </trkpt>
      <trkpt lat="43.52368" lon="5.56537">
        <ele>304</ele>
        <time>2022-02-15T07:43:27.000Z</time>
      </trkpt>
      <trkpt lat="43.52368" lon="5.56538">
        <ele>304</ele>
        <time>2022-02-15T07:43:28.000Z</time>
      </trkpt>
      <trkpt lat="43.52367" lon="5.5654">
        <ele>304</ele>
        <time>2022-02-15T07:43:29.000Z</time>
      </trkpt>
      <trkpt lat="43.52367" lon="5.56541">
        <ele>304</ele>
        <time>2022-02-15T07:43:30.000Z</time>
      </trkpt>
      <trkpt lat="43.52366" lon="5.56542">
        <ele>304</ele>
        <time>2022-02-15T07:43:31.000Z</time>
      </trkpt>
      <trkpt lat="43.52366" lon="5.56544">
        <ele>304</ele>
        <time>2022-02-15T07:43:32.000Z</time>
      </trkpt>
      <trkpt lat="43.52366" lon="5.56545">
        <ele>304</ele>
        <time>2022-02-15T07:43:33.000Z</time>
      </trkpt>
      <trkpt lat="43.52366" lon="5.56546">
        <ele>304</ele>
        <time>2022-02-15T07:43:34.000Z</time>
      </trkpt>
      <trkpt lat="43.52365" lon="5.56548">
        <ele>304</ele>
        <time>2022-02-15T07:43:35.000Z</time>
      </trkpt>
      <trkpt lat="43.52365" lon="5.56549">
        <ele>304</ele>
        <time>2022-02-15T07:43:36.000Z</time>
      </trkpt>
      <trkpt lat="43.52365" lon="5.5655">
        <ele>305</ele>
        <time>2022-02-15T07:43:37.000Z</time>
      </trkpt>
      <trkpt lat="43.52365" lon="5.56552">
        <ele>305</ele>
        <time>2022-02-15T07:43:38.000Z</time>
      </trkpt>
      <trkpt lat="43.52364" lon="5.56553">
        <ele>305</ele>
        <time>2022-02-15T07:43:39.000Z</time>
      </trkpt>
      <trkpt lat="43.52364" lon="5.56555">
        <ele>305</ele>
        <time>2022-02-15T07:43:40.000Z</time>
      </trkpt>
      <trkpt lat="43.52364" lon="5.56556">
        <ele>305</ele>
        <time>2022-02-15T07:43:41.000Z</time>
      </trkpt>
      <trkpt lat="43.52364" lon="5.56557">
        <ele>305</ele>
        <time>2022-02-15T07:43:42.000Z</time>
      </trkpt>
      <trkpt lat="43.52364" lon="5.56558">
        <ele>305</ele>
        <time>2022-02-15T07:43:43.000Z</time>
      </trkpt>
      <trkpt lat="43.52364" lon="5.5656">
        <ele>305</ele>
        <time>2022-02-15T07:43:44.000Z</time>
      </trkpt>
      <trkpt lat="43.52364" lon="5.5656">
        <ele>305</ele>
        <time>2022-02-15T07:43:45.000Z</time>
      </trkpt>
      <trkpt lat="43.52364" lon="5.56561">
        <ele>306</ele>
        <time>2022-02-15T07:43:46.000Z</time>
      </trkpt>
      <trkpt lat="43.52364" lon="5.56563">
        <ele>306</ele>
        <time>2022-02-15T07:43:47.000Z</time>
      </trkpt>
      <trkpt lat="43.52363" lon="5.56564">
        <ele>306</ele>
        <time>2022-02-15T07:43:48.000Z</time>
      </trkpt>
      <trkpt lat="43.52363" lon="5.56565">
        <ele>306</ele>
        <time>2022-02-15T07:43:49.000Z</time>
      </trkpt>
      <trkpt lat="43.52363" lon="5.56567">
        <ele>306</ele>
        <time>2022-02-15T07:43:50.000Z</time>
      </trkpt>
      <trkpt lat="43.52362" lon="5.56568">
        <ele>306</ele>
        <time>2022-02-15T07:43:51.000Z</time>
      </trkpt>
      <trkpt lat="43.52362" lon="5.56569">
        <ele>306</ele>
        <time>2022-02-15T07:43:52.000Z</time>
      </trkpt>
      <trkpt lat="43.52362" lon="5.56571">
        <ele>306</ele>
        <time>2022-02-15T07:43:53.000Z</time>
      </trkpt>
      <trkpt lat="43.52362" lon="5.56572">
        <ele>306</ele>
        <time>2022-02-15T07:43:54.000Z</time>
      </trkpt>
      <trkpt lat="43.52362" lon="5.56573">
        <ele>306</ele>
        <time>2022-02-15T07:43:55.000Z</time>
      </trkpt>
      <trkpt lat="43.52362" lon="5.56574">
        <ele>306</ele>
        <time>2022-02-15T07:43:56.000Z</time>
      </trkpt>
      <trkpt lat="43.52361" lon="5.56575">
        <ele>306</ele>
        <time>2022-02-15T07:43:57.000Z</time>
      </trkpt>
      <trkpt lat="43.52361" lon="5.56576">
        <ele>306</ele>
        <time>2022-02-15T07:43:58.000Z</time>
      </trkpt>
      <trkpt lat="43.52361" lon="5.56578">
        <ele>306</ele>
        <time>2022-02-15T07:43:59.000Z</time>
      </trkpt>
      <trkpt lat="43.52361" lon="5.56579">
        <ele>307</ele>
        <time>2022-02-15T07:44:00.000Z</time>
      </trkpt>
      <trkpt lat="43.52361" lon="5.5658">
        <ele>307</ele>
        <time>2022-02-15T07:44:01.000Z</time>
      </trkpt>
      <trkpt lat="43.52361" lon="5.56581">
        <ele>307</ele>
        <time>2022-02-15T07:44:02.000Z</time>
      </trkpt>
      <trkpt lat="43.52362" lon="5.56582">
        <ele>307</ele>
        <time>2022-02-15T07:44:03.000Z</time>
      </trkpt>
      <trkpt lat="43.52362" lon="5.56584">
        <ele>307</ele>
        <time>2022-02-15T07:44:04.000Z</time>
      </trkpt>
      <trkpt lat="43.52362" lon="5.56585">
        <ele>307</ele>
        <time>2022-02-15T07:44:05.000Z</time>
      </trkpt>
      <trkpt lat="43.52362" lon="5.56586">
        <ele>307</ele>
        <time>2022-02-15T07:44:06.000Z</time>
      </trkpt>
      <trkpt lat="43.52361" lon="5.56587">
        <ele>308</ele>
        <time>2022-02-15T07:44:07.000Z</time>
      </trkpt>
      <trkpt lat="43.52361" lon="5.56589">
        <ele>308</ele>
        <time>2022-02-15T07:44:08.000Z</time>
      </trkpt>
      <trkpt lat="43.52362" lon="5.5659">
        <ele>308</ele>
        <time>2022-02-15T07:44:09.000Z</time>
      </trkpt>
      <trkpt lat="43.52362" lon="5.56591">
        <ele>308</ele>
        <time>2022-02-15T07:44:10.000Z</time>
      </trkpt>
      <trkpt lat="43.52362" lon="5.56593">
        <ele>308</ele>
        <time>2022-02-15T07:44:11.000Z</time>
      </trkpt>
      <trkpt lat="43.52362" lon="5.56594">
        <ele>308</ele>
        <time>2022-02-15T07:44:12.000Z</time>
      </trkpt>
      <trkpt lat="43.52362" lon="5.56595">
        <ele>309</ele>
        <time>2022-02-15T07:44:13.000Z</time>
      </trkpt>
      <trkpt lat="43.52362" lon="5.56596">
        <ele>309</ele>
        <time>2022-02-15T07:44:14.000Z</time>
      </trkpt>
      <trkpt lat="43.52362" lon="5.56598">
        <ele>309</ele>
        <time>2022-02-15T07:44:15.000Z</time>
      </trkpt>
      <trkpt lat="43.52362" lon="5.56599">
        <ele>309</ele>
        <time>2022-02-15T07:44:16.000Z</time>
      </trkpt>
      <trkpt lat="43.52362" lon="5.566">
        <ele>309</ele>
        <time>2022-02-15T07:44:17.000Z</time>
      </trkpt>
      <trkpt lat="43.52362" lon="5.56601">
        <ele>309</ele>
        <time>2022-02-15T07:44:18.000Z</time>
      </trkpt>
      <trkpt lat="43.52362" lon="5.56602">
        <ele>309</ele>
        <time>2022-02-15T07:44:19.000Z</time>
      </trkpt>
      <trkpt lat="43.52363" lon="5.56603">
        <ele>309</ele>
        <time>2022-02-15T07:44:20.000Z</time>
      </trkpt>
      <trkpt lat="43.52363" lon="5.56604">
        <ele>309</ele>
        <time>2022-02-15T07:44:21.000Z</time>
      </trkpt>
      <trkpt lat="43.52364" lon="5.56605">
        <ele>309</ele>
        <time>2022-02-15T07:44:22.000Z</time>
      </trkpt>
      <trkpt lat="43.52364" lon="5.56606">
        <ele>309</ele>
        <time>2022-02-15T07:44:23.000Z</time>
      </trkpt>
      <trkpt lat="43.52364" lon="5.56607">
        <ele>310</ele>
        <time>2022-02-15T07:44:24.000Z</time>
      </trkpt>
      <trkpt lat="43.52365" lon="5.56608">
        <ele>310</ele>
        <time>2022-02-15T07:44:25.000Z</time>
      </trkpt>
      <trkpt lat="43.52365" lon="5.56609">
        <ele>310</ele>
        <time>2022-02-15T07:44:26.000Z</time>
      </trkpt>
      <trkpt lat="43.52365" lon="5.5661">
        <ele>310</ele>
        <time>2022-02-15T07:44:27.000Z</time>
      </trkpt>
      <trkpt lat="43.52366" lon="5.56611">
        <ele>310</ele>
        <time>2022-02-15T07:44:28.000Z</time>
      </trkpt>
      <trkpt lat="43.52366" lon="5.56612">
        <ele>310</ele>
        <time>2022-02-15T07:44:29.000Z</time>
      </trkpt>
      <trkpt lat="43.52366" lon="5.56613">
        <ele>310</ele>
        <time>2022-02-15T07:44:30.000Z</time>
      </trkpt>
      <trkpt lat="43.52366" lon="5.56614">
        <ele>310</ele>
        <time>2022-02-15T07:44:31.000Z</time>
      </trkpt>
      <trkpt lat="43.52367" lon="5.56615">
        <ele>310</ele>
        <time>2022-02-15T07:44:32.000Z</time>
      </trkpt>
      <trkpt lat="43.52367" lon="5.56616">
        <ele>310</ele>
        <time>2022-02-15T07:44:33.000Z</time>
      </trkpt>
      <trkpt lat="43.52367" lon="5.56617">
        <ele>310</ele>
        <time>2022-02-15T07:44:34.000Z</time>
      </trkpt>
      <trkpt lat="43.52368" lon="5.56618">
        <ele>310</ele>
        <time>2022-02-15T07:44:35.000Z</time>
      </trkpt>
      <trkpt lat="43.52368" lon="5.56618">
        <ele>310</ele>
        <time>2022-02-15T07:44:36.000Z</time>
      </trkpt>
      <trkpt lat="43.52368" lon="5.56619">
        <ele>310</ele>
        <time>2022-02-15T07:44:37.000Z</time>
      </trkpt>
      <trkpt lat="43.52368" lon="5.5662">
        <ele>310</ele>
        <time>2022-02-15T07:44:38.000Z</time>
      </trkpt>
      <trkpt lat="43.52369" lon="5.56621">
        <ele>310</ele>
        <time>2022-02-15T07:44:39.000Z</time>
      </trkpt>
      <trkpt lat="43.52369" lon="5.56622">
        <ele>311</ele>
        <time>2022-02-15T07:44:40.000Z</time>
      </trkpt>
      <trkpt lat="43.52369" lon="5.56623">
        <ele>311</ele>
        <time>2022-02-15T07:44:41.000Z</time>
      </trkpt>
      <trkpt lat="43.5237" lon="5.56624">
        <ele>311</ele>
        <time>2022-02-15T07:44:42.000Z</time>
      </trkpt>
      <trkpt lat="43.5237" lon="5.56625">
        <ele>311</ele>
        <time>2022-02-15T07:44:43.000Z</time>
      </trkpt>
      <trkpt lat="43.5237" lon="5.56626">
        <ele>311</ele>
        <time>2022-02-15T07:44:44.000Z</time>
      </trkpt>
      <trkpt lat="43.5237" lon="5.56626">
        <ele>311</ele>
        <time>2022-02-15T07:44:45.000Z</time>
      </trkpt>
      <trkpt lat="43.52371" lon="5.56627">
        <ele>311</ele>
        <time>2022-02-15T07:44:46.000Z</time>
      </trkpt>
      <trkpt lat="43.52371" lon="5.56628">
        <ele>311</ele>
        <time>2022-02-15T07:44:47.000Z</time>
      </trkpt>
      <trkpt lat="43.52372" lon="5.56629">
        <ele>311</ele>
        <time>2022-02-15T07:44:48.000Z</time>
      </trkpt>
      <trkpt lat="43.52372" lon="5.5663">
        <ele>311</ele>
        <time>2022-02-15T07:44:49.000Z</time>
      </trkpt>
      <trkpt lat="43.52373" lon="5.56631">
        <ele>312</ele>
        <time>2022-02-15T07:44:50.000Z</time>
      </trkpt>
      <trkpt lat="43.52373" lon="5.56632">
        <ele>312</ele>
        <time>2022-02-15T07:44:51.000Z</time>
      </trkpt>
      <trkpt lat="43.52373" lon="5.56633">
        <ele>312</ele>
        <time>2022-02-15T07:44:52.000Z</time>
      </trkpt>
      <trkpt lat="43.52374" lon="5.56634">
        <ele>312</ele>
        <time>2022-02-15T07:44:53.000Z</time>
      </trkpt>
      <trkpt lat="43.52374" lon="5.56635">
        <ele>312</ele>
        <time>2022-02-15T07:44:54.000Z</time>
      </trkpt>
      <trkpt lat="43.52374" lon="5.56635">
        <ele>312</ele>
        <time>2022-02-15T07:44:55.000Z</time>
      </trkpt>
      <trkpt lat="43.52375" lon="5.56636">
        <ele>312</ele>
        <time>2022-02-15T07:44:56.000Z</time>
      </trkpt>
      <trkpt lat="43.52375" lon="5.56637">
        <ele>313</ele>
        <time>2022-02-15T07:44:57.000Z</time>
      </trkpt>
      <trkpt lat="43.52375" lon="5.56638">
        <ele>313</ele>
        <time>2022-02-15T07:44:58.000Z</time>
      </trkpt>
      <trkpt lat="43.52376" lon="5.56639">
        <ele>313</ele>
        <time>2022-02-15T07:44:59.000Z</time>
      </trkpt>
      <trkpt lat="43.52376" lon="5.5664">
        <ele>313</ele>
        <time>2022-02-15T07:45:00.000Z</time>
      </trkpt>
      <trkpt lat="43.52376" lon="5.56641">
        <ele>313</ele>
        <time>2022-02-15T07:45:01.000Z</time>
      </trkpt>
      <trkpt lat="43.52377" lon="5.56642">
        <ele>314</ele>
        <time>2022-02-15T07:45:02.000Z</time>
      </trkpt>
      <trkpt lat="43.52377" lon="5.56643">
        <ele>314</ele>
        <time>2022-02-15T07:45:03.000Z</time>
      </trkpt>
      <trkpt lat="43.52378" lon="5.56643">
        <ele>314</ele>
        <time>2022-02-15T07:45:04.000Z</time>
      </trkpt>
      <trkpt lat="43.52378" lon="5.56644">
        <ele>314</ele>
        <time>2022-02-15T07:45:05.000Z</time>
      </trkpt>
      <trkpt lat="43.52378" lon="5.56645">
        <ele>314</ele>
        <time>2022-02-15T07:45:06.000Z</time>
      </trkpt>
      <trkpt lat="43.52379" lon="5.56646">
        <ele>315</ele>
        <time>2022-02-15T07:45:07.000Z</time>
      </trkpt>
      <trkpt lat="43.52379" lon="5.56647">
        <ele>315</ele>
        <time>2022-02-15T07:45:08.000Z</time>
      </trkpt>
      <trkpt lat="43.52379" lon="5.56648">
        <ele>315</ele>
        <time>2022-02-15T07:45:09.000Z</time>
      </trkpt>
      <trkpt lat="43.5238" lon="5.56649">
        <ele>315</ele>
        <time>2022-02-15T07:45:10.000Z</time>
      </trkpt>
      <trkpt lat="43.5238" lon="5.5665">
        <ele>315</ele>
        <time>2022-02-15T07:45:11.000Z</time>
      </trkpt>
      <trkpt lat="43.5238" lon="5.56651">
        <ele>316</ele>
        <time>2022-02-15T07:45:12.000Z</time>
      </trkpt>
      <trkpt lat="43.52381" lon="5.56652">
        <ele>316</ele>
        <time>2022-02-15T07:45:13.000Z</time>
      </trkpt>
      <trkpt lat="43.52381" lon="5.56653">
        <ele>316</ele>
        <time>2022-02-15T07:45:14.000Z</time>
      </trkpt>
      <trkpt lat="43.52381" lon="5.56654">
        <ele>316</ele>
        <time>2022-02-15T07:45:15.000Z</time>
      </trkpt>
      <trkpt lat="43.52381" lon="5.56655">
        <ele>317</ele>
        <time>2022-02-15T07:45:16.000Z</time>
      </trkpt>
      <trkpt lat="43.52381" lon="5.56656">
        <ele>317</ele>
        <time>2022-02-15T07:45:17.000Z</time>
      </trkpt>
      <trkpt lat="43.52382" lon="5.56657">
        <ele>317</ele>
        <time>2022-02-15T07:45:18.000Z</time>
      </trkpt>
      <trkpt lat="43.52382" lon="5.56658">
        <ele>317</ele>
        <time>2022-02-15T07:45:19.000Z</time>
      </trkpt>
      <trkpt lat="43.52382" lon="5.56659">
        <ele>318</ele>
        <time>2022-02-15T07:45:20.000Z</time>
      </trkpt>
      <trkpt lat="43.52382" lon="5.5666">
        <ele>318</ele>
        <time>2022-02-15T07:45:21.000Z</time>
      </trkpt>
      <trkpt lat="43.52383" lon="5.56661">
        <ele>318</ele>
        <time>2022-02-15T07:45:22.000Z</time>
      </trkpt>
      <trkpt lat="43.52383" lon="5.56662">
        <ele>318</ele>
        <time>2022-02-15T07:45:23.000Z</time>
      </trkpt>
      <trkpt lat="43.52384" lon="5.56663">
        <ele>318</ele>
        <time>2022-02-15T07:45:24.000Z</time>
      </trkpt>
      <trkpt lat="43.52384" lon="5.56664">
        <ele>318</ele>
        <time>2022-02-15T07:45:25.000Z</time>
      </trkpt>
      <trkpt lat="43.52384" lon="5.56665">
        <ele>319</ele>
        <time>2022-02-15T07:45:26.000Z</time>
      </trkpt>
      <trkpt lat="43.52384" lon="5.56667">
        <ele>319</ele>
        <time>2022-02-15T07:45:27.000Z</time>
      </trkpt>
      <trkpt lat="43.52385" lon="5.56668">
        <ele>319</ele>
        <time>2022-02-15T07:45:28.000Z</time>
      </trkpt>
      <trkpt lat="43.52385" lon="5.56669">
        <ele>319</ele>
        <time>2022-02-15T07:45:29.000Z</time>
      </trkpt>
      <trkpt lat="43.52385" lon="5.5667">
        <ele>319</ele>
        <time>2022-02-15T07:45:30.000Z</time>
      </trkpt>
      <trkpt lat="43.52385" lon="5.56671">
        <ele>319</ele>
        <time>2022-02-15T07:45:31.000Z</time>
      </trkpt>
      <trkpt lat="43.52385" lon="5.56673">
        <ele>320</ele>
        <time>2022-02-15T07:45:32.000Z</time>
      </trkpt>
      <trkpt lat="43.52385" lon="5.56673">
        <ele>320</ele>
        <time>2022-02-15T07:45:33.000Z</time>
      </trkpt>
      <trkpt lat="43.52386" lon="5.56674">
        <ele>320</ele>
        <time>2022-02-15T07:45:34.000Z</time>
      </trkpt>
      <trkpt lat="43.52386" lon="5.56675">
        <ele>320</ele>
        <time>2022-02-15T07:45:35.000Z</time>
      </trkpt>
      <trkpt lat="43.52386" lon="5.56677">
        <ele>320</ele>
        <time>2022-02-15T07:45:36.000Z</time>
      </trkpt>
      <trkpt lat="43.52387" lon="5.56678">
        <ele>321</ele>
        <time>2022-02-15T07:45:37.000Z</time>
      </trkpt>
      <trkpt lat="43.52387" lon="5.56679">
        <ele>321</ele>
        <time>2022-02-15T07:45:38.000Z</time>
      </trkpt>
      <trkpt lat="43.52387" lon="5.5668">
        <ele>321</ele>
        <time>2022-02-15T07:45:39.000Z</time>
      </trkpt>
      <trkpt lat="43.52387" lon="5.5668">
        <ele>321</ele>
        <time>2022-02-15T07:45:40.000Z</time>
      </trkpt>
      <trkpt lat="43.52388" lon="5.5668">
        <ele>321</ele>
        <time>2022-02-15T07:45:41.000Z</time>
      </trkpt>
      <trkpt lat="43.52388" lon="5.5668">
        <ele>321</ele>
        <time>2022-02-15T07:45:42.000Z</time>
      </trkpt>
      <trkpt lat="43.52388" lon="5.5668">
        <ele>321</ele>
        <time>2022-02-15T07:45:43.000Z</time>
      </trkpt>
      <trkpt lat="43.52388" lon="5.5668">
        <ele>321</ele>
        <time>2022-02-15T07:45:44.000Z</time>
      </trkpt>
      <trkpt lat="43.52388" lon="5.56681">
        <ele>321</ele>
        <time>2022-02-15T07:45:45.000Z</time>
      </trkpt>
      <trkpt lat="43.52388" lon="5.56681">
        <ele>322</ele>
        <time>2022-02-15T07:45:46.000Z</time>
      </trkpt>
      <trkpt lat="43.52388" lon="5.56681">
        <ele>322</ele>
        <time>2022-02-15T07:45:47.000Z</time>
      </trkpt>
      <trkpt lat="43.52388" lon="5.56681">
        <ele>322</ele>
        <time>2022-02-15T07:45:48.000Z</time>
      </trkpt>
      <trkpt lat="43.52388" lon="5.56682">
        <ele>322</ele>
        <time>2022-02-15T07:45:49.000Z</time>
      </trkpt>
      <trkpt lat="43.52388" lon="5.56682">
        <ele>322</ele>
        <time>2022-02-15T07:45:50.000Z</time>
      </trkpt>
      <trkpt lat="43.52388" lon="5.56682">
        <ele>322</ele>
        <time>2022-02-15T07:45:51.000Z</time>
      </trkpt>
      <trkpt lat="43.52388" lon="5.56682">
        <ele>322</ele>
        <time>2022-02-15T07:45:52.000Z</time>
      </trkpt>
      <trkpt lat="43.52388" lon="5.56682">
        <ele>322</ele>
        <time>2022-02-15T07:45:53.000Z</time>
      </trkpt>
      <trkpt lat="43.52388" lon="5.56682">
        <ele>322</ele>
        <time>2022-02-15T07:45:54.000Z</time>
      </trkpt>
      <trkpt lat="43.52388" lon="5.56682">
        <ele>322</ele>
        <time>2022-02-15T07:45:55.000Z</time>
      </trkpt>
      <trkpt lat="43.52388" lon="5.56682">
        <ele>322</ele>
        <time>2022-02-15T07:45:56.000Z</time>
      </trkpt>
      <trkpt lat="43.52388" lon="5.56682">
        <ele>323</ele>
        <time>2022-02-15T07:45:57.000Z</time>
      </trkpt>
      <trkpt lat="43.52389" lon="5.56682">
        <ele>323</ele>
        <time>2022-02-15T07:45:58.000Z</time>
      </trkpt>
      <trkpt lat="43.52389" lon="5.56682">
        <ele>323</ele>
        <time>2022-02-15T07:45:59.000Z</time>
      </trkpt>
      <trkpt lat="43.52389" lon="5.56682">
        <ele>323</ele>
        <time>2022-02-15T07:46:00.000Z</time>
      </trkpt>
      <trkpt lat="43.52389" lon="5.56682">
        <ele>323</ele>
        <time>2022-02-15T07:46:01.000Z</time>
      </trkpt>
      <trkpt lat="43.52389" lon="5.56682">
        <ele>323</ele>
        <time>2022-02-15T07:46:02.000Z</time>
      </trkpt>
      <trkpt lat="43.52389" lon="5.56682">
        <ele>323</ele>
        <time>2022-02-15T07:46:03.000Z</time>
      </trkpt>
      <trkpt lat="43.52389" lon="5.56682">
        <ele>323</ele>
        <time>2022-02-15T07:46:04.000Z</time>
      </trkpt>
      <trkpt lat="43.52389" lon="5.56682">
        <ele>323</ele>
        <time>2022-02-15T07:46:05.000Z</time>
      </trkpt>
      <trkpt lat="43.52389" lon="5.56682">
        <ele>323</ele>
        <time>2022-02-15T07:46:06.000Z</time>
      </trkpt>
      <trkpt lat="43.52389" lon="5.56682">
        <ele>323</ele>
        <time>2022-02-15T07:46:07.000Z</time>
      </trkpt>
      <trkpt lat="43.52389" lon="5.56682">
        <ele>323</ele>
        <time>2022-02-15T07:46:08.000Z</time>
      </trkpt>
      <trkpt lat="43.52389" lon="5.56682">
        <ele>323</ele>
        <time>2022-02-15T07:46:09.000Z</time>
      </trkpt>
      <trkpt lat="43.52389" lon="5.56682">
        <ele>323</ele>
        <time>2022-02-15T07:46:10.000Z</time>
      </trkpt>
      <trkpt lat="43.52389" lon="5.56682">
        <ele>323</ele>
        <time>2022-02-15T07:46:11.000Z</time>
      </trkpt>
      <trkpt lat="43.52389" lon="5.56683">
        <ele>323</ele>
        <time>2022-02-15T07:46:12.000Z</time>
      </trkpt>
      <trkpt lat="43.52389" lon="5.56684">
        <ele>323</ele>
        <time>2022-02-15T07:46:13.000Z</time>
      </trkpt>
      <trkpt lat="43.52389" lon="5.56685">
        <ele>323</ele>
        <time>2022-02-15T07:46:14.000Z</time>
      </trkpt>
      <trkpt lat="43.52389" lon="5.56686">
        <ele>323</ele>
        <time>2022-02-15T07:46:15.000Z</time>
      </trkpt>
      <trkpt lat="43.52389" lon="5.56688">
        <ele>323</ele>
        <time>2022-02-15T07:46:16.000Z</time>
      </trkpt>
      <trkpt lat="43.52389" lon="5.56689">
        <ele>323</ele>
        <time>2022-02-15T07:46:17.000Z</time>
      </trkpt>
      <trkpt lat="43.5239" lon="5.5669">
        <ele>323</ele>
        <time>2022-02-15T07:46:18.000Z</time>
      </trkpt>
      <trkpt lat="43.52389" lon="5.56692">
        <ele>323</ele>
        <time>2022-02-15T07:46:19.000Z</time>
      </trkpt>
      <trkpt lat="43.52389" lon="5.56693">
        <ele>323</ele>
        <time>2022-02-15T07:46:20.000Z</time>
      </trkpt>
      <trkpt lat="43.52389" lon="5.56694">
        <ele>323</ele>
        <time>2022-02-15T07:46:21.000Z</time>
      </trkpt>
      <trkpt lat="43.52389" lon="5.56694">
        <ele>324</ele>
        <time>2022-02-15T07:46:22.000Z</time>
      </trkpt>
      <trkpt lat="43.52389" lon="5.56694">
        <ele>324</ele>
        <time>2022-02-15T07:46:23.000Z</time>
      </trkpt>
      <trkpt lat="43.52389" lon="5.56694">
        <ele>324</ele>
        <time>2022-02-15T07:46:24.000Z</time>
      </trkpt>
      <trkpt lat="43.52389" lon="5.56694">
        <ele>324</ele>
        <time>2022-02-15T07:46:25.000Z</time>
      </trkpt>
      <trkpt lat="43.5239" lon="5.56694">
        <ele>324</ele>
        <time>2022-02-15T07:46:26.000Z</time>
      </trkpt>
      <trkpt lat="43.52389" lon="5.56694">
        <ele>324</ele>
        <time>2022-02-15T07:46:27.000Z</time>
      </trkpt>
      <trkpt lat="43.5239" lon="5.56694">
        <ele>324</ele>
        <time>2022-02-15T07:46:28.000Z</time>
      </trkpt>
      <trkpt lat="43.5239" lon="5.56694">
        <ele>324</ele>
        <time>2022-02-15T07:46:29.000Z</time>
      </trkpt>
      <trkpt lat="43.5239" lon="5.56694">
        <ele>324</ele>
        <time>2022-02-15T07:46:30.000Z</time>
      </trkpt>
      <trkpt lat="43.5239" lon="5.56694">
        <ele>324</ele>
        <time>2022-02-15T07:46:31.000Z</time>
      </trkpt>
      <trkpt lat="43.5239" lon="5.56694">
        <ele>324</ele>
        <time>2022-02-15T07:46:32.000Z</time>
      </trkpt>
      <trkpt lat="43.52389" lon="5.56694">
        <ele>324</ele>
        <time>2022-02-15T07:46:33.000Z</time>
      </trkpt>
      <trkpt lat="43.52389" lon="5.56694">
        <ele>324</ele>
        <time>2022-02-15T07:46:34.000Z</time>
      </trkpt>
      <trkpt lat="43.5239" lon="5.56694">
        <ele>324</ele>
        <time>2022-02-15T07:46:35.000Z</time>
      </trkpt>
      <trkpt lat="43.5239" lon="5.56694">
        <ele>324</ele>
        <time>2022-02-15T07:46:36.000Z</time>
      </trkpt>
      <trkpt lat="43.5239" lon="5.56694">
        <ele>324</ele>
        <time>2022-02-15T07:46:37.000Z</time>
      </trkpt>
      <trkpt lat="43.5239" lon="5.56694">
        <ele>324</ele>
        <time>2022-02-15T07:46:38.000Z</time>
      </trkpt>
      <trkpt lat="43.5239" lon="5.56695">
        <ele>324</ele>
        <time>2022-02-15T07:46:39.000Z</time>
      </trkpt>
      <trkpt lat="43.5239" lon="5.56696">
        <ele>324</ele>
        <time>2022-02-15T07:46:40.000Z</time>
      </trkpt>
      <trkpt lat="43.5239" lon="5.56697">
        <ele>324</ele>
        <time>2022-02-15T07:46:41.000Z</time>
      </trkpt>
      <trkpt lat="43.5239" lon="5.56698">
        <ele>324</ele>
        <time>2022-02-15T07:46:42.000Z</time>
      </trkpt>
      <trkpt lat="43.5239" lon="5.56699">
        <ele>324</ele>
        <time>2022-02-15T07:46:43.000Z</time>
      </trkpt>
      <trkpt lat="43.5239" lon="5.56701">
        <ele>324</ele>
        <time>2022-02-15T07:46:44.000Z</time>
      </trkpt>
      <trkpt lat="43.5239" lon="5.56701">
        <ele>324</ele>
        <time>2022-02-15T07:46:45.000Z</time>
      </trkpt>
      <trkpt lat="43.52391" lon="5.56702">
        <ele>324</ele>
        <time>2022-02-15T07:46:46.000Z</time>
      </trkpt>
      <trkpt lat="43.52391" lon="5.56703">
        <ele>324</ele>
        <time>2022-02-15T07:46:47.000Z</time>
      </trkpt>
      <trkpt lat="43.52392" lon="5.56704">
        <ele>324</ele>
        <time>2022-02-15T07:46:48.000Z</time>
      </trkpt>
      <trkpt lat="43.52392" lon="5.56705">
        <ele>324</ele>
        <time>2022-02-15T07:46:49.000Z</time>
      </trkpt>
      <trkpt lat="43.52392" lon="5.56706">
        <ele>324</ele>
        <time>2022-02-15T07:46:50.000Z</time>
      </trkpt>
      <trkpt lat="43.52392" lon="5.56708">
        <ele>324</ele>
        <time>2022-02-15T07:46:51.000Z</time>
      </trkpt>
      <trkpt lat="43.52393" lon="5.56709">
        <ele>324</ele>
        <time>2022-02-15T07:46:52.000Z</time>
      </trkpt>
      <trkpt lat="43.52393" lon="5.5671">
        <ele>324</ele>
        <time>2022-02-15T07:46:53.000Z</time>
      </trkpt>
      <trkpt lat="43.52393" lon="5.56711">
        <ele>324</ele>
        <time>2022-02-15T07:46:54.000Z</time>
      </trkpt>
      <trkpt lat="43.52393" lon="5.56713">
        <ele>324</ele>
        <time>2022-02-15T07:46:55.000Z</time>
      </trkpt>
      <trkpt lat="43.52394" lon="5.56714">
        <ele>324</ele>
        <time>2022-02-15T07:46:56.000Z</time>
      </trkpt>
      <trkpt lat="43.52394" lon="5.56715">
        <ele>324</ele>
        <time>2022-02-15T07:46:57.000Z</time>
      </trkpt>
      <trkpt lat="43.52394" lon="5.56717">
        <ele>324</ele>
        <time>2022-02-15T07:46:58.000Z</time>
      </trkpt>
      <trkpt lat="43.52395" lon="5.56718">
        <ele>324</ele>
        <time>2022-02-15T07:46:59.000Z</time>
      </trkpt>
      <trkpt lat="43.52395" lon="5.56719">
        <ele>324</ele>
        <time>2022-02-15T07:47:00.000Z</time>
      </trkpt>
      <trkpt lat="43.52396" lon="5.5672">
        <ele>324</ele>
        <time>2022-02-15T07:47:01.000Z</time>
      </trkpt>
      <trkpt lat="43.52397" lon="5.56721">
        <ele>324</ele>
        <time>2022-02-15T07:47:02.000Z</time>
      </trkpt>
      <trkpt lat="43.52397" lon="5.56722">
        <ele>324</ele>
        <time>2022-02-15T07:47:03.000Z</time>
      </trkpt>
      <trkpt lat="43.52398" lon="5.56723">
        <ele>324</ele>
        <time>2022-02-15T07:47:04.000Z</time>
      </trkpt>
      <trkpt lat="43.52399" lon="5.56724">
        <ele>324</ele>
        <time>2022-02-15T07:47:05.000Z</time>
      </trkpt>
      <trkpt lat="43.52399" lon="5.56725">
        <ele>324</ele>
        <time>2022-02-15T07:47:06.000Z</time>
      </trkpt>
      <trkpt lat="43.524" lon="5.56726">
        <ele>324</ele>
        <time>2022-02-15T07:47:07.000Z</time>
      </trkpt>
      <trkpt lat="43.52401" lon="5.56727">
        <ele>324</ele>
        <time>2022-02-15T07:47:08.000Z</time>
      </trkpt>
      <trkpt lat="43.52401" lon="5.56728">
        <ele>325</ele>
        <time>2022-02-15T07:47:09.000Z</time>
      </trkpt>
      <trkpt lat="43.52402" lon="5.56729">
        <ele>325</ele>
        <time>2022-02-15T07:47:10.000Z</time>
      </trkpt>
      <trkpt lat="43.52403" lon="5.5673">
        <ele>325</ele>
        <time>2022-02-15T07:47:11.000Z</time>
      </trkpt>
      <trkpt lat="43.52404" lon="5.56731">
        <ele>325</ele>
        <time>2022-02-15T07:47:12.000Z</time>
      </trkpt>
      <trkpt lat="43.52404" lon="5.56732">
        <ele>325</ele>
        <time>2022-02-15T07:47:13.000Z</time>
      </trkpt>
      <trkpt lat="43.52405" lon="5.56734">
        <ele>325</ele>
        <time>2022-02-15T07:47:14.000Z</time>
      </trkpt>
      <trkpt lat="43.52406" lon="5.56735">
        <ele>325</ele>
        <time>2022-02-15T07:47:15.000Z</time>
      </trkpt>
      <trkpt lat="43.52406" lon="5.56736">
        <ele>325</ele>
        <time>2022-02-15T07:47:16.000Z</time>
      </trkpt>
      <trkpt lat="43.52407" lon="5.56737">
        <ele>325</ele>
        <time>2022-02-15T07:47:17.000Z</time>
      </trkpt>
      <trkpt lat="43.52408" lon="5.56738">
        <ele>325</ele>
        <time>2022-02-15T07:47:18.000Z</time>
      </trkpt>
      <trkpt lat="43.52408" lon="5.56739">
        <ele>325</ele>
        <time>2022-02-15T07:47:19.000Z</time>
      </trkpt>
      <trkpt lat="43.52409" lon="5.5674">
        <ele>325</ele>
        <time>2022-02-15T07:47:20.000Z</time>
      </trkpt>
      <trkpt lat="43.5241" lon="5.56741">
        <ele>325</ele>
        <time>2022-02-15T07:47:21.000Z</time>
      </trkpt>
      <trkpt lat="43.52411" lon="5.56743">
        <ele>325</ele>
        <time>2022-02-15T07:47:22.000Z</time>
      </trkpt>
      <trkpt lat="43.52411" lon="5.56744">
        <ele>325</ele>
        <time>2022-02-15T07:47:23.000Z</time>
      </trkpt>
      <trkpt lat="43.52412" lon="5.56745">
        <ele>325</ele>
        <time>2022-02-15T07:47:24.000Z</time>
      </trkpt>
      <trkpt lat="43.52412" lon="5.56746">
        <ele>325</ele>
        <time>2022-02-15T07:47:25.000Z</time>
      </trkpt>
      <trkpt lat="43.52413" lon="5.56747">
        <ele>325</ele>
        <time>2022-02-15T07:47:26.000Z</time>
      </trkpt>
      <trkpt lat="43.52414" lon="5.56748">
        <ele>325</ele>
        <time>2022-02-15T07:47:27.000Z</time>
      </trkpt>
      <trkpt lat="43.52414" lon="5.5675">
        <ele>325</ele>
        <time>2022-02-15T07:47:28.000Z</time>
      </trkpt>
      <trkpt lat="43.52415" lon="5.56751">
        <ele>325</ele>
        <time>2022-02-15T07:47:29.000Z</time>
      </trkpt>
      <trkpt lat="43.52415" lon="5.56752">
        <ele>325</ele>
        <time>2022-02-15T07:47:30.000Z</time>
      </trkpt>
      <trkpt lat="43.52416" lon="5.56754">
        <ele>325</ele>
        <time>2022-02-15T07:47:31.000Z</time>
      </trkpt>
      <trkpt lat="43.52416" lon="5.56755">
        <ele>325</ele>
        <time>2022-02-15T07:47:32.000Z</time>
      </trkpt>
      <trkpt lat="43.52416" lon="5.56756">
        <ele>325</ele>
        <time>2022-02-15T07:47:33.000Z</time>
      </trkpt>
      <trkpt lat="43.52417" lon="5.56758">
        <ele>325</ele>
        <time>2022-02-15T07:47:34.000Z</time>
      </trkpt>
      <trkpt lat="43.52417" lon="5.56759">
        <ele>325</ele>
        <time>2022-02-15T07:47:35.000Z</time>
      </trkpt>
      <trkpt lat="43.52417" lon="5.5676">
        <ele>325</ele>
        <time>2022-02-15T07:47:36.000Z</time>
      </trkpt>
      <trkpt lat="43.52418" lon="5.56762">
        <ele>325</ele>
        <time>2022-02-15T07:47:37.000Z</time>
      </trkpt>
      <trkpt lat="43.52418" lon="5.56763">
        <ele>325</ele>
        <time>2022-02-15T07:47:38.000Z</time>
      </trkpt>
      <trkpt lat="43.52419" lon="5.56764">
        <ele>325</ele>
        <time>2022-02-15T07:47:39.000Z</time>
      </trkpt>
      <trkpt lat="43.52419" lon="5.56765">
        <ele>325</ele>
        <time>2022-02-15T07:47:40.000Z</time>
      </trkpt>
      <trkpt lat="43.5242" lon="5.56766">
        <ele>325</ele>
        <time>2022-02-15T07:47:41.000Z</time>
      </trkpt>
      <trkpt lat="43.52421" lon="5.56767">
        <ele>325</ele>
        <time>2022-02-15T07:47:42.000Z</time>
      </trkpt>
      <trkpt lat="43.52421" lon="5.56768">
        <ele>325</ele>
        <time>2022-02-15T07:47:43.000Z</time>
      </trkpt>
      <trkpt lat="43.52422" lon="5.56768">
        <ele>326</ele>
        <time>2022-02-15T07:47:44.000Z</time>
      </trkpt>
      <trkpt lat="43.52423" lon="5.56769">
        <ele>326</ele>
        <time>2022-02-15T07:47:45.000Z</time>
      </trkpt>
      <trkpt lat="43.52423" lon="5.5677">
        <ele>326</ele>
        <time>2022-02-15T07:47:46.000Z</time>
      </trkpt>
      <trkpt lat="43.52424" lon="5.56771">
        <ele>326</ele>
        <time>2022-02-15T07:47:47.000Z</time>
      </trkpt>
      <trkpt lat="43.52425" lon="5.56771">
        <ele>326</ele>
        <time>2022-02-15T07:47:48.000Z</time>
      </trkpt>
      <trkpt lat="43.52426" lon="5.56772">
        <ele>327</ele>
        <time>2022-02-15T07:47:49.000Z</time>
      </trkpt>
      <trkpt lat="43.52427" lon="5.56773">
        <ele>327</ele>
        <time>2022-02-15T07:47:50.000Z</time>
      </trkpt>
      <trkpt lat="43.52427" lon="5.56773">
        <ele>327</ele>
        <time>2022-02-15T07:47:51.000Z</time>
      </trkpt>
      <trkpt lat="43.52428" lon="5.56774">
        <ele>327</ele>
        <time>2022-02-15T07:47:52.000Z</time>
      </trkpt>
      <trkpt lat="43.52429" lon="5.56774">
        <ele>327</ele>
        <time>2022-02-15T07:47:53.000Z</time>
      </trkpt>
      <trkpt lat="43.5243" lon="5.56775">
        <ele>327</ele>
        <time>2022-02-15T07:47:54.000Z</time>
      </trkpt>
      <trkpt lat="43.5243" lon="5.56775">
        <ele>328</ele>
        <time>2022-02-15T07:47:55.000Z</time>
      </trkpt>
      <trkpt lat="43.52431" lon="5.56775">
        <ele>328</ele>
        <time>2022-02-15T07:47:56.000Z</time>
      </trkpt>
      <trkpt lat="43.52433" lon="5.56776">
        <ele>328</ele>
        <time>2022-02-15T07:47:57.000Z</time>
      </trkpt>
      <trkpt lat="43.52434" lon="5.56776">
        <ele>328</ele>
        <time>2022-02-15T07:47:58.000Z</time>
      </trkpt>
      <trkpt lat="43.52435" lon="5.56777">
        <ele>328</ele>
        <time>2022-02-15T07:47:59.000Z</time>
      </trkpt>
      <trkpt lat="43.52435" lon="5.56777">
        <ele>328</ele>
        <time>2022-02-15T07:48:00.000Z</time>
      </trkpt>
      <trkpt lat="43.52436" lon="5.56778">
        <ele>328</ele>
        <time>2022-02-15T07:48:01.000Z</time>
      </trkpt>
      <trkpt lat="43.52437" lon="5.56778">
        <ele>329</ele>
        <time>2022-02-15T07:48:02.000Z</time>
      </trkpt>
      <trkpt lat="43.52438" lon="5.56778">
        <ele>329</ele>
        <time>2022-02-15T07:48:03.000Z</time>
      </trkpt>
      <trkpt lat="43.52439" lon="5.56778">
        <ele>329</ele>
        <time>2022-02-15T07:48:04.000Z</time>
      </trkpt>
      <trkpt lat="43.5244" lon="5.56779">
        <ele>329</ele>
        <time>2022-02-15T07:48:05.000Z</time>
      </trkpt>
      <trkpt lat="43.52441" lon="5.56779">
        <ele>329</ele>
        <time>2022-02-15T07:48:06.000Z</time>
      </trkpt>
      <trkpt lat="43.52442" lon="5.56779">
        <ele>329</ele>
        <time>2022-02-15T07:48:07.000Z</time>
      </trkpt>
      <trkpt lat="43.52443" lon="5.56779">
        <ele>329</ele>
        <time>2022-02-15T07:48:08.000Z</time>
      </trkpt>
      <trkpt lat="43.52444" lon="5.56779">
        <ele>329</ele>
        <time>2022-02-15T07:48:09.000Z</time>
      </trkpt>
      <trkpt lat="43.52444" lon="5.56779">
        <ele>330</ele>
        <time>2022-02-15T07:48:10.000Z</time>
      </trkpt>
      <trkpt lat="43.52445" lon="5.56779">
        <ele>330</ele>
        <time>2022-02-15T07:48:11.000Z</time>
      </trkpt>
      <trkpt lat="43.52446" lon="5.56779">
        <ele>330</ele>
        <time>2022-02-15T07:48:12.000Z</time>
      </trkpt>
      <trkpt lat="43.52447" lon="5.5678">
        <ele>330</ele>
        <time>2022-02-15T07:48:13.000Z</time>
      </trkpt>
      <trkpt lat="43.52448" lon="5.56779">
        <ele>330</ele>
        <time>2022-02-15T07:48:14.000Z</time>
      </trkpt>
      <trkpt lat="43.52449" lon="5.5678">
        <ele>330</ele>
        <time>2022-02-15T07:48:15.000Z</time>
      </trkpt>
      <trkpt lat="43.52449" lon="5.56779">
        <ele>330</ele>
        <time>2022-02-15T07:48:16.000Z</time>
      </trkpt>
      <trkpt lat="43.5245" lon="5.56779">
        <ele>331</ele>
        <time>2022-02-15T07:48:17.000Z</time>
      </trkpt>
      <trkpt lat="43.52451" lon="5.56779">
        <ele>331</ele>
        <time>2022-02-15T07:48:18.000Z</time>
      </trkpt>
      <trkpt lat="43.52452" lon="5.56779">
        <ele>331</ele>
        <time>2022-02-15T07:48:19.000Z</time>
      </trkpt>
      <trkpt lat="43.52453" lon="5.56779">
        <ele>331</ele>
        <time>2022-02-15T07:48:20.000Z</time>
      </trkpt>
      <trkpt lat="43.52454" lon="5.56779">
        <ele>331</ele>
        <time>2022-02-15T07:48:21.000Z</time>
      </trkpt>
      <trkpt lat="43.52455" lon="5.56779">
        <ele>331</ele>
        <time>2022-02-15T07:48:22.000Z</time>
      </trkpt>
      <trkpt lat="43.52456" lon="5.56779">
        <ele>331</ele>
        <time>2022-02-15T07:48:23.000Z</time>
      </trkpt>
      <trkpt lat="43.52457" lon="5.56779">
        <ele>332</ele>
        <time>2022-02-15T07:48:24.000Z</time>
      </trkpt>
      <trkpt lat="43.52458" lon="5.56779">
        <ele>332</ele>
        <time>2022-02-15T07:48:25.000Z</time>
      </trkpt>
      <trkpt lat="43.52459" lon="5.5678">
        <ele>332</ele>
        <time>2022-02-15T07:48:26.000Z</time>
      </trkpt>
      <trkpt lat="43.52459" lon="5.5678">
        <ele>332</ele>
        <time>2022-02-15T07:48:27.000Z</time>
      </trkpt>
      <trkpt lat="43.5246" lon="5.5678">
        <ele>332</ele>
        <time>2022-02-15T07:48:28.000Z</time>
      </trkpt>
      <trkpt lat="43.52461" lon="5.5678">
        <ele>332</ele>
        <time>2022-02-15T07:48:29.000Z</time>
      </trkpt>
      <trkpt lat="43.52462" lon="5.56779">
        <ele>332</ele>
        <time>2022-02-15T07:48:30.000Z</time>
      </trkpt>
      <trkpt lat="43.52463" lon="5.56779">
        <ele>332</ele>
        <time>2022-02-15T07:48:31.000Z</time>
      </trkpt>
      <trkpt lat="43.52464" lon="5.56779">
        <ele>333</ele>
        <time>2022-02-15T07:48:32.000Z</time>
      </trkpt>
      <trkpt lat="43.52465" lon="5.56779">
        <ele>333</ele>
        <time>2022-02-15T07:48:33.000Z</time>
      </trkpt>
      <trkpt lat="43.52465" lon="5.56779">
        <ele>333</ele>
        <time>2022-02-15T07:48:34.000Z</time>
      </trkpt>
      <trkpt lat="43.52466" lon="5.56779">
        <ele>333</ele>
        <time>2022-02-15T07:48:35.000Z</time>
      </trkpt>
      <trkpt lat="43.52467" lon="5.56779">
        <ele>333</ele>
        <time>2022-02-15T07:48:36.000Z</time>
      </trkpt>
      <trkpt lat="43.52468" lon="5.56778">
        <ele>334</ele>
        <time>2022-02-15T07:48:37.000Z</time>
      </trkpt>
      <trkpt lat="43.52469" lon="5.56778">
        <ele>334</ele>
        <time>2022-02-15T07:48:38.000Z</time>
      </trkpt>
      <trkpt lat="43.5247" lon="5.56778">
        <ele>334</ele>
        <time>2022-02-15T07:48:39.000Z</time>
      </trkpt>
      <trkpt lat="43.5247" lon="5.56778">
        <ele>334</ele>
        <time>2022-02-15T07:48:40.000Z</time>
      </trkpt>
      <trkpt lat="43.52471" lon="5.56778">
        <ele>334</ele>
        <time>2022-02-15T07:48:41.000Z</time>
      </trkpt>
      <trkpt lat="43.52472" lon="5.56777">
        <ele>334</ele>
        <time>2022-02-15T07:48:42.000Z</time>
      </trkpt>
      <trkpt lat="43.52473" lon="5.56777">
        <ele>334</ele>
        <time>2022-02-15T07:48:43.000Z</time>
      </trkpt>
      <trkpt lat="43.52474" lon="5.56777">
        <ele>334</ele>
        <time>2022-02-15T07:48:44.000Z</time>
      </trkpt>
      <trkpt lat="43.52475" lon="5.56776">
        <ele>334</ele>
        <time>2022-02-15T07:48:45.000Z</time>
      </trkpt>
      <trkpt lat="43.52475" lon="5.56776">
        <ele>335</ele>
        <time>2022-02-15T07:48:46.000Z</time>
      </trkpt>
      <trkpt lat="43.52476" lon="5.56775">
        <ele>335</ele>
        <time>2022-02-15T07:48:47.000Z</time>
      </trkpt>
      <trkpt lat="43.52477" lon="5.56775">
        <ele>335</ele>
        <time>2022-02-15T07:48:48.000Z</time>
      </trkpt>
      <trkpt lat="43.52478" lon="5.56774">
        <ele>335</ele>
        <time>2022-02-15T07:48:49.000Z</time>
      </trkpt>
      <trkpt lat="43.52479" lon="5.56774">
        <ele>335</ele>
        <time>2022-02-15T07:48:50.000Z</time>
      </trkpt>
      <trkpt lat="43.52479" lon="5.56774">
        <ele>335</ele>
        <time>2022-02-15T07:48:51.000Z</time>
      </trkpt>
      <trkpt lat="43.5248" lon="5.56773">
        <ele>336</ele>
        <time>2022-02-15T07:48:52.000Z</time>
      </trkpt>
      <trkpt lat="43.52481" lon="5.56773">
        <ele>336</ele>
        <time>2022-02-15T07:48:53.000Z</time>
      </trkpt>
      <trkpt lat="43.52482" lon="5.56772">
        <ele>336</ele>
        <time>2022-02-15T07:48:54.000Z</time>
      </trkpt>
      <trkpt lat="43.52482" lon="5.56771">
        <ele>336</ele>
        <time>2022-02-15T07:48:55.000Z</time>
      </trkpt>
      <trkpt lat="43.52483" lon="5.56771">
        <ele>336</ele>
        <time>2022-02-15T07:48:56.000Z</time>
      </trkpt>
      <trkpt lat="43.52484" lon="5.5677">
        <ele>337</ele>
        <time>2022-02-15T07:48:57.000Z</time>
      </trkpt>
      <trkpt lat="43.52484" lon="5.5677">
        <ele>337</ele>
        <time>2022-02-15T07:48:58.000Z</time>
      </trkpt>
      <trkpt lat="43.52485" lon="5.56769">
        <ele>337</ele>
        <time>2022-02-15T07:48:59.000Z</time>
      </trkpt>
      <trkpt lat="43.52486" lon="5.56769">
        <ele>337</ele>
        <time>2022-02-15T07:49:00.000Z</time>
      </trkpt>
      <trkpt lat="43.52487" lon="5.56768">
        <ele>337</ele>
        <time>2022-02-15T07:49:01.000Z</time>
      </trkpt>
      <trkpt lat="43.52487" lon="5.56768">
        <ele>337</ele>
        <time>2022-02-15T07:49:02.000Z</time>
      </trkpt>
      <trkpt lat="43.52488" lon="5.56767">
        <ele>338</ele>
        <time>2022-02-15T07:49:03.000Z</time>
      </trkpt>
      <trkpt lat="43.52488" lon="5.56766">
        <ele>338</ele>
        <time>2022-02-15T07:49:04.000Z</time>
      </trkpt>
      <trkpt lat="43.52489" lon="5.56766">
        <ele>338</ele>
        <time>2022-02-15T07:49:05.000Z</time>
      </trkpt>
      <trkpt lat="43.5249" lon="5.56765">
        <ele>338</ele>
        <time>2022-02-15T07:49:06.000Z</time>
      </trkpt>
      <trkpt lat="43.5249" lon="5.56764">
        <ele>338</ele>
        <time>2022-02-15T07:49:07.000Z</time>
      </trkpt>
      <trkpt lat="43.5249" lon="5.56763">
        <ele>338</ele>
        <time>2022-02-15T07:49:08.000Z</time>
      </trkpt>
      <trkpt lat="43.52491" lon="5.56762">
        <ele>338</ele>
        <time>2022-02-15T07:49:09.000Z</time>
      </trkpt>
      <trkpt lat="43.52491" lon="5.56761">
        <ele>338</ele>
        <time>2022-02-15T07:49:10.000Z</time>
      </trkpt>
      <trkpt lat="43.52491" lon="5.5676">
        <ele>339</ele>
        <time>2022-02-15T07:49:11.000Z</time>
      </trkpt>
      <trkpt lat="43.52492" lon="5.56759">
        <ele>339</ele>
        <time>2022-02-15T07:49:12.000Z</time>
      </trkpt>
      <trkpt lat="43.52492" lon="5.56759">
        <ele>339</ele>
        <time>2022-02-15T07:49:13.000Z</time>
      </trkpt>
      <trkpt lat="43.52493" lon="5.56758">
        <ele>339</ele>
        <time>2022-02-15T07:49:14.000Z</time>
      </trkpt>
      <trkpt lat="43.52493" lon="5.56757">
        <ele>339</ele>
        <time>2022-02-15T07:49:15.000Z</time>
      </trkpt>
      <trkpt lat="43.52493" lon="5.56756">
        <ele>339</ele>
        <time>2022-02-15T07:49:16.000Z</time>
      </trkpt>
      <trkpt lat="43.52494" lon="5.56755">
        <ele>339</ele>
        <time>2022-02-15T07:49:17.000Z</time>
      </trkpt>
      <trkpt lat="43.52494" lon="5.56754">
        <ele>339</ele>
        <time>2022-02-15T07:49:18.000Z</time>
      </trkpt>
      <trkpt lat="43.52495" lon="5.56753">
        <ele>339</ele>
        <time>2022-02-15T07:49:19.000Z</time>
      </trkpt>
      <trkpt lat="43.52495" lon="5.56753">
        <ele>339</ele>
        <time>2022-02-15T07:49:20.000Z</time>
      </trkpt>
      <trkpt lat="43.52495" lon="5.56752">
        <ele>339</ele>
        <time>2022-02-15T07:49:21.000Z</time>
      </trkpt>
      <trkpt lat="43.52496" lon="5.56751">
        <ele>339</ele>
        <time>2022-02-15T07:49:22.000Z</time>
      </trkpt>
      <trkpt lat="43.52496" lon="5.5675">
        <ele>339</ele>
        <time>2022-02-15T07:49:23.000Z</time>
      </trkpt>
      <trkpt lat="43.52496" lon="5.56749">
        <ele>339</ele>
        <time>2022-02-15T07:49:24.000Z</time>
      </trkpt>
      <trkpt lat="43.52496" lon="5.56748">
        <ele>339</ele>
        <time>2022-02-15T07:49:25.000Z</time>
      </trkpt>
      <trkpt lat="43.52496" lon="5.56747">
        <ele>339</ele>
        <time>2022-02-15T07:49:26.000Z</time>
      </trkpt>
      <trkpt lat="43.52496" lon="5.56746">
        <ele>339</ele>
        <time>2022-02-15T07:49:27.000Z</time>
      </trkpt>
      <trkpt lat="43.52496" lon="5.56745">
        <ele>339</ele>
        <time>2022-02-15T07:49:28.000Z</time>
      </trkpt>
      <trkpt lat="43.52497" lon="5.56743">
        <ele>339</ele>
        <time>2022-02-15T07:49:29.000Z</time>
      </trkpt>
      <trkpt lat="43.52497" lon="5.56742">
        <ele>339</ele>
        <time>2022-02-15T07:49:30.000Z</time>
      </trkpt>
      <trkpt lat="43.52497" lon="5.56741">
        <ele>339</ele>
        <time>2022-02-15T07:49:31.000Z</time>
      </trkpt>
      <trkpt lat="43.52497" lon="5.5674">
        <ele>339</ele>
        <time>2022-02-15T07:49:32.000Z</time>
      </trkpt>
      <trkpt lat="43.52498" lon="5.56738">
        <ele>339</ele>
        <time>2022-02-15T07:49:33.000Z</time>
      </trkpt>
      <trkpt lat="43.52498" lon="5.56737">
        <ele>339</ele>
        <time>2022-02-15T07:49:34.000Z</time>
      </trkpt>
      <trkpt lat="43.52498" lon="5.56736">
        <ele>340</ele>
        <time>2022-02-15T07:49:35.000Z</time>
      </trkpt>
      <trkpt lat="43.52498" lon="5.56735">
        <ele>340</ele>
        <time>2022-02-15T07:49:36.000Z</time>
      </trkpt>
      <trkpt lat="43.52499" lon="5.56734">
        <ele>340</ele>
        <time>2022-02-15T07:49:37.000Z</time>
      </trkpt>
      <trkpt lat="43.52499" lon="5.56733">
        <ele>340</ele>
        <time>2022-02-15T07:49:38.000Z</time>
      </trkpt>
      <trkpt lat="43.52499" lon="5.56731">
        <ele>340</ele>
        <time>2022-02-15T07:49:39.000Z</time>
      </trkpt>
      <trkpt lat="43.52499" lon="5.5673">
        <ele>340</ele>
        <time>2022-02-15T07:49:40.000Z</time>
      </trkpt>
      <trkpt lat="43.525" lon="5.56729">
        <ele>340</ele>
        <time>2022-02-15T07:49:41.000Z</time>
      </trkpt>
      <trkpt lat="43.525" lon="5.56728">
        <ele>340</ele>
        <time>2022-02-15T07:49:42.000Z</time>
      </trkpt>
      <trkpt lat="43.52501" lon="5.56727">
        <ele>340</ele>
        <time>2022-02-15T07:49:43.000Z</time>
      </trkpt>
      <trkpt lat="43.52501" lon="5.56726">
        <ele>340</ele>
        <time>2022-02-15T07:49:44.000Z</time>
      </trkpt>
      <trkpt lat="43.52502" lon="5.56725">
        <ele>341</ele>
        <time>2022-02-15T07:49:45.000Z</time>
      </trkpt>
      <trkpt lat="43.52502" lon="5.56724">
        <ele>341</ele>
        <time>2022-02-15T07:49:46.000Z</time>
      </trkpt>
      <trkpt lat="43.52503" lon="5.56724">
        <ele>341</ele>
        <time>2022-02-15T07:49:47.000Z</time>
      </trkpt>
      <trkpt lat="43.52503" lon="5.56723">
        <ele>341</ele>
        <time>2022-02-15T07:49:48.000Z</time>
      </trkpt>
      <trkpt lat="43.52504" lon="5.56721">
        <ele>341</ele>
        <time>2022-02-15T07:49:49.000Z</time>
      </trkpt>
      <trkpt lat="43.52504" lon="5.5672">
        <ele>341</ele>
        <time>2022-02-15T07:49:50.000Z</time>
      </trkpt>
      <trkpt lat="43.52504" lon="5.56719">
        <ele>342</ele>
        <time>2022-02-15T07:49:51.000Z</time>
      </trkpt>
      <trkpt lat="43.52505" lon="5.56718">
        <ele>342</ele>
        <time>2022-02-15T07:49:52.000Z</time>
      </trkpt>
      <trkpt lat="43.52505" lon="5.56717">
        <ele>342</ele>
        <time>2022-02-15T07:49:53.000Z</time>
      </trkpt>
      <trkpt lat="43.52506" lon="5.56716">
        <ele>342</ele>
        <time>2022-02-15T07:49:54.000Z</time>
      </trkpt>
      <trkpt lat="43.52507" lon="5.56715">
        <ele>342</ele>
        <time>2022-02-15T07:49:55.000Z</time>
      </trkpt>
      <trkpt lat="43.52507" lon="5.56715">
        <ele>342</ele>
        <time>2022-02-15T07:49:56.000Z</time>
      </trkpt>
      <trkpt lat="43.52507" lon="5.56715">
        <ele>342</ele>
        <time>2022-02-15T07:49:57.000Z</time>
      </trkpt>
      <trkpt lat="43.52507" lon="5.56715">
        <ele>343</ele>
        <time>2022-02-15T07:49:58.000Z</time>
      </trkpt>
      <trkpt lat="43.52507" lon="5.56715">
        <ele>343</ele>
        <time>2022-02-15T07:49:59.000Z</time>
      </trkpt>
      <trkpt lat="43.52507" lon="5.56715">
        <ele>343</ele>
        <time>2022-02-15T07:50:00.000Z</time>
      </trkpt>
      <trkpt lat="43.52507" lon="5.56714">
        <ele>343</ele>
        <time>2022-02-15T07:50:01.000Z</time>
      </trkpt>
      <trkpt lat="43.52507" lon="5.56714">
        <ele>343</ele>
        <time>2022-02-15T07:50:02.000Z</time>
      </trkpt>
      <trkpt lat="43.52507" lon="5.56714">
        <ele>343</ele>
        <time>2022-02-15T07:50:03.000Z</time>
      </trkpt>
      <trkpt lat="43.52507" lon="5.56714">
        <ele>343</ele>
        <time>2022-02-15T07:50:04.000Z</time>
      </trkpt>
      <trkpt lat="43.52507" lon="5.56714">
        <ele>343</ele>
        <time>2022-02-15T07:50:05.000Z</time>
      </trkpt>
      <trkpt lat="43.52507" lon="5.56714">
        <ele>343</ele>
        <time>2022-02-15T07:50:06.000Z</time>
      </trkpt>
      <trkpt lat="43.52507" lon="5.56714">
        <ele>343</ele>
        <time>2022-02-15T07:50:07.000Z</time>
      </trkpt>
      <trkpt lat="43.52507" lon="5.56714">
        <ele>343</ele>
        <time>2022-02-15T07:50:08.000Z</time>
      </trkpt>
      <trkpt lat="43.52507" lon="5.56714">
        <ele>343</ele>
        <time>2022-02-15T07:50:09.000Z</time>
      </trkpt>
      <trkpt lat="43.52507" lon="5.56714">
        <ele>343</ele>
        <time>2022-02-15T07:50:10.000Z</time>
      </trkpt>
      <trkpt lat="43.52507" lon="5.56714">
        <ele>343</ele>
        <time>2022-02-15T07:50:11.000Z</time>
      </trkpt>
      <trkpt lat="43.52507" lon="5.56714">
        <ele>343</ele>
        <time>2022-02-15T07:50:12.000Z</time>
      </trkpt>
      <trkpt lat="43.52507" lon="5.56714">
        <ele>343</ele>
        <time>2022-02-15T07:50:13.000Z</time>
      </trkpt>
      <trkpt lat="43.52507" lon="5.56714">
        <ele>343</ele>
        <time>2022-02-15T07:50:14.000Z</time>
      </trkpt>
      <trkpt lat="43.52507" lon="5.56714">
        <ele>343</ele>
        <time>2022-02-15T07:50:15.000Z</time>
      </trkpt>
      <trkpt lat="43.52507" lon="5.56713">
        <ele>343</ele>
        <time>2022-02-15T07:50:16.000Z</time>
      </trkpt>
      <trkpt lat="43.52507" lon="5.56713">
        <ele>343</ele>
        <time>2022-02-15T07:50:17.000Z</time>
      </trkpt>
      <trkpt lat="43.52507" lon="5.56713">
        <ele>343</ele>
        <time>2022-02-15T07:50:18.000Z</time>
      </trkpt>
      <trkpt lat="43.52507" lon="5.56713">
        <ele>343</ele>
        <time>2022-02-15T07:50:19.000Z</time>
      </trkpt>
      <trkpt lat="43.52507" lon="5.56713">
        <ele>343</ele>
        <time>2022-02-15T07:50:20.000Z</time>
      </trkpt>
      <trkpt lat="43.52507" lon="5.56713">
        <ele>343</ele>
        <time>2022-02-15T07:50:21.000Z</time>
      </trkpt>
      <trkpt lat="43.52507" lon="5.56713">
        <ele>343</ele>
        <time>2022-02-15T07:50:22.000Z</time>
      </trkpt>
      <trkpt lat="43.52507" lon="5.56713">
        <ele>343</ele>
        <time>2022-02-15T07:50:23.000Z</time>
      </trkpt>
      <trkpt lat="43.52507" lon="5.56713">
        <ele>343</ele>
        <time>2022-02-15T07:50:24.000Z</time>
      </trkpt>
      <trkpt lat="43.52507" lon="5.56713">
        <ele>343</ele>
        <time>2022-02-15T07:50:25.000Z</time>
      </trkpt>
      <trkpt lat="43.52507" lon="5.56713">
        <ele>343</ele>
        <time>2022-02-15T07:50:26.000Z</time>
      </trkpt>
      <trkpt lat="43.52507" lon="5.56713">
        <ele>343</ele>
        <time>2022-02-15T07:50:27.000Z</time>
      </trkpt>
      <trkpt lat="43.52507" lon="5.56713">
        <ele>343</ele>
        <time>2022-02-15T07:50:28.000Z</time>
      </trkpt>
      <trkpt lat="43.52507" lon="5.56713">
        <ele>343</ele>
        <time>2022-02-15T07:50:29.000Z</time>
      </trkpt>
      <trkpt lat="43.52507" lon="5.56713">
        <ele>343</ele>
        <time>2022-02-15T07:50:30.000Z</time>
      </trkpt>
      <trkpt lat="43.52508" lon="5.56713">
        <ele>343</ele>
        <time>2022-02-15T07:50:31.000Z</time>
      </trkpt>
      <trkpt lat="43.52508" lon="5.56713">
        <ele>343</ele>
        <time>2022-02-15T07:50:32.000Z</time>
      </trkpt>
      <trkpt lat="43.52509" lon="5.56713">
        <ele>343</ele>
        <time>2022-02-15T07:50:33.000Z</time>
      </trkpt>
      <trkpt lat="43.5251" lon="5.56712">
        <ele>343</ele>
        <time>2022-02-15T07:50:34.000Z</time>
      </trkpt>
      <trkpt lat="43.52511" lon="5.56712">
        <ele>343</ele>
        <time>2022-02-15T07:50:35.000Z</time>
      </trkpt>
      <trkpt lat="43.52512" lon="5.56712">
        <ele>344</ele>
        <time>2022-02-15T07:50:36.000Z</time>
      </trkpt>
      <trkpt lat="43.52513" lon="5.56711">
        <ele>344</ele>
        <time>2022-02-15T07:50:37.000Z</time>
      </trkpt>
      <trkpt lat="43.52514" lon="5.56711">
        <ele>344</ele>
        <time>2022-02-15T07:50:38.000Z</time>
      </trkpt>
      <trkpt lat="43.52514" lon="5.56711">
        <ele>344</ele>
        <time>2022-02-15T07:50:39.000Z</time>
      </trkpt>
      <trkpt lat="43.52515" lon="5.5671">
        <ele>344</ele>
        <time>2022-02-15T07:50:40.000Z</time>
      </trkpt>
      <trkpt lat="43.52516" lon="5.5671">
        <ele>344</ele>
        <time>2022-02-15T07:50:41.000Z</time>
      </trkpt>
      <trkpt lat="43.52517" lon="5.5671">
        <ele>344</ele>
        <time>2022-02-15T07:50:42.000Z</time>
      </trkpt>
      <trkpt lat="43.52517" lon="5.5671">
        <ele>344</ele>
        <time>2022-02-15T07:50:43.000Z</time>
      </trkpt>
      <trkpt lat="43.52518" lon="5.56709">
        <ele>344</ele>
        <time>2022-02-15T07:50:44.000Z</time>
      </trkpt>
      <trkpt lat="43.52519" lon="5.56709">
        <ele>344</ele>
        <time>2022-02-15T07:50:45.000Z</time>
      </trkpt>
      <trkpt lat="43.5252" lon="5.56709">
        <ele>344</ele>
        <time>2022-02-15T07:50:46.000Z</time>
      </trkpt>
      <trkpt lat="43.5252" lon="5.56708">
        <ele>344</ele>
        <time>2022-02-15T07:50:47.000Z</time>
      </trkpt>
      <trkpt lat="43.52521" lon="5.56708">
        <ele>344</ele>
        <time>2022-02-15T07:50:48.000Z</time>
      </trkpt>
      <trkpt lat="43.52522" lon="5.56707">
        <ele>344</ele>
        <time>2022-02-15T07:50:49.000Z</time>
      </trkpt>
      <trkpt lat="43.52522" lon="5.56707">
        <ele>344</ele>
        <time>2022-02-15T07:50:50.000Z</time>
      </trkpt>
      <trkpt lat="43.52523" lon="5.56706">
        <ele>344</ele>
        <time>2022-02-15T07:50:51.000Z</time>
      </trkpt>
      <trkpt lat="43.52524" lon="5.56706">
        <ele>344</ele>
        <time>2022-02-15T07:50:52.000Z</time>
      </trkpt>
      <trkpt lat="43.52525" lon="5.56706">
        <ele>344</ele>
        <time>2022-02-15T07:50:53.000Z</time>
      </trkpt>
      <trkpt lat="43.52525" lon="5.56706">
        <ele>344</ele>
        <time>2022-02-15T07:50:54.000Z</time>
      </trkpt>
      <trkpt lat="43.52526" lon="5.56706">
        <ele>344</ele>
        <time>2022-02-15T07:50:55.000Z</time>
      </trkpt>
      <trkpt lat="43.52527" lon="5.56705">
        <ele>344</ele>
        <time>2022-02-15T07:50:56.000Z</time>
      </trkpt>
      <trkpt lat="43.52527" lon="5.56705">
        <ele>344</ele>
        <time>2022-02-15T07:50:57.000Z</time>
      </trkpt>
      <trkpt lat="43.52528" lon="5.56704">
        <ele>344</ele>
        <time>2022-02-15T07:50:58.000Z</time>
      </trkpt>
      <trkpt lat="43.52528" lon="5.56704">
        <ele>344</ele>
        <time>2022-02-15T07:50:59.000Z</time>
      </trkpt>
      <trkpt lat="43.52528" lon="5.56704">
        <ele>344</ele>
        <time>2022-02-15T07:51:00.000Z</time>
      </trkpt>
      <trkpt lat="43.52528" lon="5.56704">
        <ele>344</ele>
        <time>2022-02-15T07:51:01.000Z</time>
      </trkpt>
      <trkpt lat="43.52528" lon="5.56704">
        <ele>344</ele>
        <time>2022-02-15T07:51:02.000Z</time>
      </trkpt>
      <trkpt lat="43.52528" lon="5.56704">
        <ele>343</ele>
        <time>2022-02-15T07:51:03.000Z</time>
      </trkpt>
      <trkpt lat="43.52529" lon="5.56704">
        <ele>344</ele>
        <time>2022-02-15T07:51:04.000Z</time>
      </trkpt>
      <trkpt lat="43.52529" lon="5.56704">
        <ele>344</ele>
        <time>2022-02-15T07:51:05.000Z</time>
      </trkpt>
      <trkpt lat="43.5253" lon="5.56703">
        <ele>344</ele>
        <time>2022-02-15T07:51:06.000Z</time>
      </trkpt>
      <trkpt lat="43.5253" lon="5.56703">
        <ele>344</ele>
        <time>2022-02-15T07:51:07.000Z</time>
      </trkpt>
      <trkpt lat="43.52531" lon="5.56703">
        <ele>344</ele>
        <time>2022-02-15T07:51:08.000Z</time>
      </trkpt>
      <trkpt lat="43.52532" lon="5.56702">
        <ele>344</ele>
        <time>2022-02-15T07:51:09.000Z</time>
      </trkpt>
      <trkpt lat="43.52532" lon="5.56702">
        <ele>344</ele>
        <time>2022-02-15T07:51:10.000Z</time>
      </trkpt>
      <trkpt lat="43.52533" lon="5.56702">
        <ele>344</ele>
        <time>2022-02-15T07:51:11.000Z</time>
      </trkpt>
      <trkpt lat="43.52534" lon="5.56701">
        <ele>344</ele>
        <time>2022-02-15T07:51:12.000Z</time>
      </trkpt>
      <trkpt lat="43.52534" lon="5.56701">
        <ele>344</ele>
        <time>2022-02-15T07:51:13.000Z</time>
      </trkpt>
      <trkpt lat="43.52535" lon="5.567">
        <ele>344</ele>
        <time>2022-02-15T07:51:14.000Z</time>
      </trkpt>
      <trkpt lat="43.52535" lon="5.56699">
        <ele>344</ele>
        <time>2022-02-15T07:51:15.000Z</time>
      </trkpt>
      <trkpt lat="43.52536" lon="5.56699">
        <ele>345</ele>
        <time>2022-02-15T07:51:16.000Z</time>
      </trkpt>
      <trkpt lat="43.52537" lon="5.56698">
        <ele>345</ele>
        <time>2022-02-15T07:51:17.000Z</time>
      </trkpt>
      <trkpt lat="43.52538" lon="5.56697">
        <ele>345</ele>
        <time>2022-02-15T07:51:18.000Z</time>
      </trkpt>
      <trkpt lat="43.52538" lon="5.56697">
        <ele>345</ele>
        <time>2022-02-15T07:51:19.000Z</time>
      </trkpt>
      <trkpt lat="43.52539" lon="5.56697">
        <ele>345</ele>
        <time>2022-02-15T07:51:20.000Z</time>
      </trkpt>
      <trkpt lat="43.5254" lon="5.56696">
        <ele>345</ele>
        <time>2022-02-15T07:51:21.000Z</time>
      </trkpt>
      <trkpt lat="43.5254" lon="5.56696">
        <ele>346</ele>
        <time>2022-02-15T07:51:22.000Z</time>
      </trkpt>
      <trkpt lat="43.52541" lon="5.56695">
        <ele>346</ele>
        <time>2022-02-15T07:51:23.000Z</time>
      </trkpt>
      <trkpt lat="43.52542" lon="5.56695">
        <ele>346</ele>
        <time>2022-02-15T07:51:24.000Z</time>
      </trkpt>
      <trkpt lat="43.52543" lon="5.56694">
        <ele>346</ele>
        <time>2022-02-15T07:51:25.000Z</time>
      </trkpt>
      <trkpt lat="43.52543" lon="5.56694">
        <ele>346</ele>
        <time>2022-02-15T07:51:26.000Z</time>
      </trkpt>
      <trkpt lat="43.52544" lon="5.56693">
        <ele>347</ele>
        <time>2022-02-15T07:51:27.000Z</time>
      </trkpt>
      <trkpt lat="43.52544" lon="5.56693">
        <ele>347</ele>
        <time>2022-02-15T07:51:28.000Z</time>
      </trkpt>
      <trkpt lat="43.52545" lon="5.56692">
        <ele>347</ele>
        <time>2022-02-15T07:51:29.000Z</time>
      </trkpt>
      <trkpt lat="43.52546" lon="5.56692">
        <ele>347</ele>
        <time>2022-02-15T07:51:30.000Z</time>
      </trkpt>
      <trkpt lat="43.52547" lon="5.56692">
        <ele>347</ele>
        <time>2022-02-15T07:51:31.000Z</time>
      </trkpt>
      <trkpt lat="43.52547" lon="5.56692">
        <ele>347</ele>
        <time>2022-02-15T07:51:32.000Z</time>
      </trkpt>
      <trkpt lat="43.52548" lon="5.56691">
        <ele>348</ele>
        <time>2022-02-15T07:51:33.000Z</time>
      </trkpt>
      <trkpt lat="43.52549" lon="5.56691">
        <ele>348</ele>
        <time>2022-02-15T07:51:34.000Z</time>
      </trkpt>
      <trkpt lat="43.52549" lon="5.56691">
        <ele>348</ele>
        <time>2022-02-15T07:51:35.000Z</time>
      </trkpt>
      <trkpt lat="43.5255" lon="5.5669">
        <ele>348</ele>
        <time>2022-02-15T07:51:36.000Z</time>
      </trkpt>
      <trkpt lat="43.5255" lon="5.5669">
        <ele>348</ele>
        <time>2022-02-15T07:51:37.000Z</time>
      </trkpt>
      <trkpt lat="43.52551" lon="5.5669">
        <ele>348</ele>
        <time>2022-02-15T07:51:38.000Z</time>
      </trkpt>
      <trkpt lat="43.52552" lon="5.56689">
        <ele>348</ele>
        <time>2022-02-15T07:51:39.000Z</time>
      </trkpt>
      <trkpt lat="43.52553" lon="5.56689">
        <ele>349</ele>
        <time>2022-02-15T07:51:40.000Z</time>
      </trkpt>
      <trkpt lat="43.52553" lon="5.56689">
        <ele>349</ele>
        <time>2022-02-15T07:51:41.000Z</time>
      </trkpt>
      <trkpt lat="43.52554" lon="5.56689">
        <ele>349</ele>
        <time>2022-02-15T07:51:42.000Z</time>
      </trkpt>
      <trkpt lat="43.52555" lon="5.56688">
        <ele>349</ele>
        <time>2022-02-15T07:51:43.000Z</time>
      </trkpt>
      <trkpt lat="43.52555" lon="5.56688">
        <ele>349</ele>
        <time>2022-02-15T07:51:44.000Z</time>
      </trkpt>
      <trkpt lat="43.52556" lon="5.56688">
        <ele>349</ele>
        <time>2022-02-15T07:51:45.000Z</time>
      </trkpt>
      <trkpt lat="43.52557" lon="5.56687">
        <ele>349</ele>
        <time>2022-02-15T07:51:46.000Z</time>
      </trkpt>
      <trkpt lat="43.52557" lon="5.56687">
        <ele>349</ele>
        <time>2022-02-15T07:51:47.000Z</time>
      </trkpt>
      <trkpt lat="43.52558" lon="5.56687">
        <ele>350</ele>
        <time>2022-02-15T07:51:48.000Z</time>
      </trkpt>
      <trkpt lat="43.52559" lon="5.56687">
        <ele>350</ele>
        <time>2022-02-15T07:51:49.000Z</time>
      </trkpt>
      <trkpt lat="43.5256" lon="5.56686">
        <ele>350</ele>
        <time>2022-02-15T07:51:50.000Z</time>
      </trkpt>
      <trkpt lat="43.5256" lon="5.56686">
        <ele>350</ele>
        <time>2022-02-15T07:51:51.000Z</time>
      </trkpt>
      <trkpt lat="43.52561" lon="5.56686">
        <ele>350</ele>
        <time>2022-02-15T07:51:52.000Z</time>
      </trkpt>
      <trkpt lat="43.52562" lon="5.56686">
        <ele>350</ele>
        <time>2022-02-15T07:51:53.000Z</time>
      </trkpt>
      <trkpt lat="43.52562" lon="5.56685">
        <ele>351</ele>
        <time>2022-02-15T07:51:54.000Z</time>
      </trkpt>
      <trkpt lat="43.52563" lon="5.56685">
        <ele>351</ele>
        <time>2022-02-15T07:51:55.000Z</time>
      </trkpt>
      <trkpt lat="43.52564" lon="5.56685">
        <ele>351</ele>
        <time>2022-02-15T07:51:56.000Z</time>
      </trkpt>
      <trkpt lat="43.52564" lon="5.56685">
        <ele>351</ele>
        <time>2022-02-15T07:51:57.000Z</time>
      </trkpt>
      <trkpt lat="43.52565" lon="5.56685">
        <ele>351</ele>
        <time>2022-02-15T07:51:58.000Z</time>
      </trkpt>
      <trkpt lat="43.52566" lon="5.56685">
        <ele>352</ele>
        <time>2022-02-15T07:51:59.000Z</time>
      </trkpt>
      <trkpt lat="43.52566" lon="5.56685">
        <ele>352</ele>
        <time>2022-02-15T07:52:00.000Z</time>
      </trkpt>
      <trkpt lat="43.52567" lon="5.56684">
        <ele>352</ele>
        <time>2022-02-15T07:52:01.000Z</time>
      </trkpt>
      <trkpt lat="43.52568" lon="5.56684">
        <ele>352</ele>
        <time>2022-02-15T07:52:02.000Z</time>
      </trkpt>
      <trkpt lat="43.52568" lon="5.56684">
        <ele>352</ele>
        <time>2022-02-15T07:52:03.000Z</time>
      </trkpt>
      <trkpt lat="43.52569" lon="5.56684">
        <ele>352</ele>
        <time>2022-02-15T07:52:04.000Z</time>
      </trkpt>
      <trkpt lat="43.5257" lon="5.56683">
        <ele>353</ele>
        <time>2022-02-15T07:52:05.000Z</time>
      </trkpt>
      <trkpt lat="43.5257" lon="5.56683">
        <ele>353</ele>
        <time>2022-02-15T07:52:06.000Z</time>
      </trkpt>
      <trkpt lat="43.52571" lon="5.56683">
        <ele>353</ele>
        <time>2022-02-15T07:52:07.000Z</time>
      </trkpt>
      <trkpt lat="43.52572" lon="5.56683">
        <ele>353</ele>
        <time>2022-02-15T07:52:08.000Z</time>
      </trkpt>
      <trkpt lat="43.52573" lon="5.56684">
        <ele>353</ele>
        <time>2022-02-15T07:52:09.000Z</time>
      </trkpt>
      <trkpt lat="43.52573" lon="5.56684">
        <ele>353</ele>
        <time>2022-02-15T07:52:10.000Z</time>
      </trkpt>
      <trkpt lat="43.52574" lon="5.56684">
        <ele>353</ele>
        <time>2022-02-15T07:52:11.000Z</time>
      </trkpt>
      <trkpt lat="43.52575" lon="5.56684">
        <ele>353</ele>
        <time>2022-02-15T07:52:12.000Z</time>
      </trkpt>
      <trkpt lat="43.52575" lon="5.56685">
        <ele>353</ele>
        <time>2022-02-15T07:52:13.000Z</time>
      </trkpt>
      <trkpt lat="43.52576" lon="5.56685">
        <ele>354</ele>
        <time>2022-02-15T07:52:14.000Z</time>
      </trkpt>
      <trkpt lat="43.52577" lon="5.56686">
        <ele>354</ele>
        <time>2022-02-15T07:52:15.000Z</time>
      </trkpt>
      <trkpt lat="43.52578" lon="5.56686">
        <ele>354</ele>
        <time>2022-02-15T07:52:16.000Z</time>
      </trkpt>
      <trkpt lat="43.52578" lon="5.56687">
        <ele>354</ele>
        <time>2022-02-15T07:52:17.000Z</time>
      </trkpt>
      <trkpt lat="43.52579" lon="5.56687">
        <ele>354</ele>
        <time>2022-02-15T07:52:18.000Z</time>
      </trkpt>
      <trkpt lat="43.52579" lon="5.56688">
        <ele>354</ele>
        <time>2022-02-15T07:52:19.000Z</time>
      </trkpt>
      <trkpt lat="43.5258" lon="5.56688">
        <ele>354</ele>
        <time>2022-02-15T07:52:20.000Z</time>
      </trkpt>
      <trkpt lat="43.5258" lon="5.56689">
        <ele>355</ele>
        <time>2022-02-15T07:52:21.000Z</time>
      </trkpt>
      <trkpt lat="43.52581" lon="5.56689">
        <ele>355</ele>
        <time>2022-02-15T07:52:22.000Z</time>
      </trkpt>
      <trkpt lat="43.52582" lon="5.56689">
        <ele>355</ele>
        <time>2022-02-15T07:52:23.000Z</time>
      </trkpt>
      <trkpt lat="43.52582" lon="5.56689">
        <ele>355</ele>
        <time>2022-02-15T07:52:24.000Z</time>
      </trkpt>
      <trkpt lat="43.52583" lon="5.5669">
        <ele>355</ele>
        <time>2022-02-15T07:52:25.000Z</time>
      </trkpt>
      <trkpt lat="43.52584" lon="5.5669">
        <ele>355</ele>
        <time>2022-02-15T07:52:26.000Z</time>
      </trkpt>
      <trkpt lat="43.52584" lon="5.5669">
        <ele>355</ele>
        <time>2022-02-15T07:52:27.000Z</time>
      </trkpt>
      <trkpt lat="43.52585" lon="5.5669">
        <ele>355</ele>
        <time>2022-02-15T07:52:28.000Z</time>
      </trkpt>
      <trkpt lat="43.52585" lon="5.5669">
        <ele>356</ele>
        <time>2022-02-15T07:52:29.000Z</time>
      </trkpt>
      <trkpt lat="43.52586" lon="5.5669">
        <ele>356</ele>
        <time>2022-02-15T07:52:30.000Z</time>
      </trkpt>
      <trkpt lat="43.52586" lon="5.5669">
        <ele>356</ele>
        <time>2022-02-15T07:52:31.000Z</time>
      </trkpt>
      <trkpt lat="43.52586" lon="5.5669">
        <ele>356</ele>
        <time>2022-02-15T07:52:32.000Z</time>
      </trkpt>
      <trkpt lat="43.52586" lon="5.5669">
        <ele>356</ele>
        <time>2022-02-15T07:52:33.000Z</time>
      </trkpt>
      <trkpt lat="43.52586" lon="5.5669">
        <ele>356</ele>
        <time>2022-02-15T07:52:34.000Z</time>
      </trkpt>
      <trkpt lat="43.52586" lon="5.5669">
        <ele>356</ele>
        <time>2022-02-15T07:52:35.000Z</time>
      </trkpt>
      <trkpt lat="43.52586" lon="5.5669">
        <ele>356</ele>
        <time>2022-02-15T07:52:36.000Z</time>
      </trkpt>
      <trkpt lat="43.52586" lon="5.5669">
        <ele>356</ele>
        <time>2022-02-15T07:52:37.000Z</time>
      </trkpt>
      <trkpt lat="43.52586" lon="5.5669">
        <ele>356</ele>
        <time>2022-02-15T07:52:38.000Z</time>
      </trkpt>
      <trkpt lat="43.52586" lon="5.5669">
        <ele>356</ele>
        <time>2022-02-15T07:52:39.000Z</time>
      </trkpt>
      <trkpt lat="43.52586" lon="5.5669">
        <ele>356</ele>
        <time>2022-02-15T07:52:40.000Z</time>
      </trkpt>
      <trkpt lat="43.52586" lon="5.5669">
        <ele>356</ele>
        <time>2022-02-15T07:52:41.000Z</time>
      </trkpt>
      <trkpt lat="43.52587" lon="5.5669">
        <ele>356</ele>
        <time>2022-02-15T07:52:42.000Z</time>
      </trkpt>
      <trkpt lat="43.52587" lon="5.56691">
        <ele>356</ele>
        <time>2022-02-15T07:52:43.000Z</time>
      </trkpt>
      <trkpt lat="43.52587" lon="5.56691">
        <ele>356</ele>
        <time>2022-02-15T07:52:44.000Z</time>
      </trkpt>
      <trkpt lat="43.52588" lon="5.56692">
        <ele>356</ele>
        <time>2022-02-15T07:52:45.000Z</time>
      </trkpt>
      <trkpt lat="43.52588" lon="5.56693">
        <ele>357</ele>
        <time>2022-02-15T07:52:46.000Z</time>
      </trkpt>
      <trkpt lat="43.52588" lon="5.56694">
        <ele>357</ele>
        <time>2022-02-15T07:52:47.000Z</time>
      </trkpt>
      <trkpt lat="43.52588" lon="5.56694">
        <ele>357</ele>
        <time>2022-02-15T07:52:48.000Z</time>
      </trkpt>
      <trkpt lat="43.52588" lon="5.56695">
        <ele>357</ele>
        <time>2022-02-15T07:52:49.000Z</time>
      </trkpt>
      <trkpt lat="43.52589" lon="5.56696">
        <ele>357</ele>
        <time>2022-02-15T07:52:50.000Z</time>
      </trkpt>
      <trkpt lat="43.52588" lon="5.56696">
        <ele>357</ele>
        <time>2022-02-15T07:52:51.000Z</time>
      </trkpt>
      <trkpt lat="43.52588" lon="5.56697">
        <ele>357</ele>
        <time>2022-02-15T07:52:52.000Z</time>
      </trkpt>
      <trkpt lat="43.52588" lon="5.56698">
        <ele>357</ele>
        <time>2022-02-15T07:52:53.000Z</time>
      </trkpt>
      <trkpt lat="43.52588" lon="5.56699">
        <ele>357</ele>
        <time>2022-02-15T07:52:54.000Z</time>
      </trkpt>
      <trkpt lat="43.52588" lon="5.56699">
        <ele>357</ele>
        <time>2022-02-15T07:52:55.000Z</time>
      </trkpt>
      <trkpt lat="43.52588" lon="5.567">
        <ele>357</ele>
        <time>2022-02-15T07:52:56.000Z</time>
      </trkpt>
      <trkpt lat="43.52587" lon="5.56701">
        <ele>357</ele>
        <time>2022-02-15T07:52:57.000Z</time>
      </trkpt>
      <trkpt lat="43.52587" lon="5.56702">
        <ele>357</ele>
        <time>2022-02-15T07:52:58.000Z</time>
      </trkpt>
      <trkpt lat="43.52587" lon="5.56703">
        <ele>357</ele>
        <time>2022-02-15T07:52:59.000Z</time>
      </trkpt>
      <trkpt lat="43.52587" lon="5.56703">
        <ele>357</ele>
        <time>2022-02-15T07:53:00.000Z</time>
      </trkpt>
      <trkpt lat="43.52587" lon="5.56704">
        <ele>358</ele>
        <time>2022-02-15T07:53:01.000Z</time>
      </trkpt>
      <trkpt lat="43.52588" lon="5.56705">
        <ele>358</ele>
        <time>2022-02-15T07:53:02.000Z</time>
      </trkpt>
      <trkpt lat="43.52588" lon="5.56706">
        <ele>358</ele>
        <time>2022-02-15T07:53:03.000Z</time>
      </trkpt>
      <trkpt lat="43.52588" lon="5.56706">
        <ele>358</ele>
        <time>2022-02-15T07:53:04.000Z</time>
      </trkpt>
      <trkpt lat="43.52588" lon="5.56706">
        <ele>358</ele>
        <time>2022-02-15T07:53:05.000Z</time>
      </trkpt>
      <trkpt lat="43.52589" lon="5.56707">
        <ele>358</ele>
        <time>2022-02-15T07:53:06.000Z</time>
      </trkpt>
      <trkpt lat="43.52589" lon="5.56707">
        <ele>358</ele>
        <time>2022-02-15T07:53:07.000Z</time>
      </trkpt>
      <trkpt lat="43.52589" lon="5.56707">
        <ele>358</ele>
        <time>2022-02-15T07:53:08.000Z</time>
      </trkpt>
      <trkpt lat="43.5259" lon="5.56707">
        <ele>358</ele>
        <time>2022-02-15T07:53:09.000Z</time>
      </trkpt>
      <trkpt lat="43.5259" lon="5.56707">
        <ele>358</ele>
        <time>2022-02-15T07:53:10.000Z</time>
      </trkpt>
      <trkpt lat="43.52591" lon="5.56707">
        <ele>358</ele>
        <time>2022-02-15T07:53:11.000Z</time>
      </trkpt>
      <trkpt lat="43.52591" lon="5.56708">
        <ele>358</ele>
        <time>2022-02-15T07:53:12.000Z</time>
      </trkpt>
      <trkpt lat="43.52591" lon="5.56709">
        <ele>358</ele>
        <time>2022-02-15T07:53:13.000Z</time>
      </trkpt>
      <trkpt lat="43.52591" lon="5.5671">
        <ele>359</ele>
        <time>2022-02-15T07:53:14.000Z</time>
      </trkpt>
      <trkpt lat="43.52591" lon="5.56711">
        <ele>359</ele>
        <time>2022-02-15T07:53:15.000Z</time>
      </trkpt>
      <trkpt lat="43.52591" lon="5.56712">
        <ele>359</ele>
        <time>2022-02-15T07:53:16.000Z</time>
      </trkpt>
      <trkpt lat="43.5259" lon="5.56712">
        <ele>359</ele>
        <time>2022-02-15T07:53:17.000Z</time>
      </trkpt>
      <trkpt lat="43.52591" lon="5.56713">
        <ele>359</ele>
        <time>2022-02-15T07:53:18.000Z</time>
      </trkpt>
      <trkpt lat="43.52591" lon="5.56714">
        <ele>359</ele>
        <time>2022-02-15T07:53:19.000Z</time>
      </trkpt>
      <trkpt lat="43.52591" lon="5.56714">
        <ele>359</ele>
        <time>2022-02-15T07:53:20.000Z</time>
      </trkpt>
      <trkpt lat="43.52591" lon="5.56715">
        <ele>359</ele>
        <time>2022-02-15T07:53:21.000Z</time>
      </trkpt>
      <trkpt lat="43.52591" lon="5.56715">
        <ele>359</ele>
        <time>2022-02-15T07:53:22.000Z</time>
      </trkpt>
      <trkpt lat="43.52591" lon="5.56716">
        <ele>359</ele>
        <time>2022-02-15T07:53:23.000Z</time>
      </trkpt>
      <trkpt lat="43.52592" lon="5.56717">
        <ele>360</ele>
        <time>2022-02-15T07:53:24.000Z</time>
      </trkpt>
      <trkpt lat="43.52591" lon="5.56718">
        <ele>360</ele>
        <time>2022-02-15T07:53:25.000Z</time>
      </trkpt>
      <trkpt lat="43.52591" lon="5.56719">
        <ele>360</ele>
        <time>2022-02-15T07:53:26.000Z</time>
      </trkpt>
      <trkpt lat="43.52591" lon="5.5672">
        <ele>360</ele>
        <time>2022-02-15T07:53:27.000Z</time>
      </trkpt>
      <trkpt lat="43.52592" lon="5.56721">
        <ele>360</ele>
        <time>2022-02-15T07:53:28.000Z</time>
      </trkpt>
      <trkpt lat="43.52592" lon="5.56721">
        <ele>360</ele>
        <time>2022-02-15T07:53:29.000Z</time>
      </trkpt>
      <trkpt lat="43.52593" lon="5.56722">
        <ele>360</ele>
        <time>2022-02-15T07:53:30.000Z</time>
      </trkpt>
      <trkpt lat="43.52593" lon="5.56723">
        <ele>360</ele>
        <time>2022-02-15T07:53:31.000Z</time>
      </trkpt>
      <trkpt lat="43.52593" lon="5.56723">
        <ele>360</ele>
        <time>2022-02-15T07:53:32.000Z</time>
      </trkpt>
      <trkpt lat="43.52594" lon="5.56724">
        <ele>361</ele>
        <time>2022-02-15T07:53:33.000Z</time>
      </trkpt>
      <trkpt lat="43.52594" lon="5.56725">
        <ele>361</ele>
        <time>2022-02-15T07:53:34.000Z</time>
      </trkpt>
      <trkpt lat="43.52594" lon="5.56726">
        <ele>361</ele>
        <time>2022-02-15T07:53:35.000Z</time>
      </trkpt>
      <trkpt lat="43.52595" lon="5.56726">
        <ele>361</ele>
        <time>2022-02-15T07:53:36.000Z</time>
      </trkpt>
      <trkpt lat="43.52595" lon="5.56727">
        <ele>361</ele>
        <time>2022-02-15T07:53:37.000Z</time>
      </trkpt>
      <trkpt lat="43.52595" lon="5.56728">
        <ele>361</ele>
        <time>2022-02-15T07:53:38.000Z</time>
      </trkpt>
      <trkpt lat="43.52595" lon="5.56729">
        <ele>361</ele>
        <time>2022-02-15T07:53:39.000Z</time>
      </trkpt>
      <trkpt lat="43.52595" lon="5.5673">
        <ele>362</ele>
        <time>2022-02-15T07:53:40.000Z</time>
      </trkpt>
      <trkpt lat="43.52595" lon="5.56732">
        <ele>362</ele>
        <time>2022-02-15T07:53:41.000Z</time>
      </trkpt>
      <trkpt lat="43.52596" lon="5.56733">
        <ele>362</ele>
        <time>2022-02-15T07:53:42.000Z</time>
      </trkpt>
      <trkpt lat="43.52596" lon="5.56734">
        <ele>362</ele>
        <time>2022-02-15T07:53:43.000Z</time>
      </trkpt>
      <trkpt lat="43.52596" lon="5.56735">
        <ele>362</ele>
        <time>2022-02-15T07:53:44.000Z</time>
      </trkpt>
      <trkpt lat="43.52596" lon="5.56736">
        <ele>362</ele>
        <time>2022-02-15T07:53:45.000Z</time>
      </trkpt>
      <trkpt lat="43.52596" lon="5.56737">
        <ele>363</ele>
        <time>2022-02-15T07:53:46.000Z</time>
      </trkpt>
      <trkpt lat="43.52597" lon="5.56738">
        <ele>363</ele>
        <time>2022-02-15T07:53:47.000Z</time>
      </trkpt>
      <trkpt lat="43.52597" lon="5.56739">
        <ele>363</ele>
        <time>2022-02-15T07:53:48.000Z</time>
      </trkpt>
      <trkpt lat="43.52597" lon="5.5674">
        <ele>363</ele>
        <time>2022-02-15T07:53:49.000Z</time>
      </trkpt>
      <trkpt lat="43.52597" lon="5.56741">
        <ele>363</ele>
        <time>2022-02-15T07:53:50.000Z</time>
      </trkpt>
      <trkpt lat="43.52597" lon="5.56743">
        <ele>363</ele>
        <time>2022-02-15T07:53:51.000Z</time>
      </trkpt>
      <trkpt lat="43.52597" lon="5.56744">
        <ele>363</ele>
        <time>2022-02-15T07:53:52.000Z</time>
      </trkpt>
      <trkpt lat="43.52597" lon="5.56745">
        <ele>364</ele>
        <time>2022-02-15T07:53:53.000Z</time>
      </trkpt>
      <trkpt lat="43.52597" lon="5.56746">
        <ele>364</ele>
        <time>2022-02-15T07:53:54.000Z</time>
      </trkpt>
      <trkpt lat="43.52597" lon="5.56747">
        <ele>364</ele>
        <time>2022-02-15T07:53:55.000Z</time>
      </trkpt>
      <trkpt lat="43.52597" lon="5.56748">
        <ele>364</ele>
        <time>2022-02-15T07:53:56.000Z</time>
      </trkpt>
      <trkpt lat="43.52597" lon="5.56749">
        <ele>364</ele>
        <time>2022-02-15T07:53:57.000Z</time>
      </trkpt>
      <trkpt lat="43.52597" lon="5.5675">
        <ele>364</ele>
        <time>2022-02-15T07:53:58.000Z</time>
      </trkpt>
      <trkpt lat="43.52597" lon="5.56751">
        <ele>364</ele>
        <time>2022-02-15T07:53:59.000Z</time>
      </trkpt>
      <trkpt lat="43.52597" lon="5.56752">
        <ele>365</ele>
        <time>2022-02-15T07:54:00.000Z</time>
      </trkpt>
      <trkpt lat="43.52596" lon="5.56753">
        <ele>365</ele>
        <time>2022-02-15T07:54:01.000Z</time>
      </trkpt>
      <trkpt lat="43.52596" lon="5.56754">
        <ele>365</ele>
        <time>2022-02-15T07:54:02.000Z</time>
      </trkpt>
      <trkpt lat="43.52596" lon="5.56755">
        <ele>365</ele>
        <time>2022-02-15T07:54:03.000Z</time>
      </trkpt>
      <trkpt lat="43.52596" lon="5.56757">
        <ele>365</ele>
        <time>2022-02-15T07:54:04.000Z</time>
      </trkpt>
      <trkpt lat="43.52595" lon="5.56758">
        <ele>365</ele>
        <time>2022-02-15T07:54:05.000Z</time>
      </trkpt>
      <trkpt lat="43.52595" lon="5.56759">
        <ele>366</ele>
        <time>2022-02-15T07:54:06.000Z</time>
      </trkpt>
      <trkpt lat="43.52595" lon="5.5676">
        <ele>366</ele>
        <time>2022-02-15T07:54:07.000Z</time>
      </trkpt>
      <trkpt lat="43.52594" lon="5.56761">
        <ele>366</ele>
        <time>2022-02-15T07:54:08.000Z</time>
      </trkpt>
      <trkpt lat="43.52594" lon="5.56762">
        <ele>366</ele>
        <time>2022-02-15T07:54:09.000Z</time>
      </trkpt>
      <trkpt lat="43.52594" lon="5.56763">
        <ele>366</ele>
        <time>2022-02-15T07:54:10.000Z</time>
      </trkpt>
      <trkpt lat="43.52593" lon="5.56764">
        <ele>366</ele>
        <time>2022-02-15T07:54:11.000Z</time>
      </trkpt>
      <trkpt lat="43.52593" lon="5.56765">
        <ele>367</ele>
        <time>2022-02-15T07:54:12.000Z</time>
      </trkpt>
      <trkpt lat="43.52593" lon="5.56766">
        <ele>367</ele>
        <time>2022-02-15T07:54:13.000Z</time>
      </trkpt>
      <trkpt lat="43.52593" lon="5.56767">
        <ele>367</ele>
        <time>2022-02-15T07:54:14.000Z</time>
      </trkpt>
      <trkpt lat="43.52593" lon="5.56768">
        <ele>367</ele>
        <time>2022-02-15T07:54:15.000Z</time>
      </trkpt>
      <trkpt lat="43.52593" lon="5.56769">
        <ele>367</ele>
        <time>2022-02-15T07:54:16.000Z</time>
      </trkpt>
      <trkpt lat="43.52593" lon="5.56769">
        <ele>367</ele>
        <time>2022-02-15T07:54:17.000Z</time>
      </trkpt>
      <trkpt lat="43.52593" lon="5.5677">
        <ele>367</ele>
        <time>2022-02-15T07:54:18.000Z</time>
      </trkpt>
      <trkpt lat="43.52593" lon="5.56771">
        <ele>368</ele>
        <time>2022-02-15T07:54:19.000Z</time>
      </trkpt>
      <trkpt lat="43.52593" lon="5.56772">
        <ele>368</ele>
        <time>2022-02-15T07:54:20.000Z</time>
      </trkpt>
      <trkpt lat="43.52592" lon="5.56773">
        <ele>368</ele>
        <time>2022-02-15T07:54:21.000Z</time>
      </trkpt>
      <trkpt lat="43.52592" lon="5.56774">
        <ele>368</ele>
        <time>2022-02-15T07:54:22.000Z</time>
      </trkpt>
      <trkpt lat="43.52592" lon="5.56775">
        <ele>368</ele>
        <time>2022-02-15T07:54:23.000Z</time>
      </trkpt>
      <trkpt lat="43.52592" lon="5.56776">
        <ele>368</ele>
        <time>2022-02-15T07:54:24.000Z</time>
      </trkpt>
      <trkpt lat="43.52592" lon="5.56777">
        <ele>368</ele>
        <time>2022-02-15T07:54:25.000Z</time>
      </trkpt>
      <trkpt lat="43.52592" lon="5.56778">
        <ele>369</ele>
        <time>2022-02-15T07:54:26.000Z</time>
      </trkpt>
      <trkpt lat="43.52592" lon="5.56779">
        <ele>369</ele>
        <time>2022-02-15T07:54:27.000Z</time>
      </trkpt>
      <trkpt lat="43.52592" lon="5.5678">
        <ele>369</ele>
        <time>2022-02-15T07:54:28.000Z</time>
      </trkpt>
      <trkpt lat="43.52592" lon="5.56781">
        <ele>369</ele>
        <time>2022-02-15T07:54:29.000Z</time>
      </trkpt>
      <trkpt lat="43.52593" lon="5.56782">
        <ele>369</ele>
        <time>2022-02-15T07:54:30.000Z</time>
      </trkpt>
      <trkpt lat="43.52593" lon="5.56783">
        <ele>369</ele>
        <time>2022-02-15T07:54:31.000Z</time>
      </trkpt>
      <trkpt lat="43.52594" lon="5.56784">
        <ele>369</ele>
        <time>2022-02-15T07:54:32.000Z</time>
      </trkpt>
      <trkpt lat="43.52594" lon="5.56785">
        <ele>369</ele>
        <time>2022-02-15T07:54:33.000Z</time>
      </trkpt>
      <trkpt lat="43.52594" lon="5.56786">
        <ele>369</ele>
        <time>2022-02-15T07:54:34.000Z</time>
      </trkpt>
      <trkpt lat="43.52594" lon="5.56787">
        <ele>369</ele>
        <time>2022-02-15T07:54:35.000Z</time>
      </trkpt>
      <trkpt lat="43.52594" lon="5.56787">
        <ele>370</ele>
        <time>2022-02-15T07:54:36.000Z</time>
      </trkpt>
      <trkpt lat="43.52595" lon="5.56788">
        <ele>370</ele>
        <time>2022-02-15T07:54:37.000Z</time>
      </trkpt>
      <trkpt lat="43.52595" lon="5.56789">
        <ele>370</ele>
        <time>2022-02-15T07:54:38.000Z</time>
      </trkpt>
      <trkpt lat="43.52596" lon="5.5679">
        <ele>370</ele>
        <time>2022-02-15T07:54:39.000Z</time>
      </trkpt>
      <trkpt lat="43.52596" lon="5.5679">
        <ele>370</ele>
        <time>2022-02-15T07:54:40.000Z</time>
      </trkpt>
      <trkpt lat="43.52597" lon="5.56791">
        <ele>370</ele>
        <time>2022-02-15T07:54:41.000Z</time>
      </trkpt>
      <trkpt lat="43.52597" lon="5.56792">
        <ele>370</ele>
        <time>2022-02-15T07:54:42.000Z</time>
      </trkpt>
      <trkpt lat="43.52598" lon="5.56792">
        <ele>370</ele>
        <time>2022-02-15T07:54:43.000Z</time>
      </trkpt>
      <trkpt lat="43.52599" lon="5.56793">
        <ele>370</ele>
        <time>2022-02-15T07:54:44.000Z</time>
      </trkpt>
      <trkpt lat="43.52599" lon="5.56793">
        <ele>371</ele>
        <time>2022-02-15T07:54:45.000Z</time>
      </trkpt>
      <trkpt lat="43.526" lon="5.56792">
        <ele>371</ele>
        <time>2022-02-15T07:54:46.000Z</time>
      </trkpt>
      <trkpt lat="43.52601" lon="5.56792">
        <ele>371</ele>
        <time>2022-02-15T07:54:47.000Z</time>
      </trkpt>
      <trkpt lat="43.52602" lon="5.56792">
        <ele>371</ele>
        <time>2022-02-15T07:54:48.000Z</time>
      </trkpt>
      <trkpt lat="43.52602" lon="5.56791">
        <ele>371</ele>
        <time>2022-02-15T07:54:49.000Z</time>
      </trkpt>
      <trkpt lat="43.52603" lon="5.56791">
        <ele>372</ele>
        <time>2022-02-15T07:54:50.000Z</time>
      </trkpt>
      <trkpt lat="43.52603" lon="5.5679">
        <ele>372</ele>
        <time>2022-02-15T07:54:51.000Z</time>
      </trkpt>
      <trkpt lat="43.52604" lon="5.5679">
        <ele>372</ele>
        <time>2022-02-15T07:54:52.000Z</time>
      </trkpt>
      <trkpt lat="43.52604" lon="5.5679">
        <ele>372</ele>
        <time>2022-02-15T07:54:53.000Z</time>
      </trkpt>
      <trkpt lat="43.52605" lon="5.56789">
        <ele>373</ele>
        <time>2022-02-15T07:54:54.000Z</time>
      </trkpt>
      <trkpt lat="43.52606" lon="5.56788">
        <ele>373</ele>
        <time>2022-02-15T07:54:55.000Z</time>
      </trkpt>
      <trkpt lat="43.52606" lon="5.56788">
        <ele>373</ele>
        <time>2022-02-15T07:54:56.000Z</time>
      </trkpt>
      <trkpt lat="43.52607" lon="5.56788">
        <ele>373</ele>
        <time>2022-02-15T07:54:57.000Z</time>
      </trkpt>
      <trkpt lat="43.52607" lon="5.56787">
        <ele>373</ele>
        <time>2022-02-15T07:54:58.000Z</time>
      </trkpt>
      <trkpt lat="43.52608" lon="5.56787">
        <ele>374</ele>
        <time>2022-02-15T07:54:59.000Z</time>
      </trkpt>
      <trkpt lat="43.52609" lon="5.56787">
        <ele>374</ele>
        <time>2022-02-15T07:55:00.000Z</time>
      </trkpt>
      <trkpt lat="43.52609" lon="5.56786">
        <ele>374</ele>
        <time>2022-02-15T07:55:01.000Z</time>
      </trkpt>
      <trkpt lat="43.5261" lon="5.56786">
        <ele>374</ele>
        <time>2022-02-15T07:55:02.000Z</time>
      </trkpt>
      <trkpt lat="43.52611" lon="5.56786">
        <ele>374</ele>
        <time>2022-02-15T07:55:03.000Z</time>
      </trkpt>
      <trkpt lat="43.52611" lon="5.56785">
        <ele>374</ele>
        <time>2022-02-15T07:55:04.000Z</time>
      </trkpt>
      <trkpt lat="43.52612" lon="5.56785">
        <ele>375</ele>
        <time>2022-02-15T07:55:05.000Z</time>
      </trkpt>
      <trkpt lat="43.52612" lon="5.56785">
        <ele>375</ele>
        <time>2022-02-15T07:55:06.000Z</time>
      </trkpt>
      <trkpt lat="43.52613" lon="5.56784">
        <ele>375</ele>
        <time>2022-02-15T07:55:07.000Z</time>
      </trkpt>
      <trkpt lat="43.52613" lon="5.56784">
        <ele>375</ele>
        <time>2022-02-15T07:55:08.000Z</time>
      </trkpt>
      <trkpt lat="43.52613" lon="5.56784">
        <ele>375</ele>
        <time>2022-02-15T07:55:09.000Z</time>
      </trkpt>
      <trkpt lat="43.52614" lon="5.56783">
        <ele>375</ele>
        <time>2022-02-15T07:55:10.000Z</time>
      </trkpt>
      <trkpt lat="43.52614" lon="5.56782">
        <ele>375</ele>
        <time>2022-02-15T07:55:11.000Z</time>
      </trkpt>
      <trkpt lat="43.52614" lon="5.56782">
        <ele>376</ele>
        <time>2022-02-15T07:55:12.000Z</time>
      </trkpt>
      <trkpt lat="43.52614" lon="5.56781">
        <ele>376</ele>
        <time>2022-02-15T07:55:13.000Z</time>
      </trkpt>
      <trkpt lat="43.52614" lon="5.56781">
        <ele>376</ele>
        <time>2022-02-15T07:55:14.000Z</time>
      </trkpt>
      <trkpt lat="43.52615" lon="5.5678">
        <ele>376</ele>
        <time>2022-02-15T07:55:15.000Z</time>
      </trkpt>
      <trkpt lat="43.52616" lon="5.5678">
        <ele>376</ele>
        <time>2022-02-15T07:55:16.000Z</time>
      </trkpt>
      <trkpt lat="43.52616" lon="5.56779">
        <ele>376</ele>
        <time>2022-02-15T07:55:17.000Z</time>
      </trkpt>
      <trkpt lat="43.52617" lon="5.56779">
        <ele>376</ele>
        <time>2022-02-15T07:55:18.000Z</time>
      </trkpt>
      <trkpt lat="43.52618" lon="5.56778">
        <ele>377</ele>
        <time>2022-02-15T07:55:19.000Z</time>
      </trkpt>
      <trkpt lat="43.52618" lon="5.56778">
        <ele>377</ele>
        <time>2022-02-15T07:55:20.000Z</time>
      </trkpt>
      <trkpt lat="43.52619" lon="5.56777">
        <ele>377</ele>
        <time>2022-02-15T07:55:21.000Z</time>
      </trkpt>
      <trkpt lat="43.52619" lon="5.56777">
        <ele>377</ele>
        <time>2022-02-15T07:55:22.000Z</time>
      </trkpt>
      <trkpt lat="43.5262" lon="5.56776">
        <ele>377</ele>
        <time>2022-02-15T07:55:23.000Z</time>
      </trkpt>
      <trkpt lat="43.5262" lon="5.56775">
        <ele>377</ele>
        <time>2022-02-15T07:55:24.000Z</time>
      </trkpt>
      <trkpt lat="43.5262" lon="5.56775">
        <ele>377</ele>
        <time>2022-02-15T07:55:25.000Z</time>
      </trkpt>
      <trkpt lat="43.5262" lon="5.56774">
        <ele>377</ele>
        <time>2022-02-15T07:55:26.000Z</time>
      </trkpt>
      <trkpt lat="43.52621" lon="5.56773">
        <ele>377</ele>
        <time>2022-02-15T07:55:27.000Z</time>
      </trkpt>
      <trkpt lat="43.52621" lon="5.56772">
        <ele>377</ele>
        <time>2022-02-15T07:55:28.000Z</time>
      </trkpt>
      <trkpt lat="43.52621" lon="5.56771">
        <ele>378</ele>
        <time>2022-02-15T07:55:29.000Z</time>
      </trkpt>
      <trkpt lat="43.52622" lon="5.56771">
        <ele>378</ele>
        <time>2022-02-15T07:55:30.000Z</time>
      </trkpt>
      <trkpt lat="43.52622" lon="5.5677">
        <ele>378</ele>
        <time>2022-02-15T07:55:31.000Z</time>
      </trkpt>
      <trkpt lat="43.52623" lon="5.5677">
        <ele>378</ele>
        <time>2022-02-15T07:55:32.000Z</time>
      </trkpt>
      <trkpt lat="43.52623" lon="5.56769">
        <ele>378</ele>
        <time>2022-02-15T07:55:33.000Z</time>
      </trkpt>
      <trkpt lat="43.52624" lon="5.56769">
        <ele>378</ele>
        <time>2022-02-15T07:55:34.000Z</time>
      </trkpt>
      <trkpt lat="43.52624" lon="5.56768">
        <ele>378</ele>
        <time>2022-02-15T07:55:35.000Z</time>
      </trkpt>
      <trkpt lat="43.52625" lon="5.56768">
        <ele>378</ele>
        <time>2022-02-15T07:55:36.000Z</time>
      </trkpt>
      <trkpt lat="43.52625" lon="5.56767">
        <ele>378</ele>
        <time>2022-02-15T07:55:37.000Z</time>
      </trkpt>
      <trkpt lat="43.52626" lon="5.56767">
        <ele>379</ele>
        <time>2022-02-15T07:55:38.000Z</time>
      </trkpt>
      <trkpt lat="43.52626" lon="5.56766">
        <ele>379</ele>
        <time>2022-02-15T07:55:39.000Z</time>
      </trkpt>
      <trkpt lat="43.52627" lon="5.56766">
        <ele>379</ele>
        <time>2022-02-15T07:55:40.000Z</time>
      </trkpt>
      <trkpt lat="43.52627" lon="5.56765">
        <ele>379</ele>
        <time>2022-02-15T07:55:41.000Z</time>
      </trkpt>
      <trkpt lat="43.52627" lon="5.56764">
        <ele>379</ele>
        <time>2022-02-15T07:55:42.000Z</time>
      </trkpt>
      <trkpt lat="43.52628" lon="5.56763">
        <ele>379</ele>
        <time>2022-02-15T07:55:43.000Z</time>
      </trkpt>
      <trkpt lat="43.52628" lon="5.56762">
        <ele>379</ele>
        <time>2022-02-15T07:55:44.000Z</time>
      </trkpt>
      <trkpt lat="43.52628" lon="5.56762">
        <ele>379</ele>
        <time>2022-02-15T07:55:45.000Z</time>
      </trkpt>
      <trkpt lat="43.52629" lon="5.56761">
        <ele>379</ele>
        <time>2022-02-15T07:55:46.000Z</time>
      </trkpt>
      <trkpt lat="43.5263" lon="5.56761">
        <ele>379</ele>
        <time>2022-02-15T07:55:47.000Z</time>
      </trkpt>
      <trkpt lat="43.5263" lon="5.5676">
        <ele>379</ele>
        <time>2022-02-15T07:55:48.000Z</time>
      </trkpt>
      <trkpt lat="43.52631" lon="5.5676">
        <ele>379</ele>
        <time>2022-02-15T07:55:49.000Z</time>
      </trkpt>
      <trkpt lat="43.52632" lon="5.56759">
        <ele>379</ele>
        <time>2022-02-15T07:55:50.000Z</time>
      </trkpt>
      <trkpt lat="43.52632" lon="5.56759">
        <ele>380</ele>
        <time>2022-02-15T07:55:51.000Z</time>
      </trkpt>
      <trkpt lat="43.52633" lon="5.56759">
        <ele>380</ele>
        <time>2022-02-15T07:55:52.000Z</time>
      </trkpt>
      <trkpt lat="43.52633" lon="5.56758">
        <ele>380</ele>
        <time>2022-02-15T07:55:53.000Z</time>
      </trkpt>
      <trkpt lat="43.52633" lon="5.56758">
        <ele>380</ele>
        <time>2022-02-15T07:55:54.000Z</time>
      </trkpt>
      <trkpt lat="43.52633" lon="5.56758">
        <ele>380</ele>
        <time>2022-02-15T07:55:55.000Z</time>
      </trkpt>
      <trkpt lat="43.52633" lon="5.56758">
        <ele>380</ele>
        <time>2022-02-15T07:55:56.000Z</time>
      </trkpt>
      <trkpt lat="43.52634" lon="5.56758">
        <ele>380</ele>
        <time>2022-02-15T07:55:57.000Z</time>
      </trkpt>
      <trkpt lat="43.52634" lon="5.56758">
        <ele>380</ele>
        <time>2022-02-15T07:55:58.000Z</time>
      </trkpt>
      <trkpt lat="43.52634" lon="5.56758">
        <ele>380</ele>
        <time>2022-02-15T07:55:59.000Z</time>
      </trkpt>
      <trkpt lat="43.52634" lon="5.56758">
        <ele>380</ele>
        <time>2022-02-15T07:56:00.000Z</time>
      </trkpt>
      <trkpt lat="43.52634" lon="5.56758">
        <ele>381</ele>
        <time>2022-02-15T07:56:01.000Z</time>
      </trkpt>
      <trkpt lat="43.52634" lon="5.56757">
        <ele>381</ele>
        <time>2022-02-15T07:56:02.000Z</time>
      </trkpt>
      <trkpt lat="43.52634" lon="5.56757">
        <ele>381</ele>
        <time>2022-02-15T07:56:03.000Z</time>
      </trkpt>
      <trkpt lat="43.52634" lon="5.56757">
        <ele>381</ele>
        <time>2022-02-15T07:56:04.000Z</time>
      </trkpt>
      <trkpt lat="43.52634" lon="5.56757">
        <ele>381</ele>
        <time>2022-02-15T07:56:05.000Z</time>
      </trkpt>
      <trkpt lat="43.52634" lon="5.56757">
        <ele>381</ele>
        <time>2022-02-15T07:56:06.000Z</time>
      </trkpt>
      <trkpt lat="43.52634" lon="5.56757">
        <ele>381</ele>
        <time>2022-02-15T07:56:07.000Z</time>
      </trkpt>
      <trkpt lat="43.52634" lon="5.56757">
        <ele>381</ele>
        <time>2022-02-15T07:56:08.000Z</time>
      </trkpt>
      <trkpt lat="43.52634" lon="5.56757">
        <ele>381</ele>
        <time>2022-02-15T07:56:09.000Z</time>
      </trkpt>
      <trkpt lat="43.52634" lon="5.56757">
        <ele>381</ele>
        <time>2022-02-15T07:56:10.000Z</time>
      </trkpt>
      <trkpt lat="43.52634" lon="5.56757">
        <ele>381</ele>
        <time>2022-02-15T07:56:11.000Z</time>
      </trkpt>
      <trkpt lat="43.52634" lon="5.56757">
        <ele>381</ele>
        <time>2022-02-15T07:56:12.000Z</time>
      </trkpt>
      <trkpt lat="43.52634" lon="5.56757">
        <ele>381</ele>
        <time>2022-02-15T07:56:13.000Z</time>
      </trkpt>
      <trkpt lat="43.52634" lon="5.56757">
        <ele>381</ele>
        <time>2022-02-15T07:56:14.000Z</time>
      </trkpt>
      <trkpt lat="43.52634" lon="5.56757">
        <ele>381</ele>
        <time>2022-02-15T07:56:15.000Z</time>
      </trkpt>
      <trkpt lat="43.52634" lon="5.56757">
        <ele>381</ele>
        <time>2022-02-15T07:56:16.000Z</time>
      </trkpt>
      <trkpt lat="43.52634" lon="5.56757">
        <ele>381</ele>
        <time>2022-02-15T07:56:17.000Z</time>
      </trkpt>
      <trkpt lat="43.52634" lon="5.56757">
        <ele>381</ele>
        <time>2022-02-15T07:56:18.000Z</time>
      </trkpt>
      <trkpt lat="43.52634" lon="5.56757">
        <ele>381</ele>
        <time>2022-02-15T07:56:19.000Z</time>
      </trkpt>
      <trkpt lat="43.52634" lon="5.56757">
        <ele>381</ele>
        <time>2022-02-15T07:56:20.000Z</time>
      </trkpt>
      <trkpt lat="43.52634" lon="5.56757">
        <ele>381</ele>
        <time>2022-02-15T07:56:21.000Z</time>
      </trkpt>
      <trkpt lat="43.52634" lon="5.56757">
        <ele>381</ele>
        <time>2022-02-15T07:56:22.000Z</time>
      </trkpt>
      <trkpt lat="43.52634" lon="5.56757">
        <ele>381</ele>
        <time>2022-02-15T07:56:23.000Z</time>
      </trkpt>
      <trkpt lat="43.52634" lon="5.56757">
        <ele>381</ele>
        <time>2022-02-15T07:56:24.000Z</time>
      </trkpt>
      <trkpt lat="43.52634" lon="5.56757">
        <ele>381</ele>
        <time>2022-02-15T07:56:25.000Z</time>
      </trkpt>
      <trkpt lat="43.52634" lon="5.56757">
        <ele>381</ele>
        <time>2022-02-15T07:56:26.000Z</time>
      </trkpt>
      <trkpt lat="43.52634" lon="5.56757">
        <ele>381</ele>
        <time>2022-02-15T07:56:27.000Z</time>
      </trkpt>
      <trkpt lat="43.52634" lon="5.56757">
        <ele>381</ele>
        <time>2022-02-15T07:56:28.000Z</time>
      </trkpt>
      <trkpt lat="43.52634" lon="5.56757">
        <ele>381</ele>
        <time>2022-02-15T07:56:29.000Z</time>
      </trkpt>
      <trkpt lat="43.52634" lon="5.56757">
        <ele>381</ele>
        <time>2022-02-15T07:56:30.000Z</time>
      </trkpt>
      <trkpt lat="43.52634" lon="5.56757">
        <ele>381</ele>
        <time>2022-02-15T07:56:31.000Z</time>
      </trkpt>
      <trkpt lat="43.52635" lon="5.56757">
        <ele>381</ele>
        <time>2022-02-15T07:56:32.000Z</time>
      </trkpt>
      <trkpt lat="43.52635" lon="5.56757">
        <ele>381</ele>
        <time>2022-02-15T07:56:33.000Z</time>
      </trkpt>
      <trkpt lat="43.52635" lon="5.56757">
        <ele>381</ele>
        <time>2022-02-15T07:56:34.000Z</time>
      </trkpt>
      <trkpt lat="43.52636" lon="5.56757">
        <ele>381</ele>
        <time>2022-02-15T07:56:35.000Z</time>
      </trkpt>
      <trkpt lat="43.52637" lon="5.56756">
        <ele>381</ele>
        <time>2022-02-15T07:56:36.000Z</time>
      </trkpt>
      <trkpt lat="43.52638" lon="5.56756">
        <ele>381</ele>
        <time>2022-02-15T07:56:37.000Z</time>
      </trkpt>
      <trkpt lat="43.52638" lon="5.56756">
        <ele>382</ele>
        <time>2022-02-15T07:56:38.000Z</time>
      </trkpt>
      <trkpt lat="43.52639" lon="5.56757">
        <ele>382</ele>
        <time>2022-02-15T07:56:39.000Z</time>
      </trkpt>
      <trkpt lat="43.52639" lon="5.56757">
        <ele>382</ele>
        <time>2022-02-15T07:56:40.000Z</time>
      </trkpt>
      <trkpt lat="43.5264" lon="5.56757">
        <ele>382</ele>
        <time>2022-02-15T07:56:41.000Z</time>
      </trkpt>
      <trkpt lat="43.5264" lon="5.56757">
        <ele>382</ele>
        <time>2022-02-15T07:56:42.000Z</time>
      </trkpt>
      <trkpt lat="43.52641" lon="5.56758">
        <ele>382</ele>
        <time>2022-02-15T07:56:43.000Z</time>
      </trkpt>
      <trkpt lat="43.52642" lon="5.56758">
        <ele>382</ele>
        <time>2022-02-15T07:56:44.000Z</time>
      </trkpt>
      <trkpt lat="43.52642" lon="5.56759">
        <ele>382</ele>
        <time>2022-02-15T07:56:45.000Z</time>
      </trkpt>
      <trkpt lat="43.52643" lon="5.5676">
        <ele>382</ele>
        <time>2022-02-15T07:56:46.000Z</time>
      </trkpt>
      <trkpt lat="43.52643" lon="5.5676">
        <ele>382</ele>
        <time>2022-02-15T07:56:47.000Z</time>
      </trkpt>
      <trkpt lat="43.52643" lon="5.56761">
        <ele>382</ele>
        <time>2022-02-15T07:56:48.000Z</time>
      </trkpt>
      <trkpt lat="43.52644" lon="5.56762">
        <ele>382</ele>
        <time>2022-02-15T07:56:49.000Z</time>
      </trkpt>
      <trkpt lat="43.52644" lon="5.56763">
        <ele>382</ele>
        <time>2022-02-15T07:56:50.000Z</time>
      </trkpt>
      <trkpt lat="43.52644" lon="5.56763">
        <ele>382</ele>
        <time>2022-02-15T07:56:51.000Z</time>
      </trkpt>
      <trkpt lat="43.52645" lon="5.56764">
        <ele>382</ele>
        <time>2022-02-15T07:56:52.000Z</time>
      </trkpt>
      <trkpt lat="43.52645" lon="5.56764">
        <ele>382</ele>
        <time>2022-02-15T07:56:53.000Z</time>
      </trkpt>
      <trkpt lat="43.52645" lon="5.56765">
        <ele>382</ele>
        <time>2022-02-15T07:56:54.000Z</time>
      </trkpt>
      <trkpt lat="43.52645" lon="5.56766">
        <ele>382</ele>
        <time>2022-02-15T07:56:55.000Z</time>
      </trkpt>
      <trkpt lat="43.52646" lon="5.56766">
        <ele>382</ele>
        <time>2022-02-15T07:56:56.000Z</time>
      </trkpt>
      <trkpt lat="43.52646" lon="5.56767">
        <ele>383</ele>
        <time>2022-02-15T07:56:57.000Z</time>
      </trkpt>
      <trkpt lat="43.52646" lon="5.56768">
        <ele>383</ele>
        <time>2022-02-15T07:56:58.000Z</time>
      </trkpt>
      <trkpt lat="43.52647" lon="5.56768">
        <ele>383</ele>
        <time>2022-02-15T07:56:59.000Z</time>
      </trkpt>
      <trkpt lat="43.52647" lon="5.56769">
        <ele>383</ele>
        <time>2022-02-15T07:57:00.000Z</time>
      </trkpt>
      <trkpt lat="43.52647" lon="5.5677">
        <ele>383</ele>
        <time>2022-02-15T07:57:01.000Z</time>
      </trkpt>
      <trkpt lat="43.52648" lon="5.5677">
        <ele>383</ele>
        <time>2022-02-15T07:57:02.000Z</time>
      </trkpt>
      <trkpt lat="43.52648" lon="5.56771">
        <ele>383</ele>
        <time>2022-02-15T07:57:03.000Z</time>
      </trkpt>
      <trkpt lat="43.52649" lon="5.56771">
        <ele>383</ele>
        <time>2022-02-15T07:57:04.000Z</time>
      </trkpt>
      <trkpt lat="43.52649" lon="5.56771">
        <ele>383</ele>
        <time>2022-02-15T07:57:05.000Z</time>
      </trkpt>
      <trkpt lat="43.5265" lon="5.56772">
        <ele>383</ele>
        <time>2022-02-15T07:57:06.000Z</time>
      </trkpt>
      <trkpt lat="43.5265" lon="5.56772">
        <ele>383</ele>
        <time>2022-02-15T07:57:07.000Z</time>
      </trkpt>
      <trkpt lat="43.52651" lon="5.56772">
        <ele>383</ele>
        <time>2022-02-15T07:57:08.000Z</time>
      </trkpt>
      <trkpt lat="43.52652" lon="5.56772">
        <ele>383</ele>
        <time>2022-02-15T07:57:09.000Z</time>
      </trkpt>
      <trkpt lat="43.52652" lon="5.56772">
        <ele>383</ele>
        <time>2022-02-15T07:57:10.000Z</time>
      </trkpt>
      <trkpt lat="43.52652" lon="5.56773">
        <ele>383</ele>
        <time>2022-02-15T07:57:11.000Z</time>
      </trkpt>
      <trkpt lat="43.52652" lon="5.56774">
        <ele>383</ele>
        <time>2022-02-15T07:57:12.000Z</time>
      </trkpt>
      <trkpt lat="43.52653" lon="5.56774">
        <ele>383</ele>
        <time>2022-02-15T07:57:13.000Z</time>
      </trkpt>
      <trkpt lat="43.52653" lon="5.56775">
        <ele>383</ele>
        <time>2022-02-15T07:57:14.000Z</time>
      </trkpt>
      <trkpt lat="43.52653" lon="5.56776">
        <ele>383</ele>
        <time>2022-02-15T07:57:15.000Z</time>
      </trkpt>
      <trkpt lat="43.52653" lon="5.56777">
        <ele>383</ele>
        <time>2022-02-15T07:57:16.000Z</time>
      </trkpt>
      <trkpt lat="43.52654" lon="5.56778">
        <ele>383</ele>
        <time>2022-02-15T07:57:17.000Z</time>
      </trkpt>
      <trkpt lat="43.52654" lon="5.56778">
        <ele>384</ele>
        <time>2022-02-15T07:57:18.000Z</time>
      </trkpt>
      <trkpt lat="43.52654" lon="5.56779">
        <ele>384</ele>
        <time>2022-02-15T07:57:19.000Z</time>
      </trkpt>
      <trkpt lat="43.52654" lon="5.5678">
        <ele>384</ele>
        <time>2022-02-15T07:57:20.000Z</time>
      </trkpt>
      <trkpt lat="43.52654" lon="5.56781">
        <ele>384</ele>
        <time>2022-02-15T07:57:21.000Z</time>
      </trkpt>
      <trkpt lat="43.52654" lon="5.56781">
        <ele>384</ele>
        <time>2022-02-15T07:57:22.000Z</time>
      </trkpt>
      <trkpt lat="43.52654" lon="5.56782">
        <ele>384</ele>
        <time>2022-02-15T07:57:23.000Z</time>
      </trkpt>
      <trkpt lat="43.52655" lon="5.56782">
        <ele>384</ele>
        <time>2022-02-15T07:57:24.000Z</time>
      </trkpt>
      <trkpt lat="43.52655" lon="5.56783">
        <ele>385</ele>
        <time>2022-02-15T07:57:25.000Z</time>
      </trkpt>
      <trkpt lat="43.52655" lon="5.56784">
        <ele>385</ele>
        <time>2022-02-15T07:57:26.000Z</time>
      </trkpt>
      <trkpt lat="43.52656" lon="5.56785">
        <ele>385</ele>
        <time>2022-02-15T07:57:27.000Z</time>
      </trkpt>
      <trkpt lat="43.52656" lon="5.56785">
        <ele>385</ele>
        <time>2022-02-15T07:57:28.000Z</time>
      </trkpt>
      <trkpt lat="43.52656" lon="5.56786">
        <ele>385</ele>
        <time>2022-02-15T07:57:29.000Z</time>
      </trkpt>
      <trkpt lat="43.52656" lon="5.56787">
        <ele>385</ele>
        <time>2022-02-15T07:57:30.000Z</time>
      </trkpt>
      <trkpt lat="43.52656" lon="5.56788">
        <ele>385</ele>
        <time>2022-02-15T07:57:31.000Z</time>
      </trkpt>
      <trkpt lat="43.52656" lon="5.56788">
        <ele>386</ele>
        <time>2022-02-15T07:57:32.000Z</time>
      </trkpt>
      <trkpt lat="43.52657" lon="5.56789">
        <ele>386</ele>
        <time>2022-02-15T07:57:33.000Z</time>
      </trkpt>
      <trkpt lat="43.52657" lon="5.5679">
        <ele>386</ele>
        <time>2022-02-15T07:57:34.000Z</time>
      </trkpt>
      <trkpt lat="43.52657" lon="5.56791">
        <ele>386</ele>
        <time>2022-02-15T07:57:35.000Z</time>
      </trkpt>
      <trkpt lat="43.52657" lon="5.56792">
        <ele>386</ele>
        <time>2022-02-15T07:57:36.000Z</time>
      </trkpt>
      <trkpt lat="43.52657" lon="5.56792">
        <ele>386</ele>
        <time>2022-02-15T07:57:37.000Z</time>
      </trkpt>
      <trkpt lat="43.52658" lon="5.56793">
        <ele>387</ele>
        <time>2022-02-15T07:57:38.000Z</time>
      </trkpt>
      <trkpt lat="43.52658" lon="5.56794">
        <ele>387</ele>
        <time>2022-02-15T07:57:39.000Z</time>
      </trkpt>
      <trkpt lat="43.52658" lon="5.56795">
        <ele>387</ele>
        <time>2022-02-15T07:57:40.000Z</time>
      </trkpt>
      <trkpt lat="43.52659" lon="5.56796">
        <ele>387</ele>
        <time>2022-02-15T07:57:41.000Z</time>
      </trkpt>
      <trkpt lat="43.52659" lon="5.56797">
        <ele>387</ele>
        <time>2022-02-15T07:57:42.000Z</time>
      </trkpt>
      <trkpt lat="43.52659" lon="5.56798">
        <ele>387</ele>
        <time>2022-02-15T07:57:43.000Z</time>
      </trkpt>
      <trkpt lat="43.52659" lon="5.56799">
        <ele>388</ele>
        <time>2022-02-15T07:57:44.000Z</time>
      </trkpt>
      <trkpt lat="43.52659" lon="5.56799">
        <ele>388</ele>
        <time>2022-02-15T07:57:45.000Z</time>
      </trkpt>
      <trkpt lat="43.52658" lon="5.568">
        <ele>388</ele>
        <time>2022-02-15T07:57:46.000Z</time>
      </trkpt>
      <trkpt lat="43.52658" lon="5.568">
        <ele>388</ele>
        <time>2022-02-15T07:57:47.000Z</time>
      </trkpt>
      <trkpt lat="43.52658" lon="5.56801">
        <ele>388</ele>
        <time>2022-02-15T07:57:48.000Z</time>
      </trkpt>
      <trkpt lat="43.52658" lon="5.56802">
        <ele>388</ele>
        <time>2022-02-15T07:57:49.000Z</time>
      </trkpt>
      <trkpt lat="43.52657" lon="5.56803">
        <ele>389</ele>
        <time>2022-02-15T07:57:50.000Z</time>
      </trkpt>
      <trkpt lat="43.52657" lon="5.56804">
        <ele>389</ele>
        <time>2022-02-15T07:57:51.000Z</time>
      </trkpt>
      <trkpt lat="43.52656" lon="5.56804">
        <ele>389</ele>
        <time>2022-02-15T07:57:52.000Z</time>
      </trkpt>
      <trkpt lat="43.52656" lon="5.56805">
        <ele>389</ele>
        <time>2022-02-15T07:57:53.000Z</time>
      </trkpt>
      <trkpt lat="43.52656" lon="5.56805">
        <ele>389</ele>
        <time>2022-02-15T07:57:54.000Z</time>
      </trkpt>
      <trkpt lat="43.52656" lon="5.56806">
        <ele>389</ele>
        <time>2022-02-15T07:57:55.000Z</time>
      </trkpt>
      <trkpt lat="43.52655" lon="5.56806">
        <ele>390</ele>
        <time>2022-02-15T07:57:56.000Z</time>
      </trkpt>
      <trkpt lat="43.52655" lon="5.56807">
        <ele>390</ele>
        <time>2022-02-15T07:57:57.000Z</time>
      </trkpt>
      <trkpt lat="43.52654" lon="5.56807">
        <ele>390</ele>
        <time>2022-02-15T07:57:58.000Z</time>
      </trkpt>
      <trkpt lat="43.52654" lon="5.56808">
        <ele>390</ele>
        <time>2022-02-15T07:57:59.000Z</time>
      </trkpt>
      <trkpt lat="43.52654" lon="5.56809">
        <ele>390</ele>
        <time>2022-02-15T07:58:00.000Z</time>
      </trkpt>
      <trkpt lat="43.52653" lon="5.5681">
        <ele>390</ele>
        <time>2022-02-15T07:58:01.000Z</time>
      </trkpt>
      <trkpt lat="43.52653" lon="5.56811">
        <ele>391</ele>
        <time>2022-02-15T07:58:02.000Z</time>
      </trkpt>
      <trkpt lat="43.52652" lon="5.56812">
        <ele>391</ele>
        <time>2022-02-15T07:58:03.000Z</time>
      </trkpt>
      <trkpt lat="43.52652" lon="5.56812">
        <ele>391</ele>
        <time>2022-02-15T07:58:04.000Z</time>
      </trkpt>
      <trkpt lat="43.52652" lon="5.56813">
        <ele>391</ele>
        <time>2022-02-15T07:58:05.000Z</time>
      </trkpt>
      <trkpt lat="43.52652" lon="5.56814">
        <ele>391</ele>
        <time>2022-02-15T07:58:06.000Z</time>
      </trkpt>
      <trkpt lat="43.52651" lon="5.56815">
        <ele>391</ele>
        <time>2022-02-15T07:58:07.000Z</time>
      </trkpt>
      <trkpt lat="43.52651" lon="5.56816">
        <ele>391</ele>
        <time>2022-02-15T07:58:08.000Z</time>
      </trkpt>
      <trkpt lat="43.52651" lon="5.56817">
        <ele>391</ele>
        <time>2022-02-15T07:58:09.000Z</time>
      </trkpt>
      <trkpt lat="43.52651" lon="5.56818">
        <ele>392</ele>
        <time>2022-02-15T07:58:10.000Z</time>
      </trkpt>
      <trkpt lat="43.5265" lon="5.56819">
        <ele>392</ele>
        <time>2022-02-15T07:58:11.000Z</time>
      </trkpt>
      <trkpt lat="43.5265" lon="5.5682">
        <ele>392</ele>
        <time>2022-02-15T07:58:12.000Z</time>
      </trkpt>
      <trkpt lat="43.5265" lon="5.56821">
        <ele>392</ele>
        <time>2022-02-15T07:58:13.000Z</time>
      </trkpt>
      <trkpt lat="43.5265" lon="5.56822">
        <ele>392</ele>
        <time>2022-02-15T07:58:14.000Z</time>
      </trkpt>
      <trkpt lat="43.5265" lon="5.56823">
        <ele>392</ele>
        <time>2022-02-15T07:58:15.000Z</time>
      </trkpt>
      <trkpt lat="43.5265" lon="5.56825">
        <ele>392</ele>
        <time>2022-02-15T07:58:16.000Z</time>
      </trkpt>
      <trkpt lat="43.5265" lon="5.56826">
        <ele>392</ele>
        <time>2022-02-15T07:58:17.000Z</time>
      </trkpt>
      <trkpt lat="43.5265" lon="5.56827">
        <ele>393</ele>
        <time>2022-02-15T07:58:18.000Z</time>
      </trkpt>
      <trkpt lat="43.5265" lon="5.56828">
        <ele>393</ele>
        <time>2022-02-15T07:58:19.000Z</time>
      </trkpt>
      <trkpt lat="43.5265" lon="5.56829">
        <ele>393</ele>
        <time>2022-02-15T07:58:20.000Z</time>
      </trkpt>
      <trkpt lat="43.52651" lon="5.5683">
        <ele>393</ele>
        <time>2022-02-15T07:58:21.000Z</time>
      </trkpt>
      <trkpt lat="43.52651" lon="5.56831">
        <ele>393</ele>
        <time>2022-02-15T07:58:22.000Z</time>
      </trkpt>
      <trkpt lat="43.52652" lon="5.56831">
        <ele>393</ele>
        <time>2022-02-15T07:58:23.000Z</time>
      </trkpt>
      <trkpt lat="43.52652" lon="5.56832">
        <ele>393</ele>
        <time>2022-02-15T07:58:24.000Z</time>
      </trkpt>
      <trkpt lat="43.52653" lon="5.56832">
        <ele>393</ele>
        <time>2022-02-15T07:58:25.000Z</time>
      </trkpt>
      <trkpt lat="43.52654" lon="5.56833">
        <ele>393</ele>
        <time>2022-02-15T07:58:26.000Z</time>
      </trkpt>
      <trkpt lat="43.52655" lon="5.56833">
        <ele>394</ele>
        <time>2022-02-15T07:58:27.000Z</time>
      </trkpt>
      <trkpt lat="43.52655" lon="5.56833">
        <ele>394</ele>
        <time>2022-02-15T07:58:28.000Z</time>
      </trkpt>
      <trkpt lat="43.52656" lon="5.56834">
        <ele>394</ele>
        <time>2022-02-15T07:58:29.000Z</time>
      </trkpt>
      <trkpt lat="43.52656" lon="5.56835">
        <ele>394</ele>
        <time>2022-02-15T07:58:30.000Z</time>
      </trkpt>
      <trkpt lat="43.52657" lon="5.56836">
        <ele>394</ele>
        <time>2022-02-15T07:58:31.000Z</time>
      </trkpt>
      <trkpt lat="43.52657" lon="5.56837">
        <ele>394</ele>
        <time>2022-02-15T07:58:32.000Z</time>
      </trkpt>
      <trkpt lat="43.52658" lon="5.56837">
        <ele>394</ele>
        <time>2022-02-15T07:58:33.000Z</time>
      </trkpt>
      <trkpt lat="43.52658" lon="5.56838">
        <ele>394</ele>
        <time>2022-02-15T07:58:34.000Z</time>
      </trkpt>
      <trkpt lat="43.52659" lon="5.56838">
        <ele>394</ele>
        <time>2022-02-15T07:58:35.000Z</time>
      </trkpt>
      <trkpt lat="43.5266" lon="5.56839">
        <ele>395</ele>
        <time>2022-02-15T07:58:36.000Z</time>
      </trkpt>
      <trkpt lat="43.5266" lon="5.5684">
        <ele>395</ele>
        <time>2022-02-15T07:58:37.000Z</time>
      </trkpt>
      <trkpt lat="43.52661" lon="5.56841">
        <ele>395</ele>
        <time>2022-02-15T07:58:38.000Z</time>
      </trkpt>
      <trkpt lat="43.52661" lon="5.56841">
        <ele>395</ele>
        <time>2022-02-15T07:58:39.000Z</time>
      </trkpt>
      <trkpt lat="43.52662" lon="5.56841">
        <ele>395</ele>
        <time>2022-02-15T07:58:40.000Z</time>
      </trkpt>
      <trkpt lat="43.52663" lon="5.56842">
        <ele>395</ele>
        <time>2022-02-15T07:58:41.000Z</time>
      </trkpt>
      <trkpt lat="43.52663" lon="5.56842">
        <ele>395</ele>
        <time>2022-02-15T07:58:42.000Z</time>
      </trkpt>
      <trkpt lat="43.52664" lon="5.56842">
        <ele>395</ele>
        <time>2022-02-15T07:58:43.000Z</time>
      </trkpt>
      <trkpt lat="43.52665" lon="5.56842">
        <ele>395</ele>
        <time>2022-02-15T07:58:44.000Z</time>
      </trkpt>
      <trkpt lat="43.52666" lon="5.56843">
        <ele>395</ele>
        <time>2022-02-15T07:58:45.000Z</time>
      </trkpt>
      <trkpt lat="43.52666" lon="5.56843">
        <ele>396</ele>
        <time>2022-02-15T07:58:46.000Z</time>
      </trkpt>
      <trkpt lat="43.52667" lon="5.56843">
        <ele>396</ele>
        <time>2022-02-15T07:58:47.000Z</time>
      </trkpt>
      <trkpt lat="43.52668" lon="5.56843">
        <ele>396</ele>
        <time>2022-02-15T07:58:48.000Z</time>
      </trkpt>
      <trkpt lat="43.52669" lon="5.56844">
        <ele>396</ele>
        <time>2022-02-15T07:58:49.000Z</time>
      </trkpt>
      <trkpt lat="43.52669" lon="5.56844">
        <ele>396</ele>
        <time>2022-02-15T07:58:50.000Z</time>
      </trkpt>
      <trkpt lat="43.5267" lon="5.56844">
        <ele>396</ele>
        <time>2022-02-15T07:58:51.000Z</time>
      </trkpt>
      <trkpt lat="43.52671" lon="5.56844">
        <ele>396</ele>
        <time>2022-02-15T07:58:52.000Z</time>
      </trkpt>
      <trkpt lat="43.52672" lon="5.56844">
        <ele>396</ele>
        <time>2022-02-15T07:58:53.000Z</time>
      </trkpt>
      <trkpt lat="43.52672" lon="5.56844">
        <ele>397</ele>
        <time>2022-02-15T07:58:54.000Z</time>
      </trkpt>
      <trkpt lat="43.52673" lon="5.56845">
        <ele>397</ele>
        <time>2022-02-15T07:58:55.000Z</time>
      </trkpt>
      <trkpt lat="43.52674" lon="5.56845">
        <ele>397</ele>
        <time>2022-02-15T07:58:56.000Z</time>
      </trkpt>
      <trkpt lat="43.52675" lon="5.56845">
        <ele>397</ele>
        <time>2022-02-15T07:58:57.000Z</time>
      </trkpt>
      <trkpt lat="43.52675" lon="5.56845">
        <ele>397</ele>
        <time>2022-02-15T07:58:58.000Z</time>
      </trkpt>
      <trkpt lat="43.52676" lon="5.56845">
        <ele>397</ele>
        <time>2022-02-15T07:58:59.000Z</time>
      </trkpt>
      <trkpt lat="43.52677" lon="5.56845">
        <ele>397</ele>
        <time>2022-02-15T07:59:00.000Z</time>
      </trkpt>
      <trkpt lat="43.52678" lon="5.56845">
        <ele>397</ele>
        <time>2022-02-15T07:59:01.000Z</time>
      </trkpt>
      <trkpt lat="43.52678" lon="5.56846">
        <ele>397</ele>
        <time>2022-02-15T07:59:02.000Z</time>
      </trkpt>
      <trkpt lat="43.52679" lon="5.56846">
        <ele>397</ele>
        <time>2022-02-15T07:59:03.000Z</time>
      </trkpt>
      <trkpt lat="43.52679" lon="5.56846">
        <ele>398</ele>
        <time>2022-02-15T07:59:04.000Z</time>
      </trkpt>
      <trkpt lat="43.5268" lon="5.56846">
        <ele>398</ele>
        <time>2022-02-15T07:59:05.000Z</time>
      </trkpt>
      <trkpt lat="43.52681" lon="5.56846">
        <ele>398</ele>
        <time>2022-02-15T07:59:06.000Z</time>
      </trkpt>
      <trkpt lat="43.52682" lon="5.56847">
        <ele>398</ele>
        <time>2022-02-15T07:59:07.000Z</time>
      </trkpt>
      <trkpt lat="43.52682" lon="5.56847">
        <ele>398</ele>
        <time>2022-02-15T07:59:08.000Z</time>
      </trkpt>
      <trkpt lat="43.52683" lon="5.56847">
        <ele>398</ele>
        <time>2022-02-15T07:59:09.000Z</time>
      </trkpt>
      <trkpt lat="43.52683" lon="5.56848">
        <ele>398</ele>
        <time>2022-02-15T07:59:10.000Z</time>
      </trkpt>
      <trkpt lat="43.52684" lon="5.56849">
        <ele>398</ele>
        <time>2022-02-15T07:59:11.000Z</time>
      </trkpt>
      <trkpt lat="43.52684" lon="5.56849">
        <ele>398</ele>
        <time>2022-02-15T07:59:12.000Z</time>
      </trkpt>
      <trkpt lat="43.52684" lon="5.5685">
        <ele>398</ele>
        <time>2022-02-15T07:59:13.000Z</time>
      </trkpt>
      <trkpt lat="43.52685" lon="5.5685">
        <ele>398</ele>
        <time>2022-02-15T07:59:14.000Z</time>
      </trkpt>
      <trkpt lat="43.52686" lon="5.56851">
        <ele>398</ele>
        <time>2022-02-15T07:59:15.000Z</time>
      </trkpt>
      <trkpt lat="43.52687" lon="5.56851">
        <ele>398</ele>
        <time>2022-02-15T07:59:16.000Z</time>
      </trkpt>
      <trkpt lat="43.52687" lon="5.56852">
        <ele>398</ele>
        <time>2022-02-15T07:59:17.000Z</time>
      </trkpt>
      <trkpt lat="43.52688" lon="5.56853">
        <ele>398</ele>
        <time>2022-02-15T07:59:18.000Z</time>
      </trkpt>
      <trkpt lat="43.52688" lon="5.56853">
        <ele>398</ele>
        <time>2022-02-15T07:59:19.000Z</time>
      </trkpt>
      <trkpt lat="43.52689" lon="5.56854">
        <ele>398</ele>
        <time>2022-02-15T07:59:20.000Z</time>
      </trkpt>
      <trkpt lat="43.5269" lon="5.56854">
        <ele>398</ele>
        <time>2022-02-15T07:59:21.000Z</time>
      </trkpt>
      <trkpt lat="43.5269" lon="5.56855">
        <ele>398</ele>
        <time>2022-02-15T07:59:22.000Z</time>
      </trkpt>
      <trkpt lat="43.52691" lon="5.56856">
        <ele>398</ele>
        <time>2022-02-15T07:59:23.000Z</time>
      </trkpt>
      <trkpt lat="43.52691" lon="5.56857">
        <ele>399</ele>
        <time>2022-02-15T07:59:24.000Z</time>
      </trkpt>
      <trkpt lat="43.52692" lon="5.56857">
        <ele>399</ele>
        <time>2022-02-15T07:59:25.000Z</time>
      </trkpt>
      <trkpt lat="43.52692" lon="5.56858">
        <ele>399</ele>
        <time>2022-02-15T07:59:26.000Z</time>
      </trkpt>
      <trkpt lat="43.52693" lon="5.56859">
        <ele>399</ele>
        <time>2022-02-15T07:59:27.000Z</time>
      </trkpt>
      <trkpt lat="43.52693" lon="5.5686">
        <ele>399</ele>
        <time>2022-02-15T07:59:28.000Z</time>
      </trkpt>
      <trkpt lat="43.52694" lon="5.5686">
        <ele>399</ele>
        <time>2022-02-15T07:59:29.000Z</time>
      </trkpt>
      <trkpt lat="43.52694" lon="5.56861">
        <ele>399</ele>
        <time>2022-02-15T07:59:30.000Z</time>
      </trkpt>
      <trkpt lat="43.52695" lon="5.56861">
        <ele>399</ele>
        <time>2022-02-15T07:59:31.000Z</time>
      </trkpt>
      <trkpt lat="43.52696" lon="5.56862">
        <ele>399</ele>
        <time>2022-02-15T07:59:32.000Z</time>
      </trkpt>
      <trkpt lat="43.52696" lon="5.56862">
        <ele>399</ele>
        <time>2022-02-15T07:59:33.000Z</time>
      </trkpt>
      <trkpt lat="43.52696" lon="5.56862">
        <ele>399</ele>
        <time>2022-02-15T07:59:34.000Z</time>
      </trkpt>
      <trkpt lat="43.52696" lon="5.56863">
        <ele>399</ele>
        <time>2022-02-15T07:59:35.000Z</time>
      </trkpt>
      <trkpt lat="43.52696" lon="5.56863">
        <ele>400</ele>
        <time>2022-02-15T07:59:36.000Z</time>
      </trkpt>
      <trkpt lat="43.52696" lon="5.56863">
        <ele>400</ele>
        <time>2022-02-15T07:59:37.000Z</time>
      </trkpt>
      <trkpt lat="43.52697" lon="5.56863">
        <ele>400</ele>
        <time>2022-02-15T07:59:38.000Z</time>
      </trkpt>
      <trkpt lat="43.52697" lon="5.56863">
        <ele>400</ele>
        <time>2022-02-15T07:59:39.000Z</time>
      </trkpt>
      <trkpt lat="43.52697" lon="5.56863">
        <ele>400</ele>
        <time>2022-02-15T07:59:40.000Z</time>
      </trkpt>
      <trkpt lat="43.52697" lon="5.56863">
        <ele>400</ele>
        <time>2022-02-15T07:59:41.000Z</time>
      </trkpt>
      <trkpt lat="43.52697" lon="5.56863">
        <ele>401</ele>
        <time>2022-02-15T07:59:42.000Z</time>
      </trkpt>
      <trkpt lat="43.52697" lon="5.56863">
        <ele>401</ele>
        <time>2022-02-15T07:59:43.000Z</time>
      </trkpt>
      <trkpt lat="43.52697" lon="5.56863">
        <ele>401</ele>
        <time>2022-02-15T07:59:44.000Z</time>
      </trkpt>
      <trkpt lat="43.52697" lon="5.56863">
        <ele>401</ele>
        <time>2022-02-15T07:59:45.000Z</time>
      </trkpt>
      <trkpt lat="43.52697" lon="5.56863">
        <ele>401</ele>
        <time>2022-02-15T07:59:46.000Z</time>
      </trkpt>
      <trkpt lat="43.52697" lon="5.56863">
        <ele>401</ele>
        <time>2022-02-15T07:59:47.000Z</time>
      </trkpt>
      <trkpt lat="43.52697" lon="5.56863">
        <ele>401</ele>
        <time>2022-02-15T07:59:48.000Z</time>
      </trkpt>
      <trkpt lat="43.52697" lon="5.56863">
        <ele>401</ele>
        <time>2022-02-15T07:59:49.000Z</time>
      </trkpt>
      <trkpt lat="43.52698" lon="5.56863">
        <ele>401</ele>
        <time>2022-02-15T07:59:50.000Z</time>
      </trkpt>
      <trkpt lat="43.52698" lon="5.56864">
        <ele>401</ele>
        <time>2022-02-15T07:59:51.000Z</time>
      </trkpt>
      <trkpt lat="43.52699" lon="5.56865">
        <ele>401</ele>
        <time>2022-02-15T07:59:52.000Z</time>
      </trkpt>
      <trkpt lat="43.52699" lon="5.56865">
        <ele>402</ele>
        <time>2022-02-15T07:59:53.000Z</time>
      </trkpt>
      <trkpt lat="43.527" lon="5.56866">
        <ele>402</ele>
        <time>2022-02-15T07:59:54.000Z</time>
      </trkpt>
      <trkpt lat="43.527" lon="5.56867">
        <ele>402</ele>
        <time>2022-02-15T07:59:55.000Z</time>
      </trkpt>
      <trkpt lat="43.52701" lon="5.56867">
        <ele>402</ele>
        <time>2022-02-15T07:59:56.000Z</time>
      </trkpt>
      <trkpt lat="43.52701" lon="5.56868">
        <ele>402</ele>
        <time>2022-02-15T07:59:57.000Z</time>
      </trkpt>
      <trkpt lat="43.52702" lon="5.56868">
        <ele>402</ele>
        <time>2022-02-15T07:59:58.000Z</time>
      </trkpt>
      <trkpt lat="43.52702" lon="5.56868">
        <ele>402</ele>
        <time>2022-02-15T07:59:59.000Z</time>
      </trkpt>
      <trkpt lat="43.52702" lon="5.56868">
        <ele>403</ele>
        <time>2022-02-15T08:00:00.000Z</time>
      </trkpt>
      <trkpt lat="43.52702" lon="5.56868">
        <ele>403</ele>
        <time>2022-02-15T08:00:01.000Z</time>
      </trkpt>
      <trkpt lat="43.52702" lon="5.56868">
        <ele>403</ele>
        <time>2022-02-15T08:00:02.000Z</time>
      </trkpt>
      <trkpt lat="43.52702" lon="5.56868">
        <ele>403</ele>
        <time>2022-02-15T08:00:03.000Z</time>
      </trkpt>
      <trkpt lat="43.52703" lon="5.56868">
        <ele>403</ele>
        <time>2022-02-15T08:00:04.000Z</time>
      </trkpt>
      <trkpt lat="43.52703" lon="5.56868">
        <ele>403</ele>
        <time>2022-02-15T08:00:05.000Z</time>
      </trkpt>
      <trkpt lat="43.52703" lon="5.56868">
        <ele>403</ele>
        <time>2022-02-15T08:00:06.000Z</time>
      </trkpt>
      <trkpt lat="43.52703" lon="5.56869">
        <ele>403</ele>
        <time>2022-02-15T08:00:07.000Z</time>
      </trkpt>
      <trkpt lat="43.52703" lon="5.56869">
        <ele>403</ele>
        <time>2022-02-15T08:00:08.000Z</time>
      </trkpt>
      <trkpt lat="43.52703" lon="5.56868">
        <ele>404</ele>
        <time>2022-02-15T08:00:09.000Z</time>
      </trkpt>
      <trkpt lat="43.52703" lon="5.56869">
        <ele>404</ele>
        <time>2022-02-15T08:00:10.000Z</time>
      </trkpt>
      <trkpt lat="43.52703" lon="5.56869">
        <ele>404</ele>
        <time>2022-02-15T08:00:11.000Z</time>
      </trkpt>
      <trkpt lat="43.52703" lon="5.56869">
        <ele>404</ele>
        <time>2022-02-15T08:00:12.000Z</time>
      </trkpt>
      <trkpt lat="43.52703" lon="5.56869">
        <ele>404</ele>
        <time>2022-02-15T08:00:13.000Z</time>
      </trkpt>
      <trkpt lat="43.52703" lon="5.56869">
        <ele>404</ele>
        <time>2022-02-15T08:00:14.000Z</time>
      </trkpt>
      <trkpt lat="43.52703" lon="5.56869">
        <ele>404</ele>
        <time>2022-02-15T08:00:15.000Z</time>
      </trkpt>
      <trkpt lat="43.52703" lon="5.56869">
        <ele>404</ele>
        <time>2022-02-15T08:00:16.000Z</time>
      </trkpt>
      <trkpt lat="43.52703" lon="5.56869">
        <ele>404</ele>
        <time>2022-02-15T08:00:17.000Z</time>
      </trkpt>
      <trkpt lat="43.52703" lon="5.56869">
        <ele>404</ele>
        <time>2022-02-15T08:00:18.000Z</time>
      </trkpt>
      <trkpt lat="43.52703" lon="5.56869">
        <ele>404</ele>
        <time>2022-02-15T08:00:19.000Z</time>
      </trkpt>
      <trkpt lat="43.52703" lon="5.56869">
        <ele>404</ele>
        <time>2022-02-15T08:00:20.000Z</time>
      </trkpt>
      <trkpt lat="43.52703" lon="5.56869">
        <ele>404</ele>
        <time>2022-02-15T08:00:21.000Z</time>
      </trkpt>
      <trkpt lat="43.52703" lon="5.56869">
        <ele>404</ele>
        <time>2022-02-15T08:00:22.000Z</time>
      </trkpt>
      <trkpt lat="43.52703" lon="5.56869">
        <ele>404</ele>
        <time>2022-02-15T08:00:23.000Z</time>
      </trkpt>
      <trkpt lat="43.52703" lon="5.56869">
        <ele>404</ele>
        <time>2022-02-15T08:00:24.000Z</time>
      </trkpt>
      <trkpt lat="43.52703" lon="5.56869">
        <ele>404</ele>
        <time>2022-02-15T08:00:25.000Z</time>
      </trkpt>
      <trkpt lat="43.52703" lon="5.56869">
        <ele>404</ele>
        <time>2022-02-15T08:00:26.000Z</time>
      </trkpt>
      <trkpt lat="43.52703" lon="5.56869">
        <ele>405</ele>
        <time>2022-02-15T08:00:27.000Z</time>
      </trkpt>
      <trkpt lat="43.52703" lon="5.56869">
        <ele>405</ele>
        <time>2022-02-15T08:00:28.000Z</time>
      </trkpt>
      <trkpt lat="43.52703" lon="5.56869">
        <ele>405</ele>
        <time>2022-02-15T08:00:29.000Z</time>
      </trkpt>
      <trkpt lat="43.52704" lon="5.56869">
        <ele>405</ele>
        <time>2022-02-15T08:00:30.000Z</time>
      </trkpt>
      <trkpt lat="43.52704" lon="5.56869">
        <ele>405</ele>
        <time>2022-02-15T08:00:31.000Z</time>
      </trkpt>
      <trkpt lat="43.52704" lon="5.56869">
        <ele>405</ele>
        <time>2022-02-15T08:00:32.000Z</time>
      </trkpt>
      <trkpt lat="43.52704" lon="5.56869">
        <ele>405</ele>
        <time>2022-02-15T08:00:33.000Z</time>
      </trkpt>
      <trkpt lat="43.52704" lon="5.56869">
        <ele>405</ele>
        <time>2022-02-15T08:00:34.000Z</time>
      </trkpt>
      <trkpt lat="43.52704" lon="5.56869">
        <ele>405</ele>
        <time>2022-02-15T08:00:35.000Z</time>
      </trkpt>
      <trkpt lat="43.52704" lon="5.56869">
        <ele>405</ele>
        <time>2022-02-15T08:00:36.000Z</time>
      </trkpt>
      <trkpt lat="43.52704" lon="5.56869">
        <ele>405</ele>
        <time>2022-02-15T08:00:37.000Z</time>
      </trkpt>
      <trkpt lat="43.52704" lon="5.56869">
        <ele>405</ele>
        <time>2022-02-15T08:00:38.000Z</time>
      </trkpt>
      <trkpt lat="43.52704" lon="5.56869">
        <ele>405</ele>
        <time>2022-02-15T08:00:39.000Z</time>
      </trkpt>
      <trkpt lat="43.52704" lon="5.56869">
        <ele>405</ele>
        <time>2022-02-15T08:00:40.000Z</time>
      </trkpt>
      <trkpt lat="43.52704" lon="5.56869">
        <ele>405</ele>
        <time>2022-02-15T08:00:41.000Z</time>
      </trkpt>
      <trkpt lat="43.52704" lon="5.56869">
        <ele>405</ele>
        <time>2022-02-15T08:00:42.000Z</time>
      </trkpt>
      <trkpt lat="43.52704" lon="5.56869">
        <ele>405</ele>
        <time>2022-02-15T08:00:43.000Z</time>
      </trkpt>
      <trkpt lat="43.52704" lon="5.56869">
        <ele>405</ele>
        <time>2022-02-15T08:00:44.000Z</time>
      </trkpt>
      <trkpt lat="43.52704" lon="5.56869">
        <ele>405</ele>
        <time>2022-02-15T08:00:45.000Z</time>
      </trkpt>
      <trkpt lat="43.52704" lon="5.56869">
        <ele>405</ele>
        <time>2022-02-15T08:00:46.000Z</time>
      </trkpt>
      <trkpt lat="43.52704" lon="5.56869">
        <ele>405</ele>
        <time>2022-02-15T08:00:47.000Z</time>
      </trkpt>
      <trkpt lat="43.52704" lon="5.56869">
        <ele>406</ele>
        <time>2022-02-15T08:00:48.000Z</time>
      </trkpt>
      <trkpt lat="43.52704" lon="5.56869">
        <ele>406</ele>
        <time>2022-02-15T08:00:49.000Z</time>
      </trkpt>
      <trkpt lat="43.52704" lon="5.56869">
        <ele>406</ele>
        <time>2022-02-15T08:00:50.000Z</time>
      </trkpt>
      <trkpt lat="43.52704" lon="5.56869">
        <ele>406</ele>
        <time>2022-02-15T08:00:51.000Z</time>
      </trkpt>
      <trkpt lat="43.52704" lon="5.56869">
        <ele>406</ele>
        <time>2022-02-15T08:00:52.000Z</time>
      </trkpt>
      <trkpt lat="43.52704" lon="5.56869">
        <ele>406</ele>
        <time>2022-02-15T08:00:53.000Z</time>
      </trkpt>
      <trkpt lat="43.52704" lon="5.56869">
        <ele>406</ele>
        <time>2022-02-15T08:00:54.000Z</time>
      </trkpt>
      <trkpt lat="43.52704" lon="5.56869">
        <ele>406</ele>
        <time>2022-02-15T08:00:55.000Z</time>
      </trkpt>
      <trkpt lat="43.52704" lon="5.56869">
        <ele>406</ele>
        <time>2022-02-15T08:00:56.000Z</time>
      </trkpt>
      <trkpt lat="43.52704" lon="5.56869">
        <ele>406</ele>
        <time>2022-02-15T08:00:57.000Z</time>
      </trkpt>
      <trkpt lat="43.52704" lon="5.56869">
        <ele>406</ele>
        <time>2022-02-15T08:00:58.000Z</time>
      </trkpt>
      <trkpt lat="43.52704" lon="5.56869">
        <ele>406</ele>
        <time>2022-02-15T08:00:59.000Z</time>
      </trkpt>
      <trkpt lat="43.52704" lon="5.56869">
        <ele>406</ele>
        <time>2022-02-15T08:01:00.000Z</time>
      </trkpt>
      <trkpt lat="43.52704" lon="5.56869">
        <ele>406</ele>
        <time>2022-02-15T08:01:01.000Z</time>
      </trkpt>
      <trkpt lat="43.52704" lon="5.56869">
        <ele>406</ele>
        <time>2022-02-15T08:01:02.000Z</time>
      </trkpt>
      <trkpt lat="43.52704" lon="5.56869">
        <ele>406</ele>
        <time>2022-02-15T08:01:03.000Z</time>
      </trkpt>
      <trkpt lat="43.52704" lon="5.56869">
        <ele>406</ele>
        <time>2022-02-15T08:01:04.000Z</time>
      </trkpt>
      <trkpt lat="43.52704" lon="5.56869">
        <ele>406</ele>
        <time>2022-02-15T08:01:05.000Z</time>
      </trkpt>
      <trkpt lat="43.52704" lon="5.56869">
        <ele>406</ele>
        <time>2022-02-15T08:01:06.000Z</time>
      </trkpt>
      <trkpt lat="43.52704" lon="5.56869">
        <ele>406</ele>
        <time>2022-02-15T08:01:07.000Z</time>
      </trkpt>
      <trkpt lat="43.52704" lon="5.56869">
        <ele>406</ele>
        <time>2022-02-15T08:01:08.000Z</time>
      </trkpt>
      <trkpt lat="43.52704" lon="5.56869">
        <ele>406</ele>
        <time>2022-02-15T08:01:09.000Z</time>
      </trkpt>
      <trkpt lat="43.52704" lon="5.56869">
        <ele>406</ele>
        <time>2022-02-15T08:01:10.000Z</time>
      </trkpt>
      <trkpt lat="43.52704" lon="5.56869">
        <ele>406</ele>
        <time>2022-02-15T08:01:11.000Z</time>
      </trkpt>
      <trkpt lat="43.52704" lon="5.56869">
        <ele>406</ele>
        <time>2022-02-15T08:01:12.000Z</time>
      </trkpt>
      <trkpt lat="43.52704" lon="5.56869">
        <ele>406</ele>
        <time>2022-02-15T08:01:13.000Z</time>
      </trkpt>
      <trkpt lat="43.52704" lon="5.56869">
        <ele>406</ele>
        <time>2022-02-15T08:01:14.000Z</time>
      </trkpt>
      <trkpt lat="43.52704" lon="5.56869">
        <ele>406</ele>
        <time>2022-02-15T08:01:15.000Z</time>
      </trkpt>
      <trkpt lat="43.52704" lon="5.56869">
        <ele>406</ele>
        <time>2022-02-15T08:01:16.000Z</time>
      </trkpt>
      <trkpt lat="43.52704" lon="5.5687">
        <ele>406</ele>
        <time>2022-02-15T08:01:17.000Z</time>
      </trkpt>
      <trkpt lat="43.52704" lon="5.5687">
        <ele>406</ele>
        <time>2022-02-15T08:01:18.000Z</time>
      </trkpt>
      <trkpt lat="43.52704" lon="5.5687">
        <ele>406</ele>
        <time>2022-02-15T08:01:19.000Z</time>
      </trkpt>
      <trkpt lat="43.52704" lon="5.5687">
        <ele>406</ele>
        <time>2022-02-15T08:01:20.000Z</time>
      </trkpt>
      <trkpt lat="43.52704" lon="5.5687">
        <ele>406</ele>
        <time>2022-02-15T08:01:21.000Z</time>
      </trkpt>
      <trkpt lat="43.52704" lon="5.5687">
        <ele>406</ele>
        <time>2022-02-15T08:01:22.000Z</time>
      </trkpt>
      <trkpt lat="43.52704" lon="5.5687">
        <ele>406</ele>
        <time>2022-02-15T08:01:23.000Z</time>
      </trkpt>
      <trkpt lat="43.52704" lon="5.5687">
        <ele>406</ele>
        <time>2022-02-15T08:01:24.000Z</time>
      </trkpt>
      <trkpt lat="43.52704" lon="5.5687">
        <ele>406</ele>
        <time>2022-02-15T08:01:25.000Z</time>
      </trkpt>
      <trkpt lat="43.52704" lon="5.5687">
        <ele>406</ele>
        <time>2022-02-15T08:01:26.000Z</time>
      </trkpt>
      <trkpt lat="43.52704" lon="5.5687">
        <ele>406</ele>
        <time>2022-02-15T08:01:27.000Z</time>
      </trkpt>
      <trkpt lat="43.52704" lon="5.5687">
        <ele>406</ele>
        <time>2022-02-15T08:01:28.000Z</time>
      </trkpt>
      <trkpt lat="43.52704" lon="5.5687">
        <ele>406</ele>
        <time>2022-02-15T08:01:29.000Z</time>
      </trkpt>
      <trkpt lat="43.52704" lon="5.5687">
        <ele>406</ele>
        <time>2022-02-15T08:01:30.000Z</time>
      </trkpt>
      <trkpt lat="43.52704" lon="5.5687">
        <ele>406</ele>
        <time>2022-02-15T08:01:31.000Z</time>
      </trkpt>
      <trkpt lat="43.52704" lon="5.5687">
        <ele>406</ele>
        <time>2022-02-15T08:01:32.000Z</time>
      </trkpt>
      <trkpt lat="43.52704" lon="5.5687">
        <ele>406</ele>
        <time>2022-02-15T08:01:33.000Z</time>
      </trkpt>
      <trkpt lat="43.52704" lon="5.5687">
        <ele>406</ele>
        <time>2022-02-15T08:01:34.000Z</time>
      </trkpt>
      <trkpt lat="43.52704" lon="5.5687">
        <ele>406</ele>
        <time>2022-02-15T08:01:35.000Z</time>
      </trkpt>
      <trkpt lat="43.52704" lon="5.5687">
        <ele>406</ele>
        <time>2022-02-15T08:01:36.000Z</time>
      </trkpt>
      <trkpt lat="43.52704" lon="5.56869">
        <ele>406</ele>
        <time>2022-02-15T08:01:37.000Z</time>
      </trkpt>
      <trkpt lat="43.52704" lon="5.56869">
        <ele>406</ele>
        <time>2022-02-15T08:01:38.000Z</time>
      </trkpt>
      <trkpt lat="43.52705" lon="5.56869">
        <ele>406</ele>
        <time>2022-02-15T08:01:39.000Z</time>
      </trkpt>
      <trkpt lat="43.52705" lon="5.5687">
        <ele>406</ele>
        <time>2022-02-15T08:01:40.000Z</time>
      </trkpt>
      <trkpt lat="43.52706" lon="5.5687">
        <ele>406</ele>
        <time>2022-02-15T08:01:41.000Z</time>
      </trkpt>
      <trkpt lat="43.52706" lon="5.56871">
        <ele>406</ele>
        <time>2022-02-15T08:01:42.000Z</time>
      </trkpt>
      <trkpt lat="43.52707" lon="5.56871">
        <ele>406</ele>
        <time>2022-02-15T08:01:43.000Z</time>
      </trkpt>
      <trkpt lat="43.52708" lon="5.56872">
        <ele>405</ele>
        <time>2022-02-15T08:01:44.000Z</time>
      </trkpt>
      <trkpt lat="43.52708" lon="5.56873">
        <ele>405</ele>
        <time>2022-02-15T08:01:45.000Z</time>
      </trkpt>
      <trkpt lat="43.52708" lon="5.56874">
        <ele>405</ele>
        <time>2022-02-15T08:01:46.000Z</time>
      </trkpt>
      <trkpt lat="43.52709" lon="5.56874">
        <ele>404</ele>
        <time>2022-02-15T08:01:47.000Z</time>
      </trkpt>
      <trkpt lat="43.5271" lon="5.56874">
        <ele>404</ele>
        <time>2022-02-15T08:01:48.000Z</time>
      </trkpt>
      <trkpt lat="43.52712" lon="5.56874">
        <ele>404</ele>
        <time>2022-02-15T08:01:49.000Z</time>
      </trkpt>
      <trkpt lat="43.52712" lon="5.56874">
        <ele>404</ele>
        <time>2022-02-15T08:01:50.000Z</time>
      </trkpt>
      <trkpt lat="43.52713" lon="5.56874">
        <ele>404</ele>
        <time>2022-02-15T08:01:51.000Z</time>
      </trkpt>
      <trkpt lat="43.52714" lon="5.56873">
        <ele>404</ele>
        <time>2022-02-15T08:01:52.000Z</time>
      </trkpt>
      <trkpt lat="43.52716" lon="5.56873">
        <ele>404</ele>
        <time>2022-02-15T08:01:53.000Z</time>
      </trkpt>
      <trkpt lat="43.52717" lon="5.56874">
        <ele>404</ele>
        <time>2022-02-15T08:01:54.000Z</time>
      </trkpt>
      <trkpt lat="43.52717" lon="5.56874">
        <ele>404</ele>
        <time>2022-02-15T08:01:55.000Z</time>
      </trkpt>
      <trkpt lat="43.52719" lon="5.56875">
        <ele>404</ele>
        <time>2022-02-15T08:01:56.000Z</time>
      </trkpt>
      <trkpt lat="43.5272" lon="5.56875">
        <ele>404</ele>
        <time>2022-02-15T08:01:57.000Z</time>
      </trkpt>
      <trkpt lat="43.52721" lon="5.56876">
        <ele>404</ele>
        <time>2022-02-15T08:01:58.000Z</time>
      </trkpt>
      <trkpt lat="43.52721" lon="5.56876">
        <ele>404</ele>
        <time>2022-02-15T08:01:59.000Z</time>
      </trkpt>
      <trkpt lat="43.52723" lon="5.56876">
        <ele>404</ele>
        <time>2022-02-15T08:02:00.000Z</time>
      </trkpt>
      <trkpt lat="43.52723" lon="5.56876">
        <ele>404</ele>
        <time>2022-02-15T08:02:01.000Z</time>
      </trkpt>
      <trkpt lat="43.52724" lon="5.56876">
        <ele>404</ele>
        <time>2022-02-15T08:02:02.000Z</time>
      </trkpt>
      <trkpt lat="43.52725" lon="5.56877">
        <ele>404</ele>
        <time>2022-02-15T08:02:03.000Z</time>
      </trkpt>
      <trkpt lat="43.52726" lon="5.56877">
        <ele>404</ele>
        <time>2022-02-15T08:02:04.000Z</time>
      </trkpt>
      <trkpt lat="43.52727" lon="5.56877">
        <ele>405</ele>
        <time>2022-02-15T08:02:05.000Z</time>
      </trkpt>
      <trkpt lat="43.52727" lon="5.56877">
        <ele>405</ele>
        <time>2022-02-15T08:02:06.000Z</time>
      </trkpt>
      <trkpt lat="43.52728" lon="5.56877">
        <ele>405</ele>
        <time>2022-02-15T08:02:07.000Z</time>
      </trkpt>
      <trkpt lat="43.52729" lon="5.56876">
        <ele>405</ele>
        <time>2022-02-15T08:02:08.000Z</time>
      </trkpt>
      <trkpt lat="43.5273" lon="5.56876">
        <ele>405</ele>
        <time>2022-02-15T08:02:09.000Z</time>
      </trkpt>
      <trkpt lat="43.52731" lon="5.56876">
        <ele>405</ele>
        <time>2022-02-15T08:02:10.000Z</time>
      </trkpt>
      <trkpt lat="43.52732" lon="5.56876">
        <ele>405</ele>
        <time>2022-02-15T08:02:11.000Z</time>
      </trkpt>
      <trkpt lat="43.52733" lon="5.56876">
        <ele>405</ele>
        <time>2022-02-15T08:02:12.000Z</time>
      </trkpt>
      <trkpt lat="43.52734" lon="5.56876">
        <ele>405</ele>
        <time>2022-02-15T08:02:13.000Z</time>
      </trkpt>
      <trkpt lat="43.52735" lon="5.56876">
        <ele>405</ele>
        <time>2022-02-15T08:02:14.000Z</time>
      </trkpt>
      <trkpt lat="43.52735" lon="5.56876">
        <ele>405</ele>
        <time>2022-02-15T08:02:15.000Z</time>
      </trkpt>
      <trkpt lat="43.52736" lon="5.56876">
        <ele>406</ele>
        <time>2022-02-15T08:02:16.000Z</time>
      </trkpt>
      <trkpt lat="43.52737" lon="5.56876">
        <ele>406</ele>
        <time>2022-02-15T08:02:17.000Z</time>
      </trkpt>
      <trkpt lat="43.52738" lon="5.56876">
        <ele>406</ele>
        <time>2022-02-15T08:02:18.000Z</time>
      </trkpt>
      <trkpt lat="43.52739" lon="5.56876">
        <ele>406</ele>
        <time>2022-02-15T08:02:19.000Z</time>
      </trkpt>
      <trkpt lat="43.5274" lon="5.56876">
        <ele>406</ele>
        <time>2022-02-15T08:02:20.000Z</time>
      </trkpt>
      <trkpt lat="43.5274" lon="5.56875">
        <ele>406</ele>
        <time>2022-02-15T08:02:21.000Z</time>
      </trkpt>
      <trkpt lat="43.52741" lon="5.56875">
        <ele>406</ele>
        <time>2022-02-15T08:02:22.000Z</time>
      </trkpt>
      <trkpt lat="43.52742" lon="5.56875">
        <ele>406</ele>
        <time>2022-02-15T08:02:23.000Z</time>
      </trkpt>
      <trkpt lat="43.52742" lon="5.56874">
        <ele>407</ele>
        <time>2022-02-15T08:02:24.000Z</time>
      </trkpt>
      <trkpt lat="43.52743" lon="5.56873">
        <ele>407</ele>
        <time>2022-02-15T08:02:25.000Z</time>
      </trkpt>
      <trkpt lat="43.52744" lon="5.56873">
        <ele>407</ele>
        <time>2022-02-15T08:02:26.000Z</time>
      </trkpt>
      <trkpt lat="43.52745" lon="5.56872">
        <ele>407</ele>
        <time>2022-02-15T08:02:27.000Z</time>
      </trkpt>
      <trkpt lat="43.52745" lon="5.56872">
        <ele>407</ele>
        <time>2022-02-15T08:02:28.000Z</time>
      </trkpt>
      <trkpt lat="43.52746" lon="5.56871">
        <ele>407</ele>
        <time>2022-02-15T08:02:29.000Z</time>
      </trkpt>
      <trkpt lat="43.52747" lon="5.5687">
        <ele>407</ele>
        <time>2022-02-15T08:02:30.000Z</time>
      </trkpt>
      <trkpt lat="43.52747" lon="5.56869">
        <ele>407</ele>
        <time>2022-02-15T08:02:31.000Z</time>
      </trkpt>
      <trkpt lat="43.52748" lon="5.56868">
        <ele>408</ele>
        <time>2022-02-15T08:02:32.000Z</time>
      </trkpt>
      <trkpt lat="43.52748" lon="5.56867">
        <ele>408</ele>
        <time>2022-02-15T08:02:33.000Z</time>
      </trkpt>
      <trkpt lat="43.52749" lon="5.56866">
        <ele>408</ele>
        <time>2022-02-15T08:02:34.000Z</time>
      </trkpt>
      <trkpt lat="43.52749" lon="5.56866">
        <ele>408</ele>
        <time>2022-02-15T08:02:35.000Z</time>
      </trkpt>
      <trkpt lat="43.5275" lon="5.56865">
        <ele>408</ele>
        <time>2022-02-15T08:02:36.000Z</time>
      </trkpt>
      <trkpt lat="43.52751" lon="5.56864">
        <ele>408</ele>
        <time>2022-02-15T08:02:37.000Z</time>
      </trkpt>
      <trkpt lat="43.52751" lon="5.56863">
        <ele>408</ele>
        <time>2022-02-15T08:02:38.000Z</time>
      </trkpt>
      <trkpt lat="43.52751" lon="5.56862">
        <ele>408</ele>
        <time>2022-02-15T08:02:39.000Z</time>
      </trkpt>
      <trkpt lat="43.52752" lon="5.56861">
        <ele>408</ele>
        <time>2022-02-15T08:02:40.000Z</time>
      </trkpt>
      <trkpt lat="43.52752" lon="5.5686">
        <ele>408</ele>
        <time>2022-02-15T08:02:41.000Z</time>
      </trkpt>
      <trkpt lat="43.52753" lon="5.56859">
        <ele>408</ele>
        <time>2022-02-15T08:02:42.000Z</time>
      </trkpt>
      <trkpt lat="43.52753" lon="5.56858">
        <ele>408</ele>
        <time>2022-02-15T08:02:43.000Z</time>
      </trkpt>
      <trkpt lat="43.52753" lon="5.56857">
        <ele>408</ele>
        <time>2022-02-15T08:02:44.000Z</time>
      </trkpt>
      <trkpt lat="43.52754" lon="5.56855">
        <ele>408</ele>
        <time>2022-02-15T08:02:45.000Z</time>
      </trkpt>
      <trkpt lat="43.52754" lon="5.56854">
        <ele>408</ele>
        <time>2022-02-15T08:02:46.000Z</time>
      </trkpt>
      <trkpt lat="43.52755" lon="5.56852">
        <ele>408</ele>
        <time>2022-02-15T08:02:47.000Z</time>
      </trkpt>
      <trkpt lat="43.52755" lon="5.56851">
        <ele>408</ele>
        <time>2022-02-15T08:02:48.000Z</time>
      </trkpt>
      <trkpt lat="43.52755" lon="5.5685">
        <ele>408</ele>
        <time>2022-02-15T08:02:49.000Z</time>
      </trkpt>
      <trkpt lat="43.52755" lon="5.56849">
        <ele>408</ele>
        <time>2022-02-15T08:02:50.000Z</time>
      </trkpt>
      <trkpt lat="43.52756" lon="5.56848">
        <ele>408</ele>
        <time>2022-02-15T08:02:51.000Z</time>
      </trkpt>
      <trkpt lat="43.52756" lon="5.56847">
        <ele>408</ele>
        <time>2022-02-15T08:02:52.000Z</time>
      </trkpt>
      <trkpt lat="43.52757" lon="5.56846">
        <ele>409</ele>
        <time>2022-02-15T08:02:53.000Z</time>
      </trkpt>
      <trkpt lat="43.52758" lon="5.56846">
        <ele>409</ele>
        <time>2022-02-15T08:02:54.000Z</time>
      </trkpt>
      <trkpt lat="43.52759" lon="5.56845">
        <ele>409</ele>
        <time>2022-02-15T08:02:55.000Z</time>
      </trkpt>
      <trkpt lat="43.52759" lon="5.56845">
        <ele>409</ele>
        <time>2022-02-15T08:02:56.000Z</time>
      </trkpt>
      <trkpt lat="43.5276" lon="5.56845">
        <ele>409</ele>
        <time>2022-02-15T08:02:57.000Z</time>
      </trkpt>
      <trkpt lat="43.52761" lon="5.56845">
        <ele>409</ele>
        <time>2022-02-15T08:02:58.000Z</time>
      </trkpt>
      <trkpt lat="43.52762" lon="5.56845">
        <ele>409</ele>
        <time>2022-02-15T08:02:59.000Z</time>
      </trkpt>
      <trkpt lat="43.52762" lon="5.56846">
        <ele>409</ele>
        <time>2022-02-15T08:03:00.000Z</time>
      </trkpt>
      <trkpt lat="43.52763" lon="5.56846">
        <ele>409</ele>
        <time>2022-02-15T08:03:01.000Z</time>
      </trkpt>
      <trkpt lat="43.52764" lon="5.56847">
        <ele>409</ele>
        <time>2022-02-15T08:03:02.000Z</time>
      </trkpt>
      <trkpt lat="43.52764" lon="5.56847">
        <ele>409</ele>
        <time>2022-02-15T08:03:03.000Z</time>
      </trkpt>
      <trkpt lat="43.52765" lon="5.56848">
        <ele>410</ele>
        <time>2022-02-15T08:03:04.000Z</time>
      </trkpt>
      <trkpt lat="43.52766" lon="5.56848">
        <ele>410</ele>
        <time>2022-02-15T08:03:05.000Z</time>
      </trkpt>
      <trkpt lat="43.52766" lon="5.56849">
        <ele>410</ele>
        <time>2022-02-15T08:03:06.000Z</time>
      </trkpt>
      <trkpt lat="43.52767" lon="5.56849">
        <ele>410</ele>
        <time>2022-02-15T08:03:07.000Z</time>
      </trkpt>
      <trkpt lat="43.52767" lon="5.5685">
        <ele>410</ele>
        <time>2022-02-15T08:03:08.000Z</time>
      </trkpt>
      <trkpt lat="43.52767" lon="5.5685">
        <ele>410</ele>
        <time>2022-02-15T08:03:09.000Z</time>
      </trkpt>
      <trkpt lat="43.52767" lon="5.5685">
        <ele>410</ele>
        <time>2022-02-15T08:03:10.000Z</time>
      </trkpt>
      <trkpt lat="43.52768" lon="5.5685">
        <ele>411</ele>
        <time>2022-02-15T08:03:11.000Z</time>
      </trkpt>
      <trkpt lat="43.52768" lon="5.5685">
        <ele>411</ele>
        <time>2022-02-15T08:03:12.000Z</time>
      </trkpt>
      <trkpt lat="43.52769" lon="5.5685">
        <ele>411</ele>
        <time>2022-02-15T08:03:13.000Z</time>
      </trkpt>
      <trkpt lat="43.52769" lon="5.56851">
        <ele>411</ele>
        <time>2022-02-15T08:03:14.000Z</time>
      </trkpt>
      <trkpt lat="43.5277" lon="5.56851">
        <ele>411</ele>
        <time>2022-02-15T08:03:15.000Z</time>
      </trkpt>
      <trkpt lat="43.52771" lon="5.56851">
        <ele>412</ele>
        <time>2022-02-15T08:03:16.000Z</time>
      </trkpt>
      <trkpt lat="43.52771" lon="5.56851">
        <ele>412</ele>
        <time>2022-02-15T08:03:17.000Z</time>
      </trkpt>
      <trkpt lat="43.52772" lon="5.56851">
        <ele>412</ele>
        <time>2022-02-15T08:03:18.000Z</time>
      </trkpt>
      <trkpt lat="43.52772" lon="5.56852">
        <ele>412</ele>
        <time>2022-02-15T08:03:19.000Z</time>
      </trkpt>
      <trkpt lat="43.52773" lon="5.56852">
        <ele>412</ele>
        <time>2022-02-15T08:03:20.000Z</time>
      </trkpt>
      <trkpt lat="43.52773" lon="5.56853">
        <ele>412</ele>
        <time>2022-02-15T08:03:21.000Z</time>
      </trkpt>
      <trkpt lat="43.52774" lon="5.56853">
        <ele>412</ele>
        <time>2022-02-15T08:03:22.000Z</time>
      </trkpt>
      <trkpt lat="43.52774" lon="5.56854">
        <ele>412</ele>
        <time>2022-02-15T08:03:23.000Z</time>
      </trkpt>
      <trkpt lat="43.52775" lon="5.56854">
        <ele>412</ele>
        <time>2022-02-15T08:03:24.000Z</time>
      </trkpt>
      <trkpt lat="43.52776" lon="5.56855">
        <ele>413</ele>
        <time>2022-02-15T08:03:25.000Z</time>
      </trkpt>
      <trkpt lat="43.52776" lon="5.56855">
        <ele>413</ele>
        <time>2022-02-15T08:03:26.000Z</time>
      </trkpt>
      <trkpt lat="43.52777" lon="5.56855">
        <ele>413</ele>
        <time>2022-02-15T08:03:27.000Z</time>
      </trkpt>
      <trkpt lat="43.52778" lon="5.56855">
        <ele>413</ele>
        <time>2022-02-15T08:03:28.000Z</time>
      </trkpt>
      <trkpt lat="43.52779" lon="5.56855">
        <ele>413</ele>
        <time>2022-02-15T08:03:29.000Z</time>
      </trkpt>
      <trkpt lat="43.52779" lon="5.56854">
        <ele>413</ele>
        <time>2022-02-15T08:03:30.000Z</time>
      </trkpt>
      <trkpt lat="43.5278" lon="5.56854">
        <ele>413</ele>
        <time>2022-02-15T08:03:31.000Z</time>
      </trkpt>
      <trkpt lat="43.52781" lon="5.56853">
        <ele>413</ele>
        <time>2022-02-15T08:03:32.000Z</time>
      </trkpt>
      <trkpt lat="43.52782" lon="5.56853">
        <ele>414</ele>
        <time>2022-02-15T08:03:33.000Z</time>
      </trkpt>
      <trkpt lat="43.52782" lon="5.56853">
        <ele>414</ele>
        <time>2022-02-15T08:03:34.000Z</time>
      </trkpt>
      <trkpt lat="43.52783" lon="5.56854">
        <ele>414</ele>
        <time>2022-02-15T08:03:35.000Z</time>
      </trkpt>
      <trkpt lat="43.52783" lon="5.56854">
        <ele>414</ele>
        <time>2022-02-15T08:03:36.000Z</time>
      </trkpt>
      <trkpt lat="43.52784" lon="5.56854">
        <ele>414</ele>
        <time>2022-02-15T08:03:37.000Z</time>
      </trkpt>
      <trkpt lat="43.52784" lon="5.56854">
        <ele>414</ele>
        <time>2022-02-15T08:03:38.000Z</time>
      </trkpt>
      <trkpt lat="43.52785" lon="5.56854">
        <ele>415</ele>
        <time>2022-02-15T08:03:39.000Z</time>
      </trkpt>
      <trkpt lat="43.52785" lon="5.56854">
        <ele>415</ele>
        <time>2022-02-15T08:03:40.000Z</time>
      </trkpt>
      <trkpt lat="43.52786" lon="5.56854">
        <ele>415</ele>
        <time>2022-02-15T08:03:41.000Z</time>
      </trkpt>
      <trkpt lat="43.52786" lon="5.56854">
        <ele>415</ele>
        <time>2022-02-15T08:03:42.000Z</time>
      </trkpt>
      <trkpt lat="43.52786" lon="5.56853">
        <ele>415</ele>
        <time>2022-02-15T08:03:43.000Z</time>
      </trkpt>
      <trkpt lat="43.52787" lon="5.56853">
        <ele>415</ele>
        <time>2022-02-15T08:03:44.000Z</time>
      </trkpt>
      <trkpt lat="43.52787" lon="5.56852">
        <ele>415</ele>
        <time>2022-02-15T08:03:45.000Z</time>
      </trkpt>
      <trkpt lat="43.52788" lon="5.56852">
        <ele>415</ele>
        <time>2022-02-15T08:03:46.000Z</time>
      </trkpt>
      <trkpt lat="43.52789" lon="5.56852">
        <ele>415</ele>
        <time>2022-02-15T08:03:47.000Z</time>
      </trkpt>
      <trkpt lat="43.5279" lon="5.56852">
        <ele>415</ele>
        <time>2022-02-15T08:03:48.000Z</time>
      </trkpt>
      <trkpt lat="43.52791" lon="5.56853">
        <ele>415</ele>
        <time>2022-02-15T08:03:49.000Z</time>
      </trkpt>
      <trkpt lat="43.52791" lon="5.56853">
        <ele>415</ele>
        <time>2022-02-15T08:03:50.000Z</time>
      </trkpt>
      <trkpt lat="43.52792" lon="5.56854">
        <ele>415</ele>
        <time>2022-02-15T08:03:51.000Z</time>
      </trkpt>
      <trkpt lat="43.52792" lon="5.56855">
        <ele>415</ele>
        <time>2022-02-15T08:03:52.000Z</time>
      </trkpt>
      <trkpt lat="43.52793" lon="5.56856">
        <ele>415</ele>
        <time>2022-02-15T08:03:53.000Z</time>
      </trkpt>
      <trkpt lat="43.52793" lon="5.56857">
        <ele>415</ele>
        <time>2022-02-15T08:03:54.000Z</time>
      </trkpt>
      <trkpt lat="43.52793" lon="5.56858">
        <ele>415</ele>
        <time>2022-02-15T08:03:55.000Z</time>
      </trkpt>
      <trkpt lat="43.52793" lon="5.56858">
        <ele>415</ele>
        <time>2022-02-15T08:03:56.000Z</time>
      </trkpt>
      <trkpt lat="43.52793" lon="5.56859">
        <ele>416</ele>
        <time>2022-02-15T08:03:57.000Z</time>
      </trkpt>
      <trkpt lat="43.52794" lon="5.5686">
        <ele>416</ele>
        <time>2022-02-15T08:03:58.000Z</time>
      </trkpt>
      <trkpt lat="43.52794" lon="5.5686">
        <ele>416</ele>
        <time>2022-02-15T08:03:59.000Z</time>
      </trkpt>
      <trkpt lat="43.52794" lon="5.5686">
        <ele>416</ele>
        <time>2022-02-15T08:04:00.000Z</time>
      </trkpt>
      <trkpt lat="43.52794" lon="5.5686">
        <ele>416</ele>
        <time>2022-02-15T08:04:01.000Z</time>
      </trkpt>
      <trkpt lat="43.52794" lon="5.5686">
        <ele>416</ele>
        <time>2022-02-15T08:04:02.000Z</time>
      </trkpt>
      <trkpt lat="43.52794" lon="5.56861">
        <ele>416</ele>
        <time>2022-02-15T08:04:03.000Z</time>
      </trkpt>
      <trkpt lat="43.52794" lon="5.56861">
        <ele>416</ele>
        <time>2022-02-15T08:04:04.000Z</time>
      </trkpt>
      <trkpt lat="43.52794" lon="5.56862">
        <ele>416</ele>
        <time>2022-02-15T08:04:05.000Z</time>
      </trkpt>
      <trkpt lat="43.52794" lon="5.56862">
        <ele>416</ele>
        <time>2022-02-15T08:04:06.000Z</time>
      </trkpt>
      <trkpt lat="43.52795" lon="5.56863">
        <ele>416</ele>
        <time>2022-02-15T08:04:07.000Z</time>
      </trkpt>
      <trkpt lat="43.52795" lon="5.56863">
        <ele>416</ele>
        <time>2022-02-15T08:04:08.000Z</time>
      </trkpt>
      <trkpt lat="43.52795" lon="5.56864">
        <ele>416</ele>
        <time>2022-02-15T08:04:09.000Z</time>
      </trkpt>
      <trkpt lat="43.52796" lon="5.56864">
        <ele>416</ele>
        <time>2022-02-15T08:04:10.000Z</time>
      </trkpt>
      <trkpt lat="43.52796" lon="5.56865">
        <ele>417</ele>
        <time>2022-02-15T08:04:11.000Z</time>
      </trkpt>
      <trkpt lat="43.52796" lon="5.56865">
        <ele>417</ele>
        <time>2022-02-15T08:04:12.000Z</time>
      </trkpt>
      <trkpt lat="43.52797" lon="5.56866">
        <ele>417</ele>
        <time>2022-02-15T08:04:13.000Z</time>
      </trkpt>
      <trkpt lat="43.52798" lon="5.56866">
        <ele>417</ele>
        <time>2022-02-15T08:04:14.000Z</time>
      </trkpt>
      <trkpt lat="43.52798" lon="5.56866">
        <ele>417</ele>
        <time>2022-02-15T08:04:15.000Z</time>
      </trkpt>
      <trkpt lat="43.52799" lon="5.56866">
        <ele>417</ele>
        <time>2022-02-15T08:04:16.000Z</time>
      </trkpt>
      <trkpt lat="43.52799" lon="5.56867">
        <ele>417</ele>
        <time>2022-02-15T08:04:17.000Z</time>
      </trkpt>
      <trkpt lat="43.52799" lon="5.56867">
        <ele>417</ele>
        <time>2022-02-15T08:04:18.000Z</time>
      </trkpt>
      <trkpt lat="43.528" lon="5.56867">
        <ele>417</ele>
        <time>2022-02-15T08:04:19.000Z</time>
      </trkpt>
      <trkpt lat="43.528" lon="5.56868">
        <ele>417</ele>
        <time>2022-02-15T08:04:20.000Z</time>
      </trkpt>
      <trkpt lat="43.528" lon="5.56868">
        <ele>417</ele>
        <time>2022-02-15T08:04:21.000Z</time>
      </trkpt>
      <trkpt lat="43.528" lon="5.56869">
        <ele>417</ele>
        <time>2022-02-15T08:04:22.000Z</time>
      </trkpt>
      <trkpt lat="43.528" lon="5.56869">
        <ele>417</ele>
        <time>2022-02-15T08:04:23.000Z</time>
      </trkpt>
      <trkpt lat="43.52801" lon="5.5687">
        <ele>418</ele>
        <time>2022-02-15T08:04:24.000Z</time>
      </trkpt>
      <trkpt lat="43.52801" lon="5.5687">
        <ele>418</ele>
        <time>2022-02-15T08:04:25.000Z</time>
      </trkpt>
      <trkpt lat="43.52801" lon="5.56871">
        <ele>418</ele>
        <time>2022-02-15T08:04:26.000Z</time>
      </trkpt>
      <trkpt lat="43.52802" lon="5.56871">
        <ele>418</ele>
        <time>2022-02-15T08:04:27.000Z</time>
      </trkpt>
      <trkpt lat="43.52802" lon="5.56872">
        <ele>418</ele>
        <time>2022-02-15T08:04:28.000Z</time>
      </trkpt>
      <trkpt lat="43.52801" lon="5.56872">
        <ele>418</ele>
        <time>2022-02-15T08:04:29.000Z</time>
      </trkpt>
      <trkpt lat="43.52801" lon="5.56873">
        <ele>418</ele>
        <time>2022-02-15T08:04:30.000Z</time>
      </trkpt>
      <trkpt lat="43.52801" lon="5.56874">
        <ele>418</ele>
        <time>2022-02-15T08:04:31.000Z</time>
      </trkpt>
      <trkpt lat="43.52801" lon="5.56874">
        <ele>418</ele>
        <time>2022-02-15T08:04:32.000Z</time>
      </trkpt>
      <trkpt lat="43.52801" lon="5.56875">
        <ele>418</ele>
        <time>2022-02-15T08:04:33.000Z</time>
      </trkpt>
      <trkpt lat="43.52801" lon="5.56875">
        <ele>418</ele>
        <time>2022-02-15T08:04:34.000Z</time>
      </trkpt>
      <trkpt lat="43.52801" lon="5.56876">
        <ele>419</ele>
        <time>2022-02-15T08:04:35.000Z</time>
      </trkpt>
      <trkpt lat="43.52801" lon="5.56877">
        <ele>419</ele>
        <time>2022-02-15T08:04:36.000Z</time>
      </trkpt>
      <trkpt lat="43.52801" lon="5.56878">
        <ele>419</ele>
        <time>2022-02-15T08:04:37.000Z</time>
      </trkpt>
      <trkpt lat="43.52802" lon="5.56878">
        <ele>419</ele>
        <time>2022-02-15T08:04:38.000Z</time>
      </trkpt>
      <trkpt lat="43.52802" lon="5.56879">
        <ele>419</ele>
        <time>2022-02-15T08:04:39.000Z</time>
      </trkpt>
      <trkpt lat="43.52802" lon="5.5688">
        <ele>420</ele>
        <time>2022-02-15T08:04:40.000Z</time>
      </trkpt>
      <trkpt lat="43.52803" lon="5.5688">
        <ele>420</ele>
        <time>2022-02-15T08:04:41.000Z</time>
      </trkpt>
      <trkpt lat="43.52803" lon="5.56881">
        <ele>420</ele>
        <time>2022-02-15T08:04:42.000Z</time>
      </trkpt>
      <trkpt lat="43.52804" lon="5.56882">
        <ele>420</ele>
        <time>2022-02-15T08:04:43.000Z</time>
      </trkpt>
      <trkpt lat="43.52804" lon="5.56882">
        <ele>420</ele>
        <time>2022-02-15T08:04:44.000Z</time>
      </trkpt>
      <trkpt lat="43.52804" lon="5.56882">
        <ele>420</ele>
        <time>2022-02-15T08:04:45.000Z</time>
      </trkpt>
      <trkpt lat="43.52805" lon="5.56882">
        <ele>420</ele>
        <time>2022-02-15T08:04:46.000Z</time>
      </trkpt>
      <trkpt lat="43.52806" lon="5.56882">
        <ele>420</ele>
        <time>2022-02-15T08:04:47.000Z</time>
      </trkpt>
      <trkpt lat="43.52807" lon="5.56882">
        <ele>420</ele>
        <time>2022-02-15T08:04:48.000Z</time>
      </trkpt>
      <trkpt lat="43.52808" lon="5.56882">
        <ele>420</ele>
        <time>2022-02-15T08:04:49.000Z</time>
      </trkpt>
      <trkpt lat="43.52808" lon="5.56882">
        <ele>420</ele>
        <time>2022-02-15T08:04:50.000Z</time>
      </trkpt>
      <trkpt lat="43.52809" lon="5.56882">
        <ele>420</ele>
        <time>2022-02-15T08:04:51.000Z</time>
      </trkpt>
      <trkpt lat="43.5281" lon="5.56882">
        <ele>420</ele>
        <time>2022-02-15T08:04:52.000Z</time>
      </trkpt>
      <trkpt lat="43.5281" lon="5.56883">
        <ele>421</ele>
        <time>2022-02-15T08:04:53.000Z</time>
      </trkpt>
      <trkpt lat="43.52811" lon="5.56883">
        <ele>421</ele>
        <time>2022-02-15T08:04:54.000Z</time>
      </trkpt>
      <trkpt lat="43.52811" lon="5.56884">
        <ele>421</ele>
        <time>2022-02-15T08:04:55.000Z</time>
      </trkpt>
      <trkpt lat="43.52812" lon="5.56884">
        <ele>421</ele>
        <time>2022-02-15T08:04:56.000Z</time>
      </trkpt>
      <trkpt lat="43.52813" lon="5.56884">
        <ele>421</ele>
        <time>2022-02-15T08:04:57.000Z</time>
      </trkpt>
      <trkpt lat="43.52813" lon="5.56884">
        <ele>421</ele>
        <time>2022-02-15T08:04:58.000Z</time>
      </trkpt>
      <trkpt lat="43.52814" lon="5.56885">
        <ele>421</ele>
        <time>2022-02-15T08:04:59.000Z</time>
      </trkpt>
      <trkpt lat="43.52814" lon="5.56885">
        <ele>421</ele>
        <time>2022-02-15T08:05:00.000Z</time>
      </trkpt>
      <trkpt lat="43.52814" lon="5.56885">
        <ele>421</ele>
        <time>2022-02-15T08:05:01.000Z</time>
      </trkpt>
      <trkpt lat="43.52815" lon="5.56885">
        <ele>421</ele>
        <time>2022-02-15T08:05:02.000Z</time>
      </trkpt>
      <trkpt lat="43.52816" lon="5.56885">
        <ele>422</ele>
        <time>2022-02-15T08:05:03.000Z</time>
      </trkpt>
      <trkpt lat="43.52817" lon="5.56885">
        <ele>422</ele>
        <time>2022-02-15T08:05:04.000Z</time>
      </trkpt>
      <trkpt lat="43.52818" lon="5.56885">
        <ele>422</ele>
        <time>2022-02-15T08:05:05.000Z</time>
      </trkpt>
      <trkpt lat="43.52819" lon="5.56886">
        <ele>422</ele>
        <time>2022-02-15T08:05:06.000Z</time>
      </trkpt>
      <trkpt lat="43.5282" lon="5.56886">
        <ele>422</ele>
        <time>2022-02-15T08:05:07.000Z</time>
      </trkpt>
      <trkpt lat="43.52821" lon="5.56887">
        <ele>422</ele>
        <time>2022-02-15T08:05:08.000Z</time>
      </trkpt>
      <trkpt lat="43.52822" lon="5.56887">
        <ele>422</ele>
        <time>2022-02-15T08:05:09.000Z</time>
      </trkpt>
      <trkpt lat="43.52823" lon="5.56888">
        <ele>423</ele>
        <time>2022-02-15T08:05:10.000Z</time>
      </trkpt>
      <trkpt lat="43.52824" lon="5.56889">
        <ele>423</ele>
        <time>2022-02-15T08:05:11.000Z</time>
      </trkpt>
      <trkpt lat="43.52825" lon="5.56889">
        <ele>423</ele>
        <time>2022-02-15T08:05:12.000Z</time>
      </trkpt>
      <trkpt lat="43.52825" lon="5.5689">
        <ele>423</ele>
        <time>2022-02-15T08:05:13.000Z</time>
      </trkpt>
      <trkpt lat="43.52826" lon="5.5689">
        <ele>423</ele>
        <time>2022-02-15T08:05:14.000Z</time>
      </trkpt>
      <trkpt lat="43.52826" lon="5.5689">
        <ele>423</ele>
        <time>2022-02-15T08:05:15.000Z</time>
      </trkpt>
      <trkpt lat="43.52826" lon="5.56891">
        <ele>423</ele>
        <time>2022-02-15T08:05:16.000Z</time>
      </trkpt>
      <trkpt lat="43.52827" lon="5.56891">
        <ele>424</ele>
        <time>2022-02-15T08:05:17.000Z</time>
      </trkpt>
      <trkpt lat="43.52827" lon="5.56891">
        <ele>424</ele>
        <time>2022-02-15T08:05:18.000Z</time>
      </trkpt>
      <trkpt lat="43.52827" lon="5.56891">
        <ele>424</ele>
        <time>2022-02-15T08:05:19.000Z</time>
      </trkpt>
      <trkpt lat="43.52827" lon="5.56892">
        <ele>424</ele>
        <time>2022-02-15T08:05:20.000Z</time>
      </trkpt>
      <trkpt lat="43.52827" lon="5.56892">
        <ele>424</ele>
        <time>2022-02-15T08:05:21.000Z</time>
      </trkpt>
      <trkpt lat="43.52828" lon="5.56892">
        <ele>424</ele>
        <time>2022-02-15T08:05:22.000Z</time>
      </trkpt>
      <trkpt lat="43.52828" lon="5.56892">
        <ele>424</ele>
        <time>2022-02-15T08:05:23.000Z</time>
      </trkpt>
      <trkpt lat="43.52829" lon="5.56892">
        <ele>424</ele>
        <time>2022-02-15T08:05:24.000Z</time>
      </trkpt>
      <trkpt lat="43.5283" lon="5.56892">
        <ele>424</ele>
        <time>2022-02-15T08:05:25.000Z</time>
      </trkpt>
      <trkpt lat="43.52831" lon="5.56892">
        <ele>424</ele>
        <time>2022-02-15T08:05:26.000Z</time>
      </trkpt>
      <trkpt lat="43.52832" lon="5.56892">
        <ele>425</ele>
        <time>2022-02-15T08:05:27.000Z</time>
      </trkpt>
      <trkpt lat="43.52833" lon="5.56893">
        <ele>425</ele>
        <time>2022-02-15T08:05:28.000Z</time>
      </trkpt>
      <trkpt lat="43.52834" lon="5.56893">
        <ele>425</ele>
        <time>2022-02-15T08:05:29.000Z</time>
      </trkpt>
      <trkpt lat="43.52835" lon="5.56894">
        <ele>425</ele>
        <time>2022-02-15T08:05:30.000Z</time>
      </trkpt>
      <trkpt lat="43.52836" lon="5.56894">
        <ele>425</ele>
        <time>2022-02-15T08:05:31.000Z</time>
      </trkpt>
      <trkpt lat="43.52837" lon="5.56894">
        <ele>426</ele>
        <time>2022-02-15T08:05:32.000Z</time>
      </trkpt>
      <trkpt lat="43.52838" lon="5.56895">
        <ele>426</ele>
        <time>2022-02-15T08:05:33.000Z</time>
      </trkpt>
      <trkpt lat="43.52838" lon="5.56895">
        <ele>426</ele>
        <time>2022-02-15T08:05:34.000Z</time>
      </trkpt>
      <trkpt lat="43.52839" lon="5.56895">
        <ele>426</ele>
        <time>2022-02-15T08:05:35.000Z</time>
      </trkpt>
      <trkpt lat="43.52839" lon="5.56895">
        <ele>426</ele>
        <time>2022-02-15T08:05:36.000Z</time>
      </trkpt>
      <trkpt lat="43.5284" lon="5.56895">
        <ele>426</ele>
        <time>2022-02-15T08:05:37.000Z</time>
      </trkpt>
      <trkpt lat="43.52841" lon="5.56895">
        <ele>426</ele>
        <time>2022-02-15T08:05:38.000Z</time>
      </trkpt>
      <trkpt lat="43.52841" lon="5.56895">
        <ele>426</ele>
        <time>2022-02-15T08:05:39.000Z</time>
      </trkpt>
      <trkpt lat="43.52842" lon="5.56895">
        <ele>426</ele>
        <time>2022-02-15T08:05:40.000Z</time>
      </trkpt>
      <trkpt lat="43.52843" lon="5.56896">
        <ele>426</ele>
        <time>2022-02-15T08:05:41.000Z</time>
      </trkpt>
      <trkpt lat="43.52844" lon="5.56895">
        <ele>427</ele>
        <time>2022-02-15T08:05:42.000Z</time>
      </trkpt>
      <trkpt lat="43.52844" lon="5.56895">
        <ele>427</ele>
        <time>2022-02-15T08:05:43.000Z</time>
      </trkpt>
      <trkpt lat="43.52845" lon="5.56894">
        <ele>427</ele>
        <time>2022-02-15T08:05:44.000Z</time>
      </trkpt>
      <trkpt lat="43.52846" lon="5.56894">
        <ele>427</ele>
        <time>2022-02-15T08:05:45.000Z</time>
      </trkpt>
      <trkpt lat="43.52846" lon="5.56893">
        <ele>427</ele>
        <time>2022-02-15T08:05:46.000Z</time>
      </trkpt>
      <trkpt lat="43.52847" lon="5.56893">
        <ele>427</ele>
        <time>2022-02-15T08:05:47.000Z</time>
      </trkpt>
      <trkpt lat="43.52848" lon="5.56893">
        <ele>427</ele>
        <time>2022-02-15T08:05:48.000Z</time>
      </trkpt>
      <trkpt lat="43.52849" lon="5.56892">
        <ele>428</ele>
        <time>2022-02-15T08:05:49.000Z</time>
      </trkpt>
      <trkpt lat="43.5285" lon="5.56892">
        <ele>428</ele>
        <time>2022-02-15T08:05:50.000Z</time>
      </trkpt>
      <trkpt lat="43.5285" lon="5.56892">
        <ele>428</ele>
        <time>2022-02-15T08:05:51.000Z</time>
      </trkpt>
      <trkpt lat="43.52851" lon="5.56892">
        <ele>428</ele>
        <time>2022-02-15T08:05:52.000Z</time>
      </trkpt>
      <trkpt lat="43.52852" lon="5.56892">
        <ele>428</ele>
        <time>2022-02-15T08:05:53.000Z</time>
      </trkpt>
      <trkpt lat="43.52853" lon="5.56892">
        <ele>428</ele>
        <time>2022-02-15T08:05:54.000Z</time>
      </trkpt>
      <trkpt lat="43.52854" lon="5.56892">
        <ele>428</ele>
        <time>2022-02-15T08:05:55.000Z</time>
      </trkpt>
      <trkpt lat="43.52854" lon="5.56892">
        <ele>429</ele>
        <time>2022-02-15T08:05:56.000Z</time>
      </trkpt>
      <trkpt lat="43.52855" lon="5.56892">
        <ele>429</ele>
        <time>2022-02-15T08:05:57.000Z</time>
      </trkpt>
      <trkpt lat="43.52856" lon="5.56892">
        <ele>429</ele>
        <time>2022-02-15T08:05:58.000Z</time>
      </trkpt>
      <trkpt lat="43.52857" lon="5.56893">
        <ele>429</ele>
        <time>2022-02-15T08:05:59.000Z</time>
      </trkpt>
      <trkpt lat="43.52858" lon="5.56893">
        <ele>429</ele>
        <time>2022-02-15T08:06:00.000Z</time>
      </trkpt>
      <trkpt lat="43.52859" lon="5.56893">
        <ele>429</ele>
        <time>2022-02-15T08:06:01.000Z</time>
      </trkpt>
      <trkpt lat="43.5286" lon="5.56893">
        <ele>429</ele>
        <time>2022-02-15T08:06:02.000Z</time>
      </trkpt>
      <trkpt lat="43.5286" lon="5.56893">
        <ele>429</ele>
        <time>2022-02-15T08:06:03.000Z</time>
      </trkpt>
      <trkpt lat="43.52861" lon="5.56893">
        <ele>429</ele>
        <time>2022-02-15T08:06:04.000Z</time>
      </trkpt>
      <trkpt lat="43.52862" lon="5.56894">
        <ele>430</ele>
        <time>2022-02-15T08:06:05.000Z</time>
      </trkpt>
      <trkpt lat="43.52863" lon="5.56894">
        <ele>430</ele>
        <time>2022-02-15T08:06:06.000Z</time>
      </trkpt>
      <trkpt lat="43.52864" lon="5.56894">
        <ele>430</ele>
        <time>2022-02-15T08:06:07.000Z</time>
      </trkpt>
      <trkpt lat="43.52864" lon="5.56894">
        <ele>430</ele>
        <time>2022-02-15T08:06:08.000Z</time>
      </trkpt>
      <trkpt lat="43.52865" lon="5.56894">
        <ele>430</ele>
        <time>2022-02-15T08:06:09.000Z</time>
      </trkpt>
      <trkpt lat="43.52866" lon="5.56894">
        <ele>430</ele>
        <time>2022-02-15T08:06:10.000Z</time>
      </trkpt>
      <trkpt lat="43.52867" lon="5.56894">
        <ele>430</ele>
        <time>2022-02-15T08:06:11.000Z</time>
      </trkpt>
      <trkpt lat="43.52868" lon="5.56894">
        <ele>430</ele>
        <time>2022-02-15T08:06:12.000Z</time>
      </trkpt>
      <trkpt lat="43.52868" lon="5.56894">
        <ele>430</ele>
        <time>2022-02-15T08:06:13.000Z</time>
      </trkpt>
      <trkpt lat="43.52869" lon="5.56894">
        <ele>430</ele>
        <time>2022-02-15T08:06:14.000Z</time>
      </trkpt>
      <trkpt lat="43.5287" lon="5.56894">
        <ele>430</ele>
        <time>2022-02-15T08:06:15.000Z</time>
      </trkpt>
      <trkpt lat="43.52871" lon="5.56895">
        <ele>430</ele>
        <time>2022-02-15T08:06:16.000Z</time>
      </trkpt>
      <trkpt lat="43.52871" lon="5.56895">
        <ele>430</ele>
        <time>2022-02-15T08:06:17.000Z</time>
      </trkpt>
      <trkpt lat="43.52872" lon="5.56895">
        <ele>430</ele>
        <time>2022-02-15T08:06:18.000Z</time>
      </trkpt>
      <trkpt lat="43.52873" lon="5.56894">
        <ele>430</ele>
        <time>2022-02-15T08:06:19.000Z</time>
      </trkpt>
      <trkpt lat="43.52873" lon="5.56894">
        <ele>430</ele>
        <time>2022-02-15T08:06:20.000Z</time>
      </trkpt>
      <trkpt lat="43.52874" lon="5.56894">
        <ele>431</ele>
        <time>2022-02-15T08:06:21.000Z</time>
      </trkpt>
      <trkpt lat="43.52875" lon="5.56894">
        <ele>431</ele>
        <time>2022-02-15T08:06:22.000Z</time>
      </trkpt>
      <trkpt lat="43.52875" lon="5.56895">
        <ele>431</ele>
        <time>2022-02-15T08:06:23.000Z</time>
      </trkpt>
      <trkpt lat="43.52876" lon="5.56895">
        <ele>431</ele>
        <time>2022-02-15T08:06:24.000Z</time>
      </trkpt>
      <trkpt lat="43.52876" lon="5.56895">
        <ele>431</ele>
        <time>2022-02-15T08:06:25.000Z</time>
      </trkpt>
      <trkpt lat="43.52876" lon="5.56895">
        <ele>431</ele>
        <time>2022-02-15T08:06:26.000Z</time>
      </trkpt>
      <trkpt lat="43.52876" lon="5.56895">
        <ele>431</ele>
        <time>2022-02-15T08:06:27.000Z</time>
      </trkpt>
      <trkpt lat="43.52876" lon="5.56895">
        <ele>431</ele>
        <time>2022-02-15T08:06:28.000Z</time>
      </trkpt>
      <trkpt lat="43.52876" lon="5.56895">
        <ele>431</ele>
        <time>2022-02-15T08:06:29.000Z</time>
      </trkpt>
      <trkpt lat="43.52876" lon="5.56895">
        <ele>431</ele>
        <time>2022-02-15T08:06:30.000Z</time>
      </trkpt>
      <trkpt lat="43.52876" lon="5.56895">
        <ele>431</ele>
        <time>2022-02-15T08:06:31.000Z</time>
      </trkpt>
      <trkpt lat="43.52876" lon="5.56895">
        <ele>431</ele>
        <time>2022-02-15T08:06:32.000Z</time>
      </trkpt>
      <trkpt lat="43.52876" lon="5.56895">
        <ele>431</ele>
        <time>2022-02-15T08:06:33.000Z</time>
      </trkpt>
      <trkpt lat="43.52876" lon="5.56895">
        <ele>431</ele>
        <time>2022-02-15T08:06:34.000Z</time>
      </trkpt>
      <trkpt lat="43.52876" lon="5.56895">
        <ele>431</ele>
        <time>2022-02-15T08:06:35.000Z</time>
      </trkpt>
      <trkpt lat="43.52876" lon="5.56895">
        <ele>431</ele>
        <time>2022-02-15T08:06:36.000Z</time>
      </trkpt>
      <trkpt lat="43.52876" lon="5.56895">
        <ele>431</ele>
        <time>2022-02-15T08:06:37.000Z</time>
      </trkpt>
      <trkpt lat="43.52877" lon="5.56896">
        <ele>431</ele>
        <time>2022-02-15T08:06:38.000Z</time>
      </trkpt>
      <trkpt lat="43.52877" lon="5.56897">
        <ele>432</ele>
        <time>2022-02-15T08:06:39.000Z</time>
      </trkpt>
      <trkpt lat="43.52878" lon="5.56898">
        <ele>432</ele>
        <time>2022-02-15T08:06:40.000Z</time>
      </trkpt>
      <trkpt lat="43.52878" lon="5.56899">
        <ele>432</ele>
        <time>2022-02-15T08:06:41.000Z</time>
      </trkpt>
      <trkpt lat="43.52879" lon="5.56899">
        <ele>432</ele>
        <time>2022-02-15T08:06:42.000Z</time>
      </trkpt>
      <trkpt lat="43.52879" lon="5.569">
        <ele>432</ele>
        <time>2022-02-15T08:06:43.000Z</time>
      </trkpt>
      <trkpt lat="43.5288" lon="5.56901">
        <ele>432</ele>
        <time>2022-02-15T08:06:44.000Z</time>
      </trkpt>
      <trkpt lat="43.5288" lon="5.56901">
        <ele>432</ele>
        <time>2022-02-15T08:06:45.000Z</time>
      </trkpt>
      <trkpt lat="43.52881" lon="5.56902">
        <ele>433</ele>
        <time>2022-02-15T08:06:46.000Z</time>
      </trkpt>
      <trkpt lat="43.52881" lon="5.56903">
        <ele>433</ele>
        <time>2022-02-15T08:06:47.000Z</time>
      </trkpt>
      <trkpt lat="43.52881" lon="5.56904">
        <ele>433</ele>
        <time>2022-02-15T08:06:48.000Z</time>
      </trkpt>
      <trkpt lat="43.52881" lon="5.56904">
        <ele>433</ele>
        <time>2022-02-15T08:06:49.000Z</time>
      </trkpt>
      <trkpt lat="43.52882" lon="5.56905">
        <ele>433</ele>
        <time>2022-02-15T08:06:50.000Z</time>
      </trkpt>
      <trkpt lat="43.52882" lon="5.56906">
        <ele>433</ele>
        <time>2022-02-15T08:06:51.000Z</time>
      </trkpt>
      <trkpt lat="43.52882" lon="5.56906">
        <ele>434</ele>
        <time>2022-02-15T08:06:52.000Z</time>
      </trkpt>
      <trkpt lat="43.52883" lon="5.56907">
        <ele>434</ele>
        <time>2022-02-15T08:06:53.000Z</time>
      </trkpt>
      <trkpt lat="43.52883" lon="5.56907">
        <ele>434</ele>
        <time>2022-02-15T08:06:54.000Z</time>
      </trkpt>
      <trkpt lat="43.52884" lon="5.56908">
        <ele>434</ele>
        <time>2022-02-15T08:06:55.000Z</time>
      </trkpt>
      <trkpt lat="43.52884" lon="5.56908">
        <ele>434</ele>
        <time>2022-02-15T08:06:56.000Z</time>
      </trkpt>
      <trkpt lat="43.52884" lon="5.56909">
        <ele>435</ele>
        <time>2022-02-15T08:06:57.000Z</time>
      </trkpt>
      <trkpt lat="43.52884" lon="5.56909">
        <ele>435</ele>
        <time>2022-02-15T08:06:58.000Z</time>
      </trkpt>
      <trkpt lat="43.52884" lon="5.5691">
        <ele>435</ele>
        <time>2022-02-15T08:06:59.000Z</time>
      </trkpt>
      <trkpt lat="43.52884" lon="5.5691">
        <ele>435</ele>
        <time>2022-02-15T08:07:00.000Z</time>
      </trkpt>
      <trkpt lat="43.52884" lon="5.56911">
        <ele>436</ele>
        <time>2022-02-15T08:07:01.000Z</time>
      </trkpt>
      <trkpt lat="43.52883" lon="5.56912">
        <ele>436</ele>
        <time>2022-02-15T08:07:02.000Z</time>
      </trkpt>
      <trkpt lat="43.52883" lon="5.56913">
        <ele>436</ele>
        <time>2022-02-15T08:07:03.000Z</time>
      </trkpt>
      <trkpt lat="43.52883" lon="5.56914">
        <ele>436</ele>
        <time>2022-02-15T08:07:04.000Z</time>
      </trkpt>
      <trkpt lat="43.52882" lon="5.56915">
        <ele>436</ele>
        <time>2022-02-15T08:07:05.000Z</time>
      </trkpt>
      <trkpt lat="43.52882" lon="5.56915">
        <ele>436</ele>
        <time>2022-02-15T08:07:06.000Z</time>
      </trkpt>
      <trkpt lat="43.52882" lon="5.56916">
        <ele>436</ele>
        <time>2022-02-15T08:07:07.000Z</time>
      </trkpt>
      <trkpt lat="43.52881" lon="5.56917">
        <ele>436</ele>
        <time>2022-02-15T08:07:08.000Z</time>
      </trkpt>
      <trkpt lat="43.52881" lon="5.56917">
        <ele>437</ele>
        <time>2022-02-15T08:07:09.000Z</time>
      </trkpt>
      <trkpt lat="43.52881" lon="5.56918">
        <ele>437</ele>
        <time>2022-02-15T08:07:10.000Z</time>
      </trkpt>
      <trkpt lat="43.52881" lon="5.56919">
        <ele>437</ele>
        <time>2022-02-15T08:07:11.000Z</time>
      </trkpt>
      <trkpt lat="43.52881" lon="5.5692">
        <ele>437</ele>
        <time>2022-02-15T08:07:12.000Z</time>
      </trkpt>
      <trkpt lat="43.52881" lon="5.56921">
        <ele>437</ele>
        <time>2022-02-15T08:07:13.000Z</time>
      </trkpt>
      <trkpt lat="43.52881" lon="5.56921">
        <ele>437</ele>
        <time>2022-02-15T08:07:14.000Z</time>
      </trkpt>
      <trkpt lat="43.52881" lon="5.56922">
        <ele>437</ele>
        <time>2022-02-15T08:07:15.000Z</time>
      </trkpt>
      <trkpt lat="43.52881" lon="5.56923">
        <ele>438</ele>
        <time>2022-02-15T08:07:16.000Z</time>
      </trkpt>
      <trkpt lat="43.52881" lon="5.56924">
        <ele>438</ele>
        <time>2022-02-15T08:07:17.000Z</time>
      </trkpt>
      <trkpt lat="43.52882" lon="5.56925">
        <ele>438</ele>
        <time>2022-02-15T08:07:18.000Z</time>
      </trkpt>
      <trkpt lat="43.52882" lon="5.56925">
        <ele>438</ele>
        <time>2022-02-15T08:07:19.000Z</time>
      </trkpt>
      <trkpt lat="43.52882" lon="5.56926">
        <ele>438</ele>
        <time>2022-02-15T08:07:20.000Z</time>
      </trkpt>
      <trkpt lat="43.52882" lon="5.56927">
        <ele>438</ele>
        <time>2022-02-15T08:07:21.000Z</time>
      </trkpt>
      <trkpt lat="43.52883" lon="5.56928">
        <ele>438</ele>
        <time>2022-02-15T08:07:22.000Z</time>
      </trkpt>
      <trkpt lat="43.52883" lon="5.56928">
        <ele>438</ele>
        <time>2022-02-15T08:07:23.000Z</time>
      </trkpt>
      <trkpt lat="43.52883" lon="5.56929">
        <ele>439</ele>
        <time>2022-02-15T08:07:24.000Z</time>
      </trkpt>
      <trkpt lat="43.52883" lon="5.5693">
        <ele>439</ele>
        <time>2022-02-15T08:07:25.000Z</time>
      </trkpt>
      <trkpt lat="43.52883" lon="5.5693">
        <ele>439</ele>
        <time>2022-02-15T08:07:26.000Z</time>
      </trkpt>
      <trkpt lat="43.52884" lon="5.56931">
        <ele>439</ele>
        <time>2022-02-15T08:07:27.000Z</time>
      </trkpt>
      <trkpt lat="43.52884" lon="5.56932">
        <ele>439</ele>
        <time>2022-02-15T08:07:28.000Z</time>
      </trkpt>
      <trkpt lat="43.52884" lon="5.56933">
        <ele>439</ele>
        <time>2022-02-15T08:07:29.000Z</time>
      </trkpt>
      <trkpt lat="43.52884" lon="5.56933">
        <ele>439</ele>
        <time>2022-02-15T08:07:30.000Z</time>
      </trkpt>
      <trkpt lat="43.52884" lon="5.56934">
        <ele>439</ele>
        <time>2022-02-15T08:07:31.000Z</time>
      </trkpt>
      <trkpt lat="43.52884" lon="5.56935">
        <ele>439</ele>
        <time>2022-02-15T08:07:32.000Z</time>
      </trkpt>
      <trkpt lat="43.52884" lon="5.56936">
        <ele>439</ele>
        <time>2022-02-15T08:07:33.000Z</time>
      </trkpt>
      <trkpt lat="43.52884" lon="5.56936">
        <ele>439</ele>
        <time>2022-02-15T08:07:34.000Z</time>
      </trkpt>
      <trkpt lat="43.52884" lon="5.56937">
        <ele>440</ele>
        <time>2022-02-15T08:07:35.000Z</time>
      </trkpt>
      <trkpt lat="43.52884" lon="5.56938">
        <ele>440</ele>
        <time>2022-02-15T08:07:36.000Z</time>
      </trkpt>
      <trkpt lat="43.52884" lon="5.56938">
        <ele>440</ele>
        <time>2022-02-15T08:07:37.000Z</time>
      </trkpt>
      <trkpt lat="43.52884" lon="5.56938">
        <ele>440</ele>
        <time>2022-02-15T08:07:38.000Z</time>
      </trkpt>
      <trkpt lat="43.52884" lon="5.56938">
        <ele>440</ele>
        <time>2022-02-15T08:07:39.000Z</time>
      </trkpt>
      <trkpt lat="43.52884" lon="5.56938">
        <ele>440</ele>
        <time>2022-02-15T08:07:40.000Z</time>
      </trkpt>
      <trkpt lat="43.52884" lon="5.56938">
        <ele>440</ele>
        <time>2022-02-15T08:07:41.000Z</time>
      </trkpt>
      <trkpt lat="43.52884" lon="5.56939">
        <ele>440</ele>
        <time>2022-02-15T08:07:42.000Z</time>
      </trkpt>
      <trkpt lat="43.52884" lon="5.56939">
        <ele>440</ele>
        <time>2022-02-15T08:07:43.000Z</time>
      </trkpt>
      <trkpt lat="43.52884" lon="5.56939">
        <ele>440</ele>
        <time>2022-02-15T08:07:44.000Z</time>
      </trkpt>
      <trkpt lat="43.52884" lon="5.56939">
        <ele>440</ele>
        <time>2022-02-15T08:07:45.000Z</time>
      </trkpt>
      <trkpt lat="43.52884" lon="5.56939">
        <ele>441</ele>
        <time>2022-02-15T08:07:46.000Z</time>
      </trkpt>
      <trkpt lat="43.52884" lon="5.56939">
        <ele>441</ele>
        <time>2022-02-15T08:07:47.000Z</time>
      </trkpt>
      <trkpt lat="43.52884" lon="5.56939">
        <ele>441</ele>
        <time>2022-02-15T08:07:48.000Z</time>
      </trkpt>
      <trkpt lat="43.52884" lon="5.56939">
        <ele>441</ele>
        <time>2022-02-15T08:07:49.000Z</time>
      </trkpt>
      <trkpt lat="43.52884" lon="5.56939">
        <ele>441</ele>
        <time>2022-02-15T08:07:50.000Z</time>
      </trkpt>
      <trkpt lat="43.52885" lon="5.56939">
        <ele>441</ele>
        <time>2022-02-15T08:07:51.000Z</time>
      </trkpt>
      <trkpt lat="43.52885" lon="5.5694">
        <ele>441</ele>
        <time>2022-02-15T08:07:52.000Z</time>
      </trkpt>
      <trkpt lat="43.52885" lon="5.5694">
        <ele>441</ele>
        <time>2022-02-15T08:07:53.000Z</time>
      </trkpt>
      <trkpt lat="43.52885" lon="5.5694">
        <ele>441</ele>
        <time>2022-02-15T08:07:54.000Z</time>
      </trkpt>
      <trkpt lat="43.52884" lon="5.5694">
        <ele>441</ele>
        <time>2022-02-15T08:07:55.000Z</time>
      </trkpt>
      <trkpt lat="43.52884" lon="5.56941">
        <ele>441</ele>
        <time>2022-02-15T08:07:56.000Z</time>
      </trkpt>
      <trkpt lat="43.52884" lon="5.56941">
        <ele>441</ele>
        <time>2022-02-15T08:07:57.000Z</time>
      </trkpt>
      <trkpt lat="43.52883" lon="5.56942">
        <ele>441</ele>
        <time>2022-02-15T08:07:58.000Z</time>
      </trkpt>
      <trkpt lat="43.52883" lon="5.56943">
        <ele>441</ele>
        <time>2022-02-15T08:07:59.000Z</time>
      </trkpt>
      <trkpt lat="43.52882" lon="5.56944">
        <ele>441</ele>
        <time>2022-02-15T08:08:00.000Z</time>
      </trkpt>
      <trkpt lat="43.52882" lon="5.56944">
        <ele>441</ele>
        <time>2022-02-15T08:08:01.000Z</time>
      </trkpt>
      <trkpt lat="43.52882" lon="5.56944">
        <ele>441</ele>
        <time>2022-02-15T08:08:02.000Z</time>
      </trkpt>
      <trkpt lat="43.52882" lon="5.56944">
        <ele>441</ele>
        <time>2022-02-15T08:08:03.000Z</time>
      </trkpt>
      <trkpt lat="43.52882" lon="5.56944">
        <ele>441</ele>
        <time>2022-02-15T08:08:04.000Z</time>
      </trkpt>
      <trkpt lat="43.52882" lon="5.56944">
        <ele>441</ele>
        <time>2022-02-15T08:08:05.000Z</time>
      </trkpt>
      <trkpt lat="43.52882" lon="5.56944">
        <ele>441</ele>
        <time>2022-02-15T08:08:06.000Z</time>
      </trkpt>
      <trkpt lat="43.52882" lon="5.56944">
        <ele>441</ele>
        <time>2022-02-15T08:08:07.000Z</time>
      </trkpt>
      <trkpt lat="43.52882" lon="5.56944">
        <ele>441</ele>
        <time>2022-02-15T08:08:08.000Z</time>
      </trkpt>
      <trkpt lat="43.52882" lon="5.56944">
        <ele>441</ele>
        <time>2022-02-15T08:08:09.000Z</time>
      </trkpt>
      <trkpt lat="43.52883" lon="5.56944">
        <ele>441</ele>
        <time>2022-02-15T08:08:10.000Z</time>
      </trkpt>
      <trkpt lat="43.52883" lon="5.56944">
        <ele>441</ele>
        <time>2022-02-15T08:08:11.000Z</time>
      </trkpt>
      <trkpt lat="43.52883" lon="5.56944">
        <ele>442</ele>
        <time>2022-02-15T08:08:12.000Z</time>
      </trkpt>
      <trkpt lat="43.52883" lon="5.56944">
        <ele>442</ele>
        <time>2022-02-15T08:08:13.000Z</time>
      </trkpt>
      <trkpt lat="43.52883" lon="5.56944">
        <ele>442</ele>
        <time>2022-02-15T08:08:14.000Z</time>
      </trkpt>
      <trkpt lat="43.52883" lon="5.56944">
        <ele>442</ele>
        <time>2022-02-15T08:08:15.000Z</time>
      </trkpt>
      <trkpt lat="43.52883" lon="5.56945">
        <ele>442</ele>
        <time>2022-02-15T08:08:16.000Z</time>
      </trkpt>
      <trkpt lat="43.52883" lon="5.56945">
        <ele>442</ele>
        <time>2022-02-15T08:08:17.000Z</time>
      </trkpt>
      <trkpt lat="43.52883" lon="5.56945">
        <ele>442</ele>
        <time>2022-02-15T08:08:18.000Z</time>
      </trkpt>
      <trkpt lat="43.52883" lon="5.56945">
        <ele>442</ele>
        <time>2022-02-15T08:08:19.000Z</time>
      </trkpt>
      <trkpt lat="43.52883" lon="5.56945">
        <ele>442</ele>
        <time>2022-02-15T08:08:20.000Z</time>
      </trkpt>
      <trkpt lat="43.52883" lon="5.56944">
        <ele>442</ele>
        <time>2022-02-15T08:08:21.000Z</time>
      </trkpt>
      <trkpt lat="43.52883" lon="5.56944">
        <ele>442</ele>
        <time>2022-02-15T08:08:22.000Z</time>
      </trkpt>
      <trkpt lat="43.52883" lon="5.56944">
        <ele>442</ele>
        <time>2022-02-15T08:08:23.000Z</time>
      </trkpt>
      <trkpt lat="43.52883" lon="5.56945">
        <ele>442</ele>
        <time>2022-02-15T08:08:24.000Z</time>
      </trkpt>
      <trkpt lat="43.52883" lon="5.56945">
        <ele>442</ele>
        <time>2022-02-15T08:08:25.000Z</time>
      </trkpt>
      <trkpt lat="43.52883" lon="5.56945">
        <ele>442</ele>
        <time>2022-02-15T08:08:26.000Z</time>
      </trkpt>
      <trkpt lat="43.52883" lon="5.56945">
        <ele>442</ele>
        <time>2022-02-15T08:08:27.000Z</time>
      </trkpt>
      <trkpt lat="43.52884" lon="5.56945">
        <ele>442</ele>
        <time>2022-02-15T08:08:28.000Z</time>
      </trkpt>
      <trkpt lat="43.52884" lon="5.56945">
        <ele>442</ele>
        <time>2022-02-15T08:08:29.000Z</time>
      </trkpt>
      <trkpt lat="43.52883" lon="5.56945">
        <ele>442</ele>
        <time>2022-02-15T08:08:30.000Z</time>
      </trkpt>
      <trkpt lat="43.52884" lon="5.56945">
        <ele>442</ele>
        <time>2022-02-15T08:08:31.000Z</time>
      </trkpt>
      <trkpt lat="43.52884" lon="5.56945">
        <ele>442</ele>
        <time>2022-02-15T08:08:32.000Z</time>
      </trkpt>
      <trkpt lat="43.52884" lon="5.56945">
        <ele>442</ele>
        <time>2022-02-15T08:08:33.000Z</time>
      </trkpt>
      <trkpt lat="43.52884" lon="5.56945">
        <ele>442</ele>
        <time>2022-02-15T08:08:34.000Z</time>
      </trkpt>
      <trkpt lat="43.52884" lon="5.56945">
        <ele>442</ele>
        <time>2022-02-15T08:08:35.000Z</time>
      </trkpt>
      <trkpt lat="43.52884" lon="5.56945">
        <ele>442</ele>
        <time>2022-02-15T08:08:36.000Z</time>
      </trkpt>
      <trkpt lat="43.52883" lon="5.56946">
        <ele>442</ele>
        <time>2022-02-15T08:08:37.000Z</time>
      </trkpt>
      <trkpt lat="43.52883" lon="5.56946">
        <ele>442</ele>
        <time>2022-02-15T08:08:38.000Z</time>
      </trkpt>
      <trkpt lat="43.52882" lon="5.56947">
        <ele>442</ele>
        <time>2022-02-15T08:08:39.000Z</time>
      </trkpt>
      <trkpt lat="43.52881" lon="5.56948">
        <ele>442</ele>
        <time>2022-02-15T08:08:40.000Z</time>
      </trkpt>
      <trkpt lat="43.52881" lon="5.56949">
        <ele>442</ele>
        <time>2022-02-15T08:08:41.000Z</time>
      </trkpt>
      <trkpt lat="43.5288" lon="5.5695">
        <ele>442</ele>
        <time>2022-02-15T08:08:42.000Z</time>
      </trkpt>
      <trkpt lat="43.5288" lon="5.56951">
        <ele>442</ele>
        <time>2022-02-15T08:08:43.000Z</time>
      </trkpt>
      <trkpt lat="43.52879" lon="5.56952">
        <ele>442</ele>
        <time>2022-02-15T08:08:44.000Z</time>
      </trkpt>
      <trkpt lat="43.52878" lon="5.56953">
        <ele>442</ele>
        <time>2022-02-15T08:08:45.000Z</time>
      </trkpt>
      <trkpt lat="43.52878" lon="5.56954">
        <ele>442</ele>
        <time>2022-02-15T08:08:46.000Z</time>
      </trkpt>
      <trkpt lat="43.52877" lon="5.56955">
        <ele>442</ele>
        <time>2022-02-15T08:08:47.000Z</time>
      </trkpt>
      <trkpt lat="43.52877" lon="5.56956">
        <ele>442</ele>
        <time>2022-02-15T08:08:48.000Z</time>
      </trkpt>
      <trkpt lat="43.52877" lon="5.56957">
        <ele>442</ele>
        <time>2022-02-15T08:08:49.000Z</time>
      </trkpt>
      <trkpt lat="43.52877" lon="5.56958">
        <ele>442</ele>
        <time>2022-02-15T08:08:50.000Z</time>
      </trkpt>
      <trkpt lat="43.52877" lon="5.56959">
        <ele>442</ele>
        <time>2022-02-15T08:08:51.000Z</time>
      </trkpt>
      <trkpt lat="43.52877" lon="5.56959">
        <ele>442</ele>
        <time>2022-02-15T08:08:52.000Z</time>
      </trkpt>
      <trkpt lat="43.52877" lon="5.56959">
        <ele>442</ele>
        <time>2022-02-15T08:08:53.000Z</time>
      </trkpt>
      <trkpt lat="43.52876" lon="5.5696">
        <ele>442</ele>
        <time>2022-02-15T08:08:54.000Z</time>
      </trkpt>
      <trkpt lat="43.52876" lon="5.5696">
        <ele>442</ele>
        <time>2022-02-15T08:08:55.000Z</time>
      </trkpt>
      <trkpt lat="43.52877" lon="5.5696">
        <ele>442</ele>
        <time>2022-02-15T08:08:56.000Z</time>
      </trkpt>
      <trkpt lat="43.52877" lon="5.5696">
        <ele>443</ele>
        <time>2022-02-15T08:08:57.000Z</time>
      </trkpt>
      <trkpt lat="43.52877" lon="5.5696">
        <ele>443</ele>
        <time>2022-02-15T08:08:58.000Z</time>
      </trkpt>
      <trkpt lat="43.52877" lon="5.5696">
        <ele>443</ele>
        <time>2022-02-15T08:08:59.000Z</time>
      </trkpt>
      <trkpt lat="43.52877" lon="5.5696">
        <ele>443</ele>
        <time>2022-02-15T08:09:00.000Z</time>
      </trkpt>
      <trkpt lat="43.52877" lon="5.5696">
        <ele>443</ele>
        <time>2022-02-15T08:09:01.000Z</time>
      </trkpt>
      <trkpt lat="43.52876" lon="5.5696">
        <ele>443</ele>
        <time>2022-02-15T08:09:02.000Z</time>
      </trkpt>
      <trkpt lat="43.52876" lon="5.5696">
        <ele>443</ele>
        <time>2022-02-15T08:09:03.000Z</time>
      </trkpt>
      <trkpt lat="43.52877" lon="5.5696">
        <ele>443</ele>
        <time>2022-02-15T08:09:04.000Z</time>
      </trkpt>
      <trkpt lat="43.52877" lon="5.5696">
        <ele>443</ele>
        <time>2022-02-15T08:09:05.000Z</time>
      </trkpt>
      <trkpt lat="43.52876" lon="5.56961">
        <ele>443</ele>
        <time>2022-02-15T08:09:06.000Z</time>
      </trkpt>
      <trkpt lat="43.52876" lon="5.56961">
        <ele>443</ele>
        <time>2022-02-15T08:09:07.000Z</time>
      </trkpt>
      <trkpt lat="43.52876" lon="5.56962">
        <ele>443</ele>
        <time>2022-02-15T08:09:08.000Z</time>
      </trkpt>
      <trkpt lat="43.52875" lon="5.56963">
        <ele>443</ele>
        <time>2022-02-15T08:09:09.000Z</time>
      </trkpt>
      <trkpt lat="43.52875" lon="5.56964">
        <ele>443</ele>
        <time>2022-02-15T08:09:10.000Z</time>
      </trkpt>
      <trkpt lat="43.52875" lon="5.56965">
        <ele>443</ele>
        <time>2022-02-15T08:09:11.000Z</time>
      </trkpt>
      <trkpt lat="43.52875" lon="5.56966">
        <ele>443</ele>
        <time>2022-02-15T08:09:12.000Z</time>
      </trkpt>
      <trkpt lat="43.52874" lon="5.56966">
        <ele>443</ele>
        <time>2022-02-15T08:09:13.000Z</time>
      </trkpt>
      <trkpt lat="43.52874" lon="5.56967">
        <ele>443</ele>
        <time>2022-02-15T08:09:14.000Z</time>
      </trkpt>
      <trkpt lat="43.52873" lon="5.56968">
        <ele>443</ele>
        <time>2022-02-15T08:09:15.000Z</time>
      </trkpt>
      <trkpt lat="43.52873" lon="5.56968">
        <ele>443</ele>
        <time>2022-02-15T08:09:16.000Z</time>
      </trkpt>
      <trkpt lat="43.52873" lon="5.56969">
        <ele>443</ele>
        <time>2022-02-15T08:09:17.000Z</time>
      </trkpt>
      <trkpt lat="43.52873" lon="5.5697">
        <ele>443</ele>
        <time>2022-02-15T08:09:18.000Z</time>
      </trkpt>
      <trkpt lat="43.52873" lon="5.5697">
        <ele>443</ele>
        <time>2022-02-15T08:09:19.000Z</time>
      </trkpt>
      <trkpt lat="43.52873" lon="5.56971">
        <ele>443</ele>
        <time>2022-02-15T08:09:20.000Z</time>
      </trkpt>
      <trkpt lat="43.52873" lon="5.56972">
        <ele>444</ele>
        <time>2022-02-15T08:09:21.000Z</time>
      </trkpt>
      <trkpt lat="43.52873" lon="5.56973">
        <ele>444</ele>
        <time>2022-02-15T08:09:22.000Z</time>
      </trkpt>
      <trkpt lat="43.52873" lon="5.56974">
        <ele>444</ele>
        <time>2022-02-15T08:09:23.000Z</time>
      </trkpt>
      <trkpt lat="43.52872" lon="5.56975">
        <ele>444</ele>
        <time>2022-02-15T08:09:24.000Z</time>
      </trkpt>
      <trkpt lat="43.52872" lon="5.56975">
        <ele>444</ele>
        <time>2022-02-15T08:09:25.000Z</time>
      </trkpt>
      <trkpt lat="43.52872" lon="5.56976">
        <ele>444</ele>
        <time>2022-02-15T08:09:26.000Z</time>
      </trkpt>
      <trkpt lat="43.52871" lon="5.56977">
        <ele>444</ele>
        <time>2022-02-15T08:09:27.000Z</time>
      </trkpt>
      <trkpt lat="43.52871" lon="5.56977">
        <ele>444</ele>
        <time>2022-02-15T08:09:28.000Z</time>
      </trkpt>
      <trkpt lat="43.52871" lon="5.56978">
        <ele>444</ele>
        <time>2022-02-15T08:09:29.000Z</time>
      </trkpt>
      <trkpt lat="43.52871" lon="5.56978">
        <ele>445</ele>
        <time>2022-02-15T08:09:30.000Z</time>
      </trkpt>
      <trkpt lat="43.52871" lon="5.56979">
        <ele>445</ele>
        <time>2022-02-15T08:09:31.000Z</time>
      </trkpt>
      <trkpt lat="43.52871" lon="5.56979">
        <ele>445</ele>
        <time>2022-02-15T08:09:32.000Z</time>
      </trkpt>
      <trkpt lat="43.52872" lon="5.56979">
        <ele>445</ele>
        <time>2022-02-15T08:09:33.000Z</time>
      </trkpt>
      <trkpt lat="43.52872" lon="5.5698">
        <ele>445</ele>
        <time>2022-02-15T08:09:34.000Z</time>
      </trkpt>
      <trkpt lat="43.52872" lon="5.5698">
        <ele>445</ele>
        <time>2022-02-15T08:09:35.000Z</time>
      </trkpt>
      <trkpt lat="43.52872" lon="5.56981">
        <ele>445</ele>
        <time>2022-02-15T08:09:36.000Z</time>
      </trkpt>
      <trkpt lat="43.52872" lon="5.56982">
        <ele>445</ele>
        <time>2022-02-15T08:09:37.000Z</time>
      </trkpt>
      <trkpt lat="43.52872" lon="5.56982">
        <ele>445</ele>
        <time>2022-02-15T08:09:38.000Z</time>
      </trkpt>
      <trkpt lat="43.52872" lon="5.56983">
        <ele>445</ele>
        <time>2022-02-15T08:09:39.000Z</time>
      </trkpt>
      <trkpt lat="43.52871" lon="5.56983">
        <ele>445</ele>
        <time>2022-02-15T08:09:40.000Z</time>
      </trkpt>
      <trkpt lat="43.52871" lon="5.56984">
        <ele>445</ele>
        <time>2022-02-15T08:09:41.000Z</time>
      </trkpt>
      <trkpt lat="43.52871" lon="5.56984">
        <ele>445</ele>
        <time>2022-02-15T08:09:42.000Z</time>
      </trkpt>
      <trkpt lat="43.52871" lon="5.56985">
        <ele>446</ele>
        <time>2022-02-15T08:09:43.000Z</time>
      </trkpt>
      <trkpt lat="43.52871" lon="5.56985">
        <ele>446</ele>
        <time>2022-02-15T08:09:44.000Z</time>
      </trkpt>
      <trkpt lat="43.52872" lon="5.56986">
        <ele>446</ele>
        <time>2022-02-15T08:09:45.000Z</time>
      </trkpt>
      <trkpt lat="43.52872" lon="5.56986">
        <ele>446</ele>
        <time>2022-02-15T08:09:46.000Z</time>
      </trkpt>
      <trkpt lat="43.52873" lon="5.56986">
        <ele>446</ele>
        <time>2022-02-15T08:09:47.000Z</time>
      </trkpt>
      <trkpt lat="43.52874" lon="5.56987">
        <ele>446</ele>
        <time>2022-02-15T08:09:48.000Z</time>
      </trkpt>
      <trkpt lat="43.52875" lon="5.56987">
        <ele>446</ele>
        <time>2022-02-15T08:09:49.000Z</time>
      </trkpt>
      <trkpt lat="43.52875" lon="5.56988">
        <ele>447</ele>
        <time>2022-02-15T08:09:50.000Z</time>
      </trkpt>
      <trkpt lat="43.52876" lon="5.56989">
        <ele>447</ele>
        <time>2022-02-15T08:09:51.000Z</time>
      </trkpt>
      <trkpt lat="43.52877" lon="5.56989">
        <ele>447</ele>
        <time>2022-02-15T08:09:52.000Z</time>
      </trkpt>
      <trkpt lat="43.52877" lon="5.5699">
        <ele>447</ele>
        <time>2022-02-15T08:09:53.000Z</time>
      </trkpt>
      <trkpt lat="43.52878" lon="5.56991">
        <ele>447</ele>
        <time>2022-02-15T08:09:54.000Z</time>
      </trkpt>
      <trkpt lat="43.52879" lon="5.56991">
        <ele>447</ele>
        <time>2022-02-15T08:09:55.000Z</time>
      </trkpt>
      <trkpt lat="43.52879" lon="5.56992">
        <ele>447</ele>
        <time>2022-02-15T08:09:56.000Z</time>
      </trkpt>
      <trkpt lat="43.5288" lon="5.56993">
        <ele>448</ele>
        <time>2022-02-15T08:09:57.000Z</time>
      </trkpt>
      <trkpt lat="43.5288" lon="5.56994">
        <ele>448</ele>
        <time>2022-02-15T08:09:58.000Z</time>
      </trkpt>
      <trkpt lat="43.52881" lon="5.56995">
        <ele>448</ele>
        <time>2022-02-15T08:09:59.000Z</time>
      </trkpt>
      <trkpt lat="43.52881" lon="5.56996">
        <ele>448</ele>
        <time>2022-02-15T08:10:00.000Z</time>
      </trkpt>
      <trkpt lat="43.52882" lon="5.56997">
        <ele>448</ele>
        <time>2022-02-15T08:10:01.000Z</time>
      </trkpt>
      <trkpt lat="43.52882" lon="5.56998">
        <ele>448</ele>
        <time>2022-02-15T08:10:02.000Z</time>
      </trkpt>
      <trkpt lat="43.52882" lon="5.56999">
        <ele>448</ele>
        <time>2022-02-15T08:10:03.000Z</time>
      </trkpt>
      <trkpt lat="43.52883" lon="5.57">
        <ele>449</ele>
        <time>2022-02-15T08:10:04.000Z</time>
      </trkpt>
      <trkpt lat="43.52883" lon="5.57">
        <ele>449</ele>
        <time>2022-02-15T08:10:05.000Z</time>
      </trkpt>
      <trkpt lat="43.52883" lon="5.57001">
        <ele>449</ele>
        <time>2022-02-15T08:10:06.000Z</time>
      </trkpt>
      <trkpt lat="43.52884" lon="5.57002">
        <ele>449</ele>
        <time>2022-02-15T08:10:07.000Z</time>
      </trkpt>
      <trkpt lat="43.52885" lon="5.57003">
        <ele>449</ele>
        <time>2022-02-15T08:10:08.000Z</time>
      </trkpt>
      <trkpt lat="43.52885" lon="5.57004">
        <ele>449</ele>
        <time>2022-02-15T08:10:09.000Z</time>
      </trkpt>
      <trkpt lat="43.52886" lon="5.57005">
        <ele>449</ele>
        <time>2022-02-15T08:10:10.000Z</time>
      </trkpt>
      <trkpt lat="43.52886" lon="5.57006">
        <ele>449</ele>
        <time>2022-02-15T08:10:11.000Z</time>
      </trkpt>
      <trkpt lat="43.52886" lon="5.57007">
        <ele>449</ele>
        <time>2022-02-15T08:10:12.000Z</time>
      </trkpt>
      <trkpt lat="43.52887" lon="5.57008">
        <ele>449</ele>
        <time>2022-02-15T08:10:13.000Z</time>
      </trkpt>
      <trkpt lat="43.52887" lon="5.57009">
        <ele>449</ele>
        <time>2022-02-15T08:10:14.000Z</time>
      </trkpt>
      <trkpt lat="43.52888" lon="5.5701">
        <ele>449</ele>
        <time>2022-02-15T08:10:15.000Z</time>
      </trkpt>
      <trkpt lat="43.52888" lon="5.57011">
        <ele>450</ele>
        <time>2022-02-15T08:10:16.000Z</time>
      </trkpt>
      <trkpt lat="43.52888" lon="5.57012">
        <ele>450</ele>
        <time>2022-02-15T08:10:17.000Z</time>
      </trkpt>
      <trkpt lat="43.52888" lon="5.57013">
        <ele>450</ele>
        <time>2022-02-15T08:10:18.000Z</time>
      </trkpt>
      <trkpt lat="43.52889" lon="5.57015">
        <ele>450</ele>
        <time>2022-02-15T08:10:19.000Z</time>
      </trkpt>
      <trkpt lat="43.52889" lon="5.57015">
        <ele>450</ele>
        <time>2022-02-15T08:10:20.000Z</time>
      </trkpt>
      <trkpt lat="43.52889" lon="5.57016">
        <ele>450</ele>
        <time>2022-02-15T08:10:21.000Z</time>
      </trkpt>
      <trkpt lat="43.52889" lon="5.57016">
        <ele>450</ele>
        <time>2022-02-15T08:10:22.000Z</time>
      </trkpt>
      <trkpt lat="43.52889" lon="5.57016">
        <ele>450</ele>
        <time>2022-02-15T08:10:23.000Z</time>
      </trkpt>
      <trkpt lat="43.52889" lon="5.57015">
        <ele>451</ele>
        <time>2022-02-15T08:10:24.000Z</time>
      </trkpt>
      <trkpt lat="43.52889" lon="5.57015">
        <ele>451</ele>
        <time>2022-02-15T08:10:25.000Z</time>
      </trkpt>
      <trkpt lat="43.52889" lon="5.57015">
        <ele>451</ele>
        <time>2022-02-15T08:10:26.000Z</time>
      </trkpt>
      <trkpt lat="43.52889" lon="5.57015">
        <ele>451</ele>
        <time>2022-02-15T08:10:27.000Z</time>
      </trkpt>
      <trkpt lat="43.52889" lon="5.57016">
        <ele>451</ele>
        <time>2022-02-15T08:10:28.000Z</time>
      </trkpt>
      <trkpt lat="43.52889" lon="5.57016">
        <ele>451</ele>
        <time>2022-02-15T08:10:29.000Z</time>
      </trkpt>
      <trkpt lat="43.52889" lon="5.57017">
        <ele>451</ele>
        <time>2022-02-15T08:10:30.000Z</time>
      </trkpt>
      <trkpt lat="43.52889" lon="5.57018">
        <ele>451</ele>
        <time>2022-02-15T08:10:31.000Z</time>
      </trkpt>
      <trkpt lat="43.52889" lon="5.57018">
        <ele>451</ele>
        <time>2022-02-15T08:10:32.000Z</time>
      </trkpt>
      <trkpt lat="43.52889" lon="5.57019">
        <ele>451</ele>
        <time>2022-02-15T08:10:33.000Z</time>
      </trkpt>
      <trkpt lat="43.52889" lon="5.5702">
        <ele>451</ele>
        <time>2022-02-15T08:10:34.000Z</time>
      </trkpt>
      <trkpt lat="43.52889" lon="5.57021">
        <ele>451</ele>
        <time>2022-02-15T08:10:35.000Z</time>
      </trkpt>
      <trkpt lat="43.52889" lon="5.57022">
        <ele>451</ele>
        <time>2022-02-15T08:10:36.000Z</time>
      </trkpt>
      <trkpt lat="43.52889" lon="5.57023">
        <ele>451</ele>
        <time>2022-02-15T08:10:37.000Z</time>
      </trkpt>
      <trkpt lat="43.52889" lon="5.57024">
        <ele>451</ele>
        <time>2022-02-15T08:10:38.000Z</time>
      </trkpt>
      <trkpt lat="43.52889" lon="5.57025">
        <ele>451</ele>
        <time>2022-02-15T08:10:39.000Z</time>
      </trkpt>
      <trkpt lat="43.52889" lon="5.57026">
        <ele>451</ele>
        <time>2022-02-15T08:10:40.000Z</time>
      </trkpt>
      <trkpt lat="43.52889" lon="5.57027">
        <ele>451</ele>
        <time>2022-02-15T08:10:41.000Z</time>
      </trkpt>
      <trkpt lat="43.5289" lon="5.57028">
        <ele>451</ele>
        <time>2022-02-15T08:10:42.000Z</time>
      </trkpt>
      <trkpt lat="43.5289" lon="5.57029">
        <ele>451</ele>
        <time>2022-02-15T08:10:43.000Z</time>
      </trkpt>
      <trkpt lat="43.5289" lon="5.57029">
        <ele>451</ele>
        <time>2022-02-15T08:10:44.000Z</time>
      </trkpt>
      <trkpt lat="43.5289" lon="5.57029">
        <ele>451</ele>
        <time>2022-02-15T08:10:45.000Z</time>
      </trkpt>
      <trkpt lat="43.5289" lon="5.57029">
        <ele>451</ele>
        <time>2022-02-15T08:10:46.000Z</time>
      </trkpt>
      <trkpt lat="43.5289" lon="5.57029">
        <ele>451</ele>
        <time>2022-02-15T08:10:47.000Z</time>
      </trkpt>
      <trkpt lat="43.5289" lon="5.57029">
        <ele>451</ele>
        <time>2022-02-15T08:10:48.000Z</time>
      </trkpt>
      <trkpt lat="43.5289" lon="5.57029">
        <ele>451</ele>
        <time>2022-02-15T08:10:49.000Z</time>
      </trkpt>
      <trkpt lat="43.5289" lon="5.57029">
        <ele>451</ele>
        <time>2022-02-15T08:10:50.000Z</time>
      </trkpt>
      <trkpt lat="43.5289" lon="5.57029">
        <ele>451</ele>
        <time>2022-02-15T08:10:51.000Z</time>
      </trkpt>
      <trkpt lat="43.5289" lon="5.57029">
        <ele>451</ele>
        <time>2022-02-15T08:10:52.000Z</time>
      </trkpt>
      <trkpt lat="43.5289" lon="5.57029">
        <ele>451</ele>
        <time>2022-02-15T08:10:53.000Z</time>
      </trkpt>
      <trkpt lat="43.5289" lon="5.5703">
        <ele>451</ele>
        <time>2022-02-15T08:10:54.000Z</time>
      </trkpt>
      <trkpt lat="43.52891" lon="5.5703">
        <ele>451</ele>
        <time>2022-02-15T08:10:55.000Z</time>
      </trkpt>
      <trkpt lat="43.52891" lon="5.5703">
        <ele>451</ele>
        <time>2022-02-15T08:10:56.000Z</time>
      </trkpt>
      <trkpt lat="43.52891" lon="5.5703">
        <ele>451</ele>
        <time>2022-02-15T08:10:57.000Z</time>
      </trkpt>
      <trkpt lat="43.52891" lon="5.5703">
        <ele>451</ele>
        <time>2022-02-15T08:10:58.000Z</time>
      </trkpt>
      <trkpt lat="43.52891" lon="5.57031">
        <ele>451</ele>
        <time>2022-02-15T08:10:59.000Z</time>
      </trkpt>
      <trkpt lat="43.52891" lon="5.57032">
        <ele>451</ele>
        <time>2022-02-15T08:11:00.000Z</time>
      </trkpt>
      <trkpt lat="43.52892" lon="5.57033">
        <ele>451</ele>
        <time>2022-02-15T08:11:01.000Z</time>
      </trkpt>
      <trkpt lat="43.52892" lon="5.57033">
        <ele>451</ele>
        <time>2022-02-15T08:11:02.000Z</time>
      </trkpt>
      <trkpt lat="43.52892" lon="5.57035">
        <ele>451</ele>
        <time>2022-02-15T08:11:03.000Z</time>
      </trkpt>
      <trkpt lat="43.52893" lon="5.57036">
        <ele>451</ele>
        <time>2022-02-15T08:11:04.000Z</time>
      </trkpt>
      <trkpt lat="43.52894" lon="5.57036">
        <ele>451</ele>
        <time>2022-02-15T08:11:05.000Z</time>
      </trkpt>
      <trkpt lat="43.52894" lon="5.57037">
        <ele>452</ele>
        <time>2022-02-15T08:11:06.000Z</time>
      </trkpt>
      <trkpt lat="43.52894" lon="5.57038">
        <ele>452</ele>
        <time>2022-02-15T08:11:07.000Z</time>
      </trkpt>
      <trkpt lat="43.52895" lon="5.57039">
        <ele>452</ele>
        <time>2022-02-15T08:11:08.000Z</time>
      </trkpt>
      <trkpt lat="43.52895" lon="5.5704">
        <ele>452</ele>
        <time>2022-02-15T08:11:09.000Z</time>
      </trkpt>
      <trkpt lat="43.52895" lon="5.57041">
        <ele>452</ele>
        <time>2022-02-15T08:11:10.000Z</time>
      </trkpt>
      <trkpt lat="43.52895" lon="5.57042">
        <ele>452</ele>
        <time>2022-02-15T08:11:11.000Z</time>
      </trkpt>
      <trkpt lat="43.52896" lon="5.57043">
        <ele>452</ele>
        <time>2022-02-15T08:11:12.000Z</time>
      </trkpt>
      <trkpt lat="43.52896" lon="5.57044">
        <ele>452</ele>
        <time>2022-02-15T08:11:13.000Z</time>
      </trkpt>
      <trkpt lat="43.52896" lon="5.57045">
        <ele>453</ele>
        <time>2022-02-15T08:11:14.000Z</time>
      </trkpt>
      <trkpt lat="43.52896" lon="5.57047">
        <ele>453</ele>
        <time>2022-02-15T08:11:15.000Z</time>
      </trkpt>
      <trkpt lat="43.52896" lon="5.57048">
        <ele>453</ele>
        <time>2022-02-15T08:11:16.000Z</time>
      </trkpt>
      <trkpt lat="43.52896" lon="5.57049">
        <ele>453</ele>
        <time>2022-02-15T08:11:17.000Z</time>
      </trkpt>
      <trkpt lat="43.52896" lon="5.5705">
        <ele>453</ele>
        <time>2022-02-15T08:11:18.000Z</time>
      </trkpt>
      <trkpt lat="43.52896" lon="5.57051">
        <ele>454</ele>
        <time>2022-02-15T08:11:19.000Z</time>
      </trkpt>
      <trkpt lat="43.52895" lon="5.57052">
        <ele>454</ele>
        <time>2022-02-15T08:11:20.000Z</time>
      </trkpt>
      <trkpt lat="43.52895" lon="5.57053">
        <ele>454</ele>
        <time>2022-02-15T08:11:21.000Z</time>
      </trkpt>
      <trkpt lat="43.52895" lon="5.57054">
        <ele>454</ele>
        <time>2022-02-15T08:11:22.000Z</time>
      </trkpt>
      <trkpt lat="43.52895" lon="5.57055">
        <ele>454</ele>
        <time>2022-02-15T08:11:23.000Z</time>
      </trkpt>
      <trkpt lat="43.52895" lon="5.57055">
        <ele>454</ele>
        <time>2022-02-15T08:11:24.000Z</time>
      </trkpt>
      <trkpt lat="43.52896" lon="5.57056">
        <ele>455</ele>
        <time>2022-02-15T08:11:25.000Z</time>
      </trkpt>
      <trkpt lat="43.52896" lon="5.57057">
        <ele>455</ele>
        <time>2022-02-15T08:11:26.000Z</time>
      </trkpt>
      <trkpt lat="43.52897" lon="5.57057">
        <ele>455</ele>
        <time>2022-02-15T08:11:27.000Z</time>
      </trkpt>
      <trkpt lat="43.52897" lon="5.57058">
        <ele>455</ele>
        <time>2022-02-15T08:11:28.000Z</time>
      </trkpt>
      <trkpt lat="43.52898" lon="5.57058">
        <ele>455</ele>
        <time>2022-02-15T08:11:29.000Z</time>
      </trkpt>
      <trkpt lat="43.52898" lon="5.57059">
        <ele>455</ele>
        <time>2022-02-15T08:11:30.000Z</time>
      </trkpt>
      <trkpt lat="43.52897" lon="5.57059">
        <ele>455</ele>
        <time>2022-02-15T08:11:31.000Z</time>
      </trkpt>
      <trkpt lat="43.52898" lon="5.57059">
        <ele>456</ele>
        <time>2022-02-15T08:11:32.000Z</time>
      </trkpt>
      <trkpt lat="43.52898" lon="5.57059">
        <ele>456</ele>
        <time>2022-02-15T08:11:33.000Z</time>
      </trkpt>
      <trkpt lat="43.52898" lon="5.57059">
        <ele>456</ele>
        <time>2022-02-15T08:11:34.000Z</time>
      </trkpt>
      <trkpt lat="43.52898" lon="5.57059">
        <ele>456</ele>
        <time>2022-02-15T08:11:35.000Z</time>
      </trkpt>
      <trkpt lat="43.52898" lon="5.57059">
        <ele>456</ele>
        <time>2022-02-15T08:11:36.000Z</time>
      </trkpt>
      <trkpt lat="43.52898" lon="5.57059">
        <ele>456</ele>
        <time>2022-02-15T08:11:37.000Z</time>
      </trkpt>
      <trkpt lat="43.52898" lon="5.5706">
        <ele>456</ele>
        <time>2022-02-15T08:11:38.000Z</time>
      </trkpt>
      <trkpt lat="43.52898" lon="5.5706">
        <ele>456</ele>
        <time>2022-02-15T08:11:39.000Z</time>
      </trkpt>
      <trkpt lat="43.52898" lon="5.5706">
        <ele>456</ele>
        <time>2022-02-15T08:11:40.000Z</time>
      </trkpt>
      <trkpt lat="43.52898" lon="5.5706">
        <ele>456</ele>
        <time>2022-02-15T08:11:41.000Z</time>
      </trkpt>
      <trkpt lat="43.52898" lon="5.57059">
        <ele>456</ele>
        <time>2022-02-15T08:11:42.000Z</time>
      </trkpt>
      <trkpt lat="43.52897" lon="5.5706">
        <ele>456</ele>
        <time>2022-02-15T08:11:43.000Z</time>
      </trkpt>
      <trkpt lat="43.52897" lon="5.5706">
        <ele>456</ele>
        <time>2022-02-15T08:11:44.000Z</time>
      </trkpt>
      <trkpt lat="43.52898" lon="5.57059">
        <ele>456</ele>
        <time>2022-02-15T08:11:45.000Z</time>
      </trkpt>
      <trkpt lat="43.52898" lon="5.57059">
        <ele>456</ele>
        <time>2022-02-15T08:11:46.000Z</time>
      </trkpt>
      <trkpt lat="43.52898" lon="5.5706">
        <ele>457</ele>
        <time>2022-02-15T08:11:47.000Z</time>
      </trkpt>
      <trkpt lat="43.52898" lon="5.5706">
        <ele>457</ele>
        <time>2022-02-15T08:11:48.000Z</time>
      </trkpt>
      <trkpt lat="43.52897" lon="5.5706">
        <ele>457</ele>
        <time>2022-02-15T08:11:49.000Z</time>
      </trkpt>
      <trkpt lat="43.52897" lon="5.5706">
        <ele>457</ele>
        <time>2022-02-15T08:11:50.000Z</time>
      </trkpt>
      <trkpt lat="43.52897" lon="5.5706">
        <ele>457</ele>
        <time>2022-02-15T08:11:51.000Z</time>
      </trkpt>
      <trkpt lat="43.52897" lon="5.5706">
        <ele>457</ele>
        <time>2022-02-15T08:11:52.000Z</time>
      </trkpt>
      <trkpt lat="43.52897" lon="5.5706">
        <ele>457</ele>
        <time>2022-02-15T08:11:53.000Z</time>
      </trkpt>
      <trkpt lat="43.52897" lon="5.5706">
        <ele>457</ele>
        <time>2022-02-15T08:11:54.000Z</time>
      </trkpt>
      <trkpt lat="43.52897" lon="5.5706">
        <ele>457</ele>
        <time>2022-02-15T08:11:55.000Z</time>
      </trkpt>
      <trkpt lat="43.52898" lon="5.57061">
        <ele>457</ele>
        <time>2022-02-15T08:11:56.000Z</time>
      </trkpt>
      <trkpt lat="43.52898" lon="5.57061">
        <ele>457</ele>
        <time>2022-02-15T08:11:57.000Z</time>
      </trkpt>
      <trkpt lat="43.52898" lon="5.57062">
        <ele>457</ele>
        <time>2022-02-15T08:11:58.000Z</time>
      </trkpt>
      <trkpt lat="43.52899" lon="5.57062">
        <ele>457</ele>
        <time>2022-02-15T08:11:59.000Z</time>
      </trkpt>
      <trkpt lat="43.52899" lon="5.57062">
        <ele>457</ele>
        <time>2022-02-15T08:12:00.000Z</time>
      </trkpt>
      <trkpt lat="43.529" lon="5.57063">
        <ele>457</ele>
        <time>2022-02-15T08:12:01.000Z</time>
      </trkpt>
      <trkpt lat="43.529" lon="5.57063">
        <ele>457</ele>
        <time>2022-02-15T08:12:02.000Z</time>
      </trkpt>
      <trkpt lat="43.52901" lon="5.57064">
        <ele>458</ele>
        <time>2022-02-15T08:12:03.000Z</time>
      </trkpt>
      <trkpt lat="43.52901" lon="5.57065">
        <ele>458</ele>
        <time>2022-02-15T08:12:04.000Z</time>
      </trkpt>
      <trkpt lat="43.52902" lon="5.57066">
        <ele>458</ele>
        <time>2022-02-15T08:12:05.000Z</time>
      </trkpt>
      <trkpt lat="43.52902" lon="5.57066">
        <ele>458</ele>
        <time>2022-02-15T08:12:06.000Z</time>
      </trkpt>
      <trkpt lat="43.52903" lon="5.57067">
        <ele>458</ele>
        <time>2022-02-15T08:12:07.000Z</time>
      </trkpt>
      <trkpt lat="43.52903" lon="5.57067">
        <ele>458</ele>
        <time>2022-02-15T08:12:08.000Z</time>
      </trkpt>
      <trkpt lat="43.52904" lon="5.57067">
        <ele>459</ele>
        <time>2022-02-15T08:12:09.000Z</time>
      </trkpt>
      <trkpt lat="43.52904" lon="5.57068">
        <ele>459</ele>
        <time>2022-02-15T08:12:10.000Z</time>
      </trkpt>
      <trkpt lat="43.52905" lon="5.57068">
        <ele>459</ele>
        <time>2022-02-15T08:12:11.000Z</time>
      </trkpt>
      <trkpt lat="43.52905" lon="5.57069">
        <ele>459</ele>
        <time>2022-02-15T08:12:12.000Z</time>
      </trkpt>
      <trkpt lat="43.52906" lon="5.57069">
        <ele>459</ele>
        <time>2022-02-15T08:12:13.000Z</time>
      </trkpt>
      <trkpt lat="43.52907" lon="5.57069">
        <ele>459</ele>
        <time>2022-02-15T08:12:14.000Z</time>
      </trkpt>
      <trkpt lat="43.52907" lon="5.5707">
        <ele>459</ele>
        <time>2022-02-15T08:12:15.000Z</time>
      </trkpt>
      <trkpt lat="43.52908" lon="5.5707">
        <ele>459</ele>
        <time>2022-02-15T08:12:16.000Z</time>
      </trkpt>
      <trkpt lat="43.52909" lon="5.5707">
        <ele>460</ele>
        <time>2022-02-15T08:12:17.000Z</time>
      </trkpt>
      <trkpt lat="43.52909" lon="5.5707">
        <ele>460</ele>
        <time>2022-02-15T08:12:18.000Z</time>
      </trkpt>
      <trkpt lat="43.5291" lon="5.5707">
        <ele>460</ele>
        <time>2022-02-15T08:12:19.000Z</time>
      </trkpt>
      <trkpt lat="43.52911" lon="5.5707">
        <ele>460</ele>
        <time>2022-02-15T08:12:20.000Z</time>
      </trkpt>
      <trkpt lat="43.52912" lon="5.5707">
        <ele>460</ele>
        <time>2022-02-15T08:12:21.000Z</time>
      </trkpt>
      <trkpt lat="43.52912" lon="5.5707">
        <ele>460</ele>
        <time>2022-02-15T08:12:22.000Z</time>
      </trkpt>
      <trkpt lat="43.52913" lon="5.5707">
        <ele>460</ele>
        <time>2022-02-15T08:12:23.000Z</time>
      </trkpt>
      <trkpt lat="43.52914" lon="5.5707">
        <ele>461</ele>
        <time>2022-02-15T08:12:24.000Z</time>
      </trkpt>
      <trkpt lat="43.52915" lon="5.5707">
        <ele>461</ele>
        <time>2022-02-15T08:12:25.000Z</time>
      </trkpt>
      <trkpt lat="43.52915" lon="5.57071">
        <ele>461</ele>
        <time>2022-02-15T08:12:26.000Z</time>
      </trkpt>
      <trkpt lat="43.52916" lon="5.57071">
        <ele>461</ele>
        <time>2022-02-15T08:12:27.000Z</time>
      </trkpt>
      <trkpt lat="43.52916" lon="5.57071">
        <ele>461</ele>
        <time>2022-02-15T08:12:28.000Z</time>
      </trkpt>
      <trkpt lat="43.52917" lon="5.57071">
        <ele>461</ele>
        <time>2022-02-15T08:12:29.000Z</time>
      </trkpt>
      <trkpt lat="43.52917" lon="5.57072">
        <ele>461</ele>
        <time>2022-02-15T08:12:30.000Z</time>
      </trkpt>
      <trkpt lat="43.52918" lon="5.57072">
        <ele>461</ele>
        <time>2022-02-15T08:12:31.000Z</time>
      </trkpt>
      <trkpt lat="43.52918" lon="5.57073">
        <ele>461</ele>
        <time>2022-02-15T08:12:32.000Z</time>
      </trkpt>
      <trkpt lat="43.52918" lon="5.57073">
        <ele>461</ele>
        <time>2022-02-15T08:12:33.000Z</time>
      </trkpt>
      <trkpt lat="43.52918" lon="5.57074">
        <ele>461</ele>
        <time>2022-02-15T08:12:34.000Z</time>
      </trkpt>
      <trkpt lat="43.52918" lon="5.57075">
        <ele>461</ele>
        <time>2022-02-15T08:12:35.000Z</time>
      </trkpt>
      <trkpt lat="43.52918" lon="5.57076">
        <ele>461</ele>
        <time>2022-02-15T08:12:36.000Z</time>
      </trkpt>
      <trkpt lat="43.52918" lon="5.57076">
        <ele>461</ele>
        <time>2022-02-15T08:12:37.000Z</time>
      </trkpt>
      <trkpt lat="43.52918" lon="5.57077">
        <ele>461</ele>
        <time>2022-02-15T08:12:38.000Z</time>
      </trkpt>
      <trkpt lat="43.52918" lon="5.57078">
        <ele>462</ele>
        <time>2022-02-15T08:12:39.000Z</time>
      </trkpt>
      <trkpt lat="43.52919" lon="5.57078">
        <ele>462</ele>
        <time>2022-02-15T08:12:40.000Z</time>
      </trkpt>
      <trkpt lat="43.52919" lon="5.57079">
        <ele>462</ele>
        <time>2022-02-15T08:12:41.000Z</time>
      </trkpt>
      <trkpt lat="43.52919" lon="5.5708">
        <ele>462</ele>
        <time>2022-02-15T08:12:42.000Z</time>
      </trkpt>
      <trkpt lat="43.52919" lon="5.57081">
        <ele>462</ele>
        <time>2022-02-15T08:12:43.000Z</time>
      </trkpt>
      <trkpt lat="43.52919" lon="5.57082">
        <ele>462</ele>
        <time>2022-02-15T08:12:44.000Z</time>
      </trkpt>
      <trkpt lat="43.5292" lon="5.57082">
        <ele>462</ele>
        <time>2022-02-15T08:12:45.000Z</time>
      </trkpt>
      <trkpt lat="43.5292" lon="5.57083">
        <ele>462</ele>
        <time>2022-02-15T08:12:46.000Z</time>
      </trkpt>
      <trkpt lat="43.5292" lon="5.57083">
        <ele>462</ele>
        <time>2022-02-15T08:12:47.000Z</time>
      </trkpt>
      <trkpt lat="43.52921" lon="5.57084">
        <ele>462</ele>
        <time>2022-02-15T08:12:48.000Z</time>
      </trkpt>
      <trkpt lat="43.52922" lon="5.57084">
        <ele>462</ele>
        <time>2022-02-15T08:12:49.000Z</time>
      </trkpt>
      <trkpt lat="43.52922" lon="5.57084">
        <ele>462</ele>
        <time>2022-02-15T08:12:50.000Z</time>
      </trkpt>
      <trkpt lat="43.52923" lon="5.57085">
        <ele>462</ele>
        <time>2022-02-15T08:12:51.000Z</time>
      </trkpt>
      <trkpt lat="43.52923" lon="5.57086">
        <ele>462</ele>
        <time>2022-02-15T08:12:52.000Z</time>
      </trkpt>
      <trkpt lat="43.52924" lon="5.57086">
        <ele>462</ele>
        <time>2022-02-15T08:12:53.000Z</time>
      </trkpt>
      <trkpt lat="43.52924" lon="5.57086">
        <ele>462</ele>
        <time>2022-02-15T08:12:54.000Z</time>
      </trkpt>
      <trkpt lat="43.52924" lon="5.57087">
        <ele>462</ele>
        <time>2022-02-15T08:12:55.000Z</time>
      </trkpt>
      <trkpt lat="43.52925" lon="5.57087">
        <ele>462</ele>
        <time>2022-02-15T08:12:56.000Z</time>
      </trkpt>
      <trkpt lat="43.52925" lon="5.57087">
        <ele>462</ele>
        <time>2022-02-15T08:12:57.000Z</time>
      </trkpt>
      <trkpt lat="43.52925" lon="5.57087">
        <ele>463</ele>
        <time>2022-02-15T08:12:58.000Z</time>
      </trkpt>
      <trkpt lat="43.52926" lon="5.57087">
        <ele>463</ele>
        <time>2022-02-15T08:12:59.000Z</time>
      </trkpt>
      <trkpt lat="43.52926" lon="5.57086">
        <ele>463</ele>
        <time>2022-02-15T08:13:00.000Z</time>
      </trkpt>
      <trkpt lat="43.52927" lon="5.57086">
        <ele>463</ele>
        <time>2022-02-15T08:13:01.000Z</time>
      </trkpt>
      <trkpt lat="43.52927" lon="5.57086">
        <ele>463</ele>
        <time>2022-02-15T08:13:02.000Z</time>
      </trkpt>
      <trkpt lat="43.52928" lon="5.57086">
        <ele>463</ele>
        <time>2022-02-15T08:13:03.000Z</time>
      </trkpt>
      <trkpt lat="43.52928" lon="5.57086">
        <ele>463</ele>
        <time>2022-02-15T08:13:04.000Z</time>
      </trkpt>
      <trkpt lat="43.52929" lon="5.57086">
        <ele>464</ele>
        <time>2022-02-15T08:13:05.000Z</time>
      </trkpt>
      <trkpt lat="43.52929" lon="5.57086">
        <ele>464</ele>
        <time>2022-02-15T08:13:06.000Z</time>
      </trkpt>
      <trkpt lat="43.5293" lon="5.57086">
        <ele>464</ele>
        <time>2022-02-15T08:13:07.000Z</time>
      </trkpt>
      <trkpt lat="43.5293" lon="5.57086">
        <ele>464</ele>
        <time>2022-02-15T08:13:08.000Z</time>
      </trkpt>
      <trkpt lat="43.52931" lon="5.57086">
        <ele>464</ele>
        <time>2022-02-15T08:13:09.000Z</time>
      </trkpt>
      <trkpt lat="43.52931" lon="5.57085">
        <ele>464</ele>
        <time>2022-02-15T08:13:10.000Z</time>
      </trkpt>
      <trkpt lat="43.52932" lon="5.57085">
        <ele>464</ele>
        <time>2022-02-15T08:13:11.000Z</time>
      </trkpt>
      <trkpt lat="43.52932" lon="5.57085">
        <ele>465</ele>
        <time>2022-02-15T08:13:12.000Z</time>
      </trkpt>
      <trkpt lat="43.52932" lon="5.57084">
        <ele>465</ele>
        <time>2022-02-15T08:13:13.000Z</time>
      </trkpt>
      <trkpt lat="43.52932" lon="5.57084">
        <ele>465</ele>
        <time>2022-02-15T08:13:14.000Z</time>
      </trkpt>
      <trkpt lat="43.52932" lon="5.57084">
        <ele>465</ele>
        <time>2022-02-15T08:13:15.000Z</time>
      </trkpt>
      <trkpt lat="43.52933" lon="5.57084">
        <ele>465</ele>
        <time>2022-02-15T08:13:16.000Z</time>
      </trkpt>
      <trkpt lat="43.52933" lon="5.57084">
        <ele>465</ele>
        <time>2022-02-15T08:13:17.000Z</time>
      </trkpt>
      <trkpt lat="43.52932" lon="5.57084">
        <ele>465</ele>
        <time>2022-02-15T08:13:18.000Z</time>
      </trkpt>
      <trkpt lat="43.52932" lon="5.57084">
        <ele>465</ele>
        <time>2022-02-15T08:13:19.000Z</time>
      </trkpt>
      <trkpt lat="43.52932" lon="5.57084">
        <ele>465</ele>
        <time>2022-02-15T08:13:20.000Z</time>
      </trkpt>
      <trkpt lat="43.52933" lon="5.57083">
        <ele>465</ele>
        <time>2022-02-15T08:13:21.000Z</time>
      </trkpt>
      <trkpt lat="43.52934" lon="5.57083">
        <ele>465</ele>
        <time>2022-02-15T08:13:22.000Z</time>
      </trkpt>
      <trkpt lat="43.52934" lon="5.57083">
        <ele>465</ele>
        <time>2022-02-15T08:13:23.000Z</time>
      </trkpt>
      <trkpt lat="43.52935" lon="5.57083">
        <ele>466</ele>
        <time>2022-02-15T08:13:24.000Z</time>
      </trkpt>
      <trkpt lat="43.52935" lon="5.57083">
        <ele>466</ele>
        <time>2022-02-15T08:13:25.000Z</time>
      </trkpt>
      <trkpt lat="43.52936" lon="5.57083">
        <ele>466</ele>
        <time>2022-02-15T08:13:26.000Z</time>
      </trkpt>
      <trkpt lat="43.52936" lon="5.57083">
        <ele>466</ele>
        <time>2022-02-15T08:13:27.000Z</time>
      </trkpt>
      <trkpt lat="43.52937" lon="5.57082">
        <ele>466</ele>
        <time>2022-02-15T08:13:28.000Z</time>
      </trkpt>
      <trkpt lat="43.52937" lon="5.57082">
        <ele>467</ele>
        <time>2022-02-15T08:13:29.000Z</time>
      </trkpt>
      <trkpt lat="43.52938" lon="5.57082">
        <ele>467</ele>
        <time>2022-02-15T08:13:30.000Z</time>
      </trkpt>
      <trkpt lat="43.52938" lon="5.57081">
        <ele>467</ele>
        <time>2022-02-15T08:13:31.000Z</time>
      </trkpt>
      <trkpt lat="43.52939" lon="5.57081">
        <ele>467</ele>
        <time>2022-02-15T08:13:32.000Z</time>
      </trkpt>
      <trkpt lat="43.52939" lon="5.57081">
        <ele>467</ele>
        <time>2022-02-15T08:13:33.000Z</time>
      </trkpt>
      <trkpt lat="43.5294" lon="5.5708">
        <ele>468</ele>
        <time>2022-02-15T08:13:34.000Z</time>
      </trkpt>
      <trkpt lat="43.52941" lon="5.5708">
        <ele>468</ele>
        <time>2022-02-15T08:13:35.000Z</time>
      </trkpt>
      <trkpt lat="43.52941" lon="5.5708">
        <ele>468</ele>
        <time>2022-02-15T08:13:36.000Z</time>
      </trkpt>
      <trkpt lat="43.52942" lon="5.57079">
        <ele>468</ele>
        <time>2022-02-15T08:13:37.000Z</time>
      </trkpt>
      <trkpt lat="43.52943" lon="5.57078">
        <ele>468</ele>
        <time>2022-02-15T08:13:38.000Z</time>
      </trkpt>
      <trkpt lat="43.52943" lon="5.57077">
        <ele>468</ele>
        <time>2022-02-15T08:13:39.000Z</time>
      </trkpt>
      <trkpt lat="43.52943" lon="5.57076">
        <ele>468</ele>
        <time>2022-02-15T08:13:40.000Z</time>
      </trkpt>
      <trkpt lat="43.52944" lon="5.57075">
        <ele>468</ele>
        <time>2022-02-15T08:13:41.000Z</time>
      </trkpt>
      <trkpt lat="43.52944" lon="5.57074">
        <ele>468</ele>
        <time>2022-02-15T08:13:42.000Z</time>
      </trkpt>
      <trkpt lat="43.52944" lon="5.57073">
        <ele>468</ele>
        <time>2022-02-15T08:13:43.000Z</time>
      </trkpt>
      <trkpt lat="43.52944" lon="5.57072">
        <ele>468</ele>
        <time>2022-02-15T08:13:44.000Z</time>
      </trkpt>
      <trkpt lat="43.52945" lon="5.57071">
        <ele>468</ele>
        <time>2022-02-15T08:13:45.000Z</time>
      </trkpt>
      <trkpt lat="43.52945" lon="5.5707">
        <ele>468</ele>
        <time>2022-02-15T08:13:46.000Z</time>
      </trkpt>
      <trkpt lat="43.52946" lon="5.57069">
        <ele>468</ele>
        <time>2022-02-15T08:13:47.000Z</time>
      </trkpt>
      <trkpt lat="43.52946" lon="5.57068">
        <ele>469</ele>
        <time>2022-02-15T08:13:48.000Z</time>
      </trkpt>
      <trkpt lat="43.52946" lon="5.57067">
        <ele>469</ele>
        <time>2022-02-15T08:13:49.000Z</time>
      </trkpt>
      <trkpt lat="43.52947" lon="5.57067">
        <ele>469</ele>
        <time>2022-02-15T08:13:50.000Z</time>
      </trkpt>
      <trkpt lat="43.52947" lon="5.57067">
        <ele>469</ele>
        <time>2022-02-15T08:13:51.000Z</time>
      </trkpt>
      <trkpt lat="43.52947" lon="5.57067">
        <ele>469</ele>
        <time>2022-02-15T08:13:52.000Z</time>
      </trkpt>
      <trkpt lat="43.52947" lon="5.57066">
        <ele>469</ele>
        <time>2022-02-15T08:13:53.000Z</time>
      </trkpt>
      <trkpt lat="43.52947" lon="5.57066">
        <ele>469</ele>
        <time>2022-02-15T08:13:54.000Z</time>
      </trkpt>
      <trkpt lat="43.52947" lon="5.57066">
        <ele>469</ele>
        <time>2022-02-15T08:13:55.000Z</time>
      </trkpt>
      <trkpt lat="43.52947" lon="5.57067">
        <ele>469</ele>
        <time>2022-02-15T08:13:56.000Z</time>
      </trkpt>
      <trkpt lat="43.52947" lon="5.57066">
        <ele>469</ele>
        <time>2022-02-15T08:13:57.000Z</time>
      </trkpt>
      <trkpt lat="43.52947" lon="5.57066">
        <ele>469</ele>
        <time>2022-02-15T08:13:58.000Z</time>
      </trkpt>
      <trkpt lat="43.52947" lon="5.57066">
        <ele>469</ele>
        <time>2022-02-15T08:13:59.000Z</time>
      </trkpt>
      <trkpt lat="43.52947" lon="5.57066">
        <ele>469</ele>
        <time>2022-02-15T08:14:00.000Z</time>
      </trkpt>
      <trkpt lat="43.52947" lon="5.57066">
        <ele>469</ele>
        <time>2022-02-15T08:14:01.000Z</time>
      </trkpt>
      <trkpt lat="43.52947" lon="5.57066">
        <ele>469</ele>
        <time>2022-02-15T08:14:02.000Z</time>
      </trkpt>
      <trkpt lat="43.52947" lon="5.57066">
        <ele>469</ele>
        <time>2022-02-15T08:14:03.000Z</time>
      </trkpt>
      <trkpt lat="43.52947" lon="5.57066">
        <ele>469</ele>
        <time>2022-02-15T08:14:04.000Z</time>
      </trkpt>
      <trkpt lat="43.52947" lon="5.57065">
        <ele>469</ele>
        <time>2022-02-15T08:14:05.000Z</time>
      </trkpt>
      <trkpt lat="43.52948" lon="5.57064">
        <ele>469</ele>
        <time>2022-02-15T08:14:06.000Z</time>
      </trkpt>
      <trkpt lat="43.52948" lon="5.57063">
        <ele>469</ele>
        <time>2022-02-15T08:14:07.000Z</time>
      </trkpt>
      <trkpt lat="43.52949" lon="5.57062">
        <ele>469</ele>
        <time>2022-02-15T08:14:08.000Z</time>
      </trkpt>
      <trkpt lat="43.52949" lon="5.57061">
        <ele>469</ele>
        <time>2022-02-15T08:14:09.000Z</time>
      </trkpt>
      <trkpt lat="43.5295" lon="5.5706">
        <ele>469</ele>
        <time>2022-02-15T08:14:10.000Z</time>
      </trkpt>
      <trkpt lat="43.5295" lon="5.5706">
        <ele>469</ele>
        <time>2022-02-15T08:14:11.000Z</time>
      </trkpt>
      <trkpt lat="43.52951" lon="5.57059">
        <ele>469</ele>
        <time>2022-02-15T08:14:12.000Z</time>
      </trkpt>
      <trkpt lat="43.52951" lon="5.57058">
        <ele>469</ele>
        <time>2022-02-15T08:14:13.000Z</time>
      </trkpt>
      <trkpt lat="43.52952" lon="5.57057">
        <ele>469</ele>
        <time>2022-02-15T08:14:14.000Z</time>
      </trkpt>
      <trkpt lat="43.52952" lon="5.57057">
        <ele>469</ele>
        <time>2022-02-15T08:14:15.000Z</time>
      </trkpt>
      <trkpt lat="43.52953" lon="5.57056">
        <ele>469</ele>
        <time>2022-02-15T08:14:16.000Z</time>
      </trkpt>
      <trkpt lat="43.52953" lon="5.57055">
        <ele>469</ele>
        <time>2022-02-15T08:14:17.000Z</time>
      </trkpt>
      <trkpt lat="43.52954" lon="5.57055">
        <ele>469</ele>
        <time>2022-02-15T08:14:18.000Z</time>
      </trkpt>
      <trkpt lat="43.52954" lon="5.57054">
        <ele>469</ele>
        <time>2022-02-15T08:14:19.000Z</time>
      </trkpt>
      <trkpt lat="43.52955" lon="5.57054">
        <ele>469</ele>
        <time>2022-02-15T08:14:20.000Z</time>
      </trkpt>
      <trkpt lat="43.52956" lon="5.57053">
        <ele>470</ele>
        <time>2022-02-15T08:14:21.000Z</time>
      </trkpt>
      <trkpt lat="43.52956" lon="5.57052">
        <ele>470</ele>
        <time>2022-02-15T08:14:22.000Z</time>
      </trkpt>
      <trkpt lat="43.52957" lon="5.57052">
        <ele>470</ele>
        <time>2022-02-15T08:14:23.000Z</time>
      </trkpt>
      <trkpt lat="43.52957" lon="5.57052">
        <ele>470</ele>
        <time>2022-02-15T08:14:24.000Z</time>
      </trkpt>
      <trkpt lat="43.52958" lon="5.57051">
        <ele>470</ele>
        <time>2022-02-15T08:14:25.000Z</time>
      </trkpt>
      <trkpt lat="43.52958" lon="5.57051">
        <ele>470</ele>
        <time>2022-02-15T08:14:26.000Z</time>
      </trkpt>
      <trkpt lat="43.52959" lon="5.57051">
        <ele>470</ele>
        <time>2022-02-15T08:14:27.000Z</time>
      </trkpt>
      <trkpt lat="43.52959" lon="5.57051">
        <ele>470</ele>
        <time>2022-02-15T08:14:28.000Z</time>
      </trkpt>
      <trkpt lat="43.5296" lon="5.5705">
        <ele>470</ele>
        <time>2022-02-15T08:14:29.000Z</time>
      </trkpt>
      <trkpt lat="43.5296" lon="5.5705">
        <ele>470</ele>
        <time>2022-02-15T08:14:30.000Z</time>
      </trkpt>
      <trkpt lat="43.52961" lon="5.5705">
        <ele>470</ele>
        <time>2022-02-15T08:14:31.000Z</time>
      </trkpt>
      <trkpt lat="43.52961" lon="5.57049">
        <ele>471</ele>
        <time>2022-02-15T08:14:32.000Z</time>
      </trkpt>
      <trkpt lat="43.52962" lon="5.57049">
        <ele>471</ele>
        <time>2022-02-15T08:14:33.000Z</time>
      </trkpt>
      <trkpt lat="43.52962" lon="5.57048">
        <ele>471</ele>
        <time>2022-02-15T08:14:34.000Z</time>
      </trkpt>
      <trkpt lat="43.52962" lon="5.57047">
        <ele>471</ele>
        <time>2022-02-15T08:14:35.000Z</time>
      </trkpt>
      <trkpt lat="43.52963" lon="5.57046">
        <ele>471</ele>
        <time>2022-02-15T08:14:36.000Z</time>
      </trkpt>
      <trkpt lat="43.52963" lon="5.57046">
        <ele>471</ele>
        <time>2022-02-15T08:14:37.000Z</time>
      </trkpt>
      <trkpt lat="43.52964" lon="5.57045">
        <ele>471</ele>
        <time>2022-02-15T08:14:38.000Z</time>
      </trkpt>
      <trkpt lat="43.52965" lon="5.57045">
        <ele>471</ele>
        <time>2022-02-15T08:14:39.000Z</time>
      </trkpt>
      <trkpt lat="43.52965" lon="5.57044">
        <ele>472</ele>
        <time>2022-02-15T08:14:40.000Z</time>
      </trkpt>
      <trkpt lat="43.52965" lon="5.57043">
        <ele>472</ele>
        <time>2022-02-15T08:14:41.000Z</time>
      </trkpt>
      <trkpt lat="43.52965" lon="5.57042">
        <ele>472</ele>
        <time>2022-02-15T08:14:42.000Z</time>
      </trkpt>
      <trkpt lat="43.52966" lon="5.57041">
        <ele>472</ele>
        <time>2022-02-15T08:14:43.000Z</time>
      </trkpt>
      <trkpt lat="43.52966" lon="5.5704">
        <ele>472</ele>
        <time>2022-02-15T08:14:44.000Z</time>
      </trkpt>
      <trkpt lat="43.52967" lon="5.57039">
        <ele>472</ele>
        <time>2022-02-15T08:14:45.000Z</time>
      </trkpt>
      <trkpt lat="43.52967" lon="5.57039">
        <ele>473</ele>
        <time>2022-02-15T08:14:46.000Z</time>
      </trkpt>
      <trkpt lat="43.52968" lon="5.57038">
        <ele>473</ele>
        <time>2022-02-15T08:14:47.000Z</time>
      </trkpt>
      <trkpt lat="43.52968" lon="5.57038">
        <ele>473</ele>
        <time>2022-02-15T08:14:48.000Z</time>
      </trkpt>
      <trkpt lat="43.52969" lon="5.57038">
        <ele>473</ele>
        <time>2022-02-15T08:14:49.000Z</time>
      </trkpt>
      <trkpt lat="43.52969" lon="5.57038">
        <ele>473</ele>
        <time>2022-02-15T08:14:50.000Z</time>
      </trkpt>
      <trkpt lat="43.52969" lon="5.57038">
        <ele>473</ele>
        <time>2022-02-15T08:14:51.000Z</time>
      </trkpt>
      <trkpt lat="43.52969" lon="5.57038">
        <ele>473</ele>
        <time>2022-02-15T08:14:52.000Z</time>
      </trkpt>
      <trkpt lat="43.52969" lon="5.57038">
        <ele>473</ele>
        <time>2022-02-15T08:14:53.000Z</time>
      </trkpt>
      <trkpt lat="43.52969" lon="5.57038">
        <ele>474</ele>
        <time>2022-02-15T08:14:54.000Z</time>
      </trkpt>
      <trkpt lat="43.52969" lon="5.57038">
        <ele>474</ele>
        <time>2022-02-15T08:14:55.000Z</time>
      </trkpt>
      <trkpt lat="43.52969" lon="5.57038">
        <ele>474</ele>
        <time>2022-02-15T08:14:56.000Z</time>
      </trkpt>
      <trkpt lat="43.52969" lon="5.57038">
        <ele>474</ele>
        <time>2022-02-15T08:14:57.000Z</time>
      </trkpt>
      <trkpt lat="43.52969" lon="5.57039">
        <ele>474</ele>
        <time>2022-02-15T08:14:58.000Z</time>
      </trkpt>
      <trkpt lat="43.52968" lon="5.57039">
        <ele>474</ele>
        <time>2022-02-15T08:14:59.000Z</time>
      </trkpt>
      <trkpt lat="43.52968" lon="5.57039">
        <ele>474</ele>
        <time>2022-02-15T08:15:00.000Z</time>
      </trkpt>
      <trkpt lat="43.52968" lon="5.57039">
        <ele>474</ele>
        <time>2022-02-15T08:15:01.000Z</time>
      </trkpt>
      <trkpt lat="43.52968" lon="5.5704">
        <ele>474</ele>
        <time>2022-02-15T08:15:02.000Z</time>
      </trkpt>
      <trkpt lat="43.52968" lon="5.57041">
        <ele>474</ele>
        <time>2022-02-15T08:15:03.000Z</time>
      </trkpt>
      <trkpt lat="43.52967" lon="5.57042">
        <ele>474</ele>
        <time>2022-02-15T08:15:04.000Z</time>
      </trkpt>
      <trkpt lat="43.52967" lon="5.57043">
        <ele>474</ele>
        <time>2022-02-15T08:15:05.000Z</time>
      </trkpt>
      <trkpt lat="43.52967" lon="5.57044">
        <ele>474</ele>
        <time>2022-02-15T08:15:06.000Z</time>
      </trkpt>
      <trkpt lat="43.52967" lon="5.57045">
        <ele>474</ele>
        <time>2022-02-15T08:15:07.000Z</time>
      </trkpt>
      <trkpt lat="43.52967" lon="5.57046">
        <ele>474</ele>
        <time>2022-02-15T08:15:08.000Z</time>
      </trkpt>
      <trkpt lat="43.52966" lon="5.57047">
        <ele>474</ele>
        <time>2022-02-15T08:15:09.000Z</time>
      </trkpt>
      <trkpt lat="43.52966" lon="5.57048">
        <ele>474</ele>
        <time>2022-02-15T08:15:10.000Z</time>
      </trkpt>
      <trkpt lat="43.52966" lon="5.57049">
        <ele>474</ele>
        <time>2022-02-15T08:15:11.000Z</time>
      </trkpt>
      <trkpt lat="43.52966" lon="5.57049">
        <ele>474</ele>
        <time>2022-02-15T08:15:12.000Z</time>
      </trkpt>
      <trkpt lat="43.52966" lon="5.5705">
        <ele>474</ele>
        <time>2022-02-15T08:15:13.000Z</time>
      </trkpt>
      <trkpt lat="43.52966" lon="5.5705">
        <ele>474</ele>
        <time>2022-02-15T08:15:14.000Z</time>
      </trkpt>
      <trkpt lat="43.52966" lon="5.57051">
        <ele>474</ele>
        <time>2022-02-15T08:15:15.000Z</time>
      </trkpt>
      <trkpt lat="43.52966" lon="5.57052">
        <ele>474</ele>
        <time>2022-02-15T08:15:16.000Z</time>
      </trkpt>
      <trkpt lat="43.52966" lon="5.57052">
        <ele>474</ele>
        <time>2022-02-15T08:15:17.000Z</time>
      </trkpt>
      <trkpt lat="43.52967" lon="5.57052">
        <ele>474</ele>
        <time>2022-02-15T08:15:18.000Z</time>
      </trkpt>
      <trkpt lat="43.52967" lon="5.57053">
        <ele>474</ele>
        <time>2022-02-15T08:15:19.000Z</time>
      </trkpt>
      <trkpt lat="43.52968" lon="5.57052">
        <ele>474</ele>
        <time>2022-02-15T08:15:20.000Z</time>
      </trkpt>
      <trkpt lat="43.52968" lon="5.57052">
        <ele>474</ele>
        <time>2022-02-15T08:15:21.000Z</time>
      </trkpt>
      <trkpt lat="43.52969" lon="5.57052">
        <ele>474</ele>
        <time>2022-02-15T08:15:22.000Z</time>
      </trkpt>
      <trkpt lat="43.52969" lon="5.57052">
        <ele>475</ele>
        <time>2022-02-15T08:15:23.000Z</time>
      </trkpt>
      <trkpt lat="43.5297" lon="5.57052">
        <ele>475</ele>
        <time>2022-02-15T08:15:24.000Z</time>
      </trkpt>
      <trkpt lat="43.5297" lon="5.57052">
        <ele>475</ele>
        <time>2022-02-15T08:15:25.000Z</time>
      </trkpt>
      <trkpt lat="43.52971" lon="5.57052">
        <ele>475</ele>
        <time>2022-02-15T08:15:26.000Z</time>
      </trkpt>
      <trkpt lat="43.52971" lon="5.57052">
        <ele>475</ele>
        <time>2022-02-15T08:15:27.000Z</time>
      </trkpt>
      <trkpt lat="43.52972" lon="5.57051">
        <ele>475</ele>
        <time>2022-02-15T08:15:28.000Z</time>
      </trkpt>
      <trkpt lat="43.52973" lon="5.57051">
        <ele>475</ele>
        <time>2022-02-15T08:15:29.000Z</time>
      </trkpt>
      <trkpt lat="43.52973" lon="5.5705">
        <ele>476</ele>
        <time>2022-02-15T08:15:30.000Z</time>
      </trkpt>
      <trkpt lat="43.52974" lon="5.5705">
        <ele>476</ele>
        <time>2022-02-15T08:15:31.000Z</time>
      </trkpt>
      <trkpt lat="43.52975" lon="5.5705">
        <ele>476</ele>
        <time>2022-02-15T08:15:32.000Z</time>
      </trkpt>
      <trkpt lat="43.52975" lon="5.5705">
        <ele>476</ele>
        <time>2022-02-15T08:15:33.000Z</time>
      </trkpt>
      <trkpt lat="43.52976" lon="5.5705">
        <ele>476</ele>
        <time>2022-02-15T08:15:34.000Z</time>
      </trkpt>
      <trkpt lat="43.52976" lon="5.5705">
        <ele>477</ele>
        <time>2022-02-15T08:15:35.000Z</time>
      </trkpt>
      <trkpt lat="43.52977" lon="5.57049">
        <ele>477</ele>
        <time>2022-02-15T08:15:36.000Z</time>
      </trkpt>
      <trkpt lat="43.52977" lon="5.57049">
        <ele>477</ele>
        <time>2022-02-15T08:15:37.000Z</time>
      </trkpt>
      <trkpt lat="43.52978" lon="5.57049">
        <ele>477</ele>
        <time>2022-02-15T08:15:38.000Z</time>
      </trkpt>
      <trkpt lat="43.52979" lon="5.57049">
        <ele>477</ele>
        <time>2022-02-15T08:15:39.000Z</time>
      </trkpt>
      <trkpt lat="43.52979" lon="5.57049">
        <ele>477</ele>
        <time>2022-02-15T08:15:40.000Z</time>
      </trkpt>
      <trkpt lat="43.5298" lon="5.57049">
        <ele>478</ele>
        <time>2022-02-15T08:15:41.000Z</time>
      </trkpt>
      <trkpt lat="43.5298" lon="5.5705">
        <ele>478</ele>
        <time>2022-02-15T08:15:42.000Z</time>
      </trkpt>
      <trkpt lat="43.52981" lon="5.5705">
        <ele>478</ele>
        <time>2022-02-15T08:15:43.000Z</time>
      </trkpt>
      <trkpt lat="43.52981" lon="5.57051">
        <ele>478</ele>
        <time>2022-02-15T08:15:44.000Z</time>
      </trkpt>
      <trkpt lat="43.52982" lon="5.57052">
        <ele>478</ele>
        <time>2022-02-15T08:15:45.000Z</time>
      </trkpt>
      <trkpt lat="43.52982" lon="5.57053">
        <ele>478</ele>
        <time>2022-02-15T08:15:46.000Z</time>
      </trkpt>
      <trkpt lat="43.52983" lon="5.57054">
        <ele>478</ele>
        <time>2022-02-15T08:15:47.000Z</time>
      </trkpt>
      <trkpt lat="43.52983" lon="5.57055">
        <ele>478</ele>
        <time>2022-02-15T08:15:48.000Z</time>
      </trkpt>
      <trkpt lat="43.52983" lon="5.57056">
        <ele>478</ele>
        <time>2022-02-15T08:15:49.000Z</time>
      </trkpt>
      <trkpt lat="43.52982" lon="5.57056">
        <ele>478</ele>
        <time>2022-02-15T08:15:50.000Z</time>
      </trkpt>
      <trkpt lat="43.52982" lon="5.57057">
        <ele>479</ele>
        <time>2022-02-15T08:15:51.000Z</time>
      </trkpt>
      <trkpt lat="43.52982" lon="5.57057">
        <ele>479</ele>
        <time>2022-02-15T08:15:52.000Z</time>
      </trkpt>
      <trkpt lat="43.52982" lon="5.57057">
        <ele>479</ele>
        <time>2022-02-15T08:15:53.000Z</time>
      </trkpt>
      <trkpt lat="43.52982" lon="5.57056">
        <ele>479</ele>
        <time>2022-02-15T08:15:54.000Z</time>
      </trkpt>
      <trkpt lat="43.52982" lon="5.57056">
        <ele>479</ele>
        <time>2022-02-15T08:15:55.000Z</time>
      </trkpt>
      <trkpt lat="43.52982" lon="5.57056">
        <ele>479</ele>
        <time>2022-02-15T08:15:56.000Z</time>
      </trkpt>
      <trkpt lat="43.52982" lon="5.57056">
        <ele>479</ele>
        <time>2022-02-15T08:15:57.000Z</time>
      </trkpt>
      <trkpt lat="43.52982" lon="5.57056">
        <ele>479</ele>
        <time>2022-02-15T08:15:58.000Z</time>
      </trkpt>
      <trkpt lat="43.52982" lon="5.57056">
        <ele>479</ele>
        <time>2022-02-15T08:15:59.000Z</time>
      </trkpt>
      <trkpt lat="43.52983" lon="5.57056">
        <ele>479</ele>
        <time>2022-02-15T08:16:00.000Z</time>
      </trkpt>
      <trkpt lat="43.52983" lon="5.57056">
        <ele>479</ele>
        <time>2022-02-15T08:16:01.000Z</time>
      </trkpt>
      <trkpt lat="43.52983" lon="5.57056">
        <ele>479</ele>
        <time>2022-02-15T08:16:02.000Z</time>
      </trkpt>
      <trkpt lat="43.52983" lon="5.57056">
        <ele>479</ele>
        <time>2022-02-15T08:16:03.000Z</time>
      </trkpt>
      <trkpt lat="43.52983" lon="5.57056">
        <ele>479</ele>
        <time>2022-02-15T08:16:04.000Z</time>
      </trkpt>
      <trkpt lat="43.52983" lon="5.57056">
        <ele>479</ele>
        <time>2022-02-15T08:16:05.000Z</time>
      </trkpt>
      <trkpt lat="43.52983" lon="5.57056">
        <ele>479</ele>
        <time>2022-02-15T08:16:06.000Z</time>
      </trkpt>
      <trkpt lat="43.52983" lon="5.57056">
        <ele>480</ele>
        <time>2022-02-15T08:16:07.000Z</time>
      </trkpt>
      <trkpt lat="43.52982" lon="5.57057">
        <ele>480</ele>
        <time>2022-02-15T08:16:08.000Z</time>
      </trkpt>
      <trkpt lat="43.52982" lon="5.57058">
        <ele>480</ele>
        <time>2022-02-15T08:16:09.000Z</time>
      </trkpt>
      <trkpt lat="43.52983" lon="5.57059">
        <ele>480</ele>
        <time>2022-02-15T08:16:10.000Z</time>
      </trkpt>
      <trkpt lat="43.52983" lon="5.5706">
        <ele>480</ele>
        <time>2022-02-15T08:16:11.000Z</time>
      </trkpt>
      <trkpt lat="43.52983" lon="5.5706">
        <ele>480</ele>
        <time>2022-02-15T08:16:12.000Z</time>
      </trkpt>
      <trkpt lat="43.52983" lon="5.57061">
        <ele>480</ele>
        <time>2022-02-15T08:16:13.000Z</time>
      </trkpt>
      <trkpt lat="43.52983" lon="5.57061">
        <ele>480</ele>
        <time>2022-02-15T08:16:14.000Z</time>
      </trkpt>
      <trkpt lat="43.52984" lon="5.57062">
        <ele>480</ele>
        <time>2022-02-15T08:16:15.000Z</time>
      </trkpt>
      <trkpt lat="43.52984" lon="5.57063">
        <ele>480</ele>
        <time>2022-02-15T08:16:16.000Z</time>
      </trkpt>
      <trkpt lat="43.52984" lon="5.57063">
        <ele>480</ele>
        <time>2022-02-15T08:16:17.000Z</time>
      </trkpt>
      <trkpt lat="43.52984" lon="5.57063">
        <ele>480</ele>
        <time>2022-02-15T08:16:18.000Z</time>
      </trkpt>
      <trkpt lat="43.52984" lon="5.57063">
        <ele>480</ele>
        <time>2022-02-15T08:16:19.000Z</time>
      </trkpt>
      <trkpt lat="43.52984" lon="5.57063">
        <ele>480</ele>
        <time>2022-02-15T08:16:20.000Z</time>
      </trkpt>
      <trkpt lat="43.52984" lon="5.57063">
        <ele>480</ele>
        <time>2022-02-15T08:16:21.000Z</time>
      </trkpt>
      <trkpt lat="43.52984" lon="5.57063">
        <ele>480</ele>
        <time>2022-02-15T08:16:22.000Z</time>
      </trkpt>
      <trkpt lat="43.52984" lon="5.57063">
        <ele>480</ele>
        <time>2022-02-15T08:16:23.000Z</time>
      </trkpt>
      <trkpt lat="43.52984" lon="5.57063">
        <ele>480</ele>
        <time>2022-02-15T08:16:24.000Z</time>
      </trkpt>
      <trkpt lat="43.52984" lon="5.57063">
        <ele>480</ele>
        <time>2022-02-15T08:16:25.000Z</time>
      </trkpt>
      <trkpt lat="43.52984" lon="5.57063">
        <ele>480</ele>
        <time>2022-02-15T08:16:26.000Z</time>
      </trkpt>
      <trkpt lat="43.52984" lon="5.57063">
        <ele>480</ele>
        <time>2022-02-15T08:16:27.000Z</time>
      </trkpt>
      <trkpt lat="43.52984" lon="5.57063">
        <ele>481</ele>
        <time>2022-02-15T08:16:28.000Z</time>
      </trkpt>
      <trkpt lat="43.52984" lon="5.57062">
        <ele>481</ele>
        <time>2022-02-15T08:16:29.000Z</time>
      </trkpt>
      <trkpt lat="43.52984" lon="5.57062">
        <ele>481</ele>
        <time>2022-02-15T08:16:30.000Z</time>
      </trkpt>
      <trkpt lat="43.52984" lon="5.57062">
        <ele>481</ele>
        <time>2022-02-15T08:16:31.000Z</time>
      </trkpt>
      <trkpt lat="43.52984" lon="5.57062">
        <ele>481</ele>
        <time>2022-02-15T08:16:32.000Z</time>
      </trkpt>
      <trkpt lat="43.52984" lon="5.57062">
        <ele>481</ele>
        <time>2022-02-15T08:16:33.000Z</time>
      </trkpt>
      <trkpt lat="43.52984" lon="5.57062">
        <ele>481</ele>
        <time>2022-02-15T08:16:34.000Z</time>
      </trkpt>
      <trkpt lat="43.52984" lon="5.57062">
        <ele>481</ele>
        <time>2022-02-15T08:16:35.000Z</time>
      </trkpt>
      <trkpt lat="43.52984" lon="5.57062">
        <ele>481</ele>
        <time>2022-02-15T08:16:36.000Z</time>
      </trkpt>
      <trkpt lat="43.52984" lon="5.57062">
        <ele>481</ele>
        <time>2022-02-15T08:16:37.000Z</time>
      </trkpt>
      <trkpt lat="43.52984" lon="5.57062">
        <ele>481</ele>
        <time>2022-02-15T08:16:38.000Z</time>
      </trkpt>
      <trkpt lat="43.52984" lon="5.57062">
        <ele>481</ele>
        <time>2022-02-15T08:16:39.000Z</time>
      </trkpt>
      <trkpt lat="43.52984" lon="5.57062">
        <ele>481</ele>
        <time>2022-02-15T08:16:40.000Z</time>
      </trkpt>
      <trkpt lat="43.52984" lon="5.57062">
        <ele>481</ele>
        <time>2022-02-15T08:16:41.000Z</time>
      </trkpt>
      <trkpt lat="43.52984" lon="5.57062">
        <ele>481</ele>
        <time>2022-02-15T08:16:42.000Z</time>
      </trkpt>
      <trkpt lat="43.52984" lon="5.57062">
        <ele>481</ele>
        <time>2022-02-15T08:16:43.000Z</time>
      </trkpt>
      <trkpt lat="43.52984" lon="5.57062">
        <ele>481</ele>
        <time>2022-02-15T08:16:44.000Z</time>
      </trkpt>
      <trkpt lat="43.52984" lon="5.57062">
        <ele>481</ele>
        <time>2022-02-15T08:16:45.000Z</time>
      </trkpt>
      <trkpt lat="43.52984" lon="5.57062">
        <ele>481</ele>
        <time>2022-02-15T08:16:46.000Z</time>
      </trkpt>
      <trkpt lat="43.52984" lon="5.57062">
        <ele>481</ele>
        <time>2022-02-15T08:16:47.000Z</time>
      </trkpt>
      <trkpt lat="43.52984" lon="5.57062">
        <ele>481</ele>
        <time>2022-02-15T08:16:48.000Z</time>
      </trkpt>
      <trkpt lat="43.52984" lon="5.57062">
        <ele>481</ele>
        <time>2022-02-15T08:16:49.000Z</time>
      </trkpt>
      <trkpt lat="43.52984" lon="5.57062">
        <ele>481</ele>
        <time>2022-02-15T08:16:50.000Z</time>
      </trkpt>
      <trkpt lat="43.52984" lon="5.57062">
        <ele>481</ele>
        <time>2022-02-15T08:16:51.000Z</time>
      </trkpt>
      <trkpt lat="43.52984" lon="5.57062">
        <ele>481</ele>
        <time>2022-02-15T08:16:52.000Z</time>
      </trkpt>
      <trkpt lat="43.52984" lon="5.57062">
        <ele>481</ele>
        <time>2022-02-15T08:16:53.000Z</time>
      </trkpt>
      <trkpt lat="43.52985" lon="5.57062">
        <ele>481</ele>
        <time>2022-02-15T08:16:54.000Z</time>
      </trkpt>
      <trkpt lat="43.52985" lon="5.57062">
        <ele>481</ele>
        <time>2022-02-15T08:16:55.000Z</time>
      </trkpt>
      <trkpt lat="43.52985" lon="5.57062">
        <ele>481</ele>
        <time>2022-02-15T08:16:56.000Z</time>
      </trkpt>
      <trkpt lat="43.52985" lon="5.57062">
        <ele>481</ele>
        <time>2022-02-15T08:16:57.000Z</time>
      </trkpt>
      <trkpt lat="43.52985" lon="5.57062">
        <ele>481</ele>
        <time>2022-02-15T08:16:58.000Z</time>
      </trkpt>
      <trkpt lat="43.52985" lon="5.57062">
        <ele>481</ele>
        <time>2022-02-15T08:16:59.000Z</time>
      </trkpt>
      <trkpt lat="43.52985" lon="5.57062">
        <ele>481</ele>
        <time>2022-02-15T08:17:00.000Z</time>
      </trkpt>
      <trkpt lat="43.52985" lon="5.57062">
        <ele>481</ele>
        <time>2022-02-15T08:17:01.000Z</time>
      </trkpt>
      <trkpt lat="43.52985" lon="5.57062">
        <ele>481</ele>
        <time>2022-02-15T08:17:02.000Z</time>
      </trkpt>
      <trkpt lat="43.52985" lon="5.57062">
        <ele>481</ele>
        <time>2022-02-15T08:17:03.000Z</time>
      </trkpt>
      <trkpt lat="43.52985" lon="5.57062">
        <ele>481</ele>
        <time>2022-02-15T08:17:04.000Z</time>
      </trkpt>
      <trkpt lat="43.52985" lon="5.57063">
        <ele>481</ele>
        <time>2022-02-15T08:17:05.000Z</time>
      </trkpt>
      <trkpt lat="43.52985" lon="5.57064">
        <ele>481</ele>
        <time>2022-02-15T08:17:06.000Z</time>
      </trkpt>
      <trkpt lat="43.52986" lon="5.57065">
        <ele>481</ele>
        <time>2022-02-15T08:17:07.000Z</time>
      </trkpt>
      <trkpt lat="43.52986" lon="5.57065">
        <ele>481</ele>
        <time>2022-02-15T08:17:08.000Z</time>
      </trkpt>
      <trkpt lat="43.52986" lon="5.57066">
        <ele>481</ele>
        <time>2022-02-15T08:17:09.000Z</time>
      </trkpt>
      <trkpt lat="43.52987" lon="5.57066">
        <ele>482</ele>
        <time>2022-02-15T08:17:10.000Z</time>
      </trkpt>
      <trkpt lat="43.52987" lon="5.57067">
        <ele>482</ele>
        <time>2022-02-15T08:17:11.000Z</time>
      </trkpt>
      <trkpt lat="43.52987" lon="5.57067">
        <ele>482</ele>
        <time>2022-02-15T08:17:12.000Z</time>
      </trkpt>
      <trkpt lat="43.52987" lon="5.57067">
        <ele>482</ele>
        <time>2022-02-15T08:17:13.000Z</time>
      </trkpt>
      <trkpt lat="43.52987" lon="5.57068">
        <ele>482</ele>
        <time>2022-02-15T08:17:14.000Z</time>
      </trkpt>
      <trkpt lat="43.52988" lon="5.57068">
        <ele>482</ele>
        <time>2022-02-15T08:17:15.000Z</time>
      </trkpt>
      <trkpt lat="43.52988" lon="5.57069">
        <ele>482</ele>
        <time>2022-02-15T08:17:16.000Z</time>
      </trkpt>
      <trkpt lat="43.52988" lon="5.57069">
        <ele>483</ele>
        <time>2022-02-15T08:17:17.000Z</time>
      </trkpt>
      <trkpt lat="43.52988" lon="5.57069">
        <ele>483</ele>
        <time>2022-02-15T08:17:18.000Z</time>
      </trkpt>
      <trkpt lat="43.52988" lon="5.57069">
        <ele>483</ele>
        <time>2022-02-15T08:17:19.000Z</time>
      </trkpt>
      <trkpt lat="43.52988" lon="5.57069">
        <ele>483</ele>
        <time>2022-02-15T08:17:20.000Z</time>
      </trkpt>
      <trkpt lat="43.52988" lon="5.57069">
        <ele>483</ele>
        <time>2022-02-15T08:17:21.000Z</time>
      </trkpt>
      <trkpt lat="43.52989" lon="5.57069">
        <ele>483</ele>
        <time>2022-02-15T08:17:22.000Z</time>
      </trkpt>
      <trkpt lat="43.52989" lon="5.57069">
        <ele>483</ele>
        <time>2022-02-15T08:17:23.000Z</time>
      </trkpt>
      <trkpt lat="43.52989" lon="5.57069">
        <ele>483</ele>
        <time>2022-02-15T08:17:24.000Z</time>
      </trkpt>
      <trkpt lat="43.52989" lon="5.57069">
        <ele>483</ele>
        <time>2022-02-15T08:17:25.000Z</time>
      </trkpt>
      <trkpt lat="43.52989" lon="5.57069">
        <ele>483</ele>
        <time>2022-02-15T08:17:26.000Z</time>
      </trkpt>
      <trkpt lat="43.52989" lon="5.57069">
        <ele>483</ele>
        <time>2022-02-15T08:17:27.000Z</time>
      </trkpt>
      <trkpt lat="43.52989" lon="5.57069">
        <ele>484</ele>
        <time>2022-02-15T08:17:28.000Z</time>
      </trkpt>
      <trkpt lat="43.52989" lon="5.57069">
        <ele>484</ele>
        <time>2022-02-15T08:17:29.000Z</time>
      </trkpt>
      <trkpt lat="43.52989" lon="5.57069">
        <ele>484</ele>
        <time>2022-02-15T08:17:30.000Z</time>
      </trkpt>
      <trkpt lat="43.52989" lon="5.57069">
        <ele>484</ele>
        <time>2022-02-15T08:17:31.000Z</time>
      </trkpt>
      <trkpt lat="43.52989" lon="5.57069">
        <ele>484</ele>
        <time>2022-02-15T08:17:32.000Z</time>
      </trkpt>
      <trkpt lat="43.52989" lon="5.57069">
        <ele>484</ele>
        <time>2022-02-15T08:17:33.000Z</time>
      </trkpt>
      <trkpt lat="43.52989" lon="5.57069">
        <ele>484</ele>
        <time>2022-02-15T08:17:34.000Z</time>
      </trkpt>
      <trkpt lat="43.52989" lon="5.57069">
        <ele>484</ele>
        <time>2022-02-15T08:17:35.000Z</time>
      </trkpt>
      <trkpt lat="43.52989" lon="5.57069">
        <ele>484</ele>
        <time>2022-02-15T08:17:36.000Z</time>
      </trkpt>
      <trkpt lat="43.52989" lon="5.57069">
        <ele>484</ele>
        <time>2022-02-15T08:17:37.000Z</time>
      </trkpt>
      <trkpt lat="43.52989" lon="5.57069">
        <ele>484</ele>
        <time>2022-02-15T08:17:38.000Z</time>
      </trkpt>
      <trkpt lat="43.52989" lon="5.57069">
        <ele>484</ele>
        <time>2022-02-15T08:17:39.000Z</time>
      </trkpt>
      <trkpt lat="43.5299" lon="5.5707">
        <ele>484</ele>
        <time>2022-02-15T08:17:40.000Z</time>
      </trkpt>
      <trkpt lat="43.52991" lon="5.5707">
        <ele>484</ele>
        <time>2022-02-15T08:17:41.000Z</time>
      </trkpt>
      <trkpt lat="43.52992" lon="5.5707">
        <ele>484</ele>
        <time>2022-02-15T08:17:42.000Z</time>
      </trkpt>
      <trkpt lat="43.52992" lon="5.5707">
        <ele>484</ele>
        <time>2022-02-15T08:17:43.000Z</time>
      </trkpt>
      <trkpt lat="43.52993" lon="5.5707">
        <ele>484</ele>
        <time>2022-02-15T08:17:44.000Z</time>
      </trkpt>
      <trkpt lat="43.52994" lon="5.57071">
        <ele>485</ele>
        <time>2022-02-15T08:17:45.000Z</time>
      </trkpt>
      <trkpt lat="43.52994" lon="5.57072">
        <ele>485</ele>
        <time>2022-02-15T08:17:46.000Z</time>
      </trkpt>
      <trkpt lat="43.52995" lon="5.57072">
        <ele>485</ele>
        <time>2022-02-15T08:17:47.000Z</time>
      </trkpt>
      <trkpt lat="43.52995" lon="5.57073">
        <ele>485</ele>
        <time>2022-02-15T08:17:48.000Z</time>
      </trkpt>
      <trkpt lat="43.52995" lon="5.57074">
        <ele>485</ele>
        <time>2022-02-15T08:17:49.000Z</time>
      </trkpt>
      <trkpt lat="43.52994" lon="5.57075">
        <ele>485</ele>
        <time>2022-02-15T08:17:50.000Z</time>
      </trkpt>
      <trkpt lat="43.52994" lon="5.57075">
        <ele>485</ele>
        <time>2022-02-15T08:17:51.000Z</time>
      </trkpt>
      <trkpt lat="43.52993" lon="5.57076">
        <ele>485</ele>
        <time>2022-02-15T08:17:52.000Z</time>
      </trkpt>
      <trkpt lat="43.52993" lon="5.57076">
        <ele>485</ele>
        <time>2022-02-15T08:17:53.000Z</time>
      </trkpt>
      <trkpt lat="43.52993" lon="5.57077">
        <ele>485</ele>
        <time>2022-02-15T08:17:54.000Z</time>
      </trkpt>
      <trkpt lat="43.52993" lon="5.57078">
        <ele>485</ele>
        <time>2022-02-15T08:17:55.000Z</time>
      </trkpt>
      <trkpt lat="43.52993" lon="5.57079">
        <ele>485</ele>
        <time>2022-02-15T08:17:56.000Z</time>
      </trkpt>
      <trkpt lat="43.52993" lon="5.5708">
        <ele>485</ele>
        <time>2022-02-15T08:17:57.000Z</time>
      </trkpt>
      <trkpt lat="43.52993" lon="5.57081">
        <ele>485</ele>
        <time>2022-02-15T08:17:58.000Z</time>
      </trkpt>
      <trkpt lat="43.52994" lon="5.57082">
        <ele>485</ele>
        <time>2022-02-15T08:17:59.000Z</time>
      </trkpt>
      <trkpt lat="43.52994" lon="5.57083">
        <ele>485</ele>
        <time>2022-02-15T08:18:00.000Z</time>
      </trkpt>
      <trkpt lat="43.52994" lon="5.57084">
        <ele>485</ele>
        <time>2022-02-15T08:18:01.000Z</time>
      </trkpt>
      <trkpt lat="43.52993" lon="5.57086">
        <ele>485</ele>
        <time>2022-02-15T08:18:02.000Z</time>
      </trkpt>
      <trkpt lat="43.52993" lon="5.57087">
        <ele>486</ele>
        <time>2022-02-15T08:18:03.000Z</time>
      </trkpt>
      <trkpt lat="43.52993" lon="5.57088">
        <ele>486</ele>
        <time>2022-02-15T08:18:04.000Z</time>
      </trkpt>
      <trkpt lat="43.52993" lon="5.57089">
        <ele>486</ele>
        <time>2022-02-15T08:18:05.000Z</time>
      </trkpt>
      <trkpt lat="43.52993" lon="5.57091">
        <ele>486</ele>
        <time>2022-02-15T08:18:06.000Z</time>
      </trkpt>
      <trkpt lat="43.52993" lon="5.57092">
        <ele>486</ele>
        <time>2022-02-15T08:18:07.000Z</time>
      </trkpt>
      <trkpt lat="43.52992" lon="5.57094">
        <ele>486</ele>
        <time>2022-02-15T08:18:08.000Z</time>
      </trkpt>
      <trkpt lat="43.52992" lon="5.57095">
        <ele>486</ele>
        <time>2022-02-15T08:18:09.000Z</time>
      </trkpt>
      <trkpt lat="43.52991" lon="5.57096">
        <ele>486</ele>
        <time>2022-02-15T08:18:10.000Z</time>
      </trkpt>
      <trkpt lat="43.52991" lon="5.57097">
        <ele>486</ele>
        <time>2022-02-15T08:18:11.000Z</time>
      </trkpt>
      <trkpt lat="43.5299" lon="5.57098">
        <ele>486</ele>
        <time>2022-02-15T08:18:12.000Z</time>
      </trkpt>
      <trkpt lat="43.52989" lon="5.57099">
        <ele>486</ele>
        <time>2022-02-15T08:18:13.000Z</time>
      </trkpt>
      <trkpt lat="43.52989" lon="5.571">
        <ele>486</ele>
        <time>2022-02-15T08:18:14.000Z</time>
      </trkpt>
      <trkpt lat="43.52988" lon="5.57101">
        <ele>486</ele>
        <time>2022-02-15T08:18:15.000Z</time>
      </trkpt>
      <trkpt lat="43.52988" lon="5.57102">
        <ele>486</ele>
        <time>2022-02-15T08:18:16.000Z</time>
      </trkpt>
      <trkpt lat="43.52988" lon="5.57103">
        <ele>486</ele>
        <time>2022-02-15T08:18:17.000Z</time>
      </trkpt>
      <trkpt lat="43.52987" lon="5.57104">
        <ele>486</ele>
        <time>2022-02-15T08:18:18.000Z</time>
      </trkpt>
      <trkpt lat="43.52987" lon="5.57106">
        <ele>486</ele>
        <time>2022-02-15T08:18:19.000Z</time>
      </trkpt>
      <trkpt lat="43.52986" lon="5.57107">
        <ele>486</ele>
        <time>2022-02-15T08:18:20.000Z</time>
      </trkpt>
      <trkpt lat="43.52986" lon="5.57108">
        <ele>486</ele>
        <time>2022-02-15T08:18:21.000Z</time>
      </trkpt>
      <trkpt lat="43.52985" lon="5.57109">
        <ele>486</ele>
        <time>2022-02-15T08:18:22.000Z</time>
      </trkpt>
      <trkpt lat="43.52985" lon="5.5711">
        <ele>486</ele>
        <time>2022-02-15T08:18:23.000Z</time>
      </trkpt>
      <trkpt lat="43.52985" lon="5.57111">
        <ele>486</ele>
        <time>2022-02-15T08:18:24.000Z</time>
      </trkpt>
      <trkpt lat="43.52985" lon="5.57112">
        <ele>486</ele>
        <time>2022-02-15T08:18:25.000Z</time>
      </trkpt>
      <trkpt lat="43.52984" lon="5.57113">
        <ele>486</ele>
        <time>2022-02-15T08:18:26.000Z</time>
      </trkpt>
      <trkpt lat="43.52984" lon="5.57114">
        <ele>486</ele>
        <time>2022-02-15T08:18:27.000Z</time>
      </trkpt>
      <trkpt lat="43.52984" lon="5.57115">
        <ele>486</ele>
        <time>2022-02-15T08:18:28.000Z</time>
      </trkpt>
      <trkpt lat="43.52983" lon="5.57116">
        <ele>486</ele>
        <time>2022-02-15T08:18:29.000Z</time>
      </trkpt>
      <trkpt lat="43.52983" lon="5.57116">
        <ele>486</ele>
        <time>2022-02-15T08:18:30.000Z</time>
      </trkpt>
      <trkpt lat="43.52983" lon="5.57117">
        <ele>486</ele>
        <time>2022-02-15T08:18:31.000Z</time>
      </trkpt>
      <trkpt lat="43.52983" lon="5.57117">
        <ele>487</ele>
        <time>2022-02-15T08:18:32.000Z</time>
      </trkpt>
      <trkpt lat="43.52983" lon="5.57118">
        <ele>487</ele>
        <time>2022-02-15T08:18:33.000Z</time>
      </trkpt>
      <trkpt lat="43.52983" lon="5.57119">
        <ele>487</ele>
        <time>2022-02-15T08:18:34.000Z</time>
      </trkpt>
      <trkpt lat="43.52982" lon="5.5712">
        <ele>487</ele>
        <time>2022-02-15T08:18:35.000Z</time>
      </trkpt>
      <trkpt lat="43.52982" lon="5.57121">
        <ele>487</ele>
        <time>2022-02-15T08:18:36.000Z</time>
      </trkpt>
      <trkpt lat="43.52982" lon="5.57122">
        <ele>487</ele>
        <time>2022-02-15T08:18:37.000Z</time>
      </trkpt>
      <trkpt lat="43.52981" lon="5.57122">
        <ele>486</ele>
        <time>2022-02-15T08:18:38.000Z</time>
      </trkpt>
      <trkpt lat="43.52981" lon="5.57123">
        <ele>486</ele>
        <time>2022-02-15T08:18:39.000Z</time>
      </trkpt>
      <trkpt lat="43.52981" lon="5.57124">
        <ele>486</ele>
        <time>2022-02-15T08:18:40.000Z</time>
      </trkpt>
      <trkpt lat="43.52981" lon="5.57124">
        <ele>486</ele>
        <time>2022-02-15T08:18:41.000Z</time>
      </trkpt>
      <trkpt lat="43.52982" lon="5.57125">
        <ele>486</ele>
        <time>2022-02-15T08:18:42.000Z</time>
      </trkpt>
      <trkpt lat="43.52982" lon="5.57127">
        <ele>486</ele>
        <time>2022-02-15T08:18:43.000Z</time>
      </trkpt>
      <trkpt lat="43.52983" lon="5.57128">
        <ele>486</ele>
        <time>2022-02-15T08:18:44.000Z</time>
      </trkpt>
      <trkpt lat="43.52984" lon="5.57128">
        <ele>486</ele>
        <time>2022-02-15T08:18:45.000Z</time>
      </trkpt>
      <trkpt lat="43.52984" lon="5.57129">
        <ele>486</ele>
        <time>2022-02-15T08:18:46.000Z</time>
      </trkpt>
      <trkpt lat="43.52984" lon="5.5713">
        <ele>486</ele>
        <time>2022-02-15T08:18:47.000Z</time>
      </trkpt>
      <trkpt lat="43.52984" lon="5.5713">
        <ele>486</ele>
        <time>2022-02-15T08:18:48.000Z</time>
      </trkpt>
      <trkpt lat="43.52984" lon="5.5713">
        <ele>486</ele>
        <time>2022-02-15T08:18:49.000Z</time>
      </trkpt>
      <trkpt lat="43.52984" lon="5.5713">
        <ele>486</ele>
        <time>2022-02-15T08:18:50.000Z</time>
      </trkpt>
      <trkpt lat="43.52984" lon="5.57131">
        <ele>486</ele>
        <time>2022-02-15T08:18:51.000Z</time>
      </trkpt>
      <trkpt lat="43.52984" lon="5.57131">
        <ele>487</ele>
        <time>2022-02-15T08:18:52.000Z</time>
      </trkpt>
      <trkpt lat="43.52985" lon="5.57132">
        <ele>487</ele>
        <time>2022-02-15T08:18:53.000Z</time>
      </trkpt>
      <trkpt lat="43.52985" lon="5.57133">
        <ele>487</ele>
        <time>2022-02-15T08:18:54.000Z</time>
      </trkpt>
      <trkpt lat="43.52986" lon="5.57134">
        <ele>487</ele>
        <time>2022-02-15T08:18:55.000Z</time>
      </trkpt>
      <trkpt lat="43.52986" lon="5.57135">
        <ele>487</ele>
        <time>2022-02-15T08:18:56.000Z</time>
      </trkpt>
      <trkpt lat="43.52986" lon="5.57136">
        <ele>487</ele>
        <time>2022-02-15T08:18:57.000Z</time>
      </trkpt>
      <trkpt lat="43.52986" lon="5.57137">
        <ele>487</ele>
        <time>2022-02-15T08:18:58.000Z</time>
      </trkpt>
      <trkpt lat="43.52986" lon="5.57138">
        <ele>487</ele>
        <time>2022-02-15T08:18:59.000Z</time>
      </trkpt>
      <trkpt lat="43.52987" lon="5.57139">
        <ele>487</ele>
        <time>2022-02-15T08:19:00.000Z</time>
      </trkpt>
      <trkpt lat="43.52987" lon="5.57139">
        <ele>487</ele>
        <time>2022-02-15T08:19:01.000Z</time>
      </trkpt>
      <trkpt lat="43.52988" lon="5.5714">
        <ele>487</ele>
        <time>2022-02-15T08:19:02.000Z</time>
      </trkpt>
      <trkpt lat="43.52988" lon="5.5714">
        <ele>487</ele>
        <time>2022-02-15T08:19:03.000Z</time>
      </trkpt>
      <trkpt lat="43.52988" lon="5.5714">
        <ele>488</ele>
        <time>2022-02-15T08:19:04.000Z</time>
      </trkpt>
      <trkpt lat="43.52989" lon="5.5714">
        <ele>488</ele>
        <time>2022-02-15T08:19:05.000Z</time>
      </trkpt>
      <trkpt lat="43.52989" lon="5.57141">
        <ele>488</ele>
        <time>2022-02-15T08:19:06.000Z</time>
      </trkpt>
      <trkpt lat="43.52989" lon="5.57141">
        <ele>488</ele>
        <time>2022-02-15T08:19:07.000Z</time>
      </trkpt>
      <trkpt lat="43.52989" lon="5.57141">
        <ele>488</ele>
        <time>2022-02-15T08:19:08.000Z</time>
      </trkpt>
      <trkpt lat="43.52989" lon="5.57141">
        <ele>488</ele>
        <time>2022-02-15T08:19:09.000Z</time>
      </trkpt>
      <trkpt lat="43.52989" lon="5.57141">
        <ele>488</ele>
        <time>2022-02-15T08:19:10.000Z</time>
      </trkpt>
      <trkpt lat="43.52989" lon="5.57141">
        <ele>488</ele>
        <time>2022-02-15T08:19:11.000Z</time>
      </trkpt>
      <trkpt lat="43.52989" lon="5.5714">
        <ele>488</ele>
        <time>2022-02-15T08:19:12.000Z</time>
      </trkpt>
      <trkpt lat="43.52989" lon="5.57141">
        <ele>488</ele>
        <time>2022-02-15T08:19:13.000Z</time>
      </trkpt>
      <trkpt lat="43.5299" lon="5.57141">
        <ele>488</ele>
        <time>2022-02-15T08:19:14.000Z</time>
      </trkpt>
      <trkpt lat="43.5299" lon="5.57141">
        <ele>488</ele>
        <time>2022-02-15T08:19:15.000Z</time>
      </trkpt>
      <trkpt lat="43.5299" lon="5.57142">
        <ele>488</ele>
        <time>2022-02-15T08:19:16.000Z</time>
      </trkpt>
      <trkpt lat="43.52991" lon="5.57142">
        <ele>489</ele>
        <time>2022-02-15T08:19:17.000Z</time>
      </trkpt>
      <trkpt lat="43.52991" lon="5.57143">
        <ele>489</ele>
        <time>2022-02-15T08:19:18.000Z</time>
      </trkpt>
      <trkpt lat="43.52991" lon="5.57143">
        <ele>489</ele>
        <time>2022-02-15T08:19:19.000Z</time>
      </trkpt>
      <trkpt lat="43.52992" lon="5.57143">
        <ele>489</ele>
        <time>2022-02-15T08:19:20.000Z</time>
      </trkpt>
      <trkpt lat="43.52992" lon="5.57143">
        <ele>489</ele>
        <time>2022-02-15T08:19:21.000Z</time>
      </trkpt>
      <trkpt lat="43.52992" lon="5.57144">
        <ele>489</ele>
        <time>2022-02-15T08:19:22.000Z</time>
      </trkpt>
      <trkpt lat="43.52992" lon="5.57143">
        <ele>489</ele>
        <time>2022-02-15T08:19:23.000Z</time>
      </trkpt>
      <trkpt lat="43.52993" lon="5.57143">
        <ele>490</ele>
        <time>2022-02-15T08:19:24.000Z</time>
      </trkpt>
      <trkpt lat="43.52993" lon="5.57143">
        <ele>490</ele>
        <time>2022-02-15T08:19:25.000Z</time>
      </trkpt>
      <trkpt lat="43.52993" lon="5.57144">
        <ele>490</ele>
        <time>2022-02-15T08:19:26.000Z</time>
      </trkpt>
      <trkpt lat="43.52993" lon="5.57144">
        <ele>490</ele>
        <time>2022-02-15T08:19:27.000Z</time>
      </trkpt>
      <trkpt lat="43.52993" lon="5.57145">
        <ele>490</ele>
        <time>2022-02-15T08:19:28.000Z</time>
      </trkpt>
      <trkpt lat="43.52994" lon="5.57145">
        <ele>491</ele>
        <time>2022-02-15T08:19:29.000Z</time>
      </trkpt>
      <trkpt lat="43.52994" lon="5.57145">
        <ele>491</ele>
        <time>2022-02-15T08:19:30.000Z</time>
      </trkpt>
      <trkpt lat="43.52994" lon="5.57145">
        <ele>491</ele>
        <time>2022-02-15T08:19:31.000Z</time>
      </trkpt>
      <trkpt lat="43.52995" lon="5.57145">
        <ele>491</ele>
        <time>2022-02-15T08:19:32.000Z</time>
      </trkpt>
      <trkpt lat="43.52995" lon="5.57145">
        <ele>491</ele>
        <time>2022-02-15T08:19:33.000Z</time>
      </trkpt>
      <trkpt lat="43.52996" lon="5.57145">
        <ele>492</ele>
        <time>2022-02-15T08:19:34.000Z</time>
      </trkpt>
      <trkpt lat="43.52996" lon="5.57145">
        <ele>492</ele>
        <time>2022-02-15T08:19:35.000Z</time>
      </trkpt>
      <trkpt lat="43.52997" lon="5.57145">
        <ele>492</ele>
        <time>2022-02-15T08:19:36.000Z</time>
      </trkpt>
      <trkpt lat="43.52997" lon="5.57145">
        <ele>492</ele>
        <time>2022-02-15T08:19:37.000Z</time>
      </trkpt>
      <trkpt lat="43.52998" lon="5.57145">
        <ele>493</ele>
        <time>2022-02-15T08:19:38.000Z</time>
      </trkpt>
      <trkpt lat="43.52998" lon="5.57146">
        <ele>493</ele>
        <time>2022-02-15T08:19:39.000Z</time>
      </trkpt>
      <trkpt lat="43.52998" lon="5.57147">
        <ele>493</ele>
        <time>2022-02-15T08:19:40.000Z</time>
      </trkpt>
      <trkpt lat="43.52998" lon="5.57148">
        <ele>493</ele>
        <time>2022-02-15T08:19:41.000Z</time>
      </trkpt>
      <trkpt lat="43.52998" lon="5.57148">
        <ele>493</ele>
        <time>2022-02-15T08:19:42.000Z</time>
      </trkpt>
      <trkpt lat="43.52998" lon="5.57149">
        <ele>493</ele>
        <time>2022-02-15T08:19:43.000Z</time>
      </trkpt>
      <trkpt lat="43.52998" lon="5.5715">
        <ele>493</ele>
        <time>2022-02-15T08:19:44.000Z</time>
      </trkpt>
      <trkpt lat="43.52999" lon="5.57151">
        <ele>494</ele>
        <time>2022-02-15T08:19:45.000Z</time>
      </trkpt>
      <trkpt lat="43.52999" lon="5.57152">
        <ele>494</ele>
        <time>2022-02-15T08:19:46.000Z</time>
      </trkpt>
      <trkpt lat="43.52998" lon="5.57153">
        <ele>494</ele>
        <time>2022-02-15T08:19:47.000Z</time>
      </trkpt>
      <trkpt lat="43.52998" lon="5.57153">
        <ele>494</ele>
        <time>2022-02-15T08:19:48.000Z</time>
      </trkpt>
      <trkpt lat="43.52998" lon="5.57154">
        <ele>494</ele>
        <time>2022-02-15T08:19:49.000Z</time>
      </trkpt>
      <trkpt lat="43.52997" lon="5.57155">
        <ele>494</ele>
        <time>2022-02-15T08:19:50.000Z</time>
      </trkpt>
      <trkpt lat="43.52997" lon="5.57156">
        <ele>494</ele>
        <time>2022-02-15T08:19:51.000Z</time>
      </trkpt>
      <trkpt lat="43.52997" lon="5.57156">
        <ele>494</ele>
        <time>2022-02-15T08:19:52.000Z</time>
      </trkpt>
      <trkpt lat="43.52997" lon="5.57157">
        <ele>494</ele>
        <time>2022-02-15T08:19:53.000Z</time>
      </trkpt>
      <trkpt lat="43.52997" lon="5.57158">
        <ele>494</ele>
        <time>2022-02-15T08:19:54.000Z</time>
      </trkpt>
      <trkpt lat="43.52997" lon="5.57158">
        <ele>494</ele>
        <time>2022-02-15T08:19:55.000Z</time>
      </trkpt>
      <trkpt lat="43.52998" lon="5.57159">
        <ele>494</ele>
        <time>2022-02-15T08:19:56.000Z</time>
      </trkpt>
      <trkpt lat="43.52998" lon="5.57159">
        <ele>494</ele>
        <time>2022-02-15T08:19:57.000Z</time>
      </trkpt>
      <trkpt lat="43.52998" lon="5.5716">
        <ele>494</ele>
        <time>2022-02-15T08:19:58.000Z</time>
      </trkpt>
      <trkpt lat="43.52998" lon="5.5716">
        <ele>494</ele>
        <time>2022-02-15T08:19:59.000Z</time>
      </trkpt>
      <trkpt lat="43.52998" lon="5.57161">
        <ele>494</ele>
        <time>2022-02-15T08:20:00.000Z</time>
      </trkpt>
      <trkpt lat="43.52998" lon="5.57161">
        <ele>494</ele>
        <time>2022-02-15T08:20:01.000Z</time>
      </trkpt>
      <trkpt lat="43.52998" lon="5.57162">
        <ele>494</ele>
        <time>2022-02-15T08:20:02.000Z</time>
      </trkpt>
      <trkpt lat="43.52998" lon="5.57163">
        <ele>494</ele>
        <time>2022-02-15T08:20:03.000Z</time>
      </trkpt>
      <trkpt lat="43.52997" lon="5.57163">
        <ele>494</ele>
        <time>2022-02-15T08:20:04.000Z</time>
      </trkpt>
      <trkpt lat="43.52997" lon="5.57164">
        <ele>494</ele>
        <time>2022-02-15T08:20:05.000Z</time>
      </trkpt>
      <trkpt lat="43.52997" lon="5.57165">
        <ele>494</ele>
        <time>2022-02-15T08:20:06.000Z</time>
      </trkpt>
      <trkpt lat="43.52996" lon="5.57165">
        <ele>494</ele>
        <time>2022-02-15T08:20:07.000Z</time>
      </trkpt>
      <trkpt lat="43.52996" lon="5.57165">
        <ele>494</ele>
        <time>2022-02-15T08:20:08.000Z</time>
      </trkpt>
      <trkpt lat="43.52996" lon="5.57165">
        <ele>494</ele>
        <time>2022-02-15T08:20:09.000Z</time>
      </trkpt>
      <trkpt lat="43.52996" lon="5.57166">
        <ele>494</ele>
        <time>2022-02-15T08:20:10.000Z</time>
      </trkpt>
      <trkpt lat="43.52996" lon="5.57166">
        <ele>494</ele>
        <time>2022-02-15T08:20:11.000Z</time>
      </trkpt>
      <trkpt lat="43.52996" lon="5.57167">
        <ele>494</ele>
        <time>2022-02-15T08:20:12.000Z</time>
      </trkpt>
      <trkpt lat="43.52996" lon="5.57167">
        <ele>494</ele>
        <time>2022-02-15T08:20:13.000Z</time>
      </trkpt>
      <trkpt lat="43.52995" lon="5.57167">
        <ele>494</ele>
        <time>2022-02-15T08:20:14.000Z</time>
      </trkpt>
      <trkpt lat="43.52995" lon="5.57168">
        <ele>494</ele>
        <time>2022-02-15T08:20:15.000Z</time>
      </trkpt>
      <trkpt lat="43.52995" lon="5.57169">
        <ele>494</ele>
        <time>2022-02-15T08:20:16.000Z</time>
      </trkpt>
      <trkpt lat="43.52995" lon="5.57169">
        <ele>494</ele>
        <time>2022-02-15T08:20:17.000Z</time>
      </trkpt>
      <trkpt lat="43.52995" lon="5.57169">
        <ele>493</ele>
        <time>2022-02-15T08:20:18.000Z</time>
      </trkpt>
      <trkpt lat="43.52995" lon="5.5717">
        <ele>493</ele>
        <time>2022-02-15T08:20:19.000Z</time>
      </trkpt>
      <trkpt lat="43.52995" lon="5.5717">
        <ele>493</ele>
        <time>2022-02-15T08:20:20.000Z</time>
      </trkpt>
      <trkpt lat="43.52995" lon="5.57171">
        <ele>493</ele>
        <time>2022-02-15T08:20:21.000Z</time>
      </trkpt>
      <trkpt lat="43.52995" lon="5.57172">
        <ele>493</ele>
        <time>2022-02-15T08:20:22.000Z</time>
      </trkpt>
      <trkpt lat="43.52995" lon="5.57172">
        <ele>493</ele>
        <time>2022-02-15T08:20:23.000Z</time>
      </trkpt>
      <trkpt lat="43.52994" lon="5.57173">
        <ele>493</ele>
        <time>2022-02-15T08:20:24.000Z</time>
      </trkpt>
      <trkpt lat="43.52994" lon="5.57173">
        <ele>493</ele>
        <time>2022-02-15T08:20:25.000Z</time>
      </trkpt>
      <trkpt lat="43.52994" lon="5.57173">
        <ele>493</ele>
        <time>2022-02-15T08:20:26.000Z</time>
      </trkpt>
      <trkpt lat="43.52994" lon="5.57174">
        <ele>492</ele>
        <time>2022-02-15T08:20:27.000Z</time>
      </trkpt>
      <trkpt lat="43.52994" lon="5.57174">
        <ele>492</ele>
        <time>2022-02-15T08:20:28.000Z</time>
      </trkpt>
      <trkpt lat="43.52994" lon="5.57175">
        <ele>492</ele>
        <time>2022-02-15T08:20:29.000Z</time>
      </trkpt>
      <trkpt lat="43.52994" lon="5.57176">
        <ele>492</ele>
        <time>2022-02-15T08:20:30.000Z</time>
      </trkpt>
      <trkpt lat="43.52994" lon="5.57178">
        <ele>492</ele>
        <time>2022-02-15T08:20:31.000Z</time>
      </trkpt>
      <trkpt lat="43.52994" lon="5.57179">
        <ele>492</ele>
        <time>2022-02-15T08:20:32.000Z</time>
      </trkpt>
      <trkpt lat="43.52994" lon="5.5718">
        <ele>492</ele>
        <time>2022-02-15T08:20:33.000Z</time>
      </trkpt>
      <trkpt lat="43.52993" lon="5.57181">
        <ele>492</ele>
        <time>2022-02-15T08:20:34.000Z</time>
      </trkpt>
      <trkpt lat="43.52993" lon="5.57181">
        <ele>492</ele>
        <time>2022-02-15T08:20:35.000Z</time>
      </trkpt>
      <trkpt lat="43.52994" lon="5.57182">
        <ele>492</ele>
        <time>2022-02-15T08:20:36.000Z</time>
      </trkpt>
      <trkpt lat="43.52994" lon="5.57182">
        <ele>491</ele>
        <time>2022-02-15T08:20:37.000Z</time>
      </trkpt>
      <trkpt lat="43.52994" lon="5.57182">
        <ele>491</ele>
        <time>2022-02-15T08:20:38.000Z</time>
      </trkpt>
      <trkpt lat="43.52994" lon="5.57182">
        <ele>491</ele>
        <time>2022-02-15T08:20:39.000Z</time>
      </trkpt>
      <trkpt lat="43.52994" lon="5.57182">
        <ele>491</ele>
        <time>2022-02-15T08:20:40.000Z</time>
      </trkpt>
      <trkpt lat="43.52994" lon="5.57183">
        <ele>491</ele>
        <time>2022-02-15T08:20:41.000Z</time>
      </trkpt>
      <trkpt lat="43.52994" lon="5.57183">
        <ele>491</ele>
        <time>2022-02-15T08:20:42.000Z</time>
      </trkpt>
      <trkpt lat="43.52994" lon="5.57183">
        <ele>491</ele>
        <time>2022-02-15T08:20:43.000Z</time>
      </trkpt>
      <trkpt lat="43.52994" lon="5.57182">
        <ele>491</ele>
        <time>2022-02-15T08:20:44.000Z</time>
      </trkpt>
      <trkpt lat="43.52994" lon="5.57182">
        <ele>491</ele>
        <time>2022-02-15T08:20:45.000Z</time>
      </trkpt>
      <trkpt lat="43.52994" lon="5.57182">
        <ele>491</ele>
        <time>2022-02-15T08:20:46.000Z</time>
      </trkpt>
      <trkpt lat="43.52994" lon="5.57182">
        <ele>491</ele>
        <time>2022-02-15T08:20:47.000Z</time>
      </trkpt>
      <trkpt lat="43.52994" lon="5.57182">
        <ele>491</ele>
        <time>2022-02-15T08:20:48.000Z</time>
      </trkpt>
      <trkpt lat="43.52994" lon="5.57182">
        <ele>491</ele>
        <time>2022-02-15T08:20:49.000Z</time>
      </trkpt>
      <trkpt lat="43.52994" lon="5.57182">
        <ele>491</ele>
        <time>2022-02-15T08:20:50.000Z</time>
      </trkpt>
      <trkpt lat="43.52994" lon="5.57182">
        <ele>491</ele>
        <time>2022-02-15T08:20:51.000Z</time>
      </trkpt>
      <trkpt lat="43.52994" lon="5.57182">
        <ele>491</ele>
        <time>2022-02-15T08:20:52.000Z</time>
      </trkpt>
      <trkpt lat="43.52994" lon="5.57182">
        <ele>491</ele>
        <time>2022-02-15T08:20:53.000Z</time>
      </trkpt>
      <trkpt lat="43.52994" lon="5.57183">
        <ele>491</ele>
        <time>2022-02-15T08:20:54.000Z</time>
      </trkpt>
      <trkpt lat="43.52994" lon="5.57183">
        <ele>491</ele>
        <time>2022-02-15T08:20:55.000Z</time>
      </trkpt>
      <trkpt lat="43.52994" lon="5.57183">
        <ele>491</ele>
        <time>2022-02-15T08:20:56.000Z</time>
      </trkpt>
      <trkpt lat="43.52994" lon="5.57183">
        <ele>491</ele>
        <time>2022-02-15T08:20:57.000Z</time>
      </trkpt>
      <trkpt lat="43.52994" lon="5.57183">
        <ele>491</ele>
        <time>2022-02-15T08:20:58.000Z</time>
      </trkpt>
      <trkpt lat="43.52994" lon="5.57183">
        <ele>491</ele>
        <time>2022-02-15T08:20:59.000Z</time>
      </trkpt>
      <trkpt lat="43.52994" lon="5.57183">
        <ele>491</ele>
        <time>2022-02-15T08:21:00.000Z</time>
      </trkpt>
      <trkpt lat="43.52994" lon="5.57183">
        <ele>491</ele>
        <time>2022-02-15T08:21:01.000Z</time>
      </trkpt>
      <trkpt lat="43.52994" lon="5.57183">
        <ele>491</ele>
        <time>2022-02-15T08:21:02.000Z</time>
      </trkpt>
      <trkpt lat="43.52994" lon="5.57183">
        <ele>491</ele>
        <time>2022-02-15T08:21:03.000Z</time>
      </trkpt>
      <trkpt lat="43.52994" lon="5.57183">
        <ele>491</ele>
        <time>2022-02-15T08:21:04.000Z</time>
      </trkpt>
      <trkpt lat="43.52994" lon="5.57183">
        <ele>491</ele>
        <time>2022-02-15T08:21:05.000Z</time>
      </trkpt>
      <trkpt lat="43.52994" lon="5.57183">
        <ele>491</ele>
        <time>2022-02-15T08:21:06.000Z</time>
      </trkpt>
      <trkpt lat="43.52994" lon="5.57183">
        <ele>491</ele>
        <time>2022-02-15T08:21:07.000Z</time>
      </trkpt>
      <trkpt lat="43.52994" lon="5.57183">
        <ele>491</ele>
        <time>2022-02-15T08:21:08.000Z</time>
      </trkpt>
      <trkpt lat="43.52994" lon="5.57183">
        <ele>491</ele>
        <time>2022-02-15T08:21:09.000Z</time>
      </trkpt>
      <trkpt lat="43.52994" lon="5.57183">
        <ele>490</ele>
        <time>2022-02-15T08:21:10.000Z</time>
      </trkpt>
      <trkpt lat="43.52994" lon="5.57183">
        <ele>490</ele>
        <time>2022-02-15T08:21:11.000Z</time>
      </trkpt>
      <trkpt lat="43.52994" lon="5.57183">
        <ele>490</ele>
        <time>2022-02-15T08:21:12.000Z</time>
      </trkpt>
      <trkpt lat="43.52994" lon="5.57183">
        <ele>490</ele>
        <time>2022-02-15T08:21:13.000Z</time>
      </trkpt>
      <trkpt lat="43.52994" lon="5.57183">
        <ele>491</ele>
        <time>2022-02-15T08:21:14.000Z</time>
      </trkpt>
      <trkpt lat="43.52994" lon="5.57183">
        <ele>491</ele>
        <time>2022-02-15T08:21:15.000Z</time>
      </trkpt>
      <trkpt lat="43.52994" lon="5.57183">
        <ele>491</ele>
        <time>2022-02-15T08:21:16.000Z</time>
      </trkpt>
      <trkpt lat="43.52994" lon="5.57183">
        <ele>491</ele>
        <time>2022-02-15T08:21:17.000Z</time>
      </trkpt>
      <trkpt lat="43.52994" lon="5.57183">
        <ele>491</ele>
        <time>2022-02-15T08:21:18.000Z</time>
      </trkpt>
      <trkpt lat="43.52994" lon="5.57183">
        <ele>491</ele>
        <time>2022-02-15T08:21:19.000Z</time>
      </trkpt>
      <trkpt lat="43.52994" lon="5.57183">
        <ele>491</ele>
        <time>2022-02-15T08:21:20.000Z</time>
      </trkpt>
      <trkpt lat="43.52994" lon="5.57183">
        <ele>491</ele>
        <time>2022-02-15T08:21:21.000Z</time>
      </trkpt>
      <trkpt lat="43.52994" lon="5.57183">
        <ele>491</ele>
        <time>2022-02-15T08:21:22.000Z</time>
      </trkpt>
      <trkpt lat="43.52994" lon="5.57183">
        <ele>491</ele>
        <time>2022-02-15T08:21:23.000Z</time>
      </trkpt>
      <trkpt lat="43.52994" lon="5.57183">
        <ele>491</ele>
        <time>2022-02-15T08:21:24.000Z</time>
      </trkpt>
      <trkpt lat="43.52994" lon="5.57183">
        <ele>491</ele>
        <time>2022-02-15T08:21:25.000Z</time>
      </trkpt>
      <trkpt lat="43.52994" lon="5.57183">
        <ele>491</ele>
        <time>2022-02-15T08:21:26.000Z</time>
      </trkpt>
      <trkpt lat="43.52993" lon="5.57183">
        <ele>491</ele>
        <time>2022-02-15T08:21:27.000Z</time>
      </trkpt>
      <trkpt lat="43.52993" lon="5.57183">
        <ele>490</ele>
        <time>2022-02-15T08:21:28.000Z</time>
      </trkpt>
      <trkpt lat="43.52992" lon="5.57184">
        <ele>490</ele>
        <time>2022-02-15T08:21:29.000Z</time>
      </trkpt>
      <trkpt lat="43.52992" lon="5.57184">
        <ele>490</ele>
        <time>2022-02-15T08:21:30.000Z</time>
      </trkpt>
      <trkpt lat="43.52991" lon="5.57184">
        <ele>490</ele>
        <time>2022-02-15T08:21:31.000Z</time>
      </trkpt>
      <trkpt lat="43.52991" lon="5.57184">
        <ele>490</ele>
        <time>2022-02-15T08:21:32.000Z</time>
      </trkpt>
      <trkpt lat="43.5299" lon="5.57184">
        <ele>490</ele>
        <time>2022-02-15T08:21:33.000Z</time>
      </trkpt>
      <trkpt lat="43.5299" lon="5.57184">
        <ele>490</ele>
        <time>2022-02-15T08:21:34.000Z</time>
      </trkpt>
      <trkpt lat="43.5299" lon="5.57185">
        <ele>490</ele>
        <time>2022-02-15T08:21:35.000Z</time>
      </trkpt>
      <trkpt lat="43.5299" lon="5.57185">
        <ele>490</ele>
        <time>2022-02-15T08:21:36.000Z</time>
      </trkpt>
      <trkpt lat="43.52989" lon="5.57185">
        <ele>490</ele>
        <time>2022-02-15T08:21:37.000Z</time>
      </trkpt>
      <trkpt lat="43.52989" lon="5.57186">
        <ele>490</ele>
        <time>2022-02-15T08:21:38.000Z</time>
      </trkpt>
      <trkpt lat="43.52988" lon="5.57186">
        <ele>489</ele>
        <time>2022-02-15T08:21:39.000Z</time>
      </trkpt>
      <trkpt lat="43.52988" lon="5.57186">
        <ele>489</ele>
        <time>2022-02-15T08:21:40.000Z</time>
      </trkpt>
      <trkpt lat="43.52987" lon="5.57187">
        <ele>489</ele>
        <time>2022-02-15T08:21:41.000Z</time>
      </trkpt>
      <trkpt lat="43.52987" lon="5.57187">
        <ele>489</ele>
        <time>2022-02-15T08:21:42.000Z</time>
      </trkpt>
      <trkpt lat="43.52986" lon="5.57188">
        <ele>489</ele>
        <time>2022-02-15T08:21:43.000Z</time>
      </trkpt>
      <trkpt lat="43.52986" lon="5.57188">
        <ele>489</ele>
        <time>2022-02-15T08:21:44.000Z</time>
      </trkpt>
      <trkpt lat="43.52985" lon="5.57189">
        <ele>489</ele>
        <time>2022-02-15T08:21:45.000Z</time>
      </trkpt>
      <trkpt lat="43.52985" lon="5.5719">
        <ele>489</ele>
        <time>2022-02-15T08:21:46.000Z</time>
      </trkpt>
      <trkpt lat="43.52984" lon="5.5719">
        <ele>489</ele>
        <time>2022-02-15T08:21:47.000Z</time>
      </trkpt>
      <trkpt lat="43.52984" lon="5.57191">
        <ele>489</ele>
        <time>2022-02-15T08:21:48.000Z</time>
      </trkpt>
      <trkpt lat="43.52983" lon="5.57192">
        <ele>490</ele>
        <time>2022-02-15T08:21:49.000Z</time>
      </trkpt>
      <trkpt lat="43.52983" lon="5.57192">
        <ele>490</ele>
        <time>2022-02-15T08:21:50.000Z</time>
      </trkpt>
      <trkpt lat="43.52982" lon="5.57193">
        <ele>490</ele>
        <time>2022-02-15T08:21:51.000Z</time>
      </trkpt>
      <trkpt lat="43.52981" lon="5.57193">
        <ele>490</ele>
        <time>2022-02-15T08:21:52.000Z</time>
      </trkpt>
      <trkpt lat="43.5298" lon="5.57194">
        <ele>490</ele>
        <time>2022-02-15T08:21:53.000Z</time>
      </trkpt>
      <trkpt lat="43.5298" lon="5.57194">
        <ele>490</ele>
        <time>2022-02-15T08:21:54.000Z</time>
      </trkpt>
      <trkpt lat="43.52979" lon="5.57195">
        <ele>490</ele>
        <time>2022-02-15T08:21:55.000Z</time>
      </trkpt>
      <trkpt lat="43.52979" lon="5.57196">
        <ele>490</ele>
        <time>2022-02-15T08:21:56.000Z</time>
      </trkpt>
      <trkpt lat="43.52979" lon="5.57197">
        <ele>490</ele>
        <time>2022-02-15T08:21:57.000Z</time>
      </trkpt>
      <trkpt lat="43.52979" lon="5.57198">
        <ele>491</ele>
        <time>2022-02-15T08:21:58.000Z</time>
      </trkpt>
      <trkpt lat="43.52979" lon="5.57199">
        <ele>491</ele>
        <time>2022-02-15T08:21:59.000Z</time>
      </trkpt>
      <trkpt lat="43.52979" lon="5.572">
        <ele>491</ele>
        <time>2022-02-15T08:22:00.000Z</time>
      </trkpt>
      <trkpt lat="43.52979" lon="5.57201">
        <ele>491</ele>
        <time>2022-02-15T08:22:01.000Z</time>
      </trkpt>
      <trkpt lat="43.52979" lon="5.57202">
        <ele>491</ele>
        <time>2022-02-15T08:22:02.000Z</time>
      </trkpt>
      <trkpt lat="43.52979" lon="5.57204">
        <ele>491</ele>
        <time>2022-02-15T08:22:03.000Z</time>
      </trkpt>
      <trkpt lat="43.52979" lon="5.57205">
        <ele>491</ele>
        <time>2022-02-15T08:22:04.000Z</time>
      </trkpt>
      <trkpt lat="43.52979" lon="5.57206">
        <ele>491</ele>
        <time>2022-02-15T08:22:05.000Z</time>
      </trkpt>
      <trkpt lat="43.52978" lon="5.57207">
        <ele>491</ele>
        <time>2022-02-15T08:22:06.000Z</time>
      </trkpt>
      <trkpt lat="43.52978" lon="5.57209">
        <ele>491</ele>
        <time>2022-02-15T08:22:07.000Z</time>
      </trkpt>
      <trkpt lat="43.52978" lon="5.5721">
        <ele>491</ele>
        <time>2022-02-15T08:22:08.000Z</time>
      </trkpt>
      <trkpt lat="43.52977" lon="5.57211">
        <ele>491</ele>
        <time>2022-02-15T08:22:09.000Z</time>
      </trkpt>
      <trkpt lat="43.52977" lon="5.57212">
        <ele>491</ele>
        <time>2022-02-15T08:22:10.000Z</time>
      </trkpt>
      <trkpt lat="43.52977" lon="5.57213">
        <ele>491</ele>
        <time>2022-02-15T08:22:11.000Z</time>
      </trkpt>
      <trkpt lat="43.52977" lon="5.57214">
        <ele>491</ele>
        <time>2022-02-15T08:22:12.000Z</time>
      </trkpt>
      <trkpt lat="43.52976" lon="5.57214">
        <ele>491</ele>
        <time>2022-02-15T08:22:13.000Z</time>
      </trkpt>
      <trkpt lat="43.52977" lon="5.57215">
        <ele>491</ele>
        <time>2022-02-15T08:22:14.000Z</time>
      </trkpt>
      <trkpt lat="43.52977" lon="5.57215">
        <ele>491</ele>
        <time>2022-02-15T08:22:15.000Z</time>
      </trkpt>
      <trkpt lat="43.52977" lon="5.57216">
        <ele>491</ele>
        <time>2022-02-15T08:22:16.000Z</time>
      </trkpt>
      <trkpt lat="43.52977" lon="5.57217">
        <ele>491</ele>
        <time>2022-02-15T08:22:17.000Z</time>
      </trkpt>
      <trkpt lat="43.52978" lon="5.57217">
        <ele>491</ele>
        <time>2022-02-15T08:22:18.000Z</time>
      </trkpt>
      <trkpt lat="43.52978" lon="5.57217">
        <ele>492</ele>
        <time>2022-02-15T08:22:19.000Z</time>
      </trkpt>
      <trkpt lat="43.52977" lon="5.57218">
        <ele>492</ele>
        <time>2022-02-15T08:22:20.000Z</time>
      </trkpt>
      <trkpt lat="43.52977" lon="5.57218">
        <ele>492</ele>
        <time>2022-02-15T08:22:21.000Z</time>
      </trkpt>
      <trkpt lat="43.52978" lon="5.57219">
        <ele>492</ele>
        <time>2022-02-15T08:22:22.000Z</time>
      </trkpt>
      <trkpt lat="43.52978" lon="5.5722">
        <ele>492</ele>
        <time>2022-02-15T08:22:23.000Z</time>
      </trkpt>
      <trkpt lat="43.52978" lon="5.57221">
        <ele>492</ele>
        <time>2022-02-15T08:22:24.000Z</time>
      </trkpt>
      <trkpt lat="43.52978" lon="5.57222">
        <ele>492</ele>
        <time>2022-02-15T08:22:25.000Z</time>
      </trkpt>
      <trkpt lat="43.52978" lon="5.57223">
        <ele>492</ele>
        <time>2022-02-15T08:22:26.000Z</time>
      </trkpt>
      <trkpt lat="43.52978" lon="5.57224">
        <ele>492</ele>
        <time>2022-02-15T08:22:27.000Z</time>
      </trkpt>
      <trkpt lat="43.52978" lon="5.57224">
        <ele>492</ele>
        <time>2022-02-15T08:22:28.000Z</time>
      </trkpt>
      <trkpt lat="43.52978" lon="5.57225">
        <ele>492</ele>
        <time>2022-02-15T08:22:29.000Z</time>
      </trkpt>
      <trkpt lat="43.52978" lon="5.57226">
        <ele>492</ele>
        <time>2022-02-15T08:22:30.000Z</time>
      </trkpt>
      <trkpt lat="43.52978" lon="5.57227">
        <ele>492</ele>
        <time>2022-02-15T08:22:31.000Z</time>
      </trkpt>
      <trkpt lat="43.52978" lon="5.57228">
        <ele>492</ele>
        <time>2022-02-15T08:22:32.000Z</time>
      </trkpt>
      <trkpt lat="43.52978" lon="5.57229">
        <ele>492</ele>
        <time>2022-02-15T08:22:33.000Z</time>
      </trkpt>
      <trkpt lat="43.52978" lon="5.5723">
        <ele>492</ele>
        <time>2022-02-15T08:22:34.000Z</time>
      </trkpt>
      <trkpt lat="43.52978" lon="5.57231">
        <ele>492</ele>
        <time>2022-02-15T08:22:35.000Z</time>
      </trkpt>
      <trkpt lat="43.52978" lon="5.57232">
        <ele>492</ele>
        <time>2022-02-15T08:22:36.000Z</time>
      </trkpt>
      <trkpt lat="43.52978" lon="5.57233">
        <ele>492</ele>
        <time>2022-02-15T08:22:37.000Z</time>
      </trkpt>
      <trkpt lat="43.52978" lon="5.57234">
        <ele>492</ele>
        <time>2022-02-15T08:22:38.000Z</time>
      </trkpt>
      <trkpt lat="43.52978" lon="5.57236">
        <ele>493</ele>
        <time>2022-02-15T08:22:39.000Z</time>
      </trkpt>
      <trkpt lat="43.52977" lon="5.57237">
        <ele>493</ele>
        <time>2022-02-15T08:22:40.000Z</time>
      </trkpt>
      <trkpt lat="43.52977" lon="5.57238">
        <ele>493</ele>
        <time>2022-02-15T08:22:41.000Z</time>
      </trkpt>
      <trkpt lat="43.52977" lon="5.57239">
        <ele>493</ele>
        <time>2022-02-15T08:22:42.000Z</time>
      </trkpt>
      <trkpt lat="43.52977" lon="5.57239">
        <ele>493</ele>
        <time>2022-02-15T08:22:43.000Z</time>
      </trkpt>
      <trkpt lat="43.52977" lon="5.5724">
        <ele>493</ele>
        <time>2022-02-15T08:22:44.000Z</time>
      </trkpt>
      <trkpt lat="43.52977" lon="5.5724">
        <ele>493</ele>
        <time>2022-02-15T08:22:45.000Z</time>
      </trkpt>
      <trkpt lat="43.52978" lon="5.57241">
        <ele>493</ele>
        <time>2022-02-15T08:22:46.000Z</time>
      </trkpt>
      <trkpt lat="43.52978" lon="5.57242">
        <ele>493</ele>
        <time>2022-02-15T08:22:47.000Z</time>
      </trkpt>
      <trkpt lat="43.52978" lon="5.57242">
        <ele>493</ele>
        <time>2022-02-15T08:22:48.000Z</time>
      </trkpt>
      <trkpt lat="43.52978" lon="5.57243">
        <ele>494</ele>
        <time>2022-02-15T08:22:49.000Z</time>
      </trkpt>
      <trkpt lat="43.52978" lon="5.57244">
        <ele>494</ele>
        <time>2022-02-15T08:22:50.000Z</time>
      </trkpt>
      <trkpt lat="43.52978" lon="5.57245">
        <ele>494</ele>
        <time>2022-02-15T08:22:51.000Z</time>
      </trkpt>
      <trkpt lat="43.52978" lon="5.57245">
        <ele>494</ele>
        <time>2022-02-15T08:22:52.000Z</time>
      </trkpt>
      <trkpt lat="43.52978" lon="5.57246">
        <ele>494</ele>
        <time>2022-02-15T08:22:53.000Z</time>
      </trkpt>
      <trkpt lat="43.52978" lon="5.57247">
        <ele>494</ele>
        <time>2022-02-15T08:22:54.000Z</time>
      </trkpt>
      <trkpt lat="43.52978" lon="5.57248">
        <ele>494</ele>
        <time>2022-02-15T08:22:55.000Z</time>
      </trkpt>
      <trkpt lat="43.52978" lon="5.57248">
        <ele>494</ele>
        <time>2022-02-15T08:22:56.000Z</time>
      </trkpt>
      <trkpt lat="43.52979" lon="5.57249">
        <ele>494</ele>
        <time>2022-02-15T08:22:57.000Z</time>
      </trkpt>
      <trkpt lat="43.52979" lon="5.57249">
        <ele>495</ele>
        <time>2022-02-15T08:22:58.000Z</time>
      </trkpt>
      <trkpt lat="43.52979" lon="5.5725">
        <ele>495</ele>
        <time>2022-02-15T08:22:59.000Z</time>
      </trkpt>
      <trkpt lat="43.52979" lon="5.57251">
        <ele>495</ele>
        <time>2022-02-15T08:23:00.000Z</time>
      </trkpt>
      <trkpt lat="43.52979" lon="5.57252">
        <ele>495</ele>
        <time>2022-02-15T08:23:01.000Z</time>
      </trkpt>
      <trkpt lat="43.52979" lon="5.57252">
        <ele>495</ele>
        <time>2022-02-15T08:23:02.000Z</time>
      </trkpt>
      <trkpt lat="43.52979" lon="5.57253">
        <ele>495</ele>
        <time>2022-02-15T08:23:03.000Z</time>
      </trkpt>
      <trkpt lat="43.52978" lon="5.57253">
        <ele>496</ele>
        <time>2022-02-15T08:23:04.000Z</time>
      </trkpt>
      <trkpt lat="43.52978" lon="5.57253">
        <ele>496</ele>
        <time>2022-02-15T08:23:05.000Z</time>
      </trkpt>
      <trkpt lat="43.52978" lon="5.57254">
        <ele>496</ele>
        <time>2022-02-15T08:23:06.000Z</time>
      </trkpt>
      <trkpt lat="43.52978" lon="5.57254">
        <ele>496</ele>
        <time>2022-02-15T08:23:07.000Z</time>
      </trkpt>
      <trkpt lat="43.52977" lon="5.57254">
        <ele>496</ele>
        <time>2022-02-15T08:23:08.000Z</time>
      </trkpt>
      <trkpt lat="43.52977" lon="5.57254">
        <ele>497</ele>
        <time>2022-02-15T08:23:09.000Z</time>
      </trkpt>
      <trkpt lat="43.52977" lon="5.57254">
        <ele>497</ele>
        <time>2022-02-15T08:23:10.000Z</time>
      </trkpt>
      <trkpt lat="43.52977" lon="5.57254">
        <ele>497</ele>
        <time>2022-02-15T08:23:11.000Z</time>
      </trkpt>
      <trkpt lat="43.52977" lon="5.57254">
        <ele>497</ele>
        <time>2022-02-15T08:23:12.000Z</time>
      </trkpt>
      <trkpt lat="43.52977" lon="5.57254">
        <ele>497</ele>
        <time>2022-02-15T08:23:13.000Z</time>
      </trkpt>
      <trkpt lat="43.52977" lon="5.57254">
        <ele>497</ele>
        <time>2022-02-15T08:23:14.000Z</time>
      </trkpt>
      <trkpt lat="43.52977" lon="5.57254">
        <ele>497</ele>
        <time>2022-02-15T08:23:15.000Z</time>
      </trkpt>
      <trkpt lat="43.52976" lon="5.57254">
        <ele>497</ele>
        <time>2022-02-15T08:23:16.000Z</time>
      </trkpt>
      <trkpt lat="43.52976" lon="5.57254">
        <ele>498</ele>
        <time>2022-02-15T08:23:17.000Z</time>
      </trkpt>
      <trkpt lat="43.52976" lon="5.57254">
        <ele>498</ele>
        <time>2022-02-15T08:23:18.000Z</time>
      </trkpt>
      <trkpt lat="43.52976" lon="5.57254">
        <ele>498</ele>
        <time>2022-02-15T08:23:19.000Z</time>
      </trkpt>
      <trkpt lat="43.52976" lon="5.57254">
        <ele>498</ele>
        <time>2022-02-15T08:23:20.000Z</time>
      </trkpt>
      <trkpt lat="43.52976" lon="5.57254">
        <ele>498</ele>
        <time>2022-02-15T08:23:21.000Z</time>
      </trkpt>
      <trkpt lat="43.52976" lon="5.57254">
        <ele>498</ele>
        <time>2022-02-15T08:23:22.000Z</time>
      </trkpt>
      <trkpt lat="43.52976" lon="5.57254">
        <ele>498</ele>
        <time>2022-02-15T08:23:23.000Z</time>
      </trkpt>
      <trkpt lat="43.52976" lon="5.57254">
        <ele>498</ele>
        <time>2022-02-15T08:23:24.000Z</time>
      </trkpt>
      <trkpt lat="43.52976" lon="5.57254">
        <ele>499</ele>
        <time>2022-02-15T08:23:25.000Z</time>
      </trkpt>
      <trkpt lat="43.52975" lon="5.57255">
        <ele>499</ele>
        <time>2022-02-15T08:23:26.000Z</time>
      </trkpt>
      <trkpt lat="43.52975" lon="5.57255">
        <ele>499</ele>
        <time>2022-02-15T08:23:27.000Z</time>
      </trkpt>
      <trkpt lat="43.52975" lon="5.57256">
        <ele>499</ele>
        <time>2022-02-15T08:23:28.000Z</time>
      </trkpt>
      <trkpt lat="43.52975" lon="5.57256">
        <ele>499</ele>
        <time>2022-02-15T08:23:29.000Z</time>
      </trkpt>
      <trkpt lat="43.52975" lon="5.57257">
        <ele>499</ele>
        <time>2022-02-15T08:23:30.000Z</time>
      </trkpt>
      <trkpt lat="43.52975" lon="5.57256">
        <ele>499</ele>
        <time>2022-02-15T08:23:31.000Z</time>
      </trkpt>
      <trkpt lat="43.52975" lon="5.57257">
        <ele>499</ele>
        <time>2022-02-15T08:23:32.000Z</time>
      </trkpt>
      <trkpt lat="43.52976" lon="5.57257">
        <ele>499</ele>
        <time>2022-02-15T08:23:33.000Z</time>
      </trkpt>
      <trkpt lat="43.52976" lon="5.57257">
        <ele>500</ele>
        <time>2022-02-15T08:23:34.000Z</time>
      </trkpt>
      <trkpt lat="43.52976" lon="5.57257">
        <ele>500</ele>
        <time>2022-02-15T08:23:35.000Z</time>
      </trkpt>
      <trkpt lat="43.52976" lon="5.57257">
        <ele>500</ele>
        <time>2022-02-15T08:23:36.000Z</time>
      </trkpt>
      <trkpt lat="43.52976" lon="5.57257">
        <ele>500</ele>
        <time>2022-02-15T08:23:37.000Z</time>
      </trkpt>
      <trkpt lat="43.52977" lon="5.57257">
        <ele>500</ele>
        <time>2022-02-15T08:23:38.000Z</time>
      </trkpt>
      <trkpt lat="43.52977" lon="5.57258">
        <ele>501</ele>
        <time>2022-02-15T08:23:39.000Z</time>
      </trkpt>
      <trkpt lat="43.52977" lon="5.57258">
        <ele>501</ele>
        <time>2022-02-15T08:23:40.000Z</time>
      </trkpt>
      <trkpt lat="43.52977" lon="5.57259">
        <ele>501</ele>
        <time>2022-02-15T08:23:41.000Z</time>
      </trkpt>
      <trkpt lat="43.52977" lon="5.57259">
        <ele>501</ele>
        <time>2022-02-15T08:23:42.000Z</time>
      </trkpt>
      <trkpt lat="43.52977" lon="5.5726">
        <ele>501</ele>
        <time>2022-02-15T08:23:43.000Z</time>
      </trkpt>
      <trkpt lat="43.52977" lon="5.5726">
        <ele>501</ele>
        <time>2022-02-15T08:23:44.000Z</time>
      </trkpt>
      <trkpt lat="43.52978" lon="5.57261">
        <ele>502</ele>
        <time>2022-02-15T08:23:45.000Z</time>
      </trkpt>
      <trkpt lat="43.52978" lon="5.57261">
        <ele>502</ele>
        <time>2022-02-15T08:23:46.000Z</time>
      </trkpt>
      <trkpt lat="43.52978" lon="5.57261">
        <ele>502</ele>
        <time>2022-02-15T08:23:47.000Z</time>
      </trkpt>
      <trkpt lat="43.52978" lon="5.57261">
        <ele>502</ele>
        <time>2022-02-15T08:23:48.000Z</time>
      </trkpt>
      <trkpt lat="43.52978" lon="5.57261">
        <ele>502</ele>
        <time>2022-02-15T08:23:49.000Z</time>
      </trkpt>
      <trkpt lat="43.52978" lon="5.57262">
        <ele>502</ele>
        <time>2022-02-15T08:23:50.000Z</time>
      </trkpt>
      <trkpt lat="43.52978" lon="5.57262">
        <ele>502</ele>
        <time>2022-02-15T08:23:51.000Z</time>
      </trkpt>
      <trkpt lat="43.52978" lon="5.57262">
        <ele>503</ele>
        <time>2022-02-15T08:23:52.000Z</time>
      </trkpt>
      <trkpt lat="43.52979" lon="5.57262">
        <ele>503</ele>
        <time>2022-02-15T08:23:53.000Z</time>
      </trkpt>
      <trkpt lat="43.52979" lon="5.57262">
        <ele>503</ele>
        <time>2022-02-15T08:23:54.000Z</time>
      </trkpt>
      <trkpt lat="43.52979" lon="5.57261">
        <ele>503</ele>
        <time>2022-02-15T08:23:55.000Z</time>
      </trkpt>
      <trkpt lat="43.52979" lon="5.5726">
        <ele>504</ele>
        <time>2022-02-15T08:23:56.000Z</time>
      </trkpt>
      <trkpt lat="43.5298" lon="5.5726">
        <ele>504</ele>
        <time>2022-02-15T08:23:57.000Z</time>
      </trkpt>
      <trkpt lat="43.5298" lon="5.57259">
        <ele>504</ele>
        <time>2022-02-15T08:23:58.000Z</time>
      </trkpt>
      <trkpt lat="43.5298" lon="5.57259">
        <ele>505</ele>
        <time>2022-02-15T08:23:59.000Z</time>
      </trkpt>
      <trkpt lat="43.5298" lon="5.57259">
        <ele>505</ele>
        <time>2022-02-15T08:24:00.000Z</time>
      </trkpt>
      <trkpt lat="43.5298" lon="5.57259">
        <ele>505</ele>
        <time>2022-02-15T08:24:01.000Z</time>
      </trkpt>
      <trkpt lat="43.5298" lon="5.57258">
        <ele>505</ele>
        <time>2022-02-15T08:24:02.000Z</time>
      </trkpt>
      <trkpt lat="43.5298" lon="5.57258">
        <ele>505</ele>
        <time>2022-02-15T08:24:03.000Z</time>
      </trkpt>
      <trkpt lat="43.5298" lon="5.57258">
        <ele>506</ele>
        <time>2022-02-15T08:24:04.000Z</time>
      </trkpt>
      <trkpt lat="43.5298" lon="5.57258">
        <ele>506</ele>
        <time>2022-02-15T08:24:05.000Z</time>
      </trkpt>
      <trkpt lat="43.52981" lon="5.57258">
        <ele>506</ele>
        <time>2022-02-15T08:24:06.000Z</time>
      </trkpt>
      <trkpt lat="43.52981" lon="5.57257">
        <ele>506</ele>
        <time>2022-02-15T08:24:07.000Z</time>
      </trkpt>
      <trkpt lat="43.52981" lon="5.57257">
        <ele>507</ele>
        <time>2022-02-15T08:24:08.000Z</time>
      </trkpt>
      <trkpt lat="43.52981" lon="5.57256">
        <ele>507</ele>
        <time>2022-02-15T08:24:09.000Z</time>
      </trkpt>
      <trkpt lat="43.52982" lon="5.57256">
        <ele>507</ele>
        <time>2022-02-15T08:24:10.000Z</time>
      </trkpt>
      <trkpt lat="43.52982" lon="5.57256">
        <ele>507</ele>
        <time>2022-02-15T08:24:11.000Z</time>
      </trkpt>
      <trkpt lat="43.52982" lon="5.57256">
        <ele>507</ele>
        <time>2022-02-15T08:24:12.000Z</time>
      </trkpt>
      <trkpt lat="43.52982" lon="5.57256">
        <ele>508</ele>
        <time>2022-02-15T08:24:13.000Z</time>
      </trkpt>
      <trkpt lat="43.52983" lon="5.57255">
        <ele>508</ele>
        <time>2022-02-15T08:24:14.000Z</time>
      </trkpt>
      <trkpt lat="43.52983" lon="5.57255">
        <ele>508</ele>
        <time>2022-02-15T08:24:15.000Z</time>
      </trkpt>
      <trkpt lat="43.52983" lon="5.57255">
        <ele>508</ele>
        <time>2022-02-15T08:24:16.000Z</time>
      </trkpt>
      <trkpt lat="43.52984" lon="5.57254">
        <ele>508</ele>
        <time>2022-02-15T08:24:17.000Z</time>
      </trkpt>
      <trkpt lat="43.52984" lon="5.57253">
        <ele>508</ele>
        <time>2022-02-15T08:24:18.000Z</time>
      </trkpt>
      <trkpt lat="43.52984" lon="5.57253">
        <ele>509</ele>
        <time>2022-02-15T08:24:19.000Z</time>
      </trkpt>
      <trkpt lat="43.52984" lon="5.57252">
        <ele>509</ele>
        <time>2022-02-15T08:24:20.000Z</time>
      </trkpt>
      <trkpt lat="43.52985" lon="5.57251">
        <ele>509</ele>
        <time>2022-02-15T08:24:21.000Z</time>
      </trkpt>
      <trkpt lat="43.52985" lon="5.57251">
        <ele>509</ele>
        <time>2022-02-15T08:24:22.000Z</time>
      </trkpt>
      <trkpt lat="43.52985" lon="5.57251">
        <ele>509</ele>
        <time>2022-02-15T08:24:23.000Z</time>
      </trkpt>
      <trkpt lat="43.52985" lon="5.57251">
        <ele>509</ele>
        <time>2022-02-15T08:24:24.000Z</time>
      </trkpt>
      <trkpt lat="43.52985" lon="5.57251">
        <ele>509</ele>
        <time>2022-02-15T08:24:25.000Z</time>
      </trkpt>
      <trkpt lat="43.52985" lon="5.57251">
        <ele>510</ele>
        <time>2022-02-15T08:24:26.000Z</time>
      </trkpt>
      <trkpt lat="43.52985" lon="5.57251">
        <ele>510</ele>
        <time>2022-02-15T08:24:27.000Z</time>
      </trkpt>
      <trkpt lat="43.52985" lon="5.57251">
        <ele>510</ele>
        <time>2022-02-15T08:24:28.000Z</time>
      </trkpt>
      <trkpt lat="43.52985" lon="5.5725">
        <ele>510</ele>
        <time>2022-02-15T08:24:29.000Z</time>
      </trkpt>
      <trkpt lat="43.52985" lon="5.5725">
        <ele>510</ele>
        <time>2022-02-15T08:24:30.000Z</time>
      </trkpt>
      <trkpt lat="43.52985" lon="5.5725">
        <ele>510</ele>
        <time>2022-02-15T08:24:31.000Z</time>
      </trkpt>
      <trkpt lat="43.52985" lon="5.5725">
        <ele>510</ele>
        <time>2022-02-15T08:24:32.000Z</time>
      </trkpt>
      <trkpt lat="43.52985" lon="5.5725">
        <ele>510</ele>
        <time>2022-02-15T08:24:33.000Z</time>
      </trkpt>
      <trkpt lat="43.52985" lon="5.5725">
        <ele>510</ele>
        <time>2022-02-15T08:24:34.000Z</time>
      </trkpt>
      <trkpt lat="43.52985" lon="5.5725">
        <ele>511</ele>
        <time>2022-02-15T08:24:35.000Z</time>
      </trkpt>
      <trkpt lat="43.52985" lon="5.5725">
        <ele>511</ele>
        <time>2022-02-15T08:24:36.000Z</time>
      </trkpt>
      <trkpt lat="43.52985" lon="5.5725">
        <ele>511</ele>
        <time>2022-02-15T08:24:37.000Z</time>
      </trkpt>
      <trkpt lat="43.52985" lon="5.5725">
        <ele>511</ele>
        <time>2022-02-15T08:24:38.000Z</time>
      </trkpt>
      <trkpt lat="43.52985" lon="5.57249">
        <ele>511</ele>
        <time>2022-02-15T08:24:39.000Z</time>
      </trkpt>
      <trkpt lat="43.52985" lon="5.57249">
        <ele>511</ele>
        <time>2022-02-15T08:24:40.000Z</time>
      </trkpt>
      <trkpt lat="43.52985" lon="5.57249">
        <ele>511</ele>
        <time>2022-02-15T08:24:41.000Z</time>
      </trkpt>
      <trkpt lat="43.52985" lon="5.57249">
        <ele>511</ele>
        <time>2022-02-15T08:24:42.000Z</time>
      </trkpt>
      <trkpt lat="43.52985" lon="5.57249">
        <ele>511</ele>
        <time>2022-02-15T08:24:43.000Z</time>
      </trkpt>
      <trkpt lat="43.52985" lon="5.57249">
        <ele>511</ele>
        <time>2022-02-15T08:24:44.000Z</time>
      </trkpt>
      <trkpt lat="43.52985" lon="5.57249">
        <ele>511</ele>
        <time>2022-02-15T08:24:45.000Z</time>
      </trkpt>
      <trkpt lat="43.52985" lon="5.57249">
        <ele>511</ele>
        <time>2022-02-15T08:24:46.000Z</time>
      </trkpt>
      <trkpt lat="43.52985" lon="5.57249">
        <ele>511</ele>
        <time>2022-02-15T08:24:47.000Z</time>
      </trkpt>
      <trkpt lat="43.52985" lon="5.57249">
        <ele>511</ele>
        <time>2022-02-15T08:24:48.000Z</time>
      </trkpt>
      <trkpt lat="43.52985" lon="5.57249">
        <ele>511</ele>
        <time>2022-02-15T08:24:49.000Z</time>
      </trkpt>
      <trkpt lat="43.52985" lon="5.57249">
        <ele>511</ele>
        <time>2022-02-15T08:24:50.000Z</time>
      </trkpt>
      <trkpt lat="43.52985" lon="5.57249">
        <ele>511</ele>
        <time>2022-02-15T08:24:51.000Z</time>
      </trkpt>
      <trkpt lat="43.52986" lon="5.57249">
        <ele>511</ele>
        <time>2022-02-15T08:24:52.000Z</time>
      </trkpt>
      <trkpt lat="43.52986" lon="5.57249">
        <ele>511</ele>
        <time>2022-02-15T08:24:53.000Z</time>
      </trkpt>
      <trkpt lat="43.52986" lon="5.5725">
        <ele>512</ele>
        <time>2022-02-15T08:24:54.000Z</time>
      </trkpt>
      <trkpt lat="43.52986" lon="5.57251">
        <ele>512</ele>
        <time>2022-02-15T08:24:55.000Z</time>
      </trkpt>
      <trkpt lat="43.52986" lon="5.57251">
        <ele>512</ele>
        <time>2022-02-15T08:24:56.000Z</time>
      </trkpt>
      <trkpt lat="43.52986" lon="5.57252">
        <ele>512</ele>
        <time>2022-02-15T08:24:57.000Z</time>
      </trkpt>
      <trkpt lat="43.52986" lon="5.57253">
        <ele>512</ele>
        <time>2022-02-15T08:24:58.000Z</time>
      </trkpt>
      <trkpt lat="43.52986" lon="5.57253">
        <ele>512</ele>
        <time>2022-02-15T08:24:59.000Z</time>
      </trkpt>
      <trkpt lat="43.52986" lon="5.57255">
        <ele>512</ele>
        <time>2022-02-15T08:25:00.000Z</time>
      </trkpt>
      <trkpt lat="43.52986" lon="5.57255">
        <ele>512</ele>
        <time>2022-02-15T08:25:01.000Z</time>
      </trkpt>
      <trkpt lat="43.52986" lon="5.57256">
        <ele>512</ele>
        <time>2022-02-15T08:25:02.000Z</time>
      </trkpt>
      <trkpt lat="43.52986" lon="5.57257">
        <ele>512</ele>
        <time>2022-02-15T08:25:03.000Z</time>
      </trkpt>
      <trkpt lat="43.52986" lon="5.57257">
        <ele>512</ele>
        <time>2022-02-15T08:25:04.000Z</time>
      </trkpt>
      <trkpt lat="43.52987" lon="5.57257">
        <ele>512</ele>
        <time>2022-02-15T08:25:05.000Z</time>
      </trkpt>
      <trkpt lat="43.52987" lon="5.57258">
        <ele>512</ele>
        <time>2022-02-15T08:25:06.000Z</time>
      </trkpt>
      <trkpt lat="43.52987" lon="5.57258">
        <ele>512</ele>
        <time>2022-02-15T08:25:07.000Z</time>
      </trkpt>
      <trkpt lat="43.52988" lon="5.57259">
        <ele>513</ele>
        <time>2022-02-15T08:25:08.000Z</time>
      </trkpt>
      <trkpt lat="43.52988" lon="5.5726">
        <ele>513</ele>
        <time>2022-02-15T08:25:09.000Z</time>
      </trkpt>
      <trkpt lat="43.52988" lon="5.5726">
        <ele>513</ele>
        <time>2022-02-15T08:25:10.000Z</time>
      </trkpt>
      <trkpt lat="43.52988" lon="5.57261">
        <ele>513</ele>
        <time>2022-02-15T08:25:11.000Z</time>
      </trkpt>
      <trkpt lat="43.52988" lon="5.57261">
        <ele>513</ele>
        <time>2022-02-15T08:25:12.000Z</time>
      </trkpt>
      <trkpt lat="43.52988" lon="5.57262">
        <ele>513</ele>
        <time>2022-02-15T08:25:13.000Z</time>
      </trkpt>
      <trkpt lat="43.52988" lon="5.57263">
        <ele>513</ele>
        <time>2022-02-15T08:25:14.000Z</time>
      </trkpt>
      <trkpt lat="43.52989" lon="5.57264">
        <ele>513</ele>
        <time>2022-02-15T08:25:15.000Z</time>
      </trkpt>
      <trkpt lat="43.52989" lon="5.57264">
        <ele>513</ele>
        <time>2022-02-15T08:25:16.000Z</time>
      </trkpt>
      <trkpt lat="43.52989" lon="5.57265">
        <ele>513</ele>
        <time>2022-02-15T08:25:17.000Z</time>
      </trkpt>
      <trkpt lat="43.52989" lon="5.57265">
        <ele>513</ele>
        <time>2022-02-15T08:25:18.000Z</time>
      </trkpt>
      <trkpt lat="43.5299" lon="5.57266">
        <ele>513</ele>
        <time>2022-02-15T08:25:19.000Z</time>
      </trkpt>
      <trkpt lat="43.5299" lon="5.57267">
        <ele>513</ele>
        <time>2022-02-15T08:25:20.000Z</time>
      </trkpt>
      <trkpt lat="43.5299" lon="5.57267">
        <ele>513</ele>
        <time>2022-02-15T08:25:21.000Z</time>
      </trkpt>
      <trkpt lat="43.5299" lon="5.57268">
        <ele>513</ele>
        <time>2022-02-15T08:25:22.000Z</time>
      </trkpt>
      <trkpt lat="43.5299" lon="5.57269">
        <ele>514</ele>
        <time>2022-02-15T08:25:23.000Z</time>
      </trkpt>
      <trkpt lat="43.5299" lon="5.5727">
        <ele>514</ele>
        <time>2022-02-15T08:25:24.000Z</time>
      </trkpt>
      <trkpt lat="43.52989" lon="5.57271">
        <ele>514</ele>
        <time>2022-02-15T08:25:25.000Z</time>
      </trkpt>
      <trkpt lat="43.52989" lon="5.57271">
        <ele>514</ele>
        <time>2022-02-15T08:25:26.000Z</time>
      </trkpt>
      <trkpt lat="43.52989" lon="5.57272">
        <ele>514</ele>
        <time>2022-02-15T08:25:27.000Z</time>
      </trkpt>
      <trkpt lat="43.52989" lon="5.57273">
        <ele>514</ele>
        <time>2022-02-15T08:25:28.000Z</time>
      </trkpt>
      <trkpt lat="43.52989" lon="5.57273">
        <ele>514</ele>
        <time>2022-02-15T08:25:29.000Z</time>
      </trkpt>
      <trkpt lat="43.5299" lon="5.57273">
        <ele>514</ele>
        <time>2022-02-15T08:25:30.000Z</time>
      </trkpt>
      <trkpt lat="43.5299" lon="5.57274">
        <ele>514</ele>
        <time>2022-02-15T08:25:31.000Z</time>
      </trkpt>
      <trkpt lat="43.5299" lon="5.57274">
        <ele>515</ele>
        <time>2022-02-15T08:25:32.000Z</time>
      </trkpt>
      <trkpt lat="43.5299" lon="5.57275">
        <ele>515</ele>
        <time>2022-02-15T08:25:33.000Z</time>
      </trkpt>
      <trkpt lat="43.5299" lon="5.57275">
        <ele>515</ele>
        <time>2022-02-15T08:25:34.000Z</time>
      </trkpt>
      <trkpt lat="43.52991" lon="5.57276">
        <ele>515</ele>
        <time>2022-02-15T08:25:35.000Z</time>
      </trkpt>
      <trkpt lat="43.52991" lon="5.57276">
        <ele>515</ele>
        <time>2022-02-15T08:25:36.000Z</time>
      </trkpt>
      <trkpt lat="43.52991" lon="5.57277">
        <ele>515</ele>
        <time>2022-02-15T08:25:37.000Z</time>
      </trkpt>
      <trkpt lat="43.52991" lon="5.57277">
        <ele>515</ele>
        <time>2022-02-15T08:25:38.000Z</time>
      </trkpt>
      <trkpt lat="43.52991" lon="5.57277">
        <ele>515</ele>
        <time>2022-02-15T08:25:39.000Z</time>
      </trkpt>
      <trkpt lat="43.5299" lon="5.57277">
        <ele>515</ele>
        <time>2022-02-15T08:25:40.000Z</time>
      </trkpt>
      <trkpt lat="43.5299" lon="5.57277">
        <ele>516</ele>
        <time>2022-02-15T08:25:41.000Z</time>
      </trkpt>
      <trkpt lat="43.5299" lon="5.57277">
        <ele>516</ele>
        <time>2022-02-15T08:25:42.000Z</time>
      </trkpt>
      <trkpt lat="43.5299" lon="5.57277">
        <ele>516</ele>
        <time>2022-02-15T08:25:43.000Z</time>
      </trkpt>
      <trkpt lat="43.5299" lon="5.57277">
        <ele>516</ele>
        <time>2022-02-15T08:25:44.000Z</time>
      </trkpt>
      <trkpt lat="43.5299" lon="5.57277">
        <ele>516</ele>
        <time>2022-02-15T08:25:45.000Z</time>
      </trkpt>
      <trkpt lat="43.5299" lon="5.57277">
        <ele>516</ele>
        <time>2022-02-15T08:25:46.000Z</time>
      </trkpt>
      <trkpt lat="43.5299" lon="5.57277">
        <ele>516</ele>
        <time>2022-02-15T08:25:47.000Z</time>
      </trkpt>
      <trkpt lat="43.5299" lon="5.57277">
        <ele>516</ele>
        <time>2022-02-15T08:25:48.000Z</time>
      </trkpt>
      <trkpt lat="43.5299" lon="5.57277">
        <ele>516</ele>
        <time>2022-02-15T08:25:49.000Z</time>
      </trkpt>
      <trkpt lat="43.5299" lon="5.57277">
        <ele>516</ele>
        <time>2022-02-15T08:25:50.000Z</time>
      </trkpt>
      <trkpt lat="43.5299" lon="5.57277">
        <ele>517</ele>
        <time>2022-02-15T08:25:51.000Z</time>
      </trkpt>
      <trkpt lat="43.5299" lon="5.57277">
        <ele>517</ele>
        <time>2022-02-15T08:25:52.000Z</time>
      </trkpt>
      <trkpt lat="43.5299" lon="5.57277">
        <ele>517</ele>
        <time>2022-02-15T08:25:53.000Z</time>
      </trkpt>
      <trkpt lat="43.5299" lon="5.57277">
        <ele>517</ele>
        <time>2022-02-15T08:25:54.000Z</time>
      </trkpt>
      <trkpt lat="43.5299" lon="5.57277">
        <ele>517</ele>
        <time>2022-02-15T08:25:55.000Z</time>
      </trkpt>
      <trkpt lat="43.5299" lon="5.57277">
        <ele>517</ele>
        <time>2022-02-15T08:25:56.000Z</time>
      </trkpt>
      <trkpt lat="43.5299" lon="5.57277">
        <ele>517</ele>
        <time>2022-02-15T08:25:57.000Z</time>
      </trkpt>
      <trkpt lat="43.5299" lon="5.57277">
        <ele>517</ele>
        <time>2022-02-15T08:25:58.000Z</time>
      </trkpt>
      <trkpt lat="43.5299" lon="5.57277">
        <ele>517</ele>
        <time>2022-02-15T08:25:59.000Z</time>
      </trkpt>
      <trkpt lat="43.5299" lon="5.57277">
        <ele>517</ele>
        <time>2022-02-15T08:26:00.000Z</time>
      </trkpt>
      <trkpt lat="43.5299" lon="5.57277">
        <ele>517</ele>
        <time>2022-02-15T08:26:01.000Z</time>
      </trkpt>
      <trkpt lat="43.5299" lon="5.57277">
        <ele>517</ele>
        <time>2022-02-15T08:26:02.000Z</time>
      </trkpt>
      <trkpt lat="43.5299" lon="5.57277">
        <ele>517</ele>
        <time>2022-02-15T08:26:03.000Z</time>
      </trkpt>
      <trkpt lat="43.5299" lon="5.57277">
        <ele>517</ele>
        <time>2022-02-15T08:26:04.000Z</time>
      </trkpt>
      <trkpt lat="43.5299" lon="5.57277">
        <ele>517</ele>
        <time>2022-02-15T08:26:05.000Z</time>
      </trkpt>
      <trkpt lat="43.52991" lon="5.57276">
        <ele>517</ele>
        <time>2022-02-15T08:26:06.000Z</time>
      </trkpt>
      <trkpt lat="43.52991" lon="5.57277">
        <ele>517</ele>
        <time>2022-02-15T08:26:07.000Z</time>
      </trkpt>
      <trkpt lat="43.52991" lon="5.57277">
        <ele>517</ele>
        <time>2022-02-15T08:26:08.000Z</time>
      </trkpt>
      <trkpt lat="43.52991" lon="5.57277">
        <ele>517</ele>
        <time>2022-02-15T08:26:09.000Z</time>
      </trkpt>
      <trkpt lat="43.52991" lon="5.57277">
        <ele>518</ele>
        <time>2022-02-15T08:26:10.000Z</time>
      </trkpt>
      <trkpt lat="43.52992" lon="5.57277">
        <ele>518</ele>
        <time>2022-02-15T08:26:11.000Z</time>
      </trkpt>
      <trkpt lat="43.52992" lon="5.57278">
        <ele>518</ele>
        <time>2022-02-15T08:26:12.000Z</time>
      </trkpt>
      <trkpt lat="43.52992" lon="5.57278">
        <ele>518</ele>
        <time>2022-02-15T08:26:13.000Z</time>
      </trkpt>
      <trkpt lat="43.52992" lon="5.57279">
        <ele>518</ele>
        <time>2022-02-15T08:26:14.000Z</time>
      </trkpt>
      <trkpt lat="43.52992" lon="5.57279">
        <ele>518</ele>
        <time>2022-02-15T08:26:15.000Z</time>
      </trkpt>
      <trkpt lat="43.52992" lon="5.5728">
        <ele>518</ele>
        <time>2022-02-15T08:26:16.000Z</time>
      </trkpt>
      <trkpt lat="43.52991" lon="5.57281">
        <ele>519</ele>
        <time>2022-02-15T08:26:17.000Z</time>
      </trkpt>
      <trkpt lat="43.52991" lon="5.57281">
        <ele>519</ele>
        <time>2022-02-15T08:26:18.000Z</time>
      </trkpt>
      <trkpt lat="43.52991" lon="5.57282">
        <ele>519</ele>
        <time>2022-02-15T08:26:19.000Z</time>
      </trkpt>
      <trkpt lat="43.52991" lon="5.57282">
        <ele>519</ele>
        <time>2022-02-15T08:26:20.000Z</time>
      </trkpt>
      <trkpt lat="43.52991" lon="5.57282">
        <ele>519</ele>
        <time>2022-02-15T08:26:21.000Z</time>
      </trkpt>
      <trkpt lat="43.52992" lon="5.57281">
        <ele>520</ele>
        <time>2022-02-15T08:26:22.000Z</time>
      </trkpt>
      <trkpt lat="43.52992" lon="5.57281">
        <ele>520</ele>
        <time>2022-02-15T08:26:23.000Z</time>
      </trkpt>
      <trkpt lat="43.52993" lon="5.57281">
        <ele>520</ele>
        <time>2022-02-15T08:26:24.000Z</time>
      </trkpt>
      <trkpt lat="43.52993" lon="5.57282">
        <ele>520</ele>
        <time>2022-02-15T08:26:25.000Z</time>
      </trkpt>
      <trkpt lat="43.52992" lon="5.57282">
        <ele>521</ele>
        <time>2022-02-15T08:26:26.000Z</time>
      </trkpt>
      <trkpt lat="43.52992" lon="5.57282">
        <ele>521</ele>
        <time>2022-02-15T08:26:27.000Z</time>
      </trkpt>
      <trkpt lat="43.52992" lon="5.57282">
        <ele>521</ele>
        <time>2022-02-15T08:26:28.000Z</time>
      </trkpt>
      <trkpt lat="43.52992" lon="5.57282">
        <ele>521</ele>
        <time>2022-02-15T08:26:29.000Z</time>
      </trkpt>
      <trkpt lat="43.52992" lon="5.57283">
        <ele>522</ele>
        <time>2022-02-15T08:26:30.000Z</time>
      </trkpt>
      <trkpt lat="43.52993" lon="5.57283">
        <ele>522</ele>
        <time>2022-02-15T08:26:31.000Z</time>
      </trkpt>
      <trkpt lat="43.52993" lon="5.57283">
        <ele>522</ele>
        <time>2022-02-15T08:26:32.000Z</time>
      </trkpt>
      <trkpt lat="43.52993" lon="5.57284">
        <ele>522</ele>
        <time>2022-02-15T08:26:33.000Z</time>
      </trkpt>
      <trkpt lat="43.52994" lon="5.57284">
        <ele>522</ele>
        <time>2022-02-15T08:26:34.000Z</time>
      </trkpt>
      <trkpt lat="43.52994" lon="5.57285">
        <ele>522</ele>
        <time>2022-02-15T08:26:35.000Z</time>
      </trkpt>
      <trkpt lat="43.52994" lon="5.57285">
        <ele>523</ele>
        <time>2022-02-15T08:26:36.000Z</time>
      </trkpt>
      <trkpt lat="43.52994" lon="5.57286">
        <ele>523</ele>
        <time>2022-02-15T08:26:37.000Z</time>
      </trkpt>
      <trkpt lat="43.52994" lon="5.57286">
        <ele>523</ele>
        <time>2022-02-15T08:26:38.000Z</time>
      </trkpt>
      <trkpt lat="43.52994" lon="5.57286">
        <ele>523</ele>
        <time>2022-02-15T08:26:39.000Z</time>
      </trkpt>
      <trkpt lat="43.52994" lon="5.57286">
        <ele>523</ele>
        <time>2022-02-15T08:26:40.000Z</time>
      </trkpt>
      <trkpt lat="43.52994" lon="5.57287">
        <ele>523</ele>
        <time>2022-02-15T08:26:41.000Z</time>
      </trkpt>
      <trkpt lat="43.52994" lon="5.57287">
        <ele>523</ele>
        <time>2022-02-15T08:26:42.000Z</time>
      </trkpt>
      <trkpt lat="43.52995" lon="5.57288">
        <ele>523</ele>
        <time>2022-02-15T08:26:43.000Z</time>
      </trkpt>
      <trkpt lat="43.52995" lon="5.57288">
        <ele>524</ele>
        <time>2022-02-15T08:26:44.000Z</time>
      </trkpt>
      <trkpt lat="43.52995" lon="5.57289">
        <ele>524</ele>
        <time>2022-02-15T08:26:45.000Z</time>
      </trkpt>
      <trkpt lat="43.52995" lon="5.57289">
        <ele>524</ele>
        <time>2022-02-15T08:26:46.000Z</time>
      </trkpt>
      <trkpt lat="43.52995" lon="5.5729">
        <ele>524</ele>
        <time>2022-02-15T08:26:47.000Z</time>
      </trkpt>
      <trkpt lat="43.52995" lon="5.5729">
        <ele>524</ele>
        <time>2022-02-15T08:26:48.000Z</time>
      </trkpt>
      <trkpt lat="43.52995" lon="5.5729">
        <ele>524</ele>
        <time>2022-02-15T08:26:49.000Z</time>
      </trkpt>
      <trkpt lat="43.52995" lon="5.57291">
        <ele>524</ele>
        <time>2022-02-15T08:26:50.000Z</time>
      </trkpt>
      <trkpt lat="43.52995" lon="5.57291">
        <ele>524</ele>
        <time>2022-02-15T08:26:51.000Z</time>
      </trkpt>
      <trkpt lat="43.52996" lon="5.57291">
        <ele>524</ele>
        <time>2022-02-15T08:26:52.000Z</time>
      </trkpt>
      <trkpt lat="43.52996" lon="5.57291">
        <ele>524</ele>
        <time>2022-02-15T08:26:53.000Z</time>
      </trkpt>
      <trkpt lat="43.52996" lon="5.57291">
        <ele>524</ele>
        <time>2022-02-15T08:26:54.000Z</time>
      </trkpt>
      <trkpt lat="43.52996" lon="5.57291">
        <ele>524</ele>
        <time>2022-02-15T08:26:55.000Z</time>
      </trkpt>
      <trkpt lat="43.52996" lon="5.57291">
        <ele>524</ele>
        <time>2022-02-15T08:26:56.000Z</time>
      </trkpt>
      <trkpt lat="43.52996" lon="5.57291">
        <ele>525</ele>
        <time>2022-02-15T08:26:57.000Z</time>
      </trkpt>
      <trkpt lat="43.52996" lon="5.57291">
        <ele>525</ele>
        <time>2022-02-15T08:26:58.000Z</time>
      </trkpt>
      <trkpt lat="43.52996" lon="5.57291">
        <ele>525</ele>
        <time>2022-02-15T08:26:59.000Z</time>
      </trkpt>
      <trkpt lat="43.52996" lon="5.57291">
        <ele>525</ele>
        <time>2022-02-15T08:27:00.000Z</time>
      </trkpt>
      <trkpt lat="43.52996" lon="5.57291">
        <ele>525</ele>
        <time>2022-02-15T08:27:01.000Z</time>
      </trkpt>
      <trkpt lat="43.52996" lon="5.57291">
        <ele>525</ele>
        <time>2022-02-15T08:27:02.000Z</time>
      </trkpt>
      <trkpt lat="43.52996" lon="5.57291">
        <ele>525</ele>
        <time>2022-02-15T08:27:03.000Z</time>
      </trkpt>
      <trkpt lat="43.52996" lon="5.57291">
        <ele>525</ele>
        <time>2022-02-15T08:27:04.000Z</time>
      </trkpt>
      <trkpt lat="43.52997" lon="5.57291">
        <ele>525</ele>
        <time>2022-02-15T08:27:05.000Z</time>
      </trkpt>
      <trkpt lat="43.52997" lon="5.57291">
        <ele>525</ele>
        <time>2022-02-15T08:27:06.000Z</time>
      </trkpt>
      <trkpt lat="43.52997" lon="5.5729">
        <ele>526</ele>
        <time>2022-02-15T08:27:07.000Z</time>
      </trkpt>
      <trkpt lat="43.52997" lon="5.5729">
        <ele>526</ele>
        <time>2022-02-15T08:27:08.000Z</time>
      </trkpt>
      <trkpt lat="43.52997" lon="5.5729">
        <ele>526</ele>
        <time>2022-02-15T08:27:09.000Z</time>
      </trkpt>
      <trkpt lat="43.52997" lon="5.5729">
        <ele>526</ele>
        <time>2022-02-15T08:27:10.000Z</time>
      </trkpt>
      <trkpt lat="43.52997" lon="5.5729">
        <ele>526</ele>
        <time>2022-02-15T08:27:11.000Z</time>
      </trkpt>
      <trkpt lat="43.52997" lon="5.5729">
        <ele>526</ele>
        <time>2022-02-15T08:27:12.000Z</time>
      </trkpt>
      <trkpt lat="43.52997" lon="5.5729">
        <ele>526</ele>
        <time>2022-02-15T08:27:13.000Z</time>
      </trkpt>
      <trkpt lat="43.52997" lon="5.5729">
        <ele>526</ele>
        <time>2022-02-15T08:27:14.000Z</time>
      </trkpt>
      <trkpt lat="43.52997" lon="5.5729">
        <ele>526</ele>
        <time>2022-02-15T08:27:15.000Z</time>
      </trkpt>
      <trkpt lat="43.52997" lon="5.5729">
        <ele>526</ele>
        <time>2022-02-15T08:27:16.000Z</time>
      </trkpt>
      <trkpt lat="43.52997" lon="5.5729">
        <ele>526</ele>
        <time>2022-02-15T08:27:17.000Z</time>
      </trkpt>
      <trkpt lat="43.52997" lon="5.5729">
        <ele>526</ele>
        <time>2022-02-15T08:27:18.000Z</time>
      </trkpt>
      <trkpt lat="43.52997" lon="5.5729">
        <ele>526</ele>
        <time>2022-02-15T08:27:19.000Z</time>
      </trkpt>
      <trkpt lat="43.52997" lon="5.57289">
        <ele>527</ele>
        <time>2022-02-15T08:27:20.000Z</time>
      </trkpt>
      <trkpt lat="43.52997" lon="5.57289">
        <ele>527</ele>
        <time>2022-02-15T08:27:21.000Z</time>
      </trkpt>
      <trkpt lat="43.52997" lon="5.57289">
        <ele>527</ele>
        <time>2022-02-15T08:27:22.000Z</time>
      </trkpt>
      <trkpt lat="43.52997" lon="5.57289">
        <ele>527</ele>
        <time>2022-02-15T08:27:23.000Z</time>
      </trkpt>
      <trkpt lat="43.52997" lon="5.57289">
        <ele>527</ele>
        <time>2022-02-15T08:27:24.000Z</time>
      </trkpt>
      <trkpt lat="43.52997" lon="5.57289">
        <ele>527</ele>
        <time>2022-02-15T08:27:25.000Z</time>
      </trkpt>
      <trkpt lat="43.52997" lon="5.57289">
        <ele>527</ele>
        <time>2022-02-15T08:27:26.000Z</time>
      </trkpt>
      <trkpt lat="43.52997" lon="5.57289">
        <ele>527</ele>
        <time>2022-02-15T08:27:27.000Z</time>
      </trkpt>
      <trkpt lat="43.52997" lon="5.57289">
        <ele>527</ele>
        <time>2022-02-15T08:27:28.000Z</time>
      </trkpt>
      <trkpt lat="43.52997" lon="5.57289">
        <ele>527</ele>
        <time>2022-02-15T08:27:29.000Z</time>
      </trkpt>
      <trkpt lat="43.52997" lon="5.57289">
        <ele>527</ele>
        <time>2022-02-15T08:27:30.000Z</time>
      </trkpt>
      <trkpt lat="43.52997" lon="5.57289">
        <ele>527</ele>
        <time>2022-02-15T08:27:31.000Z</time>
      </trkpt>
      <trkpt lat="43.52997" lon="5.57289">
        <ele>527</ele>
        <time>2022-02-15T08:27:32.000Z</time>
      </trkpt>
      <trkpt lat="43.52997" lon="5.57289">
        <ele>527</ele>
        <time>2022-02-15T08:27:33.000Z</time>
      </trkpt>
      <trkpt lat="43.52997" lon="5.57289">
        <ele>527</ele>
        <time>2022-02-15T08:27:34.000Z</time>
      </trkpt>
      <trkpt lat="43.52997" lon="5.57289">
        <ele>527</ele>
        <time>2022-02-15T08:27:35.000Z</time>
      </trkpt>
      <trkpt lat="43.52997" lon="5.57289">
        <ele>527</ele>
        <time>2022-02-15T08:27:36.000Z</time>
      </trkpt>
      <trkpt lat="43.52997" lon="5.57289">
        <ele>527</ele>
        <time>2022-02-15T08:27:37.000Z</time>
      </trkpt>
      <trkpt lat="43.52997" lon="5.57288">
        <ele>527</ele>
        <time>2022-02-15T08:27:38.000Z</time>
      </trkpt>
      <trkpt lat="43.52997" lon="5.57288">
        <ele>527</ele>
        <time>2022-02-15T08:27:39.000Z</time>
      </trkpt>
      <trkpt lat="43.52997" lon="5.57288">
        <ele>527</ele>
        <time>2022-02-15T08:27:40.000Z</time>
      </trkpt>
      <trkpt lat="43.52997" lon="5.57288">
        <ele>528</ele>
        <time>2022-02-15T08:27:41.000Z</time>
      </trkpt>
      <trkpt lat="43.52997" lon="5.57288">
        <ele>528</ele>
        <time>2022-02-15T08:27:42.000Z</time>
      </trkpt>
      <trkpt lat="43.52998" lon="5.57288">
        <ele>528</ele>
        <time>2022-02-15T08:27:43.000Z</time>
      </trkpt>
      <trkpt lat="43.52998" lon="5.57288">
        <ele>528</ele>
        <time>2022-02-15T08:27:44.000Z</time>
      </trkpt>
      <trkpt lat="43.52998" lon="5.57288">
        <ele>528</ele>
        <time>2022-02-15T08:27:45.000Z</time>
      </trkpt>
      <trkpt lat="43.52999" lon="5.57289">
        <ele>528</ele>
        <time>2022-02-15T08:27:46.000Z</time>
      </trkpt>
      <trkpt lat="43.52999" lon="5.57289">
        <ele>528</ele>
        <time>2022-02-15T08:27:47.000Z</time>
      </trkpt>
      <trkpt lat="43.52999" lon="5.5729">
        <ele>528</ele>
        <time>2022-02-15T08:27:48.000Z</time>
      </trkpt>
      <trkpt lat="43.52998" lon="5.5729">
        <ele>528</ele>
        <time>2022-02-15T08:27:49.000Z</time>
      </trkpt>
      <trkpt lat="43.52998" lon="5.57291">
        <ele>528</ele>
        <time>2022-02-15T08:27:50.000Z</time>
      </trkpt>
      <trkpt lat="43.52998" lon="5.57291">
        <ele>528</ele>
        <time>2022-02-15T08:27:51.000Z</time>
      </trkpt>
      <trkpt lat="43.52998" lon="5.57291">
        <ele>528</ele>
        <time>2022-02-15T08:27:52.000Z</time>
      </trkpt>
      <trkpt lat="43.52998" lon="5.57291">
        <ele>528</ele>
        <time>2022-02-15T08:27:53.000Z</time>
      </trkpt>
      <trkpt lat="43.52998" lon="5.57292">
        <ele>528</ele>
        <time>2022-02-15T08:27:54.000Z</time>
      </trkpt>
      <trkpt lat="43.52998" lon="5.57293">
        <ele>528</ele>
        <time>2022-02-15T08:27:55.000Z</time>
      </trkpt>
      <trkpt lat="43.52998" lon="5.57293">
        <ele>528</ele>
        <time>2022-02-15T08:27:56.000Z</time>
      </trkpt>
      <trkpt lat="43.52998" lon="5.57294">
        <ele>529</ele>
        <time>2022-02-15T08:27:57.000Z</time>
      </trkpt>
      <trkpt lat="43.52998" lon="5.57295">
        <ele>529</ele>
        <time>2022-02-15T08:27:58.000Z</time>
      </trkpt>
      <trkpt lat="43.52998" lon="5.57295">
        <ele>529</ele>
        <time>2022-02-15T08:27:59.000Z</time>
      </trkpt>
      <trkpt lat="43.52998" lon="5.57296">
        <ele>529</ele>
        <time>2022-02-15T08:28:00.000Z</time>
      </trkpt>
      <trkpt lat="43.52998" lon="5.57297">
        <ele>529</ele>
        <time>2022-02-15T08:28:01.000Z</time>
      </trkpt>
      <trkpt lat="43.52998" lon="5.57297">
        <ele>529</ele>
        <time>2022-02-15T08:28:02.000Z</time>
      </trkpt>
      <trkpt lat="43.52998" lon="5.57298">
        <ele>529</ele>
        <time>2022-02-15T08:28:03.000Z</time>
      </trkpt>
      <trkpt lat="43.52998" lon="5.57298">
        <ele>529</ele>
        <time>2022-02-15T08:28:04.000Z</time>
      </trkpt>
      <trkpt lat="43.52998" lon="5.57299">
        <ele>529</ele>
        <time>2022-02-15T08:28:05.000Z</time>
      </trkpt>
      <trkpt lat="43.52998" lon="5.57299">
        <ele>529</ele>
        <time>2022-02-15T08:28:06.000Z</time>
      </trkpt>
      <trkpt lat="43.52998" lon="5.57299">
        <ele>529</ele>
        <time>2022-02-15T08:28:07.000Z</time>
      </trkpt>
      <trkpt lat="43.52998" lon="5.573">
        <ele>529</ele>
        <time>2022-02-15T08:28:08.000Z</time>
      </trkpt>
      <trkpt lat="43.52998" lon="5.573">
        <ele>529</ele>
        <time>2022-02-15T08:28:09.000Z</time>
      </trkpt>
      <trkpt lat="43.52998" lon="5.57301">
        <ele>530</ele>
        <time>2022-02-15T08:28:10.000Z</time>
      </trkpt>
      <trkpt lat="43.52998" lon="5.57301">
        <ele>530</ele>
        <time>2022-02-15T08:28:11.000Z</time>
      </trkpt>
      <trkpt lat="43.52998" lon="5.57302">
        <ele>530</ele>
        <time>2022-02-15T08:28:12.000Z</time>
      </trkpt>
      <trkpt lat="43.52997" lon="5.57302">
        <ele>530</ele>
        <time>2022-02-15T08:28:13.000Z</time>
      </trkpt>
      <trkpt lat="43.52997" lon="5.57302">
        <ele>530</ele>
        <time>2022-02-15T08:28:14.000Z</time>
      </trkpt>
      <trkpt lat="43.52997" lon="5.57302">
        <ele>530</ele>
        <time>2022-02-15T08:28:15.000Z</time>
      </trkpt>
      <trkpt lat="43.52997" lon="5.57303">
        <ele>530</ele>
        <time>2022-02-15T08:28:16.000Z</time>
      </trkpt>
      <trkpt lat="43.52997" lon="5.57303">
        <ele>531</ele>
        <time>2022-02-15T08:28:17.000Z</time>
      </trkpt>
      <trkpt lat="43.52997" lon="5.57304">
        <ele>531</ele>
        <time>2022-02-15T08:28:18.000Z</time>
      </trkpt>
      <trkpt lat="43.52996" lon="5.57304">
        <ele>531</ele>
        <time>2022-02-15T08:28:19.000Z</time>
      </trkpt>
      <trkpt lat="43.52997" lon="5.57304">
        <ele>531</ele>
        <time>2022-02-15T08:28:20.000Z</time>
      </trkpt>
      <trkpt lat="43.52997" lon="5.57304">
        <ele>531</ele>
        <time>2022-02-15T08:28:21.000Z</time>
      </trkpt>
      <trkpt lat="43.52997" lon="5.57304">
        <ele>531</ele>
        <time>2022-02-15T08:28:22.000Z</time>
      </trkpt>
      <trkpt lat="43.52997" lon="5.57305">
        <ele>531</ele>
        <time>2022-02-15T08:28:23.000Z</time>
      </trkpt>
      <trkpt lat="43.52997" lon="5.57304">
        <ele>531</ele>
        <time>2022-02-15T08:28:24.000Z</time>
      </trkpt>
      <trkpt lat="43.52997" lon="5.57304">
        <ele>531</ele>
        <time>2022-02-15T08:28:25.000Z</time>
      </trkpt>
      <trkpt lat="43.52997" lon="5.57304">
        <ele>532</ele>
        <time>2022-02-15T08:28:26.000Z</time>
      </trkpt>
      <trkpt lat="43.52997" lon="5.57304">
        <ele>532</ele>
        <time>2022-02-15T08:28:27.000Z</time>
      </trkpt>
      <trkpt lat="43.52997" lon="5.57305">
        <ele>532</ele>
        <time>2022-02-15T08:28:28.000Z</time>
      </trkpt>
      <trkpt lat="43.52997" lon="5.57305">
        <ele>532</ele>
        <time>2022-02-15T08:28:29.000Z</time>
      </trkpt>
      <trkpt lat="43.52997" lon="5.57306">
        <ele>532</ele>
        <time>2022-02-15T08:28:30.000Z</time>
      </trkpt>
      <trkpt lat="43.52997" lon="5.57306">
        <ele>532</ele>
        <time>2022-02-15T08:28:31.000Z</time>
      </trkpt>
      <trkpt lat="43.52998" lon="5.57306">
        <ele>533</ele>
        <time>2022-02-15T08:28:32.000Z</time>
      </trkpt>
      <trkpt lat="43.52998" lon="5.57307">
        <ele>533</ele>
        <time>2022-02-15T08:28:33.000Z</time>
      </trkpt>
      <trkpt lat="43.52998" lon="5.57307">
        <ele>533</ele>
        <time>2022-02-15T08:28:34.000Z</time>
      </trkpt>
      <trkpt lat="43.52998" lon="5.57308">
        <ele>533</ele>
        <time>2022-02-15T08:28:35.000Z</time>
      </trkpt>
      <trkpt lat="43.52998" lon="5.57309">
        <ele>534</ele>
        <time>2022-02-15T08:28:36.000Z</time>
      </trkpt>
      <trkpt lat="43.52998" lon="5.57309">
        <ele>534</ele>
        <time>2022-02-15T08:28:37.000Z</time>
      </trkpt>
      <trkpt lat="43.52998" lon="5.5731">
        <ele>534</ele>
        <time>2022-02-15T08:28:38.000Z</time>
      </trkpt>
      <trkpt lat="43.52998" lon="5.5731">
        <ele>534</ele>
        <time>2022-02-15T08:28:39.000Z</time>
      </trkpt>
      <trkpt lat="43.52998" lon="5.57311">
        <ele>534</ele>
        <time>2022-02-15T08:28:40.000Z</time>
      </trkpt>
      <trkpt lat="43.52998" lon="5.57311">
        <ele>534</ele>
        <time>2022-02-15T08:28:41.000Z</time>
      </trkpt>
      <trkpt lat="43.52998" lon="5.57311">
        <ele>535</ele>
        <time>2022-02-15T08:28:42.000Z</time>
      </trkpt>
      <trkpt lat="43.52998" lon="5.57311">
        <ele>535</ele>
        <time>2022-02-15T08:28:43.000Z</time>
      </trkpt>
      <trkpt lat="43.52998" lon="5.57311">
        <ele>535</ele>
        <time>2022-02-15T08:28:44.000Z</time>
      </trkpt>
      <trkpt lat="43.52999" lon="5.57311">
        <ele>535</ele>
        <time>2022-02-15T08:28:45.000Z</time>
      </trkpt>
      <trkpt lat="43.52999" lon="5.57311">
        <ele>535</ele>
        <time>2022-02-15T08:28:46.000Z</time>
      </trkpt>
      <trkpt lat="43.52999" lon="5.57311">
        <ele>535</ele>
        <time>2022-02-15T08:28:47.000Z</time>
      </trkpt>
      <trkpt lat="43.53" lon="5.57311">
        <ele>536</ele>
        <time>2022-02-15T08:28:48.000Z</time>
      </trkpt>
      <trkpt lat="43.53" lon="5.57311">
        <ele>536</ele>
        <time>2022-02-15T08:28:49.000Z</time>
      </trkpt>
      <trkpt lat="43.53" lon="5.57311">
        <ele>536</ele>
        <time>2022-02-15T08:28:50.000Z</time>
      </trkpt>
      <trkpt lat="43.53" lon="5.57311">
        <ele>537</ele>
        <time>2022-02-15T08:28:51.000Z</time>
      </trkpt>
      <trkpt lat="43.53" lon="5.57311">
        <ele>537</ele>
        <time>2022-02-15T08:28:52.000Z</time>
      </trkpt>
      <trkpt lat="43.53" lon="5.57311">
        <ele>537</ele>
        <time>2022-02-15T08:28:53.000Z</time>
      </trkpt>
      <trkpt lat="43.53" lon="5.57311">
        <ele>537</ele>
        <time>2022-02-15T08:28:54.000Z</time>
      </trkpt>
      <trkpt lat="43.53" lon="5.57311">
        <ele>538</ele>
        <time>2022-02-15T08:28:55.000Z</time>
      </trkpt>
      <trkpt lat="43.53" lon="5.57311">
        <ele>538</ele>
        <time>2022-02-15T08:28:56.000Z</time>
      </trkpt>
      <trkpt lat="43.53" lon="5.57311">
        <ele>538</ele>
        <time>2022-02-15T08:28:57.000Z</time>
      </trkpt>
      <trkpt lat="43.53" lon="5.57311">
        <ele>538</ele>
        <time>2022-02-15T08:28:58.000Z</time>
      </trkpt>
      <trkpt lat="43.53" lon="5.57311">
        <ele>538</ele>
        <time>2022-02-15T08:28:59.000Z</time>
      </trkpt>
      <trkpt lat="43.53" lon="5.57311">
        <ele>538</ele>
        <time>2022-02-15T08:29:00.000Z</time>
      </trkpt>
      <trkpt lat="43.53" lon="5.5731">
        <ele>538</ele>
        <time>2022-02-15T08:29:01.000Z</time>
      </trkpt>
      <trkpt lat="43.53" lon="5.5731">
        <ele>539</ele>
        <time>2022-02-15T08:29:02.000Z</time>
      </trkpt>
      <trkpt lat="43.53" lon="5.5731">
        <ele>539</ele>
        <time>2022-02-15T08:29:03.000Z</time>
      </trkpt>
      <trkpt lat="43.53" lon="5.5731">
        <ele>539</ele>
        <time>2022-02-15T08:29:04.000Z</time>
      </trkpt>
      <trkpt lat="43.53" lon="5.5731">
        <ele>539</ele>
        <time>2022-02-15T08:29:05.000Z</time>
      </trkpt>
      <trkpt lat="43.53" lon="5.5731">
        <ele>539</ele>
        <time>2022-02-15T08:29:06.000Z</time>
      </trkpt>
      <trkpt lat="43.53" lon="5.5731">
        <ele>539</ele>
        <time>2022-02-15T08:29:07.000Z</time>
      </trkpt>
      <trkpt lat="43.53" lon="5.5731">
        <ele>539</ele>
        <time>2022-02-15T08:29:08.000Z</time>
      </trkpt>
      <trkpt lat="43.53" lon="5.5731">
        <ele>539</ele>
        <time>2022-02-15T08:29:09.000Z</time>
      </trkpt>
      <trkpt lat="43.53" lon="5.5731">
        <ele>539</ele>
        <time>2022-02-15T08:29:10.000Z</time>
      </trkpt>
      <trkpt lat="43.53" lon="5.5731">
        <ele>539</ele>
        <time>2022-02-15T08:29:11.000Z</time>
      </trkpt>
      <trkpt lat="43.53" lon="5.5731">
        <ele>540</ele>
        <time>2022-02-15T08:29:12.000Z</time>
      </trkpt>
      <trkpt lat="43.53" lon="5.5731">
        <ele>540</ele>
        <time>2022-02-15T08:29:13.000Z</time>
      </trkpt>
      <trkpt lat="43.53" lon="5.5731">
        <ele>540</ele>
        <time>2022-02-15T08:29:14.000Z</time>
      </trkpt>
      <trkpt lat="43.53" lon="5.5731">
        <ele>540</ele>
        <time>2022-02-15T08:29:15.000Z</time>
      </trkpt>
      <trkpt lat="43.53" lon="5.5731">
        <ele>540</ele>
        <time>2022-02-15T08:29:16.000Z</time>
      </trkpt>
      <trkpt lat="43.53" lon="5.5731">
        <ele>540</ele>
        <time>2022-02-15T08:29:17.000Z</time>
      </trkpt>
      <trkpt lat="43.53" lon="5.57309">
        <ele>540</ele>
        <time>2022-02-15T08:29:18.000Z</time>
      </trkpt>
      <trkpt lat="43.53" lon="5.57309">
        <ele>540</ele>
        <time>2022-02-15T08:29:19.000Z</time>
      </trkpt>
      <trkpt lat="43.53" lon="5.57309">
        <ele>540</ele>
        <time>2022-02-15T08:29:20.000Z</time>
      </trkpt>
      <trkpt lat="43.53" lon="5.57309">
        <ele>540</ele>
        <time>2022-02-15T08:29:21.000Z</time>
      </trkpt>
      <trkpt lat="43.53" lon="5.57309">
        <ele>540</ele>
        <time>2022-02-15T08:29:22.000Z</time>
      </trkpt>
      <trkpt lat="43.53" lon="5.57309">
        <ele>540</ele>
        <time>2022-02-15T08:29:23.000Z</time>
      </trkpt>
      <trkpt lat="43.53" lon="5.57309">
        <ele>540</ele>
        <time>2022-02-15T08:29:24.000Z</time>
      </trkpt>
      <trkpt lat="43.53" lon="5.57309">
        <ele>540</ele>
        <time>2022-02-15T08:29:25.000Z</time>
      </trkpt>
      <trkpt lat="43.53" lon="5.57309">
        <ele>540</ele>
        <time>2022-02-15T08:29:26.000Z</time>
      </trkpt>
      <trkpt lat="43.53" lon="5.57309">
        <ele>540</ele>
        <time>2022-02-15T08:29:27.000Z</time>
      </trkpt>
      <trkpt lat="43.53" lon="5.5731">
        <ele>540</ele>
        <time>2022-02-15T08:29:28.000Z</time>
      </trkpt>
      <trkpt lat="43.53" lon="5.5731">
        <ele>541</ele>
        <time>2022-02-15T08:29:29.000Z</time>
      </trkpt>
      <trkpt lat="43.53" lon="5.5731">
        <ele>541</ele>
        <time>2022-02-15T08:29:30.000Z</time>
      </trkpt>
      <trkpt lat="43.53" lon="5.5731">
        <ele>541</ele>
        <time>2022-02-15T08:29:31.000Z</time>
      </trkpt>
      <trkpt lat="43.53" lon="5.5731">
        <ele>541</ele>
        <time>2022-02-15T08:29:32.000Z</time>
      </trkpt>
      <trkpt lat="43.53" lon="5.5731">
        <ele>541</ele>
        <time>2022-02-15T08:29:33.000Z</time>
      </trkpt>
      <trkpt lat="43.53" lon="5.5731">
        <ele>541</ele>
        <time>2022-02-15T08:29:34.000Z</time>
      </trkpt>
      <trkpt lat="43.53" lon="5.5731">
        <ele>541</ele>
        <time>2022-02-15T08:29:35.000Z</time>
      </trkpt>
      <trkpt lat="43.53" lon="5.5731">
        <ele>541</ele>
        <time>2022-02-15T08:29:36.000Z</time>
      </trkpt>
      <trkpt lat="43.53" lon="5.5731">
        <ele>541</ele>
        <time>2022-02-15T08:29:37.000Z</time>
      </trkpt>
      <trkpt lat="43.53" lon="5.5731">
        <ele>541</ele>
        <time>2022-02-15T08:29:38.000Z</time>
      </trkpt>
      <trkpt lat="43.53" lon="5.5731">
        <ele>541</ele>
        <time>2022-02-15T08:29:39.000Z</time>
      </trkpt>
      <trkpt lat="43.53" lon="5.5731">
        <ele>541</ele>
        <time>2022-02-15T08:29:40.000Z</time>
      </trkpt>
      <trkpt lat="43.53" lon="5.5731">
        <ele>541</ele>
        <time>2022-02-15T08:29:41.000Z</time>
      </trkpt>
      <trkpt lat="43.53" lon="5.5731">
        <ele>541</ele>
        <time>2022-02-15T08:29:42.000Z</time>
      </trkpt>
      <trkpt lat="43.53" lon="5.5731">
        <ele>541</ele>
        <time>2022-02-15T08:29:43.000Z</time>
      </trkpt>
      <trkpt lat="43.53" lon="5.5731">
        <ele>541</ele>
        <time>2022-02-15T08:29:44.000Z</time>
      </trkpt>
      <trkpt lat="43.53" lon="5.5731">
        <ele>541</ele>
        <time>2022-02-15T08:29:45.000Z</time>
      </trkpt>
      <trkpt lat="43.53" lon="5.5731">
        <ele>541</ele>
        <time>2022-02-15T08:29:46.000Z</time>
      </trkpt>
      <trkpt lat="43.53" lon="5.5731">
        <ele>541</ele>
        <time>2022-02-15T08:29:47.000Z</time>
      </trkpt>
      <trkpt lat="43.53" lon="5.5731">
        <ele>541</ele>
        <time>2022-02-15T08:29:48.000Z</time>
      </trkpt>
      <trkpt lat="43.53" lon="5.5731">
        <ele>542</ele>
        <time>2022-02-15T08:29:49.000Z</time>
      </trkpt>
      <trkpt lat="43.53" lon="5.5731">
        <ele>542</ele>
        <time>2022-02-15T08:29:50.000Z</time>
      </trkpt>
      <trkpt lat="43.53" lon="5.5731">
        <ele>542</ele>
        <time>2022-02-15T08:29:51.000Z</time>
      </trkpt>
      <trkpt lat="43.53" lon="5.5731">
        <ele>542</ele>
        <time>2022-02-15T08:29:52.000Z</time>
      </trkpt>
      <trkpt lat="43.53" lon="5.5731">
        <ele>542</ele>
        <time>2022-02-15T08:29:53.000Z</time>
      </trkpt>
      <trkpt lat="43.53" lon="5.5731">
        <ele>542</ele>
        <time>2022-02-15T08:29:54.000Z</time>
      </trkpt>
      <trkpt lat="43.53" lon="5.5731">
        <ele>542</ele>
        <time>2022-02-15T08:29:55.000Z</time>
      </trkpt>
      <trkpt lat="43.53" lon="5.5731">
        <ele>542</ele>
        <time>2022-02-15T08:29:56.000Z</time>
      </trkpt>
      <trkpt lat="43.53" lon="5.5731">
        <ele>542</ele>
        <time>2022-02-15T08:29:57.000Z</time>
      </trkpt>
      <trkpt lat="43.53" lon="5.5731">
        <ele>542</ele>
        <time>2022-02-15T08:29:58.000Z</time>
      </trkpt>
      <trkpt lat="43.53" lon="5.5731">
        <ele>542</ele>
        <time>2022-02-15T08:29:59.000Z</time>
      </trkpt>
      <trkpt lat="43.53" lon="5.5731">
        <ele>542</ele>
        <time>2022-02-15T08:30:00.000Z</time>
      </trkpt>
      <trkpt lat="43.53" lon="5.5731">
        <ele>542</ele>
        <time>2022-02-15T08:30:01.000Z</time>
      </trkpt>
      <trkpt lat="43.53" lon="5.5731">
        <ele>542</ele>
        <time>2022-02-15T08:30:02.000Z</time>
      </trkpt>
      <trkpt lat="43.53" lon="5.5731">
        <ele>542</ele>
        <time>2022-02-15T08:30:03.000Z</time>
      </trkpt>
      <trkpt lat="43.53" lon="5.5731">
        <ele>542</ele>
        <time>2022-02-15T08:30:04.000Z</time>
      </trkpt>
      <trkpt lat="43.53" lon="5.5731">
        <ele>542</ele>
        <time>2022-02-15T08:30:05.000Z</time>
      </trkpt>
      <trkpt lat="43.53" lon="5.5731">
        <ele>542</ele>
        <time>2022-02-15T08:30:06.000Z</time>
      </trkpt>
      <trkpt lat="43.53" lon="5.5731">
        <ele>542</ele>
        <time>2022-02-15T08:30:07.000Z</time>
      </trkpt>
      <trkpt lat="43.53" lon="5.5731">
        <ele>542</ele>
        <time>2022-02-15T08:30:08.000Z</time>
      </trkpt>
      <trkpt lat="43.53" lon="5.5731">
        <ele>542</ele>
        <time>2022-02-15T08:30:09.000Z</time>
      </trkpt>
      <trkpt lat="43.53" lon="5.5731">
        <ele>542</ele>
        <time>2022-02-15T08:30:10.000Z</time>
      </trkpt>
      <trkpt lat="43.53" lon="5.5731">
        <ele>542</ele>
        <time>2022-02-15T08:30:11.000Z</time>
      </trkpt>
      <trkpt lat="43.53" lon="5.5731">
        <ele>542</ele>
        <time>2022-02-15T08:30:12.000Z</time>
      </trkpt>
      <trkpt lat="43.53" lon="5.5731">
        <ele>542</ele>
        <time>2022-02-15T08:30:13.000Z</time>
      </trkpt>
      <trkpt lat="43.53" lon="5.5731">
        <ele>542</ele>
        <time>2022-02-15T08:30:14.000Z</time>
      </trkpt>
      <trkpt lat="43.53" lon="5.5731">
        <ele>542</ele>
        <time>2022-02-15T08:30:15.000Z</time>
      </trkpt>
      <trkpt lat="43.53" lon="5.5731">
        <ele>542</ele>
        <time>2022-02-15T08:30:16.000Z</time>
      </trkpt>
      <trkpt lat="43.53" lon="5.5731">
        <ele>542</ele>
        <time>2022-02-15T08:30:17.000Z</time>
      </trkpt>
      <trkpt lat="43.53" lon="5.5731">
        <ele>542</ele>
        <time>2022-02-15T08:30:18.000Z</time>
      </trkpt>
      <trkpt lat="43.53" lon="5.5731">
        <ele>542</ele>
        <time>2022-02-15T08:30:19.000Z</time>
      </trkpt>
      <trkpt lat="43.53" lon="5.5731">
        <ele>542</ele>
        <time>2022-02-15T08:30:20.000Z</time>
      </trkpt>
      <trkpt lat="43.53" lon="5.5731">
        <ele>542</ele>
        <time>2022-02-15T08:30:21.000Z</time>
      </trkpt>
      <trkpt lat="43.53" lon="5.5731">
        <ele>542</ele>
        <time>2022-02-15T08:30:22.000Z</time>
      </trkpt>
      <trkpt lat="43.53" lon="5.5731">
        <ele>542</ele>
        <time>2022-02-15T08:30:23.000Z</time>
      </trkpt>
      <trkpt lat="43.53" lon="5.5731">
        <ele>542</ele>
        <time>2022-02-15T08:30:24.000Z</time>
      </trkpt>
      <trkpt lat="43.53" lon="5.5731">
        <ele>542</ele>
        <time>2022-02-15T08:30:25.000Z</time>
      </trkpt>
      <trkpt lat="43.53" lon="5.5731">
        <ele>542</ele>
        <time>2022-02-15T08:30:26.000Z</time>
      </trkpt>
      <trkpt lat="43.53" lon="5.5731">
        <ele>542</ele>
        <time>2022-02-15T08:30:27.000Z</time>
      </trkpt>
      <trkpt lat="43.53" lon="5.5731">
        <ele>542</ele>
        <time>2022-02-15T08:30:28.000Z</time>
      </trkpt>
      <trkpt lat="43.53" lon="5.5731">
        <ele>542</ele>
        <time>2022-02-15T08:30:29.000Z</time>
      </trkpt>
      <trkpt lat="43.53" lon="5.5731">
        <ele>542</ele>
        <time>2022-02-15T08:30:30.000Z</time>
      </trkpt>
      <trkpt lat="43.53" lon="5.5731">
        <ele>542</ele>
        <time>2022-02-15T08:30:31.000Z</time>
      </trkpt>
      <trkpt lat="43.53" lon="5.5731">
        <ele>542</ele>
        <time>2022-02-15T08:30:32.000Z</time>
      </trkpt>
      <trkpt lat="43.53001" lon="5.57311">
        <ele>542</ele>
        <time>2022-02-15T08:30:33.000Z</time>
      </trkpt>
      <trkpt lat="43.53001" lon="5.57311">
        <ele>542</ele>
        <time>2022-02-15T08:30:34.000Z</time>
      </trkpt>
      <trkpt lat="43.53001" lon="5.57311">
        <ele>542</ele>
        <time>2022-02-15T08:30:35.000Z</time>
      </trkpt>
      <trkpt lat="43.53001" lon="5.57311">
        <ele>542</ele>
        <time>2022-02-15T08:30:36.000Z</time>
      </trkpt>
      <trkpt lat="43.53001" lon="5.57311">
        <ele>542</ele>
        <time>2022-02-15T08:30:37.000Z</time>
      </trkpt>
      <trkpt lat="43.53001" lon="5.57312">
        <ele>542</ele>
        <time>2022-02-15T08:30:38.000Z</time>
      </trkpt>
      <trkpt lat="43.53001" lon="5.57312">
        <ele>542</ele>
        <time>2022-02-15T08:30:39.000Z</time>
      </trkpt>
      <trkpt lat="43.53001" lon="5.57313">
        <ele>543</ele>
        <time>2022-02-15T08:30:40.000Z</time>
      </trkpt>
      <trkpt lat="43.53001" lon="5.57314">
        <ele>543</ele>
        <time>2022-02-15T08:30:41.000Z</time>
      </trkpt>
      <trkpt lat="43.53001" lon="5.57315">
        <ele>543</ele>
        <time>2022-02-15T08:30:42.000Z</time>
      </trkpt>
      <trkpt lat="43.53001" lon="5.57315">
        <ele>543</ele>
        <time>2022-02-15T08:30:43.000Z</time>
      </trkpt>
      <trkpt lat="43.53001" lon="5.57315">
        <ele>543</ele>
        <time>2022-02-15T08:30:44.000Z</time>
      </trkpt>
      <trkpt lat="43.53002" lon="5.57315">
        <ele>543</ele>
        <time>2022-02-15T08:30:45.000Z</time>
      </trkpt>
      <trkpt lat="43.53002" lon="5.57316">
        <ele>543</ele>
        <time>2022-02-15T08:30:46.000Z</time>
      </trkpt>
      <trkpt lat="43.53002" lon="5.57316">
        <ele>543</ele>
        <time>2022-02-15T08:30:47.000Z</time>
      </trkpt>
      <trkpt lat="43.53002" lon="5.57317">
        <ele>543</ele>
        <time>2022-02-15T08:30:48.000Z</time>
      </trkpt>
      <trkpt lat="43.53002" lon="5.57317">
        <ele>543</ele>
        <time>2022-02-15T08:30:49.000Z</time>
      </trkpt>
      <trkpt lat="43.53002" lon="5.57318">
        <ele>543</ele>
        <time>2022-02-15T08:30:50.000Z</time>
      </trkpt>
      <trkpt lat="43.53003" lon="5.57318">
        <ele>543</ele>
        <time>2022-02-15T08:30:51.000Z</time>
      </trkpt>
      <trkpt lat="43.53003" lon="5.57319">
        <ele>543</ele>
        <time>2022-02-15T08:30:52.000Z</time>
      </trkpt>
      <trkpt lat="43.53003" lon="5.57319">
        <ele>543</ele>
        <time>2022-02-15T08:30:53.000Z</time>
      </trkpt>
      <trkpt lat="43.53003" lon="5.5732">
        <ele>543</ele>
        <time>2022-02-15T08:30:54.000Z</time>
      </trkpt>
      <trkpt lat="43.53003" lon="5.5732">
        <ele>543</ele>
        <time>2022-02-15T08:30:55.000Z</time>
      </trkpt>
      <trkpt lat="43.53003" lon="5.57321">
        <ele>543</ele>
        <time>2022-02-15T08:30:56.000Z</time>
      </trkpt>
      <trkpt lat="43.53003" lon="5.5732">
        <ele>543</ele>
        <time>2022-02-15T08:30:57.000Z</time>
      </trkpt>
      <trkpt lat="43.53003" lon="5.5732">
        <ele>543</ele>
        <time>2022-02-15T08:30:58.000Z</time>
      </trkpt>
      <trkpt lat="43.53003" lon="5.5732">
        <ele>543</ele>
        <time>2022-02-15T08:30:59.000Z</time>
      </trkpt>
      <trkpt lat="43.53003" lon="5.57319">
        <ele>543</ele>
        <time>2022-02-15T08:31:00.000Z</time>
      </trkpt>
      <trkpt lat="43.53003" lon="5.57319">
        <ele>543</ele>
        <time>2022-02-15T08:31:01.000Z</time>
      </trkpt>
      <trkpt lat="43.53003" lon="5.57319">
        <ele>543</ele>
        <time>2022-02-15T08:31:02.000Z</time>
      </trkpt>
      <trkpt lat="43.53003" lon="5.57319">
        <ele>543</ele>
        <time>2022-02-15T08:31:03.000Z</time>
      </trkpt>
      <trkpt lat="43.53003" lon="5.57319">
        <ele>543</ele>
        <time>2022-02-15T08:31:04.000Z</time>
      </trkpt>
      <trkpt lat="43.53003" lon="5.57319">
        <ele>543</ele>
        <time>2022-02-15T08:31:05.000Z</time>
      </trkpt>
      <trkpt lat="43.53003" lon="5.57319">
        <ele>543</ele>
        <time>2022-02-15T08:31:06.000Z</time>
      </trkpt>
      <trkpt lat="43.53003" lon="5.57319">
        <ele>543</ele>
        <time>2022-02-15T08:31:07.000Z</time>
      </trkpt>
      <trkpt lat="43.53003" lon="5.57319">
        <ele>543</ele>
        <time>2022-02-15T08:31:08.000Z</time>
      </trkpt>
      <trkpt lat="43.53003" lon="5.57319">
        <ele>543</ele>
        <time>2022-02-15T08:31:09.000Z</time>
      </trkpt>
      <trkpt lat="43.53002" lon="5.57319">
        <ele>543</ele>
        <time>2022-02-15T08:31:10.000Z</time>
      </trkpt>
      <trkpt lat="43.53002" lon="5.57319">
        <ele>543</ele>
        <time>2022-02-15T08:31:11.000Z</time>
      </trkpt>
      <trkpt lat="43.53002" lon="5.57319">
        <ele>543</ele>
        <time>2022-02-15T08:31:12.000Z</time>
      </trkpt>
      <trkpt lat="43.53002" lon="5.57319">
        <ele>543</ele>
        <time>2022-02-15T08:31:13.000Z</time>
      </trkpt>
      <trkpt lat="43.53002" lon="5.57319">
        <ele>543</ele>
        <time>2022-02-15T08:31:14.000Z</time>
      </trkpt>
      <trkpt lat="43.53002" lon="5.57319">
        <ele>543</ele>
        <time>2022-02-15T08:31:15.000Z</time>
      </trkpt>
      <trkpt lat="43.53001" lon="5.57319">
        <ele>543</ele>
        <time>2022-02-15T08:31:16.000Z</time>
      </trkpt>
      <trkpt lat="43.53001" lon="5.57319">
        <ele>543</ele>
        <time>2022-02-15T08:31:17.000Z</time>
      </trkpt>
      <trkpt lat="43.53001" lon="5.57319">
        <ele>543</ele>
        <time>2022-02-15T08:31:18.000Z</time>
      </trkpt>
      <trkpt lat="43.53001" lon="5.57319">
        <ele>543</ele>
        <time>2022-02-15T08:31:19.000Z</time>
      </trkpt>
      <trkpt lat="43.53001" lon="5.57319">
        <ele>543</ele>
        <time>2022-02-15T08:31:20.000Z</time>
      </trkpt>
      <trkpt lat="43.53001" lon="5.57319">
        <ele>544</ele>
        <time>2022-02-15T08:31:21.000Z</time>
      </trkpt>
      <trkpt lat="43.53001" lon="5.57318">
        <ele>544</ele>
        <time>2022-02-15T08:31:22.000Z</time>
      </trkpt>
      <trkpt lat="43.53001" lon="5.57318">
        <ele>544</ele>
        <time>2022-02-15T08:31:23.000Z</time>
      </trkpt>
      <trkpt lat="43.53001" lon="5.57318">
        <ele>544</ele>
        <time>2022-02-15T08:31:24.000Z</time>
      </trkpt>
      <trkpt lat="43.53001" lon="5.57318">
        <ele>544</ele>
        <time>2022-02-15T08:31:25.000Z</time>
      </trkpt>
      <trkpt lat="43.53001" lon="5.57318">
        <ele>544</ele>
        <time>2022-02-15T08:31:26.000Z</time>
      </trkpt>
      <trkpt lat="43.53001" lon="5.57318">
        <ele>544</ele>
        <time>2022-02-15T08:31:27.000Z</time>
      </trkpt>
      <trkpt lat="43.53001" lon="5.57318">
        <ele>544</ele>
        <time>2022-02-15T08:31:28.000Z</time>
      </trkpt>
      <trkpt lat="43.53001" lon="5.57318">
        <ele>544</ele>
        <time>2022-02-15T08:31:29.000Z</time>
      </trkpt>
      <trkpt lat="43.53001" lon="5.57318">
        <ele>544</ele>
        <time>2022-02-15T08:31:30.000Z</time>
      </trkpt>
      <trkpt lat="43.53001" lon="5.57318">
        <ele>544</ele>
        <time>2022-02-15T08:31:31.000Z</time>
      </trkpt>
      <trkpt lat="43.53001" lon="5.57318">
        <ele>544</ele>
        <time>2022-02-15T08:31:32.000Z</time>
      </trkpt>
      <trkpt lat="43.53001" lon="5.57318">
        <ele>544</ele>
        <time>2022-02-15T08:31:33.000Z</time>
      </trkpt>
      <trkpt lat="43.53001" lon="5.57318">
        <ele>544</ele>
        <time>2022-02-15T08:31:34.000Z</time>
      </trkpt>
      <trkpt lat="43.53001" lon="5.57318">
        <ele>544</ele>
        <time>2022-02-15T08:31:35.000Z</time>
      </trkpt>
      <trkpt lat="43.53001" lon="5.57318">
        <ele>544</ele>
        <time>2022-02-15T08:31:36.000Z</time>
      </trkpt>
      <trkpt lat="43.53001" lon="5.57318">
        <ele>544</ele>
        <time>2022-02-15T08:31:37.000Z</time>
      </trkpt>
      <trkpt lat="43.53001" lon="5.57318">
        <ele>544</ele>
        <time>2022-02-15T08:31:38.000Z</time>
      </trkpt>
      <trkpt lat="43.53001" lon="5.57318">
        <ele>544</ele>
        <time>2022-02-15T08:31:39.000Z</time>
      </trkpt>
      <trkpt lat="43.53001" lon="5.57318">
        <ele>544</ele>
        <time>2022-02-15T08:31:40.000Z</time>
      </trkpt>
      <trkpt lat="43.53001" lon="5.57318">
        <ele>544</ele>
        <time>2022-02-15T08:31:41.000Z</time>
      </trkpt>
      <trkpt lat="43.53001" lon="5.57318">
        <ele>544</ele>
        <time>2022-02-15T08:31:42.000Z</time>
      </trkpt>
      <trkpt lat="43.53001" lon="5.57318">
        <ele>544</ele>
        <time>2022-02-15T08:31:43.000Z</time>
      </trkpt>
      <trkpt lat="43.53001" lon="5.57318">
        <ele>544</ele>
        <time>2022-02-15T08:31:44.000Z</time>
      </trkpt>
      <trkpt lat="43.53001" lon="5.57318">
        <ele>544</ele>
        <time>2022-02-15T08:31:45.000Z</time>
      </trkpt>
      <trkpt lat="43.53001" lon="5.57318">
        <ele>544</ele>
        <time>2022-02-15T08:31:46.000Z</time>
      </trkpt>
      <trkpt lat="43.53001" lon="5.57318">
        <ele>544</ele>
        <time>2022-02-15T08:31:47.000Z</time>
      </trkpt>
      <trkpt lat="43.53001" lon="5.57318">
        <ele>544</ele>
        <time>2022-02-15T08:31:48.000Z</time>
      </trkpt>
      <trkpt lat="43.53001" lon="5.57318">
        <ele>544</ele>
        <time>2022-02-15T08:31:49.000Z</time>
      </trkpt>
      <trkpt lat="43.53" lon="5.57318">
        <ele>544</ele>
        <time>2022-02-15T08:31:50.000Z</time>
      </trkpt>
      <trkpt lat="43.53001" lon="5.57318">
        <ele>544</ele>
        <time>2022-02-15T08:31:51.000Z</time>
      </trkpt>
      <trkpt lat="43.53001" lon="5.57318">
        <ele>544</ele>
        <time>2022-02-15T08:31:52.000Z</time>
      </trkpt>
      <trkpt lat="43.53001" lon="5.57318">
        <ele>544</ele>
        <time>2022-02-15T08:31:53.000Z</time>
      </trkpt>
      <trkpt lat="43.53001" lon="5.57318">
        <ele>544</ele>
        <time>2022-02-15T08:31:54.000Z</time>
      </trkpt>
      <trkpt lat="43.53001" lon="5.57318">
        <ele>544</ele>
        <time>2022-02-15T08:31:55.000Z</time>
      </trkpt>
      <trkpt lat="43.53001" lon="5.57318">
        <ele>544</ele>
        <time>2022-02-15T08:31:56.000Z</time>
      </trkpt>
      <trkpt lat="43.53001" lon="5.57318">
        <ele>544</ele>
        <time>2022-02-15T08:31:57.000Z</time>
      </trkpt>
      <trkpt lat="43.53001" lon="5.57318">
        <ele>544</ele>
        <time>2022-02-15T08:31:58.000Z</time>
      </trkpt>
      <trkpt lat="43.53001" lon="5.57318">
        <ele>544</ele>
        <time>2022-02-15T08:31:59.000Z</time>
      </trkpt>
      <trkpt lat="43.53001" lon="5.57318">
        <ele>544</ele>
        <time>2022-02-15T08:32:00.000Z</time>
      </trkpt>
      <trkpt lat="43.53001" lon="5.57318">
        <ele>544</ele>
        <time>2022-02-15T08:32:01.000Z</time>
      </trkpt>
      <trkpt lat="43.53001" lon="5.57318">
        <ele>544</ele>
        <time>2022-02-15T08:32:02.000Z</time>
      </trkpt>
      <trkpt lat="43.53001" lon="5.57318">
        <ele>544</ele>
        <time>2022-02-15T08:32:03.000Z</time>
      </trkpt>
      <trkpt lat="43.53001" lon="5.57318">
        <ele>544</ele>
        <time>2022-02-15T08:32:04.000Z</time>
      </trkpt>
      <trkpt lat="43.53001" lon="5.57318">
        <ele>544</ele>
        <time>2022-02-15T08:32:05.000Z</time>
      </trkpt>
      <trkpt lat="43.53001" lon="5.57318">
        <ele>544</ele>
        <time>2022-02-15T08:32:06.000Z</time>
      </trkpt>
      <trkpt lat="43.53001" lon="5.57318">
        <ele>544</ele>
        <time>2022-02-15T08:32:07.000Z</time>
      </trkpt>
      <trkpt lat="43.53001" lon="5.57318">
        <ele>544</ele>
        <time>2022-02-15T08:32:08.000Z</time>
      </trkpt>
      <trkpt lat="43.53001" lon="5.57318">
        <ele>544</ele>
        <time>2022-02-15T08:32:09.000Z</time>
      </trkpt>
      <trkpt lat="43.53001" lon="5.57318">
        <ele>544</ele>
        <time>2022-02-15T08:32:10.000Z</time>
      </trkpt>
      <trkpt lat="43.53001" lon="5.57318">
        <ele>544</ele>
        <time>2022-02-15T08:32:11.000Z</time>
      </trkpt>
      <trkpt lat="43.53001" lon="5.57318">
        <ele>544</ele>
        <time>2022-02-15T08:32:12.000Z</time>
      </trkpt>
      <trkpt lat="43.53002" lon="5.57318">
        <ele>544</ele>
        <time>2022-02-15T08:32:13.000Z</time>
      </trkpt>
      <trkpt lat="43.53002" lon="5.57318">
        <ele>545</ele>
        <time>2022-02-15T08:32:14.000Z</time>
      </trkpt>
      <trkpt lat="43.53002" lon="5.57318">
        <ele>545</ele>
        <time>2022-02-15T08:32:15.000Z</time>
      </trkpt>
      <trkpt lat="43.53002" lon="5.57318">
        <ele>545</ele>
        <time>2022-02-15T08:32:16.000Z</time>
      </trkpt>
      <trkpt lat="43.53002" lon="5.57318">
        <ele>545</ele>
        <time>2022-02-15T08:32:17.000Z</time>
      </trkpt>
      <trkpt lat="43.53002" lon="5.57318">
        <ele>545</ele>
        <time>2022-02-15T08:32:18.000Z</time>
      </trkpt>
      <trkpt lat="43.53002" lon="5.57318">
        <ele>545</ele>
        <time>2022-02-15T08:32:19.000Z</time>
      </trkpt>
      <trkpt lat="43.53002" lon="5.57318">
        <ele>545</ele>
        <time>2022-02-15T08:32:20.000Z</time>
      </trkpt>
      <trkpt lat="43.53002" lon="5.57318">
        <ele>545</ele>
        <time>2022-02-15T08:32:21.000Z</time>
      </trkpt>
      <trkpt lat="43.53002" lon="5.57318">
        <ele>545</ele>
        <time>2022-02-15T08:32:22.000Z</time>
      </trkpt>
      <trkpt lat="43.53002" lon="5.57318">
        <ele>545</ele>
        <time>2022-02-15T08:32:23.000Z</time>
      </trkpt>
      <trkpt lat="43.53002" lon="5.57318">
        <ele>545</ele>
        <time>2022-02-15T08:32:24.000Z</time>
      </trkpt>
      <trkpt lat="43.53002" lon="5.57318">
        <ele>545</ele>
        <time>2022-02-15T08:32:25.000Z</time>
      </trkpt>
      <trkpt lat="43.53002" lon="5.57318">
        <ele>545</ele>
        <time>2022-02-15T08:32:26.000Z</time>
      </trkpt>
      <trkpt lat="43.53002" lon="5.57318">
        <ele>545</ele>
        <time>2022-02-15T08:32:27.000Z</time>
      </trkpt>
      <trkpt lat="43.53003" lon="5.57318">
        <ele>545</ele>
        <time>2022-02-15T08:32:28.000Z</time>
      </trkpt>
      <trkpt lat="43.53003" lon="5.57318">
        <ele>545</ele>
        <time>2022-02-15T08:32:29.000Z</time>
      </trkpt>
      <trkpt lat="43.53003" lon="5.57318">
        <ele>545</ele>
        <time>2022-02-15T08:32:30.000Z</time>
      </trkpt>
      <trkpt lat="43.53003" lon="5.57318">
        <ele>545</ele>
        <time>2022-02-15T08:32:31.000Z</time>
      </trkpt>
      <trkpt lat="43.53003" lon="5.57318">
        <ele>545</ele>
        <time>2022-02-15T08:32:32.000Z</time>
      </trkpt>
      <trkpt lat="43.53003" lon="5.57318">
        <ele>545</ele>
        <time>2022-02-15T08:32:33.000Z</time>
      </trkpt>
      <trkpt lat="43.53003" lon="5.57318">
        <ele>545</ele>
        <time>2022-02-15T08:32:34.000Z</time>
      </trkpt>
      <trkpt lat="43.53003" lon="5.57318">
        <ele>545</ele>
        <time>2022-02-15T08:32:35.000Z</time>
      </trkpt>
      <trkpt lat="43.53003" lon="5.57318">
        <ele>545</ele>
        <time>2022-02-15T08:32:36.000Z</time>
      </trkpt>
      <trkpt lat="43.53003" lon="5.57318">
        <ele>545</ele>
        <time>2022-02-15T08:32:37.000Z</time>
      </trkpt>
      <trkpt lat="43.53003" lon="5.57318">
        <ele>545</ele>
        <time>2022-02-15T08:32:38.000Z</time>
      </trkpt>
      <trkpt lat="43.53003" lon="5.57318">
        <ele>545</ele>
        <time>2022-02-15T08:32:39.000Z</time>
      </trkpt>
      <trkpt lat="43.53003" lon="5.57318">
        <ele>545</ele>
        <time>2022-02-15T08:32:40.000Z</time>
      </trkpt>
      <trkpt lat="43.53003" lon="5.57318">
        <ele>545</ele>
        <time>2022-02-15T08:32:41.000Z</time>
      </trkpt>
      <trkpt lat="43.53003" lon="5.57318">
        <ele>545</ele>
        <time>2022-02-15T08:32:42.000Z</time>
      </trkpt>
      <trkpt lat="43.53003" lon="5.57318">
        <ele>545</ele>
        <time>2022-02-15T08:32:43.000Z</time>
      </trkpt>
      <trkpt lat="43.53003" lon="5.57318">
        <ele>545</ele>
        <time>2022-02-15T08:32:44.000Z</time>
      </trkpt>
      <trkpt lat="43.53003" lon="5.57318">
        <ele>545</ele>
        <time>2022-02-15T08:32:45.000Z</time>
      </trkpt>
      <trkpt lat="43.53003" lon="5.57318">
        <ele>545</ele>
        <time>2022-02-15T08:32:46.000Z</time>
      </trkpt>
      <trkpt lat="43.53003" lon="5.57318">
        <ele>545</ele>
        <time>2022-02-15T08:32:47.000Z</time>
      </trkpt>
      <trkpt lat="43.53003" lon="5.57318">
        <ele>545</ele>
        <time>2022-02-15T08:32:48.000Z</time>
      </trkpt>
      <trkpt lat="43.53003" lon="5.57318">
        <ele>545</ele>
        <time>2022-02-15T08:32:49.000Z</time>
      </trkpt>
      <trkpt lat="43.53003" lon="5.57318">
        <ele>545</ele>
        <time>2022-02-15T08:32:50.000Z</time>
      </trkpt>
      <trkpt lat="43.53003" lon="5.57318">
        <ele>545</ele>
        <time>2022-02-15T08:32:51.000Z</time>
      </trkpt>
      <trkpt lat="43.53003" lon="5.57318">
        <ele>545</ele>
        <time>2022-02-15T08:32:52.000Z</time>
      </trkpt>
      <trkpt lat="43.53003" lon="5.57318">
        <ele>545</ele>
        <time>2022-02-15T08:32:53.000Z</time>
      </trkpt>
      <trkpt lat="43.53003" lon="5.57318">
        <ele>545</ele>
        <time>2022-02-15T08:32:54.000Z</time>
      </trkpt>
      <trkpt lat="43.53003" lon="5.57318">
        <ele>545</ele>
        <time>2022-02-15T08:32:55.000Z</time>
      </trkpt>
      <trkpt lat="43.53003" lon="5.57318">
        <ele>545</ele>
        <time>2022-02-15T08:32:56.000Z</time>
      </trkpt>
      <trkpt lat="43.53003" lon="5.57318">
        <ele>545</ele>
        <time>2022-02-15T08:32:57.000Z</time>
      </trkpt>
      <trkpt lat="43.53003" lon="5.57318">
        <ele>545</ele>
        <time>2022-02-15T08:32:58.000Z</time>
      </trkpt>
      <trkpt lat="43.53003" lon="5.57318">
        <ele>545</ele>
        <time>2022-02-15T08:32:59.000Z</time>
      </trkpt>
      <trkpt lat="43.53003" lon="5.57318">
        <ele>545</ele>
        <time>2022-02-15T08:33:00.000Z</time>
      </trkpt>
      <trkpt lat="43.53003" lon="5.57318">
        <ele>545</ele>
        <time>2022-02-15T08:33:01.000Z</time>
      </trkpt>
      <trkpt lat="43.53003" lon="5.57318">
        <ele>545</ele>
        <time>2022-02-15T08:33:02.000Z</time>
      </trkpt>
      <trkpt lat="43.53003" lon="5.57318">
        <ele>545</ele>
        <time>2022-02-15T08:33:03.000Z</time>
      </trkpt>
      <trkpt lat="43.53003" lon="5.57318">
        <ele>546</ele>
        <time>2022-02-15T08:33:04.000Z</time>
      </trkpt>
      <trkpt lat="43.53002" lon="5.57318">
        <ele>546</ele>
        <time>2022-02-15T08:33:05.000Z</time>
      </trkpt>
      <trkpt lat="43.53002" lon="5.57319">
        <ele>546</ele>
        <time>2022-02-15T08:33:06.000Z</time>
      </trkpt>
      <trkpt lat="43.53002" lon="5.57319">
        <ele>546</ele>
        <time>2022-02-15T08:33:07.000Z</time>
      </trkpt>
      <trkpt lat="43.53002" lon="5.57319">
        <ele>546</ele>
        <time>2022-02-15T08:33:08.000Z</time>
      </trkpt>
      <trkpt lat="43.53002" lon="5.57319">
        <ele>546</ele>
        <time>2022-02-15T08:33:09.000Z</time>
      </trkpt>
      <trkpt lat="43.53002" lon="5.57319">
        <ele>546</ele>
        <time>2022-02-15T08:33:10.000Z</time>
      </trkpt>
      <trkpt lat="43.53002" lon="5.57319">
        <ele>546</ele>
        <time>2022-02-15T08:33:11.000Z</time>
      </trkpt>
      <trkpt lat="43.53002" lon="5.57319">
        <ele>546</ele>
        <time>2022-02-15T08:33:12.000Z</time>
      </trkpt>
      <trkpt lat="43.53002" lon="5.57319">
        <ele>546</ele>
        <time>2022-02-15T08:33:13.000Z</time>
      </trkpt>
      <trkpt lat="43.53002" lon="5.57319">
        <ele>546</ele>
        <time>2022-02-15T08:33:14.000Z</time>
      </trkpt>
      <trkpt lat="43.53003" lon="5.57319">
        <ele>546</ele>
        <time>2022-02-15T08:33:15.000Z</time>
      </trkpt>
      <trkpt lat="43.53003" lon="5.57319">
        <ele>546</ele>
        <time>2022-02-15T08:33:16.000Z</time>
      </trkpt>
      <trkpt lat="43.53003" lon="5.57319">
        <ele>546</ele>
        <time>2022-02-15T08:33:17.000Z</time>
      </trkpt>
      <trkpt lat="43.53003" lon="5.57319">
        <ele>546</ele>
        <time>2022-02-15T08:33:18.000Z</time>
      </trkpt>
      <trkpt lat="43.53003" lon="5.5732">
        <ele>546</ele>
        <time>2022-02-15T08:33:19.000Z</time>
      </trkpt>
      <trkpt lat="43.53003" lon="5.5732">
        <ele>546</ele>
        <time>2022-02-15T08:33:20.000Z</time>
      </trkpt>
      <trkpt lat="43.53003" lon="5.5732">
        <ele>546</ele>
        <time>2022-02-15T08:33:21.000Z</time>
      </trkpt>
      <trkpt lat="43.53003" lon="5.5732">
        <ele>546</ele>
        <time>2022-02-15T08:33:22.000Z</time>
      </trkpt>
      <trkpt lat="43.53003" lon="5.5732">
        <ele>546</ele>
        <time>2022-02-15T08:33:23.000Z</time>
      </trkpt>
      <trkpt lat="43.53003" lon="5.5732">
        <ele>546</ele>
        <time>2022-02-15T08:33:24.000Z</time>
      </trkpt>
      <trkpt lat="43.53003" lon="5.5732">
        <ele>546</ele>
        <time>2022-02-15T08:33:25.000Z</time>
      </trkpt>
      <trkpt lat="43.53003" lon="5.5732">
        <ele>546</ele>
        <time>2022-02-15T08:33:26.000Z</time>
      </trkpt>
      <trkpt lat="43.53003" lon="5.5732">
        <ele>546</ele>
        <time>2022-02-15T08:33:27.000Z</time>
      </trkpt>
      <trkpt lat="43.53003" lon="5.5732">
        <ele>546</ele>
        <time>2022-02-15T08:33:28.000Z</time>
      </trkpt>
      <trkpt lat="43.53004" lon="5.57321">
        <ele>546</ele>
        <time>2022-02-15T08:33:29.000Z</time>
      </trkpt>
      <trkpt lat="43.53004" lon="5.57321">
        <ele>546</ele>
        <time>2022-02-15T08:33:30.000Z</time>
      </trkpt>
      <trkpt lat="43.53005" lon="5.57322">
        <ele>546</ele>
        <time>2022-02-15T08:33:31.000Z</time>
      </trkpt>
      <trkpt lat="43.53005" lon="5.57322">
        <ele>546</ele>
        <time>2022-02-15T08:33:32.000Z</time>
      </trkpt>
      <trkpt lat="43.53005" lon="5.57322">
        <ele>546</ele>
        <time>2022-02-15T08:33:33.000Z</time>
      </trkpt>
      <trkpt lat="43.53005" lon="5.57322">
        <ele>546</ele>
        <time>2022-02-15T08:33:34.000Z</time>
      </trkpt>
      <trkpt lat="43.53005" lon="5.57322">
        <ele>546</ele>
        <time>2022-02-15T08:33:35.000Z</time>
      </trkpt>
      <trkpt lat="43.53005" lon="5.57322">
        <ele>546</ele>
        <time>2022-02-15T08:33:36.000Z</time>
      </trkpt>
      <trkpt lat="43.53006" lon="5.57322">
        <ele>546</ele>
        <time>2022-02-15T08:33:37.000Z</time>
      </trkpt>
      <trkpt lat="43.53006" lon="5.57322">
        <ele>546</ele>
        <time>2022-02-15T08:33:38.000Z</time>
      </trkpt>
      <trkpt lat="43.53006" lon="5.57321">
        <ele>546</ele>
        <time>2022-02-15T08:33:39.000Z</time>
      </trkpt>
      <trkpt lat="43.53007" lon="5.57321">
        <ele>546</ele>
        <time>2022-02-15T08:33:40.000Z</time>
      </trkpt>
      <trkpt lat="43.53007" lon="5.57321">
        <ele>547</ele>
        <time>2022-02-15T08:33:41.000Z</time>
      </trkpt>
      <trkpt lat="43.53008" lon="5.5732">
        <ele>547</ele>
        <time>2022-02-15T08:33:42.000Z</time>
      </trkpt>
      <trkpt lat="43.53008" lon="5.5732">
        <ele>547</ele>
        <time>2022-02-15T08:33:43.000Z</time>
      </trkpt>
      <trkpt lat="43.53009" lon="5.57321">
        <ele>547</ele>
        <time>2022-02-15T08:33:44.000Z</time>
      </trkpt>
      <trkpt lat="43.53009" lon="5.5732">
        <ele>547</ele>
        <time>2022-02-15T08:33:45.000Z</time>
      </trkpt>
      <trkpt lat="43.53009" lon="5.5732">
        <ele>547</ele>
        <time>2022-02-15T08:33:46.000Z</time>
      </trkpt>
      <trkpt lat="43.5301" lon="5.5732">
        <ele>547</ele>
        <time>2022-02-15T08:33:47.000Z</time>
      </trkpt>
      <trkpt lat="43.5301" lon="5.5732">
        <ele>547</ele>
        <time>2022-02-15T08:33:48.000Z</time>
      </trkpt>
      <trkpt lat="43.5301" lon="5.5732">
        <ele>547</ele>
        <time>2022-02-15T08:33:49.000Z</time>
      </trkpt>
      <trkpt lat="43.5301" lon="5.5732">
        <ele>548</ele>
        <time>2022-02-15T08:33:50.000Z</time>
      </trkpt>
      <trkpt lat="43.5301" lon="5.5732">
        <ele>548</ele>
        <time>2022-02-15T08:33:51.000Z</time>
      </trkpt>
      <trkpt lat="43.5301" lon="5.5732">
        <ele>548</ele>
        <time>2022-02-15T08:33:52.000Z</time>
      </trkpt>
      <trkpt lat="43.5301" lon="5.5732">
        <ele>548</ele>
        <time>2022-02-15T08:33:53.000Z</time>
      </trkpt>
      <trkpt lat="43.5301" lon="5.5732">
        <ele>548</ele>
        <time>2022-02-15T08:33:54.000Z</time>
      </trkpt>
      <trkpt lat="43.5301" lon="5.57319">
        <ele>548</ele>
        <time>2022-02-15T08:33:55.000Z</time>
      </trkpt>
      <trkpt lat="43.5301" lon="5.57319">
        <ele>548</ele>
        <time>2022-02-15T08:33:56.000Z</time>
      </trkpt>
      <trkpt lat="43.53011" lon="5.57318">
        <ele>548</ele>
        <time>2022-02-15T08:33:57.000Z</time>
      </trkpt>
      <trkpt lat="43.53011" lon="5.57318">
        <ele>549</ele>
        <time>2022-02-15T08:33:58.000Z</time>
      </trkpt>
      <trkpt lat="43.53011" lon="5.57318">
        <ele>549</ele>
        <time>2022-02-15T08:33:59.000Z</time>
      </trkpt>
      <trkpt lat="43.53011" lon="5.57318">
        <ele>549</ele>
        <time>2022-02-15T08:34:00.000Z</time>
      </trkpt>
      <trkpt lat="43.53011" lon="5.57317">
        <ele>549</ele>
        <time>2022-02-15T08:34:01.000Z</time>
      </trkpt>
      <trkpt lat="43.53012" lon="5.57317">
        <ele>549</ele>
        <time>2022-02-15T08:34:02.000Z</time>
      </trkpt>
      <trkpt lat="43.53011" lon="5.57317">
        <ele>549</ele>
        <time>2022-02-15T08:34:03.000Z</time>
      </trkpt>
      <trkpt lat="43.53011" lon="5.57316">
        <ele>549</ele>
        <time>2022-02-15T08:34:04.000Z</time>
      </trkpt>
      <trkpt lat="43.53012" lon="5.57315">
        <ele>549</ele>
        <time>2022-02-15T08:34:05.000Z</time>
      </trkpt>
      <trkpt lat="43.53012" lon="5.57315">
        <ele>550</ele>
        <time>2022-02-15T08:34:06.000Z</time>
      </trkpt>
      <trkpt lat="43.53013" lon="5.57315">
        <ele>550</ele>
        <time>2022-02-15T08:34:07.000Z</time>
      </trkpt>
      <trkpt lat="43.53013" lon="5.57314">
        <ele>550</ele>
        <time>2022-02-15T08:34:08.000Z</time>
      </trkpt>
      <trkpt lat="43.53013" lon="5.57314">
        <ele>550</ele>
        <time>2022-02-15T08:34:09.000Z</time>
      </trkpt>
      <trkpt lat="43.53013" lon="5.57314">
        <ele>550</ele>
        <time>2022-02-15T08:34:10.000Z</time>
      </trkpt>
      <trkpt lat="43.53013" lon="5.57314">
        <ele>550</ele>
        <time>2022-02-15T08:34:11.000Z</time>
      </trkpt>
      <trkpt lat="43.53013" lon="5.57313">
        <ele>550</ele>
        <time>2022-02-15T08:34:12.000Z</time>
      </trkpt>
      <trkpt lat="43.53013" lon="5.57313">
        <ele>550</ele>
        <time>2022-02-15T08:34:13.000Z</time>
      </trkpt>
      <trkpt lat="43.53013" lon="5.57313">
        <ele>550</ele>
        <time>2022-02-15T08:34:14.000Z</time>
      </trkpt>
      <trkpt lat="43.53013" lon="5.57313">
        <ele>550</ele>
        <time>2022-02-15T08:34:15.000Z</time>
      </trkpt>
      <trkpt lat="43.53013" lon="5.57313">
        <ele>551</ele>
        <time>2022-02-15T08:34:16.000Z</time>
      </trkpt>
      <trkpt lat="43.53013" lon="5.57313">
        <ele>551</ele>
        <time>2022-02-15T08:34:17.000Z</time>
      </trkpt>
      <trkpt lat="43.53013" lon="5.57313">
        <ele>551</ele>
        <time>2022-02-15T08:34:18.000Z</time>
      </trkpt>
      <trkpt lat="43.53013" lon="5.57313">
        <ele>551</ele>
        <time>2022-02-15T08:34:19.000Z</time>
      </trkpt>
      <trkpt lat="43.53013" lon="5.57313">
        <ele>551</ele>
        <time>2022-02-15T08:34:20.000Z</time>
      </trkpt>
      <trkpt lat="43.53014" lon="5.57312">
        <ele>551</ele>
        <time>2022-02-15T08:34:21.000Z</time>
      </trkpt>
      <trkpt lat="43.53014" lon="5.57312">
        <ele>551</ele>
        <time>2022-02-15T08:34:22.000Z</time>
      </trkpt>
      <trkpt lat="43.53015" lon="5.57312">
        <ele>551</ele>
        <time>2022-02-15T08:34:23.000Z</time>
      </trkpt>
      <trkpt lat="43.53015" lon="5.57312">
        <ele>551</ele>
        <time>2022-02-15T08:34:24.000Z</time>
      </trkpt>
      <trkpt lat="43.53015" lon="5.57311">
        <ele>551</ele>
        <time>2022-02-15T08:34:25.000Z</time>
      </trkpt>
      <trkpt lat="43.53015" lon="5.57311">
        <ele>551</ele>
        <time>2022-02-15T08:34:26.000Z</time>
      </trkpt>
      <trkpt lat="43.53015" lon="5.57311">
        <ele>551</ele>
        <time>2022-02-15T08:34:27.000Z</time>
      </trkpt>
      <trkpt lat="43.53015" lon="5.57311">
        <ele>551</ele>
        <time>2022-02-15T08:34:28.000Z</time>
      </trkpt>
      <trkpt lat="43.53015" lon="5.57311">
        <ele>551</ele>
        <time>2022-02-15T08:34:29.000Z</time>
      </trkpt>
      <trkpt lat="43.53015" lon="5.57311">
        <ele>552</ele>
        <time>2022-02-15T08:34:30.000Z</time>
      </trkpt>
      <trkpt lat="43.53016" lon="5.5731">
        <ele>552</ele>
        <time>2022-02-15T08:34:31.000Z</time>
      </trkpt>
      <trkpt lat="43.53016" lon="5.5731">
        <ele>552</ele>
        <time>2022-02-15T08:34:32.000Z</time>
      </trkpt>
      <trkpt lat="43.53016" lon="5.5731">
        <ele>552</ele>
        <time>2022-02-15T08:34:33.000Z</time>
      </trkpt>
      <trkpt lat="43.53016" lon="5.5731">
        <ele>552</ele>
        <time>2022-02-15T08:34:34.000Z</time>
      </trkpt>
      <trkpt lat="43.53016" lon="5.5731">
        <ele>552</ele>
        <time>2022-02-15T08:34:35.000Z</time>
      </trkpt>
      <trkpt lat="43.53016" lon="5.5731">
        <ele>552</ele>
        <time>2022-02-15T08:34:36.000Z</time>
      </trkpt>
      <trkpt lat="43.53016" lon="5.5731">
        <ele>552</ele>
        <time>2022-02-15T08:34:37.000Z</time>
      </trkpt>
      <trkpt lat="43.53016" lon="5.5731">
        <ele>552</ele>
        <time>2022-02-15T08:34:38.000Z</time>
      </trkpt>
      <trkpt lat="43.53016" lon="5.5731">
        <ele>553</ele>
        <time>2022-02-15T08:34:39.000Z</time>
      </trkpt>
      <trkpt lat="43.53016" lon="5.5731">
        <ele>553</ele>
        <time>2022-02-15T08:34:40.000Z</time>
      </trkpt>
      <trkpt lat="43.53016" lon="5.5731">
        <ele>553</ele>
        <time>2022-02-15T08:34:41.000Z</time>
      </trkpt>
      <trkpt lat="43.53016" lon="5.5731">
        <ele>553</ele>
        <time>2022-02-15T08:34:42.000Z</time>
      </trkpt>
      <trkpt lat="43.53016" lon="5.5731">
        <ele>553</ele>
        <time>2022-02-15T08:34:43.000Z</time>
      </trkpt>
      <trkpt lat="43.53016" lon="5.5731">
        <ele>553</ele>
        <time>2022-02-15T08:34:44.000Z</time>
      </trkpt>
      <trkpt lat="43.53016" lon="5.5731">
        <ele>553</ele>
        <time>2022-02-15T08:34:45.000Z</time>
      </trkpt>
      <trkpt lat="43.53016" lon="5.57309">
        <ele>553</ele>
        <time>2022-02-15T08:34:46.000Z</time>
      </trkpt>
      <trkpt lat="43.53016" lon="5.57309">
        <ele>553</ele>
        <time>2022-02-15T08:34:47.000Z</time>
      </trkpt>
      <trkpt lat="43.53016" lon="5.57309">
        <ele>553</ele>
        <time>2022-02-15T08:34:48.000Z</time>
      </trkpt>
      <trkpt lat="43.53016" lon="5.57309">
        <ele>553</ele>
        <time>2022-02-15T08:34:49.000Z</time>
      </trkpt>
      <trkpt lat="43.53016" lon="5.57309">
        <ele>553</ele>
        <time>2022-02-15T08:34:50.000Z</time>
      </trkpt>
      <trkpt lat="43.53016" lon="5.57309">
        <ele>553</ele>
        <time>2022-02-15T08:34:51.000Z</time>
      </trkpt>
      <trkpt lat="43.53016" lon="5.57309">
        <ele>553</ele>
        <time>2022-02-15T08:34:52.000Z</time>
      </trkpt>
      <trkpt lat="43.53016" lon="5.57309">
        <ele>553</ele>
        <time>2022-02-15T08:34:53.000Z</time>
      </trkpt>
      <trkpt lat="43.53016" lon="5.57309">
        <ele>553</ele>
        <time>2022-02-15T08:34:54.000Z</time>
      </trkpt>
      <trkpt lat="43.53016" lon="5.57309">
        <ele>553</ele>
        <time>2022-02-15T08:34:55.000Z</time>
      </trkpt>
      <trkpt lat="43.53016" lon="5.57309">
        <ele>553</ele>
        <time>2022-02-15T08:34:56.000Z</time>
      </trkpt>
      <trkpt lat="43.53016" lon="5.57309">
        <ele>553</ele>
        <time>2022-02-15T08:34:57.000Z</time>
      </trkpt>
      <trkpt lat="43.53016" lon="5.57309">
        <ele>554</ele>
        <time>2022-02-15T08:34:58.000Z</time>
      </trkpt>
      <trkpt lat="43.53016" lon="5.57309">
        <ele>554</ele>
        <time>2022-02-15T08:34:59.000Z</time>
      </trkpt>
      <trkpt lat="43.53016" lon="5.57309">
        <ele>554</ele>
        <time>2022-02-15T08:35:00.000Z</time>
      </trkpt>
      <trkpt lat="43.53016" lon="5.57309">
        <ele>554</ele>
        <time>2022-02-15T08:35:01.000Z</time>
      </trkpt>
      <trkpt lat="43.53016" lon="5.57309">
        <ele>554</ele>
        <time>2022-02-15T08:35:02.000Z</time>
      </trkpt>
      <trkpt lat="43.53016" lon="5.57308">
        <ele>554</ele>
        <time>2022-02-15T08:35:03.000Z</time>
      </trkpt>
      <trkpt lat="43.53016" lon="5.57308">
        <ele>554</ele>
        <time>2022-02-15T08:35:04.000Z</time>
      </trkpt>
      <trkpt lat="43.53016" lon="5.57308">
        <ele>554</ele>
        <time>2022-02-15T08:35:05.000Z</time>
      </trkpt>
      <trkpt lat="43.53017" lon="5.57308">
        <ele>554</ele>
        <time>2022-02-15T08:35:06.000Z</time>
      </trkpt>
      <trkpt lat="43.53017" lon="5.57308">
        <ele>554</ele>
        <time>2022-02-15T08:35:07.000Z</time>
      </trkpt>
      <trkpt lat="43.53017" lon="5.57308">
        <ele>554</ele>
        <time>2022-02-15T08:35:08.000Z</time>
      </trkpt>
      <trkpt lat="43.53017" lon="5.57308">
        <ele>554</ele>
        <time>2022-02-15T08:35:09.000Z</time>
      </trkpt>
      <trkpt lat="43.53017" lon="5.57308">
        <ele>554</ele>
        <time>2022-02-15T08:35:10.000Z</time>
      </trkpt>
      <trkpt lat="43.53017" lon="5.57309">
        <ele>554</ele>
        <time>2022-02-15T08:35:11.000Z</time>
      </trkpt>
      <trkpt lat="43.53018" lon="5.57309">
        <ele>554</ele>
        <time>2022-02-15T08:35:12.000Z</time>
      </trkpt>
      <trkpt lat="43.53018" lon="5.57309">
        <ele>555</ele>
        <time>2022-02-15T08:35:13.000Z</time>
      </trkpt>
      <trkpt lat="43.53018" lon="5.57309">
        <ele>555</ele>
        <time>2022-02-15T08:35:14.000Z</time>
      </trkpt>
      <trkpt lat="43.53019" lon="5.57309">
        <ele>555</ele>
        <time>2022-02-15T08:35:15.000Z</time>
      </trkpt>
      <trkpt lat="43.53019" lon="5.57309">
        <ele>555</ele>
        <time>2022-02-15T08:35:16.000Z</time>
      </trkpt>
      <trkpt lat="43.53019" lon="5.57309">
        <ele>555</ele>
        <time>2022-02-15T08:35:17.000Z</time>
      </trkpt>
      <trkpt lat="43.5302" lon="5.57309">
        <ele>555</ele>
        <time>2022-02-15T08:35:18.000Z</time>
      </trkpt>
      <trkpt lat="43.5302" lon="5.57308">
        <ele>555</ele>
        <time>2022-02-15T08:35:19.000Z</time>
      </trkpt>
      <trkpt lat="43.5302" lon="5.57308">
        <ele>555</ele>
        <time>2022-02-15T08:35:20.000Z</time>
      </trkpt>
      <trkpt lat="43.5302" lon="5.57308">
        <ele>555</ele>
        <time>2022-02-15T08:35:21.000Z</time>
      </trkpt>
      <trkpt lat="43.5302" lon="5.57308">
        <ele>555</ele>
        <time>2022-02-15T08:35:22.000Z</time>
      </trkpt>
      <trkpt lat="43.5302" lon="5.57307">
        <ele>556</ele>
        <time>2022-02-15T08:35:23.000Z</time>
      </trkpt>
      <trkpt lat="43.5302" lon="5.57307">
        <ele>556</ele>
        <time>2022-02-15T08:35:24.000Z</time>
      </trkpt>
      <trkpt lat="43.5302" lon="5.57306">
        <ele>556</ele>
        <time>2022-02-15T08:35:25.000Z</time>
      </trkpt>
      <trkpt lat="43.53021" lon="5.57306">
        <ele>556</ele>
        <time>2022-02-15T08:35:26.000Z</time>
      </trkpt>
      <trkpt lat="43.53021" lon="5.57306">
        <ele>556</ele>
        <time>2022-02-15T08:35:27.000Z</time>
      </trkpt>
      <trkpt lat="43.53021" lon="5.57306">
        <ele>557</ele>
        <time>2022-02-15T08:35:28.000Z</time>
      </trkpt>
      <trkpt lat="43.53021" lon="5.57305">
        <ele>557</ele>
        <time>2022-02-15T08:35:29.000Z</time>
      </trkpt>
      <trkpt lat="43.53021" lon="5.57305">
        <ele>557</ele>
        <time>2022-02-15T08:35:30.000Z</time>
      </trkpt>
      <trkpt lat="43.53021" lon="5.57305">
        <ele>557</ele>
        <time>2022-02-15T08:35:31.000Z</time>
      </trkpt>
      <trkpt lat="43.53021" lon="5.57305">
        <ele>558</ele>
        <time>2022-02-15T08:35:32.000Z</time>
      </trkpt>
      <trkpt lat="43.53021" lon="5.57305">
        <ele>558</ele>
        <time>2022-02-15T08:35:33.000Z</time>
      </trkpt>
      <trkpt lat="43.53021" lon="5.57304">
        <ele>558</ele>
        <time>2022-02-15T08:35:34.000Z</time>
      </trkpt>
      <trkpt lat="43.53021" lon="5.57304">
        <ele>558</ele>
        <time>2022-02-15T08:35:35.000Z</time>
      </trkpt>
      <trkpt lat="43.53021" lon="5.57303">
        <ele>558</ele>
        <time>2022-02-15T08:35:36.000Z</time>
      </trkpt>
      <trkpt lat="43.53021" lon="5.57302">
        <ele>559</ele>
        <time>2022-02-15T08:35:37.000Z</time>
      </trkpt>
      <trkpt lat="43.53022" lon="5.57302">
        <ele>559</ele>
        <time>2022-02-15T08:35:38.000Z</time>
      </trkpt>
      <trkpt lat="43.53022" lon="5.57301">
        <ele>559</ele>
        <time>2022-02-15T08:35:39.000Z</time>
      </trkpt>
      <trkpt lat="43.53022" lon="5.573">
        <ele>559</ele>
        <time>2022-02-15T08:35:40.000Z</time>
      </trkpt>
      <trkpt lat="43.53022" lon="5.57299">
        <ele>559</ele>
        <time>2022-02-15T08:35:41.000Z</time>
      </trkpt>
      <trkpt lat="43.53022" lon="5.57299">
        <ele>560</ele>
        <time>2022-02-15T08:35:42.000Z</time>
      </trkpt>
      <trkpt lat="43.53023" lon="5.57298">
        <ele>560</ele>
        <time>2022-02-15T08:35:43.000Z</time>
      </trkpt>
      <trkpt lat="43.53023" lon="5.57298">
        <ele>560</ele>
        <time>2022-02-15T08:35:44.000Z</time>
      </trkpt>
      <trkpt lat="43.53023" lon="5.57298">
        <ele>560</ele>
        <time>2022-02-15T08:35:45.000Z</time>
      </trkpt>
      <trkpt lat="43.53023" lon="5.57298">
        <ele>560</ele>
        <time>2022-02-15T08:35:46.000Z</time>
      </trkpt>
      <trkpt lat="43.53024" lon="5.57298">
        <ele>561</ele>
        <time>2022-02-15T08:35:47.000Z</time>
      </trkpt>
      <trkpt lat="43.53024" lon="5.57298">
        <ele>561</ele>
        <time>2022-02-15T08:35:48.000Z</time>
      </trkpt>
      <trkpt lat="43.53025" lon="5.57298">
        <ele>561</ele>
        <time>2022-02-15T08:35:49.000Z</time>
      </trkpt>
      <trkpt lat="43.53025" lon="5.57298">
        <ele>561</ele>
        <time>2022-02-15T08:35:50.000Z</time>
      </trkpt>
      <trkpt lat="43.53025" lon="5.57298">
        <ele>561</ele>
        <time>2022-02-15T08:35:51.000Z</time>
      </trkpt>
      <trkpt lat="43.53025" lon="5.57298">
        <ele>561</ele>
        <time>2022-02-15T08:35:52.000Z</time>
      </trkpt>
      <trkpt lat="43.53025" lon="5.57298">
        <ele>561</ele>
        <time>2022-02-15T08:35:53.000Z</time>
      </trkpt>
      <trkpt lat="43.53025" lon="5.57298">
        <ele>561</ele>
        <time>2022-02-15T08:35:54.000Z</time>
      </trkpt>
      <trkpt lat="43.53025" lon="5.57298">
        <ele>561</ele>
        <time>2022-02-15T08:35:55.000Z</time>
      </trkpt>
      <trkpt lat="43.53025" lon="5.57298">
        <ele>561</ele>
        <time>2022-02-15T08:35:56.000Z</time>
      </trkpt>
      <trkpt lat="43.53025" lon="5.57298">
        <ele>561</ele>
        <time>2022-02-15T08:35:57.000Z</time>
      </trkpt>
      <trkpt lat="43.53025" lon="5.57298">
        <ele>562</ele>
        <time>2022-02-15T08:35:58.000Z</time>
      </trkpt>
      <trkpt lat="43.53025" lon="5.57298">
        <ele>562</ele>
        <time>2022-02-15T08:35:59.000Z</time>
      </trkpt>
      <trkpt lat="43.53025" lon="5.57298">
        <ele>562</ele>
        <time>2022-02-15T08:36:00.000Z</time>
      </trkpt>
      <trkpt lat="43.53025" lon="5.57298">
        <ele>562</ele>
        <time>2022-02-15T08:36:01.000Z</time>
      </trkpt>
      <trkpt lat="43.53025" lon="5.57297">
        <ele>562</ele>
        <time>2022-02-15T08:36:02.000Z</time>
      </trkpt>
      <trkpt lat="43.53025" lon="5.57297">
        <ele>562</ele>
        <time>2022-02-15T08:36:03.000Z</time>
      </trkpt>
      <trkpt lat="43.53025" lon="5.57296">
        <ele>562</ele>
        <time>2022-02-15T08:36:04.000Z</time>
      </trkpt>
      <trkpt lat="43.53025" lon="5.57296">
        <ele>562</ele>
        <time>2022-02-15T08:36:05.000Z</time>
      </trkpt>
      <trkpt lat="43.53025" lon="5.57296">
        <ele>562</ele>
        <time>2022-02-15T08:36:06.000Z</time>
      </trkpt>
      <trkpt lat="43.53026" lon="5.57296">
        <ele>562</ele>
        <time>2022-02-15T08:36:07.000Z</time>
      </trkpt>
      <trkpt lat="43.53026" lon="5.57296">
        <ele>562</ele>
        <time>2022-02-15T08:36:08.000Z</time>
      </trkpt>
      <trkpt lat="43.53026" lon="5.57296">
        <ele>562</ele>
        <time>2022-02-15T08:36:09.000Z</time>
      </trkpt>
      <trkpt lat="43.53026" lon="5.57296">
        <ele>562</ele>
        <time>2022-02-15T08:36:10.000Z</time>
      </trkpt>
      <trkpt lat="43.53026" lon="5.57296">
        <ele>562</ele>
        <time>2022-02-15T08:36:11.000Z</time>
      </trkpt>
      <trkpt lat="43.53026" lon="5.57296">
        <ele>562</ele>
        <time>2022-02-15T08:36:12.000Z</time>
      </trkpt>
      <trkpt lat="43.53026" lon="5.57296">
        <ele>562</ele>
        <time>2022-02-15T08:36:13.000Z</time>
      </trkpt>
      <trkpt lat="43.53026" lon="5.57296">
        <ele>562</ele>
        <time>2022-02-15T08:36:14.000Z</time>
      </trkpt>
      <trkpt lat="43.53026" lon="5.57296">
        <ele>562</ele>
        <time>2022-02-15T08:36:15.000Z</time>
      </trkpt>
      <trkpt lat="43.53027" lon="5.57296">
        <ele>562</ele>
        <time>2022-02-15T08:36:16.000Z</time>
      </trkpt>
      <trkpt lat="43.53027" lon="5.57295">
        <ele>562</ele>
        <time>2022-02-15T08:36:17.000Z</time>
      </trkpt>
      <trkpt lat="43.53027" lon="5.57296">
        <ele>562</ele>
        <time>2022-02-15T08:36:18.000Z</time>
      </trkpt>
      <trkpt lat="43.53027" lon="5.57296">
        <ele>562</ele>
        <time>2022-02-15T08:36:19.000Z</time>
      </trkpt>
      <trkpt lat="43.53027" lon="5.57296">
        <ele>562</ele>
        <time>2022-02-15T08:36:20.000Z</time>
      </trkpt>
      <trkpt lat="43.53027" lon="5.57296">
        <ele>563</ele>
        <time>2022-02-15T08:36:21.000Z</time>
      </trkpt>
      <trkpt lat="43.53027" lon="5.57296">
        <ele>563</ele>
        <time>2022-02-15T08:36:22.000Z</time>
      </trkpt>
      <trkpt lat="43.53027" lon="5.57296">
        <ele>563</ele>
        <time>2022-02-15T08:36:23.000Z</time>
      </trkpt>
      <trkpt lat="43.53027" lon="5.57296">
        <ele>563</ele>
        <time>2022-02-15T08:36:24.000Z</time>
      </trkpt>
      <trkpt lat="43.53028" lon="5.57295">
        <ele>563</ele>
        <time>2022-02-15T08:36:25.000Z</time>
      </trkpt>
      <trkpt lat="43.53028" lon="5.57295">
        <ele>563</ele>
        <time>2022-02-15T08:36:26.000Z</time>
      </trkpt>
      <trkpt lat="43.53028" lon="5.57295">
        <ele>563</ele>
        <time>2022-02-15T08:36:27.000Z</time>
      </trkpt>
      <trkpt lat="43.53028" lon="5.57295">
        <ele>563</ele>
        <time>2022-02-15T08:36:28.000Z</time>
      </trkpt>
      <trkpt lat="43.53028" lon="5.57295">
        <ele>563</ele>
        <time>2022-02-15T08:36:29.000Z</time>
      </trkpt>
      <trkpt lat="43.53028" lon="5.57295">
        <ele>563</ele>
        <time>2022-02-15T08:36:30.000Z</time>
      </trkpt>
      <trkpt lat="43.53028" lon="5.57295">
        <ele>563</ele>
        <time>2022-02-15T08:36:31.000Z</time>
      </trkpt>
      <trkpt lat="43.53028" lon="5.57296">
        <ele>563</ele>
        <time>2022-02-15T08:36:32.000Z</time>
      </trkpt>
      <trkpt lat="43.53028" lon="5.57296">
        <ele>564</ele>
        <time>2022-02-15T08:36:33.000Z</time>
      </trkpt>
      <trkpt lat="43.53028" lon="5.57296">
        <ele>564</ele>
        <time>2022-02-15T08:36:34.000Z</time>
      </trkpt>
      <trkpt lat="43.53028" lon="5.57296">
        <ele>564</ele>
        <time>2022-02-15T08:36:35.000Z</time>
      </trkpt>
      <trkpt lat="43.53028" lon="5.57296">
        <ele>564</ele>
        <time>2022-02-15T08:36:36.000Z</time>
      </trkpt>
      <trkpt lat="43.53028" lon="5.57296">
        <ele>564</ele>
        <time>2022-02-15T08:36:37.000Z</time>
      </trkpt>
      <trkpt lat="43.53029" lon="5.57296">
        <ele>564</ele>
        <time>2022-02-15T08:36:38.000Z</time>
      </trkpt>
      <trkpt lat="43.53029" lon="5.57296">
        <ele>564</ele>
        <time>2022-02-15T08:36:39.000Z</time>
      </trkpt>
      <trkpt lat="43.53029" lon="5.57295">
        <ele>564</ele>
        <time>2022-02-15T08:36:40.000Z</time>
      </trkpt>
      <trkpt lat="43.5303" lon="5.57295">
        <ele>564</ele>
        <time>2022-02-15T08:36:41.000Z</time>
      </trkpt>
      <trkpt lat="43.5303" lon="5.57295">
        <ele>564</ele>
        <time>2022-02-15T08:36:42.000Z</time>
      </trkpt>
      <trkpt lat="43.5303" lon="5.57295">
        <ele>564</ele>
        <time>2022-02-15T08:36:43.000Z</time>
      </trkpt>
      <trkpt lat="43.5303" lon="5.57295">
        <ele>565</ele>
        <time>2022-02-15T08:36:44.000Z</time>
      </trkpt>
      <trkpt lat="43.5303" lon="5.57294">
        <ele>565</ele>
        <time>2022-02-15T08:36:45.000Z</time>
      </trkpt>
      <trkpt lat="43.5303" lon="5.57294">
        <ele>565</ele>
        <time>2022-02-15T08:36:46.000Z</time>
      </trkpt>
      <trkpt lat="43.5303" lon="5.57293">
        <ele>565</ele>
        <time>2022-02-15T08:36:47.000Z</time>
      </trkpt>
      <trkpt lat="43.5303" lon="5.57292">
        <ele>565</ele>
        <time>2022-02-15T08:36:48.000Z</time>
      </trkpt>
      <trkpt lat="43.53031" lon="5.57292">
        <ele>565</ele>
        <time>2022-02-15T08:36:49.000Z</time>
      </trkpt>
      <trkpt lat="43.53031" lon="5.57291">
        <ele>565</ele>
        <time>2022-02-15T08:36:50.000Z</time>
      </trkpt>
      <trkpt lat="43.53031" lon="5.57291">
        <ele>565</ele>
        <time>2022-02-15T08:36:51.000Z</time>
      </trkpt>
      <trkpt lat="43.53031" lon="5.57291">
        <ele>566</ele>
        <time>2022-02-15T08:36:52.000Z</time>
      </trkpt>
      <trkpt lat="43.53031" lon="5.57291">
        <ele>566</ele>
        <time>2022-02-15T08:36:53.000Z</time>
      </trkpt>
      <trkpt lat="43.53031" lon="5.5729">
        <ele>566</ele>
        <time>2022-02-15T08:36:54.000Z</time>
      </trkpt>
      <trkpt lat="43.53031" lon="5.5729">
        <ele>566</ele>
        <time>2022-02-15T08:36:55.000Z</time>
      </trkpt>
      <trkpt lat="43.53031" lon="5.5729">
        <ele>566</ele>
        <time>2022-02-15T08:36:56.000Z</time>
      </trkpt>
      <trkpt lat="43.53031" lon="5.5729">
        <ele>566</ele>
        <time>2022-02-15T08:36:57.000Z</time>
      </trkpt>
      <trkpt lat="43.53031" lon="5.5729">
        <ele>566</ele>
        <time>2022-02-15T08:36:58.000Z</time>
      </trkpt>
      <trkpt lat="43.53031" lon="5.5729">
        <ele>566</ele>
        <time>2022-02-15T08:36:59.000Z</time>
      </trkpt>
      <trkpt lat="43.53031" lon="5.5729">
        <ele>566</ele>
        <time>2022-02-15T08:37:00.000Z</time>
      </trkpt>
      <trkpt lat="43.53031" lon="5.5729">
        <ele>566</ele>
        <time>2022-02-15T08:37:01.000Z</time>
      </trkpt>
      <trkpt lat="43.53031" lon="5.5729">
        <ele>566</ele>
        <time>2022-02-15T08:37:02.000Z</time>
      </trkpt>
      <trkpt lat="43.53031" lon="5.5729">
        <ele>566</ele>
        <time>2022-02-15T08:37:03.000Z</time>
      </trkpt>
      <trkpt lat="43.53031" lon="5.5729">
        <ele>567</ele>
        <time>2022-02-15T08:37:04.000Z</time>
      </trkpt>
      <trkpt lat="43.53031" lon="5.57289">
        <ele>567</ele>
        <time>2022-02-15T08:37:05.000Z</time>
      </trkpt>
      <trkpt lat="43.53031" lon="5.57289">
        <ele>567</ele>
        <time>2022-02-15T08:37:06.000Z</time>
      </trkpt>
      <trkpt lat="43.53031" lon="5.57288">
        <ele>567</ele>
        <time>2022-02-15T08:37:07.000Z</time>
      </trkpt>
      <trkpt lat="43.53031" lon="5.57287">
        <ele>567</ele>
        <time>2022-02-15T08:37:08.000Z</time>
      </trkpt>
      <trkpt lat="43.53031" lon="5.57286">
        <ele>567</ele>
        <time>2022-02-15T08:37:09.000Z</time>
      </trkpt>
      <trkpt lat="43.53031" lon="5.57286">
        <ele>567</ele>
        <time>2022-02-15T08:37:10.000Z</time>
      </trkpt>
      <trkpt lat="43.53031" lon="5.57285">
        <ele>567</ele>
        <time>2022-02-15T08:37:11.000Z</time>
      </trkpt>
      <trkpt lat="43.53031" lon="5.57284">
        <ele>567</ele>
        <time>2022-02-15T08:37:12.000Z</time>
      </trkpt>
      <trkpt lat="43.53031" lon="5.57282">
        <ele>567</ele>
        <time>2022-02-15T08:37:13.000Z</time>
      </trkpt>
      <trkpt lat="43.53031" lon="5.57281">
        <ele>568</ele>
        <time>2022-02-15T08:37:14.000Z</time>
      </trkpt>
      <trkpt lat="43.53031" lon="5.5728">
        <ele>568</ele>
        <time>2022-02-15T08:37:15.000Z</time>
      </trkpt>
      <trkpt lat="43.53031" lon="5.57279">
        <ele>568</ele>
        <time>2022-02-15T08:37:16.000Z</time>
      </trkpt>
      <trkpt lat="43.53031" lon="5.57278">
        <ele>568</ele>
        <time>2022-02-15T08:37:17.000Z</time>
      </trkpt>
      <trkpt lat="43.53031" lon="5.57277">
        <ele>568</ele>
        <time>2022-02-15T08:37:18.000Z</time>
      </trkpt>
      <trkpt lat="43.53031" lon="5.57276">
        <ele>568</ele>
        <time>2022-02-15T08:37:19.000Z</time>
      </trkpt>
      <trkpt lat="43.53032" lon="5.57276">
        <ele>569</ele>
        <time>2022-02-15T08:37:20.000Z</time>
      </trkpt>
      <trkpt lat="43.53031" lon="5.57275">
        <ele>569</ele>
        <time>2022-02-15T08:37:21.000Z</time>
      </trkpt>
      <trkpt lat="43.53031" lon="5.57275">
        <ele>569</ele>
        <time>2022-02-15T08:37:22.000Z</time>
      </trkpt>
      <trkpt lat="43.53031" lon="5.57274">
        <ele>569</ele>
        <time>2022-02-15T08:37:23.000Z</time>
      </trkpt>
      <trkpt lat="43.53031" lon="5.57273">
        <ele>570</ele>
        <time>2022-02-15T08:37:24.000Z</time>
      </trkpt>
      <trkpt lat="43.53031" lon="5.57272">
        <ele>570</ele>
        <time>2022-02-15T08:37:25.000Z</time>
      </trkpt>
      <trkpt lat="43.5303" lon="5.57271">
        <ele>570</ele>
        <time>2022-02-15T08:37:26.000Z</time>
      </trkpt>
      <trkpt lat="43.5303" lon="5.5727">
        <ele>570</ele>
        <time>2022-02-15T08:37:27.000Z</time>
      </trkpt>
      <trkpt lat="43.5303" lon="5.57269">
        <ele>571</ele>
        <time>2022-02-15T08:37:28.000Z</time>
      </trkpt>
      <trkpt lat="43.5303" lon="5.57268">
        <ele>571</ele>
        <time>2022-02-15T08:37:29.000Z</time>
      </trkpt>
      <trkpt lat="43.5303" lon="5.57266">
        <ele>571</ele>
        <time>2022-02-15T08:37:30.000Z</time>
      </trkpt>
      <trkpt lat="43.5303" lon="5.57266">
        <ele>572</ele>
        <time>2022-02-15T08:37:31.000Z</time>
      </trkpt>
      <trkpt lat="43.5303" lon="5.57265">
        <ele>572</ele>
        <time>2022-02-15T08:37:32.000Z</time>
      </trkpt>
      <trkpt lat="43.5303" lon="5.57264">
        <ele>572</ele>
        <time>2022-02-15T08:37:33.000Z</time>
      </trkpt>
      <trkpt lat="43.5303" lon="5.57263">
        <ele>572</ele>
        <time>2022-02-15T08:37:34.000Z</time>
      </trkpt>
      <trkpt lat="43.5303" lon="5.57262">
        <ele>573</ele>
        <time>2022-02-15T08:37:35.000Z</time>
      </trkpt>
      <trkpt lat="43.5303" lon="5.57262">
        <ele>573</ele>
        <time>2022-02-15T08:37:36.000Z</time>
      </trkpt>
      <trkpt lat="43.5303" lon="5.57261">
        <ele>573</ele>
        <time>2022-02-15T08:37:37.000Z</time>
      </trkpt>
      <trkpt lat="43.5303" lon="5.5726">
        <ele>574</ele>
        <time>2022-02-15T08:37:38.000Z</time>
      </trkpt>
      <trkpt lat="43.5303" lon="5.5726">
        <ele>574</ele>
        <time>2022-02-15T08:37:39.000Z</time>
      </trkpt>
      <trkpt lat="43.5303" lon="5.57259">
        <ele>574</ele>
        <time>2022-02-15T08:37:40.000Z</time>
      </trkpt>
      <trkpt lat="43.53031" lon="5.57258">
        <ele>575</ele>
        <time>2022-02-15T08:37:41.000Z</time>
      </trkpt>
      <trkpt lat="43.53031" lon="5.57258">
        <ele>575</ele>
        <time>2022-02-15T08:37:42.000Z</time>
      </trkpt>
      <trkpt lat="43.53031" lon="5.57257">
        <ele>575</ele>
        <time>2022-02-15T08:37:43.000Z</time>
      </trkpt>
      <trkpt lat="43.53031" lon="5.57256">
        <ele>575</ele>
        <time>2022-02-15T08:37:44.000Z</time>
      </trkpt>
      <trkpt lat="43.53031" lon="5.57255">
        <ele>576</ele>
        <time>2022-02-15T08:37:45.000Z</time>
      </trkpt>
      <trkpt lat="43.53031" lon="5.57255">
        <ele>576</ele>
        <time>2022-02-15T08:37:46.000Z</time>
      </trkpt>
      <trkpt lat="43.53032" lon="5.57254">
        <ele>576</ele>
        <time>2022-02-15T08:37:47.000Z</time>
      </trkpt>
      <trkpt lat="43.53032" lon="5.57253">
        <ele>576</ele>
        <time>2022-02-15T08:37:48.000Z</time>
      </trkpt>
      <trkpt lat="43.53032" lon="5.57253">
        <ele>577</ele>
        <time>2022-02-15T08:37:49.000Z</time>
      </trkpt>
      <trkpt lat="43.53033" lon="5.57252">
        <ele>577</ele>
        <time>2022-02-15T08:37:50.000Z</time>
      </trkpt>
      <trkpt lat="43.53033" lon="5.57252">
        <ele>577</ele>
        <time>2022-02-15T08:37:51.000Z</time>
      </trkpt>
      <trkpt lat="43.53033" lon="5.57252">
        <ele>577</ele>
        <time>2022-02-15T08:37:52.000Z</time>
      </trkpt>
      <trkpt lat="43.53033" lon="5.57251">
        <ele>578</ele>
        <time>2022-02-15T08:37:53.000Z</time>
      </trkpt>
      <trkpt lat="43.53034" lon="5.57251">
        <ele>578</ele>
        <time>2022-02-15T08:37:54.000Z</time>
      </trkpt>
      <trkpt lat="43.53034" lon="5.5725">
        <ele>578</ele>
        <time>2022-02-15T08:37:55.000Z</time>
      </trkpt>
      <trkpt lat="43.53034" lon="5.5725">
        <ele>578</ele>
        <time>2022-02-15T08:37:56.000Z</time>
      </trkpt>
      <trkpt lat="43.53035" lon="5.5725">
        <ele>578</ele>
        <time>2022-02-15T08:37:57.000Z</time>
      </trkpt>
      <trkpt lat="43.53035" lon="5.5725">
        <ele>578</ele>
        <time>2022-02-15T08:37:58.000Z</time>
      </trkpt>
      <trkpt lat="43.53035" lon="5.5725">
        <ele>578</ele>
        <time>2022-02-15T08:37:59.000Z</time>
      </trkpt>
      <trkpt lat="43.53035" lon="5.57249">
        <ele>578</ele>
        <time>2022-02-15T08:38:00.000Z</time>
      </trkpt>
      <trkpt lat="43.53035" lon="5.57249">
        <ele>578</ele>
        <time>2022-02-15T08:38:01.000Z</time>
      </trkpt>
      <trkpt lat="43.53035" lon="5.57249">
        <ele>578</ele>
        <time>2022-02-15T08:38:02.000Z</time>
      </trkpt>
      <trkpt lat="43.53035" lon="5.57249">
        <ele>578</ele>
        <time>2022-02-15T08:38:03.000Z</time>
      </trkpt>
      <trkpt lat="43.53035" lon="5.57249">
        <ele>579</ele>
        <time>2022-02-15T08:38:04.000Z</time>
      </trkpt>
      <trkpt lat="43.53035" lon="5.5725">
        <ele>579</ele>
        <time>2022-02-15T08:38:05.000Z</time>
      </trkpt>
      <trkpt lat="43.53035" lon="5.5725">
        <ele>579</ele>
        <time>2022-02-15T08:38:06.000Z</time>
      </trkpt>
      <trkpt lat="43.53035" lon="5.5725">
        <ele>579</ele>
        <time>2022-02-15T08:38:07.000Z</time>
      </trkpt>
      <trkpt lat="43.53035" lon="5.57249">
        <ele>579</ele>
        <time>2022-02-15T08:38:08.000Z</time>
      </trkpt>
      <trkpt lat="43.53035" lon="5.5725">
        <ele>579</ele>
        <time>2022-02-15T08:38:09.000Z</time>
      </trkpt>
      <trkpt lat="43.53035" lon="5.5725">
        <ele>579</ele>
        <time>2022-02-15T08:38:10.000Z</time>
      </trkpt>
      <trkpt lat="43.53035" lon="5.57249">
        <ele>579</ele>
        <time>2022-02-15T08:38:11.000Z</time>
      </trkpt>
      <trkpt lat="43.53035" lon="5.57249">
        <ele>579</ele>
        <time>2022-02-15T08:38:12.000Z</time>
      </trkpt>
      <trkpt lat="43.53035" lon="5.57249">
        <ele>579</ele>
        <time>2022-02-15T08:38:13.000Z</time>
      </trkpt>
      <trkpt lat="43.53035" lon="5.57249">
        <ele>579</ele>
        <time>2022-02-15T08:38:14.000Z</time>
      </trkpt>
      <trkpt lat="43.53035" lon="5.5725">
        <ele>579</ele>
        <time>2022-02-15T08:38:15.000Z</time>
      </trkpt>
      <trkpt lat="43.53035" lon="5.5725">
        <ele>579</ele>
        <time>2022-02-15T08:38:16.000Z</time>
      </trkpt>
      <trkpt lat="43.53035" lon="5.57249">
        <ele>579</ele>
        <time>2022-02-15T08:38:17.000Z</time>
      </trkpt>
      <trkpt lat="43.53035" lon="5.57249">
        <ele>579</ele>
        <time>2022-02-15T08:38:18.000Z</time>
      </trkpt>
      <trkpt lat="43.53035" lon="5.57249">
        <ele>579</ele>
        <time>2022-02-15T08:38:19.000Z</time>
      </trkpt>
      <trkpt lat="43.53035" lon="5.57249">
        <ele>579</ele>
        <time>2022-02-15T08:38:20.000Z</time>
      </trkpt>
      <trkpt lat="43.53035" lon="5.57249">
        <ele>579</ele>
        <time>2022-02-15T08:38:21.000Z</time>
      </trkpt>
      <trkpt lat="43.53035" lon="5.57249">
        <ele>579</ele>
        <time>2022-02-15T08:38:22.000Z</time>
      </trkpt>
      <trkpt lat="43.53035" lon="5.57249">
        <ele>579</ele>
        <time>2022-02-15T08:38:23.000Z</time>
      </trkpt>
      <trkpt lat="43.53035" lon="5.57249">
        <ele>579</ele>
        <time>2022-02-15T08:38:24.000Z</time>
      </trkpt>
      <trkpt lat="43.53035" lon="5.57249">
        <ele>579</ele>
        <time>2022-02-15T08:38:25.000Z</time>
      </trkpt>
      <trkpt lat="43.53035" lon="5.57249">
        <ele>579</ele>
        <time>2022-02-15T08:38:26.000Z</time>
      </trkpt>
      <trkpt lat="43.53035" lon="5.57249">
        <ele>579</ele>
        <time>2022-02-15T08:38:27.000Z</time>
      </trkpt>
      <trkpt lat="43.53035" lon="5.57249">
        <ele>579</ele>
        <time>2022-02-15T08:38:28.000Z</time>
      </trkpt>
      <trkpt lat="43.53035" lon="5.57249">
        <ele>579</ele>
        <time>2022-02-15T08:38:29.000Z</time>
      </trkpt>
      <trkpt lat="43.53035" lon="5.57249">
        <ele>579</ele>
        <time>2022-02-15T08:38:30.000Z</time>
      </trkpt>
      <trkpt lat="43.53035" lon="5.57249">
        <ele>579</ele>
        <time>2022-02-15T08:38:31.000Z</time>
      </trkpt>
      <trkpt lat="43.53035" lon="5.57249">
        <ele>579</ele>
        <time>2022-02-15T08:38:32.000Z</time>
      </trkpt>
      <trkpt lat="43.53035" lon="5.57249">
        <ele>579</ele>
        <time>2022-02-15T08:38:33.000Z</time>
      </trkpt>
      <trkpt lat="43.53035" lon="5.57249">
        <ele>579</ele>
        <time>2022-02-15T08:38:34.000Z</time>
      </trkpt>
      <trkpt lat="43.53035" lon="5.57249">
        <ele>579</ele>
        <time>2022-02-15T08:38:35.000Z</time>
      </trkpt>
      <trkpt lat="43.53035" lon="5.57249">
        <ele>579</ele>
        <time>2022-02-15T08:38:36.000Z</time>
      </trkpt>
      <trkpt lat="43.53035" lon="5.57249">
        <ele>579</ele>
        <time>2022-02-15T08:38:37.000Z</time>
      </trkpt>
      <trkpt lat="43.53035" lon="5.57249">
        <ele>579</ele>
        <time>2022-02-15T08:38:38.000Z</time>
      </trkpt>
      <trkpt lat="43.53035" lon="5.57249">
        <ele>579</ele>
        <time>2022-02-15T08:38:39.000Z</time>
      </trkpt>
      <trkpt lat="43.53035" lon="5.57249">
        <ele>579</ele>
        <time>2022-02-15T08:38:40.000Z</time>
      </trkpt>
      <trkpt lat="43.53035" lon="5.57249">
        <ele>579</ele>
        <time>2022-02-15T08:38:41.000Z</time>
      </trkpt>
      <trkpt lat="43.53035" lon="5.57249">
        <ele>579</ele>
        <time>2022-02-15T08:38:42.000Z</time>
      </trkpt>
      <trkpt lat="43.53035" lon="5.57249">
        <ele>579</ele>
        <time>2022-02-15T08:38:43.000Z</time>
      </trkpt>
      <trkpt lat="43.53035" lon="5.57249">
        <ele>579</ele>
        <time>2022-02-15T08:38:44.000Z</time>
      </trkpt>
      <trkpt lat="43.53035" lon="5.57249">
        <ele>579</ele>
        <time>2022-02-15T08:38:45.000Z</time>
      </trkpt>
      <trkpt lat="43.53035" lon="5.57249">
        <ele>579</ele>
        <time>2022-02-15T08:38:46.000Z</time>
      </trkpt>
      <trkpt lat="43.53035" lon="5.57249">
        <ele>579</ele>
        <time>2022-02-15T08:38:47.000Z</time>
      </trkpt>
      <trkpt lat="43.53035" lon="5.57249">
        <ele>579</ele>
        <time>2022-02-15T08:38:48.000Z</time>
      </trkpt>
      <trkpt lat="43.53035" lon="5.57249">
        <ele>579</ele>
        <time>2022-02-15T08:38:49.000Z</time>
      </trkpt>
      <trkpt lat="43.53035" lon="5.57249">
        <ele>579</ele>
        <time>2022-02-15T08:38:50.000Z</time>
      </trkpt>
      <trkpt lat="43.53035" lon="5.57249">
        <ele>579</ele>
        <time>2022-02-15T08:38:51.000Z</time>
      </trkpt>
      <trkpt lat="43.53035" lon="5.57249">
        <ele>579</ele>
        <time>2022-02-15T08:38:52.000Z</time>
      </trkpt>
      <trkpt lat="43.53035" lon="5.57249">
        <ele>579</ele>
        <time>2022-02-15T08:38:53.000Z</time>
      </trkpt>
      <trkpt lat="43.53035" lon="5.57249">
        <ele>579</ele>
        <time>2022-02-15T08:38:54.000Z</time>
      </trkpt>
      <trkpt lat="43.53035" lon="5.57249">
        <ele>579</ele>
        <time>2022-02-15T08:38:55.000Z</time>
      </trkpt>
      <trkpt lat="43.53035" lon="5.57249">
        <ele>579</ele>
        <time>2022-02-15T08:38:56.000Z</time>
      </trkpt>
      <trkpt lat="43.53035" lon="5.57249">
        <ele>579</ele>
        <time>2022-02-15T08:38:57.000Z</time>
      </trkpt>
      <trkpt lat="43.53035" lon="5.57249">
        <ele>579</ele>
        <time>2022-02-15T08:38:58.000Z</time>
      </trkpt>
      <trkpt lat="43.53035" lon="5.57249">
        <ele>579</ele>
        <time>2022-02-15T08:38:59.000Z</time>
      </trkpt>
      <trkpt lat="43.53035" lon="5.57249">
        <ele>579</ele>
        <time>2022-02-15T08:39:00.000Z</time>
      </trkpt>
      <trkpt lat="43.53035" lon="5.57249">
        <ele>579</ele>
        <time>2022-02-15T08:39:01.000Z</time>
      </trkpt>
      <trkpt lat="43.53035" lon="5.57249">
        <ele>579</ele>
        <time>2022-02-15T08:39:02.000Z</time>
      </trkpt>
      <trkpt lat="43.53035" lon="5.57249">
        <ele>579</ele>
        <time>2022-02-15T08:39:03.000Z</time>
      </trkpt>
      <trkpt lat="43.53035" lon="5.57249">
        <ele>579</ele>
        <time>2022-02-15T08:39:04.000Z</time>
      </trkpt>
      <trkpt lat="43.53035" lon="5.57249">
        <ele>579</ele>
        <time>2022-02-15T08:39:05.000Z</time>
      </trkpt>
      <trkpt lat="43.53035" lon="5.57249">
        <ele>579</ele>
        <time>2022-02-15T08:39:06.000Z</time>
      </trkpt>
      <trkpt lat="43.53035" lon="5.57249">
        <ele>579</ele>
        <time>2022-02-15T08:39:07.000Z</time>
      </trkpt>
      <trkpt lat="43.53035" lon="5.57249">
        <ele>579</ele>
        <time>2022-02-15T08:39:08.000Z</time>
      </trkpt>
      <trkpt lat="43.53035" lon="5.57249">
        <ele>579</ele>
        <time>2022-02-15T08:39:09.000Z</time>
      </trkpt>
      <trkpt lat="43.53035" lon="5.57249">
        <ele>579</ele>
        <time>2022-02-15T08:39:10.000Z</time>
      </trkpt>
      <trkpt lat="43.53035" lon="5.57249">
        <ele>579</ele>
        <time>2022-02-15T08:39:11.000Z</time>
      </trkpt>
      <trkpt lat="43.53035" lon="5.57249">
        <ele>579</ele>
        <time>2022-02-15T08:39:12.000Z</time>
      </trkpt>
      <trkpt lat="43.53035" lon="5.57249">
        <ele>579</ele>
        <time>2022-02-15T08:39:13.000Z</time>
      </trkpt>
      <trkpt lat="43.53035" lon="5.57249">
        <ele>579</ele>
        <time>2022-02-15T08:39:14.000Z</time>
      </trkpt>
      <trkpt lat="43.53035" lon="5.57249">
        <ele>579</ele>
        <time>2022-02-15T08:39:15.000Z</time>
      </trkpt>
      <trkpt lat="43.53035" lon="5.57249">
        <ele>579</ele>
        <time>2022-02-15T08:39:16.000Z</time>
      </trkpt>
      <trkpt lat="43.53035" lon="5.57249">
        <ele>579</ele>
        <time>2022-02-15T08:39:17.000Z</time>
      </trkpt>
      <trkpt lat="43.53035" lon="5.57249">
        <ele>579</ele>
        <time>2022-02-15T08:39:18.000Z</time>
      </trkpt>
      <trkpt lat="43.53035" lon="5.57249">
        <ele>579</ele>
        <time>2022-02-15T08:39:19.000Z</time>
      </trkpt>
      <trkpt lat="43.53035" lon="5.57249">
        <ele>579</ele>
        <time>2022-02-15T08:39:20.000Z</time>
      </trkpt>
      <trkpt lat="43.53035" lon="5.57249">
        <ele>579</ele>
        <time>2022-02-15T08:39:21.000Z</time>
      </trkpt>
      <trkpt lat="43.53035" lon="5.57249">
        <ele>579</ele>
        <time>2022-02-15T08:39:22.000Z</time>
      </trkpt>
      <trkpt lat="43.53035" lon="5.57249">
        <ele>579</ele>
        <time>2022-02-15T08:39:23.000Z</time>
      </trkpt>
      <trkpt lat="43.53035" lon="5.57249">
        <ele>579</ele>
        <time>2022-02-15T08:39:24.000Z</time>
      </trkpt>
      <trkpt lat="43.53035" lon="5.57249">
        <ele>579</ele>
        <time>2022-02-15T08:39:25.000Z</time>
      </trkpt>
      <trkpt lat="43.53035" lon="5.57249">
        <ele>579</ele>
        <time>2022-02-15T08:39:26.000Z</time>
      </trkpt>
      <trkpt lat="43.53035" lon="5.57249">
        <ele>579</ele>
        <time>2022-02-15T08:39:27.000Z</time>
      </trkpt>
      <trkpt lat="43.53036" lon="5.57249">
        <ele>579</ele>
        <time>2022-02-15T08:39:28.000Z</time>
      </trkpt>
      <trkpt lat="43.53036" lon="5.5725">
        <ele>579</ele>
        <time>2022-02-15T08:39:29.000Z</time>
      </trkpt>
      <trkpt lat="43.53036" lon="5.5725">
        <ele>579</ele>
        <time>2022-02-15T08:39:30.000Z</time>
      </trkpt>
      <trkpt lat="43.53036" lon="5.5725">
        <ele>579</ele>
        <time>2022-02-15T08:39:31.000Z</time>
      </trkpt>
      <trkpt lat="43.53037" lon="5.57251">
        <ele>579</ele>
        <time>2022-02-15T08:39:32.000Z</time>
      </trkpt>
      <trkpt lat="43.53037" lon="5.57251">
        <ele>579</ele>
        <time>2022-02-15T08:39:33.000Z</time>
      </trkpt>
      <trkpt lat="43.53037" lon="5.57251">
        <ele>579</ele>
        <time>2022-02-15T08:39:34.000Z</time>
      </trkpt>
      <trkpt lat="43.53038" lon="5.57251">
        <ele>579</ele>
        <time>2022-02-15T08:39:35.000Z</time>
      </trkpt>
      <trkpt lat="43.53038" lon="5.57251">
        <ele>579</ele>
        <time>2022-02-15T08:39:36.000Z</time>
      </trkpt>
      <trkpt lat="43.53038" lon="5.57251">
        <ele>579</ele>
        <time>2022-02-15T08:39:37.000Z</time>
      </trkpt>
      <trkpt lat="43.53038" lon="5.57252">
        <ele>579</ele>
        <time>2022-02-15T08:39:38.000Z</time>
      </trkpt>
      <trkpt lat="43.53038" lon="5.57252">
        <ele>579</ele>
        <time>2022-02-15T08:39:39.000Z</time>
      </trkpt>
      <trkpt lat="43.53038" lon="5.57253">
        <ele>579</ele>
        <time>2022-02-15T08:39:40.000Z</time>
      </trkpt>
      <trkpt lat="43.53038" lon="5.57254">
        <ele>579</ele>
        <time>2022-02-15T08:39:41.000Z</time>
      </trkpt>
      <trkpt lat="43.53038" lon="5.57254">
        <ele>579</ele>
        <time>2022-02-15T08:39:42.000Z</time>
      </trkpt>
      <trkpt lat="43.53039" lon="5.57255">
        <ele>579</ele>
        <time>2022-02-15T08:39:43.000Z</time>
      </trkpt>
      <trkpt lat="43.53038" lon="5.57255">
        <ele>579</ele>
        <time>2022-02-15T08:39:44.000Z</time>
      </trkpt>
      <trkpt lat="43.53038" lon="5.57256">
        <ele>579</ele>
        <time>2022-02-15T08:39:45.000Z</time>
      </trkpt>
      <trkpt lat="43.53039" lon="5.57256">
        <ele>579</ele>
        <time>2022-02-15T08:39:46.000Z</time>
      </trkpt>
      <trkpt lat="43.53039" lon="5.57257">
        <ele>579</ele>
        <time>2022-02-15T08:39:47.000Z</time>
      </trkpt>
      <trkpt lat="43.53039" lon="5.57257">
        <ele>579</ele>
        <time>2022-02-15T08:39:48.000Z</time>
      </trkpt>
      <trkpt lat="43.53039" lon="5.57257">
        <ele>579</ele>
        <time>2022-02-15T08:39:49.000Z</time>
      </trkpt>
      <trkpt lat="43.5304" lon="5.57257">
        <ele>579</ele>
        <time>2022-02-15T08:39:50.000Z</time>
      </trkpt>
      <trkpt lat="43.5304" lon="5.57257">
        <ele>579</ele>
        <time>2022-02-15T08:39:51.000Z</time>
      </trkpt>
      <trkpt lat="43.53041" lon="5.57257">
        <ele>580</ele>
        <time>2022-02-15T08:39:52.000Z</time>
      </trkpt>
      <trkpt lat="43.53041" lon="5.57258">
        <ele>580</ele>
        <time>2022-02-15T08:39:53.000Z</time>
      </trkpt>
      <trkpt lat="43.53042" lon="5.57258">
        <ele>580</ele>
        <time>2022-02-15T08:39:54.000Z</time>
      </trkpt>
      <trkpt lat="43.53042" lon="5.57258">
        <ele>580</ele>
        <time>2022-02-15T08:39:55.000Z</time>
      </trkpt>
      <trkpt lat="43.53043" lon="5.57258">
        <ele>580</ele>
        <time>2022-02-15T08:39:56.000Z</time>
      </trkpt>
      <trkpt lat="43.53043" lon="5.57258">
        <ele>580</ele>
        <time>2022-02-15T08:39:57.000Z</time>
      </trkpt>
      <trkpt lat="43.53044" lon="5.57257">
        <ele>580</ele>
        <time>2022-02-15T08:39:58.000Z</time>
      </trkpt>
      <trkpt lat="43.53044" lon="5.57257">
        <ele>580</ele>
        <time>2022-02-15T08:39:59.000Z</time>
      </trkpt>
      <trkpt lat="43.53044" lon="5.57257">
        <ele>580</ele>
        <time>2022-02-15T08:40:00.000Z</time>
      </trkpt>
      <trkpt lat="43.53045" lon="5.57257">
        <ele>580</ele>
        <time>2022-02-15T08:40:01.000Z</time>
      </trkpt>
      <trkpt lat="43.53045" lon="5.57257">
        <ele>581</ele>
        <time>2022-02-15T08:40:02.000Z</time>
      </trkpt>
      <trkpt lat="43.53045" lon="5.57257">
        <ele>581</ele>
        <time>2022-02-15T08:40:03.000Z</time>
      </trkpt>
      <trkpt lat="43.53046" lon="5.57258">
        <ele>581</ele>
        <time>2022-02-15T08:40:04.000Z</time>
      </trkpt>
      <trkpt lat="43.53046" lon="5.57258">
        <ele>581</ele>
        <time>2022-02-15T08:40:05.000Z</time>
      </trkpt>
      <trkpt lat="43.53047" lon="5.57258">
        <ele>581</ele>
        <time>2022-02-15T08:40:06.000Z</time>
      </trkpt>
      <trkpt lat="43.53047" lon="5.57258">
        <ele>581</ele>
        <time>2022-02-15T08:40:07.000Z</time>
      </trkpt>
      <trkpt lat="43.53047" lon="5.57259">
        <ele>581</ele>
        <time>2022-02-15T08:40:08.000Z</time>
      </trkpt>
      <trkpt lat="43.53048" lon="5.57259">
        <ele>582</ele>
        <time>2022-02-15T08:40:09.000Z</time>
      </trkpt>
      <trkpt lat="43.53048" lon="5.5726">
        <ele>582</ele>
        <time>2022-02-15T08:40:10.000Z</time>
      </trkpt>
      <trkpt lat="43.53047" lon="5.57261">
        <ele>582</ele>
        <time>2022-02-15T08:40:11.000Z</time>
      </trkpt>
      <trkpt lat="43.53047" lon="5.57261">
        <ele>582</ele>
        <time>2022-02-15T08:40:12.000Z</time>
      </trkpt>
      <trkpt lat="43.53047" lon="5.57262">
        <ele>582</ele>
        <time>2022-02-15T08:40:13.000Z</time>
      </trkpt>
      <trkpt lat="43.53047" lon="5.57263">
        <ele>582</ele>
        <time>2022-02-15T08:40:14.000Z</time>
      </trkpt>
      <trkpt lat="43.53047" lon="5.57263">
        <ele>582</ele>
        <time>2022-02-15T08:40:15.000Z</time>
      </trkpt>
      <trkpt lat="43.53047" lon="5.57264">
        <ele>582</ele>
        <time>2022-02-15T08:40:16.000Z</time>
      </trkpt>
      <trkpt lat="43.53047" lon="5.57265">
        <ele>582</ele>
        <time>2022-02-15T08:40:17.000Z</time>
      </trkpt>
      <trkpt lat="43.53047" lon="5.57265">
        <ele>582</ele>
        <time>2022-02-15T08:40:18.000Z</time>
      </trkpt>
      <trkpt lat="43.53047" lon="5.57266">
        <ele>582</ele>
        <time>2022-02-15T08:40:19.000Z</time>
      </trkpt>
      <trkpt lat="43.53047" lon="5.57266">
        <ele>582</ele>
        <time>2022-02-15T08:40:20.000Z</time>
      </trkpt>
      <trkpt lat="43.53047" lon="5.57267">
        <ele>582</ele>
        <time>2022-02-15T08:40:21.000Z</time>
      </trkpt>
      <trkpt lat="43.53047" lon="5.57267">
        <ele>582</ele>
        <time>2022-02-15T08:40:22.000Z</time>
      </trkpt>
      <trkpt lat="43.53048" lon="5.57268">
        <ele>582</ele>
        <time>2022-02-15T08:40:23.000Z</time>
      </trkpt>
      <trkpt lat="43.53048" lon="5.57268">
        <ele>582</ele>
        <time>2022-02-15T08:40:24.000Z</time>
      </trkpt>
      <trkpt lat="43.53049" lon="5.57268">
        <ele>582</ele>
        <time>2022-02-15T08:40:25.000Z</time>
      </trkpt>
      <trkpt lat="43.53049" lon="5.57268">
        <ele>582</ele>
        <time>2022-02-15T08:40:26.000Z</time>
      </trkpt>
      <trkpt lat="43.5305" lon="5.57268">
        <ele>582</ele>
        <time>2022-02-15T08:40:27.000Z</time>
      </trkpt>
      <trkpt lat="43.5305" lon="5.57269">
        <ele>582</ele>
        <time>2022-02-15T08:40:28.000Z</time>
      </trkpt>
      <trkpt lat="43.53051" lon="5.57269">
        <ele>582</ele>
        <time>2022-02-15T08:40:29.000Z</time>
      </trkpt>
      <trkpt lat="43.53051" lon="5.57268">
        <ele>582</ele>
        <time>2022-02-15T08:40:30.000Z</time>
      </trkpt>
      <trkpt lat="43.53052" lon="5.57268">
        <ele>582</ele>
        <time>2022-02-15T08:40:31.000Z</time>
      </trkpt>
      <trkpt lat="43.53052" lon="5.57268">
        <ele>582</ele>
        <time>2022-02-15T08:40:32.000Z</time>
      </trkpt>
      <trkpt lat="43.53053" lon="5.57268">
        <ele>582</ele>
        <time>2022-02-15T08:40:33.000Z</time>
      </trkpt>
      <trkpt lat="43.53053" lon="5.57268">
        <ele>582</ele>
        <time>2022-02-15T08:40:34.000Z</time>
      </trkpt>
      <trkpt lat="43.53053" lon="5.57267">
        <ele>582</ele>
        <time>2022-02-15T08:40:35.000Z</time>
      </trkpt>
      <trkpt lat="43.53053" lon="5.57267">
        <ele>582</ele>
        <time>2022-02-15T08:40:36.000Z</time>
      </trkpt>
      <trkpt lat="43.53054" lon="5.57266">
        <ele>582</ele>
        <time>2022-02-15T08:40:37.000Z</time>
      </trkpt>
      <trkpt lat="43.53054" lon="5.57266">
        <ele>582</ele>
        <time>2022-02-15T08:40:38.000Z</time>
      </trkpt>
      <trkpt lat="43.53054" lon="5.57265">
        <ele>583</ele>
        <time>2022-02-15T08:40:39.000Z</time>
      </trkpt>
      <trkpt lat="43.53054" lon="5.57265">
        <ele>583</ele>
        <time>2022-02-15T08:40:40.000Z</time>
      </trkpt>
      <trkpt lat="43.53054" lon="5.57264">
        <ele>583</ele>
        <time>2022-02-15T08:40:41.000Z</time>
      </trkpt>
      <trkpt lat="43.53054" lon="5.57264">
        <ele>583</ele>
        <time>2022-02-15T08:40:42.000Z</time>
      </trkpt>
      <trkpt lat="43.53055" lon="5.57263">
        <ele>583</ele>
        <time>2022-02-15T08:40:43.000Z</time>
      </trkpt>
      <trkpt lat="43.53055" lon="5.57264">
        <ele>584</ele>
        <time>2022-02-15T08:40:44.000Z</time>
      </trkpt>
      <trkpt lat="43.53055" lon="5.57264">
        <ele>584</ele>
        <time>2022-02-15T08:40:45.000Z</time>
      </trkpt>
      <trkpt lat="43.53055" lon="5.57264">
        <ele>584</ele>
        <time>2022-02-15T08:40:46.000Z</time>
      </trkpt>
      <trkpt lat="43.53056" lon="5.57264">
        <ele>584</ele>
        <time>2022-02-15T08:40:47.000Z</time>
      </trkpt>
      <trkpt lat="43.53056" lon="5.57264">
        <ele>584</ele>
        <time>2022-02-15T08:40:48.000Z</time>
      </trkpt>
      <trkpt lat="43.53056" lon="5.57263">
        <ele>585</ele>
        <time>2022-02-15T08:40:49.000Z</time>
      </trkpt>
      <trkpt lat="43.53056" lon="5.57262">
        <ele>585</ele>
        <time>2022-02-15T08:40:50.000Z</time>
      </trkpt>
      <trkpt lat="43.53056" lon="5.57262">
        <ele>585</ele>
        <time>2022-02-15T08:40:51.000Z</time>
      </trkpt>
      <trkpt lat="43.53056" lon="5.57262">
        <ele>586</ele>
        <time>2022-02-15T08:40:52.000Z</time>
      </trkpt>
      <trkpt lat="43.53056" lon="5.57262">
        <ele>586</ele>
        <time>2022-02-15T08:40:53.000Z</time>
      </trkpt>
      <trkpt lat="43.53056" lon="5.57262">
        <ele>586</ele>
        <time>2022-02-15T08:40:54.000Z</time>
      </trkpt>
      <trkpt lat="43.53056" lon="5.57261">
        <ele>586</ele>
        <time>2022-02-15T08:40:55.000Z</time>
      </trkpt>
      <trkpt lat="43.53056" lon="5.57261">
        <ele>586</ele>
        <time>2022-02-15T08:40:56.000Z</time>
      </trkpt>
      <trkpt lat="43.53056" lon="5.57261">
        <ele>586</ele>
        <time>2022-02-15T08:40:57.000Z</time>
      </trkpt>
      <trkpt lat="43.53056" lon="5.57261">
        <ele>586</ele>
        <time>2022-02-15T08:40:58.000Z</time>
      </trkpt>
      <trkpt lat="43.53056" lon="5.57261">
        <ele>586</ele>
        <time>2022-02-15T08:40:59.000Z</time>
      </trkpt>
      <trkpt lat="43.53056" lon="5.57261">
        <ele>586</ele>
        <time>2022-02-15T08:41:00.000Z</time>
      </trkpt>
      <trkpt lat="43.53056" lon="5.57261">
        <ele>587</ele>
        <time>2022-02-15T08:41:01.000Z</time>
      </trkpt>
      <trkpt lat="43.53056" lon="5.57261">
        <ele>587</ele>
        <time>2022-02-15T08:41:02.000Z</time>
      </trkpt>
      <trkpt lat="43.53056" lon="5.57261">
        <ele>587</ele>
        <time>2022-02-15T08:41:03.000Z</time>
      </trkpt>
      <trkpt lat="43.53056" lon="5.57261">
        <ele>587</ele>
        <time>2022-02-15T08:41:04.000Z</time>
      </trkpt>
      <trkpt lat="43.53056" lon="5.57261">
        <ele>587</ele>
        <time>2022-02-15T08:41:05.000Z</time>
      </trkpt>
      <trkpt lat="43.53056" lon="5.5726">
        <ele>587</ele>
        <time>2022-02-15T08:41:06.000Z</time>
      </trkpt>
      <trkpt lat="43.53056" lon="5.57261">
        <ele>587</ele>
        <time>2022-02-15T08:41:07.000Z</time>
      </trkpt>
      <trkpt lat="43.53056" lon="5.57261">
        <ele>587</ele>
        <time>2022-02-15T08:41:08.000Z</time>
      </trkpt>
      <trkpt lat="43.53056" lon="5.57261">
        <ele>587</ele>
        <time>2022-02-15T08:41:09.000Z</time>
      </trkpt>
      <trkpt lat="43.53056" lon="5.57261">
        <ele>587</ele>
        <time>2022-02-15T08:41:10.000Z</time>
      </trkpt>
      <trkpt lat="43.53056" lon="5.57261">
        <ele>588</ele>
        <time>2022-02-15T08:41:11.000Z</time>
      </trkpt>
      <trkpt lat="43.53056" lon="5.57261">
        <ele>588</ele>
        <time>2022-02-15T08:41:12.000Z</time>
      </trkpt>
      <trkpt lat="43.53056" lon="5.57261">
        <ele>588</ele>
        <time>2022-02-15T08:41:13.000Z</time>
      </trkpt>
      <trkpt lat="43.53055" lon="5.57261">
        <ele>588</ele>
        <time>2022-02-15T08:41:14.000Z</time>
      </trkpt>
      <trkpt lat="43.53055" lon="5.57261">
        <ele>588</ele>
        <time>2022-02-15T08:41:15.000Z</time>
      </trkpt>
      <trkpt lat="43.53055" lon="5.57261">
        <ele>588</ele>
        <time>2022-02-15T08:41:16.000Z</time>
      </trkpt>
      <trkpt lat="43.53055" lon="5.5726">
        <ele>588</ele>
        <time>2022-02-15T08:41:17.000Z</time>
      </trkpt>
      <trkpt lat="43.53055" lon="5.5726">
        <ele>588</ele>
        <time>2022-02-15T08:41:18.000Z</time>
      </trkpt>
      <trkpt lat="43.53055" lon="5.5726">
        <ele>588</ele>
        <time>2022-02-15T08:41:19.000Z</time>
      </trkpt>
      <trkpt lat="43.53055" lon="5.5726">
        <ele>588</ele>
        <time>2022-02-15T08:41:20.000Z</time>
      </trkpt>
      <trkpt lat="43.53055" lon="5.5726">
        <ele>588</ele>
        <time>2022-02-15T08:41:21.000Z</time>
      </trkpt>
      <trkpt lat="43.53055" lon="5.5726">
        <ele>588</ele>
        <time>2022-02-15T08:41:22.000Z</time>
      </trkpt>
      <trkpt lat="43.53055" lon="5.5726">
        <ele>589</ele>
        <time>2022-02-15T08:41:23.000Z</time>
      </trkpt>
      <trkpt lat="43.53055" lon="5.5726">
        <ele>589</ele>
        <time>2022-02-15T08:41:24.000Z</time>
      </trkpt>
      <trkpt lat="43.53055" lon="5.5726">
        <ele>589</ele>
        <time>2022-02-15T08:41:25.000Z</time>
      </trkpt>
      <trkpt lat="43.53055" lon="5.5726">
        <ele>589</ele>
        <time>2022-02-15T08:41:26.000Z</time>
      </trkpt>
      <trkpt lat="43.53055" lon="5.5726">
        <ele>589</ele>
        <time>2022-02-15T08:41:27.000Z</time>
      </trkpt>
      <trkpt lat="43.53055" lon="5.5726">
        <ele>589</ele>
        <time>2022-02-15T08:41:28.000Z</time>
      </trkpt>
      <trkpt lat="43.53055" lon="5.5726">
        <ele>589</ele>
        <time>2022-02-15T08:41:29.000Z</time>
      </trkpt>
      <trkpt lat="43.53055" lon="5.57259">
        <ele>589</ele>
        <time>2022-02-15T08:41:30.000Z</time>
      </trkpt>
      <trkpt lat="43.53055" lon="5.57259">
        <ele>589</ele>
        <time>2022-02-15T08:41:31.000Z</time>
      </trkpt>
      <trkpt lat="43.53056" lon="5.57258">
        <ele>589</ele>
        <time>2022-02-15T08:41:32.000Z</time>
      </trkpt>
      <trkpt lat="43.53056" lon="5.57258">
        <ele>589</ele>
        <time>2022-02-15T08:41:33.000Z</time>
      </trkpt>
      <trkpt lat="43.53057" lon="5.57258">
        <ele>589</ele>
        <time>2022-02-15T08:41:34.000Z</time>
      </trkpt>
      <trkpt lat="43.53058" lon="5.57259">
        <ele>589</ele>
        <time>2022-02-15T08:41:35.000Z</time>
      </trkpt>
      <trkpt lat="43.53058" lon="5.57259">
        <ele>589</ele>
        <time>2022-02-15T08:41:36.000Z</time>
      </trkpt>
      <trkpt lat="43.53059" lon="5.57259">
        <ele>590</ele>
        <time>2022-02-15T08:41:37.000Z</time>
      </trkpt>
      <trkpt lat="43.53059" lon="5.57259">
        <ele>590</ele>
        <time>2022-02-15T08:41:38.000Z</time>
      </trkpt>
      <trkpt lat="43.53059" lon="5.57258">
        <ele>590</ele>
        <time>2022-02-15T08:41:39.000Z</time>
      </trkpt>
      <trkpt lat="43.5306" lon="5.57258">
        <ele>590</ele>
        <time>2022-02-15T08:41:40.000Z</time>
      </trkpt>
      <trkpt lat="43.5306" lon="5.57259">
        <ele>590</ele>
        <time>2022-02-15T08:41:41.000Z</time>
      </trkpt>
      <trkpt lat="43.5306" lon="5.57259">
        <ele>590</ele>
        <time>2022-02-15T08:41:42.000Z</time>
      </trkpt>
      <trkpt lat="43.5306" lon="5.57259">
        <ele>590</ele>
        <time>2022-02-15T08:41:43.000Z</time>
      </trkpt>
      <trkpt lat="43.5306" lon="5.57259">
        <ele>590</ele>
        <time>2022-02-15T08:41:44.000Z</time>
      </trkpt>
      <trkpt lat="43.5306" lon="5.57259">
        <ele>590</ele>
        <time>2022-02-15T08:41:45.000Z</time>
      </trkpt>
      <trkpt lat="43.5306" lon="5.57259">
        <ele>590</ele>
        <time>2022-02-15T08:41:46.000Z</time>
      </trkpt>
      <trkpt lat="43.5306" lon="5.57259">
        <ele>591</ele>
        <time>2022-02-15T08:41:47.000Z</time>
      </trkpt>
      <trkpt lat="43.5306" lon="5.57258">
        <ele>591</ele>
        <time>2022-02-15T08:41:48.000Z</time>
      </trkpt>
      <trkpt lat="43.5306" lon="5.57258">
        <ele>591</ele>
        <time>2022-02-15T08:41:49.000Z</time>
      </trkpt>
      <trkpt lat="43.5306" lon="5.57258">
        <ele>591</ele>
        <time>2022-02-15T08:41:50.000Z</time>
      </trkpt>
      <trkpt lat="43.5306" lon="5.57258">
        <ele>591</ele>
        <time>2022-02-15T08:41:51.000Z</time>
      </trkpt>
      <trkpt lat="43.5306" lon="5.57258">
        <ele>591</ele>
        <time>2022-02-15T08:41:52.000Z</time>
      </trkpt>
      <trkpt lat="43.5306" lon="5.57258">
        <ele>591</ele>
        <time>2022-02-15T08:41:53.000Z</time>
      </trkpt>
      <trkpt lat="43.5306" lon="5.57258">
        <ele>591</ele>
        <time>2022-02-15T08:41:54.000Z</time>
      </trkpt>
      <trkpt lat="43.5306" lon="5.57258">
        <ele>591</ele>
        <time>2022-02-15T08:41:55.000Z</time>
      </trkpt>
      <trkpt lat="43.5306" lon="5.57258">
        <ele>591</ele>
        <time>2022-02-15T08:41:56.000Z</time>
      </trkpt>
      <trkpt lat="43.5306" lon="5.57258">
        <ele>591</ele>
        <time>2022-02-15T08:41:57.000Z</time>
      </trkpt>
      <trkpt lat="43.5306" lon="5.57258">
        <ele>591</ele>
        <time>2022-02-15T08:41:58.000Z</time>
      </trkpt>
      <trkpt lat="43.5306" lon="5.57258">
        <ele>591</ele>
        <time>2022-02-15T08:41:59.000Z</time>
      </trkpt>
      <trkpt lat="43.5306" lon="5.57258">
        <ele>591</ele>
        <time>2022-02-15T08:42:00.000Z</time>
      </trkpt>
      <trkpt lat="43.5306" lon="5.57257">
        <ele>591</ele>
        <time>2022-02-15T08:42:01.000Z</time>
      </trkpt>
      <trkpt lat="43.5306" lon="5.57257">
        <ele>591</ele>
        <time>2022-02-15T08:42:02.000Z</time>
      </trkpt>
      <trkpt lat="43.5306" lon="5.57257">
        <ele>591</ele>
        <time>2022-02-15T08:42:03.000Z</time>
      </trkpt>
      <trkpt lat="43.5306" lon="5.57257">
        <ele>591</ele>
        <time>2022-02-15T08:42:04.000Z</time>
      </trkpt>
      <trkpt lat="43.5306" lon="5.57257">
        <ele>591</ele>
        <time>2022-02-15T08:42:05.000Z</time>
      </trkpt>
      <trkpt lat="43.5306" lon="5.57257">
        <ele>592</ele>
        <time>2022-02-15T08:42:06.000Z</time>
      </trkpt>
      <trkpt lat="43.5306" lon="5.57257">
        <ele>592</ele>
        <time>2022-02-15T08:42:07.000Z</time>
      </trkpt>
      <trkpt lat="43.5306" lon="5.57257">
        <ele>592</ele>
        <time>2022-02-15T08:42:08.000Z</time>
      </trkpt>
      <trkpt lat="43.5306" lon="5.57257">
        <ele>592</ele>
        <time>2022-02-15T08:42:09.000Z</time>
      </trkpt>
      <trkpt lat="43.5306" lon="5.57257">
        <ele>592</ele>
        <time>2022-02-15T08:42:10.000Z</time>
      </trkpt>
      <trkpt lat="43.5306" lon="5.57257">
        <ele>592</ele>
        <time>2022-02-15T08:42:11.000Z</time>
      </trkpt>
      <trkpt lat="43.5306" lon="5.57257">
        <ele>592</ele>
        <time>2022-02-15T08:42:12.000Z</time>
      </trkpt>
      <trkpt lat="43.5306" lon="5.57257">
        <ele>592</ele>
        <time>2022-02-15T08:42:13.000Z</time>
      </trkpt>
      <trkpt lat="43.5306" lon="5.57257">
        <ele>592</ele>
        <time>2022-02-15T08:42:14.000Z</time>
      </trkpt>
      <trkpt lat="43.5306" lon="5.57257">
        <ele>592</ele>
        <time>2022-02-15T08:42:15.000Z</time>
      </trkpt>
      <trkpt lat="43.5306" lon="5.57257">
        <ele>592</ele>
        <time>2022-02-15T08:42:16.000Z</time>
      </trkpt>
      <trkpt lat="43.5306" lon="5.57257">
        <ele>592</ele>
        <time>2022-02-15T08:42:17.000Z</time>
      </trkpt>
      <trkpt lat="43.5306" lon="5.57257">
        <ele>592</ele>
        <time>2022-02-15T08:42:18.000Z</time>
      </trkpt>
      <trkpt lat="43.5306" lon="5.57257">
        <ele>592</ele>
        <time>2022-02-15T08:42:19.000Z</time>
      </trkpt>
      <trkpt lat="43.5306" lon="5.57257">
        <ele>592</ele>
        <time>2022-02-15T08:42:20.000Z</time>
      </trkpt>
      <trkpt lat="43.5306" lon="5.57257">
        <ele>592</ele>
        <time>2022-02-15T08:42:21.000Z</time>
      </trkpt>
      <trkpt lat="43.5306" lon="5.57257">
        <ele>592</ele>
        <time>2022-02-15T08:42:22.000Z</time>
      </trkpt>
      <trkpt lat="43.5306" lon="5.57257">
        <ele>592</ele>
        <time>2022-02-15T08:42:23.000Z</time>
      </trkpt>
      <trkpt lat="43.5306" lon="5.57257">
        <ele>592</ele>
        <time>2022-02-15T08:42:24.000Z</time>
      </trkpt>
      <trkpt lat="43.5306" lon="5.57257">
        <ele>592</ele>
        <time>2022-02-15T08:42:25.000Z</time>
      </trkpt>
      <trkpt lat="43.5306" lon="5.57257">
        <ele>592</ele>
        <time>2022-02-15T08:42:26.000Z</time>
      </trkpt>
      <trkpt lat="43.5306" lon="5.57257">
        <ele>592</ele>
        <time>2022-02-15T08:42:27.000Z</time>
      </trkpt>
      <trkpt lat="43.5306" lon="5.57257">
        <ele>592</ele>
        <time>2022-02-15T08:42:28.000Z</time>
      </trkpt>
      <trkpt lat="43.5306" lon="5.57257">
        <ele>592</ele>
        <time>2022-02-15T08:42:29.000Z</time>
      </trkpt>
      <trkpt lat="43.5306" lon="5.57257">
        <ele>593</ele>
        <time>2022-02-15T08:42:30.000Z</time>
      </trkpt>
      <trkpt lat="43.5306" lon="5.57257">
        <ele>593</ele>
        <time>2022-02-15T08:42:31.000Z</time>
      </trkpt>
      <trkpt lat="43.5306" lon="5.57257">
        <ele>593</ele>
        <time>2022-02-15T08:42:32.000Z</time>
      </trkpt>
      <trkpt lat="43.5306" lon="5.57257">
        <ele>593</ele>
        <time>2022-02-15T08:42:33.000Z</time>
      </trkpt>
      <trkpt lat="43.5306" lon="5.57257">
        <ele>593</ele>
        <time>2022-02-15T08:42:34.000Z</time>
      </trkpt>
      <trkpt lat="43.5306" lon="5.57257">
        <ele>593</ele>
        <time>2022-02-15T08:42:35.000Z</time>
      </trkpt>
      <trkpt lat="43.5306" lon="5.57257">
        <ele>593</ele>
        <time>2022-02-15T08:42:36.000Z</time>
      </trkpt>
      <trkpt lat="43.5306" lon="5.57257">
        <ele>593</ele>
        <time>2022-02-15T08:42:37.000Z</time>
      </trkpt>
      <trkpt lat="43.5306" lon="5.57257">
        <ele>593</ele>
        <time>2022-02-15T08:42:38.000Z</time>
      </trkpt>
      <trkpt lat="43.5306" lon="5.57257">
        <ele>593</ele>
        <time>2022-02-15T08:42:39.000Z</time>
      </trkpt>
      <trkpt lat="43.5306" lon="5.57257">
        <ele>593</ele>
        <time>2022-02-15T08:42:40.000Z</time>
      </trkpt>
      <trkpt lat="43.5306" lon="5.57257">
        <ele>593</ele>
        <time>2022-02-15T08:42:41.000Z</time>
      </trkpt>
      <trkpt lat="43.5306" lon="5.57257">
        <ele>593</ele>
        <time>2022-02-15T08:42:42.000Z</time>
      </trkpt>
      <trkpt lat="43.5306" lon="5.57257">
        <ele>593</ele>
        <time>2022-02-15T08:42:43.000Z</time>
      </trkpt>
      <trkpt lat="43.5306" lon="5.57257">
        <ele>593</ele>
        <time>2022-02-15T08:42:44.000Z</time>
      </trkpt>
      <trkpt lat="43.5306" lon="5.57257">
        <ele>593</ele>
        <time>2022-02-15T08:42:45.000Z</time>
      </trkpt>
      <trkpt lat="43.5306" lon="5.57257">
        <ele>593</ele>
        <time>2022-02-15T08:42:46.000Z</time>
      </trkpt>
      <trkpt lat="43.5306" lon="5.57257">
        <ele>593</ele>
        <time>2022-02-15T08:42:47.000Z</time>
      </trkpt>
      <trkpt lat="43.5306" lon="5.57256">
        <ele>593</ele>
        <time>2022-02-15T08:42:48.000Z</time>
      </trkpt>
      <trkpt lat="43.53061" lon="5.57256">
        <ele>593</ele>
        <time>2022-02-15T08:42:49.000Z</time>
      </trkpt>
      <trkpt lat="43.5306" lon="5.57256">
        <ele>593</ele>
        <time>2022-02-15T08:42:50.000Z</time>
      </trkpt>
      <trkpt lat="43.5306" lon="5.57256">
        <ele>593</ele>
        <time>2022-02-15T08:42:51.000Z</time>
      </trkpt>
      <trkpt lat="43.5306" lon="5.57256">
        <ele>593</ele>
        <time>2022-02-15T08:42:52.000Z</time>
      </trkpt>
      <trkpt lat="43.5306" lon="5.57256">
        <ele>593</ele>
        <time>2022-02-15T08:42:53.000Z</time>
      </trkpt>
      <trkpt lat="43.5306" lon="5.57256">
        <ele>593</ele>
        <time>2022-02-15T08:42:54.000Z</time>
      </trkpt>
      <trkpt lat="43.53061" lon="5.57256">
        <ele>593</ele>
        <time>2022-02-15T08:42:55.000Z</time>
      </trkpt>
      <trkpt lat="43.53062" lon="5.57255">
        <ele>593</ele>
        <time>2022-02-15T08:42:56.000Z</time>
      </trkpt>
      <trkpt lat="43.53062" lon="5.57255">
        <ele>593</ele>
        <time>2022-02-15T08:42:57.000Z</time>
      </trkpt>
      <trkpt lat="43.53063" lon="5.57254">
        <ele>593</ele>
        <time>2022-02-15T08:42:58.000Z</time>
      </trkpt>
      <trkpt lat="43.53063" lon="5.57253">
        <ele>593</ele>
        <time>2022-02-15T08:42:59.000Z</time>
      </trkpt>
      <trkpt lat="43.53064" lon="5.57253">
        <ele>593</ele>
        <time>2022-02-15T08:43:00.000Z</time>
      </trkpt>
      <trkpt lat="43.53065" lon="5.57252">
        <ele>593</ele>
        <time>2022-02-15T08:43:01.000Z</time>
      </trkpt>
      <trkpt lat="43.53065" lon="5.57252">
        <ele>593</ele>
        <time>2022-02-15T08:43:02.000Z</time>
      </trkpt>
      <trkpt lat="43.53066" lon="5.57251">
        <ele>593</ele>
        <time>2022-02-15T08:43:03.000Z</time>
      </trkpt>
      <trkpt lat="43.53066" lon="5.57251">
        <ele>593</ele>
        <time>2022-02-15T08:43:04.000Z</time>
      </trkpt>
      <trkpt lat="43.53067" lon="5.57251">
        <ele>593</ele>
        <time>2022-02-15T08:43:05.000Z</time>
      </trkpt>
      <trkpt lat="43.53067" lon="5.57251">
        <ele>593</ele>
        <time>2022-02-15T08:43:06.000Z</time>
      </trkpt>
      <trkpt lat="43.53068" lon="5.57251">
        <ele>593</ele>
        <time>2022-02-15T08:43:07.000Z</time>
      </trkpt>
      <trkpt lat="43.53068" lon="5.57251">
        <ele>593</ele>
        <time>2022-02-15T08:43:08.000Z</time>
      </trkpt>
      <trkpt lat="43.53069" lon="5.57251">
        <ele>593</ele>
        <time>2022-02-15T08:43:09.000Z</time>
      </trkpt>
      <trkpt lat="43.5307" lon="5.57251">
        <ele>593</ele>
        <time>2022-02-15T08:43:10.000Z</time>
      </trkpt>
      <trkpt lat="43.5307" lon="5.57251">
        <ele>593</ele>
        <time>2022-02-15T08:43:11.000Z</time>
      </trkpt>
      <trkpt lat="43.5307" lon="5.57251">
        <ele>593</ele>
        <time>2022-02-15T08:43:12.000Z</time>
      </trkpt>
      <trkpt lat="43.53071" lon="5.5725">
        <ele>593</ele>
        <time>2022-02-15T08:43:13.000Z</time>
      </trkpt>
      <trkpt lat="43.53071" lon="5.5725">
        <ele>593</ele>
        <time>2022-02-15T08:43:14.000Z</time>
      </trkpt>
      <trkpt lat="43.53071" lon="5.5725">
        <ele>593</ele>
        <time>2022-02-15T08:43:15.000Z</time>
      </trkpt>
      <trkpt lat="43.53072" lon="5.57249">
        <ele>593</ele>
        <time>2022-02-15T08:43:16.000Z</time>
      </trkpt>
      <trkpt lat="43.53072" lon="5.5725">
        <ele>593</ele>
        <time>2022-02-15T08:43:17.000Z</time>
      </trkpt>
      <trkpt lat="43.53073" lon="5.57249">
        <ele>593</ele>
        <time>2022-02-15T08:43:18.000Z</time>
      </trkpt>
      <trkpt lat="43.53073" lon="5.57249">
        <ele>593</ele>
        <time>2022-02-15T08:43:19.000Z</time>
      </trkpt>
      <trkpt lat="43.53073" lon="5.57249">
        <ele>593</ele>
        <time>2022-02-15T08:43:20.000Z</time>
      </trkpt>
      <trkpt lat="43.53073" lon="5.57249">
        <ele>594</ele>
        <time>2022-02-15T08:43:21.000Z</time>
      </trkpt>
      <trkpt lat="43.53074" lon="5.57249">
        <ele>594</ele>
        <time>2022-02-15T08:43:22.000Z</time>
      </trkpt>
      <trkpt lat="43.53074" lon="5.57249">
        <ele>594</ele>
        <time>2022-02-15T08:43:23.000Z</time>
      </trkpt>
      <trkpt lat="43.53074" lon="5.57249">
        <ele>594</ele>
        <time>2022-02-15T08:43:24.000Z</time>
      </trkpt>
      <trkpt lat="43.53074" lon="5.57249">
        <ele>594</ele>
        <time>2022-02-15T08:43:25.000Z</time>
      </trkpt>
      <trkpt lat="43.53075" lon="5.57249">
        <ele>594</ele>
        <time>2022-02-15T08:43:26.000Z</time>
      </trkpt>
      <trkpt lat="43.53075" lon="5.57249">
        <ele>595</ele>
        <time>2022-02-15T08:43:27.000Z</time>
      </trkpt>
      <trkpt lat="43.53076" lon="5.57249">
        <ele>595</ele>
        <time>2022-02-15T08:43:28.000Z</time>
      </trkpt>
      <trkpt lat="43.53076" lon="5.57249">
        <ele>595</ele>
        <time>2022-02-15T08:43:29.000Z</time>
      </trkpt>
      <trkpt lat="43.53076" lon="5.57249">
        <ele>595</ele>
        <time>2022-02-15T08:43:30.000Z</time>
      </trkpt>
      <trkpt lat="43.53076" lon="5.57249">
        <ele>595</ele>
        <time>2022-02-15T08:43:31.000Z</time>
      </trkpt>
      <trkpt lat="43.53076" lon="5.57249">
        <ele>595</ele>
        <time>2022-02-15T08:43:32.000Z</time>
      </trkpt>
      <trkpt lat="43.53076" lon="5.57249">
        <ele>595</ele>
        <time>2022-02-15T08:43:33.000Z</time>
      </trkpt>
      <trkpt lat="43.53077" lon="5.57249">
        <ele>596</ele>
        <time>2022-02-15T08:43:34.000Z</time>
      </trkpt>
      <trkpt lat="43.53077" lon="5.57248">
        <ele>596</ele>
        <time>2022-02-15T08:43:35.000Z</time>
      </trkpt>
      <trkpt lat="43.53078" lon="5.57248">
        <ele>596</ele>
        <time>2022-02-15T08:43:36.000Z</time>
      </trkpt>
      <trkpt lat="43.53078" lon="5.57247">
        <ele>596</ele>
        <time>2022-02-15T08:43:37.000Z</time>
      </trkpt>
      <trkpt lat="43.53079" lon="5.57247">
        <ele>596</ele>
        <time>2022-02-15T08:43:38.000Z</time>
      </trkpt>
      <trkpt lat="43.53079" lon="5.57247">
        <ele>596</ele>
        <time>2022-02-15T08:43:39.000Z</time>
      </trkpt>
      <trkpt lat="43.53079" lon="5.57247">
        <ele>596</ele>
        <time>2022-02-15T08:43:40.000Z</time>
      </trkpt>
      <trkpt lat="43.5308" lon="5.57247">
        <ele>597</ele>
        <time>2022-02-15T08:43:41.000Z</time>
      </trkpt>
      <trkpt lat="43.5308" lon="5.57248">
        <ele>597</ele>
        <time>2022-02-15T08:43:42.000Z</time>
      </trkpt>
      <trkpt lat="43.53081" lon="5.57248">
        <ele>597</ele>
        <time>2022-02-15T08:43:43.000Z</time>
      </trkpt>
      <trkpt lat="43.53081" lon="5.57248">
        <ele>597</ele>
        <time>2022-02-15T08:43:44.000Z</time>
      </trkpt>
      <trkpt lat="43.53081" lon="5.57249">
        <ele>597</ele>
        <time>2022-02-15T08:43:45.000Z</time>
      </trkpt>
      <trkpt lat="43.53081" lon="5.57249">
        <ele>597</ele>
        <time>2022-02-15T08:43:46.000Z</time>
      </trkpt>
      <trkpt lat="43.53081" lon="5.5725">
        <ele>597</ele>
        <time>2022-02-15T08:43:47.000Z</time>
      </trkpt>
      <trkpt lat="43.53081" lon="5.5725">
        <ele>597</ele>
        <time>2022-02-15T08:43:48.000Z</time>
      </trkpt>
      <trkpt lat="43.53081" lon="5.57251">
        <ele>597</ele>
        <time>2022-02-15T08:43:49.000Z</time>
      </trkpt>
      <trkpt lat="43.53081" lon="5.57251">
        <ele>597</ele>
        <time>2022-02-15T08:43:50.000Z</time>
      </trkpt>
      <trkpt lat="43.53082" lon="5.57251">
        <ele>598</ele>
        <time>2022-02-15T08:43:51.000Z</time>
      </trkpt>
      <trkpt lat="43.53082" lon="5.57251">
        <ele>598</ele>
        <time>2022-02-15T08:43:52.000Z</time>
      </trkpt>
      <trkpt lat="43.53082" lon="5.57251">
        <ele>598</ele>
        <time>2022-02-15T08:43:53.000Z</time>
      </trkpt>
      <trkpt lat="43.53083" lon="5.57251">
        <ele>598</ele>
        <time>2022-02-15T08:43:54.000Z</time>
      </trkpt>
      <trkpt lat="43.53083" lon="5.57251">
        <ele>598</ele>
        <time>2022-02-15T08:43:55.000Z</time>
      </trkpt>
      <trkpt lat="43.53083" lon="5.57251">
        <ele>598</ele>
        <time>2022-02-15T08:43:56.000Z</time>
      </trkpt>
      <trkpt lat="43.53084" lon="5.57251">
        <ele>598</ele>
        <time>2022-02-15T08:43:57.000Z</time>
      </trkpt>
      <trkpt lat="43.53085" lon="5.57251">
        <ele>598</ele>
        <time>2022-02-15T08:43:58.000Z</time>
      </trkpt>
      <trkpt lat="43.53085" lon="5.57251">
        <ele>599</ele>
        <time>2022-02-15T08:43:59.000Z</time>
      </trkpt>
      <trkpt lat="43.53085" lon="5.57251">
        <ele>599</ele>
        <time>2022-02-15T08:44:00.000Z</time>
      </trkpt>
      <trkpt lat="43.53085" lon="5.57251">
        <ele>599</ele>
        <time>2022-02-15T08:44:01.000Z</time>
      </trkpt>
      <trkpt lat="43.53085" lon="5.57251">
        <ele>599</ele>
        <time>2022-02-15T08:44:02.000Z</time>
      </trkpt>
      <trkpt lat="43.53085" lon="5.5725">
        <ele>599</ele>
        <time>2022-02-15T08:44:03.000Z</time>
      </trkpt>
      <trkpt lat="43.53085" lon="5.5725">
        <ele>599</ele>
        <time>2022-02-15T08:44:04.000Z</time>
      </trkpt>
      <trkpt lat="43.53085" lon="5.5725">
        <ele>599</ele>
        <time>2022-02-15T08:44:05.000Z</time>
      </trkpt>
      <trkpt lat="43.53085" lon="5.5725">
        <ele>599</ele>
        <time>2022-02-15T08:44:06.000Z</time>
      </trkpt>
      <trkpt lat="43.53085" lon="5.5725">
        <ele>599</ele>
        <time>2022-02-15T08:44:07.000Z</time>
      </trkpt>
      <trkpt lat="43.53085" lon="5.5725">
        <ele>599</ele>
        <time>2022-02-15T08:44:08.000Z</time>
      </trkpt>
      <trkpt lat="43.53085" lon="5.5725">
        <ele>599</ele>
        <time>2022-02-15T08:44:09.000Z</time>
      </trkpt>
      <trkpt lat="43.53085" lon="5.5725">
        <ele>599</ele>
        <time>2022-02-15T08:44:10.000Z</time>
      </trkpt>
      <trkpt lat="43.53085" lon="5.5725">
        <ele>599</ele>
        <time>2022-02-15T08:44:11.000Z</time>
      </trkpt>
      <trkpt lat="43.53085" lon="5.5725">
        <ele>599</ele>
        <time>2022-02-15T08:44:12.000Z</time>
      </trkpt>
      <trkpt lat="43.53085" lon="5.5725">
        <ele>600</ele>
        <time>2022-02-15T08:44:13.000Z</time>
      </trkpt>
      <trkpt lat="43.53085" lon="5.5725">
        <ele>600</ele>
        <time>2022-02-15T08:44:14.000Z</time>
      </trkpt>
      <trkpt lat="43.53085" lon="5.5725">
        <ele>600</ele>
        <time>2022-02-15T08:44:15.000Z</time>
      </trkpt>
      <trkpt lat="43.53085" lon="5.5725">
        <ele>600</ele>
        <time>2022-02-15T08:44:16.000Z</time>
      </trkpt>
      <trkpt lat="43.53085" lon="5.5725">
        <ele>600</ele>
        <time>2022-02-15T08:44:17.000Z</time>
      </trkpt>
      <trkpt lat="43.53085" lon="5.5725">
        <ele>600</ele>
        <time>2022-02-15T08:44:18.000Z</time>
      </trkpt>
      <trkpt lat="43.53086" lon="5.57249">
        <ele>600</ele>
        <time>2022-02-15T08:44:19.000Z</time>
      </trkpt>
      <trkpt lat="43.53086" lon="5.57249">
        <ele>600</ele>
        <time>2022-02-15T08:44:20.000Z</time>
      </trkpt>
      <trkpt lat="43.53087" lon="5.57249">
        <ele>600</ele>
        <time>2022-02-15T08:44:21.000Z</time>
      </trkpt>
      <trkpt lat="43.53087" lon="5.57249">
        <ele>601</ele>
        <time>2022-02-15T08:44:22.000Z</time>
      </trkpt>
      <trkpt lat="43.53087" lon="5.57249">
        <ele>601</ele>
        <time>2022-02-15T08:44:23.000Z</time>
      </trkpt>
      <trkpt lat="43.53087" lon="5.57248">
        <ele>601</ele>
        <time>2022-02-15T08:44:24.000Z</time>
      </trkpt>
      <trkpt lat="43.53087" lon="5.57248">
        <ele>601</ele>
        <time>2022-02-15T08:44:25.000Z</time>
      </trkpt>
      <trkpt lat="43.53087" lon="5.57248">
        <ele>601</ele>
        <time>2022-02-15T08:44:26.000Z</time>
      </trkpt>
      <trkpt lat="43.53087" lon="5.57247">
        <ele>601</ele>
        <time>2022-02-15T08:44:27.000Z</time>
      </trkpt>
      <trkpt lat="43.53087" lon="5.57247">
        <ele>601</ele>
        <time>2022-02-15T08:44:28.000Z</time>
      </trkpt>
      <trkpt lat="43.53087" lon="5.57246">
        <ele>602</ele>
        <time>2022-02-15T08:44:29.000Z</time>
      </trkpt>
      <trkpt lat="43.53088" lon="5.57246">
        <ele>602</ele>
        <time>2022-02-15T08:44:30.000Z</time>
      </trkpt>
      <trkpt lat="43.53088" lon="5.57246">
        <ele>602</ele>
        <time>2022-02-15T08:44:31.000Z</time>
      </trkpt>
      <trkpt lat="43.53089" lon="5.57246">
        <ele>602</ele>
        <time>2022-02-15T08:44:32.000Z</time>
      </trkpt>
      <trkpt lat="43.53089" lon="5.57247">
        <ele>602</ele>
        <time>2022-02-15T08:44:33.000Z</time>
      </trkpt>
      <trkpt lat="43.53089" lon="5.57247">
        <ele>602</ele>
        <time>2022-02-15T08:44:34.000Z</time>
      </trkpt>
      <trkpt lat="43.5309" lon="5.57247">
        <ele>602</ele>
        <time>2022-02-15T08:44:35.000Z</time>
      </trkpt>
      <trkpt lat="43.5309" lon="5.57247">
        <ele>603</ele>
        <time>2022-02-15T08:44:36.000Z</time>
      </trkpt>
      <trkpt lat="43.5309" lon="5.57247">
        <ele>603</ele>
        <time>2022-02-15T08:44:37.000Z</time>
      </trkpt>
      <trkpt lat="43.5309" lon="5.57247">
        <ele>603</ele>
        <time>2022-02-15T08:44:38.000Z</time>
      </trkpt>
      <trkpt lat="43.53091" lon="5.57246">
        <ele>603</ele>
        <time>2022-02-15T08:44:39.000Z</time>
      </trkpt>
      <trkpt lat="43.53091" lon="5.57246">
        <ele>603</ele>
        <time>2022-02-15T08:44:40.000Z</time>
      </trkpt>
      <trkpt lat="43.53092" lon="5.57245">
        <ele>603</ele>
        <time>2022-02-15T08:44:41.000Z</time>
      </trkpt>
      <trkpt lat="43.53092" lon="5.57245">
        <ele>603</ele>
        <time>2022-02-15T08:44:42.000Z</time>
      </trkpt>
      <trkpt lat="43.53093" lon="5.57245">
        <ele>604</ele>
        <time>2022-02-15T08:44:43.000Z</time>
      </trkpt>
      <trkpt lat="43.53093" lon="5.57245">
        <ele>604</ele>
        <time>2022-02-15T08:44:44.000Z</time>
      </trkpt>
      <trkpt lat="43.53093" lon="5.57244">
        <ele>604</ele>
        <time>2022-02-15T08:44:45.000Z</time>
      </trkpt>
      <trkpt lat="43.53094" lon="5.57244">
        <ele>604</ele>
        <time>2022-02-15T08:44:46.000Z</time>
      </trkpt>
      <trkpt lat="43.53094" lon="5.57243">
        <ele>604</ele>
        <time>2022-02-15T08:44:47.000Z</time>
      </trkpt>
      <trkpt lat="43.53095" lon="5.57243">
        <ele>605</ele>
        <time>2022-02-15T08:44:48.000Z</time>
      </trkpt>
      <trkpt lat="43.53095" lon="5.57242">
        <ele>605</ele>
        <time>2022-02-15T08:44:49.000Z</time>
      </trkpt>
      <trkpt lat="43.53096" lon="5.57242">
        <ele>605</ele>
        <time>2022-02-15T08:44:50.000Z</time>
      </trkpt>
      <trkpt lat="43.53096" lon="5.57242">
        <ele>605</ele>
        <time>2022-02-15T08:44:51.000Z</time>
      </trkpt>
      <trkpt lat="43.53096" lon="5.57241">
        <ele>605</ele>
        <time>2022-02-15T08:44:52.000Z</time>
      </trkpt>
      <trkpt lat="43.53097" lon="5.57241">
        <ele>606</ele>
        <time>2022-02-15T08:44:53.000Z</time>
      </trkpt>
      <trkpt lat="43.53097" lon="5.5724">
        <ele>606</ele>
        <time>2022-02-15T08:44:54.000Z</time>
      </trkpt>
      <trkpt lat="43.53098" lon="5.5724">
        <ele>606</ele>
        <time>2022-02-15T08:44:55.000Z</time>
      </trkpt>
      <trkpt lat="43.53098" lon="5.57239">
        <ele>606</ele>
        <time>2022-02-15T08:44:56.000Z</time>
      </trkpt>
      <trkpt lat="43.53098" lon="5.57239">
        <ele>606</ele>
        <time>2022-02-15T08:44:57.000Z</time>
      </trkpt>
      <trkpt lat="43.53098" lon="5.57239">
        <ele>606</ele>
        <time>2022-02-15T08:44:58.000Z</time>
      </trkpt>
      <trkpt lat="43.53098" lon="5.57239">
        <ele>607</ele>
        <time>2022-02-15T08:44:59.000Z</time>
      </trkpt>
      <trkpt lat="43.53098" lon="5.57239">
        <ele>607</ele>
        <time>2022-02-15T08:45:00.000Z</time>
      </trkpt>
      <trkpt lat="43.53098" lon="5.57239">
        <ele>607</ele>
        <time>2022-02-15T08:45:01.000Z</time>
      </trkpt>
      <trkpt lat="43.53098" lon="5.57239">
        <ele>607</ele>
        <time>2022-02-15T08:45:02.000Z</time>
      </trkpt>
      <trkpt lat="43.53098" lon="5.57239">
        <ele>607</ele>
        <time>2022-02-15T08:45:03.000Z</time>
      </trkpt>
      <trkpt lat="43.53099" lon="5.57238">
        <ele>607</ele>
        <time>2022-02-15T08:45:04.000Z</time>
      </trkpt>
      <trkpt lat="43.53099" lon="5.57238">
        <ele>607</ele>
        <time>2022-02-15T08:45:05.000Z</time>
      </trkpt>
      <trkpt lat="43.531" lon="5.57238">
        <ele>607</ele>
        <time>2022-02-15T08:45:06.000Z</time>
      </trkpt>
      <trkpt lat="43.531" lon="5.57238">
        <ele>607</ele>
        <time>2022-02-15T08:45:07.000Z</time>
      </trkpt>
      <trkpt lat="43.531" lon="5.57237">
        <ele>608</ele>
        <time>2022-02-15T08:45:08.000Z</time>
      </trkpt>
      <trkpt lat="43.53101" lon="5.57237">
        <ele>608</ele>
        <time>2022-02-15T08:45:09.000Z</time>
      </trkpt>
      <trkpt lat="43.53101" lon="5.57236">
        <ele>608</ele>
        <time>2022-02-15T08:45:10.000Z</time>
      </trkpt>
      <trkpt lat="43.53101" lon="5.57235">
        <ele>608</ele>
        <time>2022-02-15T08:45:11.000Z</time>
      </trkpt>
      <trkpt lat="43.53102" lon="5.57235">
        <ele>608</ele>
        <time>2022-02-15T08:45:12.000Z</time>
      </trkpt>
      <trkpt lat="43.53102" lon="5.57235">
        <ele>608</ele>
        <time>2022-02-15T08:45:13.000Z</time>
      </trkpt>
      <trkpt lat="43.53103" lon="5.57235">
        <ele>608</ele>
        <time>2022-02-15T08:45:14.000Z</time>
      </trkpt>
      <trkpt lat="43.53103" lon="5.57234">
        <ele>609</ele>
        <time>2022-02-15T08:45:15.000Z</time>
      </trkpt>
      <trkpt lat="43.53103" lon="5.57234">
        <ele>609</ele>
        <time>2022-02-15T08:45:16.000Z</time>
      </trkpt>
      <trkpt lat="43.53103" lon="5.57233">
        <ele>609</ele>
        <time>2022-02-15T08:45:17.000Z</time>
      </trkpt>
      <trkpt lat="43.53103" lon="5.57232">
        <ele>609</ele>
        <time>2022-02-15T08:45:18.000Z</time>
      </trkpt>
      <trkpt lat="43.53103" lon="5.57231">
        <ele>609</ele>
        <time>2022-02-15T08:45:19.000Z</time>
      </trkpt>
      <trkpt lat="43.53103" lon="5.5723">
        <ele>609</ele>
        <time>2022-02-15T08:45:20.000Z</time>
      </trkpt>
      <trkpt lat="43.53103" lon="5.57229">
        <ele>609</ele>
        <time>2022-02-15T08:45:21.000Z</time>
      </trkpt>
      <trkpt lat="43.53103" lon="5.57229">
        <ele>609</ele>
        <time>2022-02-15T08:45:22.000Z</time>
      </trkpt>
      <trkpt lat="43.53104" lon="5.57228">
        <ele>609</ele>
        <time>2022-02-15T08:45:23.000Z</time>
      </trkpt>
      <trkpt lat="43.53104" lon="5.57228">
        <ele>609</ele>
        <time>2022-02-15T08:45:24.000Z</time>
      </trkpt>
      <trkpt lat="43.53105" lon="5.57228">
        <ele>609</ele>
        <time>2022-02-15T08:45:25.000Z</time>
      </trkpt>
      <trkpt lat="43.53105" lon="5.57227">
        <ele>609</ele>
        <time>2022-02-15T08:45:26.000Z</time>
      </trkpt>
      <trkpt lat="43.53106" lon="5.57227">
        <ele>609</ele>
        <time>2022-02-15T08:45:27.000Z</time>
      </trkpt>
      <trkpt lat="43.53106" lon="5.57227">
        <ele>609</ele>
        <time>2022-02-15T08:45:28.000Z</time>
      </trkpt>
      <trkpt lat="43.53107" lon="5.57227">
        <ele>609</ele>
        <time>2022-02-15T08:45:29.000Z</time>
      </trkpt>
      <trkpt lat="43.53107" lon="5.57227">
        <ele>609</ele>
        <time>2022-02-15T08:45:30.000Z</time>
      </trkpt>
      <trkpt lat="43.53107" lon="5.57226">
        <ele>610</ele>
        <time>2022-02-15T08:45:31.000Z</time>
      </trkpt>
      <trkpt lat="43.53108" lon="5.57227">
        <ele>610</ele>
        <time>2022-02-15T08:45:32.000Z</time>
      </trkpt>
      <trkpt lat="43.53108" lon="5.57226">
        <ele>610</ele>
        <time>2022-02-15T08:45:33.000Z</time>
      </trkpt>
      <trkpt lat="43.53108" lon="5.57226">
        <ele>610</ele>
        <time>2022-02-15T08:45:34.000Z</time>
      </trkpt>
      <trkpt lat="43.53108" lon="5.57225">
        <ele>610</ele>
        <time>2022-02-15T08:45:35.000Z</time>
      </trkpt>
      <trkpt lat="43.53109" lon="5.57225">
        <ele>610</ele>
        <time>2022-02-15T08:45:36.000Z</time>
      </trkpt>
      <trkpt lat="43.53109" lon="5.57225">
        <ele>610</ele>
        <time>2022-02-15T08:45:37.000Z</time>
      </trkpt>
      <trkpt lat="43.5311" lon="5.57225">
        <ele>610</ele>
        <time>2022-02-15T08:45:38.000Z</time>
      </trkpt>
      <trkpt lat="43.5311" lon="5.57224">
        <ele>610</ele>
        <time>2022-02-15T08:45:39.000Z</time>
      </trkpt>
      <trkpt lat="43.5311" lon="5.57224">
        <ele>611</ele>
        <time>2022-02-15T08:45:40.000Z</time>
      </trkpt>
      <trkpt lat="43.5311" lon="5.57224">
        <ele>611</ele>
        <time>2022-02-15T08:45:41.000Z</time>
      </trkpt>
      <trkpt lat="43.5311" lon="5.57224">
        <ele>611</ele>
        <time>2022-02-15T08:45:42.000Z</time>
      </trkpt>
      <trkpt lat="43.5311" lon="5.57224">
        <ele>611</ele>
        <time>2022-02-15T08:45:43.000Z</time>
      </trkpt>
      <trkpt lat="43.5311" lon="5.57224">
        <ele>611</ele>
        <time>2022-02-15T08:45:44.000Z</time>
      </trkpt>
      <trkpt lat="43.5311" lon="5.57224">
        <ele>611</ele>
        <time>2022-02-15T08:45:45.000Z</time>
      </trkpt>
      <trkpt lat="43.5311" lon="5.57224">
        <ele>611</ele>
        <time>2022-02-15T08:45:46.000Z</time>
      </trkpt>
      <trkpt lat="43.5311" lon="5.57224">
        <ele>611</ele>
        <time>2022-02-15T08:45:47.000Z</time>
      </trkpt>
      <trkpt lat="43.5311" lon="5.57224">
        <ele>611</ele>
        <time>2022-02-15T08:45:48.000Z</time>
      </trkpt>
      <trkpt lat="43.5311" lon="5.57224">
        <ele>611</ele>
        <time>2022-02-15T08:45:49.000Z</time>
      </trkpt>
      <trkpt lat="43.5311" lon="5.57224">
        <ele>611</ele>
        <time>2022-02-15T08:45:50.000Z</time>
      </trkpt>
      <trkpt lat="43.5311" lon="5.57224">
        <ele>611</ele>
        <time>2022-02-15T08:45:51.000Z</time>
      </trkpt>
      <trkpt lat="43.5311" lon="5.57224">
        <ele>611</ele>
        <time>2022-02-15T08:45:52.000Z</time>
      </trkpt>
      <trkpt lat="43.5311" lon="5.57223">
        <ele>611</ele>
        <time>2022-02-15T08:45:53.000Z</time>
      </trkpt>
      <trkpt lat="43.5311" lon="5.57223">
        <ele>611</ele>
        <time>2022-02-15T08:45:54.000Z</time>
      </trkpt>
      <trkpt lat="43.5311" lon="5.57223">
        <ele>611</ele>
        <time>2022-02-15T08:45:55.000Z</time>
      </trkpt>
      <trkpt lat="43.53111" lon="5.57222">
        <ele>611</ele>
        <time>2022-02-15T08:45:56.000Z</time>
      </trkpt>
      <trkpt lat="43.53111" lon="5.57222">
        <ele>612</ele>
        <time>2022-02-15T08:45:57.000Z</time>
      </trkpt>
      <trkpt lat="43.53111" lon="5.57222">
        <ele>612</ele>
        <time>2022-02-15T08:45:58.000Z</time>
      </trkpt>
      <trkpt lat="43.53112" lon="5.57221">
        <ele>612</ele>
        <time>2022-02-15T08:45:59.000Z</time>
      </trkpt>
      <trkpt lat="43.53112" lon="5.57221">
        <ele>612</ele>
        <time>2022-02-15T08:46:00.000Z</time>
      </trkpt>
      <trkpt lat="43.53112" lon="5.57221">
        <ele>612</ele>
        <time>2022-02-15T08:46:01.000Z</time>
      </trkpt>
      <trkpt lat="43.53112" lon="5.57221">
        <ele>612</ele>
        <time>2022-02-15T08:46:02.000Z</time>
      </trkpt>
      <trkpt lat="43.53112" lon="5.57221">
        <ele>612</ele>
        <time>2022-02-15T08:46:03.000Z</time>
      </trkpt>
      <trkpt lat="43.53112" lon="5.57221">
        <ele>612</ele>
        <time>2022-02-15T08:46:04.000Z</time>
      </trkpt>
      <trkpt lat="43.53112" lon="5.57221">
        <ele>612</ele>
        <time>2022-02-15T08:46:05.000Z</time>
      </trkpt>
      <trkpt lat="43.53112" lon="5.57221">
        <ele>612</ele>
        <time>2022-02-15T08:46:06.000Z</time>
      </trkpt>
      <trkpt lat="43.53113" lon="5.57221">
        <ele>612</ele>
        <time>2022-02-15T08:46:07.000Z</time>
      </trkpt>
      <trkpt lat="43.53113" lon="5.57221">
        <ele>612</ele>
        <time>2022-02-15T08:46:08.000Z</time>
      </trkpt>
      <trkpt lat="43.53114" lon="5.57221">
        <ele>613</ele>
        <time>2022-02-15T08:46:09.000Z</time>
      </trkpt>
      <trkpt lat="43.53114" lon="5.57221">
        <ele>613</ele>
        <time>2022-02-15T08:46:10.000Z</time>
      </trkpt>
      <trkpt lat="43.53114" lon="5.57221">
        <ele>613</ele>
        <time>2022-02-15T08:46:11.000Z</time>
      </trkpt>
      <trkpt lat="43.53114" lon="5.57221">
        <ele>613</ele>
        <time>2022-02-15T08:46:12.000Z</time>
      </trkpt>
      <trkpt lat="43.53114" lon="5.57221">
        <ele>613</ele>
        <time>2022-02-15T08:46:13.000Z</time>
      </trkpt>
      <trkpt lat="43.53114" lon="5.57221">
        <ele>613</ele>
        <time>2022-02-15T08:46:14.000Z</time>
      </trkpt>
      <trkpt lat="43.53114" lon="5.57221">
        <ele>613</ele>
        <time>2022-02-15T08:46:15.000Z</time>
      </trkpt>
      <trkpt lat="43.53114" lon="5.57221">
        <ele>613</ele>
        <time>2022-02-15T08:46:16.000Z</time>
      </trkpt>
      <trkpt lat="43.53114" lon="5.57221">
        <ele>613</ele>
        <time>2022-02-15T08:46:17.000Z</time>
      </trkpt>
      <trkpt lat="43.53114" lon="5.57221">
        <ele>613</ele>
        <time>2022-02-15T08:46:18.000Z</time>
      </trkpt>
      <trkpt lat="43.53114" lon="5.57221">
        <ele>613</ele>
        <time>2022-02-15T08:46:19.000Z</time>
      </trkpt>
      <trkpt lat="43.53114" lon="5.57221">
        <ele>613</ele>
        <time>2022-02-15T08:46:20.000Z</time>
      </trkpt>
      <trkpt lat="43.53114" lon="5.5722">
        <ele>613</ele>
        <time>2022-02-15T08:46:21.000Z</time>
      </trkpt>
      <trkpt lat="43.53114" lon="5.5722">
        <ele>614</ele>
        <time>2022-02-15T08:46:22.000Z</time>
      </trkpt>
      <trkpt lat="43.53114" lon="5.5722">
        <ele>614</ele>
        <time>2022-02-15T08:46:23.000Z</time>
      </trkpt>
      <trkpt lat="43.53114" lon="5.5722">
        <ele>614</ele>
        <time>2022-02-15T08:46:24.000Z</time>
      </trkpt>
      <trkpt lat="43.53114" lon="5.5722">
        <ele>614</ele>
        <time>2022-02-15T08:46:25.000Z</time>
      </trkpt>
      <trkpt lat="43.53114" lon="5.57221">
        <ele>614</ele>
        <time>2022-02-15T08:46:26.000Z</time>
      </trkpt>
      <trkpt lat="43.53114" lon="5.5722">
        <ele>614</ele>
        <time>2022-02-15T08:46:27.000Z</time>
      </trkpt>
      <trkpt lat="43.53114" lon="5.5722">
        <ele>614</ele>
        <time>2022-02-15T08:46:28.000Z</time>
      </trkpt>
      <trkpt lat="43.53114" lon="5.5722">
        <ele>614</ele>
        <time>2022-02-15T08:46:29.000Z</time>
      </trkpt>
      <trkpt lat="43.53114" lon="5.5722">
        <ele>614</ele>
        <time>2022-02-15T08:46:30.000Z</time>
      </trkpt>
      <trkpt lat="43.53114" lon="5.5722">
        <ele>614</ele>
        <time>2022-02-15T08:46:31.000Z</time>
      </trkpt>
      <trkpt lat="43.53114" lon="5.5722">
        <ele>614</ele>
        <time>2022-02-15T08:46:32.000Z</time>
      </trkpt>
      <trkpt lat="43.53114" lon="5.5722">
        <ele>614</ele>
        <time>2022-02-15T08:46:33.000Z</time>
      </trkpt>
      <trkpt lat="43.53114" lon="5.5722">
        <ele>614</ele>
        <time>2022-02-15T08:46:34.000Z</time>
      </trkpt>
      <trkpt lat="43.53114" lon="5.5722">
        <ele>614</ele>
        <time>2022-02-15T08:46:35.000Z</time>
      </trkpt>
      <trkpt lat="43.53114" lon="5.5722">
        <ele>614</ele>
        <time>2022-02-15T08:46:36.000Z</time>
      </trkpt>
      <trkpt lat="43.53114" lon="5.5722">
        <ele>614</ele>
        <time>2022-02-15T08:46:37.000Z</time>
      </trkpt>
      <trkpt lat="43.53114" lon="5.5722">
        <ele>614</ele>
        <time>2022-02-15T08:46:38.000Z</time>
      </trkpt>
      <trkpt lat="43.53114" lon="5.5722">
        <ele>614</ele>
        <time>2022-02-15T08:46:39.000Z</time>
      </trkpt>
      <trkpt lat="43.53114" lon="5.5722">
        <ele>614</ele>
        <time>2022-02-15T08:46:40.000Z</time>
      </trkpt>
      <trkpt lat="43.53114" lon="5.5722">
        <ele>614</ele>
        <time>2022-02-15T08:46:41.000Z</time>
      </trkpt>
      <trkpt lat="43.53114" lon="5.5722">
        <ele>614</ele>
        <time>2022-02-15T08:46:42.000Z</time>
      </trkpt>
      <trkpt lat="43.53114" lon="5.5722">
        <ele>614</ele>
        <time>2022-02-15T08:46:43.000Z</time>
      </trkpt>
      <trkpt lat="43.53114" lon="5.5722">
        <ele>614</ele>
        <time>2022-02-15T08:46:44.000Z</time>
      </trkpt>
      <trkpt lat="43.53114" lon="5.5722">
        <ele>614</ele>
        <time>2022-02-15T08:46:45.000Z</time>
      </trkpt>
      <trkpt lat="43.53114" lon="5.5722">
        <ele>614</ele>
        <time>2022-02-15T08:46:46.000Z</time>
      </trkpt>
      <trkpt lat="43.53114" lon="5.5722">
        <ele>614</ele>
        <time>2022-02-15T08:46:47.000Z</time>
      </trkpt>
      <trkpt lat="43.53114" lon="5.5722">
        <ele>614</ele>
        <time>2022-02-15T08:46:48.000Z</time>
      </trkpt>
      <trkpt lat="43.53114" lon="5.5722">
        <ele>614</ele>
        <time>2022-02-15T08:46:49.000Z</time>
      </trkpt>
      <trkpt lat="43.53114" lon="5.5722">
        <ele>614</ele>
        <time>2022-02-15T08:46:50.000Z</time>
      </trkpt>
      <trkpt lat="43.53114" lon="5.5722">
        <ele>614</ele>
        <time>2022-02-15T08:46:51.000Z</time>
      </trkpt>
      <trkpt lat="43.53114" lon="5.5722">
        <ele>614</ele>
        <time>2022-02-15T08:46:52.000Z</time>
      </trkpt>
      <trkpt lat="43.53114" lon="5.5722">
        <ele>614</ele>
        <time>2022-02-15T08:46:53.000Z</time>
      </trkpt>
      <trkpt lat="43.53114" lon="5.5722">
        <ele>614</ele>
        <time>2022-02-15T08:46:54.000Z</time>
      </trkpt>
      <trkpt lat="43.53114" lon="5.5722">
        <ele>614</ele>
        <time>2022-02-15T08:46:55.000Z</time>
      </trkpt>
      <trkpt lat="43.53114" lon="5.57219">
        <ele>614</ele>
        <time>2022-02-15T08:46:56.000Z</time>
      </trkpt>
      <trkpt lat="43.53114" lon="5.57219">
        <ele>614</ele>
        <time>2022-02-15T08:46:57.000Z</time>
      </trkpt>
      <trkpt lat="43.53114" lon="5.57219">
        <ele>614</ele>
        <time>2022-02-15T08:46:58.000Z</time>
      </trkpt>
      <trkpt lat="43.53114" lon="5.57219">
        <ele>614</ele>
        <time>2022-02-15T08:46:59.000Z</time>
      </trkpt>
      <trkpt lat="43.53114" lon="5.57219">
        <ele>614</ele>
        <time>2022-02-15T08:47:00.000Z</time>
      </trkpt>
      <trkpt lat="43.53114" lon="5.57219">
        <ele>614</ele>
        <time>2022-02-15T08:47:01.000Z</time>
      </trkpt>
      <trkpt lat="43.53114" lon="5.57219">
        <ele>614</ele>
        <time>2022-02-15T08:47:02.000Z</time>
      </trkpt>
      <trkpt lat="43.53114" lon="5.57219">
        <ele>614</ele>
        <time>2022-02-15T08:47:03.000Z</time>
      </trkpt>
      <trkpt lat="43.53114" lon="5.57219">
        <ele>614</ele>
        <time>2022-02-15T08:47:04.000Z</time>
      </trkpt>
      <trkpt lat="43.53114" lon="5.57219">
        <ele>614</ele>
        <time>2022-02-15T08:47:05.000Z</time>
      </trkpt>
      <trkpt lat="43.53114" lon="5.57219">
        <ele>614</ele>
        <time>2022-02-15T08:47:06.000Z</time>
      </trkpt>
      <trkpt lat="43.53114" lon="5.57219">
        <ele>614</ele>
        <time>2022-02-15T08:47:07.000Z</time>
      </trkpt>
      <trkpt lat="43.53114" lon="5.57219">
        <ele>614</ele>
        <time>2022-02-15T08:47:08.000Z</time>
      </trkpt>
      <trkpt lat="43.53114" lon="5.57219">
        <ele>614</ele>
        <time>2022-02-15T08:47:09.000Z</time>
      </trkpt>
      <trkpt lat="43.53114" lon="5.57219">
        <ele>614</ele>
        <time>2022-02-15T08:47:10.000Z</time>
      </trkpt>
      <trkpt lat="43.53114" lon="5.57219">
        <ele>614</ele>
        <time>2022-02-15T08:47:11.000Z</time>
      </trkpt>
      <trkpt lat="43.53114" lon="5.57219">
        <ele>614</ele>
        <time>2022-02-15T08:47:12.000Z</time>
      </trkpt>
      <trkpt lat="43.53114" lon="5.57219">
        <ele>614</ele>
        <time>2022-02-15T08:47:13.000Z</time>
      </trkpt>
      <trkpt lat="43.53114" lon="5.57219">
        <ele>614</ele>
        <time>2022-02-15T08:47:14.000Z</time>
      </trkpt>
      <trkpt lat="43.53114" lon="5.57219">
        <ele>614</ele>
        <time>2022-02-15T08:47:15.000Z</time>
      </trkpt>
      <trkpt lat="43.53114" lon="5.57219">
        <ele>614</ele>
        <time>2022-02-15T08:47:16.000Z</time>
      </trkpt>
      <trkpt lat="43.53114" lon="5.57219">
        <ele>615</ele>
        <time>2022-02-15T08:47:17.000Z</time>
      </trkpt>
      <trkpt lat="43.53114" lon="5.57219">
        <ele>615</ele>
        <time>2022-02-15T08:47:18.000Z</time>
      </trkpt>
      <trkpt lat="43.53114" lon="5.57219">
        <ele>615</ele>
        <time>2022-02-15T08:47:19.000Z</time>
      </trkpt>
      <trkpt lat="43.53114" lon="5.57219">
        <ele>615</ele>
        <time>2022-02-15T08:47:20.000Z</time>
      </trkpt>
      <trkpt lat="43.53114" lon="5.57219">
        <ele>615</ele>
        <time>2022-02-15T08:47:21.000Z</time>
      </trkpt>
      <trkpt lat="43.53114" lon="5.57219">
        <ele>615</ele>
        <time>2022-02-15T08:47:22.000Z</time>
      </trkpt>
      <trkpt lat="43.53114" lon="5.57219">
        <ele>615</ele>
        <time>2022-02-15T08:47:23.000Z</time>
      </trkpt>
      <trkpt lat="43.53114" lon="5.57219">
        <ele>615</ele>
        <time>2022-02-15T08:47:24.000Z</time>
      </trkpt>
      <trkpt lat="43.53114" lon="5.57219">
        <ele>615</ele>
        <time>2022-02-15T08:47:25.000Z</time>
      </trkpt>
      <trkpt lat="43.53114" lon="5.57219">
        <ele>615</ele>
        <time>2022-02-15T08:47:26.000Z</time>
      </trkpt>
      <trkpt lat="43.53114" lon="5.57219">
        <ele>615</ele>
        <time>2022-02-15T08:47:27.000Z</time>
      </trkpt>
      <trkpt lat="43.53114" lon="5.57219">
        <ele>615</ele>
        <time>2022-02-15T08:47:28.000Z</time>
      </trkpt>
      <trkpt lat="43.53114" lon="5.57219">
        <ele>615</ele>
        <time>2022-02-15T08:47:29.000Z</time>
      </trkpt>
      <trkpt lat="43.53114" lon="5.57219">
        <ele>615</ele>
        <time>2022-02-15T08:47:30.000Z</time>
      </trkpt>
      <trkpt lat="43.53114" lon="5.57219">
        <ele>615</ele>
        <time>2022-02-15T08:47:31.000Z</time>
      </trkpt>
      <trkpt lat="43.53114" lon="5.57219">
        <ele>615</ele>
        <time>2022-02-15T08:47:32.000Z</time>
      </trkpt>
      <trkpt lat="43.53114" lon="5.57219">
        <ele>615</ele>
        <time>2022-02-15T08:47:33.000Z</time>
      </trkpt>
      <trkpt lat="43.53114" lon="5.57219">
        <ele>615</ele>
        <time>2022-02-15T08:47:34.000Z</time>
      </trkpt>
      <trkpt lat="43.53114" lon="5.57219">
        <ele>615</ele>
        <time>2022-02-15T08:47:35.000Z</time>
      </trkpt>
      <trkpt lat="43.53114" lon="5.57219">
        <ele>615</ele>
        <time>2022-02-15T08:47:36.000Z</time>
      </trkpt>
      <trkpt lat="43.53114" lon="5.57219">
        <ele>615</ele>
        <time>2022-02-15T08:47:37.000Z</time>
      </trkpt>
      <trkpt lat="43.53114" lon="5.57219">
        <ele>615</ele>
        <time>2022-02-15T08:47:38.000Z</time>
      </trkpt>
      <trkpt lat="43.53114" lon="5.57219">
        <ele>615</ele>
        <time>2022-02-15T08:47:39.000Z</time>
      </trkpt>
      <trkpt lat="43.53114" lon="5.57219">
        <ele>615</ele>
        <time>2022-02-15T08:47:40.000Z</time>
      </trkpt>
      <trkpt lat="43.53114" lon="5.57219">
        <ele>615</ele>
        <time>2022-02-15T08:47:41.000Z</time>
      </trkpt>
      <trkpt lat="43.53114" lon="5.57219">
        <ele>615</ele>
        <time>2022-02-15T08:47:42.000Z</time>
      </trkpt>
      <trkpt lat="43.53114" lon="5.57219">
        <ele>615</ele>
        <time>2022-02-15T08:47:43.000Z</time>
      </trkpt>
      <trkpt lat="43.53114" lon="5.57219">
        <ele>615</ele>
        <time>2022-02-15T08:47:44.000Z</time>
      </trkpt>
      <trkpt lat="43.53114" lon="5.57219">
        <ele>615</ele>
        <time>2022-02-15T08:47:45.000Z</time>
      </trkpt>
      <trkpt lat="43.53114" lon="5.57219">
        <ele>615</ele>
        <time>2022-02-15T08:47:46.000Z</time>
      </trkpt>
      <trkpt lat="43.53114" lon="5.57219">
        <ele>615</ele>
        <time>2022-02-15T08:47:47.000Z</time>
      </trkpt>
      <trkpt lat="43.53114" lon="5.57219">
        <ele>615</ele>
        <time>2022-02-15T08:47:48.000Z</time>
      </trkpt>
      <trkpt lat="43.53114" lon="5.57219">
        <ele>615</ele>
        <time>2022-02-15T08:47:49.000Z</time>
      </trkpt>
      <trkpt lat="43.53114" lon="5.57219">
        <ele>615</ele>
        <time>2022-02-15T08:47:50.000Z</time>
      </trkpt>
      <trkpt lat="43.53114" lon="5.57219">
        <ele>615</ele>
        <time>2022-02-15T08:47:51.000Z</time>
      </trkpt>
      <trkpt lat="43.53114" lon="5.57219">
        <ele>615</ele>
        <time>2022-02-15T08:47:52.000Z</time>
      </trkpt>
      <trkpt lat="43.53114" lon="5.57219">
        <ele>615</ele>
        <time>2022-02-15T08:47:53.000Z</time>
      </trkpt>
      <trkpt lat="43.53114" lon="5.57219">
        <ele>615</ele>
        <time>2022-02-15T08:47:54.000Z</time>
      </trkpt>
      <trkpt lat="43.53114" lon="5.57219">
        <ele>615</ele>
        <time>2022-02-15T08:47:55.000Z</time>
      </trkpt>
      <trkpt lat="43.53114" lon="5.57219">
        <ele>615</ele>
        <time>2022-02-15T08:47:56.000Z</time>
      </trkpt>
      <trkpt lat="43.53114" lon="5.57219">
        <ele>615</ele>
        <time>2022-02-15T08:47:57.000Z</time>
      </trkpt>
      <trkpt lat="43.53114" lon="5.57219">
        <ele>615</ele>
        <time>2022-02-15T08:47:58.000Z</time>
      </trkpt>
      <trkpt lat="43.53114" lon="5.57219">
        <ele>615</ele>
        <time>2022-02-15T08:47:59.000Z</time>
      </trkpt>
      <trkpt lat="43.53114" lon="5.57219">
        <ele>615</ele>
        <time>2022-02-15T08:48:00.000Z</time>
      </trkpt>
      <trkpt lat="43.53114" lon="5.57219">
        <ele>615</ele>
        <time>2022-02-15T08:48:01.000Z</time>
      </trkpt>
      <trkpt lat="43.53114" lon="5.57219">
        <ele>615</ele>
        <time>2022-02-15T08:48:02.000Z</time>
      </trkpt>
      <trkpt lat="43.53114" lon="5.57219">
        <ele>615</ele>
        <time>2022-02-15T08:48:03.000Z</time>
      </trkpt>
      <trkpt lat="43.53114" lon="5.57219">
        <ele>615</ele>
        <time>2022-02-15T08:48:04.000Z</time>
      </trkpt>
      <trkpt lat="43.53114" lon="5.57219">
        <ele>615</ele>
        <time>2022-02-15T08:48:05.000Z</time>
      </trkpt>
      <trkpt lat="43.53114" lon="5.57219">
        <ele>615</ele>
        <time>2022-02-15T08:48:06.000Z</time>
      </trkpt>
      <trkpt lat="43.53114" lon="5.57219">
        <ele>615</ele>
        <time>2022-02-15T08:48:07.000Z</time>
      </trkpt>
      <trkpt lat="43.53114" lon="5.57219">
        <ele>615</ele>
        <time>2022-02-15T08:48:08.000Z</time>
      </trkpt>
      <trkpt lat="43.53114" lon="5.57219">
        <ele>615</ele>
        <time>2022-02-15T08:48:09.000Z</time>
      </trkpt>
      <trkpt lat="43.53114" lon="5.57219">
        <ele>615</ele>
        <time>2022-02-15T08:48:10.000Z</time>
      </trkpt>
      <trkpt lat="43.53114" lon="5.57219">
        <ele>615</ele>
        <time>2022-02-15T08:48:11.000Z</time>
      </trkpt>
      <trkpt lat="43.53114" lon="5.57219">
        <ele>615</ele>
        <time>2022-02-15T08:48:12.000Z</time>
      </trkpt>
      <trkpt lat="43.53114" lon="5.57219">
        <ele>615</ele>
        <time>2022-02-15T08:48:13.000Z</time>
      </trkpt>
      <trkpt lat="43.53114" lon="5.57219">
        <ele>615</ele>
        <time>2022-02-15T08:48:14.000Z</time>
      </trkpt>
      <trkpt lat="43.53114" lon="5.57219">
        <ele>615</ele>
        <time>2022-02-15T08:48:15.000Z</time>
      </trkpt>
      <trkpt lat="43.53114" lon="5.57219">
        <ele>615</ele>
        <time>2022-02-15T08:48:16.000Z</time>
      </trkpt>
      <trkpt lat="43.53114" lon="5.57219">
        <ele>615</ele>
        <time>2022-02-15T08:48:17.000Z</time>
      </trkpt>
      <trkpt lat="43.53114" lon="5.57219">
        <ele>615</ele>
        <time>2022-02-15T08:48:18.000Z</time>
      </trkpt>
      <trkpt lat="43.53114" lon="5.57219">
        <ele>615</ele>
        <time>2022-02-15T08:48:19.000Z</time>
      </trkpt>
      <trkpt lat="43.53114" lon="5.57219">
        <ele>615</ele>
        <time>2022-02-15T08:48:20.000Z</time>
      </trkpt>
      <trkpt lat="43.53114" lon="5.57219">
        <ele>615</ele>
        <time>2022-02-15T08:48:21.000Z</time>
      </trkpt>
      <trkpt lat="43.53114" lon="5.5722">
        <ele>615</ele>
        <time>2022-02-15T08:48:22.000Z</time>
      </trkpt>
      <trkpt lat="43.53114" lon="5.5722">
        <ele>615</ele>
        <time>2022-02-15T08:48:23.000Z</time>
      </trkpt>
      <trkpt lat="43.53114" lon="5.5722">
        <ele>615</ele>
        <time>2022-02-15T08:48:24.000Z</time>
      </trkpt>
      <trkpt lat="43.53114" lon="5.5722">
        <ele>615</ele>
        <time>2022-02-15T08:48:25.000Z</time>
      </trkpt>
      <trkpt lat="43.53114" lon="5.5722">
        <ele>615</ele>
        <time>2022-02-15T08:48:26.000Z</time>
      </trkpt>
      <trkpt lat="43.53114" lon="5.57219">
        <ele>615</ele>
        <time>2022-02-15T08:48:27.000Z</time>
      </trkpt>
      <trkpt lat="43.53114" lon="5.57219">
        <ele>615</ele>
        <time>2022-02-15T08:48:28.000Z</time>
      </trkpt>
      <trkpt lat="43.53113" lon="5.57219">
        <ele>615</ele>
        <time>2022-02-15T08:48:29.000Z</time>
      </trkpt>
      <trkpt lat="43.53113" lon="5.57219">
        <ele>615</ele>
        <time>2022-02-15T08:48:30.000Z</time>
      </trkpt>
      <trkpt lat="43.53113" lon="5.57219">
        <ele>615</ele>
        <time>2022-02-15T08:48:31.000Z</time>
      </trkpt>
      <trkpt lat="43.53113" lon="5.57219">
        <ele>615</ele>
        <time>2022-02-15T08:48:32.000Z</time>
      </trkpt>
      <trkpt lat="43.53113" lon="5.57219">
        <ele>615</ele>
        <time>2022-02-15T08:48:33.000Z</time>
      </trkpt>
      <trkpt lat="43.53113" lon="5.57219">
        <ele>615</ele>
        <time>2022-02-15T08:48:34.000Z</time>
      </trkpt>
      <trkpt lat="43.53113" lon="5.57219">
        <ele>615</ele>
        <time>2022-02-15T08:48:35.000Z</time>
      </trkpt>
      <trkpt lat="43.53113" lon="5.57219">
        <ele>615</ele>
        <time>2022-02-15T08:48:36.000Z</time>
      </trkpt>
      <trkpt lat="43.53114" lon="5.57219">
        <ele>615</ele>
        <time>2022-02-15T08:48:37.000Z</time>
      </trkpt>
      <trkpt lat="43.53114" lon="5.57219">
        <ele>615</ele>
        <time>2022-02-15T08:48:38.000Z</time>
      </trkpt>
      <trkpt lat="43.53114" lon="5.57219">
        <ele>615</ele>
        <time>2022-02-15T08:48:39.000Z</time>
      </trkpt>
      <trkpt lat="43.53114" lon="5.57219">
        <ele>615</ele>
        <time>2022-02-15T08:48:40.000Z</time>
      </trkpt>
      <trkpt lat="43.53114" lon="5.57219">
        <ele>615</ele>
        <time>2022-02-15T08:48:41.000Z</time>
      </trkpt>
      <trkpt lat="43.53114" lon="5.57219">
        <ele>615</ele>
        <time>2022-02-15T08:48:42.000Z</time>
      </trkpt>
      <trkpt lat="43.53114" lon="5.57219">
        <ele>615</ele>
        <time>2022-02-15T08:48:43.000Z</time>
      </trkpt>
      <trkpt lat="43.53114" lon="5.57219">
        <ele>615</ele>
        <time>2022-02-15T08:48:44.000Z</time>
      </trkpt>
      <trkpt lat="43.53114" lon="5.57219">
        <ele>615</ele>
        <time>2022-02-15T08:48:45.000Z</time>
      </trkpt>
      <trkpt lat="43.53114" lon="5.57219">
        <ele>615</ele>
        <time>2022-02-15T08:48:46.000Z</time>
      </trkpt>
      <trkpt lat="43.53114" lon="5.57219">
        <ele>615</ele>
        <time>2022-02-15T08:48:47.000Z</time>
      </trkpt>
      <trkpt lat="43.53114" lon="5.57219">
        <ele>615</ele>
        <time>2022-02-15T08:48:48.000Z</time>
      </trkpt>
      <trkpt lat="43.53114" lon="5.57219">
        <ele>616</ele>
        <time>2022-02-15T08:48:49.000Z</time>
      </trkpt>
      <trkpt lat="43.53114" lon="5.57219">
        <ele>616</ele>
        <time>2022-02-15T08:48:50.000Z</time>
      </trkpt>
      <trkpt lat="43.53114" lon="5.57219">
        <ele>616</ele>
        <time>2022-02-15T08:48:51.000Z</time>
      </trkpt>
      <trkpt lat="43.53114" lon="5.57219">
        <ele>616</ele>
        <time>2022-02-15T08:48:52.000Z</time>
      </trkpt>
      <trkpt lat="43.53114" lon="5.57219">
        <ele>616</ele>
        <time>2022-02-15T08:48:53.000Z</time>
      </trkpt>
      <trkpt lat="43.53114" lon="5.57219">
        <ele>616</ele>
        <time>2022-02-15T08:48:54.000Z</time>
      </trkpt>
      <trkpt lat="43.53114" lon="5.57219">
        <ele>616</ele>
        <time>2022-02-15T08:48:55.000Z</time>
      </trkpt>
      <trkpt lat="43.53114" lon="5.57219">
        <ele>616</ele>
        <time>2022-02-15T08:48:56.000Z</time>
      </trkpt>
      <trkpt lat="43.53114" lon="5.57219">
        <ele>616</ele>
        <time>2022-02-15T08:48:57.000Z</time>
      </trkpt>
      <trkpt lat="43.53114" lon="5.57219">
        <ele>616</ele>
        <time>2022-02-15T08:48:58.000Z</time>
      </trkpt>
      <trkpt lat="43.53114" lon="5.57219">
        <ele>616</ele>
        <time>2022-02-15T08:48:59.000Z</time>
      </trkpt>
      <trkpt lat="43.53114" lon="5.57219">
        <ele>616</ele>
        <time>2022-02-15T08:49:00.000Z</time>
      </trkpt>
      <trkpt lat="43.53114" lon="5.57219">
        <ele>616</ele>
        <time>2022-02-15T08:49:01.000Z</time>
      </trkpt>
      <trkpt lat="43.53114" lon="5.57219">
        <ele>616</ele>
        <time>2022-02-15T08:49:02.000Z</time>
      </trkpt>
      <trkpt lat="43.53114" lon="5.57219">
        <ele>616</ele>
        <time>2022-02-15T08:49:03.000Z</time>
      </trkpt>
      <trkpt lat="43.53114" lon="5.57219">
        <ele>616</ele>
        <time>2022-02-15T08:49:04.000Z</time>
      </trkpt>
      <trkpt lat="43.53114" lon="5.57219">
        <ele>616</ele>
        <time>2022-02-15T08:49:05.000Z</time>
      </trkpt>
      <trkpt lat="43.53114" lon="5.57219">
        <ele>616</ele>
        <time>2022-02-15T08:49:06.000Z</time>
      </trkpt>
      <trkpt lat="43.53114" lon="5.57219">
        <ele>616</ele>
        <time>2022-02-15T08:49:07.000Z</time>
      </trkpt>
      <trkpt lat="43.53114" lon="5.57218">
        <ele>616</ele>
        <time>2022-02-15T08:49:08.000Z</time>
      </trkpt>
      <trkpt lat="43.53114" lon="5.57218">
        <ele>616</ele>
        <time>2022-02-15T08:49:09.000Z</time>
      </trkpt>
      <trkpt lat="43.53114" lon="5.57218">
        <ele>616</ele>
        <time>2022-02-15T08:49:10.000Z</time>
      </trkpt>
      <trkpt lat="43.53114" lon="5.57219">
        <ele>616</ele>
        <time>2022-02-15T08:49:11.000Z</time>
      </trkpt>
      <trkpt lat="43.53114" lon="5.57219">
        <ele>616</ele>
        <time>2022-02-15T08:49:12.000Z</time>
      </trkpt>
      <trkpt lat="43.53114" lon="5.57219">
        <ele>616</ele>
        <time>2022-02-15T08:49:13.000Z</time>
      </trkpt>
      <trkpt lat="43.53114" lon="5.57218">
        <ele>616</ele>
        <time>2022-02-15T08:49:14.000Z</time>
      </trkpt>
      <trkpt lat="43.53114" lon="5.57219">
        <ele>616</ele>
        <time>2022-02-15T08:49:15.000Z</time>
      </trkpt>
      <trkpt lat="43.53114" lon="5.57219">
        <ele>616</ele>
        <time>2022-02-15T08:49:16.000Z</time>
      </trkpt>
      <trkpt lat="43.53114" lon="5.57219">
        <ele>616</ele>
        <time>2022-02-15T08:49:17.000Z</time>
      </trkpt>
      <trkpt lat="43.53114" lon="5.57219">
        <ele>616</ele>
        <time>2022-02-15T08:49:18.000Z</time>
      </trkpt>
      <trkpt lat="43.53114" lon="5.57219">
        <ele>616</ele>
        <time>2022-02-15T08:49:19.000Z</time>
      </trkpt>
      <trkpt lat="43.53114" lon="5.57219">
        <ele>616</ele>
        <time>2022-02-15T08:49:20.000Z</time>
      </trkpt>
      <trkpt lat="43.53114" lon="5.57219">
        <ele>616</ele>
        <time>2022-02-15T08:49:21.000Z</time>
      </trkpt>
      <trkpt lat="43.53114" lon="5.57219">
        <ele>616</ele>
        <time>2022-02-15T08:49:22.000Z</time>
      </trkpt>
      <trkpt lat="43.53114" lon="5.57219">
        <ele>616</ele>
        <time>2022-02-15T08:49:23.000Z</time>
      </trkpt>
      <trkpt lat="43.53114" lon="5.57219">
        <ele>616</ele>
        <time>2022-02-15T08:49:24.000Z</time>
      </trkpt>
      <trkpt lat="43.53114" lon="5.57219">
        <ele>616</ele>
        <time>2022-02-15T08:49:25.000Z</time>
      </trkpt>
      <trkpt lat="43.53114" lon="5.57219">
        <ele>616</ele>
        <time>2022-02-15T08:49:26.000Z</time>
      </trkpt>
      <trkpt lat="43.53115" lon="5.57218">
        <ele>616</ele>
        <time>2022-02-15T08:49:27.000Z</time>
      </trkpt>
      <trkpt lat="43.53114" lon="5.57218">
        <ele>616</ele>
        <time>2022-02-15T08:49:28.000Z</time>
      </trkpt>
      <trkpt lat="43.53114" lon="5.57217">
        <ele>616</ele>
        <time>2022-02-15T08:49:29.000Z</time>
      </trkpt>
      <trkpt lat="43.53114" lon="5.57216">
        <ele>616</ele>
        <time>2022-02-15T08:49:30.000Z</time>
      </trkpt>
      <trkpt lat="43.53114" lon="5.57216">
        <ele>617</ele>
        <time>2022-02-15T08:49:31.000Z</time>
      </trkpt>
      <trkpt lat="43.53114" lon="5.57215">
        <ele>617</ele>
        <time>2022-02-15T08:49:32.000Z</time>
      </trkpt>
      <trkpt lat="43.53114" lon="5.57215">
        <ele>617</ele>
        <time>2022-02-15T08:49:33.000Z</time>
      </trkpt>
      <trkpt lat="43.53114" lon="5.57215">
        <ele>617</ele>
        <time>2022-02-15T08:49:34.000Z</time>
      </trkpt>
      <trkpt lat="43.53114" lon="5.57215">
        <ele>617</ele>
        <time>2022-02-15T08:49:35.000Z</time>
      </trkpt>
      <trkpt lat="43.53114" lon="5.57215">
        <ele>617</ele>
        <time>2022-02-15T08:49:36.000Z</time>
      </trkpt>
      <trkpt lat="43.53114" lon="5.57215">
        <ele>617</ele>
        <time>2022-02-15T08:49:37.000Z</time>
      </trkpt>
      <trkpt lat="43.53114" lon="5.57215">
        <ele>617</ele>
        <time>2022-02-15T08:49:38.000Z</time>
      </trkpt>
      <trkpt lat="43.53114" lon="5.57215">
        <ele>617</ele>
        <time>2022-02-15T08:49:39.000Z</time>
      </trkpt>
      <trkpt lat="43.53114" lon="5.57215">
        <ele>617</ele>
        <time>2022-02-15T08:49:40.000Z</time>
      </trkpt>
      <trkpt lat="43.53114" lon="5.57215">
        <ele>617</ele>
        <time>2022-02-15T08:49:41.000Z</time>
      </trkpt>
      <trkpt lat="43.53114" lon="5.57215">
        <ele>617</ele>
        <time>2022-02-15T08:49:42.000Z</time>
      </trkpt>
      <trkpt lat="43.53114" lon="5.57215">
        <ele>617</ele>
        <time>2022-02-15T08:49:43.000Z</time>
      </trkpt>
      <trkpt lat="43.53114" lon="5.57215">
        <ele>617</ele>
        <time>2022-02-15T08:49:44.000Z</time>
      </trkpt>
      <trkpt lat="43.53114" lon="5.57215">
        <ele>617</ele>
        <time>2022-02-15T08:49:45.000Z</time>
      </trkpt>
      <trkpt lat="43.53114" lon="5.57215">
        <ele>617</ele>
        <time>2022-02-15T08:49:46.000Z</time>
      </trkpt>
      <trkpt lat="43.53114" lon="5.57215">
        <ele>617</ele>
        <time>2022-02-15T08:49:47.000Z</time>
      </trkpt>
      <trkpt lat="43.53114" lon="5.57215">
        <ele>617</ele>
        <time>2022-02-15T08:49:48.000Z</time>
      </trkpt>
      <trkpt lat="43.53114" lon="5.57215">
        <ele>617</ele>
        <time>2022-02-15T08:49:49.000Z</time>
      </trkpt>
      <trkpt lat="43.53114" lon="5.57215">
        <ele>617</ele>
        <time>2022-02-15T08:49:50.000Z</time>
      </trkpt>
      <trkpt lat="43.53114" lon="5.57215">
        <ele>617</ele>
        <time>2022-02-15T08:49:51.000Z</time>
      </trkpt>
      <trkpt lat="43.53114" lon="5.57215">
        <ele>617</ele>
        <time>2022-02-15T08:49:52.000Z</time>
      </trkpt>
      <trkpt lat="43.53114" lon="5.57215">
        <ele>617</ele>
        <time>2022-02-15T08:49:53.000Z</time>
      </trkpt>
      <trkpt lat="43.53114" lon="5.57215">
        <ele>617</ele>
        <time>2022-02-15T08:49:54.000Z</time>
      </trkpt>
      <trkpt lat="43.53114" lon="5.57215">
        <ele>617</ele>
        <time>2022-02-15T08:49:55.000Z</time>
      </trkpt>
      <trkpt lat="43.53114" lon="5.57215">
        <ele>617</ele>
        <time>2022-02-15T08:49:56.000Z</time>
      </trkpt>
      <trkpt lat="43.53114" lon="5.57215">
        <ele>617</ele>
        <time>2022-02-15T08:49:57.000Z</time>
      </trkpt>
      <trkpt lat="43.53114" lon="5.57215">
        <ele>617</ele>
        <time>2022-02-15T08:49:58.000Z</time>
      </trkpt>
      <trkpt lat="43.53114" lon="5.57215">
        <ele>617</ele>
        <time>2022-02-15T08:49:59.000Z</time>
      </trkpt>
      <trkpt lat="43.53114" lon="5.57215">
        <ele>617</ele>
        <time>2022-02-15T08:50:00.000Z</time>
      </trkpt>
      <trkpt lat="43.53114" lon="5.57215">
        <ele>617</ele>
        <time>2022-02-15T08:50:01.000Z</time>
      </trkpt>
      <trkpt lat="43.53114" lon="5.57215">
        <ele>617</ele>
        <time>2022-02-15T08:50:02.000Z</time>
      </trkpt>
      <trkpt lat="43.53114" lon="5.57215">
        <ele>617</ele>
        <time>2022-02-15T08:50:03.000Z</time>
      </trkpt>
      <trkpt lat="43.53114" lon="5.57215">
        <ele>617</ele>
        <time>2022-02-15T08:50:04.000Z</time>
      </trkpt>
      <trkpt lat="43.53114" lon="5.57215">
        <ele>617</ele>
        <time>2022-02-15T08:50:05.000Z</time>
      </trkpt>
      <trkpt lat="43.53114" lon="5.57215">
        <ele>617</ele>
        <time>2022-02-15T08:50:06.000Z</time>
      </trkpt>
      <trkpt lat="43.53114" lon="5.57215">
        <ele>617</ele>
        <time>2022-02-15T08:50:07.000Z</time>
      </trkpt>
      <trkpt lat="43.53114" lon="5.57215">
        <ele>617</ele>
        <time>2022-02-15T08:50:08.000Z</time>
      </trkpt>
      <trkpt lat="43.53114" lon="5.57215">
        <ele>617</ele>
        <time>2022-02-15T08:50:09.000Z</time>
      </trkpt>
      <trkpt lat="43.53114" lon="5.57215">
        <ele>617</ele>
        <time>2022-02-15T08:50:10.000Z</time>
      </trkpt>
      <trkpt lat="43.53114" lon="5.57215">
        <ele>617</ele>
        <time>2022-02-15T08:50:11.000Z</time>
      </trkpt>
      <trkpt lat="43.53114" lon="5.57215">
        <ele>617</ele>
        <time>2022-02-15T08:50:12.000Z</time>
      </trkpt>
      <trkpt lat="43.53114" lon="5.57215">
        <ele>617</ele>
        <time>2022-02-15T08:50:13.000Z</time>
      </trkpt>
      <trkpt lat="43.53114" lon="5.57215">
        <ele>617</ele>
        <time>2022-02-15T08:50:14.000Z</time>
      </trkpt>
      <trkpt lat="43.53115" lon="5.57215">
        <ele>617</ele>
        <time>2022-02-15T08:50:15.000Z</time>
      </trkpt>
      <trkpt lat="43.53115" lon="5.57214">
        <ele>617</ele>
        <time>2022-02-15T08:50:16.000Z</time>
      </trkpt>
      <trkpt lat="43.53115" lon="5.57214">
        <ele>617</ele>
        <time>2022-02-15T08:50:17.000Z</time>
      </trkpt>
      <trkpt lat="43.53116" lon="5.57213">
        <ele>617</ele>
        <time>2022-02-15T08:50:18.000Z</time>
      </trkpt>
      <trkpt lat="43.53116" lon="5.57213">
        <ele>618</ele>
        <time>2022-02-15T08:50:19.000Z</time>
      </trkpt>
      <trkpt lat="43.53116" lon="5.57212">
        <ele>618</ele>
        <time>2022-02-15T08:50:20.000Z</time>
      </trkpt>
      <trkpt lat="43.53116" lon="5.57211">
        <ele>618</ele>
        <time>2022-02-15T08:50:21.000Z</time>
      </trkpt>
      <trkpt lat="43.53116" lon="5.57211">
        <ele>618</ele>
        <time>2022-02-15T08:50:22.000Z</time>
      </trkpt>
      <trkpt lat="43.53116" lon="5.57211">
        <ele>618</ele>
        <time>2022-02-15T08:50:23.000Z</time>
      </trkpt>
      <trkpt lat="43.53116" lon="5.5721">
        <ele>618</ele>
        <time>2022-02-15T08:50:24.000Z</time>
      </trkpt>
      <trkpt lat="43.53116" lon="5.5721">
        <ele>618</ele>
        <time>2022-02-15T08:50:25.000Z</time>
      </trkpt>
      <trkpt lat="43.53116" lon="5.5721">
        <ele>618</ele>
        <time>2022-02-15T08:50:26.000Z</time>
      </trkpt>
      <trkpt lat="43.53116" lon="5.5721">
        <ele>618</ele>
        <time>2022-02-15T08:50:27.000Z</time>
      </trkpt>
      <trkpt lat="43.53116" lon="5.5721">
        <ele>618</ele>
        <time>2022-02-15T08:50:28.000Z</time>
      </trkpt>
      <trkpt lat="43.53116" lon="5.5721">
        <ele>618</ele>
        <time>2022-02-15T08:50:29.000Z</time>
      </trkpt>
      <trkpt lat="43.53117" lon="5.5721">
        <ele>618</ele>
        <time>2022-02-15T08:50:30.000Z</time>
      </trkpt>
      <trkpt lat="43.53117" lon="5.5721">
        <ele>618</ele>
        <time>2022-02-15T08:50:31.000Z</time>
      </trkpt>
      <trkpt lat="43.53117" lon="5.5721">
        <ele>618</ele>
        <time>2022-02-15T08:50:32.000Z</time>
      </trkpt>
      <trkpt lat="43.53118" lon="5.5721">
        <ele>618</ele>
        <time>2022-02-15T08:50:33.000Z</time>
      </trkpt>
      <trkpt lat="43.53118" lon="5.5721">
        <ele>619</ele>
        <time>2022-02-15T08:50:34.000Z</time>
      </trkpt>
      <trkpt lat="43.53118" lon="5.5721">
        <ele>619</ele>
        <time>2022-02-15T08:50:35.000Z</time>
      </trkpt>
      <trkpt lat="43.53118" lon="5.57209">
        <ele>619</ele>
        <time>2022-02-15T08:50:36.000Z</time>
      </trkpt>
      <trkpt lat="43.53118" lon="5.57208">
        <ele>619</ele>
        <time>2022-02-15T08:50:37.000Z</time>
      </trkpt>
      <trkpt lat="43.53119" lon="5.57208">
        <ele>619</ele>
        <time>2022-02-15T08:50:38.000Z</time>
      </trkpt>
      <trkpt lat="43.53119" lon="5.57207">
        <ele>619</ele>
        <time>2022-02-15T08:50:39.000Z</time>
      </trkpt>
      <trkpt lat="43.53119" lon="5.57207">
        <ele>619</ele>
        <time>2022-02-15T08:50:40.000Z</time>
      </trkpt>
      <trkpt lat="43.53119" lon="5.57207">
        <ele>619</ele>
        <time>2022-02-15T08:50:41.000Z</time>
      </trkpt>
      <trkpt lat="43.53119" lon="5.57207">
        <ele>620</ele>
        <time>2022-02-15T08:50:42.000Z</time>
      </trkpt>
      <trkpt lat="43.53119" lon="5.57206">
        <ele>620</ele>
        <time>2022-02-15T08:50:43.000Z</time>
      </trkpt>
      <trkpt lat="43.53119" lon="5.57206">
        <ele>620</ele>
        <time>2022-02-15T08:50:44.000Z</time>
      </trkpt>
      <trkpt lat="43.5312" lon="5.57205">
        <ele>620</ele>
        <time>2022-02-15T08:50:45.000Z</time>
      </trkpt>
      <trkpt lat="43.5312" lon="5.57204">
        <ele>620</ele>
        <time>2022-02-15T08:50:46.000Z</time>
      </trkpt>
      <trkpt lat="43.53121" lon="5.57203">
        <ele>620</ele>
        <time>2022-02-15T08:50:47.000Z</time>
      </trkpt>
      <trkpt lat="43.53122" lon="5.57203">
        <ele>620</ele>
        <time>2022-02-15T08:50:48.000Z</time>
      </trkpt>
      <trkpt lat="43.53122" lon="5.57202">
        <ele>620</ele>
        <time>2022-02-15T08:50:49.000Z</time>
      </trkpt>
      <trkpt lat="43.53123" lon="5.57202">
        <ele>620</ele>
        <time>2022-02-15T08:50:50.000Z</time>
      </trkpt>
      <trkpt lat="43.53124" lon="5.57201">
        <ele>620</ele>
        <time>2022-02-15T08:50:51.000Z</time>
      </trkpt>
      <trkpt lat="43.53124" lon="5.572">
        <ele>620</ele>
        <time>2022-02-15T08:50:52.000Z</time>
      </trkpt>
      <trkpt lat="43.53125" lon="5.572">
        <ele>620</ele>
        <time>2022-02-15T08:50:53.000Z</time>
      </trkpt>
      <trkpt lat="43.53125" lon="5.57199">
        <ele>620</ele>
        <time>2022-02-15T08:50:54.000Z</time>
      </trkpt>
      <trkpt lat="43.53126" lon="5.57198">
        <ele>620</ele>
        <time>2022-02-15T08:50:55.000Z</time>
      </trkpt>
      <trkpt lat="43.53127" lon="5.57197">
        <ele>620</ele>
        <time>2022-02-15T08:50:56.000Z</time>
      </trkpt>
      <trkpt lat="43.53127" lon="5.57196">
        <ele>620</ele>
        <time>2022-02-15T08:50:57.000Z</time>
      </trkpt>
      <trkpt lat="43.53128" lon="5.57196">
        <ele>621</ele>
        <time>2022-02-15T08:50:58.000Z</time>
      </trkpt>
      <trkpt lat="43.53128" lon="5.57195">
        <ele>621</ele>
        <time>2022-02-15T08:50:59.000Z</time>
      </trkpt>
      <trkpt lat="43.53129" lon="5.57195">
        <ele>621</ele>
        <time>2022-02-15T08:51:00.000Z</time>
      </trkpt>
      <trkpt lat="43.53129" lon="5.57195">
        <ele>621</ele>
        <time>2022-02-15T08:51:01.000Z</time>
      </trkpt>
      <trkpt lat="43.5313" lon="5.57194">
        <ele>621</ele>
        <time>2022-02-15T08:51:02.000Z</time>
      </trkpt>
      <trkpt lat="43.5313" lon="5.57194">
        <ele>621</ele>
        <time>2022-02-15T08:51:03.000Z</time>
      </trkpt>
      <trkpt lat="43.5313" lon="5.57194">
        <ele>621</ele>
        <time>2022-02-15T08:51:04.000Z</time>
      </trkpt>
      <trkpt lat="43.5313" lon="5.57193">
        <ele>621</ele>
        <time>2022-02-15T08:51:05.000Z</time>
      </trkpt>
      <trkpt lat="43.53131" lon="5.57193">
        <ele>621</ele>
        <time>2022-02-15T08:51:06.000Z</time>
      </trkpt>
      <trkpt lat="43.53131" lon="5.57192">
        <ele>621</ele>
        <time>2022-02-15T08:51:07.000Z</time>
      </trkpt>
      <trkpt lat="43.53132" lon="5.57192">
        <ele>621</ele>
        <time>2022-02-15T08:51:08.000Z</time>
      </trkpt>
      <trkpt lat="43.53133" lon="5.57191">
        <ele>621</ele>
        <time>2022-02-15T08:51:09.000Z</time>
      </trkpt>
      <trkpt lat="43.53134" lon="5.5719">
        <ele>621</ele>
        <time>2022-02-15T08:51:10.000Z</time>
      </trkpt>
      <trkpt lat="43.53135" lon="5.5719">
        <ele>621</ele>
        <time>2022-02-15T08:51:11.000Z</time>
      </trkpt>
      <trkpt lat="43.53135" lon="5.57189">
        <ele>621</ele>
        <time>2022-02-15T08:51:12.000Z</time>
      </trkpt>
      <trkpt lat="43.53136" lon="5.57189">
        <ele>621</ele>
        <time>2022-02-15T08:51:13.000Z</time>
      </trkpt>
      <trkpt lat="43.53137" lon="5.57189">
        <ele>621</ele>
        <time>2022-02-15T08:51:14.000Z</time>
      </trkpt>
      <trkpt lat="43.53137" lon="5.57189">
        <ele>621</ele>
        <time>2022-02-15T08:51:15.000Z</time>
      </trkpt>
      <trkpt lat="43.53137" lon="5.57188">
        <ele>621</ele>
        <time>2022-02-15T08:51:16.000Z</time>
      </trkpt>
      <trkpt lat="43.53138" lon="5.57188">
        <ele>621</ele>
        <time>2022-02-15T08:51:17.000Z</time>
      </trkpt>
      <trkpt lat="43.53138" lon="5.57187">
        <ele>621</ele>
        <time>2022-02-15T08:51:18.000Z</time>
      </trkpt>
      <trkpt lat="43.53139" lon="5.57186">
        <ele>620</ele>
        <time>2022-02-15T08:51:19.000Z</time>
      </trkpt>
      <trkpt lat="43.5314" lon="5.57186">
        <ele>620</ele>
        <time>2022-02-15T08:51:20.000Z</time>
      </trkpt>
      <trkpt lat="43.53141" lon="5.57185">
        <ele>620</ele>
        <time>2022-02-15T08:51:21.000Z</time>
      </trkpt>
      <trkpt lat="43.53141" lon="5.57185">
        <ele>620</ele>
        <time>2022-02-15T08:51:22.000Z</time>
      </trkpt>
      <trkpt lat="43.53142" lon="5.57185">
        <ele>620</ele>
        <time>2022-02-15T08:51:23.000Z</time>
      </trkpt>
      <trkpt lat="43.53143" lon="5.57184">
        <ele>620</ele>
        <time>2022-02-15T08:51:24.000Z</time>
      </trkpt>
      <trkpt lat="43.53144" lon="5.57183">
        <ele>620</ele>
        <time>2022-02-15T08:51:25.000Z</time>
      </trkpt>
      <trkpt lat="43.53144" lon="5.57182">
        <ele>620</ele>
        <time>2022-02-15T08:51:26.000Z</time>
      </trkpt>
      <trkpt lat="43.53145" lon="5.57182">
        <ele>620</ele>
        <time>2022-02-15T08:51:27.000Z</time>
      </trkpt>
      <trkpt lat="43.53146" lon="5.57182">
        <ele>620</ele>
        <time>2022-02-15T08:51:28.000Z</time>
      </trkpt>
      <trkpt lat="43.53146" lon="5.57182">
        <ele>620</ele>
        <time>2022-02-15T08:51:29.000Z</time>
      </trkpt>
      <trkpt lat="43.53147" lon="5.57181">
        <ele>620</ele>
        <time>2022-02-15T08:51:30.000Z</time>
      </trkpt>
      <trkpt lat="43.53147" lon="5.5718">
        <ele>620</ele>
        <time>2022-02-15T08:51:31.000Z</time>
      </trkpt>
      <trkpt lat="43.53148" lon="5.5718">
        <ele>620</ele>
        <time>2022-02-15T08:51:32.000Z</time>
      </trkpt>
      <trkpt lat="43.53149" lon="5.57179">
        <ele>620</ele>
        <time>2022-02-15T08:51:33.000Z</time>
      </trkpt>
      <trkpt lat="43.53149" lon="5.57178">
        <ele>620</ele>
        <time>2022-02-15T08:51:34.000Z</time>
      </trkpt>
      <trkpt lat="43.5315" lon="5.57178">
        <ele>620</ele>
        <time>2022-02-15T08:51:35.000Z</time>
      </trkpt>
      <trkpt lat="43.53151" lon="5.57177">
        <ele>620</ele>
        <time>2022-02-15T08:51:36.000Z</time>
      </trkpt>
      <trkpt lat="43.53151" lon="5.57177">
        <ele>620</ele>
        <time>2022-02-15T08:51:37.000Z</time>
      </trkpt>
      <trkpt lat="43.53152" lon="5.57176">
        <ele>620</ele>
        <time>2022-02-15T08:51:38.000Z</time>
      </trkpt>
      <trkpt lat="43.53153" lon="5.57176">
        <ele>620</ele>
        <time>2022-02-15T08:51:39.000Z</time>
      </trkpt>
      <trkpt lat="43.53154" lon="5.57176">
        <ele>620</ele>
        <time>2022-02-15T08:51:40.000Z</time>
      </trkpt>
      <trkpt lat="43.53154" lon="5.57175">
        <ele>620</ele>
        <time>2022-02-15T08:51:41.000Z</time>
      </trkpt>
      <trkpt lat="43.53155" lon="5.57175">
        <ele>620</ele>
        <time>2022-02-15T08:51:42.000Z</time>
      </trkpt>
      <trkpt lat="43.53155" lon="5.57174">
        <ele>620</ele>
        <time>2022-02-15T08:51:43.000Z</time>
      </trkpt>
      <trkpt lat="43.53155" lon="5.57174">
        <ele>619</ele>
        <time>2022-02-15T08:51:44.000Z</time>
      </trkpt>
      <trkpt lat="43.53155" lon="5.57173">
        <ele>619</ele>
        <time>2022-02-15T08:51:45.000Z</time>
      </trkpt>
      <trkpt lat="43.53155" lon="5.57173">
        <ele>619</ele>
        <time>2022-02-15T08:51:46.000Z</time>
      </trkpt>
      <trkpt lat="43.53156" lon="5.57173">
        <ele>619</ele>
        <time>2022-02-15T08:51:47.000Z</time>
      </trkpt>
      <trkpt lat="43.53156" lon="5.57173">
        <ele>619</ele>
        <time>2022-02-15T08:51:48.000Z</time>
      </trkpt>
      <trkpt lat="43.53156" lon="5.57173">
        <ele>619</ele>
        <time>2022-02-15T08:51:49.000Z</time>
      </trkpt>
      <trkpt lat="43.53156" lon="5.57173">
        <ele>619</ele>
        <time>2022-02-15T08:51:50.000Z</time>
      </trkpt>
      <trkpt lat="43.53156" lon="5.57173">
        <ele>619</ele>
        <time>2022-02-15T08:51:51.000Z</time>
      </trkpt>
      <trkpt lat="43.53156" lon="5.57173">
        <ele>619</ele>
        <time>2022-02-15T08:51:52.000Z</time>
      </trkpt>
      <trkpt lat="43.53156" lon="5.57172">
        <ele>619</ele>
        <time>2022-02-15T08:51:53.000Z</time>
      </trkpt>
      <trkpt lat="43.53156" lon="5.57172">
        <ele>619</ele>
        <time>2022-02-15T08:51:54.000Z</time>
      </trkpt>
      <trkpt lat="43.53156" lon="5.57171">
        <ele>619</ele>
        <time>2022-02-15T08:51:55.000Z</time>
      </trkpt>
      <trkpt lat="43.53156" lon="5.57171">
        <ele>619</ele>
        <time>2022-02-15T08:51:56.000Z</time>
      </trkpt>
      <trkpt lat="43.53157" lon="5.5717">
        <ele>619</ele>
        <time>2022-02-15T08:51:57.000Z</time>
      </trkpt>
      <trkpt lat="43.53157" lon="5.57169">
        <ele>619</ele>
        <time>2022-02-15T08:51:58.000Z</time>
      </trkpt>
      <trkpt lat="43.53158" lon="5.57168">
        <ele>619</ele>
        <time>2022-02-15T08:51:59.000Z</time>
      </trkpt>
      <trkpt lat="43.53158" lon="5.57168">
        <ele>619</ele>
        <time>2022-02-15T08:52:00.000Z</time>
      </trkpt>
      <trkpt lat="43.53159" lon="5.57166">
        <ele>619</ele>
        <time>2022-02-15T08:52:01.000Z</time>
      </trkpt>
      <trkpt lat="43.53159" lon="5.57166">
        <ele>619</ele>
        <time>2022-02-15T08:52:02.000Z</time>
      </trkpt>
      <trkpt lat="43.5316" lon="5.57165">
        <ele>619</ele>
        <time>2022-02-15T08:52:03.000Z</time>
      </trkpt>
      <trkpt lat="43.5316" lon="5.57165">
        <ele>618</ele>
        <time>2022-02-15T08:52:04.000Z</time>
      </trkpt>
      <trkpt lat="43.5316" lon="5.57165">
        <ele>618</ele>
        <time>2022-02-15T08:52:05.000Z</time>
      </trkpt>
      <trkpt lat="43.5316" lon="5.57165">
        <ele>618</ele>
        <time>2022-02-15T08:52:06.000Z</time>
      </trkpt>
      <trkpt lat="43.53161" lon="5.57165">
        <ele>618</ele>
        <time>2022-02-15T08:52:07.000Z</time>
      </trkpt>
      <trkpt lat="43.53161" lon="5.57165">
        <ele>618</ele>
        <time>2022-02-15T08:52:08.000Z</time>
      </trkpt>
      <trkpt lat="43.53161" lon="5.57165">
        <ele>618</ele>
        <time>2022-02-15T08:52:09.000Z</time>
      </trkpt>
      <trkpt lat="43.53161" lon="5.57164">
        <ele>618</ele>
        <time>2022-02-15T08:52:10.000Z</time>
      </trkpt>
      <trkpt lat="43.53162" lon="5.57164">
        <ele>618</ele>
        <time>2022-02-15T08:52:11.000Z</time>
      </trkpt>
      <trkpt lat="43.53163" lon="5.57163">
        <ele>618</ele>
        <time>2022-02-15T08:52:12.000Z</time>
      </trkpt>
      <trkpt lat="43.53164" lon="5.57163">
        <ele>618</ele>
        <time>2022-02-15T08:52:13.000Z</time>
      </trkpt>
      <trkpt lat="43.53165" lon="5.57162">
        <ele>618</ele>
        <time>2022-02-15T08:52:14.000Z</time>
      </trkpt>
      <trkpt lat="43.53166" lon="5.57161">
        <ele>618</ele>
        <time>2022-02-15T08:52:15.000Z</time>
      </trkpt>
      <trkpt lat="43.53166" lon="5.5716">
        <ele>618</ele>
        <time>2022-02-15T08:52:16.000Z</time>
      </trkpt>
      <trkpt lat="43.53167" lon="5.5716">
        <ele>618</ele>
        <time>2022-02-15T08:52:17.000Z</time>
      </trkpt>
      <trkpt lat="43.53168" lon="5.57159">
        <ele>618</ele>
        <time>2022-02-15T08:52:18.000Z</time>
      </trkpt>
      <trkpt lat="43.53169" lon="5.57159">
        <ele>618</ele>
        <time>2022-02-15T08:52:19.000Z</time>
      </trkpt>
      <trkpt lat="43.5317" lon="5.57159">
        <ele>618</ele>
        <time>2022-02-15T08:52:20.000Z</time>
      </trkpt>
      <trkpt lat="43.5317" lon="5.57158">
        <ele>618</ele>
        <time>2022-02-15T08:52:21.000Z</time>
      </trkpt>
      <trkpt lat="43.53171" lon="5.57158">
        <ele>618</ele>
        <time>2022-02-15T08:52:22.000Z</time>
      </trkpt>
      <trkpt lat="43.53172" lon="5.57157">
        <ele>618</ele>
        <time>2022-02-15T08:52:23.000Z</time>
      </trkpt>
      <trkpt lat="43.53172" lon="5.57157">
        <ele>618</ele>
        <time>2022-02-15T08:52:24.000Z</time>
      </trkpt>
      <trkpt lat="43.53172" lon="5.57156">
        <ele>618</ele>
        <time>2022-02-15T08:52:25.000Z</time>
      </trkpt>
      <trkpt lat="43.53173" lon="5.57156">
        <ele>618</ele>
        <time>2022-02-15T08:52:26.000Z</time>
      </trkpt>
      <trkpt lat="43.53173" lon="5.57156">
        <ele>618</ele>
        <time>2022-02-15T08:52:27.000Z</time>
      </trkpt>
      <trkpt lat="43.53173" lon="5.57156">
        <ele>618</ele>
        <time>2022-02-15T08:52:28.000Z</time>
      </trkpt>
      <trkpt lat="43.53173" lon="5.57156">
        <ele>618</ele>
        <time>2022-02-15T08:52:29.000Z</time>
      </trkpt>
      <trkpt lat="43.53173" lon="5.57156">
        <ele>618</ele>
        <time>2022-02-15T08:52:30.000Z</time>
      </trkpt>
      <trkpt lat="43.53173" lon="5.57156">
        <ele>618</ele>
        <time>2022-02-15T08:52:31.000Z</time>
      </trkpt>
      <trkpt lat="43.53173" lon="5.57156">
        <ele>618</ele>
        <time>2022-02-15T08:52:32.000Z</time>
      </trkpt>
      <trkpt lat="43.53173" lon="5.57156">
        <ele>618</ele>
        <time>2022-02-15T08:52:33.000Z</time>
      </trkpt>
      <trkpt lat="43.53173" lon="5.57156">
        <ele>618</ele>
        <time>2022-02-15T08:52:34.000Z</time>
      </trkpt>
      <trkpt lat="43.53173" lon="5.57156">
        <ele>618</ele>
        <time>2022-02-15T08:52:35.000Z</time>
      </trkpt>
      <trkpt lat="43.53173" lon="5.57156">
        <ele>618</ele>
        <time>2022-02-15T08:52:36.000Z</time>
      </trkpt>
      <trkpt lat="43.53173" lon="5.57156">
        <ele>618</ele>
        <time>2022-02-15T08:52:37.000Z</time>
      </trkpt>
      <trkpt lat="43.53173" lon="5.57156">
        <ele>618</ele>
        <time>2022-02-15T08:52:38.000Z</time>
      </trkpt>
      <trkpt lat="43.53173" lon="5.57156">
        <ele>618</ele>
        <time>2022-02-15T08:52:39.000Z</time>
      </trkpt>
      <trkpt lat="43.53173" lon="5.57156">
        <ele>618</ele>
        <time>2022-02-15T08:52:40.000Z</time>
      </trkpt>
      <trkpt lat="43.53173" lon="5.57156">
        <ele>618</ele>
        <time>2022-02-15T08:52:41.000Z</time>
      </trkpt>
      <trkpt lat="43.53173" lon="5.57156">
        <ele>618</ele>
        <time>2022-02-15T08:52:42.000Z</time>
      </trkpt>
      <trkpt lat="43.53173" lon="5.57156">
        <ele>618</ele>
        <time>2022-02-15T08:52:43.000Z</time>
      </trkpt>
      <trkpt lat="43.53173" lon="5.57156">
        <ele>618</ele>
        <time>2022-02-15T08:52:44.000Z</time>
      </trkpt>
      <trkpt lat="43.53173" lon="5.57156">
        <ele>618</ele>
        <time>2022-02-15T08:52:45.000Z</time>
      </trkpt>
      <trkpt lat="43.53173" lon="5.57156">
        <ele>618</ele>
        <time>2022-02-15T08:52:46.000Z</time>
      </trkpt>
      <trkpt lat="43.53173" lon="5.57156">
        <ele>618</ele>
        <time>2022-02-15T08:52:47.000Z</time>
      </trkpt>
      <trkpt lat="43.53173" lon="5.57156">
        <ele>618</ele>
        <time>2022-02-15T08:52:48.000Z</time>
      </trkpt>
      <trkpt lat="43.53173" lon="5.57156">
        <ele>618</ele>
        <time>2022-02-15T08:52:49.000Z</time>
      </trkpt>
      <trkpt lat="43.53173" lon="5.57156">
        <ele>618</ele>
        <time>2022-02-15T08:52:50.000Z</time>
      </trkpt>
      <trkpt lat="43.53173" lon="5.57156">
        <ele>618</ele>
        <time>2022-02-15T08:52:51.000Z</time>
      </trkpt>
      <trkpt lat="43.53173" lon="5.57156">
        <ele>618</ele>
        <time>2022-02-15T08:52:52.000Z</time>
      </trkpt>
      <trkpt lat="43.53173" lon="5.57156">
        <ele>618</ele>
        <time>2022-02-15T08:52:53.000Z</time>
      </trkpt>
      <trkpt lat="43.53173" lon="5.57156">
        <ele>618</ele>
        <time>2022-02-15T08:52:54.000Z</time>
      </trkpt>
      <trkpt lat="43.53173" lon="5.57156">
        <ele>618</ele>
        <time>2022-02-15T08:52:55.000Z</time>
      </trkpt>
      <trkpt lat="43.53173" lon="5.57156">
        <ele>618</ele>
        <time>2022-02-15T08:52:56.000Z</time>
      </trkpt>
      <trkpt lat="43.53173" lon="5.57156">
        <ele>618</ele>
        <time>2022-02-15T08:52:57.000Z</time>
      </trkpt>
      <trkpt lat="43.53173" lon="5.57156">
        <ele>618</ele>
        <time>2022-02-15T08:52:58.000Z</time>
      </trkpt>
      <trkpt lat="43.53173" lon="5.57156">
        <ele>618</ele>
        <time>2022-02-15T08:52:59.000Z</time>
      </trkpt>
      <trkpt lat="43.53173" lon="5.57156">
        <ele>618</ele>
        <time>2022-02-15T08:53:00.000Z</time>
      </trkpt>
      <trkpt lat="43.53173" lon="5.57156">
        <ele>618</ele>
        <time>2022-02-15T08:53:01.000Z</time>
      </trkpt>
      <trkpt lat="43.53173" lon="5.57156">
        <ele>618</ele>
        <time>2022-02-15T08:53:02.000Z</time>
      </trkpt>
      <trkpt lat="43.53173" lon="5.57157">
        <ele>618</ele>
        <time>2022-02-15T08:53:03.000Z</time>
      </trkpt>
      <trkpt lat="43.53173" lon="5.57157">
        <ele>618</ele>
        <time>2022-02-15T08:53:04.000Z</time>
      </trkpt>
      <trkpt lat="43.53173" lon="5.57157">
        <ele>618</ele>
        <time>2022-02-15T08:53:05.000Z</time>
      </trkpt>
      <trkpt lat="43.53173" lon="5.57157">
        <ele>618</ele>
        <time>2022-02-15T08:53:06.000Z</time>
      </trkpt>
      <trkpt lat="43.53173" lon="5.57157">
        <ele>618</ele>
        <time>2022-02-15T08:53:07.000Z</time>
      </trkpt>
      <trkpt lat="43.53173" lon="5.57157">
        <ele>618</ele>
        <time>2022-02-15T08:53:08.000Z</time>
      </trkpt>
      <trkpt lat="43.53174" lon="5.57157">
        <ele>618</ele>
        <time>2022-02-15T08:53:09.000Z</time>
      </trkpt>
      <trkpt lat="43.53174" lon="5.57157">
        <ele>618</ele>
        <time>2022-02-15T08:53:10.000Z</time>
      </trkpt>
      <trkpt lat="43.53174" lon="5.57157">
        <ele>618</ele>
        <time>2022-02-15T08:53:11.000Z</time>
      </trkpt>
      <trkpt lat="43.53174" lon="5.57157">
        <ele>618</ele>
        <time>2022-02-15T08:53:12.000Z</time>
      </trkpt>
      <trkpt lat="43.53174" lon="5.57157">
        <ele>618</ele>
        <time>2022-02-15T08:53:13.000Z</time>
      </trkpt>
      <trkpt lat="43.53174" lon="5.57157">
        <ele>618</ele>
        <time>2022-02-15T08:53:14.000Z</time>
      </trkpt>
      <trkpt lat="43.53174" lon="5.57157">
        <ele>618</ele>
        <time>2022-02-15T08:53:15.000Z</time>
      </trkpt>
      <trkpt lat="43.53174" lon="5.57157">
        <ele>618</ele>
        <time>2022-02-15T08:53:16.000Z</time>
      </trkpt>
      <trkpt lat="43.53174" lon="5.57157">
        <ele>618</ele>
        <time>2022-02-15T08:53:17.000Z</time>
      </trkpt>
      <trkpt lat="43.53174" lon="5.57157">
        <ele>618</ele>
        <time>2022-02-15T08:53:18.000Z</time>
      </trkpt>
      <trkpt lat="43.53174" lon="5.57157">
        <ele>618</ele>
        <time>2022-02-15T08:53:19.000Z</time>
      </trkpt>
      <trkpt lat="43.53174" lon="5.57157">
        <ele>618</ele>
        <time>2022-02-15T08:53:20.000Z</time>
      </trkpt>
      <trkpt lat="43.53173" lon="5.57157">
        <ele>618</ele>
        <time>2022-02-15T08:53:21.000Z</time>
      </trkpt>
      <trkpt lat="43.53174" lon="5.57157">
        <ele>618</ele>
        <time>2022-02-15T08:53:22.000Z</time>
      </trkpt>
      <trkpt lat="43.53174" lon="5.57157">
        <ele>617</ele>
        <time>2022-02-15T08:53:23.000Z</time>
      </trkpt>
      <trkpt lat="43.53174" lon="5.57156">
        <ele>617</ele>
        <time>2022-02-15T08:53:24.000Z</time>
      </trkpt>
      <trkpt lat="43.53174" lon="5.57156">
        <ele>617</ele>
        <time>2022-02-15T08:53:25.000Z</time>
      </trkpt>
      <trkpt lat="43.53175" lon="5.57155">
        <ele>617</ele>
        <time>2022-02-15T08:53:26.000Z</time>
      </trkpt>
      <trkpt lat="43.53176" lon="5.57155">
        <ele>617</ele>
        <time>2022-02-15T08:53:27.000Z</time>
      </trkpt>
      <trkpt lat="43.53176" lon="5.57155">
        <ele>617</ele>
        <time>2022-02-15T08:53:28.000Z</time>
      </trkpt>
      <trkpt lat="43.53176" lon="5.57155">
        <ele>617</ele>
        <time>2022-02-15T08:53:29.000Z</time>
      </trkpt>
      <trkpt lat="43.53176" lon="5.57155">
        <ele>617</ele>
        <time>2022-02-15T08:53:30.000Z</time>
      </trkpt>
      <trkpt lat="43.53176" lon="5.57155">
        <ele>617</ele>
        <time>2022-02-15T08:53:31.000Z</time>
      </trkpt>
      <trkpt lat="43.53176" lon="5.57155">
        <ele>617</ele>
        <time>2022-02-15T08:53:32.000Z</time>
      </trkpt>
      <trkpt lat="43.53176" lon="5.57155">
        <ele>617</ele>
        <time>2022-02-15T08:53:33.000Z</time>
      </trkpt>
      <trkpt lat="43.53176" lon="5.57155">
        <ele>617</ele>
        <time>2022-02-15T08:53:34.000Z</time>
      </trkpt>
      <trkpt lat="43.53176" lon="5.57154">
        <ele>617</ele>
        <time>2022-02-15T08:53:35.000Z</time>
      </trkpt>
      <trkpt lat="43.53176" lon="5.57154">
        <ele>617</ele>
        <time>2022-02-15T08:53:36.000Z</time>
      </trkpt>
      <trkpt lat="43.53176" lon="5.57154">
        <ele>617</ele>
        <time>2022-02-15T08:53:37.000Z</time>
      </trkpt>
      <trkpt lat="43.53176" lon="5.57154">
        <ele>617</ele>
        <time>2022-02-15T08:53:38.000Z</time>
      </trkpt>
      <trkpt lat="43.53176" lon="5.57154">
        <ele>617</ele>
        <time>2022-02-15T08:53:39.000Z</time>
      </trkpt>
      <trkpt lat="43.53176" lon="5.57154">
        <ele>617</ele>
        <time>2022-02-15T08:53:40.000Z</time>
      </trkpt>
      <trkpt lat="43.53176" lon="5.57154">
        <ele>617</ele>
        <time>2022-02-15T08:53:41.000Z</time>
      </trkpt>
      <trkpt lat="43.53176" lon="5.57154">
        <ele>617</ele>
        <time>2022-02-15T08:53:42.000Z</time>
      </trkpt>
      <trkpt lat="43.53177" lon="5.57154">
        <ele>617</ele>
        <time>2022-02-15T08:53:43.000Z</time>
      </trkpt>
      <trkpt lat="43.53177" lon="5.57154">
        <ele>617</ele>
        <time>2022-02-15T08:53:44.000Z</time>
      </trkpt>
      <trkpt lat="43.53176" lon="5.57154">
        <ele>617</ele>
        <time>2022-02-15T08:53:45.000Z</time>
      </trkpt>
      <trkpt lat="43.53177" lon="5.57155">
        <ele>617</ele>
        <time>2022-02-15T08:53:46.000Z</time>
      </trkpt>
      <trkpt lat="43.53177" lon="5.57155">
        <ele>617</ele>
        <time>2022-02-15T08:53:47.000Z</time>
      </trkpt>
      <trkpt lat="43.53176" lon="5.57155">
        <ele>617</ele>
        <time>2022-02-15T08:53:48.000Z</time>
      </trkpt>
      <trkpt lat="43.53176" lon="5.57155">
        <ele>617</ele>
        <time>2022-02-15T08:53:49.000Z</time>
      </trkpt>
      <trkpt lat="43.53175" lon="5.57156">
        <ele>617</ele>
        <time>2022-02-15T08:53:50.000Z</time>
      </trkpt>
      <trkpt lat="43.53175" lon="5.57156">
        <ele>617</ele>
        <time>2022-02-15T08:53:51.000Z</time>
      </trkpt>
      <trkpt lat="43.53174" lon="5.57157">
        <ele>617</ele>
        <time>2022-02-15T08:53:52.000Z</time>
      </trkpt>
      <trkpt lat="43.53174" lon="5.57157">
        <ele>617</ele>
        <time>2022-02-15T08:53:53.000Z</time>
      </trkpt>
      <trkpt lat="43.53174" lon="5.57157">
        <ele>617</ele>
        <time>2022-02-15T08:53:54.000Z</time>
      </trkpt>
      <trkpt lat="43.53173" lon="5.57157">
        <ele>617</ele>
        <time>2022-02-15T08:53:55.000Z</time>
      </trkpt>
      <trkpt lat="43.53173" lon="5.57158">
        <ele>617</ele>
        <time>2022-02-15T08:53:56.000Z</time>
      </trkpt>
      <trkpt lat="43.53172" lon="5.57158">
        <ele>617</ele>
        <time>2022-02-15T08:53:57.000Z</time>
      </trkpt>
      <trkpt lat="43.53171" lon="5.57159">
        <ele>617</ele>
        <time>2022-02-15T08:53:58.000Z</time>
      </trkpt>
      <trkpt lat="43.5317" lon="5.5716">
        <ele>617</ele>
        <time>2022-02-15T08:53:59.000Z</time>
      </trkpt>
      <trkpt lat="43.53169" lon="5.57161">
        <ele>617</ele>
        <time>2022-02-15T08:54:00.000Z</time>
      </trkpt>
      <trkpt lat="43.53168" lon="5.57162">
        <ele>617</ele>
        <time>2022-02-15T08:54:01.000Z</time>
      </trkpt>
      <trkpt lat="43.53168" lon="5.57162">
        <ele>617</ele>
        <time>2022-02-15T08:54:02.000Z</time>
      </trkpt>
      <trkpt lat="43.53167" lon="5.57163">
        <ele>617</ele>
        <time>2022-02-15T08:54:03.000Z</time>
      </trkpt>
      <trkpt lat="43.53166" lon="5.57164">
        <ele>617</ele>
        <time>2022-02-15T08:54:04.000Z</time>
      </trkpt>
      <trkpt lat="43.53166" lon="5.57164">
        <ele>617</ele>
        <time>2022-02-15T08:54:05.000Z</time>
      </trkpt>
      <trkpt lat="43.53165" lon="5.57164">
        <ele>617</ele>
        <time>2022-02-15T08:54:06.000Z</time>
      </trkpt>
      <trkpt lat="43.53165" lon="5.57164">
        <ele>617</ele>
        <time>2022-02-15T08:54:07.000Z</time>
      </trkpt>
      <trkpt lat="43.53165" lon="5.57164">
        <ele>618</ele>
        <time>2022-02-15T08:54:08.000Z</time>
      </trkpt>
      <trkpt lat="43.53165" lon="5.57164">
        <ele>618</ele>
        <time>2022-02-15T08:54:09.000Z</time>
      </trkpt>
      <trkpt lat="43.53165" lon="5.57163">
        <ele>618</ele>
        <time>2022-02-15T08:54:10.000Z</time>
      </trkpt>
      <trkpt lat="43.53164" lon="5.57163">
        <ele>618</ele>
        <time>2022-02-15T08:54:11.000Z</time>
      </trkpt>
      <trkpt lat="43.53164" lon="5.57163">
        <ele>618</ele>
        <time>2022-02-15T08:54:12.000Z</time>
      </trkpt>
      <trkpt lat="43.53164" lon="5.57163">
        <ele>618</ele>
        <time>2022-02-15T08:54:13.000Z</time>
      </trkpt>
      <trkpt lat="43.53164" lon="5.57163">
        <ele>618</ele>
        <time>2022-02-15T08:54:14.000Z</time>
      </trkpt>
      <trkpt lat="43.53164" lon="5.57163">
        <ele>618</ele>
        <time>2022-02-15T08:54:15.000Z</time>
      </trkpt>
      <trkpt lat="43.53164" lon="5.57162">
        <ele>618</ele>
        <time>2022-02-15T08:54:16.000Z</time>
      </trkpt>
      <trkpt lat="43.53164" lon="5.57162">
        <ele>618</ele>
        <time>2022-02-15T08:54:17.000Z</time>
      </trkpt>
      <trkpt lat="43.53164" lon="5.57162">
        <ele>618</ele>
        <time>2022-02-15T08:54:18.000Z</time>
      </trkpt>
      <trkpt lat="43.53164" lon="5.57162">
        <ele>618</ele>
        <time>2022-02-15T08:54:19.000Z</time>
      </trkpt>
      <trkpt lat="43.53164" lon="5.57162">
        <ele>618</ele>
        <time>2022-02-15T08:54:20.000Z</time>
      </trkpt>
      <trkpt lat="43.53164" lon="5.57162">
        <ele>618</ele>
        <time>2022-02-15T08:54:21.000Z</time>
      </trkpt>
      <trkpt lat="43.53164" lon="5.57162">
        <ele>618</ele>
        <time>2022-02-15T08:54:22.000Z</time>
      </trkpt>
      <trkpt lat="43.53163" lon="5.57161">
        <ele>618</ele>
        <time>2022-02-15T08:54:23.000Z</time>
      </trkpt>
      <trkpt lat="43.53164" lon="5.5716">
        <ele>618</ele>
        <time>2022-02-15T08:54:24.000Z</time>
      </trkpt>
      <trkpt lat="43.53164" lon="5.5716">
        <ele>618</ele>
        <time>2022-02-15T08:54:25.000Z</time>
      </trkpt>
      <trkpt lat="43.53164" lon="5.5716">
        <ele>618</ele>
        <time>2022-02-15T08:54:26.000Z</time>
      </trkpt>
      <trkpt lat="43.53164" lon="5.5716">
        <ele>618</ele>
        <time>2022-02-15T08:54:27.000Z</time>
      </trkpt>
      <trkpt lat="43.53164" lon="5.5716">
        <ele>618</ele>
        <time>2022-02-15T08:54:28.000Z</time>
      </trkpt>
      <trkpt lat="43.53164" lon="5.5716">
        <ele>618</ele>
        <time>2022-02-15T08:54:29.000Z</time>
      </trkpt>
      <trkpt lat="43.53164" lon="5.5716">
        <ele>618</ele>
        <time>2022-02-15T08:54:30.000Z</time>
      </trkpt>
      <trkpt lat="43.53164" lon="5.5716">
        <ele>618</ele>
        <time>2022-02-15T08:54:31.000Z</time>
      </trkpt>
      <trkpt lat="43.53164" lon="5.5716">
        <ele>618</ele>
        <time>2022-02-15T08:54:32.000Z</time>
      </trkpt>
      <trkpt lat="43.53164" lon="5.5716">
        <ele>618</ele>
        <time>2022-02-15T08:54:33.000Z</time>
      </trkpt>
      <trkpt lat="43.53164" lon="5.5716">
        <ele>618</ele>
        <time>2022-02-15T08:54:34.000Z</time>
      </trkpt>
      <trkpt lat="43.53164" lon="5.5716">
        <ele>618</ele>
        <time>2022-02-15T08:54:35.000Z</time>
      </trkpt>
      <trkpt lat="43.53163" lon="5.5716">
        <ele>618</ele>
        <time>2022-02-15T08:54:36.000Z</time>
      </trkpt>
      <trkpt lat="43.53163" lon="5.5716">
        <ele>618</ele>
        <time>2022-02-15T08:54:37.000Z</time>
      </trkpt>
      <trkpt lat="43.53162" lon="5.57159">
        <ele>617</ele>
        <time>2022-02-15T08:54:38.000Z</time>
      </trkpt>
      <trkpt lat="43.53162" lon="5.57159">
        <ele>617</ele>
        <time>2022-02-15T08:54:39.000Z</time>
      </trkpt>
      <trkpt lat="43.53162" lon="5.57159">
        <ele>617</ele>
        <time>2022-02-15T08:54:40.000Z</time>
      </trkpt>
      <trkpt lat="43.53162" lon="5.57159">
        <ele>617</ele>
        <time>2022-02-15T08:54:41.000Z</time>
      </trkpt>
      <trkpt lat="43.53162" lon="5.57159">
        <ele>617</ele>
        <time>2022-02-15T08:54:42.000Z</time>
      </trkpt>
      <trkpt lat="43.53162" lon="5.57159">
        <ele>617</ele>
        <time>2022-02-15T08:54:43.000Z</time>
      </trkpt>
      <trkpt lat="43.53162" lon="5.57159">
        <ele>617</ele>
        <time>2022-02-15T08:54:44.000Z</time>
      </trkpt>
      <trkpt lat="43.53162" lon="5.57159">
        <ele>617</ele>
        <time>2022-02-15T08:54:45.000Z</time>
      </trkpt>
      <trkpt lat="43.53162" lon="5.57159">
        <ele>617</ele>
        <time>2022-02-15T08:54:46.000Z</time>
      </trkpt>
      <trkpt lat="43.53162" lon="5.57159">
        <ele>617</ele>
        <time>2022-02-15T08:54:47.000Z</time>
      </trkpt>
      <trkpt lat="43.53162" lon="5.57159">
        <ele>617</ele>
        <time>2022-02-15T08:54:48.000Z</time>
      </trkpt>
      <trkpt lat="43.53162" lon="5.57159">
        <ele>617</ele>
        <time>2022-02-15T08:54:49.000Z</time>
      </trkpt>
      <trkpt lat="43.53162" lon="5.57159">
        <ele>617</ele>
        <time>2022-02-15T08:54:50.000Z</time>
      </trkpt>
      <trkpt lat="43.53162" lon="5.57159">
        <ele>617</ele>
        <time>2022-02-15T08:54:51.000Z</time>
      </trkpt>
      <trkpt lat="43.53162" lon="5.57159">
        <ele>617</ele>
        <time>2022-02-15T08:54:52.000Z</time>
      </trkpt>
      <trkpt lat="43.53162" lon="5.57159">
        <ele>617</ele>
        <time>2022-02-15T08:54:53.000Z</time>
      </trkpt>
      <trkpt lat="43.53162" lon="5.57159">
        <ele>617</ele>
        <time>2022-02-15T08:54:54.000Z</time>
      </trkpt>
      <trkpt lat="43.53162" lon="5.57159">
        <ele>617</ele>
        <time>2022-02-15T08:54:55.000Z</time>
      </trkpt>
      <trkpt lat="43.53162" lon="5.57159">
        <ele>617</ele>
        <time>2022-02-15T08:54:56.000Z</time>
      </trkpt>
      <trkpt lat="43.53162" lon="5.57159">
        <ele>617</ele>
        <time>2022-02-15T08:54:57.000Z</time>
      </trkpt>
      <trkpt lat="43.53162" lon="5.57159">
        <ele>617</ele>
        <time>2022-02-15T08:54:58.000Z</time>
      </trkpt>
      <trkpt lat="43.53162" lon="5.57159">
        <ele>617</ele>
        <time>2022-02-15T08:54:59.000Z</time>
      </trkpt>
      <trkpt lat="43.53162" lon="5.57159">
        <ele>617</ele>
        <time>2022-02-15T08:55:00.000Z</time>
      </trkpt>
      <trkpt lat="43.53162" lon="5.57159">
        <ele>617</ele>
        <time>2022-02-15T08:55:01.000Z</time>
      </trkpt>
      <trkpt lat="43.53162" lon="5.57159">
        <ele>617</ele>
        <time>2022-02-15T08:55:02.000Z</time>
      </trkpt>
      <trkpt lat="43.53162" lon="5.57159">
        <ele>617</ele>
        <time>2022-02-15T08:55:03.000Z</time>
      </trkpt>
      <trkpt lat="43.53162" lon="5.57159">
        <ele>617</ele>
        <time>2022-02-15T08:55:04.000Z</time>
      </trkpt>
      <trkpt lat="43.53162" lon="5.57159">
        <ele>617</ele>
        <time>2022-02-15T08:55:05.000Z</time>
      </trkpt>
      <trkpt lat="43.53162" lon="5.57159">
        <ele>617</ele>
        <time>2022-02-15T08:55:06.000Z</time>
      </trkpt>
      <trkpt lat="43.53162" lon="5.57159">
        <ele>617</ele>
        <time>2022-02-15T08:55:07.000Z</time>
      </trkpt>
      <trkpt lat="43.53162" lon="5.57159">
        <ele>617</ele>
        <time>2022-02-15T08:55:08.000Z</time>
      </trkpt>
      <trkpt lat="43.53162" lon="5.57159">
        <ele>617</ele>
        <time>2022-02-15T08:55:09.000Z</time>
      </trkpt>
      <trkpt lat="43.53162" lon="5.57159">
        <ele>617</ele>
        <time>2022-02-15T08:55:10.000Z</time>
      </trkpt>
      <trkpt lat="43.53162" lon="5.57159">
        <ele>617</ele>
        <time>2022-02-15T08:55:11.000Z</time>
      </trkpt>
      <trkpt lat="43.53162" lon="5.57159">
        <ele>617</ele>
        <time>2022-02-15T08:55:12.000Z</time>
      </trkpt>
      <trkpt lat="43.53162" lon="5.57159">
        <ele>617</ele>
        <time>2022-02-15T08:55:13.000Z</time>
      </trkpt>
      <trkpt lat="43.53162" lon="5.57159">
        <ele>617</ele>
        <time>2022-02-15T08:55:14.000Z</time>
      </trkpt>
      <trkpt lat="43.53162" lon="5.57159">
        <ele>617</ele>
        <time>2022-02-15T08:55:15.000Z</time>
      </trkpt>
      <trkpt lat="43.53162" lon="5.57159">
        <ele>617</ele>
        <time>2022-02-15T08:55:16.000Z</time>
      </trkpt>
      <trkpt lat="43.53162" lon="5.57159">
        <ele>617</ele>
        <time>2022-02-15T08:55:17.000Z</time>
      </trkpt>
      <trkpt lat="43.53162" lon="5.57159">
        <ele>617</ele>
        <time>2022-02-15T08:55:18.000Z</time>
      </trkpt>
      <trkpt lat="43.53162" lon="5.57159">
        <ele>617</ele>
        <time>2022-02-15T08:55:19.000Z</time>
      </trkpt>
      <trkpt lat="43.53162" lon="5.57159">
        <ele>617</ele>
        <time>2022-02-15T08:55:20.000Z</time>
      </trkpt>
      <trkpt lat="43.53162" lon="5.57159">
        <ele>617</ele>
        <time>2022-02-15T08:55:21.000Z</time>
      </trkpt>
      <trkpt lat="43.53162" lon="5.57159">
        <ele>617</ele>
        <time>2022-02-15T08:55:22.000Z</time>
      </trkpt>
      <trkpt lat="43.53162" lon="5.57159">
        <ele>617</ele>
        <time>2022-02-15T08:55:23.000Z</time>
      </trkpt>
      <trkpt lat="43.53162" lon="5.57159">
        <ele>617</ele>
        <time>2022-02-15T08:55:24.000Z</time>
      </trkpt>
      <trkpt lat="43.53162" lon="5.57159">
        <ele>617</ele>
        <time>2022-02-15T08:55:25.000Z</time>
      </trkpt>
      <trkpt lat="43.53162" lon="5.57159">
        <ele>617</ele>
        <time>2022-02-15T08:55:26.000Z</time>
      </trkpt>
      <trkpt lat="43.53162" lon="5.57159">
        <ele>617</ele>
        <time>2022-02-15T08:55:27.000Z</time>
      </trkpt>
      <trkpt lat="43.53162" lon="5.57159">
        <ele>617</ele>
        <time>2022-02-15T08:55:28.000Z</time>
      </trkpt>
      <trkpt lat="43.53162" lon="5.57159">
        <ele>617</ele>
        <time>2022-02-15T08:55:29.000Z</time>
      </trkpt>
      <trkpt lat="43.53162" lon="5.57159">
        <ele>617</ele>
        <time>2022-02-15T08:55:30.000Z</time>
      </trkpt>
      <trkpt lat="43.53163" lon="5.57159">
        <ele>617</ele>
        <time>2022-02-15T08:55:31.000Z</time>
      </trkpt>
      <trkpt lat="43.53163" lon="5.5716">
        <ele>617</ele>
        <time>2022-02-15T08:55:32.000Z</time>
      </trkpt>
      <trkpt lat="43.53163" lon="5.5716">
        <ele>617</ele>
        <time>2022-02-15T08:55:33.000Z</time>
      </trkpt>
      <trkpt lat="43.53163" lon="5.57161">
        <ele>617</ele>
        <time>2022-02-15T08:55:34.000Z</time>
      </trkpt>
      <trkpt lat="43.53163" lon="5.57162">
        <ele>617</ele>
        <time>2022-02-15T08:55:35.000Z</time>
      </trkpt>
      <trkpt lat="43.53162" lon="5.57163">
        <ele>617</ele>
        <time>2022-02-15T08:55:36.000Z</time>
      </trkpt>
      <trkpt lat="43.53162" lon="5.57163">
        <ele>617</ele>
        <time>2022-02-15T08:55:37.000Z</time>
      </trkpt>
      <trkpt lat="43.53162" lon="5.57163">
        <ele>617</ele>
        <time>2022-02-15T08:55:38.000Z</time>
      </trkpt>
      <trkpt lat="43.53162" lon="5.57163">
        <ele>617</ele>
        <time>2022-02-15T08:55:39.000Z</time>
      </trkpt>
      <trkpt lat="43.53161" lon="5.57163">
        <ele>617</ele>
        <time>2022-02-15T08:55:40.000Z</time>
      </trkpt>
      <trkpt lat="43.53161" lon="5.57163">
        <ele>617</ele>
        <time>2022-02-15T08:55:41.000Z</time>
      </trkpt>
      <trkpt lat="43.53161" lon="5.57164">
        <ele>618</ele>
        <time>2022-02-15T08:55:42.000Z</time>
      </trkpt>
      <trkpt lat="43.53161" lon="5.57164">
        <ele>618</ele>
        <time>2022-02-15T08:55:43.000Z</time>
      </trkpt>
      <trkpt lat="43.53161" lon="5.57165">
        <ele>618</ele>
        <time>2022-02-15T08:55:44.000Z</time>
      </trkpt>
      <trkpt lat="43.5316" lon="5.57165">
        <ele>618</ele>
        <time>2022-02-15T08:55:45.000Z</time>
      </trkpt>
      <trkpt lat="43.5316" lon="5.57165">
        <ele>618</ele>
        <time>2022-02-15T08:55:46.000Z</time>
      </trkpt>
      <trkpt lat="43.5316" lon="5.57166">
        <ele>618</ele>
        <time>2022-02-15T08:55:47.000Z</time>
      </trkpt>
      <trkpt lat="43.53159" lon="5.57166">
        <ele>618</ele>
        <time>2022-02-15T08:55:48.000Z</time>
      </trkpt>
      <trkpt lat="43.53158" lon="5.57167">
        <ele>618</ele>
        <time>2022-02-15T08:55:49.000Z</time>
      </trkpt>
      <trkpt lat="43.53157" lon="5.57167">
        <ele>618</ele>
        <time>2022-02-15T08:55:50.000Z</time>
      </trkpt>
      <trkpt lat="43.53156" lon="5.57168">
        <ele>618</ele>
        <time>2022-02-15T08:55:51.000Z</time>
      </trkpt>
      <trkpt lat="43.53156" lon="5.57168">
        <ele>618</ele>
        <time>2022-02-15T08:55:52.000Z</time>
      </trkpt>
      <trkpt lat="43.53155" lon="5.57168">
        <ele>618</ele>
        <time>2022-02-15T08:55:53.000Z</time>
      </trkpt>
      <trkpt lat="43.53155" lon="5.57169">
        <ele>618</ele>
        <time>2022-02-15T08:55:54.000Z</time>
      </trkpt>
      <trkpt lat="43.53155" lon="5.57169">
        <ele>618</ele>
        <time>2022-02-15T08:55:55.000Z</time>
      </trkpt>
      <trkpt lat="43.53156" lon="5.57169">
        <ele>618</ele>
        <time>2022-02-15T08:55:56.000Z</time>
      </trkpt>
      <trkpt lat="43.53156" lon="5.5717">
        <ele>618</ele>
        <time>2022-02-15T08:55:57.000Z</time>
      </trkpt>
      <trkpt lat="43.53155" lon="5.57171">
        <ele>618</ele>
        <time>2022-02-15T08:55:58.000Z</time>
      </trkpt>
      <trkpt lat="43.53155" lon="5.57172">
        <ele>618</ele>
        <time>2022-02-15T08:55:59.000Z</time>
      </trkpt>
      <trkpt lat="43.53154" lon="5.57172">
        <ele>619</ele>
        <time>2022-02-15T08:56:00.000Z</time>
      </trkpt>
      <trkpt lat="43.53153" lon="5.57173">
        <ele>619</ele>
        <time>2022-02-15T08:56:01.000Z</time>
      </trkpt>
      <trkpt lat="43.53152" lon="5.57173">
        <ele>619</ele>
        <time>2022-02-15T08:56:02.000Z</time>
      </trkpt>
      <trkpt lat="43.53152" lon="5.57174">
        <ele>619</ele>
        <time>2022-02-15T08:56:03.000Z</time>
      </trkpt>
      <trkpt lat="43.53151" lon="5.57175">
        <ele>619</ele>
        <time>2022-02-15T08:56:04.000Z</time>
      </trkpt>
      <trkpt lat="43.5315" lon="5.57175">
        <ele>619</ele>
        <time>2022-02-15T08:56:05.000Z</time>
      </trkpt>
      <trkpt lat="43.5315" lon="5.57176">
        <ele>619</ele>
        <time>2022-02-15T08:56:06.000Z</time>
      </trkpt>
      <trkpt lat="43.53149" lon="5.57177">
        <ele>619</ele>
        <time>2022-02-15T08:56:07.000Z</time>
      </trkpt>
      <trkpt lat="43.53148" lon="5.57178">
        <ele>619</ele>
        <time>2022-02-15T08:56:08.000Z</time>
      </trkpt>
      <trkpt lat="43.53148" lon="5.57179">
        <ele>620</ele>
        <time>2022-02-15T08:56:09.000Z</time>
      </trkpt>
      <trkpt lat="43.53147" lon="5.5718">
        <ele>620</ele>
        <time>2022-02-15T08:56:10.000Z</time>
      </trkpt>
      <trkpt lat="43.53147" lon="5.5718">
        <ele>620</ele>
        <time>2022-02-15T08:56:11.000Z</time>
      </trkpt>
      <trkpt lat="43.53146" lon="5.5718">
        <ele>620</ele>
        <time>2022-02-15T08:56:12.000Z</time>
      </trkpt>
      <trkpt lat="43.53146" lon="5.5718">
        <ele>620</ele>
        <time>2022-02-15T08:56:13.000Z</time>
      </trkpt>
      <trkpt lat="43.53146" lon="5.57181">
        <ele>620</ele>
        <time>2022-02-15T08:56:14.000Z</time>
      </trkpt>
      <trkpt lat="43.53145" lon="5.57181">
        <ele>620</ele>
        <time>2022-02-15T08:56:15.000Z</time>
      </trkpt>
      <trkpt lat="43.53144" lon="5.57182">
        <ele>620</ele>
        <time>2022-02-15T08:56:16.000Z</time>
      </trkpt>
      <trkpt lat="43.53143" lon="5.57183">
        <ele>620</ele>
        <time>2022-02-15T08:56:17.000Z</time>
      </trkpt>
      <trkpt lat="43.53142" lon="5.57184">
        <ele>620</ele>
        <time>2022-02-15T08:56:18.000Z</time>
      </trkpt>
      <trkpt lat="43.53141" lon="5.57185">
        <ele>620</ele>
        <time>2022-02-15T08:56:19.000Z</time>
      </trkpt>
      <trkpt lat="43.5314" lon="5.57185">
        <ele>620</ele>
        <time>2022-02-15T08:56:20.000Z</time>
      </trkpt>
      <trkpt lat="43.5314" lon="5.57186">
        <ele>621</ele>
        <time>2022-02-15T08:56:21.000Z</time>
      </trkpt>
      <trkpt lat="43.53139" lon="5.57186">
        <ele>621</ele>
        <time>2022-02-15T08:56:22.000Z</time>
      </trkpt>
      <trkpt lat="43.53139" lon="5.57187">
        <ele>621</ele>
        <time>2022-02-15T08:56:23.000Z</time>
      </trkpt>
      <trkpt lat="43.53139" lon="5.57187">
        <ele>621</ele>
        <time>2022-02-15T08:56:24.000Z</time>
      </trkpt>
      <trkpt lat="43.53138" lon="5.57188">
        <ele>621</ele>
        <time>2022-02-15T08:56:25.000Z</time>
      </trkpt>
      <trkpt lat="43.53137" lon="5.57188">
        <ele>622</ele>
        <time>2022-02-15T08:56:26.000Z</time>
      </trkpt>
      <trkpt lat="43.53137" lon="5.57188">
        <ele>622</ele>
        <time>2022-02-15T08:56:27.000Z</time>
      </trkpt>
      <trkpt lat="43.53136" lon="5.57189">
        <ele>622</ele>
        <time>2022-02-15T08:56:28.000Z</time>
      </trkpt>
      <trkpt lat="43.53136" lon="5.57189">
        <ele>622</ele>
        <time>2022-02-15T08:56:29.000Z</time>
      </trkpt>
      <trkpt lat="43.53135" lon="5.57189">
        <ele>622</ele>
        <time>2022-02-15T08:56:30.000Z</time>
      </trkpt>
      <trkpt lat="43.53135" lon="5.5719">
        <ele>622</ele>
        <time>2022-02-15T08:56:31.000Z</time>
      </trkpt>
      <trkpt lat="43.53134" lon="5.5719">
        <ele>622</ele>
        <time>2022-02-15T08:56:32.000Z</time>
      </trkpt>
      <trkpt lat="43.53133" lon="5.57191">
        <ele>622</ele>
        <time>2022-02-15T08:56:33.000Z</time>
      </trkpt>
      <trkpt lat="43.53132" lon="5.57191">
        <ele>622</ele>
        <time>2022-02-15T08:56:34.000Z</time>
      </trkpt>
      <trkpt lat="43.53131" lon="5.57191">
        <ele>622</ele>
        <time>2022-02-15T08:56:35.000Z</time>
      </trkpt>
      <trkpt lat="43.53131" lon="5.57191">
        <ele>623</ele>
        <time>2022-02-15T08:56:36.000Z</time>
      </trkpt>
      <trkpt lat="43.53131" lon="5.5719">
        <ele>623</ele>
        <time>2022-02-15T08:56:37.000Z</time>
      </trkpt>
      <trkpt lat="43.53131" lon="5.5719">
        <ele>623</ele>
        <time>2022-02-15T08:56:38.000Z</time>
      </trkpt>
      <trkpt lat="43.53131" lon="5.5719">
        <ele>623</ele>
        <time>2022-02-15T08:56:39.000Z</time>
      </trkpt>
      <trkpt lat="43.53131" lon="5.5719">
        <ele>623</ele>
        <time>2022-02-15T08:56:40.000Z</time>
      </trkpt>
      <trkpt lat="43.53131" lon="5.5719">
        <ele>623</ele>
        <time>2022-02-15T08:56:41.000Z</time>
      </trkpt>
      <trkpt lat="43.53131" lon="5.5719">
        <ele>623</ele>
        <time>2022-02-15T08:56:42.000Z</time>
      </trkpt>
      <trkpt lat="43.53131" lon="5.57189">
        <ele>623</ele>
        <time>2022-02-15T08:56:43.000Z</time>
      </trkpt>
      <trkpt lat="43.53131" lon="5.57189">
        <ele>623</ele>
        <time>2022-02-15T08:56:44.000Z</time>
      </trkpt>
      <trkpt lat="43.53131" lon="5.57189">
        <ele>623</ele>
        <time>2022-02-15T08:56:45.000Z</time>
      </trkpt>
      <trkpt lat="43.53131" lon="5.57189">
        <ele>623</ele>
        <time>2022-02-15T08:56:46.000Z</time>
      </trkpt>
      <trkpt lat="43.53131" lon="5.57188">
        <ele>623</ele>
        <time>2022-02-15T08:56:47.000Z</time>
      </trkpt>
      <trkpt lat="43.53131" lon="5.57188">
        <ele>623</ele>
        <time>2022-02-15T08:56:48.000Z</time>
      </trkpt>
      <trkpt lat="43.53131" lon="5.57187">
        <ele>623</ele>
        <time>2022-02-15T08:56:49.000Z</time>
      </trkpt>
      <trkpt lat="43.53131" lon="5.57186">
        <ele>623</ele>
        <time>2022-02-15T08:56:50.000Z</time>
      </trkpt>
      <trkpt lat="43.53131" lon="5.57185">
        <ele>623</ele>
        <time>2022-02-15T08:56:51.000Z</time>
      </trkpt>
      <trkpt lat="43.53132" lon="5.57185">
        <ele>623</ele>
        <time>2022-02-15T08:56:52.000Z</time>
      </trkpt>
      <trkpt lat="43.53132" lon="5.57184">
        <ele>623</ele>
        <time>2022-02-15T08:56:53.000Z</time>
      </trkpt>
      <trkpt lat="43.53132" lon="5.57183">
        <ele>623</ele>
        <time>2022-02-15T08:56:54.000Z</time>
      </trkpt>
      <trkpt lat="43.53133" lon="5.57182">
        <ele>623</ele>
        <time>2022-02-15T08:56:55.000Z</time>
      </trkpt>
      <trkpt lat="43.53133" lon="5.57181">
        <ele>623</ele>
        <time>2022-02-15T08:56:56.000Z</time>
      </trkpt>
      <trkpt lat="43.53134" lon="5.57179">
        <ele>623</ele>
        <time>2022-02-15T08:56:57.000Z</time>
      </trkpt>
      <trkpt lat="43.53134" lon="5.57178">
        <ele>623</ele>
        <time>2022-02-15T08:56:58.000Z</time>
      </trkpt>
      <trkpt lat="43.53135" lon="5.57177">
        <ele>623</ele>
        <time>2022-02-15T08:56:59.000Z</time>
      </trkpt>
      <trkpt lat="43.53136" lon="5.57177">
        <ele>623</ele>
        <time>2022-02-15T08:57:00.000Z</time>
      </trkpt>
      <trkpt lat="43.53136" lon="5.57177">
        <ele>623</ele>
        <time>2022-02-15T08:57:01.000Z</time>
      </trkpt>
      <trkpt lat="43.53137" lon="5.57177">
        <ele>623</ele>
        <time>2022-02-15T08:57:02.000Z</time>
      </trkpt>
      <trkpt lat="43.53137" lon="5.57176">
        <ele>622</ele>
        <time>2022-02-15T08:57:03.000Z</time>
      </trkpt>
      <trkpt lat="43.53138" lon="5.57175">
        <ele>622</ele>
        <time>2022-02-15T08:57:04.000Z</time>
      </trkpt>
      <trkpt lat="43.53138" lon="5.57174">
        <ele>622</ele>
        <time>2022-02-15T08:57:05.000Z</time>
      </trkpt>
      <trkpt lat="43.53138" lon="5.57173">
        <ele>622</ele>
        <time>2022-02-15T08:57:06.000Z</time>
      </trkpt>
      <trkpt lat="43.53139" lon="5.57172">
        <ele>622</ele>
        <time>2022-02-15T08:57:07.000Z</time>
      </trkpt>
      <trkpt lat="43.53139" lon="5.57172">
        <ele>622</ele>
        <time>2022-02-15T08:57:08.000Z</time>
      </trkpt>
      <trkpt lat="43.5314" lon="5.57171">
        <ele>621</ele>
        <time>2022-02-15T08:57:09.000Z</time>
      </trkpt>
      <trkpt lat="43.5314" lon="5.57169">
        <ele>621</ele>
        <time>2022-02-15T08:57:10.000Z</time>
      </trkpt>
      <trkpt lat="43.53141" lon="5.57168">
        <ele>621</ele>
        <time>2022-02-15T08:57:11.000Z</time>
      </trkpt>
      <trkpt lat="43.53142" lon="5.57168">
        <ele>621</ele>
        <time>2022-02-15T08:57:12.000Z</time>
      </trkpt>
      <trkpt lat="43.53142" lon="5.57168">
        <ele>621</ele>
        <time>2022-02-15T08:57:13.000Z</time>
      </trkpt>
      <trkpt lat="43.53143" lon="5.57167">
        <ele>620</ele>
        <time>2022-02-15T08:57:14.000Z</time>
      </trkpt>
      <trkpt lat="43.53144" lon="5.57167">
        <ele>620</ele>
        <time>2022-02-15T08:57:15.000Z</time>
      </trkpt>
      <trkpt lat="43.53144" lon="5.57166">
        <ele>620</ele>
        <time>2022-02-15T08:57:16.000Z</time>
      </trkpt>
      <trkpt lat="43.53145" lon="5.57165">
        <ele>620</ele>
        <time>2022-02-15T08:57:17.000Z</time>
      </trkpt>
      <trkpt lat="43.53146" lon="5.57164">
        <ele>620</ele>
        <time>2022-02-15T08:57:18.000Z</time>
      </trkpt>
      <trkpt lat="43.53147" lon="5.57164">
        <ele>619</ele>
        <time>2022-02-15T08:57:19.000Z</time>
      </trkpt>
      <trkpt lat="43.53148" lon="5.57164">
        <ele>619</ele>
        <time>2022-02-15T08:57:20.000Z</time>
      </trkpt>
      <trkpt lat="43.53148" lon="5.57163">
        <ele>620</ele>
        <time>2022-02-15T08:57:21.000Z</time>
      </trkpt>
      <trkpt lat="43.53149" lon="5.57163">
        <ele>620</ele>
        <time>2022-02-15T08:57:22.000Z</time>
      </trkpt>
      <trkpt lat="43.5315" lon="5.57163">
        <ele>620</ele>
        <time>2022-02-15T08:57:23.000Z</time>
      </trkpt>
      <trkpt lat="43.53151" lon="5.57162">
        <ele>620</ele>
        <time>2022-02-15T08:57:24.000Z</time>
      </trkpt>
      <trkpt lat="43.53151" lon="5.57162">
        <ele>619</ele>
        <time>2022-02-15T08:57:25.000Z</time>
      </trkpt>
      <trkpt lat="43.53152" lon="5.57162">
        <ele>619</ele>
        <time>2022-02-15T08:57:26.000Z</time>
      </trkpt>
      <trkpt lat="43.53153" lon="5.57161">
        <ele>619</ele>
        <time>2022-02-15T08:57:27.000Z</time>
      </trkpt>
      <trkpt lat="43.53154" lon="5.57161">
        <ele>619</ele>
        <time>2022-02-15T08:57:28.000Z</time>
      </trkpt>
      <trkpt lat="43.53155" lon="5.5716">
        <ele>619</ele>
        <time>2022-02-15T08:57:29.000Z</time>
      </trkpt>
      <trkpt lat="43.53155" lon="5.5716">
        <ele>619</ele>
        <time>2022-02-15T08:57:30.000Z</time>
      </trkpt>
      <trkpt lat="43.53156" lon="5.5716">
        <ele>619</ele>
        <time>2022-02-15T08:57:31.000Z</time>
      </trkpt>
      <trkpt lat="43.53156" lon="5.5716">
        <ele>619</ele>
        <time>2022-02-15T08:57:32.000Z</time>
      </trkpt>
      <trkpt lat="43.53156" lon="5.5716">
        <ele>619</ele>
        <time>2022-02-15T08:57:33.000Z</time>
      </trkpt>
      <trkpt lat="43.53156" lon="5.5716">
        <ele>619</ele>
        <time>2022-02-15T08:57:34.000Z</time>
      </trkpt>
      <trkpt lat="43.53156" lon="5.5716">
        <ele>619</ele>
        <time>2022-02-15T08:57:35.000Z</time>
      </trkpt>
      <trkpt lat="43.53156" lon="5.5716">
        <ele>619</ele>
        <time>2022-02-15T08:57:36.000Z</time>
      </trkpt>
      <trkpt lat="43.53156" lon="5.57159">
        <ele>619</ele>
        <time>2022-02-15T08:57:37.000Z</time>
      </trkpt>
      <trkpt lat="43.53157" lon="5.57159">
        <ele>619</ele>
        <time>2022-02-15T08:57:38.000Z</time>
      </trkpt>
      <trkpt lat="43.53157" lon="5.57159">
        <ele>619</ele>
        <time>2022-02-15T08:57:39.000Z</time>
      </trkpt>
      <trkpt lat="43.53158" lon="5.57158">
        <ele>619</ele>
        <time>2022-02-15T08:57:40.000Z</time>
      </trkpt>
      <trkpt lat="43.53158" lon="5.57157">
        <ele>619</ele>
        <time>2022-02-15T08:57:41.000Z</time>
      </trkpt>
      <trkpt lat="43.53159" lon="5.57157">
        <ele>618</ele>
        <time>2022-02-15T08:57:42.000Z</time>
      </trkpt>
      <trkpt lat="43.53159" lon="5.57157">
        <ele>618</ele>
        <time>2022-02-15T08:57:43.000Z</time>
      </trkpt>
      <trkpt lat="43.5316" lon="5.57157">
        <ele>618</ele>
        <time>2022-02-15T08:57:44.000Z</time>
      </trkpt>
      <trkpt lat="43.5316" lon="5.57156">
        <ele>618</ele>
        <time>2022-02-15T08:57:45.000Z</time>
      </trkpt>
      <trkpt lat="43.53161" lon="5.57156">
        <ele>618</ele>
        <time>2022-02-15T08:57:46.000Z</time>
      </trkpt>
      <trkpt lat="43.53161" lon="5.57156">
        <ele>618</ele>
        <time>2022-02-15T08:57:47.000Z</time>
      </trkpt>
      <trkpt lat="43.53161" lon="5.57155">
        <ele>617</ele>
        <time>2022-02-15T08:57:48.000Z</time>
      </trkpt>
      <trkpt lat="43.53161" lon="5.57155">
        <ele>617</ele>
        <time>2022-02-15T08:57:49.000Z</time>
      </trkpt>
      <trkpt lat="43.53162" lon="5.57154">
        <ele>617</ele>
        <time>2022-02-15T08:57:50.000Z</time>
      </trkpt>
      <trkpt lat="43.53162" lon="5.57153">
        <ele>617</ele>
        <time>2022-02-15T08:57:51.000Z</time>
      </trkpt>
      <trkpt lat="43.53162" lon="5.57153">
        <ele>617</ele>
        <time>2022-02-15T08:57:52.000Z</time>
      </trkpt>
      <trkpt lat="43.53163" lon="5.57152">
        <ele>617</ele>
        <time>2022-02-15T08:57:53.000Z</time>
      </trkpt>
      <trkpt lat="43.53163" lon="5.57152">
        <ele>617</ele>
        <time>2022-02-15T08:57:54.000Z</time>
      </trkpt>
      <trkpt lat="43.53163" lon="5.57151">
        <ele>617</ele>
        <time>2022-02-15T08:57:55.000Z</time>
      </trkpt>
      <trkpt lat="43.53163" lon="5.57151">
        <ele>617</ele>
        <time>2022-02-15T08:57:56.000Z</time>
      </trkpt>
      <trkpt lat="43.53163" lon="5.5715">
        <ele>616</ele>
        <time>2022-02-15T08:57:57.000Z</time>
      </trkpt>
      <trkpt lat="43.53163" lon="5.57149">
        <ele>616</ele>
        <time>2022-02-15T08:57:58.000Z</time>
      </trkpt>
      <trkpt lat="43.53163" lon="5.57149">
        <ele>616</ele>
        <time>2022-02-15T08:57:59.000Z</time>
      </trkpt>
      <trkpt lat="43.53163" lon="5.57148">
        <ele>616</ele>
        <time>2022-02-15T08:58:00.000Z</time>
      </trkpt>
      <trkpt lat="43.53163" lon="5.57147">
        <ele>616</ele>
        <time>2022-02-15T08:58:01.000Z</time>
      </trkpt>
      <trkpt lat="43.53164" lon="5.57146">
        <ele>616</ele>
        <time>2022-02-15T08:58:02.000Z</time>
      </trkpt>
      <trkpt lat="43.53164" lon="5.57146">
        <ele>616</ele>
        <time>2022-02-15T08:58:03.000Z</time>
      </trkpt>
      <trkpt lat="43.53165" lon="5.57145">
        <ele>616</ele>
        <time>2022-02-15T08:58:04.000Z</time>
      </trkpt>
      <trkpt lat="43.53165" lon="5.57144">
        <ele>615</ele>
        <time>2022-02-15T08:58:05.000Z</time>
      </trkpt>
      <trkpt lat="43.53166" lon="5.57144">
        <ele>615</ele>
        <time>2022-02-15T08:58:06.000Z</time>
      </trkpt>
      <trkpt lat="43.53166" lon="5.57143">
        <ele>615</ele>
        <time>2022-02-15T08:58:07.000Z</time>
      </trkpt>
      <trkpt lat="43.53167" lon="5.57142">
        <ele>615</ele>
        <time>2022-02-15T08:58:08.000Z</time>
      </trkpt>
      <trkpt lat="43.53168" lon="5.57142">
        <ele>614</ele>
        <time>2022-02-15T08:58:09.000Z</time>
      </trkpt>
      <trkpt lat="43.53169" lon="5.57141">
        <ele>614</ele>
        <time>2022-02-15T08:58:10.000Z</time>
      </trkpt>
      <trkpt lat="43.5317" lon="5.57141">
        <ele>614</ele>
        <time>2022-02-15T08:58:11.000Z</time>
      </trkpt>
      <trkpt lat="43.53171" lon="5.57141">
        <ele>614</ele>
        <time>2022-02-15T08:58:12.000Z</time>
      </trkpt>
      <trkpt lat="43.53172" lon="5.57141">
        <ele>614</ele>
        <time>2022-02-15T08:58:13.000Z</time>
      </trkpt>
      <trkpt lat="43.53172" lon="5.57141">
        <ele>614</ele>
        <time>2022-02-15T08:58:14.000Z</time>
      </trkpt>
      <trkpt lat="43.53173" lon="5.5714">
        <ele>614</ele>
        <time>2022-02-15T08:58:15.000Z</time>
      </trkpt>
      <trkpt lat="43.53174" lon="5.57139">
        <ele>614</ele>
        <time>2022-02-15T08:58:16.000Z</time>
      </trkpt>
      <trkpt lat="43.53175" lon="5.57139">
        <ele>614</ele>
        <time>2022-02-15T08:58:17.000Z</time>
      </trkpt>
      <trkpt lat="43.53175" lon="5.57139">
        <ele>614</ele>
        <time>2022-02-15T08:58:18.000Z</time>
      </trkpt>
      <trkpt lat="43.53175" lon="5.57139">
        <ele>614</ele>
        <time>2022-02-15T08:58:19.000Z</time>
      </trkpt>
      <trkpt lat="43.53176" lon="5.57139">
        <ele>614</ele>
        <time>2022-02-15T08:58:20.000Z</time>
      </trkpt>
      <trkpt lat="43.53176" lon="5.57139">
        <ele>614</ele>
        <time>2022-02-15T08:58:21.000Z</time>
      </trkpt>
      <trkpt lat="43.53177" lon="5.57139">
        <ele>614</ele>
        <time>2022-02-15T08:58:22.000Z</time>
      </trkpt>
      <trkpt lat="43.53178" lon="5.57139">
        <ele>613</ele>
        <time>2022-02-15T08:58:23.000Z</time>
      </trkpt>
      <trkpt lat="43.53179" lon="5.57139">
        <ele>613</ele>
        <time>2022-02-15T08:58:24.000Z</time>
      </trkpt>
      <trkpt lat="43.53179" lon="5.57139">
        <ele>613</ele>
        <time>2022-02-15T08:58:25.000Z</time>
      </trkpt>
      <trkpt lat="43.5318" lon="5.57139">
        <ele>613</ele>
        <time>2022-02-15T08:58:26.000Z</time>
      </trkpt>
      <trkpt lat="43.53181" lon="5.57139">
        <ele>613</ele>
        <time>2022-02-15T08:58:27.000Z</time>
      </trkpt>
      <trkpt lat="43.53182" lon="5.57139">
        <ele>613</ele>
        <time>2022-02-15T08:58:28.000Z</time>
      </trkpt>
      <trkpt lat="43.53183" lon="5.57139">
        <ele>613</ele>
        <time>2022-02-15T08:58:29.000Z</time>
      </trkpt>
      <trkpt lat="43.53183" lon="5.57139">
        <ele>613</ele>
        <time>2022-02-15T08:58:30.000Z</time>
      </trkpt>
      <trkpt lat="43.53184" lon="5.57139">
        <ele>613</ele>
        <time>2022-02-15T08:58:31.000Z</time>
      </trkpt>
      <trkpt lat="43.53185" lon="5.57139">
        <ele>613</ele>
        <time>2022-02-15T08:58:32.000Z</time>
      </trkpt>
      <trkpt lat="43.53185" lon="5.57139">
        <ele>612</ele>
        <time>2022-02-15T08:58:33.000Z</time>
      </trkpt>
      <trkpt lat="43.53186" lon="5.57139">
        <ele>612</ele>
        <time>2022-02-15T08:58:34.000Z</time>
      </trkpt>
      <trkpt lat="43.53186" lon="5.57139">
        <ele>612</ele>
        <time>2022-02-15T08:58:35.000Z</time>
      </trkpt>
      <trkpt lat="43.53187" lon="5.57139">
        <ele>612</ele>
        <time>2022-02-15T08:58:36.000Z</time>
      </trkpt>
      <trkpt lat="43.53187" lon="5.57139">
        <ele>612</ele>
        <time>2022-02-15T08:58:37.000Z</time>
      </trkpt>
      <trkpt lat="43.53188" lon="5.57139">
        <ele>612</ele>
        <time>2022-02-15T08:58:38.000Z</time>
      </trkpt>
      <trkpt lat="43.53188" lon="5.57139">
        <ele>612</ele>
        <time>2022-02-15T08:58:39.000Z</time>
      </trkpt>
      <trkpt lat="43.53189" lon="5.57139">
        <ele>612</ele>
        <time>2022-02-15T08:58:40.000Z</time>
      </trkpt>
      <trkpt lat="43.53189" lon="5.57138">
        <ele>612</ele>
        <time>2022-02-15T08:58:41.000Z</time>
      </trkpt>
      <trkpt lat="43.5319" lon="5.57138">
        <ele>612</ele>
        <time>2022-02-15T08:58:42.000Z</time>
      </trkpt>
      <trkpt lat="43.5319" lon="5.57137">
        <ele>612</ele>
        <time>2022-02-15T08:58:43.000Z</time>
      </trkpt>
      <trkpt lat="43.53191" lon="5.57137">
        <ele>612</ele>
        <time>2022-02-15T08:58:44.000Z</time>
      </trkpt>
      <trkpt lat="43.53191" lon="5.57136">
        <ele>612</ele>
        <time>2022-02-15T08:58:45.000Z</time>
      </trkpt>
      <trkpt lat="43.53192" lon="5.57136">
        <ele>611</ele>
        <time>2022-02-15T08:58:46.000Z</time>
      </trkpt>
      <trkpt lat="43.53193" lon="5.57135">
        <ele>611</ele>
        <time>2022-02-15T08:58:47.000Z</time>
      </trkpt>
      <trkpt lat="43.53193" lon="5.57136">
        <ele>611</ele>
        <time>2022-02-15T08:58:48.000Z</time>
      </trkpt>
      <trkpt lat="43.53193" lon="5.57136">
        <ele>611</ele>
        <time>2022-02-15T08:58:49.000Z</time>
      </trkpt>
      <trkpt lat="43.53194" lon="5.57136">
        <ele>611</ele>
        <time>2022-02-15T08:58:50.000Z</time>
      </trkpt>
      <trkpt lat="43.53194" lon="5.57135">
        <ele>611</ele>
        <time>2022-02-15T08:58:51.000Z</time>
      </trkpt>
      <trkpt lat="43.53194" lon="5.57135">
        <ele>611</ele>
        <time>2022-02-15T08:58:52.000Z</time>
      </trkpt>
      <trkpt lat="43.53194" lon="5.57134">
        <ele>611</ele>
        <time>2022-02-15T08:58:53.000Z</time>
      </trkpt>
      <trkpt lat="43.53194" lon="5.57134">
        <ele>611</ele>
        <time>2022-02-15T08:58:54.000Z</time>
      </trkpt>
      <trkpt lat="43.53195" lon="5.57133">
        <ele>611</ele>
        <time>2022-02-15T08:58:55.000Z</time>
      </trkpt>
      <trkpt lat="43.53195" lon="5.57132">
        <ele>611</ele>
        <time>2022-02-15T08:58:56.000Z</time>
      </trkpt>
      <trkpt lat="43.53195" lon="5.57132">
        <ele>611</ele>
        <time>2022-02-15T08:58:57.000Z</time>
      </trkpt>
      <trkpt lat="43.53196" lon="5.57132">
        <ele>611</ele>
        <time>2022-02-15T08:58:58.000Z</time>
      </trkpt>
      <trkpt lat="43.53196" lon="5.57132">
        <ele>611</ele>
        <time>2022-02-15T08:58:59.000Z</time>
      </trkpt>
      <trkpt lat="43.53197" lon="5.57132">
        <ele>611</ele>
        <time>2022-02-15T08:59:00.000Z</time>
      </trkpt>
      <trkpt lat="43.53198" lon="5.57131">
        <ele>611</ele>
        <time>2022-02-15T08:59:01.000Z</time>
      </trkpt>
      <trkpt lat="43.53198" lon="5.5713">
        <ele>611</ele>
        <time>2022-02-15T08:59:02.000Z</time>
      </trkpt>
      <trkpt lat="43.53199" lon="5.5713">
        <ele>611</ele>
        <time>2022-02-15T08:59:03.000Z</time>
      </trkpt>
      <trkpt lat="43.532" lon="5.57129">
        <ele>611</ele>
        <time>2022-02-15T08:59:04.000Z</time>
      </trkpt>
      <trkpt lat="43.532" lon="5.57128">
        <ele>611</ele>
        <time>2022-02-15T08:59:05.000Z</time>
      </trkpt>
      <trkpt lat="43.53201" lon="5.57128">
        <ele>611</ele>
        <time>2022-02-15T08:59:06.000Z</time>
      </trkpt>
      <trkpt lat="43.53201" lon="5.57127">
        <ele>610</ele>
        <time>2022-02-15T08:59:07.000Z</time>
      </trkpt>
      <trkpt lat="43.53202" lon="5.57126">
        <ele>610</ele>
        <time>2022-02-15T08:59:08.000Z</time>
      </trkpt>
      <trkpt lat="43.53203" lon="5.57126">
        <ele>610</ele>
        <time>2022-02-15T08:59:09.000Z</time>
      </trkpt>
      <trkpt lat="43.53203" lon="5.57126">
        <ele>610</ele>
        <time>2022-02-15T08:59:10.000Z</time>
      </trkpt>
      <trkpt lat="43.53204" lon="5.57126">
        <ele>610</ele>
        <time>2022-02-15T08:59:11.000Z</time>
      </trkpt>
      <trkpt lat="43.53205" lon="5.57126">
        <ele>610</ele>
        <time>2022-02-15T08:59:12.000Z</time>
      </trkpt>
      <trkpt lat="43.53206" lon="5.57126">
        <ele>610</ele>
        <time>2022-02-15T08:59:13.000Z</time>
      </trkpt>
      <trkpt lat="43.53206" lon="5.57126">
        <ele>610</ele>
        <time>2022-02-15T08:59:14.000Z</time>
      </trkpt>
      <trkpt lat="43.53207" lon="5.57125">
        <ele>610</ele>
        <time>2022-02-15T08:59:15.000Z</time>
      </trkpt>
      <trkpt lat="43.53208" lon="5.57125">
        <ele>610</ele>
        <time>2022-02-15T08:59:16.000Z</time>
      </trkpt>
      <trkpt lat="43.53208" lon="5.57125">
        <ele>609</ele>
        <time>2022-02-15T08:59:17.000Z</time>
      </trkpt>
      <trkpt lat="43.53209" lon="5.57125">
        <ele>609</ele>
        <time>2022-02-15T08:59:18.000Z</time>
      </trkpt>
      <trkpt lat="43.5321" lon="5.57125">
        <ele>609</ele>
        <time>2022-02-15T08:59:19.000Z</time>
      </trkpt>
      <trkpt lat="43.53211" lon="5.57125">
        <ele>609</ele>
        <time>2022-02-15T08:59:20.000Z</time>
      </trkpt>
      <trkpt lat="43.53212" lon="5.57125">
        <ele>609</ele>
        <time>2022-02-15T08:59:21.000Z</time>
      </trkpt>
      <trkpt lat="43.53213" lon="5.57124">
        <ele>609</ele>
        <time>2022-02-15T08:59:22.000Z</time>
      </trkpt>
      <trkpt lat="43.53213" lon="5.57124">
        <ele>609</ele>
        <time>2022-02-15T08:59:23.000Z</time>
      </trkpt>
      <trkpt lat="43.53214" lon="5.57124">
        <ele>609</ele>
        <time>2022-02-15T08:59:24.000Z</time>
      </trkpt>
      <trkpt lat="43.53215" lon="5.57124">
        <ele>609</ele>
        <time>2022-02-15T08:59:25.000Z</time>
      </trkpt>
      <trkpt lat="43.53215" lon="5.57123">
        <ele>609</ele>
        <time>2022-02-15T08:59:26.000Z</time>
      </trkpt>
      <trkpt lat="43.53216" lon="5.57123">
        <ele>609</ele>
        <time>2022-02-15T08:59:27.000Z</time>
      </trkpt>
      <trkpt lat="43.53217" lon="5.57123">
        <ele>609</ele>
        <time>2022-02-15T08:59:28.000Z</time>
      </trkpt>
      <trkpt lat="43.53217" lon="5.57123">
        <ele>609</ele>
        <time>2022-02-15T08:59:29.000Z</time>
      </trkpt>
      <trkpt lat="43.53217" lon="5.57122">
        <ele>609</ele>
        <time>2022-02-15T08:59:30.000Z</time>
      </trkpt>
      <trkpt lat="43.53218" lon="5.57121">
        <ele>609</ele>
        <time>2022-02-15T08:59:31.000Z</time>
      </trkpt>
      <trkpt lat="43.53218" lon="5.57121">
        <ele>609</ele>
        <time>2022-02-15T08:59:32.000Z</time>
      </trkpt>
      <trkpt lat="43.53219" lon="5.5712">
        <ele>609</ele>
        <time>2022-02-15T08:59:33.000Z</time>
      </trkpt>
      <trkpt lat="43.53219" lon="5.57119">
        <ele>609</ele>
        <time>2022-02-15T08:59:34.000Z</time>
      </trkpt>
      <trkpt lat="43.5322" lon="5.57118">
        <ele>609</ele>
        <time>2022-02-15T08:59:35.000Z</time>
      </trkpt>
      <trkpt lat="43.5322" lon="5.57118">
        <ele>609</ele>
        <time>2022-02-15T08:59:36.000Z</time>
      </trkpt>
      <trkpt lat="43.53221" lon="5.57117">
        <ele>608</ele>
        <time>2022-02-15T08:59:37.000Z</time>
      </trkpt>
      <trkpt lat="43.53221" lon="5.57116">
        <ele>608</ele>
        <time>2022-02-15T08:59:38.000Z</time>
      </trkpt>
      <trkpt lat="43.53222" lon="5.57115">
        <ele>608</ele>
        <time>2022-02-15T08:59:39.000Z</time>
      </trkpt>
      <trkpt lat="43.53223" lon="5.57116">
        <ele>608</ele>
        <time>2022-02-15T08:59:40.000Z</time>
      </trkpt>
      <trkpt lat="43.53224" lon="5.57116">
        <ele>608</ele>
        <time>2022-02-15T08:59:41.000Z</time>
      </trkpt>
      <trkpt lat="43.53224" lon="5.57116">
        <ele>608</ele>
        <time>2022-02-15T08:59:42.000Z</time>
      </trkpt>
      <trkpt lat="43.53225" lon="5.57116">
        <ele>608</ele>
        <time>2022-02-15T08:59:43.000Z</time>
      </trkpt>
      <trkpt lat="43.53226" lon="5.57117">
        <ele>608</ele>
        <time>2022-02-15T08:59:44.000Z</time>
      </trkpt>
      <trkpt lat="43.53226" lon="5.57117">
        <ele>608</ele>
        <time>2022-02-15T08:59:45.000Z</time>
      </trkpt>
      <trkpt lat="43.53227" lon="5.57118">
        <ele>608</ele>
        <time>2022-02-15T08:59:46.000Z</time>
      </trkpt>
      <trkpt lat="43.53227" lon="5.57119">
        <ele>608</ele>
        <time>2022-02-15T08:59:47.000Z</time>
      </trkpt>
      <trkpt lat="43.53227" lon="5.57119">
        <ele>608</ele>
        <time>2022-02-15T08:59:48.000Z</time>
      </trkpt>
      <trkpt lat="43.53228" lon="5.57119">
        <ele>608</ele>
        <time>2022-02-15T08:59:49.000Z</time>
      </trkpt>
      <trkpt lat="43.53228" lon="5.5712">
        <ele>608</ele>
        <time>2022-02-15T08:59:50.000Z</time>
      </trkpt>
      <trkpt lat="43.53228" lon="5.5712">
        <ele>608</ele>
        <time>2022-02-15T08:59:51.000Z</time>
      </trkpt>
      <trkpt lat="43.53228" lon="5.57119">
        <ele>608</ele>
        <time>2022-02-15T08:59:52.000Z</time>
      </trkpt>
      <trkpt lat="43.53228" lon="5.57119">
        <ele>608</ele>
        <time>2022-02-15T08:59:53.000Z</time>
      </trkpt>
      <trkpt lat="43.53228" lon="5.5712">
        <ele>608</ele>
        <time>2022-02-15T08:59:54.000Z</time>
      </trkpt>
      <trkpt lat="43.53228" lon="5.57119">
        <ele>608</ele>
        <time>2022-02-15T08:59:55.000Z</time>
      </trkpt>
      <trkpt lat="43.53228" lon="5.57119">
        <ele>608</ele>
        <time>2022-02-15T08:59:56.000Z</time>
      </trkpt>
      <trkpt lat="43.53228" lon="5.57119">
        <ele>608</ele>
        <time>2022-02-15T08:59:57.000Z</time>
      </trkpt>
      <trkpt lat="43.53228" lon="5.57119">
        <ele>608</ele>
        <time>2022-02-15T08:59:58.000Z</time>
      </trkpt>
      <trkpt lat="43.53228" lon="5.57119">
        <ele>608</ele>
        <time>2022-02-15T08:59:59.000Z</time>
      </trkpt>
      <trkpt lat="43.53228" lon="5.57119">
        <ele>608</ele>
        <time>2022-02-15T09:00:00.000Z</time>
      </trkpt>
      <trkpt lat="43.53228" lon="5.57119">
        <ele>608</ele>
        <time>2022-02-15T09:00:01.000Z</time>
      </trkpt>
      <trkpt lat="43.53228" lon="5.57119">
        <ele>608</ele>
        <time>2022-02-15T09:00:02.000Z</time>
      </trkpt>
      <trkpt lat="43.53228" lon="5.57119">
        <ele>608</ele>
        <time>2022-02-15T09:00:03.000Z</time>
      </trkpt>
      <trkpt lat="43.53229" lon="5.5712">
        <ele>608</ele>
        <time>2022-02-15T09:00:04.000Z</time>
      </trkpt>
      <trkpt lat="43.53229" lon="5.5712">
        <ele>608</ele>
        <time>2022-02-15T09:00:05.000Z</time>
      </trkpt>
      <trkpt lat="43.53229" lon="5.5712">
        <ele>608</ele>
        <time>2022-02-15T09:00:06.000Z</time>
      </trkpt>
      <trkpt lat="43.53229" lon="5.5712">
        <ele>608</ele>
        <time>2022-02-15T09:00:07.000Z</time>
      </trkpt>
      <trkpt lat="43.53229" lon="5.5712">
        <ele>608</ele>
        <time>2022-02-15T09:00:08.000Z</time>
      </trkpt>
      <trkpt lat="43.53229" lon="5.5712">
        <ele>608</ele>
        <time>2022-02-15T09:00:09.000Z</time>
      </trkpt>
      <trkpt lat="43.53229" lon="5.5712">
        <ele>608</ele>
        <time>2022-02-15T09:00:10.000Z</time>
      </trkpt>
      <trkpt lat="43.53229" lon="5.5712">
        <ele>608</ele>
        <time>2022-02-15T09:00:11.000Z</time>
      </trkpt>
      <trkpt lat="43.53229" lon="5.57121">
        <ele>608</ele>
        <time>2022-02-15T09:00:12.000Z</time>
      </trkpt>
      <trkpt lat="43.5323" lon="5.57121">
        <ele>608</ele>
        <time>2022-02-15T09:00:13.000Z</time>
      </trkpt>
      <trkpt lat="43.5323" lon="5.57121">
        <ele>608</ele>
        <time>2022-02-15T09:00:14.000Z</time>
      </trkpt>
      <trkpt lat="43.5323" lon="5.57121">
        <ele>608</ele>
        <time>2022-02-15T09:00:15.000Z</time>
      </trkpt>
      <trkpt lat="43.5323" lon="5.57121">
        <ele>608</ele>
        <time>2022-02-15T09:00:16.000Z</time>
      </trkpt>
      <trkpt lat="43.5323" lon="5.57121">
        <ele>608</ele>
        <time>2022-02-15T09:00:17.000Z</time>
      </trkpt>
      <trkpt lat="43.5323" lon="5.57121">
        <ele>608</ele>
        <time>2022-02-15T09:00:18.000Z</time>
      </trkpt>
      <trkpt lat="43.5323" lon="5.57121">
        <ele>608</ele>
        <time>2022-02-15T09:00:19.000Z</time>
      </trkpt>
      <trkpt lat="43.5323" lon="5.57121">
        <ele>608</ele>
        <time>2022-02-15T09:00:20.000Z</time>
      </trkpt>
      <trkpt lat="43.5323" lon="5.57121">
        <ele>608</ele>
        <time>2022-02-15T09:00:21.000Z</time>
      </trkpt>
      <trkpt lat="43.5323" lon="5.57121">
        <ele>608</ele>
        <time>2022-02-15T09:00:22.000Z</time>
      </trkpt>
      <trkpt lat="43.5323" lon="5.57121">
        <ele>608</ele>
        <time>2022-02-15T09:00:23.000Z</time>
      </trkpt>
      <trkpt lat="43.5323" lon="5.57121">
        <ele>608</ele>
        <time>2022-02-15T09:00:24.000Z</time>
      </trkpt>
      <trkpt lat="43.5323" lon="5.57121">
        <ele>608</ele>
        <time>2022-02-15T09:00:25.000Z</time>
      </trkpt>
      <trkpt lat="43.5323" lon="5.57121">
        <ele>608</ele>
        <time>2022-02-15T09:00:26.000Z</time>
      </trkpt>
      <trkpt lat="43.5323" lon="5.57121">
        <ele>608</ele>
        <time>2022-02-15T09:00:27.000Z</time>
      </trkpt>
      <trkpt lat="43.5323" lon="5.57121">
        <ele>608</ele>
        <time>2022-02-15T09:00:28.000Z</time>
      </trkpt>
      <trkpt lat="43.5323" lon="5.57121">
        <ele>608</ele>
        <time>2022-02-15T09:00:29.000Z</time>
      </trkpt>
      <trkpt lat="43.5323" lon="5.57121">
        <ele>608</ele>
        <time>2022-02-15T09:00:30.000Z</time>
      </trkpt>
      <trkpt lat="43.5323" lon="5.57121">
        <ele>608</ele>
        <time>2022-02-15T09:00:31.000Z</time>
      </trkpt>
      <trkpt lat="43.5323" lon="5.57121">
        <ele>608</ele>
        <time>2022-02-15T09:00:32.000Z</time>
      </trkpt>
      <trkpt lat="43.5323" lon="5.57121">
        <ele>608</ele>
        <time>2022-02-15T09:00:33.000Z</time>
      </trkpt>
      <trkpt lat="43.5323" lon="5.57121">
        <ele>608</ele>
        <time>2022-02-15T09:00:34.000Z</time>
      </trkpt>
      <trkpt lat="43.5323" lon="5.57121">
        <ele>608</ele>
        <time>2022-02-15T09:00:35.000Z</time>
      </trkpt>
      <trkpt lat="43.5323" lon="5.57121">
        <ele>608</ele>
        <time>2022-02-15T09:00:36.000Z</time>
      </trkpt>
      <trkpt lat="43.5323" lon="5.57121">
        <ele>608</ele>
        <time>2022-02-15T09:00:37.000Z</time>
      </trkpt>
      <trkpt lat="43.5323" lon="5.57121">
        <ele>608</ele>
        <time>2022-02-15T09:00:38.000Z</time>
      </trkpt>
      <trkpt lat="43.5323" lon="5.57121">
        <ele>608</ele>
        <time>2022-02-15T09:00:39.000Z</time>
      </trkpt>
      <trkpt lat="43.5323" lon="5.57121">
        <ele>608</ele>
        <time>2022-02-15T09:00:40.000Z</time>
      </trkpt>
      <trkpt lat="43.5323" lon="5.57121">
        <ele>608</ele>
        <time>2022-02-15T09:00:41.000Z</time>
      </trkpt>
      <trkpt lat="43.5323" lon="5.57121">
        <ele>608</ele>
        <time>2022-02-15T09:00:42.000Z</time>
      </trkpt>
      <trkpt lat="43.5323" lon="5.57121">
        <ele>608</ele>
        <time>2022-02-15T09:00:43.000Z</time>
      </trkpt>
      <trkpt lat="43.5323" lon="5.57121">
        <ele>608</ele>
        <time>2022-02-15T09:00:44.000Z</time>
      </trkpt>
      <trkpt lat="43.5323" lon="5.57121">
        <ele>608</ele>
        <time>2022-02-15T09:00:45.000Z</time>
      </trkpt>
      <trkpt lat="43.53231" lon="5.57121">
        <ele>608</ele>
        <time>2022-02-15T09:00:46.000Z</time>
      </trkpt>
      <trkpt lat="43.53231" lon="5.57121">
        <ele>608</ele>
        <time>2022-02-15T09:00:47.000Z</time>
      </trkpt>
      <trkpt lat="43.53231" lon="5.57121">
        <ele>608</ele>
        <time>2022-02-15T09:00:48.000Z</time>
      </trkpt>
      <trkpt lat="43.53231" lon="5.57121">
        <ele>608</ele>
        <time>2022-02-15T09:00:49.000Z</time>
      </trkpt>
      <trkpt lat="43.53231" lon="5.57121">
        <ele>608</ele>
        <time>2022-02-15T09:00:50.000Z</time>
      </trkpt>
      <trkpt lat="43.53231" lon="5.57121">
        <ele>608</ele>
        <time>2022-02-15T09:00:51.000Z</time>
      </trkpt>
      <trkpt lat="43.53231" lon="5.5712">
        <ele>608</ele>
        <time>2022-02-15T09:00:52.000Z</time>
      </trkpt>
      <trkpt lat="43.53231" lon="5.5712">
        <ele>608</ele>
        <time>2022-02-15T09:00:53.000Z</time>
      </trkpt>
      <trkpt lat="43.53231" lon="5.5712">
        <ele>608</ele>
        <time>2022-02-15T09:00:54.000Z</time>
      </trkpt>
      <trkpt lat="43.53231" lon="5.5712">
        <ele>608</ele>
        <time>2022-02-15T09:00:55.000Z</time>
      </trkpt>
      <trkpt lat="43.53231" lon="5.5712">
        <ele>608</ele>
        <time>2022-02-15T09:00:56.000Z</time>
      </trkpt>
      <trkpt lat="43.53231" lon="5.5712">
        <ele>608</ele>
        <time>2022-02-15T09:00:57.000Z</time>
      </trkpt>
      <trkpt lat="43.53231" lon="5.5712">
        <ele>608</ele>
        <time>2022-02-15T09:00:58.000Z</time>
      </trkpt>
      <trkpt lat="43.53231" lon="5.5712">
        <ele>608</ele>
        <time>2022-02-15T09:00:59.000Z</time>
      </trkpt>
      <trkpt lat="43.53231" lon="5.5712">
        <ele>608</ele>
        <time>2022-02-15T09:01:00.000Z</time>
      </trkpt>
      <trkpt lat="43.53231" lon="5.5712">
        <ele>608</ele>
        <time>2022-02-15T09:01:01.000Z</time>
      </trkpt>
      <trkpt lat="43.53231" lon="5.5712">
        <ele>608</ele>
        <time>2022-02-15T09:01:02.000Z</time>
      </trkpt>
      <trkpt lat="43.53231" lon="5.5712">
        <ele>608</ele>
        <time>2022-02-15T09:01:03.000Z</time>
      </trkpt>
      <trkpt lat="43.53231" lon="5.5712">
        <ele>608</ele>
        <time>2022-02-15T09:01:04.000Z</time>
      </trkpt>
      <trkpt lat="43.53231" lon="5.5712">
        <ele>608</ele>
        <time>2022-02-15T09:01:05.000Z</time>
      </trkpt>
      <trkpt lat="43.53231" lon="5.5712">
        <ele>608</ele>
        <time>2022-02-15T09:01:06.000Z</time>
      </trkpt>
      <trkpt lat="43.53231" lon="5.5712">
        <ele>608</ele>
        <time>2022-02-15T09:01:07.000Z</time>
      </trkpt>
      <trkpt lat="43.53231" lon="5.5712">
        <ele>608</ele>
        <time>2022-02-15T09:01:08.000Z</time>
      </trkpt>
      <trkpt lat="43.53231" lon="5.5712">
        <ele>608</ele>
        <time>2022-02-15T09:01:09.000Z</time>
      </trkpt>
      <trkpt lat="43.53231" lon="5.5712">
        <ele>608</ele>
        <time>2022-02-15T09:01:10.000Z</time>
      </trkpt>
      <trkpt lat="43.53231" lon="5.57121">
        <ele>608</ele>
        <time>2022-02-15T09:01:11.000Z</time>
      </trkpt>
      <trkpt lat="43.53231" lon="5.57121">
        <ele>608</ele>
        <time>2022-02-15T09:01:12.000Z</time>
      </trkpt>
      <trkpt lat="43.53231" lon="5.57121">
        <ele>608</ele>
        <time>2022-02-15T09:01:13.000Z</time>
      </trkpt>
      <trkpt lat="43.53231" lon="5.57121">
        <ele>608</ele>
        <time>2022-02-15T09:01:14.000Z</time>
      </trkpt>
      <trkpt lat="43.53231" lon="5.5712">
        <ele>608</ele>
        <time>2022-02-15T09:01:15.000Z</time>
      </trkpt>
      <trkpt lat="43.53231" lon="5.5712">
        <ele>608</ele>
        <time>2022-02-15T09:01:16.000Z</time>
      </trkpt>
      <trkpt lat="43.53231" lon="5.5712">
        <ele>608</ele>
        <time>2022-02-15T09:01:17.000Z</time>
      </trkpt>
      <trkpt lat="43.53231" lon="5.5712">
        <ele>608</ele>
        <time>2022-02-15T09:01:18.000Z</time>
      </trkpt>
      <trkpt lat="43.53231" lon="5.5712">
        <ele>608</ele>
        <time>2022-02-15T09:01:19.000Z</time>
      </trkpt>
      <trkpt lat="43.53231" lon="5.5712">
        <ele>608</ele>
        <time>2022-02-15T09:01:20.000Z</time>
      </trkpt>
      <trkpt lat="43.53231" lon="5.5712">
        <ele>608</ele>
        <time>2022-02-15T09:01:21.000Z</time>
      </trkpt>
      <trkpt lat="43.53231" lon="5.5712">
        <ele>608</ele>
        <time>2022-02-15T09:01:22.000Z</time>
      </trkpt>
      <trkpt lat="43.53231" lon="5.5712">
        <ele>608</ele>
        <time>2022-02-15T09:01:23.000Z</time>
      </trkpt>
      <trkpt lat="43.53231" lon="5.5712">
        <ele>608</ele>
        <time>2022-02-15T09:01:24.000Z</time>
      </trkpt>
      <trkpt lat="43.53231" lon="5.5712">
        <ele>608</ele>
        <time>2022-02-15T09:01:25.000Z</time>
      </trkpt>
      <trkpt lat="43.53231" lon="5.5712">
        <ele>608</ele>
        <time>2022-02-15T09:01:26.000Z</time>
      </trkpt>
      <trkpt lat="43.53231" lon="5.5712">
        <ele>608</ele>
        <time>2022-02-15T09:01:27.000Z</time>
      </trkpt>
      <trkpt lat="43.53231" lon="5.5712">
        <ele>608</ele>
        <time>2022-02-15T09:01:28.000Z</time>
      </trkpt>
      <trkpt lat="43.53231" lon="5.5712">
        <ele>608</ele>
        <time>2022-02-15T09:01:29.000Z</time>
      </trkpt>
      <trkpt lat="43.53231" lon="5.5712">
        <ele>608</ele>
        <time>2022-02-15T09:01:30.000Z</time>
      </trkpt>
      <trkpt lat="43.53231" lon="5.5712">
        <ele>608</ele>
        <time>2022-02-15T09:01:31.000Z</time>
      </trkpt>
      <trkpt lat="43.53231" lon="5.5712">
        <ele>608</ele>
        <time>2022-02-15T09:01:32.000Z</time>
      </trkpt>
      <trkpt lat="43.53231" lon="5.5712">
        <ele>609</ele>
        <time>2022-02-15T09:01:33.000Z</time>
      </trkpt>
      <trkpt lat="43.53231" lon="5.5712">
        <ele>609</ele>
        <time>2022-02-15T09:01:34.000Z</time>
      </trkpt>
      <trkpt lat="43.53231" lon="5.5712">
        <ele>609</ele>
        <time>2022-02-15T09:01:35.000Z</time>
      </trkpt>
      <trkpt lat="43.53231" lon="5.5712">
        <ele>609</ele>
        <time>2022-02-15T09:01:36.000Z</time>
      </trkpt>
      <trkpt lat="43.53231" lon="5.5712">
        <ele>609</ele>
        <time>2022-02-15T09:01:37.000Z</time>
      </trkpt>
      <trkpt lat="43.53231" lon="5.5712">
        <ele>609</ele>
        <time>2022-02-15T09:01:38.000Z</time>
      </trkpt>
      <trkpt lat="43.53231" lon="5.5712">
        <ele>609</ele>
        <time>2022-02-15T09:01:39.000Z</time>
      </trkpt>
      <trkpt lat="43.53231" lon="5.5712">
        <ele>609</ele>
        <time>2022-02-15T09:01:40.000Z</time>
      </trkpt>
      <trkpt lat="43.53231" lon="5.5712">
        <ele>609</ele>
        <time>2022-02-15T09:01:41.000Z</time>
      </trkpt>
      <trkpt lat="43.53231" lon="5.5712">
        <ele>609</ele>
        <time>2022-02-15T09:01:42.000Z</time>
      </trkpt>
      <trkpt lat="43.53231" lon="5.5712">
        <ele>609</ele>
        <time>2022-02-15T09:01:43.000Z</time>
      </trkpt>
      <trkpt lat="43.53231" lon="5.5712">
        <ele>609</ele>
        <time>2022-02-15T09:01:44.000Z</time>
      </trkpt>
      <trkpt lat="43.53231" lon="5.5712">
        <ele>609</ele>
        <time>2022-02-15T09:01:45.000Z</time>
      </trkpt>
      <trkpt lat="43.53231" lon="5.5712">
        <ele>609</ele>
        <time>2022-02-15T09:01:46.000Z</time>
      </trkpt>
      <trkpt lat="43.53231" lon="5.5712">
        <ele>609</ele>
        <time>2022-02-15T09:01:47.000Z</time>
      </trkpt>
      <trkpt lat="43.53231" lon="5.5712">
        <ele>609</ele>
        <time>2022-02-15T09:01:48.000Z</time>
      </trkpt>
      <trkpt lat="43.53231" lon="5.5712">
        <ele>609</ele>
        <time>2022-02-15T09:01:49.000Z</time>
      </trkpt>
      <trkpt lat="43.53231" lon="5.5712">
        <ele>609</ele>
        <time>2022-02-15T09:01:50.000Z</time>
      </trkpt>
      <trkpt lat="43.53231" lon="5.5712">
        <ele>609</ele>
        <time>2022-02-15T09:01:51.000Z</time>
      </trkpt>
      <trkpt lat="43.53231" lon="5.5712">
        <ele>609</ele>
        <time>2022-02-15T09:01:52.000Z</time>
      </trkpt>
      <trkpt lat="43.53231" lon="5.5712">
        <ele>609</ele>
        <time>2022-02-15T09:01:53.000Z</time>
      </trkpt>
      <trkpt lat="43.53231" lon="5.5712">
        <ele>609</ele>
        <time>2022-02-15T09:01:54.000Z</time>
      </trkpt>
      <trkpt lat="43.53231" lon="5.5712">
        <ele>609</ele>
        <time>2022-02-15T09:01:55.000Z</time>
      </trkpt>
      <trkpt lat="43.53231" lon="5.5712">
        <ele>609</ele>
        <time>2022-02-15T09:01:56.000Z</time>
      </trkpt>
      <trkpt lat="43.53231" lon="5.5712">
        <ele>609</ele>
        <time>2022-02-15T09:01:57.000Z</time>
      </trkpt>
      <trkpt lat="43.53231" lon="5.5712">
        <ele>609</ele>
        <time>2022-02-15T09:01:58.000Z</time>
      </trkpt>
      <trkpt lat="43.53231" lon="5.5712">
        <ele>609</ele>
        <time>2022-02-15T09:01:59.000Z</time>
      </trkpt>
      <trkpt lat="43.53231" lon="5.5712">
        <ele>609</ele>
        <time>2022-02-15T09:02:00.000Z</time>
      </trkpt>
      <trkpt lat="43.53231" lon="5.5712">
        <ele>609</ele>
        <time>2022-02-15T09:02:01.000Z</time>
      </trkpt>
      <trkpt lat="43.53231" lon="5.5712">
        <ele>609</ele>
        <time>2022-02-15T09:02:02.000Z</time>
      </trkpt>
      <trkpt lat="43.53231" lon="5.5712">
        <ele>609</ele>
        <time>2022-02-15T09:02:03.000Z</time>
      </trkpt>
      <trkpt lat="43.53231" lon="5.5712">
        <ele>609</ele>
        <time>2022-02-15T09:02:04.000Z</time>
      </trkpt>
      <trkpt lat="43.53231" lon="5.5712">
        <ele>609</ele>
        <time>2022-02-15T09:02:05.000Z</time>
      </trkpt>
      <trkpt lat="43.53231" lon="5.5712">
        <ele>609</ele>
        <time>2022-02-15T09:02:06.000Z</time>
      </trkpt>
      <trkpt lat="43.53231" lon="5.5712">
        <ele>609</ele>
        <time>2022-02-15T09:02:07.000Z</time>
      </trkpt>
      <trkpt lat="43.53231" lon="5.5712">
        <ele>609</ele>
        <time>2022-02-15T09:02:08.000Z</time>
      </trkpt>
      <trkpt lat="43.53231" lon="5.5712">
        <ele>609</ele>
        <time>2022-02-15T09:02:09.000Z</time>
      </trkpt>
      <trkpt lat="43.53231" lon="5.5712">
        <ele>609</ele>
        <time>2022-02-15T09:02:10.000Z</time>
      </trkpt>
      <trkpt lat="43.53231" lon="5.5712">
        <ele>609</ele>
        <time>2022-02-15T09:02:11.000Z</time>
      </trkpt>
      <trkpt lat="43.53231" lon="5.5712">
        <ele>609</ele>
        <time>2022-02-15T09:02:12.000Z</time>
      </trkpt>
      <trkpt lat="43.53231" lon="5.5712">
        <ele>609</ele>
        <time>2022-02-15T09:02:13.000Z</time>
      </trkpt>
      <trkpt lat="43.53231" lon="5.5712">
        <ele>609</ele>
        <time>2022-02-15T09:02:14.000Z</time>
      </trkpt>
      <trkpt lat="43.53231" lon="5.5712">
        <ele>609</ele>
        <time>2022-02-15T09:02:15.000Z</time>
      </trkpt>
      <trkpt lat="43.53232" lon="5.5712">
        <ele>609</ele>
        <time>2022-02-15T09:02:16.000Z</time>
      </trkpt>
      <trkpt lat="43.53232" lon="5.5712">
        <ele>609</ele>
        <time>2022-02-15T09:02:17.000Z</time>
      </trkpt>
      <trkpt lat="43.53232" lon="5.5712">
        <ele>609</ele>
        <time>2022-02-15T09:02:18.000Z</time>
      </trkpt>
      <trkpt lat="43.53232" lon="5.5712">
        <ele>609</ele>
        <time>2022-02-15T09:02:19.000Z</time>
      </trkpt>
      <trkpt lat="43.53232" lon="5.5712">
        <ele>609</ele>
        <time>2022-02-15T09:02:20.000Z</time>
      </trkpt>
      <trkpt lat="43.53232" lon="5.5712">
        <ele>609</ele>
        <time>2022-02-15T09:02:21.000Z</time>
      </trkpt>
      <trkpt lat="43.53232" lon="5.5712">
        <ele>609</ele>
        <time>2022-02-15T09:02:22.000Z</time>
      </trkpt>
      <trkpt lat="43.53232" lon="5.5712">
        <ele>609</ele>
        <time>2022-02-15T09:02:23.000Z</time>
      </trkpt>
      <trkpt lat="43.53232" lon="5.5712">
        <ele>609</ele>
        <time>2022-02-15T09:02:24.000Z</time>
      </trkpt>
      <trkpt lat="43.53232" lon="5.5712">
        <ele>609</ele>
        <time>2022-02-15T09:02:25.000Z</time>
      </trkpt>
      <trkpt lat="43.53232" lon="5.5712">
        <ele>609</ele>
        <time>2022-02-15T09:02:26.000Z</time>
      </trkpt>
      <trkpt lat="43.53232" lon="5.5712">
        <ele>609</ele>
        <time>2022-02-15T09:02:27.000Z</time>
      </trkpt>
      <trkpt lat="43.53232" lon="5.5712">
        <ele>609</ele>
        <time>2022-02-15T09:02:28.000Z</time>
      </trkpt>
      <trkpt lat="43.53232" lon="5.5712">
        <ele>609</ele>
        <time>2022-02-15T09:02:29.000Z</time>
      </trkpt>
      <trkpt lat="43.53232" lon="5.57119">
        <ele>609</ele>
        <time>2022-02-15T09:02:30.000Z</time>
      </trkpt>
      <trkpt lat="43.53232" lon="5.57119">
        <ele>609</ele>
        <time>2022-02-15T09:02:31.000Z</time>
      </trkpt>
      <trkpt lat="43.53232" lon="5.57119">
        <ele>609</ele>
        <time>2022-02-15T09:02:32.000Z</time>
      </trkpt>
      <trkpt lat="43.53232" lon="5.57119">
        <ele>609</ele>
        <time>2022-02-15T09:02:33.000Z</time>
      </trkpt>
      <trkpt lat="43.53232" lon="5.57119">
        <ele>609</ele>
        <time>2022-02-15T09:02:34.000Z</time>
      </trkpt>
      <trkpt lat="43.53232" lon="5.57119">
        <ele>609</ele>
        <time>2022-02-15T09:02:35.000Z</time>
      </trkpt>
      <trkpt lat="43.53232" lon="5.57119">
        <ele>609</ele>
        <time>2022-02-15T09:02:36.000Z</time>
      </trkpt>
      <trkpt lat="43.53232" lon="5.57119">
        <ele>609</ele>
        <time>2022-02-15T09:02:37.000Z</time>
      </trkpt>
      <trkpt lat="43.53232" lon="5.57119">
        <ele>609</ele>
        <time>2022-02-15T09:02:38.000Z</time>
      </trkpt>
      <trkpt lat="43.53232" lon="5.57119">
        <ele>609</ele>
        <time>2022-02-15T09:02:39.000Z</time>
      </trkpt>
      <trkpt lat="43.53232" lon="5.57119">
        <ele>609</ele>
        <time>2022-02-15T09:02:40.000Z</time>
      </trkpt>
      <trkpt lat="43.53232" lon="5.57119">
        <ele>609</ele>
        <time>2022-02-15T09:02:41.000Z</time>
      </trkpt>
      <trkpt lat="43.53232" lon="5.57119">
        <ele>609</ele>
        <time>2022-02-15T09:02:42.000Z</time>
      </trkpt>
      <trkpt lat="43.53232" lon="5.57119">
        <ele>609</ele>
        <time>2022-02-15T09:02:43.000Z</time>
      </trkpt>
      <trkpt lat="43.53232" lon="5.57119">
        <ele>609</ele>
        <time>2022-02-15T09:02:44.000Z</time>
      </trkpt>
      <trkpt lat="43.53232" lon="5.57119">
        <ele>609</ele>
        <time>2022-02-15T09:02:45.000Z</time>
      </trkpt>
      <trkpt lat="43.53231" lon="5.5712">
        <ele>609</ele>
        <time>2022-02-15T09:02:46.000Z</time>
      </trkpt>
      <trkpt lat="43.53231" lon="5.57121">
        <ele>609</ele>
        <time>2022-02-15T09:02:47.000Z</time>
      </trkpt>
      <trkpt lat="43.53231" lon="5.57122">
        <ele>609</ele>
        <time>2022-02-15T09:02:48.000Z</time>
      </trkpt>
      <trkpt lat="43.53231" lon="5.57122">
        <ele>609</ele>
        <time>2022-02-15T09:02:49.000Z</time>
      </trkpt>
      <trkpt lat="43.53231" lon="5.57123">
        <ele>609</ele>
        <time>2022-02-15T09:02:50.000Z</time>
      </trkpt>
      <trkpt lat="43.53232" lon="5.57123">
        <ele>609</ele>
        <time>2022-02-15T09:02:51.000Z</time>
      </trkpt>
      <trkpt lat="43.53232" lon="5.57123">
        <ele>609</ele>
        <time>2022-02-15T09:02:52.000Z</time>
      </trkpt>
      <trkpt lat="43.53232" lon="5.57123">
        <ele>609</ele>
        <time>2022-02-15T09:02:53.000Z</time>
      </trkpt>
      <trkpt lat="43.53233" lon="5.57123">
        <ele>609</ele>
        <time>2022-02-15T09:02:54.000Z</time>
      </trkpt>
      <trkpt lat="43.53233" lon="5.57123">
        <ele>609</ele>
        <time>2022-02-15T09:02:55.000Z</time>
      </trkpt>
      <trkpt lat="43.53234" lon="5.57124">
        <ele>609</ele>
        <time>2022-02-15T09:02:56.000Z</time>
      </trkpt>
      <trkpt lat="43.53234" lon="5.57124">
        <ele>609</ele>
        <time>2022-02-15T09:02:57.000Z</time>
      </trkpt>
      <trkpt lat="43.53234" lon="5.57124">
        <ele>609</ele>
        <time>2022-02-15T09:02:58.000Z</time>
      </trkpt>
      <trkpt lat="43.53234" lon="5.57124">
        <ele>609</ele>
        <time>2022-02-15T09:02:59.000Z</time>
      </trkpt>
      <trkpt lat="43.53234" lon="5.57124">
        <ele>609</ele>
        <time>2022-02-15T09:03:00.000Z</time>
      </trkpt>
      <trkpt lat="43.53234" lon="5.57125">
        <ele>609</ele>
        <time>2022-02-15T09:03:01.000Z</time>
      </trkpt>
      <trkpt lat="43.53234" lon="5.57125">
        <ele>609</ele>
        <time>2022-02-15T09:03:02.000Z</time>
      </trkpt>
      <trkpt lat="43.53234" lon="5.57125">
        <ele>610</ele>
        <time>2022-02-15T09:03:03.000Z</time>
      </trkpt>
      <trkpt lat="43.53234" lon="5.57126">
        <ele>610</ele>
        <time>2022-02-15T09:03:04.000Z</time>
      </trkpt>
      <trkpt lat="43.53234" lon="5.57126">
        <ele>610</ele>
        <time>2022-02-15T09:03:05.000Z</time>
      </trkpt>
      <trkpt lat="43.53234" lon="5.57126">
        <ele>610</ele>
        <time>2022-02-15T09:03:06.000Z</time>
      </trkpt>
      <trkpt lat="43.53235" lon="5.57127">
        <ele>610</ele>
        <time>2022-02-15T09:03:07.000Z</time>
      </trkpt>
      <trkpt lat="43.53235" lon="5.57127">
        <ele>610</ele>
        <time>2022-02-15T09:03:08.000Z</time>
      </trkpt>
      <trkpt lat="43.53235" lon="5.57127">
        <ele>610</ele>
        <time>2022-02-15T09:03:09.000Z</time>
      </trkpt>
      <trkpt lat="43.53234" lon="5.57128">
        <ele>611</ele>
        <time>2022-02-15T09:03:10.000Z</time>
      </trkpt>
      <trkpt lat="43.53234" lon="5.57128">
        <ele>611</ele>
        <time>2022-02-15T09:03:11.000Z</time>
      </trkpt>
      <trkpt lat="43.53234" lon="5.57128">
        <ele>611</ele>
        <time>2022-02-15T09:03:12.000Z</time>
      </trkpt>
      <trkpt lat="43.53234" lon="5.57128">
        <ele>611</ele>
        <time>2022-02-15T09:03:13.000Z</time>
      </trkpt>
      <trkpt lat="43.53234" lon="5.57128">
        <ele>611</ele>
        <time>2022-02-15T09:03:14.000Z</time>
      </trkpt>
      <trkpt lat="43.53234" lon="5.57128">
        <ele>611</ele>
        <time>2022-02-15T09:03:15.000Z</time>
      </trkpt>
      <trkpt lat="43.53234" lon="5.57128">
        <ele>611</ele>
        <time>2022-02-15T09:03:16.000Z</time>
      </trkpt>
      <trkpt lat="43.53234" lon="5.57128">
        <ele>611</ele>
        <time>2022-02-15T09:03:17.000Z</time>
      </trkpt>
      <trkpt lat="43.53234" lon="5.57128">
        <ele>611</ele>
        <time>2022-02-15T09:03:18.000Z</time>
      </trkpt>
      <trkpt lat="43.53234" lon="5.57128">
        <ele>611</ele>
        <time>2022-02-15T09:03:19.000Z</time>
      </trkpt>
      <trkpt lat="43.53234" lon="5.57128">
        <ele>611</ele>
        <time>2022-02-15T09:03:20.000Z</time>
      </trkpt>
      <trkpt lat="43.53233" lon="5.57128">
        <ele>611</ele>
        <time>2022-02-15T09:03:21.000Z</time>
      </trkpt>
      <trkpt lat="43.53233" lon="5.57129">
        <ele>611</ele>
        <time>2022-02-15T09:03:22.000Z</time>
      </trkpt>
      <trkpt lat="43.53233" lon="5.57129">
        <ele>611</ele>
        <time>2022-02-15T09:03:23.000Z</time>
      </trkpt>
      <trkpt lat="43.53233" lon="5.57129">
        <ele>611</ele>
        <time>2022-02-15T09:03:24.000Z</time>
      </trkpt>
      <trkpt lat="43.53232" lon="5.57129">
        <ele>611</ele>
        <time>2022-02-15T09:03:25.000Z</time>
      </trkpt>
      <trkpt lat="43.53232" lon="5.57129">
        <ele>612</ele>
        <time>2022-02-15T09:03:26.000Z</time>
      </trkpt>
      <trkpt lat="43.53232" lon="5.57129">
        <ele>612</ele>
        <time>2022-02-15T09:03:27.000Z</time>
      </trkpt>
      <trkpt lat="43.53232" lon="5.57129">
        <ele>612</ele>
        <time>2022-02-15T09:03:28.000Z</time>
      </trkpt>
      <trkpt lat="43.53232" lon="5.57129">
        <ele>612</ele>
        <time>2022-02-15T09:03:29.000Z</time>
      </trkpt>
      <trkpt lat="43.53232" lon="5.57129">
        <ele>612</ele>
        <time>2022-02-15T09:03:30.000Z</time>
      </trkpt>
      <trkpt lat="43.53232" lon="5.5713">
        <ele>612</ele>
        <time>2022-02-15T09:03:31.000Z</time>
      </trkpt>
      <trkpt lat="43.53232" lon="5.5713">
        <ele>612</ele>
        <time>2022-02-15T09:03:32.000Z</time>
      </trkpt>
      <trkpt lat="43.53231" lon="5.57131">
        <ele>612</ele>
        <time>2022-02-15T09:03:33.000Z</time>
      </trkpt>
      <trkpt lat="43.53231" lon="5.5713">
        <ele>612</ele>
        <time>2022-02-15T09:03:34.000Z</time>
      </trkpt>
      <trkpt lat="43.53231" lon="5.57131">
        <ele>612</ele>
        <time>2022-02-15T09:03:35.000Z</time>
      </trkpt>
      <trkpt lat="43.53231" lon="5.57132">
        <ele>612</ele>
        <time>2022-02-15T09:03:36.000Z</time>
      </trkpt>
      <trkpt lat="43.5323" lon="5.57132">
        <ele>613</ele>
        <time>2022-02-15T09:03:37.000Z</time>
      </trkpt>
      <trkpt lat="43.5323" lon="5.57132">
        <ele>613</ele>
        <time>2022-02-15T09:03:38.000Z</time>
      </trkpt>
      <trkpt lat="43.5323" lon="5.57133">
        <ele>613</ele>
        <time>2022-02-15T09:03:39.000Z</time>
      </trkpt>
      <trkpt lat="43.53229" lon="5.57133">
        <ele>613</ele>
        <time>2022-02-15T09:03:40.000Z</time>
      </trkpt>
      <trkpt lat="43.53229" lon="5.57134">
        <ele>613</ele>
        <time>2022-02-15T09:03:41.000Z</time>
      </trkpt>
      <trkpt lat="43.53228" lon="5.57134">
        <ele>614</ele>
        <time>2022-02-15T09:03:42.000Z</time>
      </trkpt>
      <trkpt lat="43.53228" lon="5.57134">
        <ele>614</ele>
        <time>2022-02-15T09:03:43.000Z</time>
      </trkpt>
      <trkpt lat="43.53228" lon="5.57134">
        <ele>614</ele>
        <time>2022-02-15T09:03:44.000Z</time>
      </trkpt>
      <trkpt lat="43.53228" lon="5.57134">
        <ele>614</ele>
        <time>2022-02-15T09:03:45.000Z</time>
      </trkpt>
      <trkpt lat="43.53228" lon="5.57134">
        <ele>614</ele>
        <time>2022-02-15T09:03:46.000Z</time>
      </trkpt>
      <trkpt lat="43.53228" lon="5.57134">
        <ele>614</ele>
        <time>2022-02-15T09:03:47.000Z</time>
      </trkpt>
      <trkpt lat="43.53228" lon="5.57134">
        <ele>614</ele>
        <time>2022-02-15T09:03:48.000Z</time>
      </trkpt>
      <trkpt lat="43.53227" lon="5.57134">
        <ele>614</ele>
        <time>2022-02-15T09:03:49.000Z</time>
      </trkpt>
      <trkpt lat="43.53227" lon="5.57134">
        <ele>615</ele>
        <time>2022-02-15T09:03:50.000Z</time>
      </trkpt>
      <trkpt lat="43.53227" lon="5.57134">
        <ele>615</ele>
        <time>2022-02-15T09:03:51.000Z</time>
      </trkpt>
      <trkpt lat="43.53226" lon="5.57134">
        <ele>615</ele>
        <time>2022-02-15T09:03:52.000Z</time>
      </trkpt>
      <trkpt lat="43.53226" lon="5.57134">
        <ele>615</ele>
        <time>2022-02-15T09:03:53.000Z</time>
      </trkpt>
      <trkpt lat="43.53226" lon="5.57134">
        <ele>615</ele>
        <time>2022-02-15T09:03:54.000Z</time>
      </trkpt>
      <trkpt lat="43.53226" lon="5.57134">
        <ele>615</ele>
        <time>2022-02-15T09:03:55.000Z</time>
      </trkpt>
      <trkpt lat="43.53226" lon="5.57134">
        <ele>615</ele>
        <time>2022-02-15T09:03:56.000Z</time>
      </trkpt>
      <trkpt lat="43.53226" lon="5.57134">
        <ele>615</ele>
        <time>2022-02-15T09:03:57.000Z</time>
      </trkpt>
      <trkpt lat="43.53226" lon="5.57134">
        <ele>615</ele>
        <time>2022-02-15T09:03:58.000Z</time>
      </trkpt>
      <trkpt lat="43.53226" lon="5.57134">
        <ele>615</ele>
        <time>2022-02-15T09:03:59.000Z</time>
      </trkpt>
      <trkpt lat="43.53226" lon="5.57134">
        <ele>615</ele>
        <time>2022-02-15T09:04:00.000Z</time>
      </trkpt>
      <trkpt lat="43.53227" lon="5.57134">
        <ele>615</ele>
        <time>2022-02-15T09:04:01.000Z</time>
      </trkpt>
      <trkpt lat="43.53226" lon="5.57135">
        <ele>615</ele>
        <time>2022-02-15T09:04:02.000Z</time>
      </trkpt>
      <trkpt lat="43.53226" lon="5.57135">
        <ele>615</ele>
        <time>2022-02-15T09:04:03.000Z</time>
      </trkpt>
      <trkpt lat="43.53226" lon="5.57136">
        <ele>615</ele>
        <time>2022-02-15T09:04:04.000Z</time>
      </trkpt>
      <trkpt lat="43.53227" lon="5.57137">
        <ele>615</ele>
        <time>2022-02-15T09:04:05.000Z</time>
      </trkpt>
      <trkpt lat="43.53227" lon="5.57138">
        <ele>616</ele>
        <time>2022-02-15T09:04:06.000Z</time>
      </trkpt>
      <trkpt lat="43.53226" lon="5.57139">
        <ele>616</ele>
        <time>2022-02-15T09:04:07.000Z</time>
      </trkpt>
      <trkpt lat="43.53226" lon="5.5714">
        <ele>616</ele>
        <time>2022-02-15T09:04:08.000Z</time>
      </trkpt>
      <trkpt lat="43.53225" lon="5.5714">
        <ele>616</ele>
        <time>2022-02-15T09:04:09.000Z</time>
      </trkpt>
      <trkpt lat="43.53225" lon="5.57141">
        <ele>616</ele>
        <time>2022-02-15T09:04:10.000Z</time>
      </trkpt>
      <trkpt lat="43.53225" lon="5.57141">
        <ele>616</ele>
        <time>2022-02-15T09:04:11.000Z</time>
      </trkpt>
      <trkpt lat="43.53225" lon="5.57141">
        <ele>616</ele>
        <time>2022-02-15T09:04:12.000Z</time>
      </trkpt>
      <trkpt lat="43.53224" lon="5.57142">
        <ele>616</ele>
        <time>2022-02-15T09:04:13.000Z</time>
      </trkpt>
      <trkpt lat="43.53225" lon="5.57142">
        <ele>616</ele>
        <time>2022-02-15T09:04:14.000Z</time>
      </trkpt>
      <trkpt lat="43.53225" lon="5.57143">
        <ele>616</ele>
        <time>2022-02-15T09:04:15.000Z</time>
      </trkpt>
      <trkpt lat="43.53226" lon="5.57143">
        <ele>616</ele>
        <time>2022-02-15T09:04:16.000Z</time>
      </trkpt>
      <trkpt lat="43.53226" lon="5.57143">
        <ele>616</ele>
        <time>2022-02-15T09:04:17.000Z</time>
      </trkpt>
      <trkpt lat="43.53226" lon="5.57143">
        <ele>616</ele>
        <time>2022-02-15T09:04:18.000Z</time>
      </trkpt>
      <trkpt lat="43.53226" lon="5.57143">
        <ele>616</ele>
        <time>2022-02-15T09:04:19.000Z</time>
      </trkpt>
      <trkpt lat="43.53226" lon="5.57143">
        <ele>616</ele>
        <time>2022-02-15T09:04:20.000Z</time>
      </trkpt>
      <trkpt lat="43.53226" lon="5.57143">
        <ele>616</ele>
        <time>2022-02-15T09:04:21.000Z</time>
      </trkpt>
      <trkpt lat="43.53226" lon="5.57143">
        <ele>616</ele>
        <time>2022-02-15T09:04:22.000Z</time>
      </trkpt>
      <trkpt lat="43.53226" lon="5.57143">
        <ele>616</ele>
        <time>2022-02-15T09:04:23.000Z</time>
      </trkpt>
      <trkpt lat="43.53226" lon="5.57143">
        <ele>616</ele>
        <time>2022-02-15T09:04:24.000Z</time>
      </trkpt>
      <trkpt lat="43.53226" lon="5.57143">
        <ele>616</ele>
        <time>2022-02-15T09:04:25.000Z</time>
      </trkpt>
      <trkpt lat="43.53226" lon="5.57143">
        <ele>616</ele>
        <time>2022-02-15T09:04:26.000Z</time>
      </trkpt>
      <trkpt lat="43.53226" lon="5.57143">
        <ele>616</ele>
        <time>2022-02-15T09:04:27.000Z</time>
      </trkpt>
      <trkpt lat="43.53225" lon="5.57143">
        <ele>616</ele>
        <time>2022-02-15T09:04:28.000Z</time>
      </trkpt>
      <trkpt lat="43.53225" lon="5.57143">
        <ele>616</ele>
        <time>2022-02-15T09:04:29.000Z</time>
      </trkpt>
      <trkpt lat="43.53225" lon="5.57143">
        <ele>616</ele>
        <time>2022-02-15T09:04:30.000Z</time>
      </trkpt>
      <trkpt lat="43.53225" lon="5.57143">
        <ele>616</ele>
        <time>2022-02-15T09:04:31.000Z</time>
      </trkpt>
      <trkpt lat="43.53225" lon="5.57143">
        <ele>616</ele>
        <time>2022-02-15T09:04:32.000Z</time>
      </trkpt>
      <trkpt lat="43.53225" lon="5.57143">
        <ele>616</ele>
        <time>2022-02-15T09:04:33.000Z</time>
      </trkpt>
      <trkpt lat="43.53225" lon="5.57143">
        <ele>616</ele>
        <time>2022-02-15T09:04:34.000Z</time>
      </trkpt>
      <trkpt lat="43.53225" lon="5.57143">
        <ele>617</ele>
        <time>2022-02-15T09:04:35.000Z</time>
      </trkpt>
      <trkpt lat="43.53225" lon="5.57143">
        <ele>617</ele>
        <time>2022-02-15T09:04:36.000Z</time>
      </trkpt>
      <trkpt lat="43.53225" lon="5.57143">
        <ele>617</ele>
        <time>2022-02-15T09:04:37.000Z</time>
      </trkpt>
      <trkpt lat="43.53225" lon="5.57143">
        <ele>617</ele>
        <time>2022-02-15T09:04:38.000Z</time>
      </trkpt>
      <trkpt lat="43.53225" lon="5.57143">
        <ele>617</ele>
        <time>2022-02-15T09:04:39.000Z</time>
      </trkpt>
      <trkpt lat="43.53225" lon="5.57143">
        <ele>617</ele>
        <time>2022-02-15T09:04:40.000Z</time>
      </trkpt>
      <trkpt lat="43.53225" lon="5.57143">
        <ele>617</ele>
        <time>2022-02-15T09:04:41.000Z</time>
      </trkpt>
      <trkpt lat="43.53225" lon="5.57143">
        <ele>617</ele>
        <time>2022-02-15T09:04:42.000Z</time>
      </trkpt>
      <trkpt lat="43.53225" lon="5.57142">
        <ele>617</ele>
        <time>2022-02-15T09:04:43.000Z</time>
      </trkpt>
      <trkpt lat="43.53225" lon="5.57142">
        <ele>617</ele>
        <time>2022-02-15T09:04:44.000Z</time>
      </trkpt>
      <trkpt lat="43.53225" lon="5.57142">
        <ele>617</ele>
        <time>2022-02-15T09:04:45.000Z</time>
      </trkpt>
      <trkpt lat="43.53225" lon="5.57142">
        <ele>617</ele>
        <time>2022-02-15T09:04:46.000Z</time>
      </trkpt>
      <trkpt lat="43.53225" lon="5.57142">
        <ele>617</ele>
        <time>2022-02-15T09:04:47.000Z</time>
      </trkpt>
      <trkpt lat="43.53225" lon="5.57142">
        <ele>617</ele>
        <time>2022-02-15T09:04:48.000Z</time>
      </trkpt>
      <trkpt lat="43.53224" lon="5.57142">
        <ele>617</ele>
        <time>2022-02-15T09:04:49.000Z</time>
      </trkpt>
      <trkpt lat="43.53225" lon="5.57142">
        <ele>617</ele>
        <time>2022-02-15T09:04:50.000Z</time>
      </trkpt>
      <trkpt lat="43.53225" lon="5.57141">
        <ele>618</ele>
        <time>2022-02-15T09:04:51.000Z</time>
      </trkpt>
      <trkpt lat="43.53225" lon="5.57142">
        <ele>618</ele>
        <time>2022-02-15T09:04:52.000Z</time>
      </trkpt>
      <trkpt lat="43.53226" lon="5.57143">
        <ele>618</ele>
        <time>2022-02-15T09:04:53.000Z</time>
      </trkpt>
      <trkpt lat="43.53226" lon="5.57143">
        <ele>618</ele>
        <time>2022-02-15T09:04:54.000Z</time>
      </trkpt>
      <trkpt lat="43.53226" lon="5.57144">
        <ele>618</ele>
        <time>2022-02-15T09:04:55.000Z</time>
      </trkpt>
      <trkpt lat="43.53225" lon="5.57145">
        <ele>618</ele>
        <time>2022-02-15T09:04:56.000Z</time>
      </trkpt>
      <trkpt lat="43.53225" lon="5.57145">
        <ele>619</ele>
        <time>2022-02-15T09:04:57.000Z</time>
      </trkpt>
      <trkpt lat="43.53225" lon="5.57145">
        <ele>619</ele>
        <time>2022-02-15T09:04:58.000Z</time>
      </trkpt>
      <trkpt lat="43.53225" lon="5.57146">
        <ele>619</ele>
        <time>2022-02-15T09:04:59.000Z</time>
      </trkpt>
      <trkpt lat="43.53224" lon="5.57146">
        <ele>619</ele>
        <time>2022-02-15T09:05:00.000Z</time>
      </trkpt>
      <trkpt lat="43.53225" lon="5.57146">
        <ele>619</ele>
        <time>2022-02-15T09:05:01.000Z</time>
      </trkpt>
      <trkpt lat="43.53225" lon="5.57147">
        <ele>619</ele>
        <time>2022-02-15T09:05:02.000Z</time>
      </trkpt>
      <trkpt lat="43.53225" lon="5.57148">
        <ele>619</ele>
        <time>2022-02-15T09:05:03.000Z</time>
      </trkpt>
      <trkpt lat="43.53225" lon="5.57148">
        <ele>620</ele>
        <time>2022-02-15T09:05:04.000Z</time>
      </trkpt>
      <trkpt lat="43.53225" lon="5.57149">
        <ele>620</ele>
        <time>2022-02-15T09:05:05.000Z</time>
      </trkpt>
      <trkpt lat="43.53225" lon="5.57149">
        <ele>620</ele>
        <time>2022-02-15T09:05:06.000Z</time>
      </trkpt>
      <trkpt lat="43.53225" lon="5.5715">
        <ele>620</ele>
        <time>2022-02-15T09:05:07.000Z</time>
      </trkpt>
      <trkpt lat="43.53225" lon="5.5715">
        <ele>620</ele>
        <time>2022-02-15T09:05:08.000Z</time>
      </trkpt>
      <trkpt lat="43.53225" lon="5.5715">
        <ele>620</ele>
        <time>2022-02-15T09:05:09.000Z</time>
      </trkpt>
      <trkpt lat="43.53225" lon="5.5715">
        <ele>621</ele>
        <time>2022-02-15T09:05:10.000Z</time>
      </trkpt>
      <trkpt lat="43.53225" lon="5.57151">
        <ele>621</ele>
        <time>2022-02-15T09:05:11.000Z</time>
      </trkpt>
      <trkpt lat="43.53225" lon="5.57151">
        <ele>621</ele>
        <time>2022-02-15T09:05:12.000Z</time>
      </trkpt>
      <trkpt lat="43.53225" lon="5.57152">
        <ele>621</ele>
        <time>2022-02-15T09:05:13.000Z</time>
      </trkpt>
      <trkpt lat="43.53224" lon="5.57153">
        <ele>621</ele>
        <time>2022-02-15T09:05:14.000Z</time>
      </trkpt>
      <trkpt lat="43.53224" lon="5.57153">
        <ele>621</ele>
        <time>2022-02-15T09:05:15.000Z</time>
      </trkpt>
      <trkpt lat="43.53224" lon="5.57153">
        <ele>621</ele>
        <time>2022-02-15T09:05:16.000Z</time>
      </trkpt>
      <trkpt lat="43.53224" lon="5.57153">
        <ele>621</ele>
        <time>2022-02-15T09:05:17.000Z</time>
      </trkpt>
      <trkpt lat="43.53224" lon="5.57153">
        <ele>621</ele>
        <time>2022-02-15T09:05:18.000Z</time>
      </trkpt>
      <trkpt lat="43.53224" lon="5.57153">
        <ele>621</ele>
        <time>2022-02-15T09:05:19.000Z</time>
      </trkpt>
      <trkpt lat="43.53223" lon="5.57153">
        <ele>621</ele>
        <time>2022-02-15T09:05:20.000Z</time>
      </trkpt>
      <trkpt lat="43.53223" lon="5.57154">
        <ele>621</ele>
        <time>2022-02-15T09:05:21.000Z</time>
      </trkpt>
      <trkpt lat="43.53222" lon="5.57154">
        <ele>621</ele>
        <time>2022-02-15T09:05:22.000Z</time>
      </trkpt>
      <trkpt lat="43.53222" lon="5.57154">
        <ele>621</ele>
        <time>2022-02-15T09:05:23.000Z</time>
      </trkpt>
      <trkpt lat="43.53221" lon="5.57154">
        <ele>621</ele>
        <time>2022-02-15T09:05:24.000Z</time>
      </trkpt>
      <trkpt lat="43.53221" lon="5.57154">
        <ele>622</ele>
        <time>2022-02-15T09:05:25.000Z</time>
      </trkpt>
      <trkpt lat="43.5322" lon="5.57154">
        <ele>622</ele>
        <time>2022-02-15T09:05:26.000Z</time>
      </trkpt>
      <trkpt lat="43.5322" lon="5.57154">
        <ele>622</ele>
        <time>2022-02-15T09:05:27.000Z</time>
      </trkpt>
      <trkpt lat="43.5322" lon="5.57154">
        <ele>622</ele>
        <time>2022-02-15T09:05:28.000Z</time>
      </trkpt>
      <trkpt lat="43.53219" lon="5.57153">
        <ele>622</ele>
        <time>2022-02-15T09:05:29.000Z</time>
      </trkpt>
      <trkpt lat="43.53219" lon="5.57153">
        <ele>622</ele>
        <time>2022-02-15T09:05:30.000Z</time>
      </trkpt>
      <trkpt lat="43.53219" lon="5.57153">
        <ele>622</ele>
        <time>2022-02-15T09:05:31.000Z</time>
      </trkpt>
      <trkpt lat="43.53219" lon="5.57153">
        <ele>622</ele>
        <time>2022-02-15T09:05:32.000Z</time>
      </trkpt>
      <trkpt lat="43.53219" lon="5.57153">
        <ele>622</ele>
        <time>2022-02-15T09:05:33.000Z</time>
      </trkpt>
      <trkpt lat="43.53219" lon="5.57153">
        <ele>622</ele>
        <time>2022-02-15T09:05:34.000Z</time>
      </trkpt>
      <trkpt lat="43.53219" lon="5.57153">
        <ele>622</ele>
        <time>2022-02-15T09:05:35.000Z</time>
      </trkpt>
      <trkpt lat="43.53218" lon="5.57153">
        <ele>622</ele>
        <time>2022-02-15T09:05:36.000Z</time>
      </trkpt>
      <trkpt lat="43.53219" lon="5.57153">
        <ele>622</ele>
        <time>2022-02-15T09:05:37.000Z</time>
      </trkpt>
      <trkpt lat="43.53219" lon="5.57153">
        <ele>622</ele>
        <time>2022-02-15T09:05:38.000Z</time>
      </trkpt>
      <trkpt lat="43.53219" lon="5.57153">
        <ele>622</ele>
        <time>2022-02-15T09:05:39.000Z</time>
      </trkpt>
      <trkpt lat="43.53219" lon="5.57153">
        <ele>622</ele>
        <time>2022-02-15T09:05:40.000Z</time>
      </trkpt>
      <trkpt lat="43.53219" lon="5.57153">
        <ele>622</ele>
        <time>2022-02-15T09:05:41.000Z</time>
      </trkpt>
      <trkpt lat="43.53218" lon="5.57153">
        <ele>622</ele>
        <time>2022-02-15T09:05:42.000Z</time>
      </trkpt>
      <trkpt lat="43.53218" lon="5.57153">
        <ele>623</ele>
        <time>2022-02-15T09:05:43.000Z</time>
      </trkpt>
      <trkpt lat="43.53218" lon="5.57153">
        <ele>623</ele>
        <time>2022-02-15T09:05:44.000Z</time>
      </trkpt>
      <trkpt lat="43.53218" lon="5.57153">
        <ele>623</ele>
        <time>2022-02-15T09:05:45.000Z</time>
      </trkpt>
      <trkpt lat="43.53218" lon="5.57153">
        <ele>623</ele>
        <time>2022-02-15T09:05:46.000Z</time>
      </trkpt>
      <trkpt lat="43.53218" lon="5.57154">
        <ele>623</ele>
        <time>2022-02-15T09:05:47.000Z</time>
      </trkpt>
      <trkpt lat="43.53218" lon="5.57154">
        <ele>623</ele>
        <time>2022-02-15T09:05:48.000Z</time>
      </trkpt>
      <trkpt lat="43.53217" lon="5.57154">
        <ele>623</ele>
        <time>2022-02-15T09:05:49.000Z</time>
      </trkpt>
      <trkpt lat="43.53218" lon="5.57155">
        <ele>623</ele>
        <time>2022-02-15T09:05:50.000Z</time>
      </trkpt>
      <trkpt lat="43.53218" lon="5.57155">
        <ele>623</ele>
        <time>2022-02-15T09:05:51.000Z</time>
      </trkpt>
      <trkpt lat="43.53218" lon="5.57156">
        <ele>623</ele>
        <time>2022-02-15T09:05:52.000Z</time>
      </trkpt>
      <trkpt lat="43.53218" lon="5.57156">
        <ele>623</ele>
        <time>2022-02-15T09:05:53.000Z</time>
      </trkpt>
      <trkpt lat="43.53218" lon="5.57156">
        <ele>624</ele>
        <time>2022-02-15T09:05:54.000Z</time>
      </trkpt>
      <trkpt lat="43.53218" lon="5.57156">
        <ele>624</ele>
        <time>2022-02-15T09:05:55.000Z</time>
      </trkpt>
      <trkpt lat="43.53217" lon="5.57157">
        <ele>624</ele>
        <time>2022-02-15T09:05:56.000Z</time>
      </trkpt>
      <trkpt lat="43.53217" lon="5.57157">
        <ele>624</ele>
        <time>2022-02-15T09:05:57.000Z</time>
      </trkpt>
      <trkpt lat="43.53217" lon="5.57158">
        <ele>624</ele>
        <time>2022-02-15T09:05:58.000Z</time>
      </trkpt>
      <trkpt lat="43.53217" lon="5.57158">
        <ele>624</ele>
        <time>2022-02-15T09:05:59.000Z</time>
      </trkpt>
      <trkpt lat="43.53216" lon="5.57158">
        <ele>624</ele>
        <time>2022-02-15T09:06:00.000Z</time>
      </trkpt>
      <trkpt lat="43.53216" lon="5.57158">
        <ele>624</ele>
        <time>2022-02-15T09:06:01.000Z</time>
      </trkpt>
      <trkpt lat="43.53216" lon="5.57158">
        <ele>624</ele>
        <time>2022-02-15T09:06:02.000Z</time>
      </trkpt>
      <trkpt lat="43.53215" lon="5.57158">
        <ele>625</ele>
        <time>2022-02-15T09:06:03.000Z</time>
      </trkpt>
      <trkpt lat="43.53215" lon="5.57159">
        <ele>625</ele>
        <time>2022-02-15T09:06:04.000Z</time>
      </trkpt>
      <trkpt lat="43.53215" lon="5.57159">
        <ele>625</ele>
        <time>2022-02-15T09:06:05.000Z</time>
      </trkpt>
      <trkpt lat="43.53214" lon="5.57159">
        <ele>625</ele>
        <time>2022-02-15T09:06:06.000Z</time>
      </trkpt>
      <trkpt lat="43.53214" lon="5.5716">
        <ele>625</ele>
        <time>2022-02-15T09:06:07.000Z</time>
      </trkpt>
      <trkpt lat="43.53213" lon="5.5716">
        <ele>625</ele>
        <time>2022-02-15T09:06:08.000Z</time>
      </trkpt>
      <trkpt lat="43.53213" lon="5.5716">
        <ele>626</ele>
        <time>2022-02-15T09:06:09.000Z</time>
      </trkpt>
      <trkpt lat="43.53212" lon="5.57159">
        <ele>626</ele>
        <time>2022-02-15T09:06:10.000Z</time>
      </trkpt>
      <trkpt lat="43.53212" lon="5.57159">
        <ele>626</ele>
        <time>2022-02-15T09:06:11.000Z</time>
      </trkpt>
      <trkpt lat="43.53211" lon="5.57159">
        <ele>626</ele>
        <time>2022-02-15T09:06:12.000Z</time>
      </trkpt>
      <trkpt lat="43.53211" lon="5.57159">
        <ele>626</ele>
        <time>2022-02-15T09:06:13.000Z</time>
      </trkpt>
      <trkpt lat="43.5321" lon="5.57158">
        <ele>626</ele>
        <time>2022-02-15T09:06:14.000Z</time>
      </trkpt>
      <trkpt lat="43.5321" lon="5.57158">
        <ele>626</ele>
        <time>2022-02-15T09:06:15.000Z</time>
      </trkpt>
      <trkpt lat="43.53209" lon="5.57158">
        <ele>626</ele>
        <time>2022-02-15T09:06:16.000Z</time>
      </trkpt>
      <trkpt lat="43.53209" lon="5.57158">
        <ele>626</ele>
        <time>2022-02-15T09:06:17.000Z</time>
      </trkpt>
      <trkpt lat="43.53208" lon="5.57157">
        <ele>626</ele>
        <time>2022-02-15T09:06:18.000Z</time>
      </trkpt>
      <trkpt lat="43.53208" lon="5.57157">
        <ele>626</ele>
        <time>2022-02-15T09:06:19.000Z</time>
      </trkpt>
      <trkpt lat="43.53208" lon="5.57157">
        <ele>626</ele>
        <time>2022-02-15T09:06:20.000Z</time>
      </trkpt>
      <trkpt lat="43.53208" lon="5.57157">
        <ele>627</ele>
        <time>2022-02-15T09:06:21.000Z</time>
      </trkpt>
      <trkpt lat="43.53208" lon="5.57157">
        <ele>627</ele>
        <time>2022-02-15T09:06:22.000Z</time>
      </trkpt>
      <trkpt lat="43.53208" lon="5.57157">
        <ele>627</ele>
        <time>2022-02-15T09:06:23.000Z</time>
      </trkpt>
      <trkpt lat="43.53208" lon="5.57157">
        <ele>627</ele>
        <time>2022-02-15T09:06:24.000Z</time>
      </trkpt>
      <trkpt lat="43.53208" lon="5.57156">
        <ele>627</ele>
        <time>2022-02-15T09:06:25.000Z</time>
      </trkpt>
      <trkpt lat="43.53208" lon="5.57157">
        <ele>627</ele>
        <time>2022-02-15T09:06:26.000Z</time>
      </trkpt>
      <trkpt lat="43.53208" lon="5.57157">
        <ele>627</ele>
        <time>2022-02-15T09:06:27.000Z</time>
      </trkpt>
      <trkpt lat="43.53208" lon="5.57157">
        <ele>627</ele>
        <time>2022-02-15T09:06:28.000Z</time>
      </trkpt>
      <trkpt lat="43.53207" lon="5.57157">
        <ele>627</ele>
        <time>2022-02-15T09:06:29.000Z</time>
      </trkpt>
      <trkpt lat="43.53207" lon="5.57157">
        <ele>627</ele>
        <time>2022-02-15T09:06:30.000Z</time>
      </trkpt>
      <trkpt lat="43.53207" lon="5.57157">
        <ele>627</ele>
        <time>2022-02-15T09:06:31.000Z</time>
      </trkpt>
      <trkpt lat="43.53207" lon="5.57158">
        <ele>627</ele>
        <time>2022-02-15T09:06:32.000Z</time>
      </trkpt>
      <trkpt lat="43.53207" lon="5.57158">
        <ele>628</ele>
        <time>2022-02-15T09:06:33.000Z</time>
      </trkpt>
      <trkpt lat="43.53207" lon="5.57159">
        <ele>628</ele>
        <time>2022-02-15T09:06:34.000Z</time>
      </trkpt>
      <trkpt lat="43.53207" lon="5.5716">
        <ele>628</ele>
        <time>2022-02-15T09:06:35.000Z</time>
      </trkpt>
      <trkpt lat="43.53206" lon="5.57161">
        <ele>628</ele>
        <time>2022-02-15T09:06:36.000Z</time>
      </trkpt>
      <trkpt lat="43.53206" lon="5.57161">
        <ele>628</ele>
        <time>2022-02-15T09:06:37.000Z</time>
      </trkpt>
      <trkpt lat="43.53205" lon="5.57161">
        <ele>628</ele>
        <time>2022-02-15T09:06:38.000Z</time>
      </trkpt>
      <trkpt lat="43.53205" lon="5.57161">
        <ele>629</ele>
        <time>2022-02-15T09:06:39.000Z</time>
      </trkpt>
      <trkpt lat="43.53204" lon="5.57161">
        <ele>629</ele>
        <time>2022-02-15T09:06:40.000Z</time>
      </trkpt>
      <trkpt lat="43.53204" lon="5.57161">
        <ele>629</ele>
        <time>2022-02-15T09:06:41.000Z</time>
      </trkpt>
      <trkpt lat="43.53203" lon="5.57161">
        <ele>630</ele>
        <time>2022-02-15T09:06:42.000Z</time>
      </trkpt>
      <trkpt lat="43.53203" lon="5.57161">
        <ele>630</ele>
        <time>2022-02-15T09:06:43.000Z</time>
      </trkpt>
      <trkpt lat="43.53203" lon="5.57161">
        <ele>630</ele>
        <time>2022-02-15T09:06:44.000Z</time>
      </trkpt>
      <trkpt lat="43.53202" lon="5.57162">
        <ele>630</ele>
        <time>2022-02-15T09:06:45.000Z</time>
      </trkpt>
      <trkpt lat="43.53202" lon="5.57162">
        <ele>631</ele>
        <time>2022-02-15T09:06:46.000Z</time>
      </trkpt>
      <trkpt lat="43.53201" lon="5.57162">
        <ele>631</ele>
        <time>2022-02-15T09:06:47.000Z</time>
      </trkpt>
      <trkpt lat="43.53201" lon="5.57162">
        <ele>631</ele>
        <time>2022-02-15T09:06:48.000Z</time>
      </trkpt>
      <trkpt lat="43.53201" lon="5.57162">
        <ele>631</ele>
        <time>2022-02-15T09:06:49.000Z</time>
      </trkpt>
      <trkpt lat="43.53201" lon="5.57162">
        <ele>631</ele>
        <time>2022-02-15T09:06:50.000Z</time>
      </trkpt>
      <trkpt lat="43.53201" lon="5.57162">
        <ele>631</ele>
        <time>2022-02-15T09:06:51.000Z</time>
      </trkpt>
      <trkpt lat="43.53201" lon="5.57162">
        <ele>632</ele>
        <time>2022-02-15T09:06:52.000Z</time>
      </trkpt>
      <trkpt lat="43.53201" lon="5.57162">
        <ele>632</ele>
        <time>2022-02-15T09:06:53.000Z</time>
      </trkpt>
      <trkpt lat="43.53201" lon="5.57162">
        <ele>632</ele>
        <time>2022-02-15T09:06:54.000Z</time>
      </trkpt>
      <trkpt lat="43.53201" lon="5.57162">
        <ele>632</ele>
        <time>2022-02-15T09:06:55.000Z</time>
      </trkpt>
      <trkpt lat="43.532" lon="5.57162">
        <ele>632</ele>
        <time>2022-02-15T09:06:56.000Z</time>
      </trkpt>
      <trkpt lat="43.532" lon="5.57162">
        <ele>632</ele>
        <time>2022-02-15T09:06:57.000Z</time>
      </trkpt>
      <trkpt lat="43.532" lon="5.57162">
        <ele>632</ele>
        <time>2022-02-15T09:06:58.000Z</time>
      </trkpt>
      <trkpt lat="43.532" lon="5.57162">
        <ele>632</ele>
        <time>2022-02-15T09:06:59.000Z</time>
      </trkpt>
      <trkpt lat="43.532" lon="5.57162">
        <ele>632</ele>
        <time>2022-02-15T09:07:00.000Z</time>
      </trkpt>
      <trkpt lat="43.532" lon="5.57162">
        <ele>632</ele>
        <time>2022-02-15T09:07:01.000Z</time>
      </trkpt>
      <trkpt lat="43.532" lon="5.57161">
        <ele>632</ele>
        <time>2022-02-15T09:07:02.000Z</time>
      </trkpt>
      <trkpt lat="43.532" lon="5.57161">
        <ele>632</ele>
        <time>2022-02-15T09:07:03.000Z</time>
      </trkpt>
      <trkpt lat="43.532" lon="5.57161">
        <ele>632</ele>
        <time>2022-02-15T09:07:04.000Z</time>
      </trkpt>
      <trkpt lat="43.532" lon="5.57161">
        <ele>633</ele>
        <time>2022-02-15T09:07:05.000Z</time>
      </trkpt>
      <trkpt lat="43.532" lon="5.57161">
        <ele>633</ele>
        <time>2022-02-15T09:07:06.000Z</time>
      </trkpt>
      <trkpt lat="43.532" lon="5.57161">
        <ele>633</ele>
        <time>2022-02-15T09:07:07.000Z</time>
      </trkpt>
      <trkpt lat="43.532" lon="5.57161">
        <ele>633</ele>
        <time>2022-02-15T09:07:08.000Z</time>
      </trkpt>
      <trkpt lat="43.532" lon="5.57162">
        <ele>633</ele>
        <time>2022-02-15T09:07:09.000Z</time>
      </trkpt>
      <trkpt lat="43.53199" lon="5.57162">
        <ele>633</ele>
        <time>2022-02-15T09:07:10.000Z</time>
      </trkpt>
      <trkpt lat="43.53199" lon="5.57163">
        <ele>633</ele>
        <time>2022-02-15T09:07:11.000Z</time>
      </trkpt>
      <trkpt lat="43.53198" lon="5.57163">
        <ele>633</ele>
        <time>2022-02-15T09:07:12.000Z</time>
      </trkpt>
      <trkpt lat="43.53198" lon="5.57164">
        <ele>633</ele>
        <time>2022-02-15T09:07:13.000Z</time>
      </trkpt>
      <trkpt lat="43.53197" lon="5.57165">
        <ele>634</ele>
        <time>2022-02-15T09:07:14.000Z</time>
      </trkpt>
      <trkpt lat="43.53197" lon="5.57165">
        <ele>634</ele>
        <time>2022-02-15T09:07:15.000Z</time>
      </trkpt>
      <trkpt lat="43.53196" lon="5.57166">
        <ele>634</ele>
        <time>2022-02-15T09:07:16.000Z</time>
      </trkpt>
      <trkpt lat="43.53196" lon="5.57166">
        <ele>634</ele>
        <time>2022-02-15T09:07:17.000Z</time>
      </trkpt>
      <trkpt lat="43.53195" lon="5.57166">
        <ele>634</ele>
        <time>2022-02-15T09:07:18.000Z</time>
      </trkpt>
      <trkpt lat="43.53195" lon="5.57167">
        <ele>634</ele>
        <time>2022-02-15T09:07:19.000Z</time>
      </trkpt>
      <trkpt lat="43.53194" lon="5.57167">
        <ele>634</ele>
        <time>2022-02-15T09:07:20.000Z</time>
      </trkpt>
      <trkpt lat="43.53193" lon="5.57168">
        <ele>634</ele>
        <time>2022-02-15T09:07:21.000Z</time>
      </trkpt>
      <trkpt lat="43.53193" lon="5.57169">
        <ele>634</ele>
        <time>2022-02-15T09:07:22.000Z</time>
      </trkpt>
      <trkpt lat="43.53192" lon="5.57169">
        <ele>634</ele>
        <time>2022-02-15T09:07:23.000Z</time>
      </trkpt>
      <trkpt lat="43.53192" lon="5.5717">
        <ele>634</ele>
        <time>2022-02-15T09:07:24.000Z</time>
      </trkpt>
      <trkpt lat="43.53191" lon="5.5717">
        <ele>634</ele>
        <time>2022-02-15T09:07:25.000Z</time>
      </trkpt>
      <trkpt lat="43.5319" lon="5.57171">
        <ele>634</ele>
        <time>2022-02-15T09:07:26.000Z</time>
      </trkpt>
      <trkpt lat="43.5319" lon="5.57171">
        <ele>634</ele>
        <time>2022-02-15T09:07:27.000Z</time>
      </trkpt>
      <trkpt lat="43.53189" lon="5.57171">
        <ele>634</ele>
        <time>2022-02-15T09:07:28.000Z</time>
      </trkpt>
      <trkpt lat="43.53189" lon="5.57171">
        <ele>634</ele>
        <time>2022-02-15T09:07:29.000Z</time>
      </trkpt>
      <trkpt lat="43.53188" lon="5.57171">
        <ele>634</ele>
        <time>2022-02-15T09:07:30.000Z</time>
      </trkpt>
      <trkpt lat="43.53188" lon="5.57172">
        <ele>634</ele>
        <time>2022-02-15T09:07:31.000Z</time>
      </trkpt>
      <trkpt lat="43.53187" lon="5.57172">
        <ele>634</ele>
        <time>2022-02-15T09:07:32.000Z</time>
      </trkpt>
      <trkpt lat="43.53187" lon="5.57173">
        <ele>634</ele>
        <time>2022-02-15T09:07:33.000Z</time>
      </trkpt>
      <trkpt lat="43.53186" lon="5.57173">
        <ele>634</ele>
        <time>2022-02-15T09:07:34.000Z</time>
      </trkpt>
      <trkpt lat="43.53186" lon="5.57173">
        <ele>634</ele>
        <time>2022-02-15T09:07:35.000Z</time>
      </trkpt>
      <trkpt lat="43.53186" lon="5.57174">
        <ele>634</ele>
        <time>2022-02-15T09:07:36.000Z</time>
      </trkpt>
      <trkpt lat="43.53186" lon="5.57175">
        <ele>634</ele>
        <time>2022-02-15T09:07:37.000Z</time>
      </trkpt>
      <trkpt lat="43.53185" lon="5.57176">
        <ele>634</ele>
        <time>2022-02-15T09:07:38.000Z</time>
      </trkpt>
      <trkpt lat="43.53185" lon="5.57176">
        <ele>634</ele>
        <time>2022-02-15T09:07:39.000Z</time>
      </trkpt>
      <trkpt lat="43.53185" lon="5.57176">
        <ele>634</ele>
        <time>2022-02-15T09:07:40.000Z</time>
      </trkpt>
      <trkpt lat="43.53184" lon="5.57177">
        <ele>634</ele>
        <time>2022-02-15T09:07:41.000Z</time>
      </trkpt>
      <trkpt lat="43.53184" lon="5.57177">
        <ele>634</ele>
        <time>2022-02-15T09:07:42.000Z</time>
      </trkpt>
      <trkpt lat="43.53184" lon="5.57177">
        <ele>634</ele>
        <time>2022-02-15T09:07:43.000Z</time>
      </trkpt>
      <trkpt lat="43.53184" lon="5.57177">
        <ele>634</ele>
        <time>2022-02-15T09:07:44.000Z</time>
      </trkpt>
      <trkpt lat="43.53184" lon="5.57177">
        <ele>634</ele>
        <time>2022-02-15T09:07:45.000Z</time>
      </trkpt>
      <trkpt lat="43.53184" lon="5.57177">
        <ele>634</ele>
        <time>2022-02-15T09:07:46.000Z</time>
      </trkpt>
      <trkpt lat="43.53184" lon="5.57177">
        <ele>634</ele>
        <time>2022-02-15T09:07:47.000Z</time>
      </trkpt>
      <trkpt lat="43.53184" lon="5.57178">
        <ele>634</ele>
        <time>2022-02-15T09:07:48.000Z</time>
      </trkpt>
      <trkpt lat="43.53183" lon="5.57178">
        <ele>635</ele>
        <time>2022-02-15T09:07:49.000Z</time>
      </trkpt>
      <trkpt lat="43.53183" lon="5.57178">
        <ele>635</ele>
        <time>2022-02-15T09:07:50.000Z</time>
      </trkpt>
      <trkpt lat="43.53183" lon="5.57178">
        <ele>635</ele>
        <time>2022-02-15T09:07:51.000Z</time>
      </trkpt>
      <trkpt lat="43.53183" lon="5.57178">
        <ele>635</ele>
        <time>2022-02-15T09:07:52.000Z</time>
      </trkpt>
      <trkpt lat="43.53183" lon="5.57178">
        <ele>635</ele>
        <time>2022-02-15T09:07:53.000Z</time>
      </trkpt>
      <trkpt lat="43.53183" lon="5.57178">
        <ele>635</ele>
        <time>2022-02-15T09:07:54.000Z</time>
      </trkpt>
      <trkpt lat="43.53183" lon="5.57178">
        <ele>635</ele>
        <time>2022-02-15T09:07:55.000Z</time>
      </trkpt>
      <trkpt lat="43.53183" lon="5.57178">
        <ele>635</ele>
        <time>2022-02-15T09:07:56.000Z</time>
      </trkpt>
      <trkpt lat="43.53183" lon="5.57179">
        <ele>635</ele>
        <time>2022-02-15T09:07:57.000Z</time>
      </trkpt>
      <trkpt lat="43.53183" lon="5.57179">
        <ele>635</ele>
        <time>2022-02-15T09:07:58.000Z</time>
      </trkpt>
      <trkpt lat="43.53183" lon="5.57178">
        <ele>635</ele>
        <time>2022-02-15T09:07:59.000Z</time>
      </trkpt>
      <trkpt lat="43.53183" lon="5.57178">
        <ele>635</ele>
        <time>2022-02-15T09:08:00.000Z</time>
      </trkpt>
      <trkpt lat="43.53183" lon="5.57178">
        <ele>635</ele>
        <time>2022-02-15T09:08:01.000Z</time>
      </trkpt>
      <trkpt lat="43.53183" lon="5.57178">
        <ele>635</ele>
        <time>2022-02-15T09:08:02.000Z</time>
      </trkpt>
      <trkpt lat="43.53183" lon="5.57178">
        <ele>635</ele>
        <time>2022-02-15T09:08:03.000Z</time>
      </trkpt>
      <trkpt lat="43.53183" lon="5.57178">
        <ele>635</ele>
        <time>2022-02-15T09:08:04.000Z</time>
      </trkpt>
      <trkpt lat="43.53183" lon="5.57178">
        <ele>635</ele>
        <time>2022-02-15T09:08:05.000Z</time>
      </trkpt>
      <trkpt lat="43.53183" lon="5.57178">
        <ele>635</ele>
        <time>2022-02-15T09:08:06.000Z</time>
      </trkpt>
      <trkpt lat="43.53183" lon="5.57178">
        <ele>635</ele>
        <time>2022-02-15T09:08:07.000Z</time>
      </trkpt>
      <trkpt lat="43.53183" lon="5.57178">
        <ele>635</ele>
        <time>2022-02-15T09:08:08.000Z</time>
      </trkpt>
      <trkpt lat="43.53183" lon="5.57178">
        <ele>635</ele>
        <time>2022-02-15T09:08:09.000Z</time>
      </trkpt>
      <trkpt lat="43.53183" lon="5.57178">
        <ele>635</ele>
        <time>2022-02-15T09:08:10.000Z</time>
      </trkpt>
      <trkpt lat="43.53183" lon="5.57178">
        <ele>636</ele>
        <time>2022-02-15T09:08:11.000Z</time>
      </trkpt>
      <trkpt lat="43.53183" lon="5.57178">
        <ele>636</ele>
        <time>2022-02-15T09:08:12.000Z</time>
      </trkpt>
      <trkpt lat="43.53183" lon="5.57178">
        <ele>636</ele>
        <time>2022-02-15T09:08:13.000Z</time>
      </trkpt>
      <trkpt lat="43.53183" lon="5.57178">
        <ele>636</ele>
        <time>2022-02-15T09:08:14.000Z</time>
      </trkpt>
      <trkpt lat="43.53183" lon="5.57178">
        <ele>636</ele>
        <time>2022-02-15T09:08:15.000Z</time>
      </trkpt>
      <trkpt lat="43.53183" lon="5.57178">
        <ele>636</ele>
        <time>2022-02-15T09:08:16.000Z</time>
      </trkpt>
      <trkpt lat="43.53183" lon="5.57178">
        <ele>636</ele>
        <time>2022-02-15T09:08:17.000Z</time>
      </trkpt>
      <trkpt lat="43.53183" lon="5.57178">
        <ele>636</ele>
        <time>2022-02-15T09:08:18.000Z</time>
      </trkpt>
      <trkpt lat="43.53183" lon="5.57178">
        <ele>636</ele>
        <time>2022-02-15T09:08:19.000Z</time>
      </trkpt>
      <trkpt lat="43.53183" lon="5.57178">
        <ele>636</ele>
        <time>2022-02-15T09:08:20.000Z</time>
      </trkpt>
      <trkpt lat="43.53183" lon="5.57178">
        <ele>636</ele>
        <time>2022-02-15T09:08:21.000Z</time>
      </trkpt>
      <trkpt lat="43.53183" lon="5.57178">
        <ele>636</ele>
        <time>2022-02-15T09:08:22.000Z</time>
      </trkpt>
      <trkpt lat="43.53183" lon="5.57178">
        <ele>636</ele>
        <time>2022-02-15T09:08:23.000Z</time>
      </trkpt>
      <trkpt lat="43.53183" lon="5.57178">
        <ele>636</ele>
        <time>2022-02-15T09:08:24.000Z</time>
      </trkpt>
      <trkpt lat="43.53183" lon="5.57178">
        <ele>636</ele>
        <time>2022-02-15T09:08:25.000Z</time>
      </trkpt>
      <trkpt lat="43.53183" lon="5.57178">
        <ele>636</ele>
        <time>2022-02-15T09:08:26.000Z</time>
      </trkpt>
      <trkpt lat="43.53183" lon="5.57178">
        <ele>636</ele>
        <time>2022-02-15T09:08:27.000Z</time>
      </trkpt>
      <trkpt lat="43.53183" lon="5.57178">
        <ele>636</ele>
        <time>2022-02-15T09:08:28.000Z</time>
      </trkpt>
      <trkpt lat="43.53183" lon="5.57178">
        <ele>636</ele>
        <time>2022-02-15T09:08:29.000Z</time>
      </trkpt>
      <trkpt lat="43.53183" lon="5.57178">
        <ele>636</ele>
        <time>2022-02-15T09:08:30.000Z</time>
      </trkpt>
      <trkpt lat="43.53183" lon="5.57178">
        <ele>636</ele>
        <time>2022-02-15T09:08:31.000Z</time>
      </trkpt>
      <trkpt lat="43.53183" lon="5.57178">
        <ele>636</ele>
        <time>2022-02-15T09:08:32.000Z</time>
      </trkpt>
      <trkpt lat="43.53183" lon="5.57178">
        <ele>636</ele>
        <time>2022-02-15T09:08:33.000Z</time>
      </trkpt>
      <trkpt lat="43.53183" lon="5.57178">
        <ele>636</ele>
        <time>2022-02-15T09:08:34.000Z</time>
      </trkpt>
      <trkpt lat="43.53183" lon="5.57178">
        <ele>636</ele>
        <time>2022-02-15T09:08:35.000Z</time>
      </trkpt>
      <trkpt lat="43.53183" lon="5.57178">
        <ele>636</ele>
        <time>2022-02-15T09:08:36.000Z</time>
      </trkpt>
      <trkpt lat="43.53183" lon="5.57178">
        <ele>636</ele>
        <time>2022-02-15T09:08:37.000Z</time>
      </trkpt>
      <trkpt lat="43.53183" lon="5.57178">
        <ele>636</ele>
        <time>2022-02-15T09:08:38.000Z</time>
      </trkpt>
      <trkpt lat="43.53183" lon="5.57178">
        <ele>636</ele>
        <time>2022-02-15T09:08:39.000Z</time>
      </trkpt>
      <trkpt lat="43.53183" lon="5.57178">
        <ele>636</ele>
        <time>2022-02-15T09:08:40.000Z</time>
      </trkpt>
      <trkpt lat="43.53183" lon="5.57178">
        <ele>636</ele>
        <time>2022-02-15T09:08:41.000Z</time>
      </trkpt>
      <trkpt lat="43.53183" lon="5.57178">
        <ele>636</ele>
        <time>2022-02-15T09:08:42.000Z</time>
      </trkpt>
      <trkpt lat="43.53183" lon="5.57178">
        <ele>636</ele>
        <time>2022-02-15T09:08:43.000Z</time>
      </trkpt>
      <trkpt lat="43.53183" lon="5.57178">
        <ele>636</ele>
        <time>2022-02-15T09:08:44.000Z</time>
      </trkpt>
      <trkpt lat="43.53183" lon="5.57178">
        <ele>636</ele>
        <time>2022-02-15T09:08:45.000Z</time>
      </trkpt>
      <trkpt lat="43.53183" lon="5.57178">
        <ele>636</ele>
        <time>2022-02-15T09:08:46.000Z</time>
      </trkpt>
      <trkpt lat="43.53183" lon="5.57178">
        <ele>636</ele>
        <time>2022-02-15T09:08:47.000Z</time>
      </trkpt>
      <trkpt lat="43.53183" lon="5.57178">
        <ele>636</ele>
        <time>2022-02-15T09:08:48.000Z</time>
      </trkpt>
      <trkpt lat="43.53183" lon="5.57178">
        <ele>636</ele>
        <time>2022-02-15T09:08:49.000Z</time>
      </trkpt>
      <trkpt lat="43.53183" lon="5.57178">
        <ele>636</ele>
        <time>2022-02-15T09:08:50.000Z</time>
      </trkpt>
      <trkpt lat="43.53183" lon="5.57178">
        <ele>636</ele>
        <time>2022-02-15T09:08:51.000Z</time>
      </trkpt>
      <trkpt lat="43.53183" lon="5.57178">
        <ele>636</ele>
        <time>2022-02-15T09:08:52.000Z</time>
      </trkpt>
      <trkpt lat="43.53183" lon="5.57178">
        <ele>636</ele>
        <time>2022-02-15T09:08:53.000Z</time>
      </trkpt>
      <trkpt lat="43.53183" lon="5.57178">
        <ele>636</ele>
        <time>2022-02-15T09:08:54.000Z</time>
      </trkpt>
      <trkpt lat="43.53183" lon="5.57178">
        <ele>636</ele>
        <time>2022-02-15T09:08:55.000Z</time>
      </trkpt>
      <trkpt lat="43.53183" lon="5.57178">
        <ele>636</ele>
        <time>2022-02-15T09:08:56.000Z</time>
      </trkpt>
      <trkpt lat="43.53183" lon="5.57178">
        <ele>636</ele>
        <time>2022-02-15T09:08:57.000Z</time>
      </trkpt>
      <trkpt lat="43.53183" lon="5.57178">
        <ele>636</ele>
        <time>2022-02-15T09:08:58.000Z</time>
      </trkpt>
      <trkpt lat="43.53183" lon="5.57178">
        <ele>636</ele>
        <time>2022-02-15T09:08:59.000Z</time>
      </trkpt>
      <trkpt lat="43.53183" lon="5.57178">
        <ele>636</ele>
        <time>2022-02-15T09:09:00.000Z</time>
      </trkpt>
      <trkpt lat="43.53183" lon="5.57179">
        <ele>636</ele>
        <time>2022-02-15T09:09:01.000Z</time>
      </trkpt>
      <trkpt lat="43.53184" lon="5.57179">
        <ele>636</ele>
        <time>2022-02-15T09:09:02.000Z</time>
      </trkpt>
      <trkpt lat="43.53184" lon="5.5718">
        <ele>636</ele>
        <time>2022-02-15T09:09:03.000Z</time>
      </trkpt>
      <trkpt lat="43.53185" lon="5.5718">
        <ele>636</ele>
        <time>2022-02-15T09:09:04.000Z</time>
      </trkpt>
      <trkpt lat="43.53185" lon="5.57181">
        <ele>636</ele>
        <time>2022-02-15T09:09:05.000Z</time>
      </trkpt>
      <trkpt lat="43.53185" lon="5.57181">
        <ele>636</ele>
        <time>2022-02-15T09:09:06.000Z</time>
      </trkpt>
      <trkpt lat="43.53186" lon="5.57181">
        <ele>636</ele>
        <time>2022-02-15T09:09:07.000Z</time>
      </trkpt>
      <trkpt lat="43.53186" lon="5.57182">
        <ele>637</ele>
        <time>2022-02-15T09:09:08.000Z</time>
      </trkpt>
      <trkpt lat="43.53187" lon="5.57182">
        <ele>637</ele>
        <time>2022-02-15T09:09:09.000Z</time>
      </trkpt>
      <trkpt lat="43.53188" lon="5.57183">
        <ele>637</ele>
        <time>2022-02-15T09:09:10.000Z</time>
      </trkpt>
      <trkpt lat="43.53188" lon="5.57184">
        <ele>637</ele>
        <time>2022-02-15T09:09:11.000Z</time>
      </trkpt>
      <trkpt lat="43.53187" lon="5.57184">
        <ele>637</ele>
        <time>2022-02-15T09:09:12.000Z</time>
      </trkpt>
      <trkpt lat="43.53187" lon="5.57184">
        <ele>637</ele>
        <time>2022-02-15T09:09:13.000Z</time>
      </trkpt>
      <trkpt lat="43.53187" lon="5.57185">
        <ele>638</ele>
        <time>2022-02-15T09:09:14.000Z</time>
      </trkpt>
      <trkpt lat="43.53187" lon="5.57185">
        <ele>638</ele>
        <time>2022-02-15T09:09:15.000Z</time>
      </trkpt>
      <trkpt lat="43.53187" lon="5.57185">
        <ele>638</ele>
        <time>2022-02-15T09:09:16.000Z</time>
      </trkpt>
      <trkpt lat="43.53188" lon="5.57185">
        <ele>638</ele>
        <time>2022-02-15T09:09:17.000Z</time>
      </trkpt>
      <trkpt lat="43.53188" lon="5.57185">
        <ele>638</ele>
        <time>2022-02-15T09:09:18.000Z</time>
      </trkpt>
      <trkpt lat="43.53188" lon="5.57185">
        <ele>638</ele>
        <time>2022-02-15T09:09:19.000Z</time>
      </trkpt>
      <trkpt lat="43.53187" lon="5.57185">
        <ele>638</ele>
        <time>2022-02-15T09:09:20.000Z</time>
      </trkpt>
      <trkpt lat="43.53187" lon="5.57185">
        <ele>638</ele>
        <time>2022-02-15T09:09:21.000Z</time>
      </trkpt>
      <trkpt lat="43.53187" lon="5.57185">
        <ele>638</ele>
        <time>2022-02-15T09:09:22.000Z</time>
      </trkpt>
      <trkpt lat="43.53187" lon="5.57185">
        <ele>638</ele>
        <time>2022-02-15T09:09:23.000Z</time>
      </trkpt>
      <trkpt lat="43.53187" lon="5.57185">
        <ele>639</ele>
        <time>2022-02-15T09:09:24.000Z</time>
      </trkpt>
      <trkpt lat="43.53187" lon="5.57185">
        <ele>639</ele>
        <time>2022-02-15T09:09:25.000Z</time>
      </trkpt>
      <trkpt lat="43.53187" lon="5.57184">
        <ele>639</ele>
        <time>2022-02-15T09:09:26.000Z</time>
      </trkpt>
      <trkpt lat="43.53187" lon="5.57184">
        <ele>639</ele>
        <time>2022-02-15T09:09:27.000Z</time>
      </trkpt>
      <trkpt lat="43.53187" lon="5.57184">
        <ele>639</ele>
        <time>2022-02-15T09:09:28.000Z</time>
      </trkpt>
      <trkpt lat="43.53187" lon="5.57184">
        <ele>639</ele>
        <time>2022-02-15T09:09:29.000Z</time>
      </trkpt>
      <trkpt lat="43.53187" lon="5.57184">
        <ele>639</ele>
        <time>2022-02-15T09:09:30.000Z</time>
      </trkpt>
      <trkpt lat="43.53187" lon="5.57184">
        <ele>639</ele>
        <time>2022-02-15T09:09:31.000Z</time>
      </trkpt>
      <trkpt lat="43.53187" lon="5.57184">
        <ele>639</ele>
        <time>2022-02-15T09:09:32.000Z</time>
      </trkpt>
      <trkpt lat="43.53187" lon="5.57184">
        <ele>639</ele>
        <time>2022-02-15T09:09:33.000Z</time>
      </trkpt>
      <trkpt lat="43.53187" lon="5.57184">
        <ele>639</ele>
        <time>2022-02-15T09:09:34.000Z</time>
      </trkpt>
      <trkpt lat="43.53187" lon="5.57184">
        <ele>639</ele>
        <time>2022-02-15T09:09:35.000Z</time>
      </trkpt>
      <trkpt lat="43.53187" lon="5.57184">
        <ele>639</ele>
        <time>2022-02-15T09:09:36.000Z</time>
      </trkpt>
      <trkpt lat="43.53187" lon="5.57184">
        <ele>639</ele>
        <time>2022-02-15T09:09:37.000Z</time>
      </trkpt>
      <trkpt lat="43.53187" lon="5.57184">
        <ele>639</ele>
        <time>2022-02-15T09:09:38.000Z</time>
      </trkpt>
      <trkpt lat="43.53187" lon="5.57184">
        <ele>639</ele>
        <time>2022-02-15T09:09:39.000Z</time>
      </trkpt>
      <trkpt lat="43.53187" lon="5.57184">
        <ele>640</ele>
        <time>2022-02-15T09:09:40.000Z</time>
      </trkpt>
      <trkpt lat="43.53188" lon="5.57185">
        <ele>640</ele>
        <time>2022-02-15T09:09:41.000Z</time>
      </trkpt>
      <trkpt lat="43.53188" lon="5.57186">
        <ele>640</ele>
        <time>2022-02-15T09:09:42.000Z</time>
      </trkpt>
      <trkpt lat="43.53188" lon="5.57186">
        <ele>640</ele>
        <time>2022-02-15T09:09:43.000Z</time>
      </trkpt>
      <trkpt lat="43.53189" lon="5.57186">
        <ele>640</ele>
        <time>2022-02-15T09:09:44.000Z</time>
      </trkpt>
      <trkpt lat="43.53189" lon="5.57187">
        <ele>640</ele>
        <time>2022-02-15T09:09:45.000Z</time>
      </trkpt>
      <trkpt lat="43.5319" lon="5.57187">
        <ele>641</ele>
        <time>2022-02-15T09:09:46.000Z</time>
      </trkpt>
      <trkpt lat="43.5319" lon="5.57188">
        <ele>641</ele>
        <time>2022-02-15T09:09:47.000Z</time>
      </trkpt>
      <trkpt lat="43.5319" lon="5.57188">
        <ele>641</ele>
        <time>2022-02-15T09:09:48.000Z</time>
      </trkpt>
      <trkpt lat="43.5319" lon="5.57188">
        <ele>641</ele>
        <time>2022-02-15T09:09:49.000Z</time>
      </trkpt>
      <trkpt lat="43.5319" lon="5.57188">
        <ele>641</ele>
        <time>2022-02-15T09:09:50.000Z</time>
      </trkpt>
      <trkpt lat="43.5319" lon="5.57188">
        <ele>641</ele>
        <time>2022-02-15T09:09:51.000Z</time>
      </trkpt>
      <trkpt lat="43.5319" lon="5.57188">
        <ele>641</ele>
        <time>2022-02-15T09:09:52.000Z</time>
      </trkpt>
      <trkpt lat="43.5319" lon="5.57188">
        <ele>641</ele>
        <time>2022-02-15T09:09:53.000Z</time>
      </trkpt>
      <trkpt lat="43.5319" lon="5.57188">
        <ele>641</ele>
        <time>2022-02-15T09:09:54.000Z</time>
      </trkpt>
      <trkpt lat="43.5319" lon="5.57187">
        <ele>641</ele>
        <time>2022-02-15T09:09:55.000Z</time>
      </trkpt>
      <trkpt lat="43.5319" lon="5.57187">
        <ele>641</ele>
        <time>2022-02-15T09:09:56.000Z</time>
      </trkpt>
      <trkpt lat="43.5319" lon="5.57187">
        <ele>641</ele>
        <time>2022-02-15T09:09:57.000Z</time>
      </trkpt>
      <trkpt lat="43.5319" lon="5.57187">
        <ele>641</ele>
        <time>2022-02-15T09:09:58.000Z</time>
      </trkpt>
      <trkpt lat="43.5319" lon="5.57187">
        <ele>641</ele>
        <time>2022-02-15T09:09:59.000Z</time>
      </trkpt>
      <trkpt lat="43.5319" lon="5.57187">
        <ele>641</ele>
        <time>2022-02-15T09:10:00.000Z</time>
      </trkpt>
      <trkpt lat="43.5319" lon="5.57187">
        <ele>641</ele>
        <time>2022-02-15T09:10:01.000Z</time>
      </trkpt>
      <trkpt lat="43.5319" lon="5.57188">
        <ele>641</ele>
        <time>2022-02-15T09:10:02.000Z</time>
      </trkpt>
      <trkpt lat="43.53191" lon="5.57188">
        <ele>642</ele>
        <time>2022-02-15T09:10:03.000Z</time>
      </trkpt>
      <trkpt lat="43.53191" lon="5.57189">
        <ele>642</ele>
        <time>2022-02-15T09:10:04.000Z</time>
      </trkpt>
      <trkpt lat="43.53191" lon="5.57189">
        <ele>642</ele>
        <time>2022-02-15T09:10:05.000Z</time>
      </trkpt>
      <trkpt lat="43.53192" lon="5.5719">
        <ele>642</ele>
        <time>2022-02-15T09:10:06.000Z</time>
      </trkpt>
      <trkpt lat="43.53192" lon="5.5719">
        <ele>642</ele>
        <time>2022-02-15T09:10:07.000Z</time>
      </trkpt>
      <trkpt lat="43.53192" lon="5.57191">
        <ele>642</ele>
        <time>2022-02-15T09:10:08.000Z</time>
      </trkpt>
      <trkpt lat="43.53192" lon="5.57192">
        <ele>642</ele>
        <time>2022-02-15T09:10:09.000Z</time>
      </trkpt>
      <trkpt lat="43.53192" lon="5.57192">
        <ele>642</ele>
        <time>2022-02-15T09:10:10.000Z</time>
      </trkpt>
      <trkpt lat="43.53192" lon="5.57192">
        <ele>642</ele>
        <time>2022-02-15T09:10:11.000Z</time>
      </trkpt>
      <trkpt lat="43.53192" lon="5.57193">
        <ele>642</ele>
        <time>2022-02-15T09:10:12.000Z</time>
      </trkpt>
      <trkpt lat="43.53191" lon="5.57193">
        <ele>642</ele>
        <time>2022-02-15T09:10:13.000Z</time>
      </trkpt>
      <trkpt lat="43.53191" lon="5.57193">
        <ele>643</ele>
        <time>2022-02-15T09:10:14.000Z</time>
      </trkpt>
      <trkpt lat="43.53191" lon="5.57194">
        <ele>643</ele>
        <time>2022-02-15T09:10:15.000Z</time>
      </trkpt>
      <trkpt lat="43.53191" lon="5.57194">
        <ele>643</ele>
        <time>2022-02-15T09:10:16.000Z</time>
      </trkpt>
      <trkpt lat="43.53191" lon="5.57194">
        <ele>643</ele>
        <time>2022-02-15T09:10:17.000Z</time>
      </trkpt>
      <trkpt lat="43.53191" lon="5.57194">
        <ele>643</ele>
        <time>2022-02-15T09:10:18.000Z</time>
      </trkpt>
      <trkpt lat="43.53191" lon="5.57194">
        <ele>643</ele>
        <time>2022-02-15T09:10:19.000Z</time>
      </trkpt>
      <trkpt lat="43.53191" lon="5.57194">
        <ele>643</ele>
        <time>2022-02-15T09:10:20.000Z</time>
      </trkpt>
      <trkpt lat="43.53191" lon="5.57194">
        <ele>643</ele>
        <time>2022-02-15T09:10:21.000Z</time>
      </trkpt>
      <trkpt lat="43.53191" lon="5.57194">
        <ele>643</ele>
        <time>2022-02-15T09:10:22.000Z</time>
      </trkpt>
      <trkpt lat="43.53191" lon="5.57194">
        <ele>643</ele>
        <time>2022-02-15T09:10:23.000Z</time>
      </trkpt>
      <trkpt lat="43.53191" lon="5.57194">
        <ele>643</ele>
        <time>2022-02-15T09:10:24.000Z</time>
      </trkpt>
      <trkpt lat="43.53191" lon="5.57194">
        <ele>643</ele>
        <time>2022-02-15T09:10:25.000Z</time>
      </trkpt>
      <trkpt lat="43.53191" lon="5.57194">
        <ele>643</ele>
        <time>2022-02-15T09:10:26.000Z</time>
      </trkpt>
      <trkpt lat="43.53191" lon="5.57194">
        <ele>643</ele>
        <time>2022-02-15T09:10:27.000Z</time>
      </trkpt>
      <trkpt lat="43.53191" lon="5.57194">
        <ele>643</ele>
        <time>2022-02-15T09:10:28.000Z</time>
      </trkpt>
      <trkpt lat="43.53191" lon="5.57194">
        <ele>643</ele>
        <time>2022-02-15T09:10:29.000Z</time>
      </trkpt>
      <trkpt lat="43.53191" lon="5.57194">
        <ele>643</ele>
        <time>2022-02-15T09:10:30.000Z</time>
      </trkpt>
      <trkpt lat="43.53191" lon="5.57194">
        <ele>643</ele>
        <time>2022-02-15T09:10:31.000Z</time>
      </trkpt>
      <trkpt lat="43.53191" lon="5.57194">
        <ele>643</ele>
        <time>2022-02-15T09:10:32.000Z</time>
      </trkpt>
      <trkpt lat="43.53191" lon="5.57194">
        <ele>643</ele>
        <time>2022-02-15T09:10:33.000Z</time>
      </trkpt>
      <trkpt lat="43.53191" lon="5.57194">
        <ele>643</ele>
        <time>2022-02-15T09:10:34.000Z</time>
      </trkpt>
      <trkpt lat="43.53191" lon="5.57194">
        <ele>643</ele>
        <time>2022-02-15T09:10:35.000Z</time>
      </trkpt>
      <trkpt lat="43.53191" lon="5.57194">
        <ele>643</ele>
        <time>2022-02-15T09:10:36.000Z</time>
      </trkpt>
      <trkpt lat="43.53191" lon="5.57194">
        <ele>644</ele>
        <time>2022-02-15T09:10:37.000Z</time>
      </trkpt>
      <trkpt lat="43.53191" lon="5.57194">
        <ele>644</ele>
        <time>2022-02-15T09:10:38.000Z</time>
      </trkpt>
      <trkpt lat="43.53191" lon="5.57194">
        <ele>644</ele>
        <time>2022-02-15T09:10:39.000Z</time>
      </trkpt>
      <trkpt lat="43.53191" lon="5.57194">
        <ele>644</ele>
        <time>2022-02-15T09:10:40.000Z</time>
      </trkpt>
      <trkpt lat="43.53191" lon="5.57194">
        <ele>644</ele>
        <time>2022-02-15T09:10:41.000Z</time>
      </trkpt>
      <trkpt lat="43.53191" lon="5.57194">
        <ele>644</ele>
        <time>2022-02-15T09:10:42.000Z</time>
      </trkpt>
      <trkpt lat="43.53191" lon="5.57194">
        <ele>644</ele>
        <time>2022-02-15T09:10:43.000Z</time>
      </trkpt>
      <trkpt lat="43.53191" lon="5.57194">
        <ele>644</ele>
        <time>2022-02-15T09:10:44.000Z</time>
      </trkpt>
      <trkpt lat="43.53191" lon="5.57194">
        <ele>644</ele>
        <time>2022-02-15T09:10:45.000Z</time>
      </trkpt>
      <trkpt lat="43.53191" lon="5.57194">
        <ele>644</ele>
        <time>2022-02-15T09:10:46.000Z</time>
      </trkpt>
      <trkpt lat="43.53191" lon="5.57194">
        <ele>644</ele>
        <time>2022-02-15T09:10:47.000Z</time>
      </trkpt>
      <trkpt lat="43.53191" lon="5.57194">
        <ele>644</ele>
        <time>2022-02-15T09:10:48.000Z</time>
      </trkpt>
      <trkpt lat="43.53191" lon="5.57194">
        <ele>644</ele>
        <time>2022-02-15T09:10:49.000Z</time>
      </trkpt>
      <trkpt lat="43.53191" lon="5.57194">
        <ele>644</ele>
        <time>2022-02-15T09:10:50.000Z</time>
      </trkpt>
      <trkpt lat="43.53191" lon="5.57194">
        <ele>644</ele>
        <time>2022-02-15T09:10:51.000Z</time>
      </trkpt>
      <trkpt lat="43.53191" lon="5.57194">
        <ele>644</ele>
        <time>2022-02-15T09:10:52.000Z</time>
      </trkpt>
      <trkpt lat="43.53191" lon="5.57193">
        <ele>644</ele>
        <time>2022-02-15T09:10:53.000Z</time>
      </trkpt>
      <trkpt lat="43.53191" lon="5.57193">
        <ele>644</ele>
        <time>2022-02-15T09:10:54.000Z</time>
      </trkpt>
      <trkpt lat="43.53191" lon="5.57193">
        <ele>644</ele>
        <time>2022-02-15T09:10:55.000Z</time>
      </trkpt>
      <trkpt lat="43.53191" lon="5.57193">
        <ele>644</ele>
        <time>2022-02-15T09:10:56.000Z</time>
      </trkpt>
      <trkpt lat="43.53191" lon="5.57193">
        <ele>644</ele>
        <time>2022-02-15T09:10:57.000Z</time>
      </trkpt>
      <trkpt lat="43.53191" lon="5.57193">
        <ele>644</ele>
        <time>2022-02-15T09:10:58.000Z</time>
      </trkpt>
      <trkpt lat="43.53191" lon="5.57193">
        <ele>644</ele>
        <time>2022-02-15T09:10:59.000Z</time>
      </trkpt>
      <trkpt lat="43.53191" lon="5.57193">
        <ele>644</ele>
        <time>2022-02-15T09:11:00.000Z</time>
      </trkpt>
      <trkpt lat="43.53191" lon="5.57193">
        <ele>644</ele>
        <time>2022-02-15T09:11:01.000Z</time>
      </trkpt>
      <trkpt lat="43.53191" lon="5.57193">
        <ele>644</ele>
        <time>2022-02-15T09:11:02.000Z</time>
      </trkpt>
      <trkpt lat="43.53191" lon="5.57193">
        <ele>644</ele>
        <time>2022-02-15T09:11:03.000Z</time>
      </trkpt>
      <trkpt lat="43.53191" lon="5.57193">
        <ele>644</ele>
        <time>2022-02-15T09:11:04.000Z</time>
      </trkpt>
      <trkpt lat="43.53191" lon="5.57193">
        <ele>644</ele>
        <time>2022-02-15T09:11:05.000Z</time>
      </trkpt>
      <trkpt lat="43.53191" lon="5.57193">
        <ele>644</ele>
        <time>2022-02-15T09:11:06.000Z</time>
      </trkpt>
      <trkpt lat="43.53191" lon="5.57193">
        <ele>644</ele>
        <time>2022-02-15T09:11:07.000Z</time>
      </trkpt>
      <trkpt lat="43.53191" lon="5.57193">
        <ele>644</ele>
        <time>2022-02-15T09:11:08.000Z</time>
      </trkpt>
      <trkpt lat="43.53191" lon="5.57193">
        <ele>644</ele>
        <time>2022-02-15T09:11:09.000Z</time>
      </trkpt>
      <trkpt lat="43.53191" lon="5.57193">
        <ele>644</ele>
        <time>2022-02-15T09:11:10.000Z</time>
      </trkpt>
      <trkpt lat="43.53191" lon="5.57193">
        <ele>644</ele>
        <time>2022-02-15T09:11:11.000Z</time>
      </trkpt>
      <trkpt lat="43.53191" lon="5.57193">
        <ele>644</ele>
        <time>2022-02-15T09:11:12.000Z</time>
      </trkpt>
      <trkpt lat="43.53191" lon="5.57193">
        <ele>644</ele>
        <time>2022-02-15T09:11:13.000Z</time>
      </trkpt>
      <trkpt lat="43.53191" lon="5.57193">
        <ele>644</ele>
        <time>2022-02-15T09:11:14.000Z</time>
      </trkpt>
      <trkpt lat="43.53191" lon="5.57193">
        <ele>644</ele>
        <time>2022-02-15T09:11:15.000Z</time>
      </trkpt>
      <trkpt lat="43.53191" lon="5.57193">
        <ele>644</ele>
        <time>2022-02-15T09:11:16.000Z</time>
      </trkpt>
      <trkpt lat="43.53191" lon="5.57193">
        <ele>644</ele>
        <time>2022-02-15T09:11:17.000Z</time>
      </trkpt>
      <trkpt lat="43.53191" lon="5.57193">
        <ele>644</ele>
        <time>2022-02-15T09:11:18.000Z</time>
      </trkpt>
      <trkpt lat="43.53191" lon="5.57193">
        <ele>644</ele>
        <time>2022-02-15T09:11:19.000Z</time>
      </trkpt>
      <trkpt lat="43.53191" lon="5.57193">
        <ele>644</ele>
        <time>2022-02-15T09:11:20.000Z</time>
      </trkpt>
      <trkpt lat="43.53191" lon="5.57193">
        <ele>644</ele>
        <time>2022-02-15T09:11:21.000Z</time>
      </trkpt>
      <trkpt lat="43.53191" lon="5.57193">
        <ele>644</ele>
        <time>2022-02-15T09:11:22.000Z</time>
      </trkpt>
      <trkpt lat="43.53191" lon="5.57193">
        <ele>644</ele>
        <time>2022-02-15T09:11:23.000Z</time>
      </trkpt>
      <trkpt lat="43.53191" lon="5.57193">
        <ele>644</ele>
        <time>2022-02-15T09:11:24.000Z</time>
      </trkpt>
      <trkpt lat="43.53191" lon="5.57193">
        <ele>644</ele>
        <time>2022-02-15T09:11:25.000Z</time>
      </trkpt>
      <trkpt lat="43.53191" lon="5.57194">
        <ele>644</ele>
        <time>2022-02-15T09:11:26.000Z</time>
      </trkpt>
      <trkpt lat="43.53191" lon="5.57194">
        <ele>644</ele>
        <time>2022-02-15T09:11:27.000Z</time>
      </trkpt>
      <trkpt lat="43.53191" lon="5.57194">
        <ele>644</ele>
        <time>2022-02-15T09:11:28.000Z</time>
      </trkpt>
      <trkpt lat="43.53191" lon="5.57194">
        <ele>644</ele>
        <time>2022-02-15T09:11:29.000Z</time>
      </trkpt>
      <trkpt lat="43.53191" lon="5.57194">
        <ele>644</ele>
        <time>2022-02-15T09:11:30.000Z</time>
      </trkpt>
      <trkpt lat="43.53191" lon="5.57194">
        <ele>644</ele>
        <time>2022-02-15T09:11:31.000Z</time>
      </trkpt>
      <trkpt lat="43.53191" lon="5.57194">
        <ele>644</ele>
        <time>2022-02-15T09:11:32.000Z</time>
      </trkpt>
      <trkpt lat="43.5319" lon="5.57194">
        <ele>644</ele>
        <time>2022-02-15T09:11:33.000Z</time>
      </trkpt>
      <trkpt lat="43.5319" lon="5.57194">
        <ele>644</ele>
        <time>2022-02-15T09:11:34.000Z</time>
      </trkpt>
      <trkpt lat="43.5319" lon="5.57194">
        <ele>644</ele>
        <time>2022-02-15T09:11:35.000Z</time>
      </trkpt>
      <trkpt lat="43.5319" lon="5.57194">
        <ele>644</ele>
        <time>2022-02-15T09:11:36.000Z</time>
      </trkpt>
      <trkpt lat="43.5319" lon="5.57194">
        <ele>644</ele>
        <time>2022-02-15T09:11:37.000Z</time>
      </trkpt>
      <trkpt lat="43.5319" lon="5.57194">
        <ele>644</ele>
        <time>2022-02-15T09:11:38.000Z</time>
      </trkpt>
      <trkpt lat="43.5319" lon="5.57194">
        <ele>644</ele>
        <time>2022-02-15T09:11:39.000Z</time>
      </trkpt>
      <trkpt lat="43.5319" lon="5.57194">
        <ele>645</ele>
        <time>2022-02-15T09:11:40.000Z</time>
      </trkpt>
      <trkpt lat="43.5319" lon="5.57194">
        <ele>645</ele>
        <time>2022-02-15T09:11:41.000Z</time>
      </trkpt>
      <trkpt lat="43.5319" lon="5.57194">
        <ele>645</ele>
        <time>2022-02-15T09:11:42.000Z</time>
      </trkpt>
      <trkpt lat="43.5319" lon="5.57194">
        <ele>645</ele>
        <time>2022-02-15T09:11:43.000Z</time>
      </trkpt>
      <trkpt lat="43.5319" lon="5.57194">
        <ele>645</ele>
        <time>2022-02-15T09:11:44.000Z</time>
      </trkpt>
      <trkpt lat="43.53189" lon="5.57194">
        <ele>645</ele>
        <time>2022-02-15T09:11:45.000Z</time>
      </trkpt>
      <trkpt lat="43.53189" lon="5.57194">
        <ele>645</ele>
        <time>2022-02-15T09:11:46.000Z</time>
      </trkpt>
      <trkpt lat="43.53189" lon="5.57194">
        <ele>645</ele>
        <time>2022-02-15T09:11:47.000Z</time>
      </trkpt>
      <trkpt lat="43.53189" lon="5.57194">
        <ele>645</ele>
        <time>2022-02-15T09:11:48.000Z</time>
      </trkpt>
      <trkpt lat="43.53189" lon="5.57194">
        <ele>645</ele>
        <time>2022-02-15T09:11:49.000Z</time>
      </trkpt>
      <trkpt lat="43.53189" lon="5.57194">
        <ele>645</ele>
        <time>2022-02-15T09:11:50.000Z</time>
      </trkpt>
      <trkpt lat="43.53189" lon="5.57194">
        <ele>645</ele>
        <time>2022-02-15T09:11:51.000Z</time>
      </trkpt>
      <trkpt lat="43.53189" lon="5.57194">
        <ele>645</ele>
        <time>2022-02-15T09:11:52.000Z</time>
      </trkpt>
      <trkpt lat="43.53189" lon="5.57194">
        <ele>645</ele>
        <time>2022-02-15T09:11:53.000Z</time>
      </trkpt>
      <trkpt lat="43.53189" lon="5.57194">
        <ele>645</ele>
        <time>2022-02-15T09:11:54.000Z</time>
      </trkpt>
      <trkpt lat="43.53189" lon="5.57194">
        <ele>645</ele>
        <time>2022-02-15T09:11:55.000Z</time>
      </trkpt>
      <trkpt lat="43.53189" lon="5.57194">
        <ele>645</ele>
        <time>2022-02-15T09:11:56.000Z</time>
      </trkpt>
      <trkpt lat="43.53189" lon="5.57194">
        <ele>645</ele>
        <time>2022-02-15T09:11:57.000Z</time>
      </trkpt>
      <trkpt lat="43.53189" lon="5.57193">
        <ele>645</ele>
        <time>2022-02-15T09:11:58.000Z</time>
      </trkpt>
      <trkpt lat="43.53189" lon="5.57193">
        <ele>645</ele>
        <time>2022-02-15T09:11:59.000Z</time>
      </trkpt>
      <trkpt lat="43.53189" lon="5.57194">
        <ele>645</ele>
        <time>2022-02-15T09:12:00.000Z</time>
      </trkpt>
      <trkpt lat="43.53189" lon="5.57195">
        <ele>645</ele>
        <time>2022-02-15T09:12:01.000Z</time>
      </trkpt>
      <trkpt lat="43.53189" lon="5.57196">
        <ele>645</ele>
        <time>2022-02-15T09:12:02.000Z</time>
      </trkpt>
      <trkpt lat="43.53189" lon="5.57197">
        <ele>645</ele>
        <time>2022-02-15T09:12:03.000Z</time>
      </trkpt>
      <trkpt lat="43.53188" lon="5.57197">
        <ele>646</ele>
        <time>2022-02-15T09:12:04.000Z</time>
      </trkpt>
      <trkpt lat="43.53188" lon="5.57197">
        <ele>646</ele>
        <time>2022-02-15T09:12:05.000Z</time>
      </trkpt>
      <trkpt lat="43.53188" lon="5.57197">
        <ele>646</ele>
        <time>2022-02-15T09:12:06.000Z</time>
      </trkpt>
      <trkpt lat="43.53188" lon="5.57197">
        <ele>646</ele>
        <time>2022-02-15T09:12:07.000Z</time>
      </trkpt>
      <trkpt lat="43.53189" lon="5.57197">
        <ele>646</ele>
        <time>2022-02-15T09:12:08.000Z</time>
      </trkpt>
      <trkpt lat="43.5319" lon="5.57198">
        <ele>646</ele>
        <time>2022-02-15T09:12:09.000Z</time>
      </trkpt>
      <trkpt lat="43.5319" lon="5.57198">
        <ele>646</ele>
        <time>2022-02-15T09:12:10.000Z</time>
      </trkpt>
      <trkpt lat="43.53191" lon="5.57198">
        <ele>646</ele>
        <time>2022-02-15T09:12:11.000Z</time>
      </trkpt>
      <trkpt lat="43.53191" lon="5.57199">
        <ele>646</ele>
        <time>2022-02-15T09:12:12.000Z</time>
      </trkpt>
      <trkpt lat="43.53191" lon="5.572">
        <ele>646</ele>
        <time>2022-02-15T09:12:13.000Z</time>
      </trkpt>
      <trkpt lat="43.5319" lon="5.572">
        <ele>646</ele>
        <time>2022-02-15T09:12:14.000Z</time>
      </trkpt>
      <trkpt lat="43.5319" lon="5.572">
        <ele>647</ele>
        <time>2022-02-15T09:12:15.000Z</time>
      </trkpt>
      <trkpt lat="43.5319" lon="5.572">
        <ele>647</ele>
        <time>2022-02-15T09:12:16.000Z</time>
      </trkpt>
      <trkpt lat="43.5319" lon="5.57201">
        <ele>647</ele>
        <time>2022-02-15T09:12:17.000Z</time>
      </trkpt>
      <trkpt lat="43.53191" lon="5.57202">
        <ele>647</ele>
        <time>2022-02-15T09:12:18.000Z</time>
      </trkpt>
      <trkpt lat="43.5319" lon="5.57202">
        <ele>647</ele>
        <time>2022-02-15T09:12:19.000Z</time>
      </trkpt>
      <trkpt lat="43.5319" lon="5.57203">
        <ele>647</ele>
        <time>2022-02-15T09:12:20.000Z</time>
      </trkpt>
      <trkpt lat="43.5319" lon="5.57203">
        <ele>647</ele>
        <time>2022-02-15T09:12:21.000Z</time>
      </trkpt>
      <trkpt lat="43.5319" lon="5.57204">
        <ele>647</ele>
        <time>2022-02-15T09:12:22.000Z</time>
      </trkpt>
      <trkpt lat="43.53189" lon="5.57204">
        <ele>647</ele>
        <time>2022-02-15T09:12:23.000Z</time>
      </trkpt>
      <trkpt lat="43.53189" lon="5.57204">
        <ele>647</ele>
        <time>2022-02-15T09:12:24.000Z</time>
      </trkpt>
      <trkpt lat="43.53189" lon="5.57204">
        <ele>647</ele>
        <time>2022-02-15T09:12:25.000Z</time>
      </trkpt>
      <trkpt lat="43.53189" lon="5.57204">
        <ele>647</ele>
        <time>2022-02-15T09:12:26.000Z</time>
      </trkpt>
      <trkpt lat="43.53189" lon="5.57204">
        <ele>647</ele>
        <time>2022-02-15T09:12:27.000Z</time>
      </trkpt>
      <trkpt lat="43.53189" lon="5.57204">
        <ele>647</ele>
        <time>2022-02-15T09:12:28.000Z</time>
      </trkpt>
      <trkpt lat="43.53189" lon="5.57204">
        <ele>647</ele>
        <time>2022-02-15T09:12:29.000Z</time>
      </trkpt>
      <trkpt lat="43.53189" lon="5.57204">
        <ele>647</ele>
        <time>2022-02-15T09:12:30.000Z</time>
      </trkpt>
      <trkpt lat="43.53189" lon="5.57204">
        <ele>647</ele>
        <time>2022-02-15T09:12:31.000Z</time>
      </trkpt>
      <trkpt lat="43.53189" lon="5.57204">
        <ele>647</ele>
        <time>2022-02-15T09:12:32.000Z</time>
      </trkpt>
      <trkpt lat="43.53189" lon="5.57204">
        <ele>647</ele>
        <time>2022-02-15T09:12:33.000Z</time>
      </trkpt>
      <trkpt lat="43.53189" lon="5.57204">
        <ele>647</ele>
        <time>2022-02-15T09:12:34.000Z</time>
      </trkpt>
      <trkpt lat="43.53189" lon="5.57204">
        <ele>647</ele>
        <time>2022-02-15T09:12:35.000Z</time>
      </trkpt>
      <trkpt lat="43.53189" lon="5.57204">
        <ele>647</ele>
        <time>2022-02-15T09:12:36.000Z</time>
      </trkpt>
      <trkpt lat="43.53189" lon="5.57204">
        <ele>647</ele>
        <time>2022-02-15T09:12:37.000Z</time>
      </trkpt>
      <trkpt lat="43.5319" lon="5.57204">
        <ele>647</ele>
        <time>2022-02-15T09:12:38.000Z</time>
      </trkpt>
      <trkpt lat="43.5319" lon="5.57204">
        <ele>647</ele>
        <time>2022-02-15T09:12:39.000Z</time>
      </trkpt>
      <trkpt lat="43.5319" lon="5.57204">
        <ele>647</ele>
        <time>2022-02-15T09:12:40.000Z</time>
      </trkpt>
      <trkpt lat="43.53189" lon="5.57204">
        <ele>647</ele>
        <time>2022-02-15T09:12:41.000Z</time>
      </trkpt>
      <trkpt lat="43.5319" lon="5.57204">
        <ele>647</ele>
        <time>2022-02-15T09:12:42.000Z</time>
      </trkpt>
      <trkpt lat="43.5319" lon="5.57204">
        <ele>647</ele>
        <time>2022-02-15T09:12:43.000Z</time>
      </trkpt>
      <trkpt lat="43.5319" lon="5.57204">
        <ele>647</ele>
        <time>2022-02-15T09:12:44.000Z</time>
      </trkpt>
      <trkpt lat="43.5319" lon="5.57204">
        <ele>647</ele>
        <time>2022-02-15T09:12:45.000Z</time>
      </trkpt>
      <trkpt lat="43.5319" lon="5.57204">
        <ele>647</ele>
        <time>2022-02-15T09:12:46.000Z</time>
      </trkpt>
      <trkpt lat="43.5319" lon="5.57204">
        <ele>648</ele>
        <time>2022-02-15T09:12:47.000Z</time>
      </trkpt>
      <trkpt lat="43.5319" lon="5.57204">
        <ele>648</ele>
        <time>2022-02-15T09:12:48.000Z</time>
      </trkpt>
      <trkpt lat="43.5319" lon="5.57204">
        <ele>648</ele>
        <time>2022-02-15T09:12:49.000Z</time>
      </trkpt>
      <trkpt lat="43.5319" lon="5.57204">
        <ele>648</ele>
        <time>2022-02-15T09:12:50.000Z</time>
      </trkpt>
      <trkpt lat="43.5319" lon="5.57204">
        <ele>648</ele>
        <time>2022-02-15T09:12:51.000Z</time>
      </trkpt>
      <trkpt lat="43.5319" lon="5.57204">
        <ele>648</ele>
        <time>2022-02-15T09:12:52.000Z</time>
      </trkpt>
      <trkpt lat="43.5319" lon="5.57204">
        <ele>648</ele>
        <time>2022-02-15T09:12:53.000Z</time>
      </trkpt>
      <trkpt lat="43.5319" lon="5.57204">
        <ele>648</ele>
        <time>2022-02-15T09:12:54.000Z</time>
      </trkpt>
      <trkpt lat="43.5319" lon="5.57204">
        <ele>648</ele>
        <time>2022-02-15T09:12:55.000Z</time>
      </trkpt>
      <trkpt lat="43.5319" lon="5.57204">
        <ele>648</ele>
        <time>2022-02-15T09:12:56.000Z</time>
      </trkpt>
      <trkpt lat="43.5319" lon="5.57204">
        <ele>648</ele>
        <time>2022-02-15T09:12:57.000Z</time>
      </trkpt>
      <trkpt lat="43.5319" lon="5.57204">
        <ele>648</ele>
        <time>2022-02-15T09:12:58.000Z</time>
      </trkpt>
      <trkpt lat="43.53191" lon="5.57204">
        <ele>648</ele>
        <time>2022-02-15T09:12:59.000Z</time>
      </trkpt>
      <trkpt lat="43.53191" lon="5.57205">
        <ele>648</ele>
        <time>2022-02-15T09:13:00.000Z</time>
      </trkpt>
      <trkpt lat="43.53191" lon="5.57205">
        <ele>648</ele>
        <time>2022-02-15T09:13:01.000Z</time>
      </trkpt>
      <trkpt lat="43.53191" lon="5.57206">
        <ele>648</ele>
        <time>2022-02-15T09:13:02.000Z</time>
      </trkpt>
      <trkpt lat="43.53191" lon="5.57206">
        <ele>648</ele>
        <time>2022-02-15T09:13:03.000Z</time>
      </trkpt>
      <trkpt lat="43.5319" lon="5.57206">
        <ele>649</ele>
        <time>2022-02-15T09:13:04.000Z</time>
      </trkpt>
      <trkpt lat="43.5319" lon="5.57207">
        <ele>649</ele>
        <time>2022-02-15T09:13:05.000Z</time>
      </trkpt>
      <trkpt lat="43.5319" lon="5.57207">
        <ele>649</ele>
        <time>2022-02-15T09:13:06.000Z</time>
      </trkpt>
      <trkpt lat="43.5319" lon="5.57206">
        <ele>649</ele>
        <time>2022-02-15T09:13:07.000Z</time>
      </trkpt>
      <trkpt lat="43.5319" lon="5.57206">
        <ele>649</ele>
        <time>2022-02-15T09:13:08.000Z</time>
      </trkpt>
      <trkpt lat="43.5319" lon="5.57206">
        <ele>649</ele>
        <time>2022-02-15T09:13:09.000Z</time>
      </trkpt>
      <trkpt lat="43.5319" lon="5.57206">
        <ele>649</ele>
        <time>2022-02-15T09:13:10.000Z</time>
      </trkpt>
      <trkpt lat="43.53189" lon="5.57207">
        <ele>649</ele>
        <time>2022-02-15T09:13:11.000Z</time>
      </trkpt>
      <trkpt lat="43.53188" lon="5.57208">
        <ele>649</ele>
        <time>2022-02-15T09:13:12.000Z</time>
      </trkpt>
      <trkpt lat="43.53188" lon="5.57208">
        <ele>650</ele>
        <time>2022-02-15T09:13:13.000Z</time>
      </trkpt>
      <trkpt lat="43.53188" lon="5.57208">
        <ele>650</ele>
        <time>2022-02-15T09:13:14.000Z</time>
      </trkpt>
      <trkpt lat="43.53188" lon="5.57208">
        <ele>650</ele>
        <time>2022-02-15T09:13:15.000Z</time>
      </trkpt>
      <trkpt lat="43.53188" lon="5.57208">
        <ele>650</ele>
        <time>2022-02-15T09:13:16.000Z</time>
      </trkpt>
      <trkpt lat="43.53187" lon="5.57208">
        <ele>650</ele>
        <time>2022-02-15T09:13:17.000Z</time>
      </trkpt>
      <trkpt lat="43.53187" lon="5.57209">
        <ele>650</ele>
        <time>2022-02-15T09:13:18.000Z</time>
      </trkpt>
      <trkpt lat="43.53186" lon="5.5721">
        <ele>650</ele>
        <time>2022-02-15T09:13:19.000Z</time>
      </trkpt>
      <trkpt lat="43.53186" lon="5.5721">
        <ele>650</ele>
        <time>2022-02-15T09:13:20.000Z</time>
      </trkpt>
      <trkpt lat="43.53186" lon="5.5721">
        <ele>651</ele>
        <time>2022-02-15T09:13:21.000Z</time>
      </trkpt>
      <trkpt lat="43.53186" lon="5.5721">
        <ele>651</ele>
        <time>2022-02-15T09:13:22.000Z</time>
      </trkpt>
      <trkpt lat="43.53186" lon="5.5721">
        <ele>651</ele>
        <time>2022-02-15T09:13:23.000Z</time>
      </trkpt>
      <trkpt lat="43.53186" lon="5.5721">
        <ele>651</ele>
        <time>2022-02-15T09:13:24.000Z</time>
      </trkpt>
      <trkpt lat="43.53186" lon="5.5721">
        <ele>651</ele>
        <time>2022-02-15T09:13:25.000Z</time>
      </trkpt>
      <trkpt lat="43.53186" lon="5.57211">
        <ele>651</ele>
        <time>2022-02-15T09:13:26.000Z</time>
      </trkpt>
      <trkpt lat="43.53186" lon="5.57212">
        <ele>652</ele>
        <time>2022-02-15T09:13:27.000Z</time>
      </trkpt>
      <trkpt lat="43.53186" lon="5.57213">
        <ele>652</ele>
        <time>2022-02-15T09:13:28.000Z</time>
      </trkpt>
      <trkpt lat="43.53186" lon="5.57214">
        <ele>652</ele>
        <time>2022-02-15T09:13:29.000Z</time>
      </trkpt>
      <trkpt lat="43.53186" lon="5.57214">
        <ele>652</ele>
        <time>2022-02-15T09:13:30.000Z</time>
      </trkpt>
      <trkpt lat="43.53185" lon="5.57215">
        <ele>652</ele>
        <time>2022-02-15T09:13:31.000Z</time>
      </trkpt>
      <trkpt lat="43.53185" lon="5.57216">
        <ele>653</ele>
        <time>2022-02-15T09:13:32.000Z</time>
      </trkpt>
      <trkpt lat="43.53185" lon="5.57216">
        <ele>653</ele>
        <time>2022-02-15T09:13:33.000Z</time>
      </trkpt>
      <trkpt lat="43.53184" lon="5.57216">
        <ele>653</ele>
        <time>2022-02-15T09:13:34.000Z</time>
      </trkpt>
      <trkpt lat="43.53184" lon="5.57217">
        <ele>653</ele>
        <time>2022-02-15T09:13:35.000Z</time>
      </trkpt>
      <trkpt lat="43.53184" lon="5.57217">
        <ele>654</ele>
        <time>2022-02-15T09:13:36.000Z</time>
      </trkpt>
      <trkpt lat="43.53183" lon="5.57216">
        <ele>654</ele>
        <time>2022-02-15T09:13:37.000Z</time>
      </trkpt>
      <trkpt lat="43.53183" lon="5.57217">
        <ele>654</ele>
        <time>2022-02-15T09:13:38.000Z</time>
      </trkpt>
      <trkpt lat="43.53182" lon="5.57217">
        <ele>654</ele>
        <time>2022-02-15T09:13:39.000Z</time>
      </trkpt>
      <trkpt lat="43.53182" lon="5.57217">
        <ele>654</ele>
        <time>2022-02-15T09:13:40.000Z</time>
      </trkpt>
      <trkpt lat="43.53181" lon="5.57218">
        <ele>654</ele>
        <time>2022-02-15T09:13:41.000Z</time>
      </trkpt>
      <trkpt lat="43.5318" lon="5.57218">
        <ele>654</ele>
        <time>2022-02-15T09:13:42.000Z</time>
      </trkpt>
      <trkpt lat="43.5318" lon="5.57218">
        <ele>655</ele>
        <time>2022-02-15T09:13:43.000Z</time>
      </trkpt>
      <trkpt lat="43.53179" lon="5.57218">
        <ele>655</ele>
        <time>2022-02-15T09:13:44.000Z</time>
      </trkpt>
      <trkpt lat="43.53179" lon="5.57218">
        <ele>655</ele>
        <time>2022-02-15T09:13:45.000Z</time>
      </trkpt>
      <trkpt lat="43.53178" lon="5.57219">
        <ele>655</ele>
        <time>2022-02-15T09:13:46.000Z</time>
      </trkpt>
      <trkpt lat="43.53177" lon="5.57219">
        <ele>655</ele>
        <time>2022-02-15T09:13:47.000Z</time>
      </trkpt>
      <trkpt lat="43.53177" lon="5.57219">
        <ele>655</ele>
        <time>2022-02-15T09:13:48.000Z</time>
      </trkpt>
      <trkpt lat="43.53176" lon="5.57219">
        <ele>655</ele>
        <time>2022-02-15T09:13:49.000Z</time>
      </trkpt>
      <trkpt lat="43.53176" lon="5.57219">
        <ele>656</ele>
        <time>2022-02-15T09:13:50.000Z</time>
      </trkpt>
      <trkpt lat="43.53176" lon="5.57219">
        <ele>656</ele>
        <time>2022-02-15T09:13:51.000Z</time>
      </trkpt>
      <trkpt lat="43.53176" lon="5.57219">
        <ele>656</ele>
        <time>2022-02-15T09:13:52.000Z</time>
      </trkpt>
      <trkpt lat="43.53176" lon="5.57219">
        <ele>656</ele>
        <time>2022-02-15T09:13:53.000Z</time>
      </trkpt>
      <trkpt lat="43.53176" lon="5.57219">
        <ele>656</ele>
        <time>2022-02-15T09:13:54.000Z</time>
      </trkpt>
      <trkpt lat="43.53176" lon="5.57219">
        <ele>656</ele>
        <time>2022-02-15T09:13:55.000Z</time>
      </trkpt>
      <trkpt lat="43.53176" lon="5.57219">
        <ele>656</ele>
        <time>2022-02-15T09:13:56.000Z</time>
      </trkpt>
      <trkpt lat="43.53176" lon="5.57219">
        <ele>656</ele>
        <time>2022-02-15T09:13:57.000Z</time>
      </trkpt>
      <trkpt lat="43.53176" lon="5.57219">
        <ele>656</ele>
        <time>2022-02-15T09:13:58.000Z</time>
      </trkpt>
      <trkpt lat="43.53176" lon="5.57219">
        <ele>656</ele>
        <time>2022-02-15T09:13:59.000Z</time>
      </trkpt>
      <trkpt lat="43.53175" lon="5.57219">
        <ele>656</ele>
        <time>2022-02-15T09:14:00.000Z</time>
      </trkpt>
      <trkpt lat="43.53175" lon="5.5722">
        <ele>657</ele>
        <time>2022-02-15T09:14:01.000Z</time>
      </trkpt>
      <trkpt lat="43.53174" lon="5.5722">
        <ele>657</ele>
        <time>2022-02-15T09:14:02.000Z</time>
      </trkpt>
      <trkpt lat="43.53174" lon="5.5722">
        <ele>657</ele>
        <time>2022-02-15T09:14:03.000Z</time>
      </trkpt>
      <trkpt lat="43.53174" lon="5.5722">
        <ele>657</ele>
        <time>2022-02-15T09:14:04.000Z</time>
      </trkpt>
      <trkpt lat="43.53173" lon="5.57221">
        <ele>657</ele>
        <time>2022-02-15T09:14:05.000Z</time>
      </trkpt>
      <trkpt lat="43.53173" lon="5.57221">
        <ele>657</ele>
        <time>2022-02-15T09:14:06.000Z</time>
      </trkpt>
      <trkpt lat="43.53173" lon="5.57221">
        <ele>657</ele>
        <time>2022-02-15T09:14:07.000Z</time>
      </trkpt>
      <trkpt lat="43.53172" lon="5.57221">
        <ele>657</ele>
        <time>2022-02-15T09:14:08.000Z</time>
      </trkpt>
      <trkpt lat="43.53172" lon="5.57222">
        <ele>657</ele>
        <time>2022-02-15T09:14:09.000Z</time>
      </trkpt>
      <trkpt lat="43.53172" lon="5.57223">
        <ele>657</ele>
        <time>2022-02-15T09:14:10.000Z</time>
      </trkpt>
      <trkpt lat="43.53171" lon="5.57224">
        <ele>657</ele>
        <time>2022-02-15T09:14:11.000Z</time>
      </trkpt>
      <trkpt lat="43.5317" lon="5.57224">
        <ele>657</ele>
        <time>2022-02-15T09:14:12.000Z</time>
      </trkpt>
      <trkpt lat="43.5317" lon="5.57225">
        <ele>657</ele>
        <time>2022-02-15T09:14:13.000Z</time>
      </trkpt>
      <trkpt lat="43.53169" lon="5.57225">
        <ele>658</ele>
        <time>2022-02-15T09:14:14.000Z</time>
      </trkpt>
      <trkpt lat="43.53168" lon="5.57225">
        <ele>658</ele>
        <time>2022-02-15T09:14:15.000Z</time>
      </trkpt>
      <trkpt lat="43.53167" lon="5.57226">
        <ele>658</ele>
        <time>2022-02-15T09:14:16.000Z</time>
      </trkpt>
      <trkpt lat="43.53167" lon="5.57226">
        <ele>658</ele>
        <time>2022-02-15T09:14:17.000Z</time>
      </trkpt>
      <trkpt lat="43.53166" lon="5.57226">
        <ele>658</ele>
        <time>2022-02-15T09:14:18.000Z</time>
      </trkpt>
      <trkpt lat="43.53165" lon="5.57226">
        <ele>658</ele>
        <time>2022-02-15T09:14:19.000Z</time>
      </trkpt>
      <trkpt lat="43.53164" lon="5.57226">
        <ele>658</ele>
        <time>2022-02-15T09:14:20.000Z</time>
      </trkpt>
      <trkpt lat="43.53163" lon="5.57226">
        <ele>658</ele>
        <time>2022-02-15T09:14:21.000Z</time>
      </trkpt>
      <trkpt lat="43.53163" lon="5.57227">
        <ele>658</ele>
        <time>2022-02-15T09:14:22.000Z</time>
      </trkpt>
      <trkpt lat="43.53162" lon="5.57227">
        <ele>658</ele>
        <time>2022-02-15T09:14:23.000Z</time>
      </trkpt>
      <trkpt lat="43.53161" lon="5.57227">
        <ele>658</ele>
        <time>2022-02-15T09:14:24.000Z</time>
      </trkpt>
      <trkpt lat="43.53161" lon="5.57227">
        <ele>658</ele>
        <time>2022-02-15T09:14:25.000Z</time>
      </trkpt>
      <trkpt lat="43.5316" lon="5.57227">
        <ele>658</ele>
        <time>2022-02-15T09:14:26.000Z</time>
      </trkpt>
      <trkpt lat="43.53159" lon="5.57227">
        <ele>658</ele>
        <time>2022-02-15T09:14:27.000Z</time>
      </trkpt>
      <trkpt lat="43.53159" lon="5.57227">
        <ele>658</ele>
        <time>2022-02-15T09:14:28.000Z</time>
      </trkpt>
      <trkpt lat="43.53159" lon="5.57227">
        <ele>658</ele>
        <time>2022-02-15T09:14:29.000Z</time>
      </trkpt>
      <trkpt lat="43.53159" lon="5.57227">
        <ele>658</ele>
        <time>2022-02-15T09:14:30.000Z</time>
      </trkpt>
      <trkpt lat="43.53158" lon="5.57227">
        <ele>659</ele>
        <time>2022-02-15T09:14:31.000Z</time>
      </trkpt>
      <trkpt lat="43.53158" lon="5.57227">
        <ele>659</ele>
        <time>2022-02-15T09:14:32.000Z</time>
      </trkpt>
      <trkpt lat="43.53158" lon="5.57227">
        <ele>659</ele>
        <time>2022-02-15T09:14:33.000Z</time>
      </trkpt>
      <trkpt lat="43.53157" lon="5.57227">
        <ele>659</ele>
        <time>2022-02-15T09:14:34.000Z</time>
      </trkpt>
      <trkpt lat="43.53157" lon="5.57227">
        <ele>659</ele>
        <time>2022-02-15T09:14:35.000Z</time>
      </trkpt>
      <trkpt lat="43.53156" lon="5.57227">
        <ele>659</ele>
        <time>2022-02-15T09:14:36.000Z</time>
      </trkpt>
      <trkpt lat="43.53156" lon="5.57227">
        <ele>659</ele>
        <time>2022-02-15T09:14:37.000Z</time>
      </trkpt>
      <trkpt lat="43.53156" lon="5.57227">
        <ele>659</ele>
        <time>2022-02-15T09:14:38.000Z</time>
      </trkpt>
      <trkpt lat="43.53156" lon="5.57227">
        <ele>659</ele>
        <time>2022-02-15T09:14:39.000Z</time>
      </trkpt>
      <trkpt lat="43.53156" lon="5.57227">
        <ele>659</ele>
        <time>2022-02-15T09:14:40.000Z</time>
      </trkpt>
      <trkpt lat="43.53155" lon="5.57227">
        <ele>659</ele>
        <time>2022-02-15T09:14:41.000Z</time>
      </trkpt>
      <trkpt lat="43.53155" lon="5.57227">
        <ele>659</ele>
        <time>2022-02-15T09:14:42.000Z</time>
      </trkpt>
      <trkpt lat="43.53155" lon="5.57227">
        <ele>659</ele>
        <time>2022-02-15T09:14:43.000Z</time>
      </trkpt>
      <trkpt lat="43.53154" lon="5.57227">
        <ele>659</ele>
        <time>2022-02-15T09:14:44.000Z</time>
      </trkpt>
      <trkpt lat="43.53154" lon="5.57227">
        <ele>659</ele>
        <time>2022-02-15T09:14:45.000Z</time>
      </trkpt>
      <trkpt lat="43.53154" lon="5.57227">
        <ele>659</ele>
        <time>2022-02-15T09:14:46.000Z</time>
      </trkpt>
      <trkpt lat="43.53153" lon="5.57227">
        <ele>659</ele>
        <time>2022-02-15T09:14:47.000Z</time>
      </trkpt>
      <trkpt lat="43.53153" lon="5.57227">
        <ele>659</ele>
        <time>2022-02-15T09:14:48.000Z</time>
      </trkpt>
      <trkpt lat="43.53153" lon="5.57227">
        <ele>659</ele>
        <time>2022-02-15T09:14:49.000Z</time>
      </trkpt>
      <trkpt lat="43.53153" lon="5.57226">
        <ele>659</ele>
        <time>2022-02-15T09:14:50.000Z</time>
      </trkpt>
      <trkpt lat="43.53152" lon="5.57226">
        <ele>659</ele>
        <time>2022-02-15T09:14:51.000Z</time>
      </trkpt>
      <trkpt lat="43.53152" lon="5.57226">
        <ele>659</ele>
        <time>2022-02-15T09:14:52.000Z</time>
      </trkpt>
      <trkpt lat="43.53152" lon="5.57226">
        <ele>659</ele>
        <time>2022-02-15T09:14:53.000Z</time>
      </trkpt>
      <trkpt lat="43.53152" lon="5.57226">
        <ele>658</ele>
        <time>2022-02-15T09:14:54.000Z</time>
      </trkpt>
      <trkpt lat="43.53151" lon="5.57226">
        <ele>658</ele>
        <time>2022-02-15T09:14:55.000Z</time>
      </trkpt>
      <trkpt lat="43.53151" lon="5.57226">
        <ele>658</ele>
        <time>2022-02-15T09:14:56.000Z</time>
      </trkpt>
      <trkpt lat="43.53151" lon="5.57226">
        <ele>658</ele>
        <time>2022-02-15T09:14:57.000Z</time>
      </trkpt>
      <trkpt lat="43.53151" lon="5.57226">
        <ele>658</ele>
        <time>2022-02-15T09:14:58.000Z</time>
      </trkpt>
      <trkpt lat="43.53151" lon="5.57225">
        <ele>658</ele>
        <time>2022-02-15T09:14:59.000Z</time>
      </trkpt>
      <trkpt lat="43.53151" lon="5.57226">
        <ele>659</ele>
        <time>2022-02-15T09:15:00.000Z</time>
      </trkpt>
      <trkpt lat="43.53151" lon="5.57226">
        <ele>659</ele>
        <time>2022-02-15T09:15:01.000Z</time>
      </trkpt>
      <trkpt lat="43.53151" lon="5.57226">
        <ele>659</ele>
        <time>2022-02-15T09:15:02.000Z</time>
      </trkpt>
      <trkpt lat="43.53151" lon="5.57226">
        <ele>659</ele>
        <time>2022-02-15T09:15:03.000Z</time>
      </trkpt>
      <trkpt lat="43.53151" lon="5.57226">
        <ele>659</ele>
        <time>2022-02-15T09:15:04.000Z</time>
      </trkpt>
      <trkpt lat="43.53151" lon="5.57226">
        <ele>659</ele>
        <time>2022-02-15T09:15:05.000Z</time>
      </trkpt>
      <trkpt lat="43.53151" lon="5.57226">
        <ele>659</ele>
        <time>2022-02-15T09:15:06.000Z</time>
      </trkpt>
      <trkpt lat="43.5315" lon="5.57226">
        <ele>659</ele>
        <time>2022-02-15T09:15:07.000Z</time>
      </trkpt>
      <trkpt lat="43.53149" lon="5.57226">
        <ele>659</ele>
        <time>2022-02-15T09:15:08.000Z</time>
      </trkpt>
      <trkpt lat="43.53149" lon="5.57226">
        <ele>658</ele>
        <time>2022-02-15T09:15:09.000Z</time>
      </trkpt>
      <trkpt lat="43.53148" lon="5.57226">
        <ele>658</ele>
        <time>2022-02-15T09:15:10.000Z</time>
      </trkpt>
      <trkpt lat="43.53148" lon="5.57225">
        <ele>658</ele>
        <time>2022-02-15T09:15:11.000Z</time>
      </trkpt>
      <trkpt lat="43.53148" lon="5.57225">
        <ele>658</ele>
        <time>2022-02-15T09:15:12.000Z</time>
      </trkpt>
      <trkpt lat="43.53148" lon="5.57225">
        <ele>658</ele>
        <time>2022-02-15T09:15:13.000Z</time>
      </trkpt>
      <trkpt lat="43.53148" lon="5.57226">
        <ele>658</ele>
        <time>2022-02-15T09:15:14.000Z</time>
      </trkpt>
      <trkpt lat="43.53147" lon="5.57226">
        <ele>658</ele>
        <time>2022-02-15T09:15:15.000Z</time>
      </trkpt>
      <trkpt lat="43.53147" lon="5.57226">
        <ele>659</ele>
        <time>2022-02-15T09:15:16.000Z</time>
      </trkpt>
      <trkpt lat="43.53147" lon="5.57226">
        <ele>659</ele>
        <time>2022-02-15T09:15:17.000Z</time>
      </trkpt>
      <trkpt lat="43.53147" lon="5.57226">
        <ele>659</ele>
        <time>2022-02-15T09:15:18.000Z</time>
      </trkpt>
      <trkpt lat="43.53147" lon="5.57226">
        <ele>659</ele>
        <time>2022-02-15T09:15:19.000Z</time>
      </trkpt>
      <trkpt lat="43.53147" lon="5.57226">
        <ele>659</ele>
        <time>2022-02-15T09:15:20.000Z</time>
      </trkpt>
      <trkpt lat="43.53147" lon="5.57226">
        <ele>658</ele>
        <time>2022-02-15T09:15:21.000Z</time>
      </trkpt>
      <trkpt lat="43.53147" lon="5.57226">
        <ele>658</ele>
        <time>2022-02-15T09:15:22.000Z</time>
      </trkpt>
      <trkpt lat="43.53147" lon="5.57226">
        <ele>659</ele>
        <time>2022-02-15T09:15:23.000Z</time>
      </trkpt>
      <trkpt lat="43.53146" lon="5.57226">
        <ele>659</ele>
        <time>2022-02-15T09:15:24.000Z</time>
      </trkpt>
      <trkpt lat="43.53146" lon="5.57226">
        <ele>659</ele>
        <time>2022-02-15T09:15:25.000Z</time>
      </trkpt>
      <trkpt lat="43.53145" lon="5.57226">
        <ele>659</ele>
        <time>2022-02-15T09:15:26.000Z</time>
      </trkpt>
      <trkpt lat="43.53145" lon="5.57226">
        <ele>659</ele>
        <time>2022-02-15T09:15:27.000Z</time>
      </trkpt>
      <trkpt lat="43.53145" lon="5.57226">
        <ele>659</ele>
        <time>2022-02-15T09:15:28.000Z</time>
      </trkpt>
      <trkpt lat="43.53144" lon="5.57225">
        <ele>659</ele>
        <time>2022-02-15T09:15:29.000Z</time>
      </trkpt>
      <trkpt lat="43.53144" lon="5.57225">
        <ele>659</ele>
        <time>2022-02-15T09:15:30.000Z</time>
      </trkpt>
      <trkpt lat="43.53144" lon="5.57225">
        <ele>659</ele>
        <time>2022-02-15T09:15:31.000Z</time>
      </trkpt>
      <trkpt lat="43.53144" lon="5.57225">
        <ele>659</ele>
        <time>2022-02-15T09:15:32.000Z</time>
      </trkpt>
      <trkpt lat="43.53144" lon="5.57225">
        <ele>659</ele>
        <time>2022-02-15T09:15:33.000Z</time>
      </trkpt>
      <trkpt lat="43.53144" lon="5.57224">
        <ele>659</ele>
        <time>2022-02-15T09:15:34.000Z</time>
      </trkpt>
      <trkpt lat="43.53144" lon="5.57224">
        <ele>659</ele>
        <time>2022-02-15T09:15:35.000Z</time>
      </trkpt>
      <trkpt lat="43.53144" lon="5.57224">
        <ele>659</ele>
        <time>2022-02-15T09:15:36.000Z</time>
      </trkpt>
      <trkpt lat="43.53144" lon="5.57224">
        <ele>659</ele>
        <time>2022-02-15T09:15:37.000Z</time>
      </trkpt>
      <trkpt lat="43.53143" lon="5.57224">
        <ele>659</ele>
        <time>2022-02-15T09:15:38.000Z</time>
      </trkpt>
      <trkpt lat="43.53143" lon="5.57224">
        <ele>659</ele>
        <time>2022-02-15T09:15:39.000Z</time>
      </trkpt>
      <trkpt lat="43.53143" lon="5.57223">
        <ele>659</ele>
        <time>2022-02-15T09:15:40.000Z</time>
      </trkpt>
      <trkpt lat="43.53142" lon="5.57223">
        <ele>659</ele>
        <time>2022-02-15T09:15:41.000Z</time>
      </trkpt>
      <trkpt lat="43.53142" lon="5.57222">
        <ele>659</ele>
        <time>2022-02-15T09:15:42.000Z</time>
      </trkpt>
      <trkpt lat="43.53142" lon="5.57221">
        <ele>659</ele>
        <time>2022-02-15T09:15:43.000Z</time>
      </trkpt>
      <trkpt lat="43.53142" lon="5.57221">
        <ele>659</ele>
        <time>2022-02-15T09:15:44.000Z</time>
      </trkpt>
      <trkpt lat="43.53142" lon="5.57221">
        <ele>658</ele>
        <time>2022-02-15T09:15:45.000Z</time>
      </trkpt>
      <trkpt lat="43.53142" lon="5.5722">
        <ele>658</ele>
        <time>2022-02-15T09:15:46.000Z</time>
      </trkpt>
      <trkpt lat="43.53142" lon="5.5722">
        <ele>658</ele>
        <time>2022-02-15T09:15:47.000Z</time>
      </trkpt>
      <trkpt lat="43.53142" lon="5.5722">
        <ele>658</ele>
        <time>2022-02-15T09:15:48.000Z</time>
      </trkpt>
      <trkpt lat="43.53141" lon="5.5722">
        <ele>658</ele>
        <time>2022-02-15T09:15:49.000Z</time>
      </trkpt>
      <trkpt lat="43.53141" lon="5.5722">
        <ele>658</ele>
        <time>2022-02-15T09:15:50.000Z</time>
      </trkpt>
      <trkpt lat="43.53141" lon="5.5722">
        <ele>658</ele>
        <time>2022-02-15T09:15:51.000Z</time>
      </trkpt>
      <trkpt lat="43.53141" lon="5.5722">
        <ele>658</ele>
        <time>2022-02-15T09:15:52.000Z</time>
      </trkpt>
      <trkpt lat="43.53141" lon="5.5722">
        <ele>658</ele>
        <time>2022-02-15T09:15:53.000Z</time>
      </trkpt>
      <trkpt lat="43.53141" lon="5.5722">
        <ele>658</ele>
        <time>2022-02-15T09:15:54.000Z</time>
      </trkpt>
      <trkpt lat="43.53141" lon="5.5722">
        <ele>658</ele>
        <time>2022-02-15T09:15:55.000Z</time>
      </trkpt>
      <trkpt lat="43.53141" lon="5.5722">
        <ele>658</ele>
        <time>2022-02-15T09:15:56.000Z</time>
      </trkpt>
      <trkpt lat="43.53141" lon="5.5722">
        <ele>658</ele>
        <time>2022-02-15T09:15:57.000Z</time>
      </trkpt>
      <trkpt lat="43.53141" lon="5.5722">
        <ele>659</ele>
        <time>2022-02-15T09:15:58.000Z</time>
      </trkpt>
      <trkpt lat="43.53141" lon="5.5722">
        <ele>659</ele>
        <time>2022-02-15T09:15:59.000Z</time>
      </trkpt>
      <trkpt lat="43.53141" lon="5.5722">
        <ele>659</ele>
        <time>2022-02-15T09:16:00.000Z</time>
      </trkpt>
      <trkpt lat="43.53141" lon="5.5722">
        <ele>659</ele>
        <time>2022-02-15T09:16:01.000Z</time>
      </trkpt>
      <trkpt lat="43.53141" lon="5.5722">
        <ele>659</ele>
        <time>2022-02-15T09:16:02.000Z</time>
      </trkpt>
      <trkpt lat="43.53141" lon="5.5722">
        <ele>659</ele>
        <time>2022-02-15T09:16:03.000Z</time>
      </trkpt>
      <trkpt lat="43.53141" lon="5.5722">
        <ele>659</ele>
        <time>2022-02-15T09:16:04.000Z</time>
      </trkpt>
      <trkpt lat="43.53141" lon="5.5722">
        <ele>658</ele>
        <time>2022-02-15T09:16:05.000Z</time>
      </trkpt>
      <trkpt lat="43.5314" lon="5.5722">
        <ele>658</ele>
        <time>2022-02-15T09:16:06.000Z</time>
      </trkpt>
      <trkpt lat="43.5314" lon="5.57221">
        <ele>658</ele>
        <time>2022-02-15T09:16:07.000Z</time>
      </trkpt>
      <trkpt lat="43.5314" lon="5.57221">
        <ele>658</ele>
        <time>2022-02-15T09:16:08.000Z</time>
      </trkpt>
      <trkpt lat="43.5314" lon="5.57222">
        <ele>658</ele>
        <time>2022-02-15T09:16:09.000Z</time>
      </trkpt>
      <trkpt lat="43.5314" lon="5.57222">
        <ele>658</ele>
        <time>2022-02-15T09:16:10.000Z</time>
      </trkpt>
      <trkpt lat="43.5314" lon="5.57223">
        <ele>657</ele>
        <time>2022-02-15T09:16:11.000Z</time>
      </trkpt>
      <trkpt lat="43.5314" lon="5.57223">
        <ele>657</ele>
        <time>2022-02-15T09:16:12.000Z</time>
      </trkpt>
      <trkpt lat="43.5314" lon="5.57223">
        <ele>657</ele>
        <time>2022-02-15T09:16:13.000Z</time>
      </trkpt>
      <trkpt lat="43.5314" lon="5.57224">
        <ele>657</ele>
        <time>2022-02-15T09:16:14.000Z</time>
      </trkpt>
      <trkpt lat="43.5314" lon="5.57224">
        <ele>657</ele>
        <time>2022-02-15T09:16:15.000Z</time>
      </trkpt>
      <trkpt lat="43.53139" lon="5.57225">
        <ele>657</ele>
        <time>2022-02-15T09:16:16.000Z</time>
      </trkpt>
      <trkpt lat="43.53139" lon="5.57225">
        <ele>656</ele>
        <time>2022-02-15T09:16:17.000Z</time>
      </trkpt>
      <trkpt lat="43.5314" lon="5.57225">
        <ele>656</ele>
        <time>2022-02-15T09:16:18.000Z</time>
      </trkpt>
      <trkpt lat="43.53139" lon="5.57225">
        <ele>656</ele>
        <time>2022-02-15T09:16:19.000Z</time>
      </trkpt>
      <trkpt lat="43.53139" lon="5.57225">
        <ele>656</ele>
        <time>2022-02-15T09:16:20.000Z</time>
      </trkpt>
      <trkpt lat="43.53139" lon="5.57226">
        <ele>656</ele>
        <time>2022-02-15T09:16:21.000Z</time>
      </trkpt>
      <trkpt lat="43.53138" lon="5.57227">
        <ele>656</ele>
        <time>2022-02-15T09:16:22.000Z</time>
      </trkpt>
      <trkpt lat="43.53138" lon="5.57227">
        <ele>655</ele>
        <time>2022-02-15T09:16:23.000Z</time>
      </trkpt>
      <trkpt lat="43.53138" lon="5.57228">
        <ele>655</ele>
        <time>2022-02-15T09:16:24.000Z</time>
      </trkpt>
      <trkpt lat="43.53137" lon="5.57228">
        <ele>655</ele>
        <time>2022-02-15T09:16:25.000Z</time>
      </trkpt>
      <trkpt lat="43.53137" lon="5.57229">
        <ele>655</ele>
        <time>2022-02-15T09:16:26.000Z</time>
      </trkpt>
      <trkpt lat="43.53137" lon="5.5723">
        <ele>655</ele>
        <time>2022-02-15T09:16:27.000Z</time>
      </trkpt>
      <trkpt lat="43.53137" lon="5.5723">
        <ele>654</ele>
        <time>2022-02-15T09:16:28.000Z</time>
      </trkpt>
      <trkpt lat="43.53137" lon="5.57231">
        <ele>654</ele>
        <time>2022-02-15T09:16:29.000Z</time>
      </trkpt>
      <trkpt lat="43.53136" lon="5.57232">
        <ele>654</ele>
        <time>2022-02-15T09:16:30.000Z</time>
      </trkpt>
      <trkpt lat="43.53136" lon="5.57233">
        <ele>654</ele>
        <time>2022-02-15T09:16:31.000Z</time>
      </trkpt>
      <trkpt lat="43.53136" lon="5.57233">
        <ele>654</ele>
        <time>2022-02-15T09:16:32.000Z</time>
      </trkpt>
      <trkpt lat="43.53136" lon="5.57234">
        <ele>654</ele>
        <time>2022-02-15T09:16:33.000Z</time>
      </trkpt>
      <trkpt lat="43.53135" lon="5.57234">
        <ele>654</ele>
        <time>2022-02-15T09:16:34.000Z</time>
      </trkpt>
      <trkpt lat="43.53135" lon="5.57235">
        <ele>653</ele>
        <time>2022-02-15T09:16:35.000Z</time>
      </trkpt>
      <trkpt lat="43.53135" lon="5.57235">
        <ele>653</ele>
        <time>2022-02-15T09:16:36.000Z</time>
      </trkpt>
      <trkpt lat="43.53135" lon="5.57235">
        <ele>653</ele>
        <time>2022-02-15T09:16:37.000Z</time>
      </trkpt>
      <trkpt lat="43.53135" lon="5.57235">
        <ele>653</ele>
        <time>2022-02-15T09:16:38.000Z</time>
      </trkpt>
      <trkpt lat="43.53135" lon="5.57235">
        <ele>653</ele>
        <time>2022-02-15T09:16:39.000Z</time>
      </trkpt>
      <trkpt lat="43.53134" lon="5.57235">
        <ele>653</ele>
        <time>2022-02-15T09:16:40.000Z</time>
      </trkpt>
      <trkpt lat="43.53134" lon="5.57235">
        <ele>653</ele>
        <time>2022-02-15T09:16:41.000Z</time>
      </trkpt>
      <trkpt lat="43.53134" lon="5.57235">
        <ele>653</ele>
        <time>2022-02-15T09:16:42.000Z</time>
      </trkpt>
      <trkpt lat="43.53134" lon="5.57235">
        <ele>653</ele>
        <time>2022-02-15T09:16:43.000Z</time>
      </trkpt>
      <trkpt lat="43.53134" lon="5.57235">
        <ele>653</ele>
        <time>2022-02-15T09:16:44.000Z</time>
      </trkpt>
      <trkpt lat="43.53134" lon="5.57235">
        <ele>653</ele>
        <time>2022-02-15T09:16:45.000Z</time>
      </trkpt>
      <trkpt lat="43.53133" lon="5.57235">
        <ele>653</ele>
        <time>2022-02-15T09:16:46.000Z</time>
      </trkpt>
      <trkpt lat="43.53133" lon="5.57236">
        <ele>652</ele>
        <time>2022-02-15T09:16:47.000Z</time>
      </trkpt>
      <trkpt lat="43.53133" lon="5.57236">
        <ele>652</ele>
        <time>2022-02-15T09:16:48.000Z</time>
      </trkpt>
      <trkpt lat="43.53133" lon="5.57236">
        <ele>652</ele>
        <time>2022-02-15T09:16:49.000Z</time>
      </trkpt>
      <trkpt lat="43.53133" lon="5.57236">
        <ele>652</ele>
        <time>2022-02-15T09:16:50.000Z</time>
      </trkpt>
      <trkpt lat="43.53133" lon="5.57236">
        <ele>652</ele>
        <time>2022-02-15T09:16:51.000Z</time>
      </trkpt>
      <trkpt lat="43.53133" lon="5.57236">
        <ele>652</ele>
        <time>2022-02-15T09:16:52.000Z</time>
      </trkpt>
      <trkpt lat="43.53133" lon="5.57237">
        <ele>652</ele>
        <time>2022-02-15T09:16:53.000Z</time>
      </trkpt>
      <trkpt lat="43.53133" lon="5.57237">
        <ele>652</ele>
        <time>2022-02-15T09:16:54.000Z</time>
      </trkpt>
      <trkpt lat="43.53133" lon="5.57238">
        <ele>652</ele>
        <time>2022-02-15T09:16:55.000Z</time>
      </trkpt>
      <trkpt lat="43.53133" lon="5.57237">
        <ele>652</ele>
        <time>2022-02-15T09:16:56.000Z</time>
      </trkpt>
      <trkpt lat="43.53133" lon="5.57237">
        <ele>652</ele>
        <time>2022-02-15T09:16:57.000Z</time>
      </trkpt>
      <trkpt lat="43.53133" lon="5.57237">
        <ele>652</ele>
        <time>2022-02-15T09:16:58.000Z</time>
      </trkpt>
      <trkpt lat="43.53133" lon="5.57237">
        <ele>652</ele>
        <time>2022-02-15T09:16:59.000Z</time>
      </trkpt>
      <trkpt lat="43.53133" lon="5.57237">
        <ele>652</ele>
        <time>2022-02-15T09:17:00.000Z</time>
      </trkpt>
      <trkpt lat="43.53132" lon="5.57237">
        <ele>652</ele>
        <time>2022-02-15T09:17:01.000Z</time>
      </trkpt>
      <trkpt lat="43.53132" lon="5.57238">
        <ele>652</ele>
        <time>2022-02-15T09:17:02.000Z</time>
      </trkpt>
      <trkpt lat="43.53132" lon="5.57239">
        <ele>652</ele>
        <time>2022-02-15T09:17:03.000Z</time>
      </trkpt>
      <trkpt lat="43.53131" lon="5.5724">
        <ele>651</ele>
        <time>2022-02-15T09:17:04.000Z</time>
      </trkpt>
      <trkpt lat="43.53131" lon="5.57241">
        <ele>651</ele>
        <time>2022-02-15T09:17:05.000Z</time>
      </trkpt>
      <trkpt lat="43.53131" lon="5.57241">
        <ele>651</ele>
        <time>2022-02-15T09:17:06.000Z</time>
      </trkpt>
      <trkpt lat="43.5313" lon="5.57242">
        <ele>651</ele>
        <time>2022-02-15T09:17:07.000Z</time>
      </trkpt>
      <trkpt lat="43.5313" lon="5.57243">
        <ele>651</ele>
        <time>2022-02-15T09:17:08.000Z</time>
      </trkpt>
      <trkpt lat="43.5313" lon="5.57244">
        <ele>651</ele>
        <time>2022-02-15T09:17:09.000Z</time>
      </trkpt>
      <trkpt lat="43.53129" lon="5.57245">
        <ele>651</ele>
        <time>2022-02-15T09:17:10.000Z</time>
      </trkpt>
      <trkpt lat="43.53129" lon="5.57246">
        <ele>651</ele>
        <time>2022-02-15T09:17:11.000Z</time>
      </trkpt>
      <trkpt lat="43.53129" lon="5.57247">
        <ele>650</ele>
        <time>2022-02-15T09:17:12.000Z</time>
      </trkpt>
      <trkpt lat="43.53128" lon="5.57247">
        <ele>650</ele>
        <time>2022-02-15T09:17:13.000Z</time>
      </trkpt>
      <trkpt lat="43.53128" lon="5.57249">
        <ele>650</ele>
        <time>2022-02-15T09:17:14.000Z</time>
      </trkpt>
      <trkpt lat="43.53127" lon="5.5725">
        <ele>650</ele>
        <time>2022-02-15T09:17:15.000Z</time>
      </trkpt>
      <trkpt lat="43.53126" lon="5.57251">
        <ele>650</ele>
        <time>2022-02-15T09:17:16.000Z</time>
      </trkpt>
      <trkpt lat="43.53125" lon="5.57253">
        <ele>650</ele>
        <time>2022-02-15T09:17:17.000Z</time>
      </trkpt>
      <trkpt lat="43.53125" lon="5.57254">
        <ele>650</ele>
        <time>2022-02-15T09:17:18.000Z</time>
      </trkpt>
      <trkpt lat="43.53125" lon="5.57255">
        <ele>650</ele>
        <time>2022-02-15T09:17:19.000Z</time>
      </trkpt>
      <trkpt lat="43.53125" lon="5.57256">
        <ele>650</ele>
        <time>2022-02-15T09:17:20.000Z</time>
      </trkpt>
      <trkpt lat="43.53124" lon="5.57257">
        <ele>649</ele>
        <time>2022-02-15T09:17:21.000Z</time>
      </trkpt>
      <trkpt lat="43.53123" lon="5.57257">
        <ele>649</ele>
        <time>2022-02-15T09:17:22.000Z</time>
      </trkpt>
      <trkpt lat="43.53123" lon="5.57258">
        <ele>649</ele>
        <time>2022-02-15T09:17:23.000Z</time>
      </trkpt>
      <trkpt lat="43.53122" lon="5.57259">
        <ele>649</ele>
        <time>2022-02-15T09:17:24.000Z</time>
      </trkpt>
      <trkpt lat="43.53122" lon="5.57259">
        <ele>649</ele>
        <time>2022-02-15T09:17:25.000Z</time>
      </trkpt>
      <trkpt lat="43.53121" lon="5.57259">
        <ele>649</ele>
        <time>2022-02-15T09:17:26.000Z</time>
      </trkpt>
      <trkpt lat="43.53121" lon="5.5726">
        <ele>649</ele>
        <time>2022-02-15T09:17:27.000Z</time>
      </trkpt>
      <trkpt lat="43.53121" lon="5.5726">
        <ele>649</ele>
        <time>2022-02-15T09:17:28.000Z</time>
      </trkpt>
      <trkpt lat="43.5312" lon="5.5726">
        <ele>649</ele>
        <time>2022-02-15T09:17:29.000Z</time>
      </trkpt>
      <trkpt lat="43.53119" lon="5.57261">
        <ele>649</ele>
        <time>2022-02-15T09:17:30.000Z</time>
      </trkpt>
      <trkpt lat="43.53119" lon="5.5726">
        <ele>649</ele>
        <time>2022-02-15T09:17:31.000Z</time>
      </trkpt>
      <trkpt lat="43.53119" lon="5.5726">
        <ele>649</ele>
        <time>2022-02-15T09:17:32.000Z</time>
      </trkpt>
      <trkpt lat="43.53119" lon="5.5726">
        <ele>649</ele>
        <time>2022-02-15T09:17:33.000Z</time>
      </trkpt>
      <trkpt lat="43.53119" lon="5.5726">
        <ele>649</ele>
        <time>2022-02-15T09:17:34.000Z</time>
      </trkpt>
      <trkpt lat="43.53119" lon="5.5726">
        <ele>648</ele>
        <time>2022-02-15T09:17:35.000Z</time>
      </trkpt>
      <trkpt lat="43.5312" lon="5.5726">
        <ele>648</ele>
        <time>2022-02-15T09:17:36.000Z</time>
      </trkpt>
      <trkpt lat="43.5312" lon="5.5726">
        <ele>648</ele>
        <time>2022-02-15T09:17:37.000Z</time>
      </trkpt>
      <trkpt lat="43.5312" lon="5.5726">
        <ele>648</ele>
        <time>2022-02-15T09:17:38.000Z</time>
      </trkpt>
      <trkpt lat="43.5312" lon="5.5726">
        <ele>648</ele>
        <time>2022-02-15T09:17:39.000Z</time>
      </trkpt>
      <trkpt lat="43.5312" lon="5.5726">
        <ele>648</ele>
        <time>2022-02-15T09:17:40.000Z</time>
      </trkpt>
      <trkpt lat="43.5312" lon="5.5726">
        <ele>648</ele>
        <time>2022-02-15T09:17:41.000Z</time>
      </trkpt>
      <trkpt lat="43.53119" lon="5.5726">
        <ele>648</ele>
        <time>2022-02-15T09:17:42.000Z</time>
      </trkpt>
      <trkpt lat="43.53119" lon="5.5726">
        <ele>648</ele>
        <time>2022-02-15T09:17:43.000Z</time>
      </trkpt>
      <trkpt lat="43.53119" lon="5.5726">
        <ele>648</ele>
        <time>2022-02-15T09:17:44.000Z</time>
      </trkpt>
      <trkpt lat="43.53119" lon="5.5726">
        <ele>648</ele>
        <time>2022-02-15T09:17:45.000Z</time>
      </trkpt>
      <trkpt lat="43.5312" lon="5.5726">
        <ele>648</ele>
        <time>2022-02-15T09:17:46.000Z</time>
      </trkpt>
      <trkpt lat="43.53119" lon="5.57259">
        <ele>648</ele>
        <time>2022-02-15T09:17:47.000Z</time>
      </trkpt>
      <trkpt lat="43.53119" lon="5.57259">
        <ele>648</ele>
        <time>2022-02-15T09:17:48.000Z</time>
      </trkpt>
      <trkpt lat="43.53119" lon="5.57259">
        <ele>648</ele>
        <time>2022-02-15T09:17:49.000Z</time>
      </trkpt>
      <trkpt lat="43.53119" lon="5.57259">
        <ele>648</ele>
        <time>2022-02-15T09:17:50.000Z</time>
      </trkpt>
      <trkpt lat="43.53119" lon="5.57259">
        <ele>648</ele>
        <time>2022-02-15T09:17:51.000Z</time>
      </trkpt>
      <trkpt lat="43.5312" lon="5.57259">
        <ele>648</ele>
        <time>2022-02-15T09:17:52.000Z</time>
      </trkpt>
      <trkpt lat="43.5312" lon="5.57259">
        <ele>648</ele>
        <time>2022-02-15T09:17:53.000Z</time>
      </trkpt>
      <trkpt lat="43.5312" lon="5.5726">
        <ele>648</ele>
        <time>2022-02-15T09:17:54.000Z</time>
      </trkpt>
      <trkpt lat="43.53121" lon="5.5726">
        <ele>648</ele>
        <time>2022-02-15T09:17:55.000Z</time>
      </trkpt>
      <trkpt lat="43.53121" lon="5.5726">
        <ele>648</ele>
        <time>2022-02-15T09:17:56.000Z</time>
      </trkpt>
      <trkpt lat="43.53122" lon="5.5726">
        <ele>648</ele>
        <time>2022-02-15T09:17:57.000Z</time>
      </trkpt>
      <trkpt lat="43.53122" lon="5.57261">
        <ele>648</ele>
        <time>2022-02-15T09:17:58.000Z</time>
      </trkpt>
      <trkpt lat="43.53123" lon="5.57261">
        <ele>649</ele>
        <time>2022-02-15T09:17:59.000Z</time>
      </trkpt>
      <trkpt lat="43.53123" lon="5.57262">
        <ele>649</ele>
        <time>2022-02-15T09:18:00.000Z</time>
      </trkpt>
      <trkpt lat="43.53124" lon="5.57262">
        <ele>649</ele>
        <time>2022-02-15T09:18:01.000Z</time>
      </trkpt>
      <trkpt lat="43.53124" lon="5.57262">
        <ele>649</ele>
        <time>2022-02-15T09:18:02.000Z</time>
      </trkpt>
      <trkpt lat="43.53124" lon="5.57262">
        <ele>649</ele>
        <time>2022-02-15T09:18:03.000Z</time>
      </trkpt>
      <trkpt lat="43.53125" lon="5.57262">
        <ele>649</ele>
        <time>2022-02-15T09:18:04.000Z</time>
      </trkpt>
      <trkpt lat="43.53125" lon="5.57263">
        <ele>649</ele>
        <time>2022-02-15T09:18:05.000Z</time>
      </trkpt>
      <trkpt lat="43.53125" lon="5.57263">
        <ele>649</ele>
        <time>2022-02-15T09:18:06.000Z</time>
      </trkpt>
      <trkpt lat="43.53126" lon="5.57263">
        <ele>649</ele>
        <time>2022-02-15T09:18:07.000Z</time>
      </trkpt>
      <trkpt lat="43.53126" lon="5.57263">
        <ele>649</ele>
        <time>2022-02-15T09:18:08.000Z</time>
      </trkpt>
      <trkpt lat="43.53126" lon="5.57263">
        <ele>649</ele>
        <time>2022-02-15T09:18:09.000Z</time>
      </trkpt>
      <trkpt lat="43.53126" lon="5.57263">
        <ele>649</ele>
        <time>2022-02-15T09:18:10.000Z</time>
      </trkpt>
      <trkpt lat="43.53126" lon="5.57263">
        <ele>649</ele>
        <time>2022-02-15T09:18:11.000Z</time>
      </trkpt>
      <trkpt lat="43.53126" lon="5.57263">
        <ele>649</ele>
        <time>2022-02-15T09:18:12.000Z</time>
      </trkpt>
      <trkpt lat="43.53126" lon="5.57263">
        <ele>649</ele>
        <time>2022-02-15T09:18:13.000Z</time>
      </trkpt>
      <trkpt lat="43.53126" lon="5.57263">
        <ele>649</ele>
        <time>2022-02-15T09:18:14.000Z</time>
      </trkpt>
      <trkpt lat="43.53126" lon="5.57263">
        <ele>649</ele>
        <time>2022-02-15T09:18:15.000Z</time>
      </trkpt>
      <trkpt lat="43.53126" lon="5.57263">
        <ele>649</ele>
        <time>2022-02-15T09:18:16.000Z</time>
      </trkpt>
      <trkpt lat="43.53126" lon="5.57263">
        <ele>649</ele>
        <time>2022-02-15T09:18:17.000Z</time>
      </trkpt>
      <trkpt lat="43.53126" lon="5.57263">
        <ele>649</ele>
        <time>2022-02-15T09:18:18.000Z</time>
      </trkpt>
      <trkpt lat="43.53126" lon="5.57263">
        <ele>649</ele>
        <time>2022-02-15T09:18:19.000Z</time>
      </trkpt>
      <trkpt lat="43.53126" lon="5.57263">
        <ele>648</ele>
        <time>2022-02-15T09:18:20.000Z</time>
      </trkpt>
      <trkpt lat="43.53126" lon="5.57263">
        <ele>648</ele>
        <time>2022-02-15T09:18:21.000Z</time>
      </trkpt>
      <trkpt lat="43.53126" lon="5.57263">
        <ele>648</ele>
        <time>2022-02-15T09:18:22.000Z</time>
      </trkpt>
      <trkpt lat="43.53126" lon="5.57263">
        <ele>648</ele>
        <time>2022-02-15T09:18:23.000Z</time>
      </trkpt>
      <trkpt lat="43.53126" lon="5.57263">
        <ele>648</ele>
        <time>2022-02-15T09:18:24.000Z</time>
      </trkpt>
      <trkpt lat="43.53126" lon="5.57263">
        <ele>648</ele>
        <time>2022-02-15T09:18:25.000Z</time>
      </trkpt>
      <trkpt lat="43.53126" lon="5.57263">
        <ele>648</ele>
        <time>2022-02-15T09:18:26.000Z</time>
      </trkpt>
      <trkpt lat="43.53126" lon="5.57263">
        <ele>648</ele>
        <time>2022-02-15T09:18:27.000Z</time>
      </trkpt>
      <trkpt lat="43.53126" lon="5.57263">
        <ele>648</ele>
        <time>2022-02-15T09:18:28.000Z</time>
      </trkpt>
      <trkpt lat="43.53126" lon="5.57263">
        <ele>648</ele>
        <time>2022-02-15T09:18:29.000Z</time>
      </trkpt>
      <trkpt lat="43.53126" lon="5.57264">
        <ele>648</ele>
        <time>2022-02-15T09:18:30.000Z</time>
      </trkpt>
      <trkpt lat="43.53126" lon="5.57264">
        <ele>648</ele>
        <time>2022-02-15T09:18:31.000Z</time>
      </trkpt>
      <trkpt lat="43.53126" lon="5.57263">
        <ele>648</ele>
        <time>2022-02-15T09:18:32.000Z</time>
      </trkpt>
      <trkpt lat="43.53126" lon="5.57263">
        <ele>648</ele>
        <time>2022-02-15T09:18:33.000Z</time>
      </trkpt>
      <trkpt lat="43.53126" lon="5.57263">
        <ele>648</ele>
        <time>2022-02-15T09:18:34.000Z</time>
      </trkpt>
      <trkpt lat="43.53126" lon="5.57264">
        <ele>648</ele>
        <time>2022-02-15T09:18:35.000Z</time>
      </trkpt>
      <trkpt lat="43.53126" lon="5.57264">
        <ele>648</ele>
        <time>2022-02-15T09:18:36.000Z</time>
      </trkpt>
      <trkpt lat="43.53126" lon="5.57264">
        <ele>648</ele>
        <time>2022-02-15T09:18:37.000Z</time>
      </trkpt>
      <trkpt lat="43.53126" lon="5.57264">
        <ele>648</ele>
        <time>2022-02-15T09:18:38.000Z</time>
      </trkpt>
      <trkpt lat="43.53126" lon="5.57264">
        <ele>648</ele>
        <time>2022-02-15T09:18:39.000Z</time>
      </trkpt>
      <trkpt lat="43.53126" lon="5.57263">
        <ele>648</ele>
        <time>2022-02-15T09:18:40.000Z</time>
      </trkpt>
      <trkpt lat="43.53126" lon="5.57263">
        <ele>648</ele>
        <time>2022-02-15T09:18:41.000Z</time>
      </trkpt>
      <trkpt lat="43.53126" lon="5.57264">
        <ele>648</ele>
        <time>2022-02-15T09:18:42.000Z</time>
      </trkpt>
      <trkpt lat="43.53125" lon="5.57264">
        <ele>648</ele>
        <time>2022-02-15T09:18:43.000Z</time>
      </trkpt>
      <trkpt lat="43.53125" lon="5.57264">
        <ele>648</ele>
        <time>2022-02-15T09:18:44.000Z</time>
      </trkpt>
      <trkpt lat="43.53125" lon="5.57264">
        <ele>648</ele>
        <time>2022-02-15T09:18:45.000Z</time>
      </trkpt>
      <trkpt lat="43.53125" lon="5.57264">
        <ele>648</ele>
        <time>2022-02-15T09:18:46.000Z</time>
      </trkpt>
      <trkpt lat="43.53125" lon="5.57264">
        <ele>648</ele>
        <time>2022-02-15T09:18:47.000Z</time>
      </trkpt>
      <trkpt lat="43.53126" lon="5.57264">
        <ele>648</ele>
        <time>2022-02-15T09:18:48.000Z</time>
      </trkpt>
      <trkpt lat="43.53126" lon="5.57264">
        <ele>648</ele>
        <time>2022-02-15T09:18:49.000Z</time>
      </trkpt>
      <trkpt lat="43.53126" lon="5.57264">
        <ele>648</ele>
        <time>2022-02-15T09:18:50.000Z</time>
      </trkpt>
      <trkpt lat="43.53126" lon="5.57265">
        <ele>648</ele>
        <time>2022-02-15T09:18:51.000Z</time>
      </trkpt>
      <trkpt lat="43.53126" lon="5.57266">
        <ele>648</ele>
        <time>2022-02-15T09:18:52.000Z</time>
      </trkpt>
      <trkpt lat="43.53125" lon="5.57267">
        <ele>648</ele>
        <time>2022-02-15T09:18:53.000Z</time>
      </trkpt>
      <trkpt lat="43.53125" lon="5.57267">
        <ele>648</ele>
        <time>2022-02-15T09:18:54.000Z</time>
      </trkpt>
      <trkpt lat="43.53125" lon="5.57267">
        <ele>648</ele>
        <time>2022-02-15T09:18:55.000Z</time>
      </trkpt>
      <trkpt lat="43.53125" lon="5.57267">
        <ele>648</ele>
        <time>2022-02-15T09:18:56.000Z</time>
      </trkpt>
      <trkpt lat="43.53125" lon="5.57267">
        <ele>648</ele>
        <time>2022-02-15T09:18:57.000Z</time>
      </trkpt>
      <trkpt lat="43.53125" lon="5.57267">
        <ele>648</ele>
        <time>2022-02-15T09:18:58.000Z</time>
      </trkpt>
      <trkpt lat="43.53125" lon="5.57268">
        <ele>648</ele>
        <time>2022-02-15T09:18:59.000Z</time>
      </trkpt>
      <trkpt lat="43.53125" lon="5.57268">
        <ele>648</ele>
        <time>2022-02-15T09:19:00.000Z</time>
      </trkpt>
      <trkpt lat="43.53125" lon="5.57269">
        <ele>648</ele>
        <time>2022-02-15T09:19:01.000Z</time>
      </trkpt>
      <trkpt lat="43.53124" lon="5.57269">
        <ele>648</ele>
        <time>2022-02-15T09:19:02.000Z</time>
      </trkpt>
      <trkpt lat="43.53124" lon="5.5727">
        <ele>648</ele>
        <time>2022-02-15T09:19:03.000Z</time>
      </trkpt>
      <trkpt lat="43.53124" lon="5.5727">
        <ele>649</ele>
        <time>2022-02-15T09:19:04.000Z</time>
      </trkpt>
      <trkpt lat="43.53124" lon="5.5727">
        <ele>649</ele>
        <time>2022-02-15T09:19:05.000Z</time>
      </trkpt>
      <trkpt lat="43.53123" lon="5.5727">
        <ele>649</ele>
        <time>2022-02-15T09:19:06.000Z</time>
      </trkpt>
      <trkpt lat="43.53123" lon="5.57271">
        <ele>649</ele>
        <time>2022-02-15T09:19:07.000Z</time>
      </trkpt>
      <trkpt lat="43.53123" lon="5.57271">
        <ele>649</ele>
        <time>2022-02-15T09:19:08.000Z</time>
      </trkpt>
      <trkpt lat="43.53123" lon="5.57271">
        <ele>649</ele>
        <time>2022-02-15T09:19:09.000Z</time>
      </trkpt>
      <trkpt lat="43.53123" lon="5.57272">
        <ele>649</ele>
        <time>2022-02-15T09:19:10.000Z</time>
      </trkpt>
      <trkpt lat="43.53123" lon="5.57272">
        <ele>649</ele>
        <time>2022-02-15T09:19:11.000Z</time>
      </trkpt>
      <trkpt lat="43.53123" lon="5.57273">
        <ele>649</ele>
        <time>2022-02-15T09:19:12.000Z</time>
      </trkpt>
      <trkpt lat="43.53123" lon="5.57273">
        <ele>649</ele>
        <time>2022-02-15T09:19:13.000Z</time>
      </trkpt>
      <trkpt lat="43.53123" lon="5.57274">
        <ele>649</ele>
        <time>2022-02-15T09:19:14.000Z</time>
      </trkpt>
      <trkpt lat="43.53122" lon="5.57274">
        <ele>650</ele>
        <time>2022-02-15T09:19:15.000Z</time>
      </trkpt>
      <trkpt lat="43.53122" lon="5.57275">
        <ele>650</ele>
        <time>2022-02-15T09:19:16.000Z</time>
      </trkpt>
      <trkpt lat="43.53122" lon="5.57275">
        <ele>650</ele>
        <time>2022-02-15T09:19:17.000Z</time>
      </trkpt>
      <trkpt lat="43.53122" lon="5.57276">
        <ele>650</ele>
        <time>2022-02-15T09:19:18.000Z</time>
      </trkpt>
      <trkpt lat="43.53122" lon="5.57276">
        <ele>650</ele>
        <time>2022-02-15T09:19:19.000Z</time>
      </trkpt>
      <trkpt lat="43.53122" lon="5.57277">
        <ele>650</ele>
        <time>2022-02-15T09:19:20.000Z</time>
      </trkpt>
      <trkpt lat="43.53121" lon="5.57277">
        <ele>650</ele>
        <time>2022-02-15T09:19:21.000Z</time>
      </trkpt>
      <trkpt lat="43.53121" lon="5.57278">
        <ele>650</ele>
        <time>2022-02-15T09:19:22.000Z</time>
      </trkpt>
      <trkpt lat="43.5312" lon="5.57278">
        <ele>650</ele>
        <time>2022-02-15T09:19:23.000Z</time>
      </trkpt>
      <trkpt lat="43.53119" lon="5.57278">
        <ele>651</ele>
        <time>2022-02-15T09:19:24.000Z</time>
      </trkpt>
      <trkpt lat="43.53119" lon="5.57279">
        <ele>651</ele>
        <time>2022-02-15T09:19:25.000Z</time>
      </trkpt>
      <trkpt lat="43.53118" lon="5.57279">
        <ele>651</ele>
        <time>2022-02-15T09:19:26.000Z</time>
      </trkpt>
      <trkpt lat="43.53117" lon="5.57279">
        <ele>651</ele>
        <time>2022-02-15T09:19:27.000Z</time>
      </trkpt>
      <trkpt lat="43.53117" lon="5.57279">
        <ele>651</ele>
        <time>2022-02-15T09:19:28.000Z</time>
      </trkpt>
      <trkpt lat="43.53116" lon="5.57279">
        <ele>651</ele>
        <time>2022-02-15T09:19:29.000Z</time>
      </trkpt>
      <trkpt lat="43.53116" lon="5.57279">
        <ele>651</ele>
        <time>2022-02-15T09:19:30.000Z</time>
      </trkpt>
      <trkpt lat="43.53115" lon="5.5728">
        <ele>652</ele>
        <time>2022-02-15T09:19:31.000Z</time>
      </trkpt>
      <trkpt lat="43.53115" lon="5.5728">
        <ele>652</ele>
        <time>2022-02-15T09:19:32.000Z</time>
      </trkpt>
      <trkpt lat="43.53115" lon="5.5728">
        <ele>652</ele>
        <time>2022-02-15T09:19:33.000Z</time>
      </trkpt>
      <trkpt lat="43.53115" lon="5.5728">
        <ele>652</ele>
        <time>2022-02-15T09:19:34.000Z</time>
      </trkpt>
      <trkpt lat="43.53115" lon="5.5728">
        <ele>652</ele>
        <time>2022-02-15T09:19:35.000Z</time>
      </trkpt>
      <trkpt lat="43.53115" lon="5.5728">
        <ele>652</ele>
        <time>2022-02-15T09:19:36.000Z</time>
      </trkpt>
      <trkpt lat="43.53115" lon="5.5728">
        <ele>652</ele>
        <time>2022-02-15T09:19:37.000Z</time>
      </trkpt>
      <trkpt lat="43.53115" lon="5.5728">
        <ele>652</ele>
        <time>2022-02-15T09:19:38.000Z</time>
      </trkpt>
      <trkpt lat="43.53115" lon="5.5728">
        <ele>652</ele>
        <time>2022-02-15T09:19:39.000Z</time>
      </trkpt>
      <trkpt lat="43.53115" lon="5.5728">
        <ele>652</ele>
        <time>2022-02-15T09:19:40.000Z</time>
      </trkpt>
      <trkpt lat="43.53115" lon="5.5728">
        <ele>652</ele>
        <time>2022-02-15T09:19:41.000Z</time>
      </trkpt>
      <trkpt lat="43.53115" lon="5.5728">
        <ele>652</ele>
        <time>2022-02-15T09:19:42.000Z</time>
      </trkpt>
      <trkpt lat="43.53114" lon="5.5728">
        <ele>652</ele>
        <time>2022-02-15T09:19:43.000Z</time>
      </trkpt>
      <trkpt lat="43.53114" lon="5.5728">
        <ele>653</ele>
        <time>2022-02-15T09:19:44.000Z</time>
      </trkpt>
      <trkpt lat="43.53114" lon="5.5728">
        <ele>653</ele>
        <time>2022-02-15T09:19:45.000Z</time>
      </trkpt>
      <trkpt lat="43.53114" lon="5.5728">
        <ele>653</ele>
        <time>2022-02-15T09:19:46.000Z</time>
      </trkpt>
      <trkpt lat="43.53114" lon="5.5728">
        <ele>653</ele>
        <time>2022-02-15T09:19:47.000Z</time>
      </trkpt>
      <trkpt lat="43.53114" lon="5.5728">
        <ele>653</ele>
        <time>2022-02-15T09:19:48.000Z</time>
      </trkpt>
      <trkpt lat="43.53114" lon="5.5728">
        <ele>653</ele>
        <time>2022-02-15T09:19:49.000Z</time>
      </trkpt>
      <trkpt lat="43.53114" lon="5.5728">
        <ele>653</ele>
        <time>2022-02-15T09:19:50.000Z</time>
      </trkpt>
      <trkpt lat="43.53114" lon="5.5728">
        <ele>653</ele>
        <time>2022-02-15T09:19:51.000Z</time>
      </trkpt>
      <trkpt lat="43.53114" lon="5.57281">
        <ele>653</ele>
        <time>2022-02-15T09:19:52.000Z</time>
      </trkpt>
      <trkpt lat="43.53114" lon="5.57281">
        <ele>653</ele>
        <time>2022-02-15T09:19:53.000Z</time>
      </trkpt>
      <trkpt lat="43.53114" lon="5.57281">
        <ele>653</ele>
        <time>2022-02-15T09:19:54.000Z</time>
      </trkpt>
      <trkpt lat="43.53114" lon="5.57281">
        <ele>653</ele>
        <time>2022-02-15T09:19:55.000Z</time>
      </trkpt>
      <trkpt lat="43.53114" lon="5.57282">
        <ele>653</ele>
        <time>2022-02-15T09:19:56.000Z</time>
      </trkpt>
      <trkpt lat="43.53114" lon="5.57282">
        <ele>653</ele>
        <time>2022-02-15T09:19:57.000Z</time>
      </trkpt>
      <trkpt lat="43.53114" lon="5.57283">
        <ele>653</ele>
        <time>2022-02-15T09:19:58.000Z</time>
      </trkpt>
      <trkpt lat="43.53113" lon="5.57283">
        <ele>653</ele>
        <time>2022-02-15T09:19:59.000Z</time>
      </trkpt>
      <trkpt lat="43.53113" lon="5.57284">
        <ele>653</ele>
        <time>2022-02-15T09:20:00.000Z</time>
      </trkpt>
      <trkpt lat="43.53112" lon="5.57284">
        <ele>653</ele>
        <time>2022-02-15T09:20:01.000Z</time>
      </trkpt>
      <trkpt lat="43.53112" lon="5.57284">
        <ele>653</ele>
        <time>2022-02-15T09:20:02.000Z</time>
      </trkpt>
      <trkpt lat="43.53112" lon="5.57284">
        <ele>653</ele>
        <time>2022-02-15T09:20:03.000Z</time>
      </trkpt>
      <trkpt lat="43.53112" lon="5.57284">
        <ele>653</ele>
        <time>2022-02-15T09:20:04.000Z</time>
      </trkpt>
      <trkpt lat="43.53112" lon="5.57284">
        <ele>653</ele>
        <time>2022-02-15T09:20:05.000Z</time>
      </trkpt>
      <trkpt lat="43.53112" lon="5.57285">
        <ele>654</ele>
        <time>2022-02-15T09:20:06.000Z</time>
      </trkpt>
      <trkpt lat="43.53112" lon="5.57285">
        <ele>654</ele>
        <time>2022-02-15T09:20:07.000Z</time>
      </trkpt>
      <trkpt lat="43.53112" lon="5.57285">
        <ele>654</ele>
        <time>2022-02-15T09:20:08.000Z</time>
      </trkpt>
      <trkpt lat="43.53112" lon="5.57285">
        <ele>654</ele>
        <time>2022-02-15T09:20:09.000Z</time>
      </trkpt>
      <trkpt lat="43.53112" lon="5.57285">
        <ele>654</ele>
        <time>2022-02-15T09:20:10.000Z</time>
      </trkpt>
      <trkpt lat="43.53112" lon="5.57285">
        <ele>654</ele>
        <time>2022-02-15T09:20:11.000Z</time>
      </trkpt>
      <trkpt lat="43.53112" lon="5.57285">
        <ele>654</ele>
        <time>2022-02-15T09:20:12.000Z</time>
      </trkpt>
      <trkpt lat="43.53111" lon="5.57286">
        <ele>654</ele>
        <time>2022-02-15T09:20:13.000Z</time>
      </trkpt>
      <trkpt lat="43.53111" lon="5.57286">
        <ele>654</ele>
        <time>2022-02-15T09:20:14.000Z</time>
      </trkpt>
      <trkpt lat="43.53111" lon="5.57287">
        <ele>654</ele>
        <time>2022-02-15T09:20:15.000Z</time>
      </trkpt>
      <trkpt lat="43.5311" lon="5.57287">
        <ele>654</ele>
        <time>2022-02-15T09:20:16.000Z</time>
      </trkpt>
      <trkpt lat="43.5311" lon="5.57287">
        <ele>654</ele>
        <time>2022-02-15T09:20:17.000Z</time>
      </trkpt>
      <trkpt lat="43.53109" lon="5.57288">
        <ele>654</ele>
        <time>2022-02-15T09:20:18.000Z</time>
      </trkpt>
      <trkpt lat="43.53109" lon="5.57288">
        <ele>654</ele>
        <time>2022-02-15T09:20:19.000Z</time>
      </trkpt>
      <trkpt lat="43.53108" lon="5.57288">
        <ele>654</ele>
        <time>2022-02-15T09:20:20.000Z</time>
      </trkpt>
      <trkpt lat="43.53108" lon="5.57289">
        <ele>654</ele>
        <time>2022-02-15T09:20:21.000Z</time>
      </trkpt>
      <trkpt lat="43.53107" lon="5.57289">
        <ele>654</ele>
        <time>2022-02-15T09:20:22.000Z</time>
      </trkpt>
      <trkpt lat="43.53106" lon="5.5729">
        <ele>654</ele>
        <time>2022-02-15T09:20:23.000Z</time>
      </trkpt>
      <trkpt lat="43.53105" lon="5.57291">
        <ele>654</ele>
        <time>2022-02-15T09:20:24.000Z</time>
      </trkpt>
      <trkpt lat="43.53105" lon="5.57291">
        <ele>654</ele>
        <time>2022-02-15T09:20:25.000Z</time>
      </trkpt>
      <trkpt lat="43.53104" lon="5.57292">
        <ele>654</ele>
        <time>2022-02-15T09:20:26.000Z</time>
      </trkpt>
      <trkpt lat="43.53104" lon="5.57293">
        <ele>654</ele>
        <time>2022-02-15T09:20:27.000Z</time>
      </trkpt>
      <trkpt lat="43.53103" lon="5.57293">
        <ele>654</ele>
        <time>2022-02-15T09:20:28.000Z</time>
      </trkpt>
      <trkpt lat="43.53103" lon="5.57294">
        <ele>654</ele>
        <time>2022-02-15T09:20:29.000Z</time>
      </trkpt>
      <trkpt lat="43.53103" lon="5.57293">
        <ele>654</ele>
        <time>2022-02-15T09:20:30.000Z</time>
      </trkpt>
      <trkpt lat="43.53103" lon="5.57293">
        <ele>654</ele>
        <time>2022-02-15T09:20:31.000Z</time>
      </trkpt>
      <trkpt lat="43.53103" lon="5.57294">
        <ele>654</ele>
        <time>2022-02-15T09:20:32.000Z</time>
      </trkpt>
      <trkpt lat="43.53103" lon="5.57293">
        <ele>655</ele>
        <time>2022-02-15T09:20:33.000Z</time>
      </trkpt>
      <trkpt lat="43.53103" lon="5.57294">
        <ele>655</ele>
        <time>2022-02-15T09:20:34.000Z</time>
      </trkpt>
      <trkpt lat="43.53102" lon="5.57294">
        <ele>655</ele>
        <time>2022-02-15T09:20:35.000Z</time>
      </trkpt>
      <trkpt lat="43.53102" lon="5.57294">
        <ele>655</ele>
        <time>2022-02-15T09:20:36.000Z</time>
      </trkpt>
      <trkpt lat="43.53102" lon="5.57294">
        <ele>655</ele>
        <time>2022-02-15T09:20:37.000Z</time>
      </trkpt>
      <trkpt lat="43.53102" lon="5.57294">
        <ele>655</ele>
        <time>2022-02-15T09:20:38.000Z</time>
      </trkpt>
      <trkpt lat="43.53102" lon="5.57294">
        <ele>655</ele>
        <time>2022-02-15T09:20:39.000Z</time>
      </trkpt>
      <trkpt lat="43.53102" lon="5.57294">
        <ele>655</ele>
        <time>2022-02-15T09:20:40.000Z</time>
      </trkpt>
      <trkpt lat="43.53102" lon="5.57294">
        <ele>655</ele>
        <time>2022-02-15T09:20:41.000Z</time>
      </trkpt>
      <trkpt lat="43.53102" lon="5.57294">
        <ele>655</ele>
        <time>2022-02-15T09:20:42.000Z</time>
      </trkpt>
      <trkpt lat="43.53101" lon="5.57295">
        <ele>655</ele>
        <time>2022-02-15T09:20:43.000Z</time>
      </trkpt>
      <trkpt lat="43.53101" lon="5.57296">
        <ele>655</ele>
        <time>2022-02-15T09:20:44.000Z</time>
      </trkpt>
      <trkpt lat="43.531" lon="5.57297">
        <ele>655</ele>
        <time>2022-02-15T09:20:45.000Z</time>
      </trkpt>
      <trkpt lat="43.531" lon="5.57297">
        <ele>655</ele>
        <time>2022-02-15T09:20:46.000Z</time>
      </trkpt>
      <trkpt lat="43.531" lon="5.57298">
        <ele>656</ele>
        <time>2022-02-15T09:20:47.000Z</time>
      </trkpt>
      <trkpt lat="43.531" lon="5.57298">
        <ele>656</ele>
        <time>2022-02-15T09:20:48.000Z</time>
      </trkpt>
      <trkpt lat="43.531" lon="5.57299">
        <ele>656</ele>
        <time>2022-02-15T09:20:49.000Z</time>
      </trkpt>
      <trkpt lat="43.531" lon="5.57299">
        <ele>656</ele>
        <time>2022-02-15T09:20:50.000Z</time>
      </trkpt>
      <trkpt lat="43.531" lon="5.57299">
        <ele>656</ele>
        <time>2022-02-15T09:20:51.000Z</time>
      </trkpt>
      <trkpt lat="43.53099" lon="5.573">
        <ele>656</ele>
        <time>2022-02-15T09:20:52.000Z</time>
      </trkpt>
      <trkpt lat="43.53099" lon="5.573">
        <ele>656</ele>
        <time>2022-02-15T09:20:53.000Z</time>
      </trkpt>
      <trkpt lat="43.53099" lon="5.573">
        <ele>656</ele>
        <time>2022-02-15T09:20:54.000Z</time>
      </trkpt>
      <trkpt lat="43.53099" lon="5.57301">
        <ele>656</ele>
        <time>2022-02-15T09:20:55.000Z</time>
      </trkpt>
      <trkpt lat="43.53098" lon="5.57302">
        <ele>656</ele>
        <time>2022-02-15T09:20:56.000Z</time>
      </trkpt>
      <trkpt lat="43.53098" lon="5.57302">
        <ele>656</ele>
        <time>2022-02-15T09:20:57.000Z</time>
      </trkpt>
      <trkpt lat="43.53097" lon="5.57303">
        <ele>656</ele>
        <time>2022-02-15T09:20:58.000Z</time>
      </trkpt>
      <trkpt lat="43.53097" lon="5.57303">
        <ele>656</ele>
        <time>2022-02-15T09:20:59.000Z</time>
      </trkpt>
      <trkpt lat="43.53096" lon="5.57303">
        <ele>656</ele>
        <time>2022-02-15T09:21:00.000Z</time>
      </trkpt>
      <trkpt lat="43.53096" lon="5.57303">
        <ele>656</ele>
        <time>2022-02-15T09:21:01.000Z</time>
      </trkpt>
      <trkpt lat="43.53096" lon="5.57303">
        <ele>656</ele>
        <time>2022-02-15T09:21:02.000Z</time>
      </trkpt>
      <trkpt lat="43.53096" lon="5.57303">
        <ele>656</ele>
        <time>2022-02-15T09:21:03.000Z</time>
      </trkpt>
      <trkpt lat="43.53096" lon="5.57304">
        <ele>656</ele>
        <time>2022-02-15T09:21:04.000Z</time>
      </trkpt>
      <trkpt lat="43.53096" lon="5.57304">
        <ele>657</ele>
        <time>2022-02-15T09:21:05.000Z</time>
      </trkpt>
      <trkpt lat="43.53096" lon="5.57304">
        <ele>657</ele>
        <time>2022-02-15T09:21:06.000Z</time>
      </trkpt>
      <trkpt lat="43.53096" lon="5.57304">
        <ele>657</ele>
        <time>2022-02-15T09:21:07.000Z</time>
      </trkpt>
      <trkpt lat="43.53096" lon="5.57305">
        <ele>657</ele>
        <time>2022-02-15T09:21:08.000Z</time>
      </trkpt>
      <trkpt lat="43.53096" lon="5.57304">
        <ele>657</ele>
        <time>2022-02-15T09:21:09.000Z</time>
      </trkpt>
      <trkpt lat="43.53096" lon="5.57304">
        <ele>657</ele>
        <time>2022-02-15T09:21:10.000Z</time>
      </trkpt>
      <trkpt lat="43.53096" lon="5.57304">
        <ele>657</ele>
        <time>2022-02-15T09:21:11.000Z</time>
      </trkpt>
      <trkpt lat="43.53096" lon="5.57304">
        <ele>657</ele>
        <time>2022-02-15T09:21:12.000Z</time>
      </trkpt>
      <trkpt lat="43.53096" lon="5.57304">
        <ele>657</ele>
        <time>2022-02-15T09:21:13.000Z</time>
      </trkpt>
      <trkpt lat="43.53096" lon="5.57304">
        <ele>657</ele>
        <time>2022-02-15T09:21:14.000Z</time>
      </trkpt>
      <trkpt lat="43.53096" lon="5.57304">
        <ele>657</ele>
        <time>2022-02-15T09:21:15.000Z</time>
      </trkpt>
      <trkpt lat="43.53096" lon="5.57304">
        <ele>657</ele>
        <time>2022-02-15T09:21:16.000Z</time>
      </trkpt>
      <trkpt lat="43.53096" lon="5.57304">
        <ele>657</ele>
        <time>2022-02-15T09:21:17.000Z</time>
      </trkpt>
      <trkpt lat="43.53096" lon="5.57304">
        <ele>657</ele>
        <time>2022-02-15T09:21:18.000Z</time>
      </trkpt>
      <trkpt lat="43.53096" lon="5.57304">
        <ele>657</ele>
        <time>2022-02-15T09:21:19.000Z</time>
      </trkpt>
      <trkpt lat="43.53096" lon="5.57304">
        <ele>657</ele>
        <time>2022-02-15T09:21:20.000Z</time>
      </trkpt>
      <trkpt lat="43.53096" lon="5.57304">
        <ele>657</ele>
        <time>2022-02-15T09:21:21.000Z</time>
      </trkpt>
      <trkpt lat="43.53096" lon="5.57304">
        <ele>657</ele>
        <time>2022-02-15T09:21:22.000Z</time>
      </trkpt>
      <trkpt lat="43.53096" lon="5.57304">
        <ele>657</ele>
        <time>2022-02-15T09:21:23.000Z</time>
      </trkpt>
      <trkpt lat="43.53096" lon="5.57304">
        <ele>657</ele>
        <time>2022-02-15T09:21:24.000Z</time>
      </trkpt>
      <trkpt lat="43.53096" lon="5.57304">
        <ele>657</ele>
        <time>2022-02-15T09:21:25.000Z</time>
      </trkpt>
      <trkpt lat="43.53096" lon="5.57304">
        <ele>657</ele>
        <time>2022-02-15T09:21:26.000Z</time>
      </trkpt>
      <trkpt lat="43.53096" lon="5.57304">
        <ele>658</ele>
        <time>2022-02-15T09:21:27.000Z</time>
      </trkpt>
      <trkpt lat="43.53096" lon="5.57304">
        <ele>658</ele>
        <time>2022-02-15T09:21:28.000Z</time>
      </trkpt>
      <trkpt lat="43.53096" lon="5.57304">
        <ele>658</ele>
        <time>2022-02-15T09:21:29.000Z</time>
      </trkpt>
      <trkpt lat="43.53096" lon="5.57304">
        <ele>658</ele>
        <time>2022-02-15T09:21:30.000Z</time>
      </trkpt>
      <trkpt lat="43.53096" lon="5.57304">
        <ele>658</ele>
        <time>2022-02-15T09:21:31.000Z</time>
      </trkpt>
      <trkpt lat="43.53095" lon="5.57305">
        <ele>658</ele>
        <time>2022-02-15T09:21:32.000Z</time>
      </trkpt>
      <trkpt lat="43.53095" lon="5.57305">
        <ele>658</ele>
        <time>2022-02-15T09:21:33.000Z</time>
      </trkpt>
      <trkpt lat="43.53095" lon="5.57306">
        <ele>658</ele>
        <time>2022-02-15T09:21:34.000Z</time>
      </trkpt>
      <trkpt lat="43.53095" lon="5.57306">
        <ele>658</ele>
        <time>2022-02-15T09:21:35.000Z</time>
      </trkpt>
      <trkpt lat="43.53095" lon="5.57307">
        <ele>658</ele>
        <time>2022-02-15T09:21:36.000Z</time>
      </trkpt>
      <trkpt lat="43.53095" lon="5.57308">
        <ele>658</ele>
        <time>2022-02-15T09:21:37.000Z</time>
      </trkpt>
      <trkpt lat="43.53094" lon="5.57308">
        <ele>658</ele>
        <time>2022-02-15T09:21:38.000Z</time>
      </trkpt>
      <trkpt lat="43.53094" lon="5.57308">
        <ele>658</ele>
        <time>2022-02-15T09:21:39.000Z</time>
      </trkpt>
      <trkpt lat="43.53094" lon="5.57309">
        <ele>659</ele>
        <time>2022-02-15T09:21:40.000Z</time>
      </trkpt>
      <trkpt lat="43.53093" lon="5.57309">
        <ele>659</ele>
        <time>2022-02-15T09:21:41.000Z</time>
      </trkpt>
      <trkpt lat="43.53093" lon="5.57309">
        <ele>659</ele>
        <time>2022-02-15T09:21:42.000Z</time>
      </trkpt>
      <trkpt lat="43.53093" lon="5.5731">
        <ele>659</ele>
        <time>2022-02-15T09:21:43.000Z</time>
      </trkpt>
      <trkpt lat="43.53093" lon="5.5731">
        <ele>660</ele>
        <time>2022-02-15T09:21:44.000Z</time>
      </trkpt>
      <trkpt lat="43.53093" lon="5.5731">
        <ele>660</ele>
        <time>2022-02-15T09:21:45.000Z</time>
      </trkpt>
      <trkpt lat="43.53092" lon="5.57311">
        <ele>661</ele>
        <time>2022-02-15T09:21:46.000Z</time>
      </trkpt>
      <trkpt lat="43.53092" lon="5.57312">
        <ele>661</ele>
        <time>2022-02-15T09:21:47.000Z</time>
      </trkpt>
      <trkpt lat="43.53092" lon="5.57312">
        <ele>661</ele>
        <time>2022-02-15T09:21:48.000Z</time>
      </trkpt>
      <trkpt lat="43.53091" lon="5.57313">
        <ele>662</ele>
        <time>2022-02-15T09:21:49.000Z</time>
      </trkpt>
      <trkpt lat="43.53091" lon="5.57314">
        <ele>662</ele>
        <time>2022-02-15T09:21:50.000Z</time>
      </trkpt>
      <trkpt lat="43.53091" lon="5.57315">
        <ele>662</ele>
        <time>2022-02-15T09:21:51.000Z</time>
      </trkpt>
      <trkpt lat="43.5309" lon="5.57316">
        <ele>663</ele>
        <time>2022-02-15T09:21:52.000Z</time>
      </trkpt>
      <trkpt lat="43.5309" lon="5.57317">
        <ele>663</ele>
        <time>2022-02-15T09:21:53.000Z</time>
      </trkpt>
      <trkpt lat="43.53089" lon="5.57317">
        <ele>663</ele>
        <time>2022-02-15T09:21:54.000Z</time>
      </trkpt>
      <trkpt lat="43.53089" lon="5.57318">
        <ele>664</ele>
        <time>2022-02-15T09:21:55.000Z</time>
      </trkpt>
      <trkpt lat="43.53088" lon="5.57319">
        <ele>664</ele>
        <time>2022-02-15T09:21:56.000Z</time>
      </trkpt>
      <trkpt lat="43.53088" lon="5.5732">
        <ele>664</ele>
        <time>2022-02-15T09:21:57.000Z</time>
      </trkpt>
      <trkpt lat="43.53087" lon="5.57321">
        <ele>664</ele>
        <time>2022-02-15T09:21:58.000Z</time>
      </trkpt>
      <trkpt lat="43.53087" lon="5.57321">
        <ele>665</ele>
        <time>2022-02-15T09:21:59.000Z</time>
      </trkpt>
      <trkpt lat="43.53087" lon="5.57322">
        <ele>665</ele>
        <time>2022-02-15T09:22:00.000Z</time>
      </trkpt>
      <trkpt lat="43.53087" lon="5.57323">
        <ele>665</ele>
        <time>2022-02-15T09:22:01.000Z</time>
      </trkpt>
      <trkpt lat="43.53087" lon="5.57324">
        <ele>665</ele>
        <time>2022-02-15T09:22:02.000Z</time>
      </trkpt>
      <trkpt lat="43.53086" lon="5.57324">
        <ele>666</ele>
        <time>2022-02-15T09:22:03.000Z</time>
      </trkpt>
      <trkpt lat="43.53086" lon="5.57325">
        <ele>666</ele>
        <time>2022-02-15T09:22:04.000Z</time>
      </trkpt>
      <trkpt lat="43.53085" lon="5.57325">
        <ele>666</ele>
        <time>2022-02-15T09:22:05.000Z</time>
      </trkpt>
      <trkpt lat="43.53085" lon="5.57326">
        <ele>666</ele>
        <time>2022-02-15T09:22:06.000Z</time>
      </trkpt>
      <trkpt lat="43.53085" lon="5.57326">
        <ele>667</ele>
        <time>2022-02-15T09:22:07.000Z</time>
      </trkpt>
      <trkpt lat="43.53085" lon="5.57326">
        <ele>667</ele>
        <time>2022-02-15T09:22:08.000Z</time>
      </trkpt>
      <trkpt lat="43.53085" lon="5.57326">
        <ele>667</ele>
        <time>2022-02-15T09:22:09.000Z</time>
      </trkpt>
      <trkpt lat="43.53085" lon="5.57326">
        <ele>667</ele>
        <time>2022-02-15T09:22:10.000Z</time>
      </trkpt>
      <trkpt lat="43.53086" lon="5.57327">
        <ele>667</ele>
        <time>2022-02-15T09:22:11.000Z</time>
      </trkpt>
      <trkpt lat="43.53086" lon="5.57327">
        <ele>667</ele>
        <time>2022-02-15T09:22:12.000Z</time>
      </trkpt>
      <trkpt lat="43.53086" lon="5.57328">
        <ele>667</ele>
        <time>2022-02-15T09:22:13.000Z</time>
      </trkpt>
      <trkpt lat="43.53086" lon="5.57329">
        <ele>667</ele>
        <time>2022-02-15T09:22:14.000Z</time>
      </trkpt>
      <trkpt lat="43.53086" lon="5.57329">
        <ele>668</ele>
        <time>2022-02-15T09:22:15.000Z</time>
      </trkpt>
      <trkpt lat="43.53086" lon="5.57329">
        <ele>668</ele>
        <time>2022-02-15T09:22:16.000Z</time>
      </trkpt>
      <trkpt lat="43.53086" lon="5.57329">
        <ele>668</ele>
        <time>2022-02-15T09:22:17.000Z</time>
      </trkpt>
      <trkpt lat="43.53086" lon="5.57329">
        <ele>668</ele>
        <time>2022-02-15T09:22:18.000Z</time>
      </trkpt>
      <trkpt lat="43.53086" lon="5.57329">
        <ele>668</ele>
        <time>2022-02-15T09:22:19.000Z</time>
      </trkpt>
      <trkpt lat="43.53086" lon="5.57329">
        <ele>668</ele>
        <time>2022-02-15T09:22:20.000Z</time>
      </trkpt>
      <trkpt lat="43.53086" lon="5.57329">
        <ele>668</ele>
        <time>2022-02-15T09:22:21.000Z</time>
      </trkpt>
      <trkpt lat="43.53086" lon="5.5733">
        <ele>668</ele>
        <time>2022-02-15T09:22:22.000Z</time>
      </trkpt>
      <trkpt lat="43.53086" lon="5.5733">
        <ele>668</ele>
        <time>2022-02-15T09:22:23.000Z</time>
      </trkpt>
      <trkpt lat="43.53086" lon="5.57329">
        <ele>668</ele>
        <time>2022-02-15T09:22:24.000Z</time>
      </trkpt>
      <trkpt lat="43.53086" lon="5.57329">
        <ele>668</ele>
        <time>2022-02-15T09:22:25.000Z</time>
      </trkpt>
      <trkpt lat="43.53086" lon="5.57329">
        <ele>668</ele>
        <time>2022-02-15T09:22:26.000Z</time>
      </trkpt>
      <trkpt lat="43.53086" lon="5.57329">
        <ele>668</ele>
        <time>2022-02-15T09:22:27.000Z</time>
      </trkpt>
      <trkpt lat="43.53086" lon="5.57329">
        <ele>668</ele>
        <time>2022-02-15T09:22:28.000Z</time>
      </trkpt>
      <trkpt lat="43.53086" lon="5.57329">
        <ele>668</ele>
        <time>2022-02-15T09:22:29.000Z</time>
      </trkpt>
      <trkpt lat="43.53086" lon="5.5733">
        <ele>669</ele>
        <time>2022-02-15T09:22:30.000Z</time>
      </trkpt>
      <trkpt lat="43.53086" lon="5.5733">
        <ele>669</ele>
        <time>2022-02-15T09:22:31.000Z</time>
      </trkpt>
      <trkpt lat="43.53086" lon="5.5733">
        <ele>669</ele>
        <time>2022-02-15T09:22:32.000Z</time>
      </trkpt>
      <trkpt lat="43.53087" lon="5.57331">
        <ele>669</ele>
        <time>2022-02-15T09:22:33.000Z</time>
      </trkpt>
      <trkpt lat="43.53087" lon="5.57331">
        <ele>669</ele>
        <time>2022-02-15T09:22:34.000Z</time>
      </trkpt>
      <trkpt lat="43.53087" lon="5.57331">
        <ele>669</ele>
        <time>2022-02-15T09:22:35.000Z</time>
      </trkpt>
      <trkpt lat="43.53087" lon="5.57331">
        <ele>669</ele>
        <time>2022-02-15T09:22:36.000Z</time>
      </trkpt>
      <trkpt lat="43.53087" lon="5.57331">
        <ele>669</ele>
        <time>2022-02-15T09:22:37.000Z</time>
      </trkpt>
      <trkpt lat="43.53088" lon="5.57331">
        <ele>670</ele>
        <time>2022-02-15T09:22:38.000Z</time>
      </trkpt>
      <trkpt lat="43.53088" lon="5.57331">
        <ele>670</ele>
        <time>2022-02-15T09:22:39.000Z</time>
      </trkpt>
      <trkpt lat="43.53088" lon="5.57331">
        <ele>670</ele>
        <time>2022-02-15T09:22:40.000Z</time>
      </trkpt>
      <trkpt lat="43.53088" lon="5.57332">
        <ele>670</ele>
        <time>2022-02-15T09:22:41.000Z</time>
      </trkpt>
      <trkpt lat="43.53088" lon="5.57333">
        <ele>670</ele>
        <time>2022-02-15T09:22:42.000Z</time>
      </trkpt>
      <trkpt lat="43.53088" lon="5.57334">
        <ele>670</ele>
        <time>2022-02-15T09:22:43.000Z</time>
      </trkpt>
      <trkpt lat="43.53087" lon="5.57335">
        <ele>670</ele>
        <time>2022-02-15T09:22:44.000Z</time>
      </trkpt>
      <trkpt lat="43.53087" lon="5.57335">
        <ele>671</ele>
        <time>2022-02-15T09:22:45.000Z</time>
      </trkpt>
      <trkpt lat="43.53086" lon="5.57336">
        <ele>671</ele>
        <time>2022-02-15T09:22:46.000Z</time>
      </trkpt>
      <trkpt lat="43.53086" lon="5.57337">
        <ele>671</ele>
        <time>2022-02-15T09:22:47.000Z</time>
      </trkpt>
      <trkpt lat="43.53085" lon="5.57338">
        <ele>671</ele>
        <time>2022-02-15T09:22:48.000Z</time>
      </trkpt>
      <trkpt lat="43.53085" lon="5.57339">
        <ele>671</ele>
        <time>2022-02-15T09:22:49.000Z</time>
      </trkpt>
      <trkpt lat="43.53084" lon="5.57339">
        <ele>671</ele>
        <time>2022-02-15T09:22:50.000Z</time>
      </trkpt>
      <trkpt lat="43.53084" lon="5.5734">
        <ele>671</ele>
        <time>2022-02-15T09:22:51.000Z</time>
      </trkpt>
      <trkpt lat="43.53083" lon="5.57341">
        <ele>671</ele>
        <time>2022-02-15T09:22:52.000Z</time>
      </trkpt>
      <trkpt lat="43.53082" lon="5.57342">
        <ele>671</ele>
        <time>2022-02-15T09:22:53.000Z</time>
      </trkpt>
      <trkpt lat="43.53082" lon="5.57343">
        <ele>671</ele>
        <time>2022-02-15T09:22:54.000Z</time>
      </trkpt>
      <trkpt lat="43.53082" lon="5.57343">
        <ele>671</ele>
        <time>2022-02-15T09:22:55.000Z</time>
      </trkpt>
      <trkpt lat="43.53082" lon="5.57344">
        <ele>671</ele>
        <time>2022-02-15T09:22:56.000Z</time>
      </trkpt>
      <trkpt lat="43.53082" lon="5.57345">
        <ele>672</ele>
        <time>2022-02-15T09:22:57.000Z</time>
      </trkpt>
      <trkpt lat="43.53082" lon="5.57345">
        <ele>672</ele>
        <time>2022-02-15T09:22:58.000Z</time>
      </trkpt>
      <trkpt lat="43.53082" lon="5.57345">
        <ele>672</ele>
        <time>2022-02-15T09:22:59.000Z</time>
      </trkpt>
      <trkpt lat="43.53082" lon="5.57345">
        <ele>672</ele>
        <time>2022-02-15T09:23:00.000Z</time>
      </trkpt>
      <trkpt lat="43.53082" lon="5.57345">
        <ele>672</ele>
        <time>2022-02-15T09:23:01.000Z</time>
      </trkpt>
      <trkpt lat="43.53082" lon="5.57345">
        <ele>672</ele>
        <time>2022-02-15T09:23:02.000Z</time>
      </trkpt>
      <trkpt lat="43.53082" lon="5.57345">
        <ele>672</ele>
        <time>2022-02-15T09:23:03.000Z</time>
      </trkpt>
      <trkpt lat="43.53082" lon="5.57345">
        <ele>672</ele>
        <time>2022-02-15T09:23:04.000Z</time>
      </trkpt>
      <trkpt lat="43.53082" lon="5.57345">
        <ele>672</ele>
        <time>2022-02-15T09:23:05.000Z</time>
      </trkpt>
      <trkpt lat="43.53081" lon="5.57345">
        <ele>672</ele>
        <time>2022-02-15T09:23:06.000Z</time>
      </trkpt>
      <trkpt lat="43.53082" lon="5.57346">
        <ele>672</ele>
        <time>2022-02-15T09:23:07.000Z</time>
      </trkpt>
      <trkpt lat="43.53082" lon="5.57346">
        <ele>672</ele>
        <time>2022-02-15T09:23:08.000Z</time>
      </trkpt>
      <trkpt lat="43.53082" lon="5.57347">
        <ele>672</ele>
        <time>2022-02-15T09:23:09.000Z</time>
      </trkpt>
      <trkpt lat="43.53082" lon="5.57347">
        <ele>672</ele>
        <time>2022-02-15T09:23:10.000Z</time>
      </trkpt>
      <trkpt lat="43.53082" lon="5.57347">
        <ele>673</ele>
        <time>2022-02-15T09:23:11.000Z</time>
      </trkpt>
      <trkpt lat="43.53082" lon="5.57348">
        <ele>673</ele>
        <time>2022-02-15T09:23:12.000Z</time>
      </trkpt>
      <trkpt lat="43.53082" lon="5.57349">
        <ele>673</ele>
        <time>2022-02-15T09:23:13.000Z</time>
      </trkpt>
      <trkpt lat="43.53082" lon="5.5735">
        <ele>673</ele>
        <time>2022-02-15T09:23:14.000Z</time>
      </trkpt>
      <trkpt lat="43.53081" lon="5.57351">
        <ele>673</ele>
        <time>2022-02-15T09:23:15.000Z</time>
      </trkpt>
      <trkpt lat="43.53081" lon="5.57352">
        <ele>674</ele>
        <time>2022-02-15T09:23:16.000Z</time>
      </trkpt>
      <trkpt lat="43.53081" lon="5.57352">
        <ele>674</ele>
        <time>2022-02-15T09:23:17.000Z</time>
      </trkpt>
      <trkpt lat="43.53081" lon="5.57353">
        <ele>674</ele>
        <time>2022-02-15T09:23:18.000Z</time>
      </trkpt>
      <trkpt lat="43.53081" lon="5.57353">
        <ele>674</ele>
        <time>2022-02-15T09:23:19.000Z</time>
      </trkpt>
      <trkpt lat="43.53082" lon="5.57354">
        <ele>674</ele>
        <time>2022-02-15T09:23:20.000Z</time>
      </trkpt>
      <trkpt lat="43.53082" lon="5.57354">
        <ele>674</ele>
        <time>2022-02-15T09:23:21.000Z</time>
      </trkpt>
      <trkpt lat="43.53082" lon="5.57355">
        <ele>674</ele>
        <time>2022-02-15T09:23:22.000Z</time>
      </trkpt>
      <trkpt lat="43.53081" lon="5.57356">
        <ele>675</ele>
        <time>2022-02-15T09:23:23.000Z</time>
      </trkpt>
      <trkpt lat="43.53081" lon="5.57356">
        <ele>675</ele>
        <time>2022-02-15T09:23:24.000Z</time>
      </trkpt>
      <trkpt lat="43.53081" lon="5.57356">
        <ele>675</ele>
        <time>2022-02-15T09:23:25.000Z</time>
      </trkpt>
      <trkpt lat="43.53081" lon="5.57356">
        <ele>675</ele>
        <time>2022-02-15T09:23:26.000Z</time>
      </trkpt>
      <trkpt lat="43.53081" lon="5.57356">
        <ele>675</ele>
        <time>2022-02-15T09:23:27.000Z</time>
      </trkpt>
      <trkpt lat="43.53081" lon="5.57357">
        <ele>675</ele>
        <time>2022-02-15T09:23:28.000Z</time>
      </trkpt>
      <trkpt lat="43.53081" lon="5.57358">
        <ele>675</ele>
        <time>2022-02-15T09:23:29.000Z</time>
      </trkpt>
      <trkpt lat="43.53081" lon="5.57358">
        <ele>675</ele>
        <time>2022-02-15T09:23:30.000Z</time>
      </trkpt>
      <trkpt lat="43.5308" lon="5.57359">
        <ele>675</ele>
        <time>2022-02-15T09:23:31.000Z</time>
      </trkpt>
      <trkpt lat="43.5308" lon="5.5736">
        <ele>676</ele>
        <time>2022-02-15T09:23:32.000Z</time>
      </trkpt>
      <trkpt lat="43.5308" lon="5.5736">
        <ele>676</ele>
        <time>2022-02-15T09:23:33.000Z</time>
      </trkpt>
      <trkpt lat="43.5308" lon="5.57361">
        <ele>676</ele>
        <time>2022-02-15T09:23:34.000Z</time>
      </trkpt>
      <trkpt lat="43.5308" lon="5.57362">
        <ele>676</ele>
        <time>2022-02-15T09:23:35.000Z</time>
      </trkpt>
      <trkpt lat="43.5308" lon="5.57362">
        <ele>676</ele>
        <time>2022-02-15T09:23:36.000Z</time>
      </trkpt>
      <trkpt lat="43.5308" lon="5.57362">
        <ele>676</ele>
        <time>2022-02-15T09:23:37.000Z</time>
      </trkpt>
      <trkpt lat="43.5308" lon="5.57362">
        <ele>676</ele>
        <time>2022-02-15T09:23:38.000Z</time>
      </trkpt>
      <trkpt lat="43.5308" lon="5.57362">
        <ele>676</ele>
        <time>2022-02-15T09:23:39.000Z</time>
      </trkpt>
      <trkpt lat="43.5308" lon="5.57362">
        <ele>676</ele>
        <time>2022-02-15T09:23:40.000Z</time>
      </trkpt>
      <trkpt lat="43.5308" lon="5.57362">
        <ele>676</ele>
        <time>2022-02-15T09:23:41.000Z</time>
      </trkpt>
      <trkpt lat="43.5308" lon="5.57362">
        <ele>676</ele>
        <time>2022-02-15T09:23:42.000Z</time>
      </trkpt>
      <trkpt lat="43.5308" lon="5.57362">
        <ele>676</ele>
        <time>2022-02-15T09:23:43.000Z</time>
      </trkpt>
      <trkpt lat="43.5308" lon="5.57362">
        <ele>676</ele>
        <time>2022-02-15T09:23:44.000Z</time>
      </trkpt>
      <trkpt lat="43.5308" lon="5.57362">
        <ele>676</ele>
        <time>2022-02-15T09:23:45.000Z</time>
      </trkpt>
      <trkpt lat="43.5308" lon="5.57362">
        <ele>676</ele>
        <time>2022-02-15T09:23:46.000Z</time>
      </trkpt>
      <trkpt lat="43.5308" lon="5.57362">
        <ele>676</ele>
        <time>2022-02-15T09:23:47.000Z</time>
      </trkpt>
      <trkpt lat="43.5308" lon="5.57362">
        <ele>676</ele>
        <time>2022-02-15T09:23:48.000Z</time>
      </trkpt>
      <trkpt lat="43.5308" lon="5.57362">
        <ele>676</ele>
        <time>2022-02-15T09:23:49.000Z</time>
      </trkpt>
      <trkpt lat="43.5308" lon="5.57362">
        <ele>676</ele>
        <time>2022-02-15T09:23:50.000Z</time>
      </trkpt>
      <trkpt lat="43.5308" lon="5.57362">
        <ele>676</ele>
        <time>2022-02-15T09:23:51.000Z</time>
      </trkpt>
      <trkpt lat="43.5308" lon="5.57362">
        <ele>676</ele>
        <time>2022-02-15T09:23:52.000Z</time>
      </trkpt>
      <trkpt lat="43.5308" lon="5.57362">
        <ele>676</ele>
        <time>2022-02-15T09:23:53.000Z</time>
      </trkpt>
      <trkpt lat="43.5308" lon="5.57362">
        <ele>676</ele>
        <time>2022-02-15T09:23:54.000Z</time>
      </trkpt>
      <trkpt lat="43.5308" lon="5.57362">
        <ele>676</ele>
        <time>2022-02-15T09:23:55.000Z</time>
      </trkpt>
      <trkpt lat="43.5308" lon="5.57362">
        <ele>676</ele>
        <time>2022-02-15T09:23:56.000Z</time>
      </trkpt>
      <trkpt lat="43.53079" lon="5.57363">
        <ele>676</ele>
        <time>2022-02-15T09:23:57.000Z</time>
      </trkpt>
      <trkpt lat="43.5308" lon="5.57364">
        <ele>676</ele>
        <time>2022-02-15T09:23:58.000Z</time>
      </trkpt>
      <trkpt lat="43.5308" lon="5.57364">
        <ele>676</ele>
        <time>2022-02-15T09:23:59.000Z</time>
      </trkpt>
      <trkpt lat="43.5308" lon="5.57364">
        <ele>676</ele>
        <time>2022-02-15T09:24:00.000Z</time>
      </trkpt>
      <trkpt lat="43.5308" lon="5.57365">
        <ele>677</ele>
        <time>2022-02-15T09:24:01.000Z</time>
      </trkpt>
      <trkpt lat="43.5308" lon="5.57365">
        <ele>677</ele>
        <time>2022-02-15T09:24:02.000Z</time>
      </trkpt>
      <trkpt lat="43.5308" lon="5.57365">
        <ele>677</ele>
        <time>2022-02-15T09:24:03.000Z</time>
      </trkpt>
      <trkpt lat="43.5308" lon="5.57366">
        <ele>677</ele>
        <time>2022-02-15T09:24:04.000Z</time>
      </trkpt>
      <trkpt lat="43.5308" lon="5.57366">
        <ele>677</ele>
        <time>2022-02-15T09:24:05.000Z</time>
      </trkpt>
      <trkpt lat="43.5308" lon="5.57367">
        <ele>677</ele>
        <time>2022-02-15T09:24:06.000Z</time>
      </trkpt>
      <trkpt lat="43.5308" lon="5.57367">
        <ele>677</ele>
        <time>2022-02-15T09:24:07.000Z</time>
      </trkpt>
      <trkpt lat="43.5308" lon="5.57368">
        <ele>677</ele>
        <time>2022-02-15T09:24:08.000Z</time>
      </trkpt>
      <trkpt lat="43.5308" lon="5.57368">
        <ele>678</ele>
        <time>2022-02-15T09:24:09.000Z</time>
      </trkpt>
      <trkpt lat="43.5308" lon="5.57369">
        <ele>678</ele>
        <time>2022-02-15T09:24:10.000Z</time>
      </trkpt>
      <trkpt lat="43.5308" lon="5.5737">
        <ele>678</ele>
        <time>2022-02-15T09:24:11.000Z</time>
      </trkpt>
      <trkpt lat="43.5308" lon="5.5737">
        <ele>678</ele>
        <time>2022-02-15T09:24:12.000Z</time>
      </trkpt>
      <trkpt lat="43.5308" lon="5.57371">
        <ele>678</ele>
        <time>2022-02-15T09:24:13.000Z</time>
      </trkpt>
      <trkpt lat="43.5308" lon="5.57372">
        <ele>678</ele>
        <time>2022-02-15T09:24:14.000Z</time>
      </trkpt>
      <trkpt lat="43.5308" lon="5.57372">
        <ele>679</ele>
        <time>2022-02-15T09:24:15.000Z</time>
      </trkpt>
      <trkpt lat="43.5308" lon="5.57373">
        <ele>679</ele>
        <time>2022-02-15T09:24:16.000Z</time>
      </trkpt>
      <trkpt lat="43.5308" lon="5.57374">
        <ele>679</ele>
        <time>2022-02-15T09:24:17.000Z</time>
      </trkpt>
      <trkpt lat="43.5308" lon="5.57375">
        <ele>679</ele>
        <time>2022-02-15T09:24:18.000Z</time>
      </trkpt>
      <trkpt lat="43.5308" lon="5.57376">
        <ele>679</ele>
        <time>2022-02-15T09:24:19.000Z</time>
      </trkpt>
      <trkpt lat="43.5308" lon="5.57376">
        <ele>680</ele>
        <time>2022-02-15T09:24:20.000Z</time>
      </trkpt>
      <trkpt lat="43.5308" lon="5.57377">
        <ele>680</ele>
        <time>2022-02-15T09:24:21.000Z</time>
      </trkpt>
      <trkpt lat="43.5308" lon="5.57378">
        <ele>680</ele>
        <time>2022-02-15T09:24:22.000Z</time>
      </trkpt>
      <trkpt lat="43.53079" lon="5.57379">
        <ele>680</ele>
        <time>2022-02-15T09:24:23.000Z</time>
      </trkpt>
      <trkpt lat="43.53079" lon="5.5738">
        <ele>680</ele>
        <time>2022-02-15T09:24:24.000Z</time>
      </trkpt>
      <trkpt lat="43.53079" lon="5.57381">
        <ele>680</ele>
        <time>2022-02-15T09:24:25.000Z</time>
      </trkpt>
      <trkpt lat="43.53079" lon="5.57382">
        <ele>680</ele>
        <time>2022-02-15T09:24:26.000Z</time>
      </trkpt>
      <trkpt lat="43.53079" lon="5.57383">
        <ele>680</ele>
        <time>2022-02-15T09:24:27.000Z</time>
      </trkpt>
      <trkpt lat="43.53079" lon="5.57384">
        <ele>681</ele>
        <time>2022-02-15T09:24:28.000Z</time>
      </trkpt>
      <trkpt lat="43.53079" lon="5.57384">
        <ele>681</ele>
        <time>2022-02-15T09:24:29.000Z</time>
      </trkpt>
      <trkpt lat="43.53079" lon="5.57385">
        <ele>681</ele>
        <time>2022-02-15T09:24:30.000Z</time>
      </trkpt>
      <trkpt lat="43.5308" lon="5.57386">
        <ele>681</ele>
        <time>2022-02-15T09:24:31.000Z</time>
      </trkpt>
      <trkpt lat="43.5308" lon="5.57386">
        <ele>681</ele>
        <time>2022-02-15T09:24:32.000Z</time>
      </trkpt>
      <trkpt lat="43.5308" lon="5.57387">
        <ele>681</ele>
        <time>2022-02-15T09:24:33.000Z</time>
      </trkpt>
      <trkpt lat="43.5308" lon="5.57388">
        <ele>681</ele>
        <time>2022-02-15T09:24:34.000Z</time>
      </trkpt>
      <trkpt lat="43.5308" lon="5.57388">
        <ele>682</ele>
        <time>2022-02-15T09:24:35.000Z</time>
      </trkpt>
      <trkpt lat="43.5308" lon="5.57389">
        <ele>682</ele>
        <time>2022-02-15T09:24:36.000Z</time>
      </trkpt>
      <trkpt lat="43.5308" lon="5.5739">
        <ele>682</ele>
        <time>2022-02-15T09:24:37.000Z</time>
      </trkpt>
      <trkpt lat="43.53079" lon="5.57391">
        <ele>682</ele>
        <time>2022-02-15T09:24:38.000Z</time>
      </trkpt>
      <trkpt lat="43.53079" lon="5.57392">
        <ele>683</ele>
        <time>2022-02-15T09:24:39.000Z</time>
      </trkpt>
      <trkpt lat="43.53079" lon="5.57392">
        <ele>683</ele>
        <time>2022-02-15T09:24:40.000Z</time>
      </trkpt>
      <trkpt lat="43.53079" lon="5.57392">
        <ele>683</ele>
        <time>2022-02-15T09:24:41.000Z</time>
      </trkpt>
      <trkpt lat="43.53079" lon="5.57392">
        <ele>683</ele>
        <time>2022-02-15T09:24:42.000Z</time>
      </trkpt>
      <trkpt lat="43.53079" lon="5.57392">
        <ele>683</ele>
        <time>2022-02-15T09:24:43.000Z</time>
      </trkpt>
      <trkpt lat="43.53079" lon="5.57392">
        <ele>683</ele>
        <time>2022-02-15T09:24:44.000Z</time>
      </trkpt>
      <trkpt lat="43.53079" lon="5.57392">
        <ele>683</ele>
        <time>2022-02-15T09:24:45.000Z</time>
      </trkpt>
      <trkpt lat="43.53079" lon="5.57392">
        <ele>683</ele>
        <time>2022-02-15T09:24:46.000Z</time>
      </trkpt>
      <trkpt lat="43.53079" lon="5.57392">
        <ele>683</ele>
        <time>2022-02-15T09:24:47.000Z</time>
      </trkpt>
      <trkpt lat="43.53079" lon="5.57392">
        <ele>683</ele>
        <time>2022-02-15T09:24:48.000Z</time>
      </trkpt>
      <trkpt lat="43.53079" lon="5.57392">
        <ele>683</ele>
        <time>2022-02-15T09:24:49.000Z</time>
      </trkpt>
      <trkpt lat="43.53079" lon="5.57393">
        <ele>683</ele>
        <time>2022-02-15T09:24:50.000Z</time>
      </trkpt>
      <trkpt lat="43.53079" lon="5.57393">
        <ele>683</ele>
        <time>2022-02-15T09:24:51.000Z</time>
      </trkpt>
      <trkpt lat="43.53079" lon="5.57393">
        <ele>683</ele>
        <time>2022-02-15T09:24:52.000Z</time>
      </trkpt>
      <trkpt lat="43.53079" lon="5.57393">
        <ele>683</ele>
        <time>2022-02-15T09:24:53.000Z</time>
      </trkpt>
      <trkpt lat="43.53079" lon="5.57393">
        <ele>684</ele>
        <time>2022-02-15T09:24:54.000Z</time>
      </trkpt>
      <trkpt lat="43.53079" lon="5.57393">
        <ele>684</ele>
        <time>2022-02-15T09:24:55.000Z</time>
      </trkpt>
      <trkpt lat="43.53079" lon="5.57393">
        <ele>684</ele>
        <time>2022-02-15T09:24:56.000Z</time>
      </trkpt>
      <trkpt lat="43.53079" lon="5.57393">
        <ele>684</ele>
        <time>2022-02-15T09:24:57.000Z</time>
      </trkpt>
      <trkpt lat="43.53079" lon="5.57393">
        <ele>684</ele>
        <time>2022-02-15T09:24:58.000Z</time>
      </trkpt>
      <trkpt lat="43.53079" lon="5.57393">
        <ele>684</ele>
        <time>2022-02-15T09:24:59.000Z</time>
      </trkpt>
      <trkpt lat="43.53079" lon="5.57393">
        <ele>684</ele>
        <time>2022-02-15T09:25:00.000Z</time>
      </trkpt>
      <trkpt lat="43.53079" lon="5.57393">
        <ele>684</ele>
        <time>2022-02-15T09:25:01.000Z</time>
      </trkpt>
      <trkpt lat="43.53079" lon="5.57393">
        <ele>684</ele>
        <time>2022-02-15T09:25:02.000Z</time>
      </trkpt>
      <trkpt lat="43.53079" lon="5.57393">
        <ele>684</ele>
        <time>2022-02-15T09:25:03.000Z</time>
      </trkpt>
      <trkpt lat="43.53079" lon="5.57393">
        <ele>684</ele>
        <time>2022-02-15T09:25:04.000Z</time>
      </trkpt>
      <trkpt lat="43.53079" lon="5.57393">
        <ele>684</ele>
        <time>2022-02-15T09:25:05.000Z</time>
      </trkpt>
      <trkpt lat="43.53079" lon="5.57393">
        <ele>684</ele>
        <time>2022-02-15T09:25:06.000Z</time>
      </trkpt>
      <trkpt lat="43.53079" lon="5.57393">
        <ele>684</ele>
        <time>2022-02-15T09:25:07.000Z</time>
      </trkpt>
      <trkpt lat="43.53079" lon="5.57393">
        <ele>684</ele>
        <time>2022-02-15T09:25:08.000Z</time>
      </trkpt>
      <trkpt lat="43.53079" lon="5.57393">
        <ele>684</ele>
        <time>2022-02-15T09:25:09.000Z</time>
      </trkpt>
      <trkpt lat="43.53079" lon="5.57393">
        <ele>684</ele>
        <time>2022-02-15T09:25:10.000Z</time>
      </trkpt>
      <trkpt lat="43.53079" lon="5.57393">
        <ele>684</ele>
        <time>2022-02-15T09:25:11.000Z</time>
      </trkpt>
      <trkpt lat="43.53079" lon="5.57393">
        <ele>684</ele>
        <time>2022-02-15T09:25:12.000Z</time>
      </trkpt>
      <trkpt lat="43.53079" lon="5.57393">
        <ele>684</ele>
        <time>2022-02-15T09:25:13.000Z</time>
      </trkpt>
      <trkpt lat="43.53079" lon="5.57393">
        <ele>684</ele>
        <time>2022-02-15T09:25:14.000Z</time>
      </trkpt>
      <trkpt lat="43.53079" lon="5.57393">
        <ele>684</ele>
        <time>2022-02-15T09:25:15.000Z</time>
      </trkpt>
      <trkpt lat="43.53079" lon="5.57393">
        <ele>684</ele>
        <time>2022-02-15T09:25:16.000Z</time>
      </trkpt>
      <trkpt lat="43.53079" lon="5.57393">
        <ele>684</ele>
        <time>2022-02-15T09:25:17.000Z</time>
      </trkpt>
      <trkpt lat="43.53079" lon="5.57393">
        <ele>684</ele>
        <time>2022-02-15T09:25:18.000Z</time>
      </trkpt>
      <trkpt lat="43.53079" lon="5.57393">
        <ele>684</ele>
        <time>2022-02-15T09:25:19.000Z</time>
      </trkpt>
      <trkpt lat="43.53079" lon="5.57393">
        <ele>684</ele>
        <time>2022-02-15T09:25:20.000Z</time>
      </trkpt>
      <trkpt lat="43.53079" lon="5.57393">
        <ele>684</ele>
        <time>2022-02-15T09:25:21.000Z</time>
      </trkpt>
      <trkpt lat="43.53079" lon="5.57393">
        <ele>684</ele>
        <time>2022-02-15T09:25:22.000Z</time>
      </trkpt>
      <trkpt lat="43.53079" lon="5.57393">
        <ele>684</ele>
        <time>2022-02-15T09:25:23.000Z</time>
      </trkpt>
      <trkpt lat="43.53079" lon="5.57393">
        <ele>684</ele>
        <time>2022-02-15T09:25:24.000Z</time>
      </trkpt>
      <trkpt lat="43.53079" lon="5.57393">
        <ele>684</ele>
        <time>2022-02-15T09:25:25.000Z</time>
      </trkpt>
      <trkpt lat="43.53079" lon="5.57393">
        <ele>684</ele>
        <time>2022-02-15T09:25:26.000Z</time>
      </trkpt>
      <trkpt lat="43.53079" lon="5.57393">
        <ele>684</ele>
        <time>2022-02-15T09:25:27.000Z</time>
      </trkpt>
      <trkpt lat="43.53079" lon="5.57393">
        <ele>684</ele>
        <time>2022-02-15T09:25:28.000Z</time>
      </trkpt>
      <trkpt lat="43.53079" lon="5.57393">
        <ele>684</ele>
        <time>2022-02-15T09:25:29.000Z</time>
      </trkpt>
      <trkpt lat="43.53079" lon="5.57393">
        <ele>684</ele>
        <time>2022-02-15T09:25:30.000Z</time>
      </trkpt>
      <trkpt lat="43.53079" lon="5.57393">
        <ele>684</ele>
        <time>2022-02-15T09:25:31.000Z</time>
      </trkpt>
      <trkpt lat="43.53079" lon="5.57393">
        <ele>684</ele>
        <time>2022-02-15T09:25:32.000Z</time>
      </trkpt>
      <trkpt lat="43.53079" lon="5.57393">
        <ele>684</ele>
        <time>2022-02-15T09:25:33.000Z</time>
      </trkpt>
      <trkpt lat="43.53079" lon="5.57393">
        <ele>684</ele>
        <time>2022-02-15T09:25:34.000Z</time>
      </trkpt>
      <trkpt lat="43.53079" lon="5.57393">
        <ele>684</ele>
        <time>2022-02-15T09:25:35.000Z</time>
      </trkpt>
      <trkpt lat="43.53079" lon="5.57393">
        <ele>684</ele>
        <time>2022-02-15T09:25:36.000Z</time>
      </trkpt>
      <trkpt lat="43.53079" lon="5.57393">
        <ele>684</ele>
        <time>2022-02-15T09:25:37.000Z</time>
      </trkpt>
      <trkpt lat="43.53079" lon="5.57393">
        <ele>684</ele>
        <time>2022-02-15T09:25:38.000Z</time>
      </trkpt>
      <trkpt lat="43.53079" lon="5.57393">
        <ele>684</ele>
        <time>2022-02-15T09:25:39.000Z</time>
      </trkpt>
      <trkpt lat="43.53079" lon="5.57393">
        <ele>684</ele>
        <time>2022-02-15T09:25:40.000Z</time>
      </trkpt>
      <trkpt lat="43.53079" lon="5.57394">
        <ele>684</ele>
        <time>2022-02-15T09:25:41.000Z</time>
      </trkpt>
      <trkpt lat="43.53079" lon="5.57394">
        <ele>684</ele>
        <time>2022-02-15T09:25:42.000Z</time>
      </trkpt>
      <trkpt lat="43.53079" lon="5.57394">
        <ele>684</ele>
        <time>2022-02-15T09:25:43.000Z</time>
      </trkpt>
      <trkpt lat="43.53079" lon="5.57393">
        <ele>684</ele>
        <time>2022-02-15T09:25:44.000Z</time>
      </trkpt>
      <trkpt lat="43.53079" lon="5.57393">
        <ele>684</ele>
        <time>2022-02-15T09:25:45.000Z</time>
      </trkpt>
      <trkpt lat="43.53079" lon="5.57393">
        <ele>684</ele>
        <time>2022-02-15T09:25:46.000Z</time>
      </trkpt>
      <trkpt lat="43.53079" lon="5.57394">
        <ele>684</ele>
        <time>2022-02-15T09:25:47.000Z</time>
      </trkpt>
      <trkpt lat="43.53079" lon="5.57394">
        <ele>684</ele>
        <time>2022-02-15T09:25:48.000Z</time>
      </trkpt>
      <trkpt lat="43.53079" lon="5.57394">
        <ele>684</ele>
        <time>2022-02-15T09:25:49.000Z</time>
      </trkpt>
      <trkpt lat="43.53079" lon="5.57394">
        <ele>684</ele>
        <time>2022-02-15T09:25:50.000Z</time>
      </trkpt>
      <trkpt lat="43.53079" lon="5.57394">
        <ele>684</ele>
        <time>2022-02-15T09:25:51.000Z</time>
      </trkpt>
      <trkpt lat="43.53079" lon="5.57394">
        <ele>684</ele>
        <time>2022-02-15T09:25:52.000Z</time>
      </trkpt>
      <trkpt lat="43.53079" lon="5.57394">
        <ele>684</ele>
        <time>2022-02-15T09:25:53.000Z</time>
      </trkpt>
      <trkpt lat="43.53079" lon="5.57394">
        <ele>684</ele>
        <time>2022-02-15T09:25:54.000Z</time>
      </trkpt>
      <trkpt lat="43.53079" lon="5.57394">
        <ele>684</ele>
        <time>2022-02-15T09:25:55.000Z</time>
      </trkpt>
      <trkpt lat="43.53079" lon="5.57394">
        <ele>684</ele>
        <time>2022-02-15T09:25:56.000Z</time>
      </trkpt>
      <trkpt lat="43.53079" lon="5.57394">
        <ele>684</ele>
        <time>2022-02-15T09:25:57.000Z</time>
      </trkpt>
      <trkpt lat="43.53079" lon="5.57394">
        <ele>684</ele>
        <time>2022-02-15T09:25:58.000Z</time>
      </trkpt>
      <trkpt lat="43.53079" lon="5.57394">
        <ele>684</ele>
        <time>2022-02-15T09:25:59.000Z</time>
      </trkpt>
      <trkpt lat="43.53079" lon="5.57394">
        <ele>684</ele>
        <time>2022-02-15T09:26:00.000Z</time>
      </trkpt>
      <trkpt lat="43.53079" lon="5.57394">
        <ele>684</ele>
        <time>2022-02-15T09:26:01.000Z</time>
      </trkpt>
      <trkpt lat="43.53079" lon="5.57394">
        <ele>684</ele>
        <time>2022-02-15T09:26:02.000Z</time>
      </trkpt>
      <trkpt lat="43.53079" lon="5.57394">
        <ele>684</ele>
        <time>2022-02-15T09:26:03.000Z</time>
      </trkpt>
      <trkpt lat="43.53079" lon="5.57394">
        <ele>684</ele>
        <time>2022-02-15T09:26:04.000Z</time>
      </trkpt>
      <trkpt lat="43.53079" lon="5.57394">
        <ele>684</ele>
        <time>2022-02-15T09:26:05.000Z</time>
      </trkpt>
      <trkpt lat="43.53079" lon="5.57394">
        <ele>684</ele>
        <time>2022-02-15T09:26:06.000Z</time>
      </trkpt>
      <trkpt lat="43.53079" lon="5.57394">
        <ele>684</ele>
        <time>2022-02-15T09:26:07.000Z</time>
      </trkpt>
      <trkpt lat="43.53079" lon="5.57394">
        <ele>684</ele>
        <time>2022-02-15T09:26:08.000Z</time>
      </trkpt>
      <trkpt lat="43.53079" lon="5.57394">
        <ele>684</ele>
        <time>2022-02-15T09:26:09.000Z</time>
      </trkpt>
      <trkpt lat="43.53079" lon="5.57395">
        <ele>684</ele>
        <time>2022-02-15T09:26:10.000Z</time>
      </trkpt>
      <trkpt lat="43.53079" lon="5.57395">
        <ele>684</ele>
        <time>2022-02-15T09:26:11.000Z</time>
      </trkpt>
      <trkpt lat="43.53079" lon="5.57396">
        <ele>684</ele>
        <time>2022-02-15T09:26:12.000Z</time>
      </trkpt>
      <trkpt lat="43.53079" lon="5.57397">
        <ele>684</ele>
        <time>2022-02-15T09:26:13.000Z</time>
      </trkpt>
      <trkpt lat="43.53079" lon="5.57398">
        <ele>684</ele>
        <time>2022-02-15T09:26:14.000Z</time>
      </trkpt>
      <trkpt lat="43.53079" lon="5.57399">
        <ele>684</ele>
        <time>2022-02-15T09:26:15.000Z</time>
      </trkpt>
      <trkpt lat="43.53079" lon="5.574">
        <ele>684</ele>
        <time>2022-02-15T09:26:16.000Z</time>
      </trkpt>
      <trkpt lat="43.5308" lon="5.57401">
        <ele>685</ele>
        <time>2022-02-15T09:26:17.000Z</time>
      </trkpt>
      <trkpt lat="43.5308" lon="5.57402">
        <ele>685</ele>
        <time>2022-02-15T09:26:18.000Z</time>
      </trkpt>
      <trkpt lat="43.5308" lon="5.57403">
        <ele>685</ele>
        <time>2022-02-15T09:26:19.000Z</time>
      </trkpt>
      <trkpt lat="43.53081" lon="5.57404">
        <ele>685</ele>
        <time>2022-02-15T09:26:20.000Z</time>
      </trkpt>
      <trkpt lat="43.53081" lon="5.57405">
        <ele>685</ele>
        <time>2022-02-15T09:26:21.000Z</time>
      </trkpt>
      <trkpt lat="43.5308" lon="5.57406">
        <ele>685</ele>
        <time>2022-02-15T09:26:22.000Z</time>
      </trkpt>
      <trkpt lat="43.5308" lon="5.57407">
        <ele>685</ele>
        <time>2022-02-15T09:26:23.000Z</time>
      </trkpt>
      <trkpt lat="43.5308" lon="5.57408">
        <ele>685</ele>
        <time>2022-02-15T09:26:24.000Z</time>
      </trkpt>
      <trkpt lat="43.5308" lon="5.57409">
        <ele>685</ele>
        <time>2022-02-15T09:26:25.000Z</time>
      </trkpt>
      <trkpt lat="43.5308" lon="5.5741">
        <ele>685</ele>
        <time>2022-02-15T09:26:26.000Z</time>
      </trkpt>
      <trkpt lat="43.53081" lon="5.57411">
        <ele>685</ele>
        <time>2022-02-15T09:26:27.000Z</time>
      </trkpt>
      <trkpt lat="43.53081" lon="5.57412">
        <ele>685</ele>
        <time>2022-02-15T09:26:28.000Z</time>
      </trkpt>
      <trkpt lat="43.53081" lon="5.57413">
        <ele>685</ele>
        <time>2022-02-15T09:26:29.000Z</time>
      </trkpt>
      <trkpt lat="43.53081" lon="5.57413">
        <ele>685</ele>
        <time>2022-02-15T09:26:30.000Z</time>
      </trkpt>
      <trkpt lat="43.53081" lon="5.57414">
        <ele>685</ele>
        <time>2022-02-15T09:26:31.000Z</time>
      </trkpt>
      <trkpt lat="43.53082" lon="5.57415">
        <ele>685</ele>
        <time>2022-02-15T09:26:32.000Z</time>
      </trkpt>
      <trkpt lat="43.53082" lon="5.57416">
        <ele>685</ele>
        <time>2022-02-15T09:26:33.000Z</time>
      </trkpt>
      <trkpt lat="43.53082" lon="5.57417">
        <ele>686</ele>
        <time>2022-02-15T09:26:34.000Z</time>
      </trkpt>
      <trkpt lat="43.53082" lon="5.57418">
        <ele>686</ele>
        <time>2022-02-15T09:26:35.000Z</time>
      </trkpt>
      <trkpt lat="43.53082" lon="5.57418">
        <ele>686</ele>
        <time>2022-02-15T09:26:36.000Z</time>
      </trkpt>
      <trkpt lat="43.53082" lon="5.57419">
        <ele>686</ele>
        <time>2022-02-15T09:26:37.000Z</time>
      </trkpt>
      <trkpt lat="43.53082" lon="5.5742">
        <ele>686</ele>
        <time>2022-02-15T09:26:38.000Z</time>
      </trkpt>
      <trkpt lat="43.53082" lon="5.5742">
        <ele>686</ele>
        <time>2022-02-15T09:26:39.000Z</time>
      </trkpt>
      <trkpt lat="43.53082" lon="5.57421">
        <ele>686</ele>
        <time>2022-02-15T09:26:40.000Z</time>
      </trkpt>
      <trkpt lat="43.53082" lon="5.57422">
        <ele>686</ele>
        <time>2022-02-15T09:26:41.000Z</time>
      </trkpt>
      <trkpt lat="43.53082" lon="5.57423">
        <ele>686</ele>
        <time>2022-02-15T09:26:42.000Z</time>
      </trkpt>
      <trkpt lat="43.53082" lon="5.57423">
        <ele>686</ele>
        <time>2022-02-15T09:26:43.000Z</time>
      </trkpt>
      <trkpt lat="43.53082" lon="5.57423">
        <ele>687</ele>
        <time>2022-02-15T09:26:44.000Z</time>
      </trkpt>
      <trkpt lat="43.53082" lon="5.57424">
        <ele>687</ele>
        <time>2022-02-15T09:26:45.000Z</time>
      </trkpt>
      <trkpt lat="43.53082" lon="5.57424">
        <ele>687</ele>
        <time>2022-02-15T09:26:46.000Z</time>
      </trkpt>
      <trkpt lat="43.53082" lon="5.57425">
        <ele>687</ele>
        <time>2022-02-15T09:26:47.000Z</time>
      </trkpt>
      <trkpt lat="43.53081" lon="5.57426">
        <ele>687</ele>
        <time>2022-02-15T09:26:48.000Z</time>
      </trkpt>
      <trkpt lat="43.53081" lon="5.57427">
        <ele>687</ele>
        <time>2022-02-15T09:26:49.000Z</time>
      </trkpt>
      <trkpt lat="43.53081" lon="5.57427">
        <ele>687</ele>
        <time>2022-02-15T09:26:50.000Z</time>
      </trkpt>
      <trkpt lat="43.53081" lon="5.57428">
        <ele>687</ele>
        <time>2022-02-15T09:26:51.000Z</time>
      </trkpt>
      <trkpt lat="43.53081" lon="5.57429">
        <ele>687</ele>
        <time>2022-02-15T09:26:52.000Z</time>
      </trkpt>
      <trkpt lat="43.53081" lon="5.5743">
        <ele>688</ele>
        <time>2022-02-15T09:26:53.000Z</time>
      </trkpt>
      <trkpt lat="43.53081" lon="5.5743">
        <ele>688</ele>
        <time>2022-02-15T09:26:54.000Z</time>
      </trkpt>
      <trkpt lat="43.53081" lon="5.57431">
        <ele>688</ele>
        <time>2022-02-15T09:26:55.000Z</time>
      </trkpt>
      <trkpt lat="43.5308" lon="5.57432">
        <ele>688</ele>
        <time>2022-02-15T09:26:56.000Z</time>
      </trkpt>
      <trkpt lat="43.5308" lon="5.57432">
        <ele>688</ele>
        <time>2022-02-15T09:26:57.000Z</time>
      </trkpt>
      <trkpt lat="43.5308" lon="5.57433">
        <ele>688</ele>
        <time>2022-02-15T09:26:58.000Z</time>
      </trkpt>
      <trkpt lat="43.5308" lon="5.57434">
        <ele>688</ele>
        <time>2022-02-15T09:26:59.000Z</time>
      </trkpt>
      <trkpt lat="43.53079" lon="5.57434">
        <ele>688</ele>
        <time>2022-02-15T09:27:00.000Z</time>
      </trkpt>
      <trkpt lat="43.53079" lon="5.57435">
        <ele>688</ele>
        <time>2022-02-15T09:27:01.000Z</time>
      </trkpt>
      <trkpt lat="43.53079" lon="5.57435">
        <ele>688</ele>
        <time>2022-02-15T09:27:02.000Z</time>
      </trkpt>
      <trkpt lat="43.5308" lon="5.57435">
        <ele>689</ele>
        <time>2022-02-15T09:27:03.000Z</time>
      </trkpt>
      <trkpt lat="43.5308" lon="5.57435">
        <ele>689</ele>
        <time>2022-02-15T09:27:04.000Z</time>
      </trkpt>
      <trkpt lat="43.5308" lon="5.57435">
        <ele>689</ele>
        <time>2022-02-15T09:27:05.000Z</time>
      </trkpt>
      <trkpt lat="43.5308" lon="5.57435">
        <ele>689</ele>
        <time>2022-02-15T09:27:06.000Z</time>
      </trkpt>
      <trkpt lat="43.5308" lon="5.57435">
        <ele>689</ele>
        <time>2022-02-15T09:27:07.000Z</time>
      </trkpt>
      <trkpt lat="43.5308" lon="5.57435">
        <ele>689</ele>
        <time>2022-02-15T09:27:08.000Z</time>
      </trkpt>
      <trkpt lat="43.5308" lon="5.57435">
        <ele>689</ele>
        <time>2022-02-15T09:27:09.000Z</time>
      </trkpt>
      <trkpt lat="43.5308" lon="5.57435">
        <ele>689</ele>
        <time>2022-02-15T09:27:10.000Z</time>
      </trkpt>
      <trkpt lat="43.5308" lon="5.57435">
        <ele>689</ele>
        <time>2022-02-15T09:27:11.000Z</time>
      </trkpt>
      <trkpt lat="43.5308" lon="5.57435">
        <ele>689</ele>
        <time>2022-02-15T09:27:12.000Z</time>
      </trkpt>
      <trkpt lat="43.5308" lon="5.57435">
        <ele>690</ele>
        <time>2022-02-15T09:27:13.000Z</time>
      </trkpt>
      <trkpt lat="43.53079" lon="5.57435">
        <ele>690</ele>
        <time>2022-02-15T09:27:14.000Z</time>
      </trkpt>
      <trkpt lat="43.53079" lon="5.57435">
        <ele>690</ele>
        <time>2022-02-15T09:27:15.000Z</time>
      </trkpt>
      <trkpt lat="43.53079" lon="5.57435">
        <ele>690</ele>
        <time>2022-02-15T09:27:16.000Z</time>
      </trkpt>
      <trkpt lat="43.53079" lon="5.57435">
        <ele>690</ele>
        <time>2022-02-15T09:27:17.000Z</time>
      </trkpt>
      <trkpt lat="43.53079" lon="5.57435">
        <ele>690</ele>
        <time>2022-02-15T09:27:18.000Z</time>
      </trkpt>
      <trkpt lat="43.53079" lon="5.57435">
        <ele>690</ele>
        <time>2022-02-15T09:27:19.000Z</time>
      </trkpt>
      <trkpt lat="43.53079" lon="5.57435">
        <ele>690</ele>
        <time>2022-02-15T09:27:20.000Z</time>
      </trkpt>
      <trkpt lat="43.53079" lon="5.57435">
        <ele>690</ele>
        <time>2022-02-15T09:27:21.000Z</time>
      </trkpt>
      <trkpt lat="43.53079" lon="5.57435">
        <ele>690</ele>
        <time>2022-02-15T09:27:22.000Z</time>
      </trkpt>
      <trkpt lat="43.53079" lon="5.57435">
        <ele>690</ele>
        <time>2022-02-15T09:27:23.000Z</time>
      </trkpt>
      <trkpt lat="43.53079" lon="5.57435">
        <ele>690</ele>
        <time>2022-02-15T09:27:24.000Z</time>
      </trkpt>
      <trkpt lat="43.53079" lon="5.57435">
        <ele>690</ele>
        <time>2022-02-15T09:27:25.000Z</time>
      </trkpt>
      <trkpt lat="43.53079" lon="5.57435">
        <ele>690</ele>
        <time>2022-02-15T09:27:26.000Z</time>
      </trkpt>
      <trkpt lat="43.53079" lon="5.57435">
        <ele>690</ele>
        <time>2022-02-15T09:27:27.000Z</time>
      </trkpt>
      <trkpt lat="43.53079" lon="5.57435">
        <ele>690</ele>
        <time>2022-02-15T09:27:28.000Z</time>
      </trkpt>
      <trkpt lat="43.53079" lon="5.57435">
        <ele>690</ele>
        <time>2022-02-15T09:27:29.000Z</time>
      </trkpt>
      <trkpt lat="43.53079" lon="5.57435">
        <ele>690</ele>
        <time>2022-02-15T09:27:30.000Z</time>
      </trkpt>
      <trkpt lat="43.53079" lon="5.57436">
        <ele>690</ele>
        <time>2022-02-15T09:27:31.000Z</time>
      </trkpt>
      <trkpt lat="43.53079" lon="5.57436">
        <ele>690</ele>
        <time>2022-02-15T09:27:32.000Z</time>
      </trkpt>
      <trkpt lat="43.5308" lon="5.57437">
        <ele>691</ele>
        <time>2022-02-15T09:27:33.000Z</time>
      </trkpt>
      <trkpt lat="43.5308" lon="5.57438">
        <ele>691</ele>
        <time>2022-02-15T09:27:34.000Z</time>
      </trkpt>
      <trkpt lat="43.5308" lon="5.57439">
        <ele>691</ele>
        <time>2022-02-15T09:27:35.000Z</time>
      </trkpt>
      <trkpt lat="43.5308" lon="5.5744">
        <ele>691</ele>
        <time>2022-02-15T09:27:36.000Z</time>
      </trkpt>
      <trkpt lat="43.5308" lon="5.57441">
        <ele>691</ele>
        <time>2022-02-15T09:27:37.000Z</time>
      </trkpt>
      <trkpt lat="43.5308" lon="5.57442">
        <ele>691</ele>
        <time>2022-02-15T09:27:38.000Z</time>
      </trkpt>
      <trkpt lat="43.5308" lon="5.57442">
        <ele>691</ele>
        <time>2022-02-15T09:27:39.000Z</time>
      </trkpt>
      <trkpt lat="43.5308" lon="5.57443">
        <ele>691</ele>
        <time>2022-02-15T09:27:40.000Z</time>
      </trkpt>
      <trkpt lat="43.5308" lon="5.57444">
        <ele>691</ele>
        <time>2022-02-15T09:27:41.000Z</time>
      </trkpt>
      <trkpt lat="43.53079" lon="5.57444">
        <ele>691</ele>
        <time>2022-02-15T09:27:42.000Z</time>
      </trkpt>
      <trkpt lat="43.53079" lon="5.57445">
        <ele>691</ele>
        <time>2022-02-15T09:27:43.000Z</time>
      </trkpt>
      <trkpt lat="43.53079" lon="5.57446">
        <ele>691</ele>
        <time>2022-02-15T09:27:44.000Z</time>
      </trkpt>
      <trkpt lat="43.53079" lon="5.57446">
        <ele>692</ele>
        <time>2022-02-15T09:27:45.000Z</time>
      </trkpt>
      <trkpt lat="43.53079" lon="5.57447">
        <ele>692</ele>
        <time>2022-02-15T09:27:46.000Z</time>
      </trkpt>
      <trkpt lat="43.53079" lon="5.57448">
        <ele>692</ele>
        <time>2022-02-15T09:27:47.000Z</time>
      </trkpt>
      <trkpt lat="43.53079" lon="5.57449">
        <ele>692</ele>
        <time>2022-02-15T09:27:48.000Z</time>
      </trkpt>
      <trkpt lat="43.53078" lon="5.57449">
        <ele>692</ele>
        <time>2022-02-15T09:27:49.000Z</time>
      </trkpt>
      <trkpt lat="43.53078" lon="5.5745">
        <ele>692</ele>
        <time>2022-02-15T09:27:50.000Z</time>
      </trkpt>
      <trkpt lat="43.53079" lon="5.5745">
        <ele>692</ele>
        <time>2022-02-15T09:27:51.000Z</time>
      </trkpt>
      <trkpt lat="43.53079" lon="5.57449">
        <ele>692</ele>
        <time>2022-02-15T09:27:52.000Z</time>
      </trkpt>
      <trkpt lat="43.53079" lon="5.57449">
        <ele>692</ele>
        <time>2022-02-15T09:27:53.000Z</time>
      </trkpt>
      <trkpt lat="43.53079" lon="5.5745">
        <ele>693</ele>
        <time>2022-02-15T09:27:54.000Z</time>
      </trkpt>
      <trkpt lat="43.5308" lon="5.57451">
        <ele>693</ele>
        <time>2022-02-15T09:27:55.000Z</time>
      </trkpt>
      <trkpt lat="43.5308" lon="5.57451">
        <ele>693</ele>
        <time>2022-02-15T09:27:56.000Z</time>
      </trkpt>
      <trkpt lat="43.53079" lon="5.57452">
        <ele>693</ele>
        <time>2022-02-15T09:27:57.000Z</time>
      </trkpt>
      <trkpt lat="43.53079" lon="5.57453">
        <ele>693</ele>
        <time>2022-02-15T09:27:58.000Z</time>
      </trkpt>
      <trkpt lat="43.53079" lon="5.57453">
        <ele>693</ele>
        <time>2022-02-15T09:27:59.000Z</time>
      </trkpt>
      <trkpt lat="43.53079" lon="5.57454">
        <ele>694</ele>
        <time>2022-02-15T09:28:00.000Z</time>
      </trkpt>
      <trkpt lat="43.53079" lon="5.57454">
        <ele>694</ele>
        <time>2022-02-15T09:28:01.000Z</time>
      </trkpt>
      <trkpt lat="43.53078" lon="5.57455">
        <ele>694</ele>
        <time>2022-02-15T09:28:02.000Z</time>
      </trkpt>
      <trkpt lat="43.53078" lon="5.57456">
        <ele>694</ele>
        <time>2022-02-15T09:28:03.000Z</time>
      </trkpt>
      <trkpt lat="43.53078" lon="5.57457">
        <ele>694</ele>
        <time>2022-02-15T09:28:04.000Z</time>
      </trkpt>
      <trkpt lat="43.53078" lon="5.57457">
        <ele>694</ele>
        <time>2022-02-15T09:28:05.000Z</time>
      </trkpt>
      <trkpt lat="43.53078" lon="5.57458">
        <ele>694</ele>
        <time>2022-02-15T09:28:06.000Z</time>
      </trkpt>
      <trkpt lat="43.53078" lon="5.57458">
        <ele>694</ele>
        <time>2022-02-15T09:28:07.000Z</time>
      </trkpt>
      <trkpt lat="43.53078" lon="5.57459">
        <ele>694</ele>
        <time>2022-02-15T09:28:08.000Z</time>
      </trkpt>
      <trkpt lat="43.53078" lon="5.57459">
        <ele>694</ele>
        <time>2022-02-15T09:28:09.000Z</time>
      </trkpt>
      <trkpt lat="43.53078" lon="5.5746">
        <ele>694</ele>
        <time>2022-02-15T09:28:10.000Z</time>
      </trkpt>
      <trkpt lat="43.53078" lon="5.5746">
        <ele>695</ele>
        <time>2022-02-15T09:28:11.000Z</time>
      </trkpt>
      <trkpt lat="43.53078" lon="5.57461">
        <ele>695</ele>
        <time>2022-02-15T09:28:12.000Z</time>
      </trkpt>
      <trkpt lat="43.53078" lon="5.57462">
        <ele>695</ele>
        <time>2022-02-15T09:28:13.000Z</time>
      </trkpt>
      <trkpt lat="43.53078" lon="5.57462">
        <ele>695</ele>
        <time>2022-02-15T09:28:14.000Z</time>
      </trkpt>
      <trkpt lat="43.53078" lon="5.57463">
        <ele>695</ele>
        <time>2022-02-15T09:28:15.000Z</time>
      </trkpt>
      <trkpt lat="43.53077" lon="5.57464">
        <ele>695</ele>
        <time>2022-02-15T09:28:16.000Z</time>
      </trkpt>
      <trkpt lat="43.53077" lon="5.57464">
        <ele>695</ele>
        <time>2022-02-15T09:28:17.000Z</time>
      </trkpt>
      <trkpt lat="43.53077" lon="5.57465">
        <ele>695</ele>
        <time>2022-02-15T09:28:18.000Z</time>
      </trkpt>
      <trkpt lat="43.53077" lon="5.57465">
        <ele>695</ele>
        <time>2022-02-15T09:28:19.000Z</time>
      </trkpt>
      <trkpt lat="43.53077" lon="5.57465">
        <ele>695</ele>
        <time>2022-02-15T09:28:20.000Z</time>
      </trkpt>
      <trkpt lat="43.53078" lon="5.57465">
        <ele>695</ele>
        <time>2022-02-15T09:28:21.000Z</time>
      </trkpt>
      <trkpt lat="43.53078" lon="5.57465">
        <ele>695</ele>
        <time>2022-02-15T09:28:22.000Z</time>
      </trkpt>
      <trkpt lat="43.53078" lon="5.57464">
        <ele>695</ele>
        <time>2022-02-15T09:28:23.000Z</time>
      </trkpt>
      <trkpt lat="43.53078" lon="5.57465">
        <ele>695</ele>
        <time>2022-02-15T09:28:24.000Z</time>
      </trkpt>
      <trkpt lat="43.53078" lon="5.57465">
        <ele>695</ele>
        <time>2022-02-15T09:28:25.000Z</time>
      </trkpt>
      <trkpt lat="43.53078" lon="5.57465">
        <ele>695</ele>
        <time>2022-02-15T09:28:26.000Z</time>
      </trkpt>
      <trkpt lat="43.53078" lon="5.57465">
        <ele>695</ele>
        <time>2022-02-15T09:28:27.000Z</time>
      </trkpt>
      <trkpt lat="43.53078" lon="5.57465">
        <ele>695</ele>
        <time>2022-02-15T09:28:28.000Z</time>
      </trkpt>
      <trkpt lat="43.53078" lon="5.57465">
        <ele>695</ele>
        <time>2022-02-15T09:28:29.000Z</time>
      </trkpt>
      <trkpt lat="43.53078" lon="5.57464">
        <ele>695</ele>
        <time>2022-02-15T09:28:30.000Z</time>
      </trkpt>
      <trkpt lat="43.53078" lon="5.57464">
        <ele>695</ele>
        <time>2022-02-15T09:28:31.000Z</time>
      </trkpt>
      <trkpt lat="43.53078" lon="5.57464">
        <ele>695</ele>
        <time>2022-02-15T09:28:32.000Z</time>
      </trkpt>
      <trkpt lat="43.53078" lon="5.57465">
        <ele>695</ele>
        <time>2022-02-15T09:28:33.000Z</time>
      </trkpt>
      <trkpt lat="43.53078" lon="5.57465">
        <ele>695</ele>
        <time>2022-02-15T09:28:34.000Z</time>
      </trkpt>
      <trkpt lat="43.53078" lon="5.57465">
        <ele>695</ele>
        <time>2022-02-15T09:28:35.000Z</time>
      </trkpt>
      <trkpt lat="43.53077" lon="5.57466">
        <ele>696</ele>
        <time>2022-02-15T09:28:36.000Z</time>
      </trkpt>
      <trkpt lat="43.53077" lon="5.57467">
        <ele>696</ele>
        <time>2022-02-15T09:28:37.000Z</time>
      </trkpt>
      <trkpt lat="43.53077" lon="5.57468">
        <ele>696</ele>
        <time>2022-02-15T09:28:38.000Z</time>
      </trkpt>
      <trkpt lat="43.53077" lon="5.57468">
        <ele>696</ele>
        <time>2022-02-15T09:28:39.000Z</time>
      </trkpt>
      <trkpt lat="43.53077" lon="5.57469">
        <ele>696</ele>
        <time>2022-02-15T09:28:40.000Z</time>
      </trkpt>
      <trkpt lat="43.53077" lon="5.5747">
        <ele>696</ele>
        <time>2022-02-15T09:28:41.000Z</time>
      </trkpt>
      <trkpt lat="43.53077" lon="5.5747">
        <ele>696</ele>
        <time>2022-02-15T09:28:42.000Z</time>
      </trkpt>
      <trkpt lat="43.53077" lon="5.57471">
        <ele>696</ele>
        <time>2022-02-15T09:28:43.000Z</time>
      </trkpt>
      <trkpt lat="43.53078" lon="5.57472">
        <ele>696</ele>
        <time>2022-02-15T09:28:44.000Z</time>
      </trkpt>
      <trkpt lat="43.53078" lon="5.57473">
        <ele>696</ele>
        <time>2022-02-15T09:28:45.000Z</time>
      </trkpt>
      <trkpt lat="43.53077" lon="5.57473">
        <ele>697</ele>
        <time>2022-02-15T09:28:46.000Z</time>
      </trkpt>
      <trkpt lat="43.53077" lon="5.57473">
        <ele>697</ele>
        <time>2022-02-15T09:28:47.000Z</time>
      </trkpt>
      <trkpt lat="43.53078" lon="5.57474">
        <ele>697</ele>
        <time>2022-02-15T09:28:48.000Z</time>
      </trkpt>
      <trkpt lat="43.53077" lon="5.57474">
        <ele>697</ele>
        <time>2022-02-15T09:28:49.000Z</time>
      </trkpt>
      <trkpt lat="43.53077" lon="5.57475">
        <ele>697</ele>
        <time>2022-02-15T09:28:50.000Z</time>
      </trkpt>
      <trkpt lat="43.53077" lon="5.57476">
        <ele>697</ele>
        <time>2022-02-15T09:28:51.000Z</time>
      </trkpt>
      <trkpt lat="43.53077" lon="5.57476">
        <ele>697</ele>
        <time>2022-02-15T09:28:52.000Z</time>
      </trkpt>
      <trkpt lat="43.53077" lon="5.57477">
        <ele>697</ele>
        <time>2022-02-15T09:28:53.000Z</time>
      </trkpt>
      <trkpt lat="43.53076" lon="5.57477">
        <ele>697</ele>
        <time>2022-02-15T09:28:54.000Z</time>
      </trkpt>
      <trkpt lat="43.53076" lon="5.57477">
        <ele>697</ele>
        <time>2022-02-15T09:28:55.000Z</time>
      </trkpt>
      <trkpt lat="43.53076" lon="5.57477">
        <ele>697</ele>
        <time>2022-02-15T09:28:56.000Z</time>
      </trkpt>
      <trkpt lat="43.53076" lon="5.57478">
        <ele>698</ele>
        <time>2022-02-15T09:28:57.000Z</time>
      </trkpt>
      <trkpt lat="43.53077" lon="5.57479">
        <ele>698</ele>
        <time>2022-02-15T09:28:58.000Z</time>
      </trkpt>
      <trkpt lat="43.53077" lon="5.5748">
        <ele>698</ele>
        <time>2022-02-15T09:28:59.000Z</time>
      </trkpt>
      <trkpt lat="43.53077" lon="5.57481">
        <ele>698</ele>
        <time>2022-02-15T09:29:00.000Z</time>
      </trkpt>
      <trkpt lat="43.53077" lon="5.57481">
        <ele>698</ele>
        <time>2022-02-15T09:29:01.000Z</time>
      </trkpt>
      <trkpt lat="43.53076" lon="5.57482">
        <ele>698</ele>
        <time>2022-02-15T09:29:02.000Z</time>
      </trkpt>
      <trkpt lat="43.53076" lon="5.57483">
        <ele>698</ele>
        <time>2022-02-15T09:29:03.000Z</time>
      </trkpt>
      <trkpt lat="43.53076" lon="5.57483">
        <ele>698</ele>
        <time>2022-02-15T09:29:04.000Z</time>
      </trkpt>
      <trkpt lat="43.53076" lon="5.57484">
        <ele>698</ele>
        <time>2022-02-15T09:29:05.000Z</time>
      </trkpt>
      <trkpt lat="43.53076" lon="5.57484">
        <ele>698</ele>
        <time>2022-02-15T09:29:06.000Z</time>
      </trkpt>
      <trkpt lat="43.53076" lon="5.57484">
        <ele>698</ele>
        <time>2022-02-15T09:29:07.000Z</time>
      </trkpt>
      <trkpt lat="43.53076" lon="5.57484">
        <ele>699</ele>
        <time>2022-02-15T09:29:08.000Z</time>
      </trkpt>
      <trkpt lat="43.53075" lon="5.57484">
        <ele>699</ele>
        <time>2022-02-15T09:29:09.000Z</time>
      </trkpt>
      <trkpt lat="43.53075" lon="5.57485">
        <ele>699</ele>
        <time>2022-02-15T09:29:10.000Z</time>
      </trkpt>
      <trkpt lat="43.53074" lon="5.57485">
        <ele>699</ele>
        <time>2022-02-15T09:29:11.000Z</time>
      </trkpt>
      <trkpt lat="43.53074" lon="5.57485">
        <ele>699</ele>
        <time>2022-02-15T09:29:12.000Z</time>
      </trkpt>
      <trkpt lat="43.53073" lon="5.57486">
        <ele>699</ele>
        <time>2022-02-15T09:29:13.000Z</time>
      </trkpt>
      <trkpt lat="43.53073" lon="5.57486">
        <ele>700</ele>
        <time>2022-02-15T09:29:14.000Z</time>
      </trkpt>
      <trkpt lat="43.53072" lon="5.57486">
        <ele>700</ele>
        <time>2022-02-15T09:29:15.000Z</time>
      </trkpt>
      <trkpt lat="43.53072" lon="5.57486">
        <ele>700</ele>
        <time>2022-02-15T09:29:16.000Z</time>
      </trkpt>
      <trkpt lat="43.53071" lon="5.57486">
        <ele>700</ele>
        <time>2022-02-15T09:29:17.000Z</time>
      </trkpt>
      <trkpt lat="43.53071" lon="5.57486">
        <ele>700</ele>
        <time>2022-02-15T09:29:18.000Z</time>
      </trkpt>
      <trkpt lat="43.53071" lon="5.57486">
        <ele>701</ele>
        <time>2022-02-15T09:29:19.000Z</time>
      </trkpt>
      <trkpt lat="43.53071" lon="5.57486">
        <ele>701</ele>
        <time>2022-02-15T09:29:20.000Z</time>
      </trkpt>
      <trkpt lat="43.53071" lon="5.57486">
        <ele>701</ele>
        <time>2022-02-15T09:29:21.000Z</time>
      </trkpt>
      <trkpt lat="43.53071" lon="5.57486">
        <ele>701</ele>
        <time>2022-02-15T09:29:22.000Z</time>
      </trkpt>
      <trkpt lat="43.53071" lon="5.57486">
        <ele>701</ele>
        <time>2022-02-15T09:29:23.000Z</time>
      </trkpt>
      <trkpt lat="43.5307" lon="5.57486">
        <ele>701</ele>
        <time>2022-02-15T09:29:24.000Z</time>
      </trkpt>
      <trkpt lat="43.5307" lon="5.57486">
        <ele>701</ele>
        <time>2022-02-15T09:29:25.000Z</time>
      </trkpt>
      <trkpt lat="43.5307" lon="5.57486">
        <ele>702</ele>
        <time>2022-02-15T09:29:26.000Z</time>
      </trkpt>
      <trkpt lat="43.5307" lon="5.57485">
        <ele>702</ele>
        <time>2022-02-15T09:29:27.000Z</time>
      </trkpt>
      <trkpt lat="43.5307" lon="5.57485">
        <ele>702</ele>
        <time>2022-02-15T09:29:28.000Z</time>
      </trkpt>
      <trkpt lat="43.5307" lon="5.57485">
        <ele>702</ele>
        <time>2022-02-15T09:29:29.000Z</time>
      </trkpt>
      <trkpt lat="43.5307" lon="5.57485">
        <ele>702</ele>
        <time>2022-02-15T09:29:30.000Z</time>
      </trkpt>
      <trkpt lat="43.5307" lon="5.57485">
        <ele>702</ele>
        <time>2022-02-15T09:29:31.000Z</time>
      </trkpt>
      <trkpt lat="43.53069" lon="5.57485">
        <ele>702</ele>
        <time>2022-02-15T09:29:32.000Z</time>
      </trkpt>
      <trkpt lat="43.53069" lon="5.57485">
        <ele>702</ele>
        <time>2022-02-15T09:29:33.000Z</time>
      </trkpt>
      <trkpt lat="43.53069" lon="5.57485">
        <ele>702</ele>
        <time>2022-02-15T09:29:34.000Z</time>
      </trkpt>
      <trkpt lat="43.53069" lon="5.57485">
        <ele>702</ele>
        <time>2022-02-15T09:29:35.000Z</time>
      </trkpt>
      <trkpt lat="43.53069" lon="5.57485">
        <ele>702</ele>
        <time>2022-02-15T09:29:36.000Z</time>
      </trkpt>
      <trkpt lat="43.53069" lon="5.57485">
        <ele>702</ele>
        <time>2022-02-15T09:29:37.000Z</time>
      </trkpt>
      <trkpt lat="43.53069" lon="5.57485">
        <ele>702</ele>
        <time>2022-02-15T09:29:38.000Z</time>
      </trkpt>
      <trkpt lat="43.53069" lon="5.57485">
        <ele>702</ele>
        <time>2022-02-15T09:29:39.000Z</time>
      </trkpt>
      <trkpt lat="43.53069" lon="5.57485">
        <ele>702</ele>
        <time>2022-02-15T09:29:40.000Z</time>
      </trkpt>
      <trkpt lat="43.53069" lon="5.57485">
        <ele>703</ele>
        <time>2022-02-15T09:29:41.000Z</time>
      </trkpt>
      <trkpt lat="43.53069" lon="5.57485">
        <ele>703</ele>
        <time>2022-02-15T09:29:42.000Z</time>
      </trkpt>
      <trkpt lat="43.53069" lon="5.57485">
        <ele>703</ele>
        <time>2022-02-15T09:29:43.000Z</time>
      </trkpt>
      <trkpt lat="43.53069" lon="5.57485">
        <ele>703</ele>
        <time>2022-02-15T09:29:44.000Z</time>
      </trkpt>
      <trkpt lat="43.53069" lon="5.57485">
        <ele>703</ele>
        <time>2022-02-15T09:29:45.000Z</time>
      </trkpt>
      <trkpt lat="43.53068" lon="5.57485">
        <ele>703</ele>
        <time>2022-02-15T09:29:46.000Z</time>
      </trkpt>
      <trkpt lat="43.53068" lon="5.57485">
        <ele>703</ele>
        <time>2022-02-15T09:29:47.000Z</time>
      </trkpt>
      <trkpt lat="43.53068" lon="5.57485">
        <ele>703</ele>
        <time>2022-02-15T09:29:48.000Z</time>
      </trkpt>
      <trkpt lat="43.53068" lon="5.57485">
        <ele>703</ele>
        <time>2022-02-15T09:29:49.000Z</time>
      </trkpt>
      <trkpt lat="43.53068" lon="5.57485">
        <ele>703</ele>
        <time>2022-02-15T09:29:50.000Z</time>
      </trkpt>
      <trkpt lat="43.53068" lon="5.57485">
        <ele>703</ele>
        <time>2022-02-15T09:29:51.000Z</time>
      </trkpt>
      <trkpt lat="43.53068" lon="5.57484">
        <ele>703</ele>
        <time>2022-02-15T09:29:52.000Z</time>
      </trkpt>
      <trkpt lat="43.53068" lon="5.57484">
        <ele>703</ele>
        <time>2022-02-15T09:29:53.000Z</time>
      </trkpt>
      <trkpt lat="43.53068" lon="5.57484">
        <ele>703</ele>
        <time>2022-02-15T09:29:54.000Z</time>
      </trkpt>
      <trkpt lat="43.53068" lon="5.57484">
        <ele>703</ele>
        <time>2022-02-15T09:29:55.000Z</time>
      </trkpt>
      <trkpt lat="43.53068" lon="5.57484">
        <ele>703</ele>
        <time>2022-02-15T09:29:56.000Z</time>
      </trkpt>
      <trkpt lat="43.53067" lon="5.57485">
        <ele>704</ele>
        <time>2022-02-15T09:29:57.000Z</time>
      </trkpt>
      <trkpt lat="43.53067" lon="5.57485">
        <ele>704</ele>
        <time>2022-02-15T09:29:58.000Z</time>
      </trkpt>
      <trkpt lat="43.53067" lon="5.57485">
        <ele>704</ele>
        <time>2022-02-15T09:29:59.000Z</time>
      </trkpt>
      <trkpt lat="43.53066" lon="5.57486">
        <ele>704</ele>
        <time>2022-02-15T09:30:00.000Z</time>
      </trkpt>
      <trkpt lat="43.53066" lon="5.57486">
        <ele>704</ele>
        <time>2022-02-15T09:30:01.000Z</time>
      </trkpt>
      <trkpt lat="43.53065" lon="5.57487">
        <ele>705</ele>
        <time>2022-02-15T09:30:02.000Z</time>
      </trkpt>
      <trkpt lat="43.53065" lon="5.57487">
        <ele>705</ele>
        <time>2022-02-15T09:30:03.000Z</time>
      </trkpt>
      <trkpt lat="43.53064" lon="5.57488">
        <ele>705</ele>
        <time>2022-02-15T09:30:04.000Z</time>
      </trkpt>
      <trkpt lat="43.53064" lon="5.57488">
        <ele>705</ele>
        <time>2022-02-15T09:30:05.000Z</time>
      </trkpt>
      <trkpt lat="43.53064" lon="5.57489">
        <ele>705</ele>
        <time>2022-02-15T09:30:06.000Z</time>
      </trkpt>
      <trkpt lat="43.53064" lon="5.57489">
        <ele>705</ele>
        <time>2022-02-15T09:30:07.000Z</time>
      </trkpt>
      <trkpt lat="43.53063" lon="5.57489">
        <ele>706</ele>
        <time>2022-02-15T09:30:08.000Z</time>
      </trkpt>
      <trkpt lat="43.53063" lon="5.5749">
        <ele>706</ele>
        <time>2022-02-15T09:30:09.000Z</time>
      </trkpt>
      <trkpt lat="43.53063" lon="5.5749">
        <ele>706</ele>
        <time>2022-02-15T09:30:10.000Z</time>
      </trkpt>
      <trkpt lat="43.53062" lon="5.5749">
        <ele>706</ele>
        <time>2022-02-15T09:30:11.000Z</time>
      </trkpt>
      <trkpt lat="43.53062" lon="5.57491">
        <ele>706</ele>
        <time>2022-02-15T09:30:12.000Z</time>
      </trkpt>
      <trkpt lat="43.53062" lon="5.57491">
        <ele>706</ele>
        <time>2022-02-15T09:30:13.000Z</time>
      </trkpt>
      <trkpt lat="43.53062" lon="5.57491">
        <ele>706</ele>
        <time>2022-02-15T09:30:14.000Z</time>
      </trkpt>
      <trkpt lat="43.53061" lon="5.57492">
        <ele>706</ele>
        <time>2022-02-15T09:30:15.000Z</time>
      </trkpt>
      <trkpt lat="43.53061" lon="5.57493">
        <ele>707</ele>
        <time>2022-02-15T09:30:16.000Z</time>
      </trkpt>
      <trkpt lat="43.5306" lon="5.57493">
        <ele>707</ele>
        <time>2022-02-15T09:30:17.000Z</time>
      </trkpt>
      <trkpt lat="43.5306" lon="5.57493">
        <ele>707</ele>
        <time>2022-02-15T09:30:18.000Z</time>
      </trkpt>
      <trkpt lat="43.5306" lon="5.57494">
        <ele>707</ele>
        <time>2022-02-15T09:30:19.000Z</time>
      </trkpt>
      <trkpt lat="43.5306" lon="5.57494">
        <ele>707</ele>
        <time>2022-02-15T09:30:20.000Z</time>
      </trkpt>
      <trkpt lat="43.5306" lon="5.57495">
        <ele>707</ele>
        <time>2022-02-15T09:30:21.000Z</time>
      </trkpt>
      <trkpt lat="43.5306" lon="5.57495">
        <ele>708</ele>
        <time>2022-02-15T09:30:22.000Z</time>
      </trkpt>
      <trkpt lat="43.5306" lon="5.57495">
        <ele>708</ele>
        <time>2022-02-15T09:30:23.000Z</time>
      </trkpt>
      <trkpt lat="43.53059" lon="5.57495">
        <ele>708</ele>
        <time>2022-02-15T09:30:24.000Z</time>
      </trkpt>
      <trkpt lat="43.53059" lon="5.57496">
        <ele>708</ele>
        <time>2022-02-15T09:30:25.000Z</time>
      </trkpt>
      <trkpt lat="43.53059" lon="5.57495">
        <ele>708</ele>
        <time>2022-02-15T09:30:26.000Z</time>
      </trkpt>
      <trkpt lat="43.53059" lon="5.57495">
        <ele>708</ele>
        <time>2022-02-15T09:30:27.000Z</time>
      </trkpt>
      <trkpt lat="43.53059" lon="5.57495">
        <ele>708</ele>
        <time>2022-02-15T09:30:28.000Z</time>
      </trkpt>
      <trkpt lat="43.53059" lon="5.57495">
        <ele>709</ele>
        <time>2022-02-15T09:30:29.000Z</time>
      </trkpt>
      <trkpt lat="43.53059" lon="5.57495">
        <ele>709</ele>
        <time>2022-02-15T09:30:30.000Z</time>
      </trkpt>
      <trkpt lat="43.53059" lon="5.57494">
        <ele>709</ele>
        <time>2022-02-15T09:30:31.000Z</time>
      </trkpt>
      <trkpt lat="43.53059" lon="5.57494">
        <ele>709</ele>
        <time>2022-02-15T09:30:32.000Z</time>
      </trkpt>
      <trkpt lat="43.53059" lon="5.57494">
        <ele>709</ele>
        <time>2022-02-15T09:30:33.000Z</time>
      </trkpt>
      <trkpt lat="43.53059" lon="5.57494">
        <ele>709</ele>
        <time>2022-02-15T09:30:34.000Z</time>
      </trkpt>
      <trkpt lat="43.53059" lon="5.57494">
        <ele>709</ele>
        <time>2022-02-15T09:30:35.000Z</time>
      </trkpt>
      <trkpt lat="43.53059" lon="5.57494">
        <ele>709</ele>
        <time>2022-02-15T09:30:36.000Z</time>
      </trkpt>
      <trkpt lat="43.53059" lon="5.57494">
        <ele>709</ele>
        <time>2022-02-15T09:30:37.000Z</time>
      </trkpt>
      <trkpt lat="43.53059" lon="5.57494">
        <ele>710</ele>
        <time>2022-02-15T09:30:38.000Z</time>
      </trkpt>
      <trkpt lat="43.53059" lon="5.57493">
        <ele>710</ele>
        <time>2022-02-15T09:30:39.000Z</time>
      </trkpt>
      <trkpt lat="43.53059" lon="5.57493">
        <ele>710</ele>
        <time>2022-02-15T09:30:40.000Z</time>
      </trkpt>
      <trkpt lat="43.53059" lon="5.57493">
        <ele>710</ele>
        <time>2022-02-15T09:30:41.000Z</time>
      </trkpt>
      <trkpt lat="43.53059" lon="5.57493">
        <ele>710</ele>
        <time>2022-02-15T09:30:42.000Z</time>
      </trkpt>
      <trkpt lat="43.53059" lon="5.57493">
        <ele>710</ele>
        <time>2022-02-15T09:30:43.000Z</time>
      </trkpt>
      <trkpt lat="43.5306" lon="5.57493">
        <ele>710</ele>
        <time>2022-02-15T09:30:44.000Z</time>
      </trkpt>
      <trkpt lat="43.5306" lon="5.57493">
        <ele>710</ele>
        <time>2022-02-15T09:30:45.000Z</time>
      </trkpt>
      <trkpt lat="43.5306" lon="5.57493">
        <ele>710</ele>
        <time>2022-02-15T09:30:46.000Z</time>
      </trkpt>
      <trkpt lat="43.5306" lon="5.57493">
        <ele>710</ele>
        <time>2022-02-15T09:30:47.000Z</time>
      </trkpt>
      <trkpt lat="43.5306" lon="5.57493">
        <ele>710</ele>
        <time>2022-02-15T09:30:48.000Z</time>
      </trkpt>
      <trkpt lat="43.5306" lon="5.57493">
        <ele>711</ele>
        <time>2022-02-15T09:30:49.000Z</time>
      </trkpt>
      <trkpt lat="43.5306" lon="5.57492">
        <ele>711</ele>
        <time>2022-02-15T09:30:50.000Z</time>
      </trkpt>
      <trkpt lat="43.5306" lon="5.57492">
        <ele>711</ele>
        <time>2022-02-15T09:30:51.000Z</time>
      </trkpt>
      <trkpt lat="43.5306" lon="5.57492">
        <ele>711</ele>
        <time>2022-02-15T09:30:52.000Z</time>
      </trkpt>
      <trkpt lat="43.5306" lon="5.57492">
        <ele>711</ele>
        <time>2022-02-15T09:30:53.000Z</time>
      </trkpt>
      <trkpt lat="43.5306" lon="5.57492">
        <ele>711</ele>
        <time>2022-02-15T09:30:54.000Z</time>
      </trkpt>
      <trkpt lat="43.5306" lon="5.57492">
        <ele>711</ele>
        <time>2022-02-15T09:30:55.000Z</time>
      </trkpt>
      <trkpt lat="43.5306" lon="5.57491">
        <ele>711</ele>
        <time>2022-02-15T09:30:56.000Z</time>
      </trkpt>
      <trkpt lat="43.53059" lon="5.57491">
        <ele>711</ele>
        <time>2022-02-15T09:30:57.000Z</time>
      </trkpt>
      <trkpt lat="43.53059" lon="5.57491">
        <ele>711</ele>
        <time>2022-02-15T09:30:58.000Z</time>
      </trkpt>
      <trkpt lat="43.53059" lon="5.57491">
        <ele>711</ele>
        <time>2022-02-15T09:30:59.000Z</time>
      </trkpt>
      <trkpt lat="43.53059" lon="5.57491">
        <ele>711</ele>
        <time>2022-02-15T09:31:00.000Z</time>
      </trkpt>
      <trkpt lat="43.53059" lon="5.57491">
        <ele>711</ele>
        <time>2022-02-15T09:31:01.000Z</time>
      </trkpt>
      <trkpt lat="43.53059" lon="5.57491">
        <ele>711</ele>
        <time>2022-02-15T09:31:02.000Z</time>
      </trkpt>
      <trkpt lat="43.53059" lon="5.57491">
        <ele>711</ele>
        <time>2022-02-15T09:31:03.000Z</time>
      </trkpt>
      <trkpt lat="43.53059" lon="5.57491">
        <ele>711</ele>
        <time>2022-02-15T09:31:04.000Z</time>
      </trkpt>
      <trkpt lat="43.53059" lon="5.57491">
        <ele>711</ele>
        <time>2022-02-15T09:31:05.000Z</time>
      </trkpt>
      <trkpt lat="43.53059" lon="5.57491">
        <ele>711</ele>
        <time>2022-02-15T09:31:06.000Z</time>
      </trkpt>
      <trkpt lat="43.53059" lon="5.57491">
        <ele>711</ele>
        <time>2022-02-15T09:31:07.000Z</time>
      </trkpt>
      <trkpt lat="43.53059" lon="5.57491">
        <ele>711</ele>
        <time>2022-02-15T09:31:08.000Z</time>
      </trkpt>
      <trkpt lat="43.53058" lon="5.57491">
        <ele>711</ele>
        <time>2022-02-15T09:31:09.000Z</time>
      </trkpt>
      <trkpt lat="43.53058" lon="5.57491">
        <ele>711</ele>
        <time>2022-02-15T09:31:10.000Z</time>
      </trkpt>
      <trkpt lat="43.53059" lon="5.57491">
        <ele>711</ele>
        <time>2022-02-15T09:31:11.000Z</time>
      </trkpt>
      <trkpt lat="43.53059" lon="5.57492">
        <ele>711</ele>
        <time>2022-02-15T09:31:12.000Z</time>
      </trkpt>
      <trkpt lat="43.53058" lon="5.57492">
        <ele>711</ele>
        <time>2022-02-15T09:31:13.000Z</time>
      </trkpt>
      <trkpt lat="43.53058" lon="5.57492">
        <ele>711</ele>
        <time>2022-02-15T09:31:14.000Z</time>
      </trkpt>
      <trkpt lat="43.53058" lon="5.57492">
        <ele>711</ele>
        <time>2022-02-15T09:31:15.000Z</time>
      </trkpt>
      <trkpt lat="43.53058" lon="5.57492">
        <ele>711</ele>
        <time>2022-02-15T09:31:16.000Z</time>
      </trkpt>
      <trkpt lat="43.53058" lon="5.57492">
        <ele>711</ele>
        <time>2022-02-15T09:31:17.000Z</time>
      </trkpt>
      <trkpt lat="43.53058" lon="5.57491">
        <ele>711</ele>
        <time>2022-02-15T09:31:18.000Z</time>
      </trkpt>
      <trkpt lat="43.53058" lon="5.57491">
        <ele>711</ele>
        <time>2022-02-15T09:31:19.000Z</time>
      </trkpt>
      <trkpt lat="43.53058" lon="5.57491">
        <ele>712</ele>
        <time>2022-02-15T09:31:20.000Z</time>
      </trkpt>
      <trkpt lat="43.53058" lon="5.57491">
        <ele>712</ele>
        <time>2022-02-15T09:31:21.000Z</time>
      </trkpt>
      <trkpt lat="43.53058" lon="5.57492">
        <ele>712</ele>
        <time>2022-02-15T09:31:22.000Z</time>
      </trkpt>
      <trkpt lat="43.53058" lon="5.57492">
        <ele>712</ele>
        <time>2022-02-15T09:31:23.000Z</time>
      </trkpt>
      <trkpt lat="43.53058" lon="5.57492">
        <ele>712</ele>
        <time>2022-02-15T09:31:24.000Z</time>
      </trkpt>
      <trkpt lat="43.53058" lon="5.57492">
        <ele>712</ele>
        <time>2022-02-15T09:31:25.000Z</time>
      </trkpt>
      <trkpt lat="43.53058" lon="5.57492">
        <ele>712</ele>
        <time>2022-02-15T09:31:26.000Z</time>
      </trkpt>
      <trkpt lat="43.53058" lon="5.57492">
        <ele>712</ele>
        <time>2022-02-15T09:31:27.000Z</time>
      </trkpt>
      <trkpt lat="43.53058" lon="5.57492">
        <ele>712</ele>
        <time>2022-02-15T09:31:28.000Z</time>
      </trkpt>
      <trkpt lat="43.53058" lon="5.57491">
        <ele>712</ele>
        <time>2022-02-15T09:31:29.000Z</time>
      </trkpt>
      <trkpt lat="43.53058" lon="5.57491">
        <ele>712</ele>
        <time>2022-02-15T09:31:30.000Z</time>
      </trkpt>
      <trkpt lat="43.53058" lon="5.57491">
        <ele>712</ele>
        <time>2022-02-15T09:31:31.000Z</time>
      </trkpt>
      <trkpt lat="43.53058" lon="5.57491">
        <ele>712</ele>
        <time>2022-02-15T09:31:32.000Z</time>
      </trkpt>
      <trkpt lat="43.53058" lon="5.57491">
        <ele>712</ele>
        <time>2022-02-15T09:31:33.000Z</time>
      </trkpt>
      <trkpt lat="43.53058" lon="5.57491">
        <ele>712</ele>
        <time>2022-02-15T09:31:34.000Z</time>
      </trkpt>
      <trkpt lat="43.53058" lon="5.57491">
        <ele>712</ele>
        <time>2022-02-15T09:31:35.000Z</time>
      </trkpt>
      <trkpt lat="43.53058" lon="5.57491">
        <ele>712</ele>
        <time>2022-02-15T09:31:36.000Z</time>
      </trkpt>
      <trkpt lat="43.53058" lon="5.57491">
        <ele>712</ele>
        <time>2022-02-15T09:31:37.000Z</time>
      </trkpt>
      <trkpt lat="43.53058" lon="5.57491">
        <ele>712</ele>
        <time>2022-02-15T09:31:38.000Z</time>
      </trkpt>
      <trkpt lat="43.53058" lon="5.57491">
        <ele>712</ele>
        <time>2022-02-15T09:31:39.000Z</time>
      </trkpt>
      <trkpt lat="43.53058" lon="5.57491">
        <ele>712</ele>
        <time>2022-02-15T09:31:40.000Z</time>
      </trkpt>
      <trkpt lat="43.53058" lon="5.57491">
        <ele>712</ele>
        <time>2022-02-15T09:31:41.000Z</time>
      </trkpt>
      <trkpt lat="43.53058" lon="5.57491">
        <ele>712</ele>
        <time>2022-02-15T09:31:42.000Z</time>
      </trkpt>
      <trkpt lat="43.53058" lon="5.57491">
        <ele>712</ele>
        <time>2022-02-15T09:31:43.000Z</time>
      </trkpt>
      <trkpt lat="43.53058" lon="5.57491">
        <ele>712</ele>
        <time>2022-02-15T09:31:44.000Z</time>
      </trkpt>
      <trkpt lat="43.53058" lon="5.57491">
        <ele>712</ele>
        <time>2022-02-15T09:31:45.000Z</time>
      </trkpt>
      <trkpt lat="43.53058" lon="5.57491">
        <ele>712</ele>
        <time>2022-02-15T09:31:46.000Z</time>
      </trkpt>
      <trkpt lat="43.53058" lon="5.57491">
        <ele>712</ele>
        <time>2022-02-15T09:31:47.000Z</time>
      </trkpt>
      <trkpt lat="43.53057" lon="5.57491">
        <ele>712</ele>
        <time>2022-02-15T09:31:48.000Z</time>
      </trkpt>
      <trkpt lat="43.53057" lon="5.57491">
        <ele>712</ele>
        <time>2022-02-15T09:31:49.000Z</time>
      </trkpt>
      <trkpt lat="43.53057" lon="5.57491">
        <ele>712</ele>
        <time>2022-02-15T09:31:50.000Z</time>
      </trkpt>
      <trkpt lat="43.53057" lon="5.57491">
        <ele>712</ele>
        <time>2022-02-15T09:31:51.000Z</time>
      </trkpt>
      <trkpt lat="43.53057" lon="5.57491">
        <ele>712</ele>
        <time>2022-02-15T09:31:52.000Z</time>
      </trkpt>
      <trkpt lat="43.53057" lon="5.57491">
        <ele>712</ele>
        <time>2022-02-15T09:31:53.000Z</time>
      </trkpt>
      <trkpt lat="43.53057" lon="5.57491">
        <ele>712</ele>
        <time>2022-02-15T09:31:54.000Z</time>
      </trkpt>
      <trkpt lat="43.53057" lon="5.57491">
        <ele>712</ele>
        <time>2022-02-15T09:31:55.000Z</time>
      </trkpt>
      <trkpt lat="43.53057" lon="5.57491">
        <ele>712</ele>
        <time>2022-02-15T09:31:56.000Z</time>
      </trkpt>
      <trkpt lat="43.53057" lon="5.57491">
        <ele>712</ele>
        <time>2022-02-15T09:31:57.000Z</time>
      </trkpt>
      <trkpt lat="43.53057" lon="5.57491">
        <ele>712</ele>
        <time>2022-02-15T09:31:58.000Z</time>
      </trkpt>
      <trkpt lat="43.53057" lon="5.57491">
        <ele>712</ele>
        <time>2022-02-15T09:31:59.000Z</time>
      </trkpt>
      <trkpt lat="43.53057" lon="5.57491">
        <ele>712</ele>
        <time>2022-02-15T09:32:00.000Z</time>
      </trkpt>
      <trkpt lat="43.53058" lon="5.57491">
        <ele>712</ele>
        <time>2022-02-15T09:32:01.000Z</time>
      </trkpt>
      <trkpt lat="43.53058" lon="5.57491">
        <ele>712</ele>
        <time>2022-02-15T09:32:02.000Z</time>
      </trkpt>
      <trkpt lat="43.53058" lon="5.57491">
        <ele>712</ele>
        <time>2022-02-15T09:32:03.000Z</time>
      </trkpt>
      <trkpt lat="43.53058" lon="5.57491">
        <ele>712</ele>
        <time>2022-02-15T09:32:04.000Z</time>
      </trkpt>
      <trkpt lat="43.53058" lon="5.57491">
        <ele>712</ele>
        <time>2022-02-15T09:32:05.000Z</time>
      </trkpt>
      <trkpt lat="43.53058" lon="5.57491">
        <ele>712</ele>
        <time>2022-02-15T09:32:06.000Z</time>
      </trkpt>
      <trkpt lat="43.53057" lon="5.57491">
        <ele>712</ele>
        <time>2022-02-15T09:32:07.000Z</time>
      </trkpt>
      <trkpt lat="43.53057" lon="5.57491">
        <ele>712</ele>
        <time>2022-02-15T09:32:08.000Z</time>
      </trkpt>
      <trkpt lat="43.53057" lon="5.57491">
        <ele>712</ele>
        <time>2022-02-15T09:32:09.000Z</time>
      </trkpt>
      <trkpt lat="43.53057" lon="5.57491">
        <ele>712</ele>
        <time>2022-02-15T09:32:10.000Z</time>
      </trkpt>
      <trkpt lat="43.53057" lon="5.57491">
        <ele>712</ele>
        <time>2022-02-15T09:32:11.000Z</time>
      </trkpt>
      <trkpt lat="43.53057" lon="5.57491">
        <ele>712</ele>
        <time>2022-02-15T09:32:12.000Z</time>
      </trkpt>
      <trkpt lat="43.53057" lon="5.57491">
        <ele>712</ele>
        <time>2022-02-15T09:32:13.000Z</time>
      </trkpt>
      <trkpt lat="43.53057" lon="5.57491">
        <ele>712</ele>
        <time>2022-02-15T09:32:14.000Z</time>
      </trkpt>
      <trkpt lat="43.53057" lon="5.57491">
        <ele>712</ele>
        <time>2022-02-15T09:32:15.000Z</time>
      </trkpt>
      <trkpt lat="43.53058" lon="5.57491">
        <ele>712</ele>
        <time>2022-02-15T09:32:16.000Z</time>
      </trkpt>
      <trkpt lat="43.53058" lon="5.57491">
        <ele>712</ele>
        <time>2022-02-15T09:32:17.000Z</time>
      </trkpt>
      <trkpt lat="43.53058" lon="5.57491">
        <ele>712</ele>
        <time>2022-02-15T09:32:18.000Z</time>
      </trkpt>
      <trkpt lat="43.53058" lon="5.57491">
        <ele>712</ele>
        <time>2022-02-15T09:32:19.000Z</time>
      </trkpt>
      <trkpt lat="43.53058" lon="5.57491">
        <ele>712</ele>
        <time>2022-02-15T09:32:20.000Z</time>
      </trkpt>
      <trkpt lat="43.53057" lon="5.57491">
        <ele>712</ele>
        <time>2022-02-15T09:32:21.000Z</time>
      </trkpt>
      <trkpt lat="43.53057" lon="5.57491">
        <ele>712</ele>
        <time>2022-02-15T09:32:22.000Z</time>
      </trkpt>
      <trkpt lat="43.53057" lon="5.57491">
        <ele>712</ele>
        <time>2022-02-15T09:32:23.000Z</time>
      </trkpt>
      <trkpt lat="43.53057" lon="5.57491">
        <ele>712</ele>
        <time>2022-02-15T09:32:24.000Z</time>
      </trkpt>
      <trkpt lat="43.53057" lon="5.57491">
        <ele>712</ele>
        <time>2022-02-15T09:32:25.000Z</time>
      </trkpt>
      <trkpt lat="43.53057" lon="5.57491">
        <ele>712</ele>
        <time>2022-02-15T09:32:26.000Z</time>
      </trkpt>
      <trkpt lat="43.53057" lon="5.57491">
        <ele>712</ele>
        <time>2022-02-15T09:32:27.000Z</time>
      </trkpt>
      <trkpt lat="43.53057" lon="5.57491">
        <ele>712</ele>
        <time>2022-02-15T09:32:28.000Z</time>
      </trkpt>
      <trkpt lat="43.53057" lon="5.57491">
        <ele>712</ele>
        <time>2022-02-15T09:32:29.000Z</time>
      </trkpt>
      <trkpt lat="43.53057" lon="5.57491">
        <ele>712</ele>
        <time>2022-02-15T09:32:30.000Z</time>
      </trkpt>
      <trkpt lat="43.53057" lon="5.57491">
        <ele>712</ele>
        <time>2022-02-15T09:32:31.000Z</time>
      </trkpt>
      <trkpt lat="43.53056" lon="5.57491">
        <ele>712</ele>
        <time>2022-02-15T09:32:32.000Z</time>
      </trkpt>
      <trkpt lat="43.53056" lon="5.57491">
        <ele>712</ele>
        <time>2022-02-15T09:32:33.000Z</time>
      </trkpt>
      <trkpt lat="43.53056" lon="5.57491">
        <ele>711</ele>
        <time>2022-02-15T09:32:34.000Z</time>
      </trkpt>
      <trkpt lat="43.53055" lon="5.57492">
        <ele>711</ele>
        <time>2022-02-15T09:32:35.000Z</time>
      </trkpt>
      <trkpt lat="43.53055" lon="5.57492">
        <ele>711</ele>
        <time>2022-02-15T09:32:36.000Z</time>
      </trkpt>
      <trkpt lat="43.53055" lon="5.57493">
        <ele>711</ele>
        <time>2022-02-15T09:32:37.000Z</time>
      </trkpt>
      <trkpt lat="43.53054" lon="5.57493">
        <ele>711</ele>
        <time>2022-02-15T09:32:38.000Z</time>
      </trkpt>
      <trkpt lat="43.53054" lon="5.57493">
        <ele>711</ele>
        <time>2022-02-15T09:32:39.000Z</time>
      </trkpt>
      <trkpt lat="43.53054" lon="5.57494">
        <ele>711</ele>
        <time>2022-02-15T09:32:40.000Z</time>
      </trkpt>
      <trkpt lat="43.53053" lon="5.57494">
        <ele>711</ele>
        <time>2022-02-15T09:32:41.000Z</time>
      </trkpt>
      <trkpt lat="43.53053" lon="5.57495">
        <ele>712</ele>
        <time>2022-02-15T09:32:42.000Z</time>
      </trkpt>
      <trkpt lat="43.53052" lon="5.57495">
        <ele>712</ele>
        <time>2022-02-15T09:32:43.000Z</time>
      </trkpt>
      <trkpt lat="43.53051" lon="5.57495">
        <ele>712</ele>
        <time>2022-02-15T09:32:44.000Z</time>
      </trkpt>
      <trkpt lat="43.5305" lon="5.57495">
        <ele>712</ele>
        <time>2022-02-15T09:32:45.000Z</time>
      </trkpt>
      <trkpt lat="43.53049" lon="5.57494">
        <ele>712</ele>
        <time>2022-02-15T09:32:46.000Z</time>
      </trkpt>
      <trkpt lat="43.53048" lon="5.57494">
        <ele>712</ele>
        <time>2022-02-15T09:32:47.000Z</time>
      </trkpt>
      <trkpt lat="43.53047" lon="5.57494">
        <ele>712</ele>
        <time>2022-02-15T09:32:48.000Z</time>
      </trkpt>
      <trkpt lat="43.53046" lon="5.57494">
        <ele>712</ele>
        <time>2022-02-15T09:32:49.000Z</time>
      </trkpt>
      <trkpt lat="43.53045" lon="5.57494">
        <ele>712</ele>
        <time>2022-02-15T09:32:50.000Z</time>
      </trkpt>
      <trkpt lat="43.53045" lon="5.57493">
        <ele>712</ele>
        <time>2022-02-15T09:32:51.000Z</time>
      </trkpt>
      <trkpt lat="43.53044" lon="5.57493">
        <ele>712</ele>
        <time>2022-02-15T09:32:52.000Z</time>
      </trkpt>
      <trkpt lat="43.53043" lon="5.57493">
        <ele>712</ele>
        <time>2022-02-15T09:32:53.000Z</time>
      </trkpt>
      <trkpt lat="43.53042" lon="5.57493">
        <ele>712</ele>
        <time>2022-02-15T09:32:54.000Z</time>
      </trkpt>
      <trkpt lat="43.53041" lon="5.57493">
        <ele>712</ele>
        <time>2022-02-15T09:32:55.000Z</time>
      </trkpt>
      <trkpt lat="43.53041" lon="5.57493">
        <ele>712</ele>
        <time>2022-02-15T09:32:56.000Z</time>
      </trkpt>
      <trkpt lat="43.5304" lon="5.57493">
        <ele>712</ele>
        <time>2022-02-15T09:32:57.000Z</time>
      </trkpt>
      <trkpt lat="43.5304" lon="5.57493">
        <ele>712</ele>
        <time>2022-02-15T09:32:58.000Z</time>
      </trkpt>
      <trkpt lat="43.5304" lon="5.57492">
        <ele>713</ele>
        <time>2022-02-15T09:32:59.000Z</time>
      </trkpt>
      <trkpt lat="43.5304" lon="5.57492">
        <ele>713</ele>
        <time>2022-02-15T09:33:00.000Z</time>
      </trkpt>
      <trkpt lat="43.5304" lon="5.57492">
        <ele>713</ele>
        <time>2022-02-15T09:33:01.000Z</time>
      </trkpt>
      <trkpt lat="43.5304" lon="5.57492">
        <ele>713</ele>
        <time>2022-02-15T09:33:02.000Z</time>
      </trkpt>
      <trkpt lat="43.53039" lon="5.57492">
        <ele>713</ele>
        <time>2022-02-15T09:33:03.000Z</time>
      </trkpt>
      <trkpt lat="43.53039" lon="5.57492">
        <ele>713</ele>
        <time>2022-02-15T09:33:04.000Z</time>
      </trkpt>
      <trkpt lat="43.53039" lon="5.57491">
        <ele>713</ele>
        <time>2022-02-15T09:33:05.000Z</time>
      </trkpt>
      <trkpt lat="43.53039" lon="5.57491">
        <ele>713</ele>
        <time>2022-02-15T09:33:06.000Z</time>
      </trkpt>
      <trkpt lat="43.53039" lon="5.5749">
        <ele>714</ele>
        <time>2022-02-15T09:33:07.000Z</time>
      </trkpt>
      <trkpt lat="43.53039" lon="5.5749">
        <ele>714</ele>
        <time>2022-02-15T09:33:08.000Z</time>
      </trkpt>
      <trkpt lat="43.53039" lon="5.57489">
        <ele>714</ele>
        <time>2022-02-15T09:33:09.000Z</time>
      </trkpt>
      <trkpt lat="43.53039" lon="5.5749">
        <ele>714</ele>
        <time>2022-02-15T09:33:10.000Z</time>
      </trkpt>
      <trkpt lat="43.53039" lon="5.57489">
        <ele>714</ele>
        <time>2022-02-15T09:33:11.000Z</time>
      </trkpt>
      <trkpt lat="43.53039" lon="5.57489">
        <ele>714</ele>
        <time>2022-02-15T09:33:12.000Z</time>
      </trkpt>
      <trkpt lat="43.53039" lon="5.57488">
        <ele>715</ele>
        <time>2022-02-15T09:33:13.000Z</time>
      </trkpt>
      <trkpt lat="43.53039" lon="5.57487">
        <ele>715</ele>
        <time>2022-02-15T09:33:14.000Z</time>
      </trkpt>
      <trkpt lat="43.53039" lon="5.57486">
        <ele>715</ele>
        <time>2022-02-15T09:33:15.000Z</time>
      </trkpt>
      <trkpt lat="43.53039" lon="5.57486">
        <ele>715</ele>
        <time>2022-02-15T09:33:16.000Z</time>
      </trkpt>
      <trkpt lat="43.53039" lon="5.57486">
        <ele>715</ele>
        <time>2022-02-15T09:33:17.000Z</time>
      </trkpt>
      <trkpt lat="43.53039" lon="5.57486">
        <ele>715</ele>
        <time>2022-02-15T09:33:18.000Z</time>
      </trkpt>
      <trkpt lat="43.53039" lon="5.57486">
        <ele>715</ele>
        <time>2022-02-15T09:33:19.000Z</time>
      </trkpt>
      <trkpt lat="43.53039" lon="5.57486">
        <ele>715</ele>
        <time>2022-02-15T09:33:20.000Z</time>
      </trkpt>
      <trkpt lat="43.53039" lon="5.57486">
        <ele>715</ele>
        <time>2022-02-15T09:33:21.000Z</time>
      </trkpt>
      <trkpt lat="43.53039" lon="5.57486">
        <ele>715</ele>
        <time>2022-02-15T09:33:22.000Z</time>
      </trkpt>
      <trkpt lat="43.5304" lon="5.57486">
        <ele>715</ele>
        <time>2022-02-15T09:33:23.000Z</time>
      </trkpt>
      <trkpt lat="43.5304" lon="5.57486">
        <ele>716</ele>
        <time>2022-02-15T09:33:24.000Z</time>
      </trkpt>
      <trkpt lat="43.5304" lon="5.57486">
        <ele>716</ele>
        <time>2022-02-15T09:33:25.000Z</time>
      </trkpt>
      <trkpt lat="43.5304" lon="5.57486">
        <ele>716</ele>
        <time>2022-02-15T09:33:26.000Z</time>
      </trkpt>
      <trkpt lat="43.5304" lon="5.57486">
        <ele>716</ele>
        <time>2022-02-15T09:33:27.000Z</time>
      </trkpt>
      <trkpt lat="43.5304" lon="5.57486">
        <ele>716</ele>
        <time>2022-02-15T09:33:28.000Z</time>
      </trkpt>
      <trkpt lat="43.5304" lon="5.57486">
        <ele>716</ele>
        <time>2022-02-15T09:33:29.000Z</time>
      </trkpt>
      <trkpt lat="43.5304" lon="5.57486">
        <ele>716</ele>
        <time>2022-02-15T09:33:30.000Z</time>
      </trkpt>
      <trkpt lat="43.5304" lon="5.57486">
        <ele>716</ele>
        <time>2022-02-15T09:33:31.000Z</time>
      </trkpt>
      <trkpt lat="43.5304" lon="5.57486">
        <ele>716</ele>
        <time>2022-02-15T09:33:32.000Z</time>
      </trkpt>
      <trkpt lat="43.5304" lon="5.57486">
        <ele>716</ele>
        <time>2022-02-15T09:33:33.000Z</time>
      </trkpt>
      <trkpt lat="43.5304" lon="5.57486">
        <ele>716</ele>
        <time>2022-02-15T09:33:34.000Z</time>
      </trkpt>
      <trkpt lat="43.5304" lon="5.57486">
        <ele>716</ele>
        <time>2022-02-15T09:33:35.000Z</time>
      </trkpt>
      <trkpt lat="43.5304" lon="5.57486">
        <ele>716</ele>
        <time>2022-02-15T09:33:36.000Z</time>
      </trkpt>
      <trkpt lat="43.5304" lon="5.57485">
        <ele>716</ele>
        <time>2022-02-15T09:33:37.000Z</time>
      </trkpt>
      <trkpt lat="43.5304" lon="5.57486">
        <ele>716</ele>
        <time>2022-02-15T09:33:38.000Z</time>
      </trkpt>
      <trkpt lat="43.5304" lon="5.57486">
        <ele>716</ele>
        <time>2022-02-15T09:33:39.000Z</time>
      </trkpt>
      <trkpt lat="43.5304" lon="5.57486">
        <ele>717</ele>
        <time>2022-02-15T09:33:40.000Z</time>
      </trkpt>
      <trkpt lat="43.5304" lon="5.57486">
        <ele>717</ele>
        <time>2022-02-15T09:33:41.000Z</time>
      </trkpt>
      <trkpt lat="43.5304" lon="5.57485">
        <ele>717</ele>
        <time>2022-02-15T09:33:42.000Z</time>
      </trkpt>
      <trkpt lat="43.53041" lon="5.57486">
        <ele>717</ele>
        <time>2022-02-15T09:33:43.000Z</time>
      </trkpt>
      <trkpt lat="43.53041" lon="5.57486">
        <ele>717</ele>
        <time>2022-02-15T09:33:44.000Z</time>
      </trkpt>
      <trkpt lat="43.53041" lon="5.57486">
        <ele>717</ele>
        <time>2022-02-15T09:33:45.000Z</time>
      </trkpt>
      <trkpt lat="43.53041" lon="5.57486">
        <ele>717</ele>
        <time>2022-02-15T09:33:46.000Z</time>
      </trkpt>
      <trkpt lat="43.53041" lon="5.57487">
        <ele>717</ele>
        <time>2022-02-15T09:33:47.000Z</time>
      </trkpt>
      <trkpt lat="43.53041" lon="5.57488">
        <ele>717</ele>
        <time>2022-02-15T09:33:48.000Z</time>
      </trkpt>
      <trkpt lat="43.53041" lon="5.57489">
        <ele>717</ele>
        <time>2022-02-15T09:33:49.000Z</time>
      </trkpt>
      <trkpt lat="43.53041" lon="5.5749">
        <ele>717</ele>
        <time>2022-02-15T09:33:50.000Z</time>
      </trkpt>
      <trkpt lat="43.53041" lon="5.57491">
        <ele>717</ele>
        <time>2022-02-15T09:33:51.000Z</time>
      </trkpt>
      <trkpt lat="43.53042" lon="5.57492">
        <ele>718</ele>
        <time>2022-02-15T09:33:52.000Z</time>
      </trkpt>
      <trkpt lat="43.53042" lon="5.57493">
        <ele>718</ele>
        <time>2022-02-15T09:33:53.000Z</time>
      </trkpt>
      <trkpt lat="43.53042" lon="5.57493">
        <ele>718</ele>
        <time>2022-02-15T09:33:54.000Z</time>
      </trkpt>
      <trkpt lat="43.53041" lon="5.57495">
        <ele>719</ele>
        <time>2022-02-15T09:33:55.000Z</time>
      </trkpt>
      <trkpt lat="43.53041" lon="5.57495">
        <ele>719</ele>
        <time>2022-02-15T09:33:56.000Z</time>
      </trkpt>
      <trkpt lat="43.5304" lon="5.57495">
        <ele>719</ele>
        <time>2022-02-15T09:33:57.000Z</time>
      </trkpt>
      <trkpt lat="43.5304" lon="5.57495">
        <ele>719</ele>
        <time>2022-02-15T09:33:58.000Z</time>
      </trkpt>
      <trkpt lat="43.5304" lon="5.57495">
        <ele>719</ele>
        <time>2022-02-15T09:33:59.000Z</time>
      </trkpt>
      <trkpt lat="43.5304" lon="5.57495">
        <ele>720</ele>
        <time>2022-02-15T09:34:00.000Z</time>
      </trkpt>
      <trkpt lat="43.5304" lon="5.57495">
        <ele>720</ele>
        <time>2022-02-15T09:34:01.000Z</time>
      </trkpt>
      <trkpt lat="43.5304" lon="5.57495">
        <ele>720</ele>
        <time>2022-02-15T09:34:02.000Z</time>
      </trkpt>
      <trkpt lat="43.5304" lon="5.57495">
        <ele>720</ele>
        <time>2022-02-15T09:34:03.000Z</time>
      </trkpt>
      <trkpt lat="43.5304" lon="5.57495">
        <ele>720</ele>
        <time>2022-02-15T09:34:04.000Z</time>
      </trkpt>
      <trkpt lat="43.5304" lon="5.57495">
        <ele>720</ele>
        <time>2022-02-15T09:34:05.000Z</time>
      </trkpt>
      <trkpt lat="43.5304" lon="5.57495">
        <ele>720</ele>
        <time>2022-02-15T09:34:06.000Z</time>
      </trkpt>
      <trkpt lat="43.5304" lon="5.57494">
        <ele>720</ele>
        <time>2022-02-15T09:34:07.000Z</time>
      </trkpt>
      <trkpt lat="43.5304" lon="5.57495">
        <ele>720</ele>
        <time>2022-02-15T09:34:08.000Z</time>
      </trkpt>
      <trkpt lat="43.5304" lon="5.57495">
        <ele>720</ele>
        <time>2022-02-15T09:34:09.000Z</time>
      </trkpt>
      <trkpt lat="43.5304" lon="5.57494">
        <ele>720</ele>
        <time>2022-02-15T09:34:10.000Z</time>
      </trkpt>
      <trkpt lat="43.5304" lon="5.57494">
        <ele>720</ele>
        <time>2022-02-15T09:34:11.000Z</time>
      </trkpt>
      <trkpt lat="43.53039" lon="5.57494">
        <ele>720</ele>
        <time>2022-02-15T09:34:12.000Z</time>
      </trkpt>
      <trkpt lat="43.53039" lon="5.57494">
        <ele>720</ele>
        <time>2022-02-15T09:34:13.000Z</time>
      </trkpt>
      <trkpt lat="43.53039" lon="5.57494">
        <ele>720</ele>
        <time>2022-02-15T09:34:14.000Z</time>
      </trkpt>
      <trkpt lat="43.53039" lon="5.57494">
        <ele>720</ele>
        <time>2022-02-15T09:34:15.000Z</time>
      </trkpt>
      <trkpt lat="43.53039" lon="5.57494">
        <ele>720</ele>
        <time>2022-02-15T09:34:16.000Z</time>
      </trkpt>
      <trkpt lat="43.53039" lon="5.57494">
        <ele>720</ele>
        <time>2022-02-15T09:34:17.000Z</time>
      </trkpt>
      <trkpt lat="43.53039" lon="5.57494">
        <ele>720</ele>
        <time>2022-02-15T09:34:18.000Z</time>
      </trkpt>
      <trkpt lat="43.53039" lon="5.57494">
        <ele>720</ele>
        <time>2022-02-15T09:34:19.000Z</time>
      </trkpt>
      <trkpt lat="43.53039" lon="5.57494">
        <ele>720</ele>
        <time>2022-02-15T09:34:20.000Z</time>
      </trkpt>
      <trkpt lat="43.53039" lon="5.57494">
        <ele>720</ele>
        <time>2022-02-15T09:34:21.000Z</time>
      </trkpt>
      <trkpt lat="43.53039" lon="5.57494">
        <ele>720</ele>
        <time>2022-02-15T09:34:22.000Z</time>
      </trkpt>
      <trkpt lat="43.53039" lon="5.57494">
        <ele>720</ele>
        <time>2022-02-15T09:34:23.000Z</time>
      </trkpt>
      <trkpt lat="43.53039" lon="5.57494">
        <ele>720</ele>
        <time>2022-02-15T09:34:24.000Z</time>
      </trkpt>
      <trkpt lat="43.53039" lon="5.57495">
        <ele>720</ele>
        <time>2022-02-15T09:34:25.000Z</time>
      </trkpt>
      <trkpt lat="43.53039" lon="5.57495">
        <ele>720</ele>
        <time>2022-02-15T09:34:26.000Z</time>
      </trkpt>
      <trkpt lat="43.53039" lon="5.57495">
        <ele>720</ele>
        <time>2022-02-15T09:34:27.000Z</time>
      </trkpt>
      <trkpt lat="43.53039" lon="5.57495">
        <ele>720</ele>
        <time>2022-02-15T09:34:28.000Z</time>
      </trkpt>
      <trkpt lat="43.53039" lon="5.57495">
        <ele>720</ele>
        <time>2022-02-15T09:34:29.000Z</time>
      </trkpt>
      <trkpt lat="43.53039" lon="5.57495">
        <ele>720</ele>
        <time>2022-02-15T09:34:30.000Z</time>
      </trkpt>
      <trkpt lat="43.53039" lon="5.57495">
        <ele>720</ele>
        <time>2022-02-15T09:34:31.000Z</time>
      </trkpt>
      <trkpt lat="43.53039" lon="5.57495">
        <ele>720</ele>
        <time>2022-02-15T09:34:32.000Z</time>
      </trkpt>
      <trkpt lat="43.53039" lon="5.57495">
        <ele>720</ele>
        <time>2022-02-15T09:34:33.000Z</time>
      </trkpt>
      <trkpt lat="43.53039" lon="5.57495">
        <ele>720</ele>
        <time>2022-02-15T09:34:34.000Z</time>
      </trkpt>
      <trkpt lat="43.53039" lon="5.57495">
        <ele>720</ele>
        <time>2022-02-15T09:34:35.000Z</time>
      </trkpt>
      <trkpt lat="43.53039" lon="5.57495">
        <ele>720</ele>
        <time>2022-02-15T09:34:36.000Z</time>
      </trkpt>
      <trkpt lat="43.53039" lon="5.57495">
        <ele>720</ele>
        <time>2022-02-15T09:34:37.000Z</time>
      </trkpt>
      <trkpt lat="43.53039" lon="5.57495">
        <ele>720</ele>
        <time>2022-02-15T09:34:38.000Z</time>
      </trkpt>
      <trkpt lat="43.53039" lon="5.57495">
        <ele>720</ele>
        <time>2022-02-15T09:34:39.000Z</time>
      </trkpt>
      <trkpt lat="43.53039" lon="5.57495">
        <ele>720</ele>
        <time>2022-02-15T09:34:40.000Z</time>
      </trkpt>
      <trkpt lat="43.53039" lon="5.57495">
        <ele>720</ele>
        <time>2022-02-15T09:34:41.000Z</time>
      </trkpt>
      <trkpt lat="43.53039" lon="5.57495">
        <ele>720</ele>
        <time>2022-02-15T09:34:42.000Z</time>
      </trkpt>
      <trkpt lat="43.53039" lon="5.57495">
        <ele>720</ele>
        <time>2022-02-15T09:34:43.000Z</time>
      </trkpt>
      <trkpt lat="43.53039" lon="5.57495">
        <ele>720</ele>
        <time>2022-02-15T09:34:44.000Z</time>
      </trkpt>
      <trkpt lat="43.53039" lon="5.57495">
        <ele>720</ele>
        <time>2022-02-15T09:34:45.000Z</time>
      </trkpt>
      <trkpt lat="43.53039" lon="5.57495">
        <ele>720</ele>
        <time>2022-02-15T09:34:46.000Z</time>
      </trkpt>
      <trkpt lat="43.53039" lon="5.57495">
        <ele>720</ele>
        <time>2022-02-15T09:34:47.000Z</time>
      </trkpt>
      <trkpt lat="43.53039" lon="5.57495">
        <ele>720</ele>
        <time>2022-02-15T09:34:48.000Z</time>
      </trkpt>
      <trkpt lat="43.53039" lon="5.57495">
        <ele>719</ele>
        <time>2022-02-15T09:34:49.000Z</time>
      </trkpt>
      <trkpt lat="43.53039" lon="5.57495">
        <ele>719</ele>
        <time>2022-02-15T09:34:50.000Z</time>
      </trkpt>
      <trkpt lat="43.53039" lon="5.57495">
        <ele>719</ele>
        <time>2022-02-15T09:34:51.000Z</time>
      </trkpt>
      <trkpt lat="43.53039" lon="5.57495">
        <ele>719</ele>
        <time>2022-02-15T09:34:52.000Z</time>
      </trkpt>
      <trkpt lat="43.53039" lon="5.57495">
        <ele>719</ele>
        <time>2022-02-15T09:34:53.000Z</time>
      </trkpt>
      <trkpt lat="43.53039" lon="5.57495">
        <ele>719</ele>
        <time>2022-02-15T09:34:54.000Z</time>
      </trkpt>
      <trkpt lat="43.5304" lon="5.57494">
        <ele>719</ele>
        <time>2022-02-15T09:34:55.000Z</time>
      </trkpt>
      <trkpt lat="43.5304" lon="5.57495">
        <ele>720</ele>
        <time>2022-02-15T09:34:56.000Z</time>
      </trkpt>
      <trkpt lat="43.53041" lon="5.57495">
        <ele>720</ele>
        <time>2022-02-15T09:34:57.000Z</time>
      </trkpt>
      <trkpt lat="43.53041" lon="5.57496">
        <ele>720</ele>
        <time>2022-02-15T09:34:58.000Z</time>
      </trkpt>
      <trkpt lat="43.53042" lon="5.57497">
        <ele>720</ele>
        <time>2022-02-15T09:34:59.000Z</time>
      </trkpt>
      <trkpt lat="43.53042" lon="5.57498">
        <ele>720</ele>
        <time>2022-02-15T09:35:00.000Z</time>
      </trkpt>
      <trkpt lat="43.53042" lon="5.57499">
        <ele>720</ele>
        <time>2022-02-15T09:35:01.000Z</time>
      </trkpt>
      <trkpt lat="43.53041" lon="5.575">
        <ele>720</ele>
        <time>2022-02-15T09:35:02.000Z</time>
      </trkpt>
      <trkpt lat="43.53041" lon="5.575">
        <ele>721</ele>
        <time>2022-02-15T09:35:03.000Z</time>
      </trkpt>
      <trkpt lat="43.53041" lon="5.57501">
        <ele>721</ele>
        <time>2022-02-15T09:35:04.000Z</time>
      </trkpt>
      <trkpt lat="43.53041" lon="5.57502">
        <ele>721</ele>
        <time>2022-02-15T09:35:05.000Z</time>
      </trkpt>
      <trkpt lat="43.5304" lon="5.57503">
        <ele>721</ele>
        <time>2022-02-15T09:35:06.000Z</time>
      </trkpt>
      <trkpt lat="43.5304" lon="5.57503">
        <ele>722</ele>
        <time>2022-02-15T09:35:07.000Z</time>
      </trkpt>
      <trkpt lat="43.5304" lon="5.57504">
        <ele>722</ele>
        <time>2022-02-15T09:35:08.000Z</time>
      </trkpt>
      <trkpt lat="43.5304" lon="5.57505">
        <ele>722</ele>
        <time>2022-02-15T09:35:09.000Z</time>
      </trkpt>
      <trkpt lat="43.5304" lon="5.57505">
        <ele>722</ele>
        <time>2022-02-15T09:35:10.000Z</time>
      </trkpt>
      <trkpt lat="43.53041" lon="5.57506">
        <ele>722</ele>
        <time>2022-02-15T09:35:11.000Z</time>
      </trkpt>
      <trkpt lat="43.53041" lon="5.57506">
        <ele>723</ele>
        <time>2022-02-15T09:35:12.000Z</time>
      </trkpt>
      <trkpt lat="43.53041" lon="5.57507">
        <ele>723</ele>
        <time>2022-02-15T09:35:13.000Z</time>
      </trkpt>
      <trkpt lat="43.53042" lon="5.57507">
        <ele>723</ele>
        <time>2022-02-15T09:35:14.000Z</time>
      </trkpt>
      <trkpt lat="43.53042" lon="5.57508">
        <ele>723</ele>
        <time>2022-02-15T09:35:15.000Z</time>
      </trkpt>
      <trkpt lat="43.53042" lon="5.57509">
        <ele>723</ele>
        <time>2022-02-15T09:35:16.000Z</time>
      </trkpt>
      <trkpt lat="43.53042" lon="5.5751">
        <ele>724</ele>
        <time>2022-02-15T09:35:17.000Z</time>
      </trkpt>
      <trkpt lat="43.53042" lon="5.5751">
        <ele>724</ele>
        <time>2022-02-15T09:35:18.000Z</time>
      </trkpt>
      <trkpt lat="43.53043" lon="5.57511">
        <ele>724</ele>
        <time>2022-02-15T09:35:19.000Z</time>
      </trkpt>
      <trkpt lat="43.53043" lon="5.57511">
        <ele>724</ele>
        <time>2022-02-15T09:35:20.000Z</time>
      </trkpt>
      <trkpt lat="43.53044" lon="5.57511">
        <ele>724</ele>
        <time>2022-02-15T09:35:21.000Z</time>
      </trkpt>
      <trkpt lat="43.53044" lon="5.57511">
        <ele>724</ele>
        <time>2022-02-15T09:35:22.000Z</time>
      </trkpt>
      <trkpt lat="43.53044" lon="5.57512">
        <ele>724</ele>
        <time>2022-02-15T09:35:23.000Z</time>
      </trkpt>
      <trkpt lat="43.53044" lon="5.57512">
        <ele>724</ele>
        <time>2022-02-15T09:35:24.000Z</time>
      </trkpt>
      <trkpt lat="43.53044" lon="5.57512">
        <ele>724</ele>
        <time>2022-02-15T09:35:25.000Z</time>
      </trkpt>
      <trkpt lat="43.53044" lon="5.57512">
        <ele>724</ele>
        <time>2022-02-15T09:35:26.000Z</time>
      </trkpt>
      <trkpt lat="43.53044" lon="5.57512">
        <ele>724</ele>
        <time>2022-02-15T09:35:27.000Z</time>
      </trkpt>
      <trkpt lat="43.53045" lon="5.57512">
        <ele>724</ele>
        <time>2022-02-15T09:35:28.000Z</time>
      </trkpt>
      <trkpt lat="43.53045" lon="5.57513">
        <ele>724</ele>
        <time>2022-02-15T09:35:29.000Z</time>
      </trkpt>
      <trkpt lat="43.53045" lon="5.57514">
        <ele>724</ele>
        <time>2022-02-15T09:35:30.000Z</time>
      </trkpt>
      <trkpt lat="43.53045" lon="5.57514">
        <ele>724</ele>
        <time>2022-02-15T09:35:31.000Z</time>
      </trkpt>
      <trkpt lat="43.53045" lon="5.57514">
        <ele>724</ele>
        <time>2022-02-15T09:35:32.000Z</time>
      </trkpt>
      <trkpt lat="43.53045" lon="5.57514">
        <ele>724</ele>
        <time>2022-02-15T09:35:33.000Z</time>
      </trkpt>
      <trkpt lat="43.53045" lon="5.57514">
        <ele>725</ele>
        <time>2022-02-15T09:35:34.000Z</time>
      </trkpt>
      <trkpt lat="43.53045" lon="5.57514">
        <ele>725</ele>
        <time>2022-02-15T09:35:35.000Z</time>
      </trkpt>
      <trkpt lat="43.53045" lon="5.57514">
        <ele>725</ele>
        <time>2022-02-15T09:35:36.000Z</time>
      </trkpt>
      <trkpt lat="43.53045" lon="5.57514">
        <ele>725</ele>
        <time>2022-02-15T09:35:37.000Z</time>
      </trkpt>
      <trkpt lat="43.53045" lon="5.57514">
        <ele>725</ele>
        <time>2022-02-15T09:35:38.000Z</time>
      </trkpt>
      <trkpt lat="43.53045" lon="5.57513">
        <ele>725</ele>
        <time>2022-02-15T09:35:39.000Z</time>
      </trkpt>
      <trkpt lat="43.53045" lon="5.57513">
        <ele>725</ele>
        <time>2022-02-15T09:35:40.000Z</time>
      </trkpt>
      <trkpt lat="43.53045" lon="5.57513">
        <ele>725</ele>
        <time>2022-02-15T09:35:41.000Z</time>
      </trkpt>
      <trkpt lat="43.53045" lon="5.57513">
        <ele>725</ele>
        <time>2022-02-15T09:35:42.000Z</time>
      </trkpt>
      <trkpt lat="43.53045" lon="5.57513">
        <ele>725</ele>
        <time>2022-02-15T09:35:43.000Z</time>
      </trkpt>
      <trkpt lat="43.53045" lon="5.57513">
        <ele>725</ele>
        <time>2022-02-15T09:35:44.000Z</time>
      </trkpt>
      <trkpt lat="43.53045" lon="5.57513">
        <ele>725</ele>
        <time>2022-02-15T09:35:45.000Z</time>
      </trkpt>
      <trkpt lat="43.53045" lon="5.57513">
        <ele>725</ele>
        <time>2022-02-15T09:35:46.000Z</time>
      </trkpt>
      <trkpt lat="43.53045" lon="5.57513">
        <ele>725</ele>
        <time>2022-02-15T09:35:47.000Z</time>
      </trkpt>
      <trkpt lat="43.53045" lon="5.57513">
        <ele>725</ele>
        <time>2022-02-15T09:35:48.000Z</time>
      </trkpt>
      <trkpt lat="43.53045" lon="5.57513">
        <ele>725</ele>
        <time>2022-02-15T09:35:49.000Z</time>
      </trkpt>
      <trkpt lat="43.53045" lon="5.57513">
        <ele>725</ele>
        <time>2022-02-15T09:35:50.000Z</time>
      </trkpt>
      <trkpt lat="43.53045" lon="5.57513">
        <ele>725</ele>
        <time>2022-02-15T09:35:51.000Z</time>
      </trkpt>
      <trkpt lat="43.53045" lon="5.57513">
        <ele>725</ele>
        <time>2022-02-15T09:35:52.000Z</time>
      </trkpt>
      <trkpt lat="43.53045" lon="5.57513">
        <ele>725</ele>
        <time>2022-02-15T09:35:53.000Z</time>
      </trkpt>
      <trkpt lat="43.53045" lon="5.57513">
        <ele>725</ele>
        <time>2022-02-15T09:35:54.000Z</time>
      </trkpt>
      <trkpt lat="43.53045" lon="5.57513">
        <ele>725</ele>
        <time>2022-02-15T09:35:55.000Z</time>
      </trkpt>
      <trkpt lat="43.53045" lon="5.57513">
        <ele>725</ele>
        <time>2022-02-15T09:35:56.000Z</time>
      </trkpt>
      <trkpt lat="43.53045" lon="5.57513">
        <ele>725</ele>
        <time>2022-02-15T09:35:57.000Z</time>
      </trkpt>
      <trkpt lat="43.53045" lon="5.57513">
        <ele>725</ele>
        <time>2022-02-15T09:35:58.000Z</time>
      </trkpt>
      <trkpt lat="43.53045" lon="5.57513">
        <ele>725</ele>
        <time>2022-02-15T09:35:59.000Z</time>
      </trkpt>
      <trkpt lat="43.53045" lon="5.57513">
        <ele>725</ele>
        <time>2022-02-15T09:36:00.000Z</time>
      </trkpt>
      <trkpt lat="43.53045" lon="5.57513">
        <ele>725</ele>
        <time>2022-02-15T09:36:01.000Z</time>
      </trkpt>
      <trkpt lat="43.53045" lon="5.57513">
        <ele>725</ele>
        <time>2022-02-15T09:36:02.000Z</time>
      </trkpt>
      <trkpt lat="43.53045" lon="5.57514">
        <ele>725</ele>
        <time>2022-02-15T09:36:03.000Z</time>
      </trkpt>
      <trkpt lat="43.53045" lon="5.57514">
        <ele>725</ele>
        <time>2022-02-15T09:36:04.000Z</time>
      </trkpt>
      <trkpt lat="43.53045" lon="5.57515">
        <ele>725</ele>
        <time>2022-02-15T09:36:05.000Z</time>
      </trkpt>
      <trkpt lat="43.53045" lon="5.57516">
        <ele>725</ele>
        <time>2022-02-15T09:36:06.000Z</time>
      </trkpt>
      <trkpt lat="43.53045" lon="5.57517">
        <ele>725</ele>
        <time>2022-02-15T09:36:07.000Z</time>
      </trkpt>
      <trkpt lat="43.53045" lon="5.57518">
        <ele>725</ele>
        <time>2022-02-15T09:36:08.000Z</time>
      </trkpt>
      <trkpt lat="43.53045" lon="5.57519">
        <ele>725</ele>
        <time>2022-02-15T09:36:09.000Z</time>
      </trkpt>
      <trkpt lat="43.53045" lon="5.57519">
        <ele>725</ele>
        <time>2022-02-15T09:36:10.000Z</time>
      </trkpt>
      <trkpt lat="43.53045" lon="5.5752">
        <ele>725</ele>
        <time>2022-02-15T09:36:11.000Z</time>
      </trkpt>
      <trkpt lat="43.53045" lon="5.57521">
        <ele>725</ele>
        <time>2022-02-15T09:36:12.000Z</time>
      </trkpt>
      <trkpt lat="43.53044" lon="5.57521">
        <ele>725</ele>
        <time>2022-02-15T09:36:13.000Z</time>
      </trkpt>
      <trkpt lat="43.53044" lon="5.57522">
        <ele>725</ele>
        <time>2022-02-15T09:36:14.000Z</time>
      </trkpt>
      <trkpt lat="43.53044" lon="5.57523">
        <ele>725</ele>
        <time>2022-02-15T09:36:15.000Z</time>
      </trkpt>
      <trkpt lat="43.53043" lon="5.57524">
        <ele>726</ele>
        <time>2022-02-15T09:36:16.000Z</time>
      </trkpt>
      <trkpt lat="43.53043" lon="5.57524">
        <ele>726</ele>
        <time>2022-02-15T09:36:17.000Z</time>
      </trkpt>
      <trkpt lat="43.53043" lon="5.57524">
        <ele>726</ele>
        <time>2022-02-15T09:36:18.000Z</time>
      </trkpt>
      <trkpt lat="43.53042" lon="5.57525">
        <ele>726</ele>
        <time>2022-02-15T09:36:19.000Z</time>
      </trkpt>
      <trkpt lat="43.53042" lon="5.57525">
        <ele>726</ele>
        <time>2022-02-15T09:36:20.000Z</time>
      </trkpt>
      <trkpt lat="43.53042" lon="5.57525">
        <ele>726</ele>
        <time>2022-02-15T09:36:21.000Z</time>
      </trkpt>
      <trkpt lat="43.53042" lon="5.57525">
        <ele>726</ele>
        <time>2022-02-15T09:36:22.000Z</time>
      </trkpt>
      <trkpt lat="43.53042" lon="5.57525">
        <ele>726</ele>
        <time>2022-02-15T09:36:23.000Z</time>
      </trkpt>
      <trkpt lat="43.53042" lon="5.57526">
        <ele>726</ele>
        <time>2022-02-15T09:36:24.000Z</time>
      </trkpt>
      <trkpt lat="43.53042" lon="5.57526">
        <ele>726</ele>
        <time>2022-02-15T09:36:25.000Z</time>
      </trkpt>
      <trkpt lat="43.53042" lon="5.57527">
        <ele>726</ele>
        <time>2022-02-15T09:36:26.000Z</time>
      </trkpt>
      <trkpt lat="43.53042" lon="5.57527">
        <ele>727</ele>
        <time>2022-02-15T09:36:27.000Z</time>
      </trkpt>
      <trkpt lat="43.53041" lon="5.57527">
        <ele>727</ele>
        <time>2022-02-15T09:36:28.000Z</time>
      </trkpt>
      <trkpt lat="43.53041" lon="5.57527">
        <ele>727</ele>
        <time>2022-02-15T09:36:29.000Z</time>
      </trkpt>
      <trkpt lat="43.53041" lon="5.57527">
        <ele>727</ele>
        <time>2022-02-15T09:36:30.000Z</time>
      </trkpt>
      <trkpt lat="43.53041" lon="5.57528">
        <ele>727</ele>
        <time>2022-02-15T09:36:31.000Z</time>
      </trkpt>
      <trkpt lat="43.53041" lon="5.57528">
        <ele>727</ele>
        <time>2022-02-15T09:36:32.000Z</time>
      </trkpt>
      <trkpt lat="43.53041" lon="5.57528">
        <ele>727</ele>
        <time>2022-02-15T09:36:33.000Z</time>
      </trkpt>
      <trkpt lat="43.53041" lon="5.57528">
        <ele>727</ele>
        <time>2022-02-15T09:36:34.000Z</time>
      </trkpt>
      <trkpt lat="43.53041" lon="5.57528">
        <ele>727</ele>
        <time>2022-02-15T09:36:35.000Z</time>
      </trkpt>
      <trkpt lat="43.53041" lon="5.57528">
        <ele>727</ele>
        <time>2022-02-15T09:36:36.000Z</time>
      </trkpt>
      <trkpt lat="43.53041" lon="5.57528">
        <ele>727</ele>
        <time>2022-02-15T09:36:37.000Z</time>
      </trkpt>
      <trkpt lat="43.53041" lon="5.57528">
        <ele>727</ele>
        <time>2022-02-15T09:36:38.000Z</time>
      </trkpt>
      <trkpt lat="43.5304" lon="5.57528">
        <ele>727</ele>
        <time>2022-02-15T09:36:39.000Z</time>
      </trkpt>
      <trkpt lat="43.5304" lon="5.57528">
        <ele>727</ele>
        <time>2022-02-15T09:36:40.000Z</time>
      </trkpt>
      <trkpt lat="43.5304" lon="5.57528">
        <ele>728</ele>
        <time>2022-02-15T09:36:41.000Z</time>
      </trkpt>
      <trkpt lat="43.5304" lon="5.57529">
        <ele>728</ele>
        <time>2022-02-15T09:36:42.000Z</time>
      </trkpt>
      <trkpt lat="43.5304" lon="5.57528">
        <ele>728</ele>
        <time>2022-02-15T09:36:43.000Z</time>
      </trkpt>
      <trkpt lat="43.5304" lon="5.57528">
        <ele>728</ele>
        <time>2022-02-15T09:36:44.000Z</time>
      </trkpt>
      <trkpt lat="43.5304" lon="5.57529">
        <ele>728</ele>
        <time>2022-02-15T09:36:45.000Z</time>
      </trkpt>
      <trkpt lat="43.5304" lon="5.57529">
        <ele>729</ele>
        <time>2022-02-15T09:36:46.000Z</time>
      </trkpt>
      <trkpt lat="43.5304" lon="5.57529">
        <ele>729</ele>
        <time>2022-02-15T09:36:47.000Z</time>
      </trkpt>
      <trkpt lat="43.5304" lon="5.57529">
        <ele>729</ele>
        <time>2022-02-15T09:36:48.000Z</time>
      </trkpt>
      <trkpt lat="43.5304" lon="5.57529">
        <ele>729</ele>
        <time>2022-02-15T09:36:49.000Z</time>
      </trkpt>
      <trkpt lat="43.5304" lon="5.57529">
        <ele>729</ele>
        <time>2022-02-15T09:36:50.000Z</time>
      </trkpt>
      <trkpt lat="43.5304" lon="5.57529">
        <ele>729</ele>
        <time>2022-02-15T09:36:51.000Z</time>
      </trkpt>
      <trkpt lat="43.5304" lon="5.57529">
        <ele>729</ele>
        <time>2022-02-15T09:36:52.000Z</time>
      </trkpt>
      <trkpt lat="43.5304" lon="5.57529">
        <ele>729</ele>
        <time>2022-02-15T09:36:53.000Z</time>
      </trkpt>
      <trkpt lat="43.5304" lon="5.57529">
        <ele>729</ele>
        <time>2022-02-15T09:36:54.000Z</time>
      </trkpt>
      <trkpt lat="43.5304" lon="5.57529">
        <ele>729</ele>
        <time>2022-02-15T09:36:55.000Z</time>
      </trkpt>
      <trkpt lat="43.5304" lon="5.57529">
        <ele>729</ele>
        <time>2022-02-15T09:36:56.000Z</time>
      </trkpt>
      <trkpt lat="43.5304" lon="5.57529">
        <ele>729</ele>
        <time>2022-02-15T09:36:57.000Z</time>
      </trkpt>
      <trkpt lat="43.5304" lon="5.57529">
        <ele>729</ele>
        <time>2022-02-15T09:36:58.000Z</time>
      </trkpt>
      <trkpt lat="43.5304" lon="5.57529">
        <ele>729</ele>
        <time>2022-02-15T09:36:59.000Z</time>
      </trkpt>
      <trkpt lat="43.5304" lon="5.57529">
        <ele>730</ele>
        <time>2022-02-15T09:37:00.000Z</time>
      </trkpt>
      <trkpt lat="43.5304" lon="5.57529">
        <ele>730</ele>
        <time>2022-02-15T09:37:01.000Z</time>
      </trkpt>
      <trkpt lat="43.5304" lon="5.57529">
        <ele>730</ele>
        <time>2022-02-15T09:37:02.000Z</time>
      </trkpt>
      <trkpt lat="43.5304" lon="5.57529">
        <ele>730</ele>
        <time>2022-02-15T09:37:03.000Z</time>
      </trkpt>
      <trkpt lat="43.5304" lon="5.57529">
        <ele>730</ele>
        <time>2022-02-15T09:37:04.000Z</time>
      </trkpt>
      <trkpt lat="43.5304" lon="5.57529">
        <ele>730</ele>
        <time>2022-02-15T09:37:05.000Z</time>
      </trkpt>
      <trkpt lat="43.5304" lon="5.57529">
        <ele>730</ele>
        <time>2022-02-15T09:37:06.000Z</time>
      </trkpt>
      <trkpt lat="43.53039" lon="5.57529">
        <ele>730</ele>
        <time>2022-02-15T09:37:07.000Z</time>
      </trkpt>
      <trkpt lat="43.53039" lon="5.57529">
        <ele>730</ele>
        <time>2022-02-15T09:37:08.000Z</time>
      </trkpt>
      <trkpt lat="43.53039" lon="5.57529">
        <ele>730</ele>
        <time>2022-02-15T09:37:09.000Z</time>
      </trkpt>
      <trkpt lat="43.53039" lon="5.57529">
        <ele>730</ele>
        <time>2022-02-15T09:37:10.000Z</time>
      </trkpt>
      <trkpt lat="43.53039" lon="5.57529">
        <ele>731</ele>
        <time>2022-02-15T09:37:11.000Z</time>
      </trkpt>
      <trkpt lat="43.53039" lon="5.57529">
        <ele>731</ele>
        <time>2022-02-15T09:37:12.000Z</time>
      </trkpt>
      <trkpt lat="43.53039" lon="5.5753">
        <ele>731</ele>
        <time>2022-02-15T09:37:13.000Z</time>
      </trkpt>
      <trkpt lat="43.53039" lon="5.57531">
        <ele>731</ele>
        <time>2022-02-15T09:37:14.000Z</time>
      </trkpt>
      <trkpt lat="43.53039" lon="5.57532">
        <ele>731</ele>
        <time>2022-02-15T09:37:15.000Z</time>
      </trkpt>
      <trkpt lat="43.5304" lon="5.57532">
        <ele>731</ele>
        <time>2022-02-15T09:37:16.000Z</time>
      </trkpt>
      <trkpt lat="43.5304" lon="5.57533">
        <ele>731</ele>
        <time>2022-02-15T09:37:17.000Z</time>
      </trkpt>
      <trkpt lat="43.5304" lon="5.57533">
        <ele>732</ele>
        <time>2022-02-15T09:37:18.000Z</time>
      </trkpt>
      <trkpt lat="43.5304" lon="5.57534">
        <ele>732</ele>
        <time>2022-02-15T09:37:19.000Z</time>
      </trkpt>
      <trkpt lat="43.5304" lon="5.57535">
        <ele>732</ele>
        <time>2022-02-15T09:37:20.000Z</time>
      </trkpt>
      <trkpt lat="43.5304" lon="5.57536">
        <ele>732</ele>
        <time>2022-02-15T09:37:21.000Z</time>
      </trkpt>
      <trkpt lat="43.5304" lon="5.57536">
        <ele>732</ele>
        <time>2022-02-15T09:37:22.000Z</time>
      </trkpt>
      <trkpt lat="43.5304" lon="5.57537">
        <ele>732</ele>
        <time>2022-02-15T09:37:23.000Z</time>
      </trkpt>
      <trkpt lat="43.5304" lon="5.57538">
        <ele>733</ele>
        <time>2022-02-15T09:37:24.000Z</time>
      </trkpt>
      <trkpt lat="43.5304" lon="5.57539">
        <ele>733</ele>
        <time>2022-02-15T09:37:25.000Z</time>
      </trkpt>
      <trkpt lat="43.53039" lon="5.57539">
        <ele>733</ele>
        <time>2022-02-15T09:37:26.000Z</time>
      </trkpt>
      <trkpt lat="43.53039" lon="5.5754">
        <ele>733</ele>
        <time>2022-02-15T09:37:27.000Z</time>
      </trkpt>
      <trkpt lat="43.53039" lon="5.57541">
        <ele>733</ele>
        <time>2022-02-15T09:37:28.000Z</time>
      </trkpt>
      <trkpt lat="43.53039" lon="5.57541">
        <ele>733</ele>
        <time>2022-02-15T09:37:29.000Z</time>
      </trkpt>
      <trkpt lat="43.53039" lon="5.57541">
        <ele>733</ele>
        <time>2022-02-15T09:37:30.000Z</time>
      </trkpt>
      <trkpt lat="43.53039" lon="5.57541">
        <ele>734</ele>
        <time>2022-02-15T09:37:31.000Z</time>
      </trkpt>
      <trkpt lat="43.53039" lon="5.57541">
        <ele>734</ele>
        <time>2022-02-15T09:37:32.000Z</time>
      </trkpt>
      <trkpt lat="43.5304" lon="5.5754">
        <ele>734</ele>
        <time>2022-02-15T09:37:33.000Z</time>
      </trkpt>
      <trkpt lat="43.5304" lon="5.57539">
        <ele>734</ele>
        <time>2022-02-15T09:37:34.000Z</time>
      </trkpt>
      <trkpt lat="43.53041" lon="5.57539">
        <ele>734</ele>
        <time>2022-02-15T09:37:35.000Z</time>
      </trkpt>
      <trkpt lat="43.53042" lon="5.57538">
        <ele>735</ele>
        <time>2022-02-15T09:37:36.000Z</time>
      </trkpt>
      <trkpt lat="43.53042" lon="5.57538">
        <ele>735</ele>
        <time>2022-02-15T09:37:37.000Z</time>
      </trkpt>
      <trkpt lat="43.53042" lon="5.57538">
        <ele>735</ele>
        <time>2022-02-15T09:37:38.000Z</time>
      </trkpt>
      <trkpt lat="43.53043" lon="5.57537">
        <ele>735</ele>
        <time>2022-02-15T09:37:39.000Z</time>
      </trkpt>
      <trkpt lat="43.53043" lon="5.57536">
        <ele>735</ele>
        <time>2022-02-15T09:37:40.000Z</time>
      </trkpt>
      <trkpt lat="43.53043" lon="5.57536">
        <ele>735</ele>
        <time>2022-02-15T09:37:41.000Z</time>
      </trkpt>
      <trkpt lat="43.53043" lon="5.57536">
        <ele>735</ele>
        <time>2022-02-15T09:37:42.000Z</time>
      </trkpt>
      <trkpt lat="43.53043" lon="5.57536">
        <ele>735</ele>
        <time>2022-02-15T09:37:43.000Z</time>
      </trkpt>
      <trkpt lat="43.53043" lon="5.57536">
        <ele>735</ele>
        <time>2022-02-15T09:37:44.000Z</time>
      </trkpt>
      <trkpt lat="43.53043" lon="5.57536">
        <ele>736</ele>
        <time>2022-02-15T09:37:45.000Z</time>
      </trkpt>
      <trkpt lat="43.53043" lon="5.57536">
        <ele>736</ele>
        <time>2022-02-15T09:37:46.000Z</time>
      </trkpt>
      <trkpt lat="43.53043" lon="5.57536">
        <ele>736</ele>
        <time>2022-02-15T09:37:47.000Z</time>
      </trkpt>
      <trkpt lat="43.53043" lon="5.57536">
        <ele>736</ele>
        <time>2022-02-15T09:37:48.000Z</time>
      </trkpt>
      <trkpt lat="43.53044" lon="5.57536">
        <ele>736</ele>
        <time>2022-02-15T09:37:49.000Z</time>
      </trkpt>
      <trkpt lat="43.53044" lon="5.57536">
        <ele>736</ele>
        <time>2022-02-15T09:37:50.000Z</time>
      </trkpt>
      <trkpt lat="43.53044" lon="5.57536">
        <ele>736</ele>
        <time>2022-02-15T09:37:51.000Z</time>
      </trkpt>
      <trkpt lat="43.53044" lon="5.57536">
        <ele>736</ele>
        <time>2022-02-15T09:37:52.000Z</time>
      </trkpt>
      <trkpt lat="43.53044" lon="5.57536">
        <ele>737</ele>
        <time>2022-02-15T09:37:53.000Z</time>
      </trkpt>
      <trkpt lat="43.53045" lon="5.57536">
        <ele>737</ele>
        <time>2022-02-15T09:37:54.000Z</time>
      </trkpt>
      <trkpt lat="43.53046" lon="5.57536">
        <ele>737</ele>
        <time>2022-02-15T09:37:55.000Z</time>
      </trkpt>
      <trkpt lat="43.53046" lon="5.57537">
        <ele>737</ele>
        <time>2022-02-15T09:37:56.000Z</time>
      </trkpt>
      <trkpt lat="43.53047" lon="5.57537">
        <ele>737</ele>
        <time>2022-02-15T09:37:57.000Z</time>
      </trkpt>
      <trkpt lat="43.53047" lon="5.57538">
        <ele>737</ele>
        <time>2022-02-15T09:37:58.000Z</time>
      </trkpt>
      <trkpt lat="43.53047" lon="5.57538">
        <ele>737</ele>
        <time>2022-02-15T09:37:59.000Z</time>
      </trkpt>
      <trkpt lat="43.53047" lon="5.57538">
        <ele>737</ele>
        <time>2022-02-15T09:38:00.000Z</time>
      </trkpt>
      <trkpt lat="43.53048" lon="5.57537">
        <ele>737</ele>
        <time>2022-02-15T09:38:01.000Z</time>
      </trkpt>
      <trkpt lat="43.53048" lon="5.57538">
        <ele>737</ele>
        <time>2022-02-15T09:38:02.000Z</time>
      </trkpt>
      <trkpt lat="43.53048" lon="5.57538">
        <ele>738</ele>
        <time>2022-02-15T09:38:03.000Z</time>
      </trkpt>
      <trkpt lat="43.53048" lon="5.57538">
        <ele>738</ele>
        <time>2022-02-15T09:38:04.000Z</time>
      </trkpt>
      <trkpt lat="43.53048" lon="5.57538">
        <ele>738</ele>
        <time>2022-02-15T09:38:05.000Z</time>
      </trkpt>
      <trkpt lat="43.53048" lon="5.57538">
        <ele>738</ele>
        <time>2022-02-15T09:38:06.000Z</time>
      </trkpt>
      <trkpt lat="43.53047" lon="5.57538">
        <ele>738</ele>
        <time>2022-02-15T09:38:07.000Z</time>
      </trkpt>
      <trkpt lat="43.53047" lon="5.57538">
        <ele>738</ele>
        <time>2022-02-15T09:38:08.000Z</time>
      </trkpt>
      <trkpt lat="43.53047" lon="5.57538">
        <ele>738</ele>
        <time>2022-02-15T09:38:09.000Z</time>
      </trkpt>
      <trkpt lat="43.53047" lon="5.57538">
        <ele>738</ele>
        <time>2022-02-15T09:38:10.000Z</time>
      </trkpt>
      <trkpt lat="43.53047" lon="5.57538">
        <ele>738</ele>
        <time>2022-02-15T09:38:11.000Z</time>
      </trkpt>
      <trkpt lat="43.53047" lon="5.57538">
        <ele>738</ele>
        <time>2022-02-15T09:38:12.000Z</time>
      </trkpt>
      <trkpt lat="43.53047" lon="5.57538">
        <ele>738</ele>
        <time>2022-02-15T09:38:13.000Z</time>
      </trkpt>
      <trkpt lat="43.53047" lon="5.57538">
        <ele>738</ele>
        <time>2022-02-15T09:38:14.000Z</time>
      </trkpt>
      <trkpt lat="43.53047" lon="5.57538">
        <ele>738</ele>
        <time>2022-02-15T09:38:15.000Z</time>
      </trkpt>
      <trkpt lat="43.53047" lon="5.57538">
        <ele>738</ele>
        <time>2022-02-15T09:38:16.000Z</time>
      </trkpt>
      <trkpt lat="43.53047" lon="5.57538">
        <ele>738</ele>
        <time>2022-02-15T09:38:17.000Z</time>
      </trkpt>
      <trkpt lat="43.53047" lon="5.57538">
        <ele>738</ele>
        <time>2022-02-15T09:38:18.000Z</time>
      </trkpt>
      <trkpt lat="43.53047" lon="5.57538">
        <ele>738</ele>
        <time>2022-02-15T09:38:19.000Z</time>
      </trkpt>
      <trkpt lat="43.53047" lon="5.57538">
        <ele>738</ele>
        <time>2022-02-15T09:38:20.000Z</time>
      </trkpt>
      <trkpt lat="43.53047" lon="5.57538">
        <ele>738</ele>
        <time>2022-02-15T09:38:21.000Z</time>
      </trkpt>
      <trkpt lat="43.53047" lon="5.57538">
        <ele>738</ele>
        <time>2022-02-15T09:38:22.000Z</time>
      </trkpt>
      <trkpt lat="43.53047" lon="5.57538">
        <ele>738</ele>
        <time>2022-02-15T09:38:23.000Z</time>
      </trkpt>
      <trkpt lat="43.53047" lon="5.57538">
        <ele>738</ele>
        <time>2022-02-15T09:38:24.000Z</time>
      </trkpt>
      <trkpt lat="43.53047" lon="5.57538">
        <ele>738</ele>
        <time>2022-02-15T09:38:25.000Z</time>
      </trkpt>
      <trkpt lat="43.53047" lon="5.57538">
        <ele>738</ele>
        <time>2022-02-15T09:38:26.000Z</time>
      </trkpt>
      <trkpt lat="43.53047" lon="5.57538">
        <ele>738</ele>
        <time>2022-02-15T09:38:27.000Z</time>
      </trkpt>
      <trkpt lat="43.53047" lon="5.57538">
        <ele>738</ele>
        <time>2022-02-15T09:38:28.000Z</time>
      </trkpt>
      <trkpt lat="43.53047" lon="5.57537">
        <ele>738</ele>
        <time>2022-02-15T09:38:29.000Z</time>
      </trkpt>
      <trkpt lat="43.53048" lon="5.57537">
        <ele>739</ele>
        <time>2022-02-15T09:38:30.000Z</time>
      </trkpt>
      <trkpt lat="43.53048" lon="5.57537">
        <ele>739</ele>
        <time>2022-02-15T09:38:31.000Z</time>
      </trkpt>
      <trkpt lat="43.53048" lon="5.57537">
        <ele>739</ele>
        <time>2022-02-15T09:38:32.000Z</time>
      </trkpt>
      <trkpt lat="43.53048" lon="5.57537">
        <ele>739</ele>
        <time>2022-02-15T09:38:33.000Z</time>
      </trkpt>
      <trkpt lat="43.53048" lon="5.57537">
        <ele>739</ele>
        <time>2022-02-15T09:38:34.000Z</time>
      </trkpt>
      <trkpt lat="43.53048" lon="5.57536">
        <ele>739</ele>
        <time>2022-02-15T09:38:35.000Z</time>
      </trkpt>
      <trkpt lat="43.53048" lon="5.57536">
        <ele>739</ele>
        <time>2022-02-15T09:38:36.000Z</time>
      </trkpt>
      <trkpt lat="43.53048" lon="5.57536">
        <ele>739</ele>
        <time>2022-02-15T09:38:37.000Z</time>
      </trkpt>
      <trkpt lat="43.53048" lon="5.57536">
        <ele>739</ele>
        <time>2022-02-15T09:38:38.000Z</time>
      </trkpt>
      <trkpt lat="43.53048" lon="5.57536">
        <ele>739</ele>
        <time>2022-02-15T09:38:39.000Z</time>
      </trkpt>
      <trkpt lat="43.53049" lon="5.57536">
        <ele>739</ele>
        <time>2022-02-15T09:38:40.000Z</time>
      </trkpt>
      <trkpt lat="43.53049" lon="5.57536">
        <ele>739</ele>
        <time>2022-02-15T09:38:41.000Z</time>
      </trkpt>
      <trkpt lat="43.53049" lon="5.57536">
        <ele>739</ele>
        <time>2022-02-15T09:38:42.000Z</time>
      </trkpt>
      <trkpt lat="43.53049" lon="5.57536">
        <ele>739</ele>
        <time>2022-02-15T09:38:43.000Z</time>
      </trkpt>
      <trkpt lat="43.53049" lon="5.57536">
        <ele>739</ele>
        <time>2022-02-15T09:38:44.000Z</time>
      </trkpt>
      <trkpt lat="43.53049" lon="5.57535">
        <ele>739</ele>
        <time>2022-02-15T09:38:45.000Z</time>
      </trkpt>
      <trkpt lat="43.5305" lon="5.57535">
        <ele>740</ele>
        <time>2022-02-15T09:38:46.000Z</time>
      </trkpt>
      <trkpt lat="43.5305" lon="5.57535">
        <ele>740</ele>
        <time>2022-02-15T09:38:47.000Z</time>
      </trkpt>
      <trkpt lat="43.5305" lon="5.57535">
        <ele>740</ele>
        <time>2022-02-15T09:38:48.000Z</time>
      </trkpt>
      <trkpt lat="43.53049" lon="5.57535">
        <ele>740</ele>
        <time>2022-02-15T09:38:49.000Z</time>
      </trkpt>
      <trkpt lat="43.53049" lon="5.57535">
        <ele>740</ele>
        <time>2022-02-15T09:38:50.000Z</time>
      </trkpt>
      <trkpt lat="43.53049" lon="5.57535">
        <ele>740</ele>
        <time>2022-02-15T09:38:51.000Z</time>
      </trkpt>
      <trkpt lat="43.53049" lon="5.57535">
        <ele>740</ele>
        <time>2022-02-15T09:38:52.000Z</time>
      </trkpt>
      <trkpt lat="43.53049" lon="5.57535">
        <ele>740</ele>
        <time>2022-02-15T09:38:53.000Z</time>
      </trkpt>
      <trkpt lat="43.53049" lon="5.57535">
        <ele>740</ele>
        <time>2022-02-15T09:38:54.000Z</time>
      </trkpt>
      <trkpt lat="43.53049" lon="5.57535">
        <ele>740</ele>
        <time>2022-02-15T09:38:55.000Z</time>
      </trkpt>
      <trkpt lat="43.53049" lon="5.57535">
        <ele>740</ele>
        <time>2022-02-15T09:38:56.000Z</time>
      </trkpt>
      <trkpt lat="43.53049" lon="5.57536">
        <ele>740</ele>
        <time>2022-02-15T09:38:57.000Z</time>
      </trkpt>
      <trkpt lat="43.53049" lon="5.57536">
        <ele>740</ele>
        <time>2022-02-15T09:38:58.000Z</time>
      </trkpt>
      <trkpt lat="43.53049" lon="5.57536">
        <ele>740</ele>
        <time>2022-02-15T09:38:59.000Z</time>
      </trkpt>
      <trkpt lat="43.53049" lon="5.57535">
        <ele>741</ele>
        <time>2022-02-15T09:39:00.000Z</time>
      </trkpt>
      <trkpt lat="43.53049" lon="5.57535">
        <ele>741</ele>
        <time>2022-02-15T09:39:01.000Z</time>
      </trkpt>
      <trkpt lat="43.53049" lon="5.57535">
        <ele>741</ele>
        <time>2022-02-15T09:39:02.000Z</time>
      </trkpt>
      <trkpt lat="43.53049" lon="5.57535">
        <ele>741</ele>
        <time>2022-02-15T09:39:03.000Z</time>
      </trkpt>
      <trkpt lat="43.53049" lon="5.57535">
        <ele>741</ele>
        <time>2022-02-15T09:39:04.000Z</time>
      </trkpt>
      <trkpt lat="43.53049" lon="5.57535">
        <ele>741</ele>
        <time>2022-02-15T09:39:05.000Z</time>
      </trkpt>
      <trkpt lat="43.53048" lon="5.57535">
        <ele>741</ele>
        <time>2022-02-15T09:39:06.000Z</time>
      </trkpt>
      <trkpt lat="43.53048" lon="5.57535">
        <ele>741</ele>
        <time>2022-02-15T09:39:07.000Z</time>
      </trkpt>
      <trkpt lat="43.53048" lon="5.57535">
        <ele>741</ele>
        <time>2022-02-15T09:39:08.000Z</time>
      </trkpt>
      <trkpt lat="43.53048" lon="5.57535">
        <ele>741</ele>
        <time>2022-02-15T09:39:09.000Z</time>
      </trkpt>
      <trkpt lat="43.53049" lon="5.57536">
        <ele>741</ele>
        <time>2022-02-15T09:39:10.000Z</time>
      </trkpt>
      <trkpt lat="43.53049" lon="5.57535">
        <ele>741</ele>
        <time>2022-02-15T09:39:11.000Z</time>
      </trkpt>
      <trkpt lat="43.53049" lon="5.57535">
        <ele>741</ele>
        <time>2022-02-15T09:39:12.000Z</time>
      </trkpt>
      <trkpt lat="43.53048" lon="5.57535">
        <ele>741</ele>
        <time>2022-02-15T09:39:13.000Z</time>
      </trkpt>
      <trkpt lat="43.53049" lon="5.57535">
        <ele>741</ele>
        <time>2022-02-15T09:39:14.000Z</time>
      </trkpt>
      <trkpt lat="43.53049" lon="5.57535">
        <ele>741</ele>
        <time>2022-02-15T09:39:15.000Z</time>
      </trkpt>
      <trkpt lat="43.53049" lon="5.57535">
        <ele>741</ele>
        <time>2022-02-15T09:39:16.000Z</time>
      </trkpt>
      <trkpt lat="43.53048" lon="5.57535">
        <ele>741</ele>
        <time>2022-02-15T09:39:17.000Z</time>
      </trkpt>
      <trkpt lat="43.53048" lon="5.57535">
        <ele>741</ele>
        <time>2022-02-15T09:39:18.000Z</time>
      </trkpt>
      <trkpt lat="43.53048" lon="5.57535">
        <ele>741</ele>
        <time>2022-02-15T09:39:19.000Z</time>
      </trkpt>
      <trkpt lat="43.53048" lon="5.57535">
        <ele>741</ele>
        <time>2022-02-15T09:39:20.000Z</time>
      </trkpt>
      <trkpt lat="43.53048" lon="5.57535">
        <ele>742</ele>
        <time>2022-02-15T09:39:21.000Z</time>
      </trkpt>
      <trkpt lat="43.53048" lon="5.57535">
        <ele>742</ele>
        <time>2022-02-15T09:39:22.000Z</time>
      </trkpt>
      <trkpt lat="43.53048" lon="5.57535">
        <ele>742</ele>
        <time>2022-02-15T09:39:23.000Z</time>
      </trkpt>
      <trkpt lat="43.53048" lon="5.57535">
        <ele>742</ele>
        <time>2022-02-15T09:39:24.000Z</time>
      </trkpt>
      <trkpt lat="43.53048" lon="5.57535">
        <ele>742</ele>
        <time>2022-02-15T09:39:25.000Z</time>
      </trkpt>
      <trkpt lat="43.53048" lon="5.57534">
        <ele>742</ele>
        <time>2022-02-15T09:39:26.000Z</time>
      </trkpt>
      <trkpt lat="43.53048" lon="5.57534">
        <ele>742</ele>
        <time>2022-02-15T09:39:27.000Z</time>
      </trkpt>
      <trkpt lat="43.53048" lon="5.57534">
        <ele>742</ele>
        <time>2022-02-15T09:39:28.000Z</time>
      </trkpt>
      <trkpt lat="43.53048" lon="5.57534">
        <ele>742</ele>
        <time>2022-02-15T09:39:29.000Z</time>
      </trkpt>
      <trkpt lat="43.53048" lon="5.57534">
        <ele>742</ele>
        <time>2022-02-15T09:39:30.000Z</time>
      </trkpt>
      <trkpt lat="43.53048" lon="5.57534">
        <ele>742</ele>
        <time>2022-02-15T09:39:31.000Z</time>
      </trkpt>
      <trkpt lat="43.53048" lon="5.57534">
        <ele>742</ele>
        <time>2022-02-15T09:39:32.000Z</time>
      </trkpt>
      <trkpt lat="43.53048" lon="5.57534">
        <ele>742</ele>
        <time>2022-02-15T09:39:33.000Z</time>
      </trkpt>
      <trkpt lat="43.53048" lon="5.57534">
        <ele>742</ele>
        <time>2022-02-15T09:39:34.000Z</time>
      </trkpt>
      <trkpt lat="43.53048" lon="5.57534">
        <ele>742</ele>
        <time>2022-02-15T09:39:35.000Z</time>
      </trkpt>
      <trkpt lat="43.53048" lon="5.57534">
        <ele>742</ele>
        <time>2022-02-15T09:39:36.000Z</time>
      </trkpt>
      <trkpt lat="43.53048" lon="5.57534">
        <ele>742</ele>
        <time>2022-02-15T09:39:37.000Z</time>
      </trkpt>
      <trkpt lat="43.53048" lon="5.57534">
        <ele>742</ele>
        <time>2022-02-15T09:39:38.000Z</time>
      </trkpt>
      <trkpt lat="43.53048" lon="5.57534">
        <ele>742</ele>
        <time>2022-02-15T09:39:39.000Z</time>
      </trkpt>
      <trkpt lat="43.53048" lon="5.57534">
        <ele>742</ele>
        <time>2022-02-15T09:39:40.000Z</time>
      </trkpt>
      <trkpt lat="43.53048" lon="5.57534">
        <ele>742</ele>
        <time>2022-02-15T09:39:41.000Z</time>
      </trkpt>
      <trkpt lat="43.53048" lon="5.57534">
        <ele>742</ele>
        <time>2022-02-15T09:39:42.000Z</time>
      </trkpt>
      <trkpt lat="43.53048" lon="5.57534">
        <ele>742</ele>
        <time>2022-02-15T09:39:43.000Z</time>
      </trkpt>
      <trkpt lat="43.53048" lon="5.57535">
        <ele>741</ele>
        <time>2022-02-15T09:39:44.000Z</time>
      </trkpt>
      <trkpt lat="43.53048" lon="5.57535">
        <ele>742</ele>
        <time>2022-02-15T09:39:45.000Z</time>
      </trkpt>
      <trkpt lat="43.53048" lon="5.57535">
        <ele>742</ele>
        <time>2022-02-15T09:39:46.000Z</time>
      </trkpt>
      <trkpt lat="43.53048" lon="5.57535">
        <ele>742</ele>
        <time>2022-02-15T09:39:47.000Z</time>
      </trkpt>
      <trkpt lat="43.53048" lon="5.57535">
        <ele>742</ele>
        <time>2022-02-15T09:39:48.000Z</time>
      </trkpt>
      <trkpt lat="43.53048" lon="5.57536">
        <ele>742</ele>
        <time>2022-02-15T09:39:49.000Z</time>
      </trkpt>
      <trkpt lat="43.53048" lon="5.57536">
        <ele>742</ele>
        <time>2022-02-15T09:39:50.000Z</time>
      </trkpt>
      <trkpt lat="43.53048" lon="5.57536">
        <ele>742</ele>
        <time>2022-02-15T09:39:51.000Z</time>
      </trkpt>
      <trkpt lat="43.53048" lon="5.57536">
        <ele>742</ele>
        <time>2022-02-15T09:39:52.000Z</time>
      </trkpt>
      <trkpt lat="43.53048" lon="5.57535">
        <ele>742</ele>
        <time>2022-02-15T09:39:53.000Z</time>
      </trkpt>
      <trkpt lat="43.53048" lon="5.57536">
        <ele>742</ele>
        <time>2022-02-15T09:39:54.000Z</time>
      </trkpt>
      <trkpt lat="43.53048" lon="5.57536">
        <ele>742</ele>
        <time>2022-02-15T09:39:55.000Z</time>
      </trkpt>
      <trkpt lat="43.53048" lon="5.57536">
        <ele>742</ele>
        <time>2022-02-15T09:39:56.000Z</time>
      </trkpt>
      <trkpt lat="43.53048" lon="5.57535">
        <ele>742</ele>
        <time>2022-02-15T09:39:57.000Z</time>
      </trkpt>
      <trkpt lat="43.53048" lon="5.57535">
        <ele>742</ele>
        <time>2022-02-15T09:39:58.000Z</time>
      </trkpt>
      <trkpt lat="43.53048" lon="5.57535">
        <ele>742</ele>
        <time>2022-02-15T09:39:59.000Z</time>
      </trkpt>
      <trkpt lat="43.53048" lon="5.57535">
        <ele>742</ele>
        <time>2022-02-15T09:40:00.000Z</time>
      </trkpt>
      <trkpt lat="43.53048" lon="5.57535">
        <ele>742</ele>
        <time>2022-02-15T09:40:01.000Z</time>
      </trkpt>
      <trkpt lat="43.53048" lon="5.57535">
        <ele>742</ele>
        <time>2022-02-15T09:40:02.000Z</time>
      </trkpt>
      <trkpt lat="43.53048" lon="5.57535">
        <ele>742</ele>
        <time>2022-02-15T09:40:03.000Z</time>
      </trkpt>
      <trkpt lat="43.53048" lon="5.57535">
        <ele>742</ele>
        <time>2022-02-15T09:40:04.000Z</time>
      </trkpt>
      <trkpt lat="43.53048" lon="5.57535">
        <ele>743</ele>
        <time>2022-02-15T09:40:05.000Z</time>
      </trkpt>
      <trkpt lat="43.53048" lon="5.57535">
        <ele>743</ele>
        <time>2022-02-15T09:40:06.000Z</time>
      </trkpt>
      <trkpt lat="43.53048" lon="5.57535">
        <ele>743</ele>
        <time>2022-02-15T09:40:07.000Z</time>
      </trkpt>
      <trkpt lat="43.53048" lon="5.57535">
        <ele>743</ele>
        <time>2022-02-15T09:40:08.000Z</time>
      </trkpt>
      <trkpt lat="43.53048" lon="5.57535">
        <ele>743</ele>
        <time>2022-02-15T09:40:09.000Z</time>
      </trkpt>
      <trkpt lat="43.53048" lon="5.57535">
        <ele>743</ele>
        <time>2022-02-15T09:40:10.000Z</time>
      </trkpt>
      <trkpt lat="43.53048" lon="5.57535">
        <ele>743</ele>
        <time>2022-02-15T09:40:11.000Z</time>
      </trkpt>
      <trkpt lat="43.53048" lon="5.57535">
        <ele>743</ele>
        <time>2022-02-15T09:40:12.000Z</time>
      </trkpt>
      <trkpt lat="43.53048" lon="5.57535">
        <ele>743</ele>
        <time>2022-02-15T09:40:13.000Z</time>
      </trkpt>
      <trkpt lat="43.53048" lon="5.57535">
        <ele>743</ele>
        <time>2022-02-15T09:40:14.000Z</time>
      </trkpt>
      <trkpt lat="43.53048" lon="5.57535">
        <ele>743</ele>
        <time>2022-02-15T09:40:15.000Z</time>
      </trkpt>
      <trkpt lat="43.53048" lon="5.57535">
        <ele>743</ele>
        <time>2022-02-15T09:40:16.000Z</time>
      </trkpt>
      <trkpt lat="43.53048" lon="5.57535">
        <ele>743</ele>
        <time>2022-02-15T09:40:17.000Z</time>
      </trkpt>
      <trkpt lat="43.53048" lon="5.57535">
        <ele>743</ele>
        <time>2022-02-15T09:40:18.000Z</time>
      </trkpt>
      <trkpt lat="43.53048" lon="5.57535">
        <ele>743</ele>
        <time>2022-02-15T09:40:19.000Z</time>
      </trkpt>
      <trkpt lat="43.53048" lon="5.57535">
        <ele>743</ele>
        <time>2022-02-15T09:40:20.000Z</time>
      </trkpt>
      <trkpt lat="43.53048" lon="5.57535">
        <ele>743</ele>
        <time>2022-02-15T09:40:21.000Z</time>
      </trkpt>
      <trkpt lat="43.53048" lon="5.57535">
        <ele>743</ele>
        <time>2022-02-15T09:40:22.000Z</time>
      </trkpt>
      <trkpt lat="43.53048" lon="5.57535">
        <ele>743</ele>
        <time>2022-02-15T09:40:23.000Z</time>
      </trkpt>
      <trkpt lat="43.53048" lon="5.57535">
        <ele>743</ele>
        <time>2022-02-15T09:40:24.000Z</time>
      </trkpt>
      <trkpt lat="43.53047" lon="5.57535">
        <ele>743</ele>
        <time>2022-02-15T09:40:25.000Z</time>
      </trkpt>
      <trkpt lat="43.53047" lon="5.57534">
        <ele>743</ele>
        <time>2022-02-15T09:40:26.000Z</time>
      </trkpt>
      <trkpt lat="43.53047" lon="5.57534">
        <ele>743</ele>
        <time>2022-02-15T09:40:27.000Z</time>
      </trkpt>
      <trkpt lat="43.53047" lon="5.57534">
        <ele>743</ele>
        <time>2022-02-15T09:40:28.000Z</time>
      </trkpt>
      <trkpt lat="43.53047" lon="5.57534">
        <ele>743</ele>
        <time>2022-02-15T09:40:29.000Z</time>
      </trkpt>
      <trkpt lat="43.53047" lon="5.57534">
        <ele>743</ele>
        <time>2022-02-15T09:40:30.000Z</time>
      </trkpt>
      <trkpt lat="43.53047" lon="5.57534">
        <ele>743</ele>
        <time>2022-02-15T09:40:31.000Z</time>
      </trkpt>
      <trkpt lat="43.53047" lon="5.57534">
        <ele>743</ele>
        <time>2022-02-15T09:40:32.000Z</time>
      </trkpt>
      <trkpt lat="43.53047" lon="5.57534">
        <ele>743</ele>
        <time>2022-02-15T09:40:33.000Z</time>
      </trkpt>
      <trkpt lat="43.53047" lon="5.57534">
        <ele>743</ele>
        <time>2022-02-15T09:40:34.000Z</time>
      </trkpt>
      <trkpt lat="43.53047" lon="5.57534">
        <ele>743</ele>
        <time>2022-02-15T09:40:35.000Z</time>
      </trkpt>
      <trkpt lat="43.53047" lon="5.57534">
        <ele>744</ele>
        <time>2022-02-15T09:40:36.000Z</time>
      </trkpt>
      <trkpt lat="43.53047" lon="5.57534">
        <ele>744</ele>
        <time>2022-02-15T09:40:37.000Z</time>
      </trkpt>
      <trkpt lat="43.53047" lon="5.57534">
        <ele>744</ele>
        <time>2022-02-15T09:40:38.000Z</time>
      </trkpt>
      <trkpt lat="43.53047" lon="5.57534">
        <ele>744</ele>
        <time>2022-02-15T09:40:39.000Z</time>
      </trkpt>
      <trkpt lat="43.53047" lon="5.57534">
        <ele>744</ele>
        <time>2022-02-15T09:40:40.000Z</time>
      </trkpt>
      <trkpt lat="43.53047" lon="5.57534">
        <ele>743</ele>
        <time>2022-02-15T09:40:41.000Z</time>
      </trkpt>
      <trkpt lat="43.53047" lon="5.57534">
        <ele>743</ele>
        <time>2022-02-15T09:40:42.000Z</time>
      </trkpt>
      <trkpt lat="43.53048" lon="5.57534">
        <ele>743</ele>
        <time>2022-02-15T09:40:43.000Z</time>
      </trkpt>
      <trkpt lat="43.53048" lon="5.57534">
        <ele>743</ele>
        <time>2022-02-15T09:40:44.000Z</time>
      </trkpt>
      <trkpt lat="43.53047" lon="5.57534">
        <ele>743</ele>
        <time>2022-02-15T09:40:45.000Z</time>
      </trkpt>
      <trkpt lat="43.53047" lon="5.57534">
        <ele>743</ele>
        <time>2022-02-15T09:40:46.000Z</time>
      </trkpt>
      <trkpt lat="43.53047" lon="5.57534">
        <ele>743</ele>
        <time>2022-02-15T09:40:47.000Z</time>
      </trkpt>
      <trkpt lat="43.53047" lon="5.57534">
        <ele>743</ele>
        <time>2022-02-15T09:40:48.000Z</time>
      </trkpt>
      <trkpt lat="43.53047" lon="5.57534">
        <ele>743</ele>
        <time>2022-02-15T09:40:49.000Z</time>
      </trkpt>
      <trkpt lat="43.53047" lon="5.57534">
        <ele>743</ele>
        <time>2022-02-15T09:40:50.000Z</time>
      </trkpt>
      <trkpt lat="43.53048" lon="5.57535">
        <ele>743</ele>
        <time>2022-02-15T09:40:51.000Z</time>
      </trkpt>
      <trkpt lat="43.53048" lon="5.57535">
        <ele>743</ele>
        <time>2022-02-15T09:40:52.000Z</time>
      </trkpt>
      <trkpt lat="43.53048" lon="5.57535">
        <ele>743</ele>
        <time>2022-02-15T09:40:53.000Z</time>
      </trkpt>
      <trkpt lat="43.53048" lon="5.57535">
        <ele>743</ele>
        <time>2022-02-15T09:40:54.000Z</time>
      </trkpt>
      <trkpt lat="43.53048" lon="5.57534">
        <ele>743</ele>
        <time>2022-02-15T09:40:55.000Z</time>
      </trkpt>
      <trkpt lat="43.53048" lon="5.57534">
        <ele>743</ele>
        <time>2022-02-15T09:40:56.000Z</time>
      </trkpt>
      <trkpt lat="43.53048" lon="5.57534">
        <ele>743</ele>
        <time>2022-02-15T09:40:57.000Z</time>
      </trkpt>
      <trkpt lat="43.53047" lon="5.57535">
        <ele>743</ele>
        <time>2022-02-15T09:40:58.000Z</time>
      </trkpt>
      <trkpt lat="43.53047" lon="5.57535">
        <ele>743</ele>
        <time>2022-02-15T09:40:59.000Z</time>
      </trkpt>
      <trkpt lat="43.53047" lon="5.57535">
        <ele>743</ele>
        <time>2022-02-15T09:41:00.000Z</time>
      </trkpt>
      <trkpt lat="43.53047" lon="5.57535">
        <ele>743</ele>
        <time>2022-02-15T09:41:01.000Z</time>
      </trkpt>
      <trkpt lat="43.53047" lon="5.57535">
        <ele>742</ele>
        <time>2022-02-15T09:41:02.000Z</time>
      </trkpt>
      <trkpt lat="43.53048" lon="5.57534">
        <ele>742</ele>
        <time>2022-02-15T09:41:03.000Z</time>
      </trkpt>
      <trkpt lat="43.53048" lon="5.57534">
        <ele>742</ele>
        <time>2022-02-15T09:41:04.000Z</time>
      </trkpt>
      <trkpt lat="43.53048" lon="5.57535">
        <ele>743</ele>
        <time>2022-02-15T09:41:05.000Z</time>
      </trkpt>
      <trkpt lat="43.53048" lon="5.57535">
        <ele>742</ele>
        <time>2022-02-15T09:41:06.000Z</time>
      </trkpt>
      <trkpt lat="43.53048" lon="5.57535">
        <ele>742</ele>
        <time>2022-02-15T09:41:07.000Z</time>
      </trkpt>
      <trkpt lat="43.53048" lon="5.57535">
        <ele>742</ele>
        <time>2022-02-15T09:41:08.000Z</time>
      </trkpt>
      <trkpt lat="43.53048" lon="5.57535">
        <ele>742</ele>
        <time>2022-02-15T09:41:09.000Z</time>
      </trkpt>
      <trkpt lat="43.53048" lon="5.57535">
        <ele>742</ele>
        <time>2022-02-15T09:41:10.000Z</time>
      </trkpt>
      <trkpt lat="43.53048" lon="5.57535">
        <ele>742</ele>
        <time>2022-02-15T09:41:11.000Z</time>
      </trkpt>
      <trkpt lat="43.53048" lon="5.57535">
        <ele>742</ele>
        <time>2022-02-15T09:41:12.000Z</time>
      </trkpt>
      <trkpt lat="43.53048" lon="5.57535">
        <ele>742</ele>
        <time>2022-02-15T09:41:13.000Z</time>
      </trkpt>
      <trkpt lat="43.53048" lon="5.57535">
        <ele>742</ele>
        <time>2022-02-15T09:41:14.000Z</time>
      </trkpt>
      <trkpt lat="43.53048" lon="5.57535">
        <ele>742</ele>
        <time>2022-02-15T09:41:15.000Z</time>
      </trkpt>
      <trkpt lat="43.53048" lon="5.57534">
        <ele>742</ele>
        <time>2022-02-15T09:41:16.000Z</time>
      </trkpt>
      <trkpt lat="43.53048" lon="5.57534">
        <ele>742</ele>
        <time>2022-02-15T09:41:17.000Z</time>
      </trkpt>
      <trkpt lat="43.53048" lon="5.57534">
        <ele>742</ele>
        <time>2022-02-15T09:41:18.000Z</time>
      </trkpt>
      <trkpt lat="43.53048" lon="5.57534">
        <ele>742</ele>
        <time>2022-02-15T09:41:19.000Z</time>
      </trkpt>
      <trkpt lat="43.53048" lon="5.57534">
        <ele>742</ele>
        <time>2022-02-15T09:41:20.000Z</time>
      </trkpt>
      <trkpt lat="43.53048" lon="5.57534">
        <ele>742</ele>
        <time>2022-02-15T09:41:21.000Z</time>
      </trkpt>
      <trkpt lat="43.53048" lon="5.57534">
        <ele>742</ele>
        <time>2022-02-15T09:41:22.000Z</time>
      </trkpt>
      <trkpt lat="43.53048" lon="5.57535">
        <ele>742</ele>
        <time>2022-02-15T09:41:23.000Z</time>
      </trkpt>
      <trkpt lat="43.53048" lon="5.57535">
        <ele>742</ele>
        <time>2022-02-15T09:41:24.000Z</time>
      </trkpt>
      <trkpt lat="43.53048" lon="5.57535">
        <ele>742</ele>
        <time>2022-02-15T09:41:25.000Z</time>
      </trkpt>
      <trkpt lat="43.53048" lon="5.57535">
        <ele>742</ele>
        <time>2022-02-15T09:41:26.000Z</time>
      </trkpt>
      <trkpt lat="43.53048" lon="5.57535">
        <ele>742</ele>
        <time>2022-02-15T09:41:27.000Z</time>
      </trkpt>
      <trkpt lat="43.53048" lon="5.57535">
        <ele>742</ele>
        <time>2022-02-15T09:41:28.000Z</time>
      </trkpt>
      <trkpt lat="43.53048" lon="5.57535">
        <ele>742</ele>
        <time>2022-02-15T09:41:29.000Z</time>
      </trkpt>
      <trkpt lat="43.53048" lon="5.57535">
        <ele>742</ele>
        <time>2022-02-15T09:41:30.000Z</time>
      </trkpt>
      <trkpt lat="43.53048" lon="5.57535">
        <ele>742</ele>
        <time>2022-02-15T09:41:31.000Z</time>
      </trkpt>
      <trkpt lat="43.53048" lon="5.57535">
        <ele>742</ele>
        <time>2022-02-15T09:41:32.000Z</time>
      </trkpt>
      <trkpt lat="43.53048" lon="5.57535">
        <ele>742</ele>
        <time>2022-02-15T09:41:33.000Z</time>
      </trkpt>
      <trkpt lat="43.53048" lon="5.57535">
        <ele>742</ele>
        <time>2022-02-15T09:41:34.000Z</time>
      </trkpt>
      <trkpt lat="43.53048" lon="5.57535">
        <ele>742</ele>
        <time>2022-02-15T09:41:35.000Z</time>
      </trkpt>
      <trkpt lat="43.53048" lon="5.57535">
        <ele>742</ele>
        <time>2022-02-15T09:41:36.000Z</time>
      </trkpt>
      <trkpt lat="43.53048" lon="5.57535">
        <ele>742</ele>
        <time>2022-02-15T09:41:37.000Z</time>
      </trkpt>
      <trkpt lat="43.53049" lon="5.57535">
        <ele>742</ele>
        <time>2022-02-15T09:41:38.000Z</time>
      </trkpt>
      <trkpt lat="43.53048" lon="5.57535">
        <ele>742</ele>
        <time>2022-02-15T09:41:39.000Z</time>
      </trkpt>
      <trkpt lat="43.53049" lon="5.57535">
        <ele>742</ele>
        <time>2022-02-15T09:41:40.000Z</time>
      </trkpt>
      <trkpt lat="43.53049" lon="5.57535">
        <ele>743</ele>
        <time>2022-02-15T09:41:41.000Z</time>
      </trkpt>
      <trkpt lat="43.53048" lon="5.57535">
        <ele>742</ele>
        <time>2022-02-15T09:41:42.000Z</time>
      </trkpt>
      <trkpt lat="43.53048" lon="5.57535">
        <ele>743</ele>
        <time>2022-02-15T09:41:43.000Z</time>
      </trkpt>
      <trkpt lat="43.53048" lon="5.57535">
        <ele>743</ele>
        <time>2022-02-15T09:41:44.000Z</time>
      </trkpt>
      <trkpt lat="43.53048" lon="5.57535">
        <ele>743</ele>
        <time>2022-02-15T09:41:45.000Z</time>
      </trkpt>
      <trkpt lat="43.53048" lon="5.57535">
        <ele>743</ele>
        <time>2022-02-15T09:41:46.000Z</time>
      </trkpt>
      <trkpt lat="43.53048" lon="5.57535">
        <ele>743</ele>
        <time>2022-02-15T09:41:47.000Z</time>
      </trkpt>
      <trkpt lat="43.53049" lon="5.57535">
        <ele>743</ele>
        <time>2022-02-15T09:41:48.000Z</time>
      </trkpt>
      <trkpt lat="43.53049" lon="5.57535">
        <ele>743</ele>
        <time>2022-02-15T09:41:49.000Z</time>
      </trkpt>
      <trkpt lat="43.53048" lon="5.57535">
        <ele>743</ele>
        <time>2022-02-15T09:41:50.000Z</time>
      </trkpt>
      <trkpt lat="43.53048" lon="5.57535">
        <ele>743</ele>
        <time>2022-02-15T09:41:51.000Z</time>
      </trkpt>
      <trkpt lat="43.53048" lon="5.57535">
        <ele>743</ele>
        <time>2022-02-15T09:41:52.000Z</time>
      </trkpt>
      <trkpt lat="43.53048" lon="5.57535">
        <ele>743</ele>
        <time>2022-02-15T09:41:53.000Z</time>
      </trkpt>
      <trkpt lat="43.53048" lon="5.57535">
        <ele>743</ele>
        <time>2022-02-15T09:41:54.000Z</time>
      </trkpt>
      <trkpt lat="43.53048" lon="5.57535">
        <ele>743</ele>
        <time>2022-02-15T09:41:55.000Z</time>
      </trkpt>
      <trkpt lat="43.53048" lon="5.57535">
        <ele>743</ele>
        <time>2022-02-15T09:41:56.000Z</time>
      </trkpt>
      <trkpt lat="43.53048" lon="5.57535">
        <ele>743</ele>
        <time>2022-02-15T09:41:57.000Z</time>
      </trkpt>
      <trkpt lat="43.53048" lon="5.57535">
        <ele>743</ele>
        <time>2022-02-15T09:41:58.000Z</time>
      </trkpt>
      <trkpt lat="43.53048" lon="5.57535">
        <ele>743</ele>
        <time>2022-02-15T09:41:59.000Z</time>
      </trkpt>
      <trkpt lat="43.53048" lon="5.57535">
        <ele>743</ele>
        <time>2022-02-15T09:42:00.000Z</time>
      </trkpt>
      <trkpt lat="43.53048" lon="5.57535">
        <ele>743</ele>
        <time>2022-02-15T09:42:01.000Z</time>
      </trkpt>
      <trkpt lat="43.53048" lon="5.57535">
        <ele>743</ele>
        <time>2022-02-15T09:42:02.000Z</time>
      </trkpt>
      <trkpt lat="43.53048" lon="5.57535">
        <ele>743</ele>
        <time>2022-02-15T09:42:03.000Z</time>
      </trkpt>
      <trkpt lat="43.53048" lon="5.57535">
        <ele>743</ele>
        <time>2022-02-15T09:42:04.000Z</time>
      </trkpt>
      <trkpt lat="43.53048" lon="5.57535">
        <ele>743</ele>
        <time>2022-02-15T09:42:05.000Z</time>
      </trkpt>
      <trkpt lat="43.53048" lon="5.57535">
        <ele>743</ele>
        <time>2022-02-15T09:42:06.000Z</time>
      </trkpt>
      <trkpt lat="43.53048" lon="5.57535">
        <ele>743</ele>
        <time>2022-02-15T09:42:07.000Z</time>
      </trkpt>
      <trkpt lat="43.53048" lon="5.57535">
        <ele>743</ele>
        <time>2022-02-15T09:42:08.000Z</time>
      </trkpt>
      <trkpt lat="43.53048" lon="5.57535">
        <ele>743</ele>
        <time>2022-02-15T09:42:09.000Z</time>
      </trkpt>
      <trkpt lat="43.53049" lon="5.57535">
        <ele>743</ele>
        <time>2022-02-15T09:42:10.000Z</time>
      </trkpt>
      <trkpt lat="43.53049" lon="5.57535">
        <ele>743</ele>
        <time>2022-02-15T09:42:11.000Z</time>
      </trkpt>
      <trkpt lat="43.53049" lon="5.57535">
        <ele>743</ele>
        <time>2022-02-15T09:42:12.000Z</time>
      </trkpt>
      <trkpt lat="43.53049" lon="5.57535">
        <ele>743</ele>
        <time>2022-02-15T09:42:13.000Z</time>
      </trkpt>
      <trkpt lat="43.5305" lon="5.57535">
        <ele>743</ele>
        <time>2022-02-15T09:42:14.000Z</time>
      </trkpt>
      <trkpt lat="43.5305" lon="5.57535">
        <ele>743</ele>
        <time>2022-02-15T09:42:15.000Z</time>
      </trkpt>
      <trkpt lat="43.5305" lon="5.57534">
        <ele>743</ele>
        <time>2022-02-15T09:42:16.000Z</time>
      </trkpt>
      <trkpt lat="43.5305" lon="5.57534">
        <ele>744</ele>
        <time>2022-02-15T09:42:17.000Z</time>
      </trkpt>
      <trkpt lat="43.5305" lon="5.57534">
        <ele>744</ele>
        <time>2022-02-15T09:42:18.000Z</time>
      </trkpt>
      <trkpt lat="43.53051" lon="5.57533">
        <ele>744</ele>
        <time>2022-02-15T09:42:19.000Z</time>
      </trkpt>
      <trkpt lat="43.53051" lon="5.57533">
        <ele>744</ele>
        <time>2022-02-15T09:42:20.000Z</time>
      </trkpt>
      <trkpt lat="43.53051" lon="5.57533">
        <ele>745</ele>
        <time>2022-02-15T09:42:21.000Z</time>
      </trkpt>
      <trkpt lat="43.53051" lon="5.57532">
        <ele>745</ele>
        <time>2022-02-15T09:42:22.000Z</time>
      </trkpt>
      <trkpt lat="43.53051" lon="5.57532">
        <ele>745</ele>
        <time>2022-02-15T09:42:23.000Z</time>
      </trkpt>
      <trkpt lat="43.53051" lon="5.57532">
        <ele>745</ele>
        <time>2022-02-15T09:42:24.000Z</time>
      </trkpt>
      <trkpt lat="43.53052" lon="5.57532">
        <ele>745</ele>
        <time>2022-02-15T09:42:25.000Z</time>
      </trkpt>
      <trkpt lat="43.53052" lon="5.57532">
        <ele>745</ele>
        <time>2022-02-15T09:42:26.000Z</time>
      </trkpt>
      <trkpt lat="43.53052" lon="5.57532">
        <ele>745</ele>
        <time>2022-02-15T09:42:27.000Z</time>
      </trkpt>
      <trkpt lat="43.53052" lon="5.57532">
        <ele>745</ele>
        <time>2022-02-15T09:42:28.000Z</time>
      </trkpt>
      <trkpt lat="43.53052" lon="5.57532">
        <ele>745</ele>
        <time>2022-02-15T09:42:29.000Z</time>
      </trkpt>
      <trkpt lat="43.53052" lon="5.57532">
        <ele>745</ele>
        <time>2022-02-15T09:42:30.000Z</time>
      </trkpt>
      <trkpt lat="43.53052" lon="5.57532">
        <ele>745</ele>
        <time>2022-02-15T09:42:31.000Z</time>
      </trkpt>
      <trkpt lat="43.53052" lon="5.57532">
        <ele>745</ele>
        <time>2022-02-15T09:42:32.000Z</time>
      </trkpt>
      <trkpt lat="43.53052" lon="5.57532">
        <ele>746</ele>
        <time>2022-02-15T09:42:33.000Z</time>
      </trkpt>
      <trkpt lat="43.53053" lon="5.57532">
        <ele>746</ele>
        <time>2022-02-15T09:42:34.000Z</time>
      </trkpt>
      <trkpt lat="43.53053" lon="5.57531">
        <ele>746</ele>
        <time>2022-02-15T09:42:35.000Z</time>
      </trkpt>
      <trkpt lat="43.53053" lon="5.57531">
        <ele>746</ele>
        <time>2022-02-15T09:42:36.000Z</time>
      </trkpt>
      <trkpt lat="43.53054" lon="5.57531">
        <ele>746</ele>
        <time>2022-02-15T09:42:37.000Z</time>
      </trkpt>
      <trkpt lat="43.53054" lon="5.57531">
        <ele>746</ele>
        <time>2022-02-15T09:42:38.000Z</time>
      </trkpt>
      <trkpt lat="43.53054" lon="5.57531">
        <ele>746</ele>
        <time>2022-02-15T09:42:39.000Z</time>
      </trkpt>
      <trkpt lat="43.53054" lon="5.57531">
        <ele>746</ele>
        <time>2022-02-15T09:42:40.000Z</time>
      </trkpt>
      <trkpt lat="43.53054" lon="5.57531">
        <ele>746</ele>
        <time>2022-02-15T09:42:41.000Z</time>
      </trkpt>
      <trkpt lat="43.53055" lon="5.57531">
        <ele>746</ele>
        <time>2022-02-15T09:42:42.000Z</time>
      </trkpt>
      <trkpt lat="43.53055" lon="5.57531">
        <ele>747</ele>
        <time>2022-02-15T09:42:43.000Z</time>
      </trkpt>
      <trkpt lat="43.53055" lon="5.5753">
        <ele>747</ele>
        <time>2022-02-15T09:42:44.000Z</time>
      </trkpt>
      <trkpt lat="43.53055" lon="5.5753">
        <ele>747</ele>
        <time>2022-02-15T09:42:45.000Z</time>
      </trkpt>
      <trkpt lat="43.53056" lon="5.5753">
        <ele>747</ele>
        <time>2022-02-15T09:42:46.000Z</time>
      </trkpt>
      <trkpt lat="43.53055" lon="5.5753">
        <ele>747</ele>
        <time>2022-02-15T09:42:47.000Z</time>
      </trkpt>
      <trkpt lat="43.53055" lon="5.5753">
        <ele>747</ele>
        <time>2022-02-15T09:42:48.000Z</time>
      </trkpt>
      <trkpt lat="43.53056" lon="5.57531">
        <ele>748</ele>
        <time>2022-02-15T09:42:49.000Z</time>
      </trkpt>
      <trkpt lat="43.53056" lon="5.57531">
        <ele>748</ele>
        <time>2022-02-15T09:42:50.000Z</time>
      </trkpt>
      <trkpt lat="43.53056" lon="5.57532">
        <ele>748</ele>
        <time>2022-02-15T09:42:51.000Z</time>
      </trkpt>
      <trkpt lat="43.53057" lon="5.57532">
        <ele>748</ele>
        <time>2022-02-15T09:42:52.000Z</time>
      </trkpt>
      <trkpt lat="43.53057" lon="5.57532">
        <ele>748</ele>
        <time>2022-02-15T09:42:53.000Z</time>
      </trkpt>
      <trkpt lat="43.53057" lon="5.57532">
        <ele>749</ele>
        <time>2022-02-15T09:42:54.000Z</time>
      </trkpt>
      <trkpt lat="43.53057" lon="5.57532">
        <ele>749</ele>
        <time>2022-02-15T09:42:55.000Z</time>
      </trkpt>
      <trkpt lat="43.53058" lon="5.57532">
        <ele>749</ele>
        <time>2022-02-15T09:42:56.000Z</time>
      </trkpt>
      <trkpt lat="43.53058" lon="5.57531">
        <ele>750</ele>
        <time>2022-02-15T09:42:57.000Z</time>
      </trkpt>
      <trkpt lat="43.53058" lon="5.5753">
        <ele>750</ele>
        <time>2022-02-15T09:42:58.000Z</time>
      </trkpt>
      <trkpt lat="43.53058" lon="5.5753">
        <ele>750</ele>
        <time>2022-02-15T09:42:59.000Z</time>
      </trkpt>
      <trkpt lat="43.53059" lon="5.5753">
        <ele>750</ele>
        <time>2022-02-15T09:43:00.000Z</time>
      </trkpt>
      <trkpt lat="43.53059" lon="5.5753">
        <ele>751</ele>
        <time>2022-02-15T09:43:01.000Z</time>
      </trkpt>
      <trkpt lat="43.53059" lon="5.5753">
        <ele>751</ele>
        <time>2022-02-15T09:43:02.000Z</time>
      </trkpt>
      <trkpt lat="43.53059" lon="5.57529">
        <ele>751</ele>
        <time>2022-02-15T09:43:03.000Z</time>
      </trkpt>
      <trkpt lat="43.53059" lon="5.57529">
        <ele>751</ele>
        <time>2022-02-15T09:43:04.000Z</time>
      </trkpt>
      <trkpt lat="43.53059" lon="5.57529">
        <ele>751</ele>
        <time>2022-02-15T09:43:05.000Z</time>
      </trkpt>
      <trkpt lat="43.53059" lon="5.57529">
        <ele>751</ele>
        <time>2022-02-15T09:43:06.000Z</time>
      </trkpt>
      <trkpt lat="43.53059" lon="5.57529">
        <ele>751</ele>
        <time>2022-02-15T09:43:07.000Z</time>
      </trkpt>
      <trkpt lat="43.53059" lon="5.57529">
        <ele>751</ele>
        <time>2022-02-15T09:43:08.000Z</time>
      </trkpt>
      <trkpt lat="43.53059" lon="5.57529">
        <ele>751</ele>
        <time>2022-02-15T09:43:09.000Z</time>
      </trkpt>
      <trkpt lat="43.53059" lon="5.57529">
        <ele>751</ele>
        <time>2022-02-15T09:43:10.000Z</time>
      </trkpt>
      <trkpt lat="43.53059" lon="5.57529">
        <ele>751</ele>
        <time>2022-02-15T09:43:11.000Z</time>
      </trkpt>
      <trkpt lat="43.53059" lon="5.57529">
        <ele>751</ele>
        <time>2022-02-15T09:43:12.000Z</time>
      </trkpt>
      <trkpt lat="43.53059" lon="5.57529">
        <ele>751</ele>
        <time>2022-02-15T09:43:13.000Z</time>
      </trkpt>
      <trkpt lat="43.53059" lon="5.57529">
        <ele>751</ele>
        <time>2022-02-15T09:43:14.000Z</time>
      </trkpt>
      <trkpt lat="43.5306" lon="5.57529">
        <ele>751</ele>
        <time>2022-02-15T09:43:15.000Z</time>
      </trkpt>
      <trkpt lat="43.5306" lon="5.57529">
        <ele>751</ele>
        <time>2022-02-15T09:43:16.000Z</time>
      </trkpt>
      <trkpt lat="43.5306" lon="5.57529">
        <ele>752</ele>
        <time>2022-02-15T09:43:17.000Z</time>
      </trkpt>
      <trkpt lat="43.5306" lon="5.5753">
        <ele>752</ele>
        <time>2022-02-15T09:43:18.000Z</time>
      </trkpt>
      <trkpt lat="43.5306" lon="5.5753">
        <ele>752</ele>
        <time>2022-02-15T09:43:19.000Z</time>
      </trkpt>
      <trkpt lat="43.5306" lon="5.5753">
        <ele>752</ele>
        <time>2022-02-15T09:43:20.000Z</time>
      </trkpt>
      <trkpt lat="43.5306" lon="5.5753">
        <ele>752</ele>
        <time>2022-02-15T09:43:21.000Z</time>
      </trkpt>
      <trkpt lat="43.5306" lon="5.5753">
        <ele>752</ele>
        <time>2022-02-15T09:43:22.000Z</time>
      </trkpt>
      <trkpt lat="43.5306" lon="5.57531">
        <ele>752</ele>
        <time>2022-02-15T09:43:23.000Z</time>
      </trkpt>
      <trkpt lat="43.5306" lon="5.57531">
        <ele>752</ele>
        <time>2022-02-15T09:43:24.000Z</time>
      </trkpt>
      <trkpt lat="43.53061" lon="5.57532">
        <ele>752</ele>
        <time>2022-02-15T09:43:25.000Z</time>
      </trkpt>
      <trkpt lat="43.53061" lon="5.57532">
        <ele>753</ele>
        <time>2022-02-15T09:43:26.000Z</time>
      </trkpt>
      <trkpt lat="43.53061" lon="5.57533">
        <ele>753</ele>
        <time>2022-02-15T09:43:27.000Z</time>
      </trkpt>
      <trkpt lat="43.53061" lon="5.57534">
        <ele>753</ele>
        <time>2022-02-15T09:43:28.000Z</time>
      </trkpt>
      <trkpt lat="43.53061" lon="5.57535">
        <ele>753</ele>
        <time>2022-02-15T09:43:29.000Z</time>
      </trkpt>
      <trkpt lat="43.53061" lon="5.57536">
        <ele>753</ele>
        <time>2022-02-15T09:43:30.000Z</time>
      </trkpt>
      <trkpt lat="43.53061" lon="5.57536">
        <ele>753</ele>
        <time>2022-02-15T09:43:31.000Z</time>
      </trkpt>
      <trkpt lat="43.53061" lon="5.57537">
        <ele>753</ele>
        <time>2022-02-15T09:43:32.000Z</time>
      </trkpt>
      <trkpt lat="43.53061" lon="5.57537">
        <ele>753</ele>
        <time>2022-02-15T09:43:33.000Z</time>
      </trkpt>
      <trkpt lat="43.53061" lon="5.57538">
        <ele>753</ele>
        <time>2022-02-15T09:43:34.000Z</time>
      </trkpt>
      <trkpt lat="43.53061" lon="5.57538">
        <ele>754</ele>
        <time>2022-02-15T09:43:35.000Z</time>
      </trkpt>
      <trkpt lat="43.53062" lon="5.57539">
        <ele>754</ele>
        <time>2022-02-15T09:43:36.000Z</time>
      </trkpt>
      <trkpt lat="43.53062" lon="5.57539">
        <ele>754</ele>
        <time>2022-02-15T09:43:37.000Z</time>
      </trkpt>
      <trkpt lat="43.53062" lon="5.57539">
        <ele>754</ele>
        <time>2022-02-15T09:43:38.000Z</time>
      </trkpt>
      <trkpt lat="43.53062" lon="5.57539">
        <ele>754</ele>
        <time>2022-02-15T09:43:39.000Z</time>
      </trkpt>
      <trkpt lat="43.53063" lon="5.57539">
        <ele>754</ele>
        <time>2022-02-15T09:43:40.000Z</time>
      </trkpt>
      <trkpt lat="43.53063" lon="5.5754">
        <ele>754</ele>
        <time>2022-02-15T09:43:41.000Z</time>
      </trkpt>
      <trkpt lat="43.53063" lon="5.5754">
        <ele>754</ele>
        <time>2022-02-15T09:43:42.000Z</time>
      </trkpt>
      <trkpt lat="43.53063" lon="5.5754">
        <ele>754</ele>
        <time>2022-02-15T09:43:43.000Z</time>
      </trkpt>
      <trkpt lat="43.53063" lon="5.5754">
        <ele>754</ele>
        <time>2022-02-15T09:43:44.000Z</time>
      </trkpt>
      <trkpt lat="43.53063" lon="5.5754">
        <ele>754</ele>
        <time>2022-02-15T09:43:45.000Z</time>
      </trkpt>
      <trkpt lat="43.53063" lon="5.5754">
        <ele>754</ele>
        <time>2022-02-15T09:43:46.000Z</time>
      </trkpt>
      <trkpt lat="43.53063" lon="5.5754">
        <ele>754</ele>
        <time>2022-02-15T09:43:47.000Z</time>
      </trkpt>
      <trkpt lat="43.53063" lon="5.5754">
        <ele>754</ele>
        <time>2022-02-15T09:43:48.000Z</time>
      </trkpt>
      <trkpt lat="43.53063" lon="5.5754">
        <ele>754</ele>
        <time>2022-02-15T09:43:49.000Z</time>
      </trkpt>
      <trkpt lat="43.53063" lon="5.5754">
        <ele>754</ele>
        <time>2022-02-15T09:43:50.000Z</time>
      </trkpt>
      <trkpt lat="43.53063" lon="5.57541">
        <ele>754</ele>
        <time>2022-02-15T09:43:51.000Z</time>
      </trkpt>
      <trkpt lat="43.53063" lon="5.57541">
        <ele>754</ele>
        <time>2022-02-15T09:43:52.000Z</time>
      </trkpt>
      <trkpt lat="43.53063" lon="5.57541">
        <ele>754</ele>
        <time>2022-02-15T09:43:53.000Z</time>
      </trkpt>
      <trkpt lat="43.53063" lon="5.57541">
        <ele>754</ele>
        <time>2022-02-15T09:43:54.000Z</time>
      </trkpt>
      <trkpt lat="43.53063" lon="5.57541">
        <ele>754</ele>
        <time>2022-02-15T09:43:55.000Z</time>
      </trkpt>
      <trkpt lat="43.53063" lon="5.57541">
        <ele>754</ele>
        <time>2022-02-15T09:43:56.000Z</time>
      </trkpt>
      <trkpt lat="43.53063" lon="5.57541">
        <ele>754</ele>
        <time>2022-02-15T09:43:57.000Z</time>
      </trkpt>
      <trkpt lat="43.53063" lon="5.57541">
        <ele>754</ele>
        <time>2022-02-15T09:43:58.000Z</time>
      </trkpt>
      <trkpt lat="43.53063" lon="5.57541">
        <ele>755</ele>
        <time>2022-02-15T09:43:59.000Z</time>
      </trkpt>
      <trkpt lat="43.53063" lon="5.57541">
        <ele>755</ele>
        <time>2022-02-15T09:44:00.000Z</time>
      </trkpt>
      <trkpt lat="43.53063" lon="5.57541">
        <ele>755</ele>
        <time>2022-02-15T09:44:01.000Z</time>
      </trkpt>
      <trkpt lat="43.53063" lon="5.57541">
        <ele>755</ele>
        <time>2022-02-15T09:44:02.000Z</time>
      </trkpt>
      <trkpt lat="43.53064" lon="5.57541">
        <ele>755</ele>
        <time>2022-02-15T09:44:03.000Z</time>
      </trkpt>
      <trkpt lat="43.53064" lon="5.57541">
        <ele>755</ele>
        <time>2022-02-15T09:44:04.000Z</time>
      </trkpt>
      <trkpt lat="43.53064" lon="5.57541">
        <ele>755</ele>
        <time>2022-02-15T09:44:05.000Z</time>
      </trkpt>
      <trkpt lat="43.53064" lon="5.57541">
        <ele>755</ele>
        <time>2022-02-15T09:44:06.000Z</time>
      </trkpt>
      <trkpt lat="43.53064" lon="5.57541">
        <ele>755</ele>
        <time>2022-02-15T09:44:07.000Z</time>
      </trkpt>
      <trkpt lat="43.53064" lon="5.57541">
        <ele>754</ele>
        <time>2022-02-15T09:44:08.000Z</time>
      </trkpt>
      <trkpt lat="43.53064" lon="5.57541">
        <ele>754</ele>
        <time>2022-02-15T09:44:09.000Z</time>
      </trkpt>
      <trkpt lat="43.53064" lon="5.57541">
        <ele>754</ele>
        <time>2022-02-15T09:44:10.000Z</time>
      </trkpt>
      <trkpt lat="43.53064" lon="5.57541">
        <ele>754</ele>
        <time>2022-02-15T09:44:11.000Z</time>
      </trkpt>
      <trkpt lat="43.53064" lon="5.57541">
        <ele>754</ele>
        <time>2022-02-15T09:44:12.000Z</time>
      </trkpt>
      <trkpt lat="43.53064" lon="5.57541">
        <ele>754</ele>
        <time>2022-02-15T09:44:13.000Z</time>
      </trkpt>
      <trkpt lat="43.53064" lon="5.57541">
        <ele>754</ele>
        <time>2022-02-15T09:44:14.000Z</time>
      </trkpt>
      <trkpt lat="43.53064" lon="5.57541">
        <ele>754</ele>
        <time>2022-02-15T09:44:15.000Z</time>
      </trkpt>
      <trkpt lat="43.53064" lon="5.57541">
        <ele>754</ele>
        <time>2022-02-15T09:44:16.000Z</time>
      </trkpt>
      <trkpt lat="43.53064" lon="5.57541">
        <ele>754</ele>
        <time>2022-02-15T09:44:17.000Z</time>
      </trkpt>
      <trkpt lat="43.53064" lon="5.57541">
        <ele>754</ele>
        <time>2022-02-15T09:44:18.000Z</time>
      </trkpt>
      <trkpt lat="43.53064" lon="5.57541">
        <ele>754</ele>
        <time>2022-02-15T09:44:19.000Z</time>
      </trkpt>
      <trkpt lat="43.53064" lon="5.57541">
        <ele>754</ele>
        <time>2022-02-15T09:44:20.000Z</time>
      </trkpt>
      <trkpt lat="43.53064" lon="5.57541">
        <ele>754</ele>
        <time>2022-02-15T09:44:21.000Z</time>
      </trkpt>
      <trkpt lat="43.53064" lon="5.57541">
        <ele>754</ele>
        <time>2022-02-15T09:44:22.000Z</time>
      </trkpt>
      <trkpt lat="43.53064" lon="5.57541">
        <ele>754</ele>
        <time>2022-02-15T09:44:23.000Z</time>
      </trkpt>
      <trkpt lat="43.53064" lon="5.57541">
        <ele>754</ele>
        <time>2022-02-15T09:44:24.000Z</time>
      </trkpt>
      <trkpt lat="43.53064" lon="5.57541">
        <ele>754</ele>
        <time>2022-02-15T09:44:25.000Z</time>
      </trkpt>
      <trkpt lat="43.53064" lon="5.57541">
        <ele>754</ele>
        <time>2022-02-15T09:44:26.000Z</time>
      </trkpt>
      <trkpt lat="43.53064" lon="5.57541">
        <ele>754</ele>
        <time>2022-02-15T09:44:27.000Z</time>
      </trkpt>
      <trkpt lat="43.53064" lon="5.57541">
        <ele>754</ele>
        <time>2022-02-15T09:44:28.000Z</time>
      </trkpt>
      <trkpt lat="43.53064" lon="5.57541">
        <ele>754</ele>
        <time>2022-02-15T09:44:29.000Z</time>
      </trkpt>
      <trkpt lat="43.53064" lon="5.57541">
        <ele>754</ele>
        <time>2022-02-15T09:44:30.000Z</time>
      </trkpt>
      <trkpt lat="43.53064" lon="5.57541">
        <ele>754</ele>
        <time>2022-02-15T09:44:31.000Z</time>
      </trkpt>
      <trkpt lat="43.53064" lon="5.57541">
        <ele>754</ele>
        <time>2022-02-15T09:44:32.000Z</time>
      </trkpt>
      <trkpt lat="43.53064" lon="5.57541">
        <ele>754</ele>
        <time>2022-02-15T09:44:33.000Z</time>
      </trkpt>
      <trkpt lat="43.53064" lon="5.57541">
        <ele>754</ele>
        <time>2022-02-15T09:44:34.000Z</time>
      </trkpt>
      <trkpt lat="43.53064" lon="5.57541">
        <ele>755</ele>
        <time>2022-02-15T09:44:35.000Z</time>
      </trkpt>
      <trkpt lat="43.53064" lon="5.57541">
        <ele>755</ele>
        <time>2022-02-15T09:44:36.000Z</time>
      </trkpt>
      <trkpt lat="43.53064" lon="5.57541">
        <ele>755</ele>
        <time>2022-02-15T09:44:37.000Z</time>
      </trkpt>
      <trkpt lat="43.53064" lon="5.57541">
        <ele>755</ele>
        <time>2022-02-15T09:44:38.000Z</time>
      </trkpt>
      <trkpt lat="43.53064" lon="5.57541">
        <ele>755</ele>
        <time>2022-02-15T09:44:39.000Z</time>
      </trkpt>
      <trkpt lat="43.53064" lon="5.57541">
        <ele>755</ele>
        <time>2022-02-15T09:44:40.000Z</time>
      </trkpt>
      <trkpt lat="43.53064" lon="5.57541">
        <ele>755</ele>
        <time>2022-02-15T09:44:41.000Z</time>
      </trkpt>
      <trkpt lat="43.53064" lon="5.57541">
        <ele>755</ele>
        <time>2022-02-15T09:44:42.000Z</time>
      </trkpt>
      <trkpt lat="43.53064" lon="5.57541">
        <ele>755</ele>
        <time>2022-02-15T09:44:43.000Z</time>
      </trkpt>
      <trkpt lat="43.53064" lon="5.57541">
        <ele>755</ele>
        <time>2022-02-15T09:44:44.000Z</time>
      </trkpt>
      <trkpt lat="43.53064" lon="5.57541">
        <ele>755</ele>
        <time>2022-02-15T09:44:45.000Z</time>
      </trkpt>
      <trkpt lat="43.53064" lon="5.57541">
        <ele>755</ele>
        <time>2022-02-15T09:44:46.000Z</time>
      </trkpt>
      <trkpt lat="43.53064" lon="5.57541">
        <ele>754</ele>
        <time>2022-02-15T09:44:47.000Z</time>
      </trkpt>
      <trkpt lat="43.53064" lon="5.57541">
        <ele>755</ele>
        <time>2022-02-15T09:44:48.000Z</time>
      </trkpt>
      <trkpt lat="43.53064" lon="5.57541">
        <ele>755</ele>
        <time>2022-02-15T09:44:49.000Z</time>
      </trkpt>
      <trkpt lat="43.53064" lon="5.57541">
        <ele>755</ele>
        <time>2022-02-15T09:44:50.000Z</time>
      </trkpt>
      <trkpt lat="43.53064" lon="5.57542">
        <ele>755</ele>
        <time>2022-02-15T09:44:51.000Z</time>
      </trkpt>
      <trkpt lat="43.53065" lon="5.57542">
        <ele>755</ele>
        <time>2022-02-15T09:44:52.000Z</time>
      </trkpt>
      <trkpt lat="43.53065" lon="5.57542">
        <ele>755</ele>
        <time>2022-02-15T09:44:53.000Z</time>
      </trkpt>
      <trkpt lat="43.53066" lon="5.57542">
        <ele>755</ele>
        <time>2022-02-15T09:44:54.000Z</time>
      </trkpt>
      <trkpt lat="43.53066" lon="5.57542">
        <ele>755</ele>
        <time>2022-02-15T09:44:55.000Z</time>
      </trkpt>
      <trkpt lat="43.53066" lon="5.57542">
        <ele>755</ele>
        <time>2022-02-15T09:44:56.000Z</time>
      </trkpt>
      <trkpt lat="43.53066" lon="5.57542">
        <ele>755</ele>
        <time>2022-02-15T09:44:57.000Z</time>
      </trkpt>
      <trkpt lat="43.53066" lon="5.57542">
        <ele>755</ele>
        <time>2022-02-15T09:44:58.000Z</time>
      </trkpt>
      <trkpt lat="43.53066" lon="5.57542">
        <ele>755</ele>
        <time>2022-02-15T09:44:59.000Z</time>
      </trkpt>
      <trkpt lat="43.53066" lon="5.57542">
        <ele>755</ele>
        <time>2022-02-15T09:45:00.000Z</time>
      </trkpt>
      <trkpt lat="43.53066" lon="5.57542">
        <ele>755</ele>
        <time>2022-02-15T09:45:01.000Z</time>
      </trkpt>
      <trkpt lat="43.53066" lon="5.57542">
        <ele>755</ele>
        <time>2022-02-15T09:45:02.000Z</time>
      </trkpt>
      <trkpt lat="43.53066" lon="5.57542">
        <ele>755</ele>
        <time>2022-02-15T09:45:03.000Z</time>
      </trkpt>
      <trkpt lat="43.53066" lon="5.57542">
        <ele>755</ele>
        <time>2022-02-15T09:45:04.000Z</time>
      </trkpt>
      <trkpt lat="43.53066" lon="5.57542">
        <ele>755</ele>
        <time>2022-02-15T09:45:05.000Z</time>
      </trkpt>
      <trkpt lat="43.53066" lon="5.57542">
        <ele>755</ele>
        <time>2022-02-15T09:45:06.000Z</time>
      </trkpt>
      <trkpt lat="43.53066" lon="5.57542">
        <ele>755</ele>
        <time>2022-02-15T09:45:07.000Z</time>
      </trkpt>
      <trkpt lat="43.53066" lon="5.57542">
        <ele>755</ele>
        <time>2022-02-15T09:45:08.000Z</time>
      </trkpt>
      <trkpt lat="43.53066" lon="5.57542">
        <ele>755</ele>
        <time>2022-02-15T09:45:09.000Z</time>
      </trkpt>
      <trkpt lat="43.53066" lon="5.57541">
        <ele>755</ele>
        <time>2022-02-15T09:45:10.000Z</time>
      </trkpt>
      <trkpt lat="43.53066" lon="5.57541">
        <ele>755</ele>
        <time>2022-02-15T09:45:11.000Z</time>
      </trkpt>
      <trkpt lat="43.53066" lon="5.57541">
        <ele>755</ele>
        <time>2022-02-15T09:45:12.000Z</time>
      </trkpt>
      <trkpt lat="43.53066" lon="5.57541">
        <ele>755</ele>
        <time>2022-02-15T09:45:13.000Z</time>
      </trkpt>
      <trkpt lat="43.53066" lon="5.57541">
        <ele>755</ele>
        <time>2022-02-15T09:45:14.000Z</time>
      </trkpt>
      <trkpt lat="43.53066" lon="5.57541">
        <ele>755</ele>
        <time>2022-02-15T09:45:15.000Z</time>
      </trkpt>
      <trkpt lat="43.53066" lon="5.57541">
        <ele>755</ele>
        <time>2022-02-15T09:45:16.000Z</time>
      </trkpt>
      <trkpt lat="43.53066" lon="5.57541">
        <ele>755</ele>
        <time>2022-02-15T09:45:17.000Z</time>
      </trkpt>
      <trkpt lat="43.53066" lon="5.57541">
        <ele>755</ele>
        <time>2022-02-15T09:45:18.000Z</time>
      </trkpt>
      <trkpt lat="43.53066" lon="5.57541">
        <ele>755</ele>
        <time>2022-02-15T09:45:19.000Z</time>
      </trkpt>
      <trkpt lat="43.53066" lon="5.57541">
        <ele>755</ele>
        <time>2022-02-15T09:45:20.000Z</time>
      </trkpt>
      <trkpt lat="43.53066" lon="5.57541">
        <ele>755</ele>
        <time>2022-02-15T09:45:21.000Z</time>
      </trkpt>
      <trkpt lat="43.53066" lon="5.57541">
        <ele>755</ele>
        <time>2022-02-15T09:45:22.000Z</time>
      </trkpt>
      <trkpt lat="43.53066" lon="5.57541">
        <ele>755</ele>
        <time>2022-02-15T09:45:23.000Z</time>
      </trkpt>
      <trkpt lat="43.53066" lon="5.57541">
        <ele>755</ele>
        <time>2022-02-15T09:45:24.000Z</time>
      </trkpt>
      <trkpt lat="43.53066" lon="5.57541">
        <ele>755</ele>
        <time>2022-02-15T09:45:25.000Z</time>
      </trkpt>
      <trkpt lat="43.53066" lon="5.57541">
        <ele>755</ele>
        <time>2022-02-15T09:45:26.000Z</time>
      </trkpt>
      <trkpt lat="43.53066" lon="5.57541">
        <ele>755</ele>
        <time>2022-02-15T09:45:27.000Z</time>
      </trkpt>
      <trkpt lat="43.53066" lon="5.57541">
        <ele>755</ele>
        <time>2022-02-15T09:45:28.000Z</time>
      </trkpt>
      <trkpt lat="43.53066" lon="5.57541">
        <ele>755</ele>
        <time>2022-02-15T09:45:29.000Z</time>
      </trkpt>
      <trkpt lat="43.53066" lon="5.57541">
        <ele>755</ele>
        <time>2022-02-15T09:45:30.000Z</time>
      </trkpt>
      <trkpt lat="43.53066" lon="5.57541">
        <ele>755</ele>
        <time>2022-02-15T09:45:31.000Z</time>
      </trkpt>
      <trkpt lat="43.53066" lon="5.57541">
        <ele>755</ele>
        <time>2022-02-15T09:45:32.000Z</time>
      </trkpt>
      <trkpt lat="43.53066" lon="5.57541">
        <ele>755</ele>
        <time>2022-02-15T09:45:33.000Z</time>
      </trkpt>
      <trkpt lat="43.53067" lon="5.57541">
        <ele>755</ele>
        <time>2022-02-15T09:45:34.000Z</time>
      </trkpt>
      <trkpt lat="43.53067" lon="5.57541">
        <ele>755</ele>
        <time>2022-02-15T09:45:35.000Z</time>
      </trkpt>
      <trkpt lat="43.53067" lon="5.57541">
        <ele>755</ele>
        <time>2022-02-15T09:45:36.000Z</time>
      </trkpt>
      <trkpt lat="43.53067" lon="5.57541">
        <ele>755</ele>
        <time>2022-02-15T09:45:37.000Z</time>
      </trkpt>
      <trkpt lat="43.53067" lon="5.57541">
        <ele>755</ele>
        <time>2022-02-15T09:45:38.000Z</time>
      </trkpt>
      <trkpt lat="43.53068" lon="5.57541">
        <ele>755</ele>
        <time>2022-02-15T09:45:39.000Z</time>
      </trkpt>
      <trkpt lat="43.53068" lon="5.57541">
        <ele>755</ele>
        <time>2022-02-15T09:45:40.000Z</time>
      </trkpt>
      <trkpt lat="43.53068" lon="5.57541">
        <ele>755</ele>
        <time>2022-02-15T09:45:41.000Z</time>
      </trkpt>
      <trkpt lat="43.53068" lon="5.57541">
        <ele>755</ele>
        <time>2022-02-15T09:45:42.000Z</time>
      </trkpt>
      <trkpt lat="43.53068" lon="5.57541">
        <ele>755</ele>
        <time>2022-02-15T09:45:43.000Z</time>
      </trkpt>
      <trkpt lat="43.53068" lon="5.57541">
        <ele>755</ele>
        <time>2022-02-15T09:45:44.000Z</time>
      </trkpt>
      <trkpt lat="43.53068" lon="5.57541">
        <ele>755</ele>
        <time>2022-02-15T09:45:45.000Z</time>
      </trkpt>
      <trkpt lat="43.53068" lon="5.57541">
        <ele>755</ele>
        <time>2022-02-15T09:45:46.000Z</time>
      </trkpt>
      <trkpt lat="43.53068" lon="5.57541">
        <ele>755</ele>
        <time>2022-02-15T09:45:47.000Z</time>
      </trkpt>
      <trkpt lat="43.53068" lon="5.57541">
        <ele>755</ele>
        <time>2022-02-15T09:45:48.000Z</time>
      </trkpt>
      <trkpt lat="43.53068" lon="5.57541">
        <ele>755</ele>
        <time>2022-02-15T09:45:49.000Z</time>
      </trkpt>
      <trkpt lat="43.53068" lon="5.57541">
        <ele>755</ele>
        <time>2022-02-15T09:45:50.000Z</time>
      </trkpt>
      <trkpt lat="43.53068" lon="5.57541">
        <ele>755</ele>
        <time>2022-02-15T09:45:51.000Z</time>
      </trkpt>
      <trkpt lat="43.53068" lon="5.57541">
        <ele>755</ele>
        <time>2022-02-15T09:45:52.000Z</time>
      </trkpt>
      <trkpt lat="43.53068" lon="5.57541">
        <ele>755</ele>
        <time>2022-02-15T09:45:53.000Z</time>
      </trkpt>
      <trkpt lat="43.53068" lon="5.57541">
        <ele>755</ele>
        <time>2022-02-15T09:45:54.000Z</time>
      </trkpt>
      <trkpt lat="43.53068" lon="5.57541">
        <ele>755</ele>
        <time>2022-02-15T09:45:55.000Z</time>
      </trkpt>
      <trkpt lat="43.53068" lon="5.57541">
        <ele>755</ele>
        <time>2022-02-15T09:45:56.000Z</time>
      </trkpt>
      <trkpt lat="43.53068" lon="5.57541">
        <ele>755</ele>
        <time>2022-02-15T09:45:57.000Z</time>
      </trkpt>
      <trkpt lat="43.53068" lon="5.57541">
        <ele>755</ele>
        <time>2022-02-15T09:45:58.000Z</time>
      </trkpt>
      <trkpt lat="43.53068" lon="5.57541">
        <ele>755</ele>
        <time>2022-02-15T09:45:59.000Z</time>
      </trkpt>
      <trkpt lat="43.53068" lon="5.57541">
        <ele>755</ele>
        <time>2022-02-15T09:46:00.000Z</time>
      </trkpt>
      <trkpt lat="43.53068" lon="5.57541">
        <ele>755</ele>
        <time>2022-02-15T09:46:01.000Z</time>
      </trkpt>
      <trkpt lat="43.53068" lon="5.57541">
        <ele>755</ele>
        <time>2022-02-15T09:46:02.000Z</time>
      </trkpt>
      <trkpt lat="43.53068" lon="5.57541">
        <ele>755</ele>
        <time>2022-02-15T09:46:03.000Z</time>
      </trkpt>
      <trkpt lat="43.53068" lon="5.57541">
        <ele>755</ele>
        <time>2022-02-15T09:46:04.000Z</time>
      </trkpt>
      <trkpt lat="43.53068" lon="5.57541">
        <ele>755</ele>
        <time>2022-02-15T09:46:05.000Z</time>
      </trkpt>
      <trkpt lat="43.53068" lon="5.57541">
        <ele>755</ele>
        <time>2022-02-15T09:46:06.000Z</time>
      </trkpt>
      <trkpt lat="43.53068" lon="5.57541">
        <ele>755</ele>
        <time>2022-02-15T09:46:07.000Z</time>
      </trkpt>
      <trkpt lat="43.53068" lon="5.57541">
        <ele>755</ele>
        <time>2022-02-15T09:46:08.000Z</time>
      </trkpt>
      <trkpt lat="43.53068" lon="5.57541">
        <ele>755</ele>
        <time>2022-02-15T09:46:09.000Z</time>
      </trkpt>
      <trkpt lat="43.53068" lon="5.57541">
        <ele>755</ele>
        <time>2022-02-15T09:46:10.000Z</time>
      </trkpt>
      <trkpt lat="43.53068" lon="5.57541">
        <ele>755</ele>
        <time>2022-02-15T09:46:11.000Z</time>
      </trkpt>
      <trkpt lat="43.53068" lon="5.57541">
        <ele>755</ele>
        <time>2022-02-15T09:46:12.000Z</time>
      </trkpt>
      <trkpt lat="43.53068" lon="5.57541">
        <ele>755</ele>
        <time>2022-02-15T09:46:13.000Z</time>
      </trkpt>
      <trkpt lat="43.53068" lon="5.5754">
        <ele>755</ele>
        <time>2022-02-15T09:46:14.000Z</time>
      </trkpt>
      <trkpt lat="43.53068" lon="5.5754">
        <ele>755</ele>
        <time>2022-02-15T09:46:15.000Z</time>
      </trkpt>
      <trkpt lat="43.53068" lon="5.5754">
        <ele>755</ele>
        <time>2022-02-15T09:46:16.000Z</time>
      </trkpt>
      <trkpt lat="43.53068" lon="5.5754">
        <ele>755</ele>
        <time>2022-02-15T09:46:17.000Z</time>
      </trkpt>
      <trkpt lat="43.53068" lon="5.5754">
        <ele>755</ele>
        <time>2022-02-15T09:46:18.000Z</time>
      </trkpt>
      <trkpt lat="43.53068" lon="5.5754">
        <ele>755</ele>
        <time>2022-02-15T09:46:19.000Z</time>
      </trkpt>
      <trkpt lat="43.53068" lon="5.5754">
        <ele>755</ele>
        <time>2022-02-15T09:46:20.000Z</time>
      </trkpt>
      <trkpt lat="43.53068" lon="5.5754">
        <ele>756</ele>
        <time>2022-02-15T09:46:21.000Z</time>
      </trkpt>
      <trkpt lat="43.53068" lon="5.5754">
        <ele>756</ele>
        <time>2022-02-15T09:46:22.000Z</time>
      </trkpt>
      <trkpt lat="43.53068" lon="5.5754">
        <ele>756</ele>
        <time>2022-02-15T09:46:23.000Z</time>
      </trkpt>
      <trkpt lat="43.53068" lon="5.5754">
        <ele>756</ele>
        <time>2022-02-15T09:46:24.000Z</time>
      </trkpt>
      <trkpt lat="43.53068" lon="5.5754">
        <ele>756</ele>
        <time>2022-02-15T09:46:25.000Z</time>
      </trkpt>
      <trkpt lat="43.53068" lon="5.5754">
        <ele>756</ele>
        <time>2022-02-15T09:46:26.000Z</time>
      </trkpt>
      <trkpt lat="43.53068" lon="5.5754">
        <ele>756</ele>
        <time>2022-02-15T09:46:27.000Z</time>
      </trkpt>
      <trkpt lat="43.53068" lon="5.5754">
        <ele>756</ele>
        <time>2022-02-15T09:46:28.000Z</time>
      </trkpt>
      <trkpt lat="43.53068" lon="5.5754">
        <ele>756</ele>
        <time>2022-02-15T09:46:29.000Z</time>
      </trkpt>
      <trkpt lat="43.53068" lon="5.5754">
        <ele>756</ele>
        <time>2022-02-15T09:46:30.000Z</time>
      </trkpt>
      <trkpt lat="43.53068" lon="5.5754">
        <ele>756</ele>
        <time>2022-02-15T09:46:31.000Z</time>
      </trkpt>
      <trkpt lat="43.53068" lon="5.5754">
        <ele>756</ele>
        <time>2022-02-15T09:46:32.000Z</time>
      </trkpt>
      <trkpt lat="43.53068" lon="5.5754">
        <ele>756</ele>
        <time>2022-02-15T09:46:33.000Z</time>
      </trkpt>
      <trkpt lat="43.53068" lon="5.57541">
        <ele>756</ele>
        <time>2022-02-15T09:46:34.000Z</time>
      </trkpt>
      <trkpt lat="43.53068" lon="5.57541">
        <ele>756</ele>
        <time>2022-02-15T09:46:35.000Z</time>
      </trkpt>
      <trkpt lat="43.53068" lon="5.57541">
        <ele>756</ele>
        <time>2022-02-15T09:46:36.000Z</time>
      </trkpt>
      <trkpt lat="43.53068" lon="5.57541">
        <ele>756</ele>
        <time>2022-02-15T09:46:37.000Z</time>
      </trkpt>
      <trkpt lat="43.53068" lon="5.5754">
        <ele>756</ele>
        <time>2022-02-15T09:46:38.000Z</time>
      </trkpt>
      <trkpt lat="43.53068" lon="5.5754">
        <ele>756</ele>
        <time>2022-02-15T09:46:39.000Z</time>
      </trkpt>
      <trkpt lat="43.53068" lon="5.5754">
        <ele>756</ele>
        <time>2022-02-15T09:46:40.000Z</time>
      </trkpt>
      <trkpt lat="43.53068" lon="5.5754">
        <ele>756</ele>
        <time>2022-02-15T09:46:41.000Z</time>
      </trkpt>
      <trkpt lat="43.53068" lon="5.5754">
        <ele>756</ele>
        <time>2022-02-15T09:46:42.000Z</time>
      </trkpt>
      <trkpt lat="43.53068" lon="5.5754">
        <ele>756</ele>
        <time>2022-02-15T09:46:43.000Z</time>
      </trkpt>
      <trkpt lat="43.53068" lon="5.5754">
        <ele>756</ele>
        <time>2022-02-15T09:46:44.000Z</time>
      </trkpt>
      <trkpt lat="43.53068" lon="5.5754">
        <ele>756</ele>
        <time>2022-02-15T09:46:45.000Z</time>
      </trkpt>
      <trkpt lat="43.53068" lon="5.5754">
        <ele>756</ele>
        <time>2022-02-15T09:46:46.000Z</time>
      </trkpt>
      <trkpt lat="43.53068" lon="5.5754">
        <ele>756</ele>
        <time>2022-02-15T09:46:47.000Z</time>
      </trkpt>
      <trkpt lat="43.53068" lon="5.5754">
        <ele>756</ele>
        <time>2022-02-15T09:46:48.000Z</time>
      </trkpt>
      <trkpt lat="43.53068" lon="5.5754">
        <ele>756</ele>
        <time>2022-02-15T09:46:49.000Z</time>
      </trkpt>
      <trkpt lat="43.53068" lon="5.5754">
        <ele>756</ele>
        <time>2022-02-15T09:46:50.000Z</time>
      </trkpt>
      <trkpt lat="43.53068" lon="5.5754">
        <ele>756</ele>
        <time>2022-02-15T09:46:51.000Z</time>
      </trkpt>
      <trkpt lat="43.53068" lon="5.57541">
        <ele>756</ele>
        <time>2022-02-15T09:46:52.000Z</time>
      </trkpt>
      <trkpt lat="43.53068" lon="5.57541">
        <ele>756</ele>
        <time>2022-02-15T09:46:53.000Z</time>
      </trkpt>
      <trkpt lat="43.53068" lon="5.57541">
        <ele>756</ele>
        <time>2022-02-15T09:46:54.000Z</time>
      </trkpt>
      <trkpt lat="43.53069" lon="5.5754">
        <ele>756</ele>
        <time>2022-02-15T09:46:55.000Z</time>
      </trkpt>
      <trkpt lat="43.53069" lon="5.5754">
        <ele>756</ele>
        <time>2022-02-15T09:46:56.000Z</time>
      </trkpt>
      <trkpt lat="43.53069" lon="5.5754">
        <ele>756</ele>
        <time>2022-02-15T09:46:57.000Z</time>
      </trkpt>
      <trkpt lat="43.53069" lon="5.5754">
        <ele>756</ele>
        <time>2022-02-15T09:46:58.000Z</time>
      </trkpt>
      <trkpt lat="43.53069" lon="5.57541">
        <ele>756</ele>
        <time>2022-02-15T09:46:59.000Z</time>
      </trkpt>
      <trkpt lat="43.53069" lon="5.57541">
        <ele>756</ele>
        <time>2022-02-15T09:47:00.000Z</time>
      </trkpt>
      <trkpt lat="43.53069" lon="5.5754">
        <ele>756</ele>
        <time>2022-02-15T09:47:01.000Z</time>
      </trkpt>
      <trkpt lat="43.53069" lon="5.5754">
        <ele>756</ele>
        <time>2022-02-15T09:47:02.000Z</time>
      </trkpt>
      <trkpt lat="43.53069" lon="5.5754">
        <ele>756</ele>
        <time>2022-02-15T09:47:03.000Z</time>
      </trkpt>
      <trkpt lat="43.53069" lon="5.5754">
        <ele>756</ele>
        <time>2022-02-15T09:47:04.000Z</time>
      </trkpt>
      <trkpt lat="43.53069" lon="5.57541">
        <ele>756</ele>
        <time>2022-02-15T09:47:05.000Z</time>
      </trkpt>
      <trkpt lat="43.53069" lon="5.57541">
        <ele>756</ele>
        <time>2022-02-15T09:47:06.000Z</time>
      </trkpt>
      <trkpt lat="43.53069" lon="5.57541">
        <ele>756</ele>
        <time>2022-02-15T09:47:07.000Z</time>
      </trkpt>
      <trkpt lat="43.53069" lon="5.5754">
        <ele>756</ele>
        <time>2022-02-15T09:47:08.000Z</time>
      </trkpt>
      <trkpt lat="43.53069" lon="5.5754">
        <ele>756</ele>
        <time>2022-02-15T09:47:09.000Z</time>
      </trkpt>
      <trkpt lat="43.53069" lon="5.5754">
        <ele>756</ele>
        <time>2022-02-15T09:47:10.000Z</time>
      </trkpt>
      <trkpt lat="43.53069" lon="5.5754">
        <ele>756</ele>
        <time>2022-02-15T09:47:11.000Z</time>
      </trkpt>
      <trkpt lat="43.53069" lon="5.5754">
        <ele>756</ele>
        <time>2022-02-15T09:47:12.000Z</time>
      </trkpt>
      <trkpt lat="43.53069" lon="5.5754">
        <ele>756</ele>
        <time>2022-02-15T09:47:13.000Z</time>
      </trkpt>
      <trkpt lat="43.53069" lon="5.5754">
        <ele>756</ele>
        <time>2022-02-15T09:47:14.000Z</time>
      </trkpt>
      <trkpt lat="43.53069" lon="5.5754">
        <ele>756</ele>
        <time>2022-02-15T09:47:15.000Z</time>
      </trkpt>
      <trkpt lat="43.53069" lon="5.5754">
        <ele>756</ele>
        <time>2022-02-15T09:47:16.000Z</time>
      </trkpt>
      <trkpt lat="43.53069" lon="5.5754">
        <ele>756</ele>
        <time>2022-02-15T09:47:17.000Z</time>
      </trkpt>
      <trkpt lat="43.53069" lon="5.5754">
        <ele>756</ele>
        <time>2022-02-15T09:47:18.000Z</time>
      </trkpt>
      <trkpt lat="43.53069" lon="5.5754">
        <ele>756</ele>
        <time>2022-02-15T09:47:19.000Z</time>
      </trkpt>
      <trkpt lat="43.53069" lon="5.5754">
        <ele>756</ele>
        <time>2022-02-15T09:47:20.000Z</time>
      </trkpt>
      <trkpt lat="43.5307" lon="5.5754">
        <ele>756</ele>
        <time>2022-02-15T09:47:21.000Z</time>
      </trkpt>
      <trkpt lat="43.5307" lon="5.5754">
        <ele>756</ele>
        <time>2022-02-15T09:47:22.000Z</time>
      </trkpt>
      <trkpt lat="43.5307" lon="5.5754">
        <ele>757</ele>
        <time>2022-02-15T09:47:23.000Z</time>
      </trkpt>
      <trkpt lat="43.5307" lon="5.57539">
        <ele>757</ele>
        <time>2022-02-15T09:47:24.000Z</time>
      </trkpt>
      <trkpt lat="43.5307" lon="5.57539">
        <ele>757</ele>
        <time>2022-02-15T09:47:25.000Z</time>
      </trkpt>
      <trkpt lat="43.5307" lon="5.57539">
        <ele>757</ele>
        <time>2022-02-15T09:47:26.000Z</time>
      </trkpt>
      <trkpt lat="43.5307" lon="5.57539">
        <ele>757</ele>
        <time>2022-02-15T09:47:27.000Z</time>
      </trkpt>
      <trkpt lat="43.5307" lon="5.57539">
        <ele>757</ele>
        <time>2022-02-15T09:47:28.000Z</time>
      </trkpt>
      <trkpt lat="43.5307" lon="5.57539">
        <ele>757</ele>
        <time>2022-02-15T09:47:29.000Z</time>
      </trkpt>
      <trkpt lat="43.5307" lon="5.57539">
        <ele>757</ele>
        <time>2022-02-15T09:47:30.000Z</time>
      </trkpt>
      <trkpt lat="43.5307" lon="5.57539">
        <ele>757</ele>
        <time>2022-02-15T09:47:31.000Z</time>
      </trkpt>
      <trkpt lat="43.5307" lon="5.57539">
        <ele>757</ele>
        <time>2022-02-15T09:47:32.000Z</time>
      </trkpt>
      <trkpt lat="43.5307" lon="5.57539">
        <ele>757</ele>
        <time>2022-02-15T09:47:33.000Z</time>
      </trkpt>
      <trkpt lat="43.5307" lon="5.57539">
        <ele>757</ele>
        <time>2022-02-15T09:47:34.000Z</time>
      </trkpt>
      <trkpt lat="43.5307" lon="5.57539">
        <ele>757</ele>
        <time>2022-02-15T09:47:35.000Z</time>
      </trkpt>
      <trkpt lat="43.5307" lon="5.57539">
        <ele>757</ele>
        <time>2022-02-15T09:47:36.000Z</time>
      </trkpt>
      <trkpt lat="43.5307" lon="5.57539">
        <ele>757</ele>
        <time>2022-02-15T09:47:37.000Z</time>
      </trkpt>
      <trkpt lat="43.5307" lon="5.57539">
        <ele>757</ele>
        <time>2022-02-15T09:47:38.000Z</time>
      </trkpt>
      <trkpt lat="43.5307" lon="5.57539">
        <ele>757</ele>
        <time>2022-02-15T09:47:39.000Z</time>
      </trkpt>
      <trkpt lat="43.5307" lon="5.57539">
        <ele>757</ele>
        <time>2022-02-15T09:47:40.000Z</time>
      </trkpt>
      <trkpt lat="43.5307" lon="5.57539">
        <ele>757</ele>
        <time>2022-02-15T09:47:41.000Z</time>
      </trkpt>
      <trkpt lat="43.5307" lon="5.57539">
        <ele>757</ele>
        <time>2022-02-15T09:47:42.000Z</time>
      </trkpt>
      <trkpt lat="43.5307" lon="5.57539">
        <ele>757</ele>
        <time>2022-02-15T09:47:43.000Z</time>
      </trkpt>
      <trkpt lat="43.5307" lon="5.57539">
        <ele>757</ele>
        <time>2022-02-15T09:47:44.000Z</time>
      </trkpt>
      <trkpt lat="43.5307" lon="5.57539">
        <ele>757</ele>
        <time>2022-02-15T09:47:45.000Z</time>
      </trkpt>
      <trkpt lat="43.5307" lon="5.57539">
        <ele>758</ele>
        <time>2022-02-15T09:47:46.000Z</time>
      </trkpt>
      <trkpt lat="43.5307" lon="5.57539">
        <ele>758</ele>
        <time>2022-02-15T09:47:47.000Z</time>
      </trkpt>
      <trkpt lat="43.5307" lon="5.57539">
        <ele>758</ele>
        <time>2022-02-15T09:47:48.000Z</time>
      </trkpt>
      <trkpt lat="43.5307" lon="5.57538">
        <ele>758</ele>
        <time>2022-02-15T09:47:49.000Z</time>
      </trkpt>
      <trkpt lat="43.5307" lon="5.57538">
        <ele>758</ele>
        <time>2022-02-15T09:47:50.000Z</time>
      </trkpt>
      <trkpt lat="43.5307" lon="5.57538">
        <ele>759</ele>
        <time>2022-02-15T09:47:51.000Z</time>
      </trkpt>
      <trkpt lat="43.5307" lon="5.57538">
        <ele>759</ele>
        <time>2022-02-15T09:47:52.000Z</time>
      </trkpt>
      <trkpt lat="43.5307" lon="5.57538">
        <ele>759</ele>
        <time>2022-02-15T09:47:53.000Z</time>
      </trkpt>
      <trkpt lat="43.5307" lon="5.57538">
        <ele>759</ele>
        <time>2022-02-15T09:47:54.000Z</time>
      </trkpt>
      <trkpt lat="43.5307" lon="5.57538">
        <ele>759</ele>
        <time>2022-02-15T09:47:55.000Z</time>
      </trkpt>
      <trkpt lat="43.5307" lon="5.57537">
        <ele>759</ele>
        <time>2022-02-15T09:47:56.000Z</time>
      </trkpt>
      <trkpt lat="43.5307" lon="5.57537">
        <ele>759</ele>
        <time>2022-02-15T09:47:57.000Z</time>
      </trkpt>
      <trkpt lat="43.5307" lon="5.57537">
        <ele>759</ele>
        <time>2022-02-15T09:47:58.000Z</time>
      </trkpt>
      <trkpt lat="43.53071" lon="5.57538">
        <ele>759</ele>
        <time>2022-02-15T09:47:59.000Z</time>
      </trkpt>
      <trkpt lat="43.53071" lon="5.57538">
        <ele>759</ele>
        <time>2022-02-15T09:48:00.000Z</time>
      </trkpt>
      <trkpt lat="43.53071" lon="5.57538">
        <ele>759</ele>
        <time>2022-02-15T09:48:01.000Z</time>
      </trkpt>
      <trkpt lat="43.53071" lon="5.57538">
        <ele>759</ele>
        <time>2022-02-15T09:48:02.000Z</time>
      </trkpt>
      <trkpt lat="43.53071" lon="5.57538">
        <ele>759</ele>
        <time>2022-02-15T09:48:03.000Z</time>
      </trkpt>
      <trkpt lat="43.53071" lon="5.57537">
        <ele>759</ele>
        <time>2022-02-15T09:48:04.000Z</time>
      </trkpt>
      <trkpt lat="43.53071" lon="5.57536">
        <ele>760</ele>
        <time>2022-02-15T09:48:05.000Z</time>
      </trkpt>
      <trkpt lat="43.53071" lon="5.57536">
        <ele>760</ele>
        <time>2022-02-15T09:48:06.000Z</time>
      </trkpt>
      <trkpt lat="43.53071" lon="5.57536">
        <ele>760</ele>
        <time>2022-02-15T09:48:07.000Z</time>
      </trkpt>
      <trkpt lat="43.53071" lon="5.57536">
        <ele>760</ele>
        <time>2022-02-15T09:48:08.000Z</time>
      </trkpt>
      <trkpt lat="43.53071" lon="5.57536">
        <ele>760</ele>
        <time>2022-02-15T09:48:09.000Z</time>
      </trkpt>
      <trkpt lat="43.53071" lon="5.57536">
        <ele>760</ele>
        <time>2022-02-15T09:48:10.000Z</time>
      </trkpt>
      <trkpt lat="43.53071" lon="5.57536">
        <ele>760</ele>
        <time>2022-02-15T09:48:11.000Z</time>
      </trkpt>
      <trkpt lat="43.53071" lon="5.57536">
        <ele>760</ele>
        <time>2022-02-15T09:48:12.000Z</time>
      </trkpt>
      <trkpt lat="43.53071" lon="5.57536">
        <ele>760</ele>
        <time>2022-02-15T09:48:13.000Z</time>
      </trkpt>
      <trkpt lat="43.53071" lon="5.57536">
        <ele>760</ele>
        <time>2022-02-15T09:48:14.000Z</time>
      </trkpt>
      <trkpt lat="43.53071" lon="5.57536">
        <ele>760</ele>
        <time>2022-02-15T09:48:15.000Z</time>
      </trkpt>
      <trkpt lat="43.53071" lon="5.57536">
        <ele>760</ele>
        <time>2022-02-15T09:48:16.000Z</time>
      </trkpt>
      <trkpt lat="43.53071" lon="5.57536">
        <ele>760</ele>
        <time>2022-02-15T09:48:17.000Z</time>
      </trkpt>
      <trkpt lat="43.53071" lon="5.57536">
        <ele>760</ele>
        <time>2022-02-15T09:48:18.000Z</time>
      </trkpt>
      <trkpt lat="43.53071" lon="5.57536">
        <ele>760</ele>
        <time>2022-02-15T09:48:19.000Z</time>
      </trkpt>
      <trkpt lat="43.53071" lon="5.57535">
        <ele>760</ele>
        <time>2022-02-15T09:48:20.000Z</time>
      </trkpt>
      <trkpt lat="43.53071" lon="5.57535">
        <ele>760</ele>
        <time>2022-02-15T09:48:21.000Z</time>
      </trkpt>
      <trkpt lat="43.53071" lon="5.57535">
        <ele>760</ele>
        <time>2022-02-15T09:48:22.000Z</time>
      </trkpt>
      <trkpt lat="43.53071" lon="5.57535">
        <ele>760</ele>
        <time>2022-02-15T09:48:23.000Z</time>
      </trkpt>
      <trkpt lat="43.53071" lon="5.57535">
        <ele>760</ele>
        <time>2022-02-15T09:48:24.000Z</time>
      </trkpt>
      <trkpt lat="43.53071" lon="5.57535">
        <ele>760</ele>
        <time>2022-02-15T09:48:25.000Z</time>
      </trkpt>
      <trkpt lat="43.53071" lon="5.57535">
        <ele>761</ele>
        <time>2022-02-15T09:48:26.000Z</time>
      </trkpt>
      <trkpt lat="43.53071" lon="5.57535">
        <ele>761</ele>
        <time>2022-02-15T09:48:27.000Z</time>
      </trkpt>
      <trkpt lat="43.53071" lon="5.57535">
        <ele>761</ele>
        <time>2022-02-15T09:48:28.000Z</time>
      </trkpt>
      <trkpt lat="43.53071" lon="5.57535">
        <ele>761</ele>
        <time>2022-02-15T09:48:29.000Z</time>
      </trkpt>
      <trkpt lat="43.53071" lon="5.57535">
        <ele>761</ele>
        <time>2022-02-15T09:48:30.000Z</time>
      </trkpt>
      <trkpt lat="43.53071" lon="5.57535">
        <ele>761</ele>
        <time>2022-02-15T09:48:31.000Z</time>
      </trkpt>
      <trkpt lat="43.53071" lon="5.57535">
        <ele>761</ele>
        <time>2022-02-15T09:48:32.000Z</time>
      </trkpt>
      <trkpt lat="43.53071" lon="5.57535">
        <ele>761</ele>
        <time>2022-02-15T09:48:33.000Z</time>
      </trkpt>
      <trkpt lat="43.53071" lon="5.57535">
        <ele>761</ele>
        <time>2022-02-15T09:48:34.000Z</time>
      </trkpt>
      <trkpt lat="43.53071" lon="5.57535">
        <ele>761</ele>
        <time>2022-02-15T09:48:35.000Z</time>
      </trkpt>
      <trkpt lat="43.53071" lon="5.57535">
        <ele>761</ele>
        <time>2022-02-15T09:48:36.000Z</time>
      </trkpt>
      <trkpt lat="43.53071" lon="5.57535">
        <ele>761</ele>
        <time>2022-02-15T09:48:37.000Z</time>
      </trkpt>
      <trkpt lat="43.53071" lon="5.57535">
        <ele>761</ele>
        <time>2022-02-15T09:48:38.000Z</time>
      </trkpt>
      <trkpt lat="43.53071" lon="5.57535">
        <ele>761</ele>
        <time>2022-02-15T09:48:39.000Z</time>
      </trkpt>
      <trkpt lat="43.53071" lon="5.57535">
        <ele>761</ele>
        <time>2022-02-15T09:48:40.000Z</time>
      </trkpt>
      <trkpt lat="43.53071" lon="5.57535">
        <ele>761</ele>
        <time>2022-02-15T09:48:41.000Z</time>
      </trkpt>
      <trkpt lat="43.53071" lon="5.57535">
        <ele>761</ele>
        <time>2022-02-15T09:48:42.000Z</time>
      </trkpt>
      <trkpt lat="43.53071" lon="5.57535">
        <ele>761</ele>
        <time>2022-02-15T09:48:43.000Z</time>
      </trkpt>
      <trkpt lat="43.53071" lon="5.57535">
        <ele>761</ele>
        <time>2022-02-15T09:48:44.000Z</time>
      </trkpt>
      <trkpt lat="43.53071" lon="5.57535">
        <ele>761</ele>
        <time>2022-02-15T09:48:45.000Z</time>
      </trkpt>
      <trkpt lat="43.53071" lon="5.57535">
        <ele>761</ele>
        <time>2022-02-15T09:48:46.000Z</time>
      </trkpt>
      <trkpt lat="43.53071" lon="5.57535">
        <ele>761</ele>
        <time>2022-02-15T09:48:47.000Z</time>
      </trkpt>
      <trkpt lat="43.53071" lon="5.57535">
        <ele>761</ele>
        <time>2022-02-15T09:48:48.000Z</time>
      </trkpt>
      <trkpt lat="43.53071" lon="5.57535">
        <ele>761</ele>
        <time>2022-02-15T09:48:49.000Z</time>
      </trkpt>
      <trkpt lat="43.53071" lon="5.57535">
        <ele>761</ele>
        <time>2022-02-15T09:48:50.000Z</time>
      </trkpt>
      <trkpt lat="43.53071" lon="5.57535">
        <ele>761</ele>
        <time>2022-02-15T09:48:51.000Z</time>
      </trkpt>
      <trkpt lat="43.53071" lon="5.57534">
        <ele>761</ele>
        <time>2022-02-15T09:48:52.000Z</time>
      </trkpt>
      <trkpt lat="43.53071" lon="5.57533">
        <ele>761</ele>
        <time>2022-02-15T09:48:53.000Z</time>
      </trkpt>
      <trkpt lat="43.53071" lon="5.57532">
        <ele>762</ele>
        <time>2022-02-15T09:48:54.000Z</time>
      </trkpt>
      <trkpt lat="43.53071" lon="5.57532">
        <ele>762</ele>
        <time>2022-02-15T09:48:55.000Z</time>
      </trkpt>
      <trkpt lat="43.53071" lon="5.57531">
        <ele>762</ele>
        <time>2022-02-15T09:48:56.000Z</time>
      </trkpt>
      <trkpt lat="43.53071" lon="5.5753">
        <ele>762</ele>
        <time>2022-02-15T09:48:57.000Z</time>
      </trkpt>
      <trkpt lat="43.53071" lon="5.5753">
        <ele>762</ele>
        <time>2022-02-15T09:48:58.000Z</time>
      </trkpt>
      <trkpt lat="43.53071" lon="5.5753">
        <ele>762</ele>
        <time>2022-02-15T09:48:59.000Z</time>
      </trkpt>
      <trkpt lat="43.53072" lon="5.5753">
        <ele>763</ele>
        <time>2022-02-15T09:49:00.000Z</time>
      </trkpt>
      <trkpt lat="43.53072" lon="5.5753">
        <ele>763</ele>
        <time>2022-02-15T09:49:01.000Z</time>
      </trkpt>
      <trkpt lat="43.53073" lon="5.5753">
        <ele>763</ele>
        <time>2022-02-15T09:49:02.000Z</time>
      </trkpt>
      <trkpt lat="43.53074" lon="5.57531">
        <ele>763</ele>
        <time>2022-02-15T09:49:03.000Z</time>
      </trkpt>
      <trkpt lat="43.53074" lon="5.57531">
        <ele>763</ele>
        <time>2022-02-15T09:49:04.000Z</time>
      </trkpt>
      <trkpt lat="43.53074" lon="5.57531">
        <ele>763</ele>
        <time>2022-02-15T09:49:05.000Z</time>
      </trkpt>
      <trkpt lat="43.53074" lon="5.57531">
        <ele>764</ele>
        <time>2022-02-15T09:49:06.000Z</time>
      </trkpt>
      <trkpt lat="43.53075" lon="5.57532">
        <ele>764</ele>
        <time>2022-02-15T09:49:07.000Z</time>
      </trkpt>
      <trkpt lat="43.53075" lon="5.57532">
        <ele>764</ele>
        <time>2022-02-15T09:49:08.000Z</time>
      </trkpt>
      <trkpt lat="43.53075" lon="5.57532">
        <ele>764</ele>
        <time>2022-02-15T09:49:09.000Z</time>
      </trkpt>
      <trkpt lat="43.53076" lon="5.57532">
        <ele>764</ele>
        <time>2022-02-15T09:49:10.000Z</time>
      </trkpt>
      <trkpt lat="43.53076" lon="5.57532">
        <ele>764</ele>
        <time>2022-02-15T09:49:11.000Z</time>
      </trkpt>
      <trkpt lat="43.53076" lon="5.57532">
        <ele>764</ele>
        <time>2022-02-15T09:49:12.000Z</time>
      </trkpt>
      <trkpt lat="43.53076" lon="5.57532">
        <ele>764</ele>
        <time>2022-02-15T09:49:13.000Z</time>
      </trkpt>
      <trkpt lat="43.53076" lon="5.57532">
        <ele>765</ele>
        <time>2022-02-15T09:49:14.000Z</time>
      </trkpt>
      <trkpt lat="43.53076" lon="5.57532">
        <ele>765</ele>
        <time>2022-02-15T09:49:15.000Z</time>
      </trkpt>
      <trkpt lat="43.53076" lon="5.57532">
        <ele>765</ele>
        <time>2022-02-15T09:49:16.000Z</time>
      </trkpt>
      <trkpt lat="43.53076" lon="5.57532">
        <ele>765</ele>
        <time>2022-02-15T09:49:17.000Z</time>
      </trkpt>
      <trkpt lat="43.53077" lon="5.57531">
        <ele>765</ele>
        <time>2022-02-15T09:49:18.000Z</time>
      </trkpt>
      <trkpt lat="43.53077" lon="5.57531">
        <ele>765</ele>
        <time>2022-02-15T09:49:19.000Z</time>
      </trkpt>
      <trkpt lat="43.53077" lon="5.57531">
        <ele>765</ele>
        <time>2022-02-15T09:49:20.000Z</time>
      </trkpt>
      <trkpt lat="43.53077" lon="5.57531">
        <ele>765</ele>
        <time>2022-02-15T09:49:21.000Z</time>
      </trkpt>
      <trkpt lat="43.53077" lon="5.57531">
        <ele>765</ele>
        <time>2022-02-15T09:49:22.000Z</time>
      </trkpt>
      <trkpt lat="43.53077" lon="5.57531">
        <ele>765</ele>
        <time>2022-02-15T09:49:23.000Z</time>
      </trkpt>
      <trkpt lat="43.53077" lon="5.5753">
        <ele>765</ele>
        <time>2022-02-15T09:49:24.000Z</time>
      </trkpt>
      <trkpt lat="43.53078" lon="5.5753">
        <ele>765</ele>
        <time>2022-02-15T09:49:25.000Z</time>
      </trkpt>
      <trkpt lat="43.53078" lon="5.5753">
        <ele>765</ele>
        <time>2022-02-15T09:49:26.000Z</time>
      </trkpt>
      <trkpt lat="43.53078" lon="5.5753">
        <ele>765</ele>
        <time>2022-02-15T09:49:27.000Z</time>
      </trkpt>
      <trkpt lat="43.53078" lon="5.5753">
        <ele>765</ele>
        <time>2022-02-15T09:49:28.000Z</time>
      </trkpt>
      <trkpt lat="43.53078" lon="5.5753">
        <ele>765</ele>
        <time>2022-02-15T09:49:29.000Z</time>
      </trkpt>
      <trkpt lat="43.53078" lon="5.5753">
        <ele>765</ele>
        <time>2022-02-15T09:49:30.000Z</time>
      </trkpt>
      <trkpt lat="43.53078" lon="5.5753">
        <ele>766</ele>
        <time>2022-02-15T09:49:31.000Z</time>
      </trkpt>
      <trkpt lat="43.53078" lon="5.5753">
        <ele>766</ele>
        <time>2022-02-15T09:49:32.000Z</time>
      </trkpt>
      <trkpt lat="43.53078" lon="5.5753">
        <ele>766</ele>
        <time>2022-02-15T09:49:33.000Z</time>
      </trkpt>
      <trkpt lat="43.53078" lon="5.5753">
        <ele>766</ele>
        <time>2022-02-15T09:49:34.000Z</time>
      </trkpt>
      <trkpt lat="43.53078" lon="5.5753">
        <ele>766</ele>
        <time>2022-02-15T09:49:35.000Z</time>
      </trkpt>
      <trkpt lat="43.53078" lon="5.5753">
        <ele>766</ele>
        <time>2022-02-15T09:49:36.000Z</time>
      </trkpt>
      <trkpt lat="43.53078" lon="5.5753">
        <ele>766</ele>
        <time>2022-02-15T09:49:37.000Z</time>
      </trkpt>
      <trkpt lat="43.53078" lon="5.5753">
        <ele>766</ele>
        <time>2022-02-15T09:49:38.000Z</time>
      </trkpt>
      <trkpt lat="43.53078" lon="5.5753">
        <ele>766</ele>
        <time>2022-02-15T09:49:39.000Z</time>
      </trkpt>
      <trkpt lat="43.53078" lon="5.5753">
        <ele>766</ele>
        <time>2022-02-15T09:49:40.000Z</time>
      </trkpt>
      <trkpt lat="43.53078" lon="5.5753">
        <ele>766</ele>
        <time>2022-02-15T09:49:41.000Z</time>
      </trkpt>
      <trkpt lat="43.53078" lon="5.5753">
        <ele>766</ele>
        <time>2022-02-15T09:49:42.000Z</time>
      </trkpt>
      <trkpt lat="43.53078" lon="5.5753">
        <ele>766</ele>
        <time>2022-02-15T09:49:43.000Z</time>
      </trkpt>
      <trkpt lat="43.53078" lon="5.5753">
        <ele>766</ele>
        <time>2022-02-15T09:49:44.000Z</time>
      </trkpt>
      <trkpt lat="43.53078" lon="5.5753">
        <ele>766</ele>
        <time>2022-02-15T09:49:45.000Z</time>
      </trkpt>
      <trkpt lat="43.53078" lon="5.5753">
        <ele>766</ele>
        <time>2022-02-15T09:49:46.000Z</time>
      </trkpt>
      <trkpt lat="43.53079" lon="5.57529">
        <ele>766</ele>
        <time>2022-02-15T09:49:47.000Z</time>
      </trkpt>
      <trkpt lat="43.53079" lon="5.57529">
        <ele>766</ele>
        <time>2022-02-15T09:49:48.000Z</time>
      </trkpt>
      <trkpt lat="43.53079" lon="5.57529">
        <ele>766</ele>
        <time>2022-02-15T09:49:49.000Z</time>
      </trkpt>
      <trkpt lat="43.53079" lon="5.57529">
        <ele>766</ele>
        <time>2022-02-15T09:49:50.000Z</time>
      </trkpt>
      <trkpt lat="43.53079" lon="5.57528">
        <ele>766</ele>
        <time>2022-02-15T09:49:51.000Z</time>
      </trkpt>
      <trkpt lat="43.53079" lon="5.57528">
        <ele>766</ele>
        <time>2022-02-15T09:49:52.000Z</time>
      </trkpt>
      <trkpt lat="43.53079" lon="5.57528">
        <ele>766</ele>
        <time>2022-02-15T09:49:53.000Z</time>
      </trkpt>
      <trkpt lat="43.53079" lon="5.57528">
        <ele>766</ele>
        <time>2022-02-15T09:49:54.000Z</time>
      </trkpt>
      <trkpt lat="43.53079" lon="5.57528">
        <ele>766</ele>
        <time>2022-02-15T09:49:55.000Z</time>
      </trkpt>
      <trkpt lat="43.53079" lon="5.57528">
        <ele>766</ele>
        <time>2022-02-15T09:49:56.000Z</time>
      </trkpt>
      <trkpt lat="43.5308" lon="5.57528">
        <ele>766</ele>
        <time>2022-02-15T09:49:57.000Z</time>
      </trkpt>
      <trkpt lat="43.5308" lon="5.57528">
        <ele>766</ele>
        <time>2022-02-15T09:49:58.000Z</time>
      </trkpt>
      <trkpt lat="43.5308" lon="5.57528">
        <ele>766</ele>
        <time>2022-02-15T09:49:59.000Z</time>
      </trkpt>
      <trkpt lat="43.5308" lon="5.57528">
        <ele>766</ele>
        <time>2022-02-15T09:50:00.000Z</time>
      </trkpt>
      <trkpt lat="43.5308" lon="5.57528">
        <ele>767</ele>
        <time>2022-02-15T09:50:01.000Z</time>
      </trkpt>
      <trkpt lat="43.5308" lon="5.57528">
        <ele>767</ele>
        <time>2022-02-15T09:50:02.000Z</time>
      </trkpt>
      <trkpt lat="43.5308" lon="5.57528">
        <ele>767</ele>
        <time>2022-02-15T09:50:03.000Z</time>
      </trkpt>
      <trkpt lat="43.5308" lon="5.57528">
        <ele>767</ele>
        <time>2022-02-15T09:50:04.000Z</time>
      </trkpt>
      <trkpt lat="43.53081" lon="5.57528">
        <ele>767</ele>
        <time>2022-02-15T09:50:05.000Z</time>
      </trkpt>
      <trkpt lat="43.53081" lon="5.57528">
        <ele>767</ele>
        <time>2022-02-15T09:50:06.000Z</time>
      </trkpt>
      <trkpt lat="43.53081" lon="5.57528">
        <ele>767</ele>
        <time>2022-02-15T09:50:07.000Z</time>
      </trkpt>
      <trkpt lat="43.53081" lon="5.57528">
        <ele>767</ele>
        <time>2022-02-15T09:50:08.000Z</time>
      </trkpt>
      <trkpt lat="43.53081" lon="5.57529">
        <ele>767</ele>
        <time>2022-02-15T09:50:09.000Z</time>
      </trkpt>
      <trkpt lat="43.53081" lon="5.57529">
        <ele>767</ele>
        <time>2022-02-15T09:50:10.000Z</time>
      </trkpt>
      <trkpt lat="43.53081" lon="5.57529">
        <ele>767</ele>
        <time>2022-02-15T09:50:11.000Z</time>
      </trkpt>
      <trkpt lat="43.53081" lon="5.57528">
        <ele>767</ele>
        <time>2022-02-15T09:50:12.000Z</time>
      </trkpt>
      <trkpt lat="43.53081" lon="5.57528">
        <ele>767</ele>
        <time>2022-02-15T09:50:13.000Z</time>
      </trkpt>
      <trkpt lat="43.53082" lon="5.57528">
        <ele>767</ele>
        <time>2022-02-15T09:50:14.000Z</time>
      </trkpt>
      <trkpt lat="43.53082" lon="5.57528">
        <ele>767</ele>
        <time>2022-02-15T09:50:15.000Z</time>
      </trkpt>
      <trkpt lat="43.53082" lon="5.57528">
        <ele>767</ele>
        <time>2022-02-15T09:50:16.000Z</time>
      </trkpt>
      <trkpt lat="43.53082" lon="5.57528">
        <ele>767</ele>
        <time>2022-02-15T09:50:17.000Z</time>
      </trkpt>
      <trkpt lat="43.53082" lon="5.57528">
        <ele>767</ele>
        <time>2022-02-15T09:50:18.000Z</time>
      </trkpt>
      <trkpt lat="43.53082" lon="5.57528">
        <ele>767</ele>
        <time>2022-02-15T09:50:19.000Z</time>
      </trkpt>
      <trkpt lat="43.53082" lon="5.57528">
        <ele>767</ele>
        <time>2022-02-15T09:50:20.000Z</time>
      </trkpt>
      <trkpt lat="43.53082" lon="5.57528">
        <ele>767</ele>
        <time>2022-02-15T09:50:21.000Z</time>
      </trkpt>
      <trkpt lat="43.53083" lon="5.57528">
        <ele>768</ele>
        <time>2022-02-15T09:50:22.000Z</time>
      </trkpt>
      <trkpt lat="43.53083" lon="5.57528">
        <ele>768</ele>
        <time>2022-02-15T09:50:23.000Z</time>
      </trkpt>
      <trkpt lat="43.53083" lon="5.57528">
        <ele>768</ele>
        <time>2022-02-15T09:50:24.000Z</time>
      </trkpt>
      <trkpt lat="43.53083" lon="5.57528">
        <ele>768</ele>
        <time>2022-02-15T09:50:25.000Z</time>
      </trkpt>
      <trkpt lat="43.53083" lon="5.57528">
        <ele>768</ele>
        <time>2022-02-15T09:50:26.000Z</time>
      </trkpt>
      <trkpt lat="43.53083" lon="5.57527">
        <ele>768</ele>
        <time>2022-02-15T09:50:27.000Z</time>
      </trkpt>
      <trkpt lat="43.53083" lon="5.57527">
        <ele>768</ele>
        <time>2022-02-15T09:50:28.000Z</time>
      </trkpt>
      <trkpt lat="43.53083" lon="5.57527">
        <ele>768</ele>
        <time>2022-02-15T09:50:29.000Z</time>
      </trkpt>
      <trkpt lat="43.53083" lon="5.57527">
        <ele>768</ele>
        <time>2022-02-15T09:50:30.000Z</time>
      </trkpt>
      <trkpt lat="43.53084" lon="5.57527">
        <ele>768</ele>
        <time>2022-02-15T09:50:31.000Z</time>
      </trkpt>
      <trkpt lat="43.53085" lon="5.57526">
        <ele>769</ele>
        <time>2022-02-15T09:50:32.000Z</time>
      </trkpt>
      <trkpt lat="43.53085" lon="5.57526">
        <ele>769</ele>
        <time>2022-02-15T09:50:33.000Z</time>
      </trkpt>
      <trkpt lat="43.53085" lon="5.57526">
        <ele>769</ele>
        <time>2022-02-15T09:50:34.000Z</time>
      </trkpt>
      <trkpt lat="43.53085" lon="5.57526">
        <ele>769</ele>
        <time>2022-02-15T09:50:35.000Z</time>
      </trkpt>
      <trkpt lat="43.53085" lon="5.57527">
        <ele>769</ele>
        <time>2022-02-15T09:50:36.000Z</time>
      </trkpt>
      <trkpt lat="43.53086" lon="5.57527">
        <ele>769</ele>
        <time>2022-02-15T09:50:37.000Z</time>
      </trkpt>
      <trkpt lat="43.53086" lon="5.57527">
        <ele>769</ele>
        <time>2022-02-15T09:50:38.000Z</time>
      </trkpt>
      <trkpt lat="43.53086" lon="5.57527">
        <ele>769</ele>
        <time>2022-02-15T09:50:39.000Z</time>
      </trkpt>
      <trkpt lat="43.53086" lon="5.57528">
        <ele>769</ele>
        <time>2022-02-15T09:50:40.000Z</time>
      </trkpt>
      <trkpt lat="43.53086" lon="5.57528">
        <ele>769</ele>
        <time>2022-02-15T09:50:41.000Z</time>
      </trkpt>
      <trkpt lat="43.53087" lon="5.57529">
        <ele>770</ele>
        <time>2022-02-15T09:50:42.000Z</time>
      </trkpt>
      <trkpt lat="43.53087" lon="5.57529">
        <ele>770</ele>
        <time>2022-02-15T09:50:43.000Z</time>
      </trkpt>
      <trkpt lat="43.53087" lon="5.57529">
        <ele>770</ele>
        <time>2022-02-15T09:50:44.000Z</time>
      </trkpt>
      <trkpt lat="43.53087" lon="5.57529">
        <ele>770</ele>
        <time>2022-02-15T09:50:45.000Z</time>
      </trkpt>
      <trkpt lat="43.53087" lon="5.57528">
        <ele>770</ele>
        <time>2022-02-15T09:50:46.000Z</time>
      </trkpt>
      <trkpt lat="43.53087" lon="5.57529">
        <ele>771</ele>
        <time>2022-02-15T09:50:47.000Z</time>
      </trkpt>
      <trkpt lat="43.53087" lon="5.57528">
        <ele>771</ele>
        <time>2022-02-15T09:50:48.000Z</time>
      </trkpt>
      <trkpt lat="43.53087" lon="5.57528">
        <ele>771</ele>
        <time>2022-02-15T09:50:49.000Z</time>
      </trkpt>
      <trkpt lat="43.53087" lon="5.57528">
        <ele>771</ele>
        <time>2022-02-15T09:50:50.000Z</time>
      </trkpt>
      <trkpt lat="43.53087" lon="5.57528">
        <ele>771</ele>
        <time>2022-02-15T09:50:51.000Z</time>
      </trkpt>
      <trkpt lat="43.53087" lon="5.57528">
        <ele>771</ele>
        <time>2022-02-15T09:50:52.000Z</time>
      </trkpt>
      <trkpt lat="43.53087" lon="5.57528">
        <ele>771</ele>
        <time>2022-02-15T09:50:53.000Z</time>
      </trkpt>
      <trkpt lat="43.53087" lon="5.57528">
        <ele>771</ele>
        <time>2022-02-15T09:50:54.000Z</time>
      </trkpt>
      <trkpt lat="43.53087" lon="5.57528">
        <ele>771</ele>
        <time>2022-02-15T09:50:55.000Z</time>
      </trkpt>
      <trkpt lat="43.53087" lon="5.57527">
        <ele>771</ele>
        <time>2022-02-15T09:50:56.000Z</time>
      </trkpt>
      <trkpt lat="43.53086" lon="5.57527">
        <ele>772</ele>
        <time>2022-02-15T09:50:57.000Z</time>
      </trkpt>
      <trkpt lat="43.53086" lon="5.57527">
        <ele>772</ele>
        <time>2022-02-15T09:50:58.000Z</time>
      </trkpt>
      <trkpt lat="43.53087" lon="5.57527">
        <ele>772</ele>
        <time>2022-02-15T09:50:59.000Z</time>
      </trkpt>
      <trkpt lat="43.53087" lon="5.57527">
        <ele>772</ele>
        <time>2022-02-15T09:51:00.000Z</time>
      </trkpt>
      <trkpt lat="43.53088" lon="5.57527">
        <ele>772</ele>
        <time>2022-02-15T09:51:01.000Z</time>
      </trkpt>
      <trkpt lat="43.53088" lon="5.57527">
        <ele>772</ele>
        <time>2022-02-15T09:51:02.000Z</time>
      </trkpt>
      <trkpt lat="43.53088" lon="5.57528">
        <ele>772</ele>
        <time>2022-02-15T09:51:03.000Z</time>
      </trkpt>
      <trkpt lat="43.53088" lon="5.57528">
        <ele>772</ele>
        <time>2022-02-15T09:51:04.000Z</time>
      </trkpt>
      <trkpt lat="43.53089" lon="5.57528">
        <ele>773</ele>
        <time>2022-02-15T09:51:05.000Z</time>
      </trkpt>
      <trkpt lat="43.53089" lon="5.57528">
        <ele>773</ele>
        <time>2022-02-15T09:51:06.000Z</time>
      </trkpt>
      <trkpt lat="43.53089" lon="5.57528">
        <ele>773</ele>
        <time>2022-02-15T09:51:07.000Z</time>
      </trkpt>
      <trkpt lat="43.53089" lon="5.57528">
        <ele>773</ele>
        <time>2022-02-15T09:51:08.000Z</time>
      </trkpt>
      <trkpt lat="43.53089" lon="5.57528">
        <ele>773</ele>
        <time>2022-02-15T09:51:09.000Z</time>
      </trkpt>
      <trkpt lat="43.53088" lon="5.57528">
        <ele>773</ele>
        <time>2022-02-15T09:51:10.000Z</time>
      </trkpt>
      <trkpt lat="43.53088" lon="5.57528">
        <ele>773</ele>
        <time>2022-02-15T09:51:11.000Z</time>
      </trkpt>
      <trkpt lat="43.53088" lon="5.57528">
        <ele>773</ele>
        <time>2022-02-15T09:51:12.000Z</time>
      </trkpt>
      <trkpt lat="43.53088" lon="5.57528">
        <ele>773</ele>
        <time>2022-02-15T09:51:13.000Z</time>
      </trkpt>
      <trkpt lat="43.53088" lon="5.57527">
        <ele>773</ele>
        <time>2022-02-15T09:51:14.000Z</time>
      </trkpt>
      <trkpt lat="43.53088" lon="5.57527">
        <ele>774</ele>
        <time>2022-02-15T09:51:15.000Z</time>
      </trkpt>
      <trkpt lat="43.53088" lon="5.57527">
        <ele>774</ele>
        <time>2022-02-15T09:51:16.000Z</time>
      </trkpt>
      <trkpt lat="43.53088" lon="5.57527">
        <ele>774</ele>
        <time>2022-02-15T09:51:17.000Z</time>
      </trkpt>
      <trkpt lat="43.53088" lon="5.57527">
        <ele>774</ele>
        <time>2022-02-15T09:51:18.000Z</time>
      </trkpt>
      <trkpt lat="43.53088" lon="5.57527">
        <ele>774</ele>
        <time>2022-02-15T09:51:19.000Z</time>
      </trkpt>
      <trkpt lat="43.53088" lon="5.57527">
        <ele>774</ele>
        <time>2022-02-15T09:51:20.000Z</time>
      </trkpt>
      <trkpt lat="43.53088" lon="5.57527">
        <ele>774</ele>
        <time>2022-02-15T09:51:21.000Z</time>
      </trkpt>
      <trkpt lat="43.53088" lon="5.57527">
        <ele>774</ele>
        <time>2022-02-15T09:51:22.000Z</time>
      </trkpt>
      <trkpt lat="43.53088" lon="5.57527">
        <ele>774</ele>
        <time>2022-02-15T09:51:23.000Z</time>
      </trkpt>
      <trkpt lat="43.53088" lon="5.57527">
        <ele>775</ele>
        <time>2022-02-15T09:51:24.000Z</time>
      </trkpt>
      <trkpt lat="43.53088" lon="5.57527">
        <ele>775</ele>
        <time>2022-02-15T09:51:25.000Z</time>
      </trkpt>
      <trkpt lat="43.53088" lon="5.57527">
        <ele>775</ele>
        <time>2022-02-15T09:51:26.000Z</time>
      </trkpt>
      <trkpt lat="43.53088" lon="5.57527">
        <ele>775</ele>
        <time>2022-02-15T09:51:27.000Z</time>
      </trkpt>
      <trkpt lat="43.53088" lon="5.57527">
        <ele>775</ele>
        <time>2022-02-15T09:51:28.000Z</time>
      </trkpt>
      <trkpt lat="43.53088" lon="5.57526">
        <ele>775</ele>
        <time>2022-02-15T09:51:29.000Z</time>
      </trkpt>
      <trkpt lat="43.53088" lon="5.57526">
        <ele>775</ele>
        <time>2022-02-15T09:51:30.000Z</time>
      </trkpt>
      <trkpt lat="43.53088" lon="5.57526">
        <ele>775</ele>
        <time>2022-02-15T09:51:31.000Z</time>
      </trkpt>
      <trkpt lat="43.53088" lon="5.57526">
        <ele>775</ele>
        <time>2022-02-15T09:51:32.000Z</time>
      </trkpt>
      <trkpt lat="43.53088" lon="5.57526">
        <ele>775</ele>
        <time>2022-02-15T09:51:33.000Z</time>
      </trkpt>
      <trkpt lat="43.53088" lon="5.57526">
        <ele>775</ele>
        <time>2022-02-15T09:51:34.000Z</time>
      </trkpt>
      <trkpt lat="43.53088" lon="5.57526">
        <ele>775</ele>
        <time>2022-02-15T09:51:35.000Z</time>
      </trkpt>
      <trkpt lat="43.53088" lon="5.57526">
        <ele>775</ele>
        <time>2022-02-15T09:51:36.000Z</time>
      </trkpt>
      <trkpt lat="43.53088" lon="5.57526">
        <ele>775</ele>
        <time>2022-02-15T09:51:37.000Z</time>
      </trkpt>
      <trkpt lat="43.53088" lon="5.57526">
        <ele>775</ele>
        <time>2022-02-15T09:51:38.000Z</time>
      </trkpt>
      <trkpt lat="43.53088" lon="5.57526">
        <ele>776</ele>
        <time>2022-02-15T09:51:39.000Z</time>
      </trkpt>
      <trkpt lat="43.53088" lon="5.57526">
        <ele>776</ele>
        <time>2022-02-15T09:51:40.000Z</time>
      </trkpt>
      <trkpt lat="43.53089" lon="5.57526">
        <ele>776</ele>
        <time>2022-02-15T09:51:41.000Z</time>
      </trkpt>
      <trkpt lat="43.53089" lon="5.57526">
        <ele>776</ele>
        <time>2022-02-15T09:51:42.000Z</time>
      </trkpt>
      <trkpt lat="43.5309" lon="5.57526">
        <ele>776</ele>
        <time>2022-02-15T09:51:43.000Z</time>
      </trkpt>
      <trkpt lat="43.5309" lon="5.57527">
        <ele>776</ele>
        <time>2022-02-15T09:51:44.000Z</time>
      </trkpt>
      <trkpt lat="43.5309" lon="5.57527">
        <ele>776</ele>
        <time>2022-02-15T09:51:45.000Z</time>
      </trkpt>
      <trkpt lat="43.5309" lon="5.57527">
        <ele>777</ele>
        <time>2022-02-15T09:51:46.000Z</time>
      </trkpt>
      <trkpt lat="43.5309" lon="5.57527">
        <ele>777</ele>
        <time>2022-02-15T09:51:47.000Z</time>
      </trkpt>
      <trkpt lat="43.5309" lon="5.57527">
        <ele>777</ele>
        <time>2022-02-15T09:51:48.000Z</time>
      </trkpt>
      <trkpt lat="43.5309" lon="5.57528">
        <ele>777</ele>
        <time>2022-02-15T09:51:49.000Z</time>
      </trkpt>
      <trkpt lat="43.53089" lon="5.57528">
        <ele>778</ele>
        <time>2022-02-15T09:51:50.000Z</time>
      </trkpt>
      <trkpt lat="43.53089" lon="5.57528">
        <ele>778</ele>
        <time>2022-02-15T09:51:51.000Z</time>
      </trkpt>
      <trkpt lat="43.53089" lon="5.57528">
        <ele>778</ele>
        <time>2022-02-15T09:51:52.000Z</time>
      </trkpt>
      <trkpt lat="43.53089" lon="5.57528">
        <ele>778</ele>
        <time>2022-02-15T09:51:53.000Z</time>
      </trkpt>
      <trkpt lat="43.5309" lon="5.57527">
        <ele>778</ele>
        <time>2022-02-15T09:51:54.000Z</time>
      </trkpt>
      <trkpt lat="43.53091" lon="5.57527">
        <ele>778</ele>
        <time>2022-02-15T09:51:55.000Z</time>
      </trkpt>
      <trkpt lat="43.53091" lon="5.57527">
        <ele>779</ele>
        <time>2022-02-15T09:51:56.000Z</time>
      </trkpt>
      <trkpt lat="43.53091" lon="5.57527">
        <ele>779</ele>
        <time>2022-02-15T09:51:57.000Z</time>
      </trkpt>
      <trkpt lat="43.53091" lon="5.57527">
        <ele>779</ele>
        <time>2022-02-15T09:51:58.000Z</time>
      </trkpt>
      <trkpt lat="43.53092" lon="5.57527">
        <ele>779</ele>
        <time>2022-02-15T09:51:59.000Z</time>
      </trkpt>
      <trkpt lat="43.53093" lon="5.57527">
        <ele>779</ele>
        <time>2022-02-15T09:52:00.000Z</time>
      </trkpt>
      <trkpt lat="43.53093" lon="5.57527">
        <ele>779</ele>
        <time>2022-02-15T09:52:01.000Z</time>
      </trkpt>
      <trkpt lat="43.53094" lon="5.57527">
        <ele>780</ele>
        <time>2022-02-15T09:52:02.000Z</time>
      </trkpt>
      <trkpt lat="43.53094" lon="5.57527">
        <ele>780</ele>
        <time>2022-02-15T09:52:03.000Z</time>
      </trkpt>
      <trkpt lat="43.53094" lon="5.57527">
        <ele>780</ele>
        <time>2022-02-15T09:52:04.000Z</time>
      </trkpt>
      <trkpt lat="43.53094" lon="5.57527">
        <ele>780</ele>
        <time>2022-02-15T09:52:05.000Z</time>
      </trkpt>
      <trkpt lat="43.53094" lon="5.57527">
        <ele>780</ele>
        <time>2022-02-15T09:52:06.000Z</time>
      </trkpt>
      <trkpt lat="43.53094" lon="5.57528">
        <ele>780</ele>
        <time>2022-02-15T09:52:07.000Z</time>
      </trkpt>
      <trkpt lat="43.53095" lon="5.57528">
        <ele>781</ele>
        <time>2022-02-15T09:52:08.000Z</time>
      </trkpt>
      <trkpt lat="43.53095" lon="5.57528">
        <ele>781</ele>
        <time>2022-02-15T09:52:09.000Z</time>
      </trkpt>
      <trkpt lat="43.53095" lon="5.57528">
        <ele>781</ele>
        <time>2022-02-15T09:52:10.000Z</time>
      </trkpt>
      <trkpt lat="43.53096" lon="5.57528">
        <ele>782</ele>
        <time>2022-02-15T09:52:11.000Z</time>
      </trkpt>
      <trkpt lat="43.53096" lon="5.57529">
        <ele>782</ele>
        <time>2022-02-15T09:52:12.000Z</time>
      </trkpt>
      <trkpt lat="43.53096" lon="5.57529">
        <ele>782</ele>
        <time>2022-02-15T09:52:13.000Z</time>
      </trkpt>
      <trkpt lat="43.53095" lon="5.57529">
        <ele>783</ele>
        <time>2022-02-15T09:52:14.000Z</time>
      </trkpt>
      <trkpt lat="43.53095" lon="5.5753">
        <ele>783</ele>
        <time>2022-02-15T09:52:15.000Z</time>
      </trkpt>
      <trkpt lat="43.53094" lon="5.5753">
        <ele>783</ele>
        <time>2022-02-15T09:52:16.000Z</time>
      </trkpt>
      <trkpt lat="43.53094" lon="5.5753">
        <ele>783</ele>
        <time>2022-02-15T09:52:17.000Z</time>
      </trkpt>
      <trkpt lat="43.53094" lon="5.57531">
        <ele>784</ele>
        <time>2022-02-15T09:52:18.000Z</time>
      </trkpt>
      <trkpt lat="43.53093" lon="5.57531">
        <ele>784</ele>
        <time>2022-02-15T09:52:19.000Z</time>
      </trkpt>
      <trkpt lat="43.53093" lon="5.57531">
        <ele>784</ele>
        <time>2022-02-15T09:52:20.000Z</time>
      </trkpt>
      <trkpt lat="43.53093" lon="5.57531">
        <ele>784</ele>
        <time>2022-02-15T09:52:21.000Z</time>
      </trkpt>
      <trkpt lat="43.53093" lon="5.5753">
        <ele>784</ele>
        <time>2022-02-15T09:52:22.000Z</time>
      </trkpt>
      <trkpt lat="43.53093" lon="5.57531">
        <ele>784</ele>
        <time>2022-02-15T09:52:23.000Z</time>
      </trkpt>
      <trkpt lat="43.53092" lon="5.57532">
        <ele>785</ele>
        <time>2022-02-15T09:52:24.000Z</time>
      </trkpt>
      <trkpt lat="43.53092" lon="5.57532">
        <ele>785</ele>
        <time>2022-02-15T09:52:25.000Z</time>
      </trkpt>
      <trkpt lat="43.53092" lon="5.57532">
        <ele>785</ele>
        <time>2022-02-15T09:52:26.000Z</time>
      </trkpt>
      <trkpt lat="43.53092" lon="5.57532">
        <ele>785</ele>
        <time>2022-02-15T09:52:27.000Z</time>
      </trkpt>
      <trkpt lat="43.53091" lon="5.57533">
        <ele>785</ele>
        <time>2022-02-15T09:52:28.000Z</time>
      </trkpt>
      <trkpt lat="43.53091" lon="5.57533">
        <ele>785</ele>
        <time>2022-02-15T09:52:29.000Z</time>
      </trkpt>
      <trkpt lat="43.5309" lon="5.57533">
        <ele>785</ele>
        <time>2022-02-15T09:52:30.000Z</time>
      </trkpt>
      <trkpt lat="43.5309" lon="5.57534">
        <ele>785</ele>
        <time>2022-02-15T09:52:31.000Z</time>
      </trkpt>
      <trkpt lat="43.5309" lon="5.57534">
        <ele>785</ele>
        <time>2022-02-15T09:52:32.000Z</time>
      </trkpt>
      <trkpt lat="43.5309" lon="5.57534">
        <ele>785</ele>
        <time>2022-02-15T09:52:33.000Z</time>
      </trkpt>
      <trkpt lat="43.53089" lon="5.57534">
        <ele>785</ele>
        <time>2022-02-15T09:52:34.000Z</time>
      </trkpt>
      <trkpt lat="43.53089" lon="5.57533">
        <ele>785</ele>
        <time>2022-02-15T09:52:35.000Z</time>
      </trkpt>
      <trkpt lat="43.53089" lon="5.57533">
        <ele>786</ele>
        <time>2022-02-15T09:52:36.000Z</time>
      </trkpt>
      <trkpt lat="43.53089" lon="5.57533">
        <ele>786</ele>
        <time>2022-02-15T09:52:37.000Z</time>
      </trkpt>
      <trkpt lat="43.53089" lon="5.57533">
        <ele>786</ele>
        <time>2022-02-15T09:52:38.000Z</time>
      </trkpt>
      <trkpt lat="43.53089" lon="5.57533">
        <ele>786</ele>
        <time>2022-02-15T09:52:39.000Z</time>
      </trkpt>
      <trkpt lat="43.53089" lon="5.57534">
        <ele>786</ele>
        <time>2022-02-15T09:52:40.000Z</time>
      </trkpt>
      <trkpt lat="43.53089" lon="5.57534">
        <ele>786</ele>
        <time>2022-02-15T09:52:41.000Z</time>
      </trkpt>
      <trkpt lat="43.53089" lon="5.57534">
        <ele>786</ele>
        <time>2022-02-15T09:52:42.000Z</time>
      </trkpt>
      <trkpt lat="43.53089" lon="5.57534">
        <ele>786</ele>
        <time>2022-02-15T09:52:43.000Z</time>
      </trkpt>
      <trkpt lat="43.53089" lon="5.57534">
        <ele>786</ele>
        <time>2022-02-15T09:52:44.000Z</time>
      </trkpt>
      <trkpt lat="43.53089" lon="5.57534">
        <ele>787</ele>
        <time>2022-02-15T09:52:45.000Z</time>
      </trkpt>
      <trkpt lat="43.53089" lon="5.57534">
        <ele>787</ele>
        <time>2022-02-15T09:52:46.000Z</time>
      </trkpt>
      <trkpt lat="43.53089" lon="5.57534">
        <ele>787</ele>
        <time>2022-02-15T09:52:47.000Z</time>
      </trkpt>
      <trkpt lat="43.53089" lon="5.57534">
        <ele>787</ele>
        <time>2022-02-15T09:52:48.000Z</time>
      </trkpt>
      <trkpt lat="43.53089" lon="5.57534">
        <ele>787</ele>
        <time>2022-02-15T09:52:49.000Z</time>
      </trkpt>
      <trkpt lat="43.53089" lon="5.57534">
        <ele>787</ele>
        <time>2022-02-15T09:52:50.000Z</time>
      </trkpt>
      <trkpt lat="43.53089" lon="5.57534">
        <ele>787</ele>
        <time>2022-02-15T09:52:51.000Z</time>
      </trkpt>
      <trkpt lat="43.53089" lon="5.57534">
        <ele>787</ele>
        <time>2022-02-15T09:52:52.000Z</time>
      </trkpt>
      <trkpt lat="43.53089" lon="5.57534">
        <ele>787</ele>
        <time>2022-02-15T09:52:53.000Z</time>
      </trkpt>
      <trkpt lat="43.53089" lon="5.57534">
        <ele>787</ele>
        <time>2022-02-15T09:52:54.000Z</time>
      </trkpt>
      <trkpt lat="43.53089" lon="5.57534">
        <ele>787</ele>
        <time>2022-02-15T09:52:55.000Z</time>
      </trkpt>
      <trkpt lat="43.53089" lon="5.57533">
        <ele>787</ele>
        <time>2022-02-15T09:52:56.000Z</time>
      </trkpt>
      <trkpt lat="43.53089" lon="5.57533">
        <ele>787</ele>
        <time>2022-02-15T09:52:57.000Z</time>
      </trkpt>
      <trkpt lat="43.53089" lon="5.57533">
        <ele>787</ele>
        <time>2022-02-15T09:52:58.000Z</time>
      </trkpt>
      <trkpt lat="43.5309" lon="5.57533">
        <ele>787</ele>
        <time>2022-02-15T09:52:59.000Z</time>
      </trkpt>
      <trkpt lat="43.5309" lon="5.57533">
        <ele>787</ele>
        <time>2022-02-15T09:53:00.000Z</time>
      </trkpt>
      <trkpt lat="43.5309" lon="5.57533">
        <ele>787</ele>
        <time>2022-02-15T09:53:01.000Z</time>
      </trkpt>
      <trkpt lat="43.53091" lon="5.57534">
        <ele>787</ele>
        <time>2022-02-15T09:53:02.000Z</time>
      </trkpt>
      <trkpt lat="43.53091" lon="5.57534">
        <ele>787</ele>
        <time>2022-02-15T09:53:03.000Z</time>
      </trkpt>
      <trkpt lat="43.53092" lon="5.57534">
        <ele>788</ele>
        <time>2022-02-15T09:53:04.000Z</time>
      </trkpt>
      <trkpt lat="43.53092" lon="5.57534">
        <ele>788</ele>
        <time>2022-02-15T09:53:05.000Z</time>
      </trkpt>
      <trkpt lat="43.53093" lon="5.57534">
        <ele>788</ele>
        <time>2022-02-15T09:53:06.000Z</time>
      </trkpt>
      <trkpt lat="43.53093" lon="5.57534">
        <ele>788</ele>
        <time>2022-02-15T09:53:07.000Z</time>
      </trkpt>
      <trkpt lat="43.53093" lon="5.57534">
        <ele>788</ele>
        <time>2022-02-15T09:53:08.000Z</time>
      </trkpt>
      <trkpt lat="43.53094" lon="5.57534">
        <ele>788</ele>
        <time>2022-02-15T09:53:09.000Z</time>
      </trkpt>
      <trkpt lat="43.53094" lon="5.57534">
        <ele>788</ele>
        <time>2022-02-15T09:53:10.000Z</time>
      </trkpt>
      <trkpt lat="43.53094" lon="5.57534">
        <ele>788</ele>
        <time>2022-02-15T09:53:11.000Z</time>
      </trkpt>
      <trkpt lat="43.53094" lon="5.57534">
        <ele>788</ele>
        <time>2022-02-15T09:53:12.000Z</time>
      </trkpt>
      <trkpt lat="43.53094" lon="5.57534">
        <ele>788</ele>
        <time>2022-02-15T09:53:13.000Z</time>
      </trkpt>
      <trkpt lat="43.53094" lon="5.57534">
        <ele>788</ele>
        <time>2022-02-15T09:53:14.000Z</time>
      </trkpt>
      <trkpt lat="43.53094" lon="5.57534">
        <ele>788</ele>
        <time>2022-02-15T09:53:15.000Z</time>
      </trkpt>
      <trkpt lat="43.53094" lon="5.57534">
        <ele>787</ele>
        <time>2022-02-15T09:53:16.000Z</time>
      </trkpt>
      <trkpt lat="43.53094" lon="5.57534">
        <ele>787</ele>
        <time>2022-02-15T09:53:17.000Z</time>
      </trkpt>
      <trkpt lat="43.53094" lon="5.57535">
        <ele>787</ele>
        <time>2022-02-15T09:53:18.000Z</time>
      </trkpt>
      <trkpt lat="43.53093" lon="5.57536">
        <ele>787</ele>
        <time>2022-02-15T09:53:19.000Z</time>
      </trkpt>
      <trkpt lat="43.53093" lon="5.57536">
        <ele>787</ele>
        <time>2022-02-15T09:53:20.000Z</time>
      </trkpt>
      <trkpt lat="43.53094" lon="5.57537">
        <ele>787</ele>
        <time>2022-02-15T09:53:21.000Z</time>
      </trkpt>
      <trkpt lat="43.53094" lon="5.57537">
        <ele>786</ele>
        <time>2022-02-15T09:53:22.000Z</time>
      </trkpt>
      <trkpt lat="43.53094" lon="5.57537">
        <ele>786</ele>
        <time>2022-02-15T09:53:23.000Z</time>
      </trkpt>
      <trkpt lat="43.53094" lon="5.57537">
        <ele>786</ele>
        <time>2022-02-15T09:53:24.000Z</time>
      </trkpt>
      <trkpt lat="43.53094" lon="5.57537">
        <ele>786</ele>
        <time>2022-02-15T09:53:25.000Z</time>
      </trkpt>
      <trkpt lat="43.53095" lon="5.57537">
        <ele>786</ele>
        <time>2022-02-15T09:53:26.000Z</time>
      </trkpt>
      <trkpt lat="43.53095" lon="5.57537">
        <ele>786</ele>
        <time>2022-02-15T09:53:27.000Z</time>
      </trkpt>
      <trkpt lat="43.53095" lon="5.57537">
        <ele>786</ele>
        <time>2022-02-15T09:53:28.000Z</time>
      </trkpt>
      <trkpt lat="43.53095" lon="5.57538">
        <ele>786</ele>
        <time>2022-02-15T09:53:29.000Z</time>
      </trkpt>
      <trkpt lat="43.53095" lon="5.57538">
        <ele>786</ele>
        <time>2022-02-15T09:53:30.000Z</time>
      </trkpt>
      <trkpt lat="43.53095" lon="5.57538">
        <ele>786</ele>
        <time>2022-02-15T09:53:31.000Z</time>
      </trkpt>
      <trkpt lat="43.53095" lon="5.57538">
        <ele>786</ele>
        <time>2022-02-15T09:53:32.000Z</time>
      </trkpt>
      <trkpt lat="43.53095" lon="5.57537">
        <ele>786</ele>
        <time>2022-02-15T09:53:33.000Z</time>
      </trkpt>
      <trkpt lat="43.53096" lon="5.57537">
        <ele>786</ele>
        <time>2022-02-15T09:53:34.000Z</time>
      </trkpt>
      <trkpt lat="43.53096" lon="5.57537">
        <ele>786</ele>
        <time>2022-02-15T09:53:35.000Z</time>
      </trkpt>
      <trkpt lat="43.53097" lon="5.57537">
        <ele>786</ele>
        <time>2022-02-15T09:53:36.000Z</time>
      </trkpt>
      <trkpt lat="43.53097" lon="5.57537">
        <ele>786</ele>
        <time>2022-02-15T09:53:37.000Z</time>
      </trkpt>
      <trkpt lat="43.53098" lon="5.57538">
        <ele>786</ele>
        <time>2022-02-15T09:53:38.000Z</time>
      </trkpt>
      <trkpt lat="43.53098" lon="5.57537">
        <ele>786</ele>
        <time>2022-02-15T09:53:39.000Z</time>
      </trkpt>
      <trkpt lat="43.53098" lon="5.57537">
        <ele>787</ele>
        <time>2022-02-15T09:53:40.000Z</time>
      </trkpt>
      <trkpt lat="43.53098" lon="5.57537">
        <ele>787</ele>
        <time>2022-02-15T09:53:41.000Z</time>
      </trkpt>
      <trkpt lat="43.53099" lon="5.57536">
        <ele>787</ele>
        <time>2022-02-15T09:53:42.000Z</time>
      </trkpt>
      <trkpt lat="43.53099" lon="5.57536">
        <ele>787</ele>
        <time>2022-02-15T09:53:43.000Z</time>
      </trkpt>
      <trkpt lat="43.53099" lon="5.57536">
        <ele>787</ele>
        <time>2022-02-15T09:53:44.000Z</time>
      </trkpt>
      <trkpt lat="43.53099" lon="5.57536">
        <ele>787</ele>
        <time>2022-02-15T09:53:45.000Z</time>
      </trkpt>
      <trkpt lat="43.53099" lon="5.57536">
        <ele>787</ele>
        <time>2022-02-15T09:53:46.000Z</time>
      </trkpt>
      <trkpt lat="43.53099" lon="5.57537">
        <ele>787</ele>
        <time>2022-02-15T09:53:47.000Z</time>
      </trkpt>
      <trkpt lat="43.53099" lon="5.57537">
        <ele>787</ele>
        <time>2022-02-15T09:53:48.000Z</time>
      </trkpt>
      <trkpt lat="43.53099" lon="5.57537">
        <ele>787</ele>
        <time>2022-02-15T09:53:49.000Z</time>
      </trkpt>
      <trkpt lat="43.531" lon="5.57536">
        <ele>787</ele>
        <time>2022-02-15T09:53:50.000Z</time>
      </trkpt>
      <trkpt lat="43.531" lon="5.57536">
        <ele>787</ele>
        <time>2022-02-15T09:53:51.000Z</time>
      </trkpt>
      <trkpt lat="43.531" lon="5.57536">
        <ele>788</ele>
        <time>2022-02-15T09:53:52.000Z</time>
      </trkpt>
      <trkpt lat="43.531" lon="5.57536">
        <ele>788</ele>
        <time>2022-02-15T09:53:53.000Z</time>
      </trkpt>
      <trkpt lat="43.531" lon="5.57536">
        <ele>788</ele>
        <time>2022-02-15T09:53:54.000Z</time>
      </trkpt>
      <trkpt lat="43.53101" lon="5.57536">
        <ele>788</ele>
        <time>2022-02-15T09:53:55.000Z</time>
      </trkpt>
      <trkpt lat="43.53101" lon="5.57536">
        <ele>788</ele>
        <time>2022-02-15T09:53:56.000Z</time>
      </trkpt>
      <trkpt lat="43.53101" lon="5.57536">
        <ele>788</ele>
        <time>2022-02-15T09:53:57.000Z</time>
      </trkpt>
      <trkpt lat="43.53101" lon="5.57536">
        <ele>788</ele>
        <time>2022-02-15T09:53:58.000Z</time>
      </trkpt>
      <trkpt lat="43.53101" lon="5.57536">
        <ele>788</ele>
        <time>2022-02-15T09:53:59.000Z</time>
      </trkpt>
      <trkpt lat="43.53101" lon="5.57536">
        <ele>788</ele>
        <time>2022-02-15T09:54:00.000Z</time>
      </trkpt>
      <trkpt lat="43.53101" lon="5.57536">
        <ele>788</ele>
        <time>2022-02-15T09:54:01.000Z</time>
      </trkpt>
      <trkpt lat="43.53101" lon="5.57536">
        <ele>788</ele>
        <time>2022-02-15T09:54:02.000Z</time>
      </trkpt>
      <trkpt lat="43.53101" lon="5.57536">
        <ele>788</ele>
        <time>2022-02-15T09:54:03.000Z</time>
      </trkpt>
      <trkpt lat="43.53101" lon="5.57536">
        <ele>788</ele>
        <time>2022-02-15T09:54:04.000Z</time>
      </trkpt>
      <trkpt lat="43.53101" lon="5.57536">
        <ele>788</ele>
        <time>2022-02-15T09:54:05.000Z</time>
      </trkpt>
      <trkpt lat="43.53101" lon="5.57536">
        <ele>788</ele>
        <time>2022-02-15T09:54:06.000Z</time>
      </trkpt>
      <trkpt lat="43.53101" lon="5.57536">
        <ele>788</ele>
        <time>2022-02-15T09:54:07.000Z</time>
      </trkpt>
      <trkpt lat="43.53101" lon="5.57536">
        <ele>788</ele>
        <time>2022-02-15T09:54:08.000Z</time>
      </trkpt>
      <trkpt lat="43.53101" lon="5.57536">
        <ele>788</ele>
        <time>2022-02-15T09:54:09.000Z</time>
      </trkpt>
      <trkpt lat="43.53101" lon="5.57536">
        <ele>788</ele>
        <time>2022-02-15T09:54:10.000Z</time>
      </trkpt>
      <trkpt lat="43.53102" lon="5.57536">
        <ele>788</ele>
        <time>2022-02-15T09:54:11.000Z</time>
      </trkpt>
      <trkpt lat="43.53102" lon="5.57536">
        <ele>788</ele>
        <time>2022-02-15T09:54:12.000Z</time>
      </trkpt>
      <trkpt lat="43.53102" lon="5.57536">
        <ele>788</ele>
        <time>2022-02-15T09:54:13.000Z</time>
      </trkpt>
      <trkpt lat="43.53102" lon="5.57536">
        <ele>788</ele>
        <time>2022-02-15T09:54:14.000Z</time>
      </trkpt>
      <trkpt lat="43.53102" lon="5.57536">
        <ele>788</ele>
        <time>2022-02-15T09:54:15.000Z</time>
      </trkpt>
      <trkpt lat="43.53102" lon="5.57536">
        <ele>788</ele>
        <time>2022-02-15T09:54:16.000Z</time>
      </trkpt>
      <trkpt lat="43.53102" lon="5.57536">
        <ele>788</ele>
        <time>2022-02-15T09:54:17.000Z</time>
      </trkpt>
      <trkpt lat="43.53102" lon="5.57536">
        <ele>788</ele>
        <time>2022-02-15T09:54:18.000Z</time>
      </trkpt>
      <trkpt lat="43.53102" lon="5.57536">
        <ele>788</ele>
        <time>2022-02-15T09:54:19.000Z</time>
      </trkpt>
      <trkpt lat="43.53102" lon="5.57536">
        <ele>788</ele>
        <time>2022-02-15T09:54:20.000Z</time>
      </trkpt>
      <trkpt lat="43.53102" lon="5.57536">
        <ele>789</ele>
        <time>2022-02-15T09:54:21.000Z</time>
      </trkpt>
      <trkpt lat="43.53102" lon="5.57536">
        <ele>789</ele>
        <time>2022-02-15T09:54:22.000Z</time>
      </trkpt>
      <trkpt lat="43.53102" lon="5.57536">
        <ele>789</ele>
        <time>2022-02-15T09:54:23.000Z</time>
      </trkpt>
      <trkpt lat="43.53102" lon="5.57536">
        <ele>789</ele>
        <time>2022-02-15T09:54:24.000Z</time>
      </trkpt>
      <trkpt lat="43.53102" lon="5.57536">
        <ele>789</ele>
        <time>2022-02-15T09:54:25.000Z</time>
      </trkpt>
      <trkpt lat="43.53102" lon="5.57537">
        <ele>789</ele>
        <time>2022-02-15T09:54:26.000Z</time>
      </trkpt>
      <trkpt lat="43.53102" lon="5.57537">
        <ele>789</ele>
        <time>2022-02-15T09:54:27.000Z</time>
      </trkpt>
      <trkpt lat="43.53102" lon="5.57537">
        <ele>789</ele>
        <time>2022-02-15T09:54:28.000Z</time>
      </trkpt>
      <trkpt lat="43.53102" lon="5.57537">
        <ele>789</ele>
        <time>2022-02-15T09:54:29.000Z</time>
      </trkpt>
      <trkpt lat="43.53102" lon="5.57537">
        <ele>788</ele>
        <time>2022-02-15T09:54:30.000Z</time>
      </trkpt>
      <trkpt lat="43.53102" lon="5.57537">
        <ele>789</ele>
        <time>2022-02-15T09:54:31.000Z</time>
      </trkpt>
      <trkpt lat="43.53102" lon="5.57537">
        <ele>789</ele>
        <time>2022-02-15T09:54:32.000Z</time>
      </trkpt>
      <trkpt lat="43.53102" lon="5.57537">
        <ele>789</ele>
        <time>2022-02-15T09:54:33.000Z</time>
      </trkpt>
      <trkpt lat="43.53102" lon="5.57537">
        <ele>789</ele>
        <time>2022-02-15T09:54:34.000Z</time>
      </trkpt>
      <trkpt lat="43.53102" lon="5.57537">
        <ele>789</ele>
        <time>2022-02-15T09:54:35.000Z</time>
      </trkpt>
      <trkpt lat="43.53102" lon="5.57537">
        <ele>789</ele>
        <time>2022-02-15T09:54:36.000Z</time>
      </trkpt>
      <trkpt lat="43.53102" lon="5.57537">
        <ele>789</ele>
        <time>2022-02-15T09:54:37.000Z</time>
      </trkpt>
      <trkpt lat="43.53102" lon="5.57537">
        <ele>789</ele>
        <time>2022-02-15T09:54:38.000Z</time>
      </trkpt>
      <trkpt lat="43.53102" lon="5.57537">
        <ele>789</ele>
        <time>2022-02-15T09:54:39.000Z</time>
      </trkpt>
      <trkpt lat="43.53103" lon="5.57537">
        <ele>789</ele>
        <time>2022-02-15T09:54:40.000Z</time>
      </trkpt>
      <trkpt lat="43.53104" lon="5.57537">
        <ele>789</ele>
        <time>2022-02-15T09:54:41.000Z</time>
      </trkpt>
      <trkpt lat="43.53104" lon="5.57537">
        <ele>789</ele>
        <time>2022-02-15T09:54:42.000Z</time>
      </trkpt>
      <trkpt lat="43.53104" lon="5.57537">
        <ele>789</ele>
        <time>2022-02-15T09:54:43.000Z</time>
      </trkpt>
      <trkpt lat="43.53104" lon="5.57536">
        <ele>789</ele>
        <time>2022-02-15T09:54:44.000Z</time>
      </trkpt>
      <trkpt lat="43.53105" lon="5.57536">
        <ele>789</ele>
        <time>2022-02-15T09:54:45.000Z</time>
      </trkpt>
      <trkpt lat="43.53105" lon="5.57536">
        <ele>789</ele>
        <time>2022-02-15T09:54:46.000Z</time>
      </trkpt>
      <trkpt lat="43.53105" lon="5.57536">
        <ele>789</ele>
        <time>2022-02-15T09:54:47.000Z</time>
      </trkpt>
      <trkpt lat="43.53105" lon="5.57536">
        <ele>789</ele>
        <time>2022-02-15T09:54:48.000Z</time>
      </trkpt>
      <trkpt lat="43.53105" lon="5.57536">
        <ele>790</ele>
        <time>2022-02-15T09:54:49.000Z</time>
      </trkpt>
      <trkpt lat="43.53105" lon="5.57536">
        <ele>790</ele>
        <time>2022-02-15T09:54:50.000Z</time>
      </trkpt>
      <trkpt lat="43.53106" lon="5.57536">
        <ele>790</ele>
        <time>2022-02-15T09:54:51.000Z</time>
      </trkpt>
      <trkpt lat="43.53106" lon="5.57537">
        <ele>790</ele>
        <time>2022-02-15T09:54:52.000Z</time>
      </trkpt>
      <trkpt lat="43.53106" lon="5.57536">
        <ele>790</ele>
        <time>2022-02-15T09:54:53.000Z</time>
      </trkpt>
      <trkpt lat="43.53107" lon="5.57536">
        <ele>790</ele>
        <time>2022-02-15T09:54:54.000Z</time>
      </trkpt>
      <trkpt lat="43.53107" lon="5.57536">
        <ele>790</ele>
        <time>2022-02-15T09:54:55.000Z</time>
      </trkpt>
      <trkpt lat="43.53108" lon="5.57535">
        <ele>790</ele>
        <time>2022-02-15T09:54:56.000Z</time>
      </trkpt>
      <trkpt lat="43.53108" lon="5.57535">
        <ele>791</ele>
        <time>2022-02-15T09:54:57.000Z</time>
      </trkpt>
      <trkpt lat="43.53109" lon="5.57534">
        <ele>791</ele>
        <time>2022-02-15T09:54:58.000Z</time>
      </trkpt>
      <trkpt lat="43.53109" lon="5.57533">
        <ele>791</ele>
        <time>2022-02-15T09:54:59.000Z</time>
      </trkpt>
      <trkpt lat="43.5311" lon="5.57533">
        <ele>791</ele>
        <time>2022-02-15T09:55:00.000Z</time>
      </trkpt>
      <trkpt lat="43.5311" lon="5.57532">
        <ele>791</ele>
        <time>2022-02-15T09:55:01.000Z</time>
      </trkpt>
      <trkpt lat="43.53111" lon="5.57532">
        <ele>791</ele>
        <time>2022-02-15T09:55:02.000Z</time>
      </trkpt>
      <trkpt lat="43.53112" lon="5.57532">
        <ele>792</ele>
        <time>2022-02-15T09:55:03.000Z</time>
      </trkpt>
      <trkpt lat="43.53112" lon="5.57531">
        <ele>792</ele>
        <time>2022-02-15T09:55:04.000Z</time>
      </trkpt>
      <trkpt lat="43.53112" lon="5.57531">
        <ele>792</ele>
        <time>2022-02-15T09:55:05.000Z</time>
      </trkpt>
      <trkpt lat="43.53112" lon="5.57531">
        <ele>792</ele>
        <time>2022-02-15T09:55:06.000Z</time>
      </trkpt>
      <trkpt lat="43.53112" lon="5.57531">
        <ele>793</ele>
        <time>2022-02-15T09:55:07.000Z</time>
      </trkpt>
      <trkpt lat="43.53111" lon="5.57531">
        <ele>793</ele>
        <time>2022-02-15T09:55:08.000Z</time>
      </trkpt>
      <trkpt lat="43.53112" lon="5.57531">
        <ele>793</ele>
        <time>2022-02-15T09:55:09.000Z</time>
      </trkpt>
      <trkpt lat="43.53112" lon="5.5753">
        <ele>793</ele>
        <time>2022-02-15T09:55:10.000Z</time>
      </trkpt>
      <trkpt lat="43.53113" lon="5.57531">
        <ele>793</ele>
        <time>2022-02-15T09:55:11.000Z</time>
      </trkpt>
      <trkpt lat="43.53113" lon="5.57531">
        <ele>793</ele>
        <time>2022-02-15T09:55:12.000Z</time>
      </trkpt>
      <trkpt lat="43.53113" lon="5.57531">
        <ele>794</ele>
        <time>2022-02-15T09:55:13.000Z</time>
      </trkpt>
      <trkpt lat="43.53114" lon="5.57531">
        <ele>794</ele>
        <time>2022-02-15T09:55:14.000Z</time>
      </trkpt>
      <trkpt lat="43.53114" lon="5.57531">
        <ele>795</ele>
        <time>2022-02-15T09:55:15.000Z</time>
      </trkpt>
      <trkpt lat="43.53114" lon="5.57531">
        <ele>795</ele>
        <time>2022-02-15T09:55:16.000Z</time>
      </trkpt>
      <trkpt lat="43.53115" lon="5.5753">
        <ele>795</ele>
        <time>2022-02-15T09:55:17.000Z</time>
      </trkpt>
      <trkpt lat="43.53115" lon="5.5753">
        <ele>796</ele>
        <time>2022-02-15T09:55:18.000Z</time>
      </trkpt>
      <trkpt lat="43.53115" lon="5.57529">
        <ele>796</ele>
        <time>2022-02-15T09:55:19.000Z</time>
      </trkpt>
      <trkpt lat="43.53116" lon="5.57529">
        <ele>796</ele>
        <time>2022-02-15T09:55:20.000Z</time>
      </trkpt>
      <trkpt lat="43.53116" lon="5.57528">
        <ele>797</ele>
        <time>2022-02-15T09:55:21.000Z</time>
      </trkpt>
      <trkpt lat="43.53117" lon="5.57528">
        <ele>797</ele>
        <time>2022-02-15T09:55:22.000Z</time>
      </trkpt>
      <trkpt lat="43.53117" lon="5.57528">
        <ele>797</ele>
        <time>2022-02-15T09:55:23.000Z</time>
      </trkpt>
      <trkpt lat="43.53118" lon="5.57527">
        <ele>797</ele>
        <time>2022-02-15T09:55:24.000Z</time>
      </trkpt>
      <trkpt lat="43.53118" lon="5.57526">
        <ele>798</ele>
        <time>2022-02-15T09:55:25.000Z</time>
      </trkpt>
      <trkpt lat="43.53119" lon="5.57526">
        <ele>798</ele>
        <time>2022-02-15T09:55:26.000Z</time>
      </trkpt>
      <trkpt lat="43.53119" lon="5.57525">
        <ele>798</ele>
        <time>2022-02-15T09:55:27.000Z</time>
      </trkpt>
      <trkpt lat="43.53119" lon="5.57525">
        <ele>798</ele>
        <time>2022-02-15T09:55:28.000Z</time>
      </trkpt>
      <trkpt lat="43.53119" lon="5.57525">
        <ele>799</ele>
        <time>2022-02-15T09:55:29.000Z</time>
      </trkpt>
      <trkpt lat="43.53119" lon="5.57525">
        <ele>799</ele>
        <time>2022-02-15T09:55:30.000Z</time>
      </trkpt>
      <trkpt lat="43.53119" lon="5.57525">
        <ele>799</ele>
        <time>2022-02-15T09:55:31.000Z</time>
      </trkpt>
      <trkpt lat="43.53119" lon="5.57524">
        <ele>799</ele>
        <time>2022-02-15T09:55:32.000Z</time>
      </trkpt>
      <trkpt lat="43.53118" lon="5.57524">
        <ele>799</ele>
        <time>2022-02-15T09:55:33.000Z</time>
      </trkpt>
      <trkpt lat="43.53118" lon="5.57524">
        <ele>800</ele>
        <time>2022-02-15T09:55:34.000Z</time>
      </trkpt>
      <trkpt lat="43.53118" lon="5.57524">
        <ele>800</ele>
        <time>2022-02-15T09:55:35.000Z</time>
      </trkpt>
      <trkpt lat="43.53119" lon="5.57523">
        <ele>800</ele>
        <time>2022-02-15T09:55:36.000Z</time>
      </trkpt>
      <trkpt lat="43.53119" lon="5.57523">
        <ele>800</ele>
        <time>2022-02-15T09:55:37.000Z</time>
      </trkpt>
      <trkpt lat="43.53119" lon="5.57522">
        <ele>800</ele>
        <time>2022-02-15T09:55:38.000Z</time>
      </trkpt>
      <trkpt lat="43.5312" lon="5.5752">
        <ele>800</ele>
        <time>2022-02-15T09:55:39.000Z</time>
      </trkpt>
      <trkpt lat="43.5312" lon="5.57519">
        <ele>800</ele>
        <time>2022-02-15T09:55:40.000Z</time>
      </trkpt>
      <trkpt lat="43.5312" lon="5.57519">
        <ele>800</ele>
        <time>2022-02-15T09:55:41.000Z</time>
      </trkpt>
      <trkpt lat="43.5312" lon="5.57518">
        <ele>801</ele>
        <time>2022-02-15T09:55:42.000Z</time>
      </trkpt>
      <trkpt lat="43.5312" lon="5.57518">
        <ele>801</ele>
        <time>2022-02-15T09:55:43.000Z</time>
      </trkpt>
      <trkpt lat="43.53121" lon="5.57517">
        <ele>801</ele>
        <time>2022-02-15T09:55:44.000Z</time>
      </trkpt>
      <trkpt lat="43.53121" lon="5.57517">
        <ele>801</ele>
        <time>2022-02-15T09:55:45.000Z</time>
      </trkpt>
      <trkpt lat="43.53121" lon="5.57517">
        <ele>801</ele>
        <time>2022-02-15T09:55:46.000Z</time>
      </trkpt>
      <trkpt lat="43.53121" lon="5.57517">
        <ele>801</ele>
        <time>2022-02-15T09:55:47.000Z</time>
      </trkpt>
      <trkpt lat="43.53121" lon="5.57517">
        <ele>801</ele>
        <time>2022-02-15T09:55:48.000Z</time>
      </trkpt>
      <trkpt lat="43.53121" lon="5.57517">
        <ele>801</ele>
        <time>2022-02-15T09:55:49.000Z</time>
      </trkpt>
      <trkpt lat="43.53121" lon="5.57517">
        <ele>802</ele>
        <time>2022-02-15T09:55:50.000Z</time>
      </trkpt>
      <trkpt lat="43.53121" lon="5.57517">
        <ele>802</ele>
        <time>2022-02-15T09:55:51.000Z</time>
      </trkpt>
      <trkpt lat="43.53121" lon="5.57517">
        <ele>802</ele>
        <time>2022-02-15T09:55:52.000Z</time>
      </trkpt>
      <trkpt lat="43.5312" lon="5.57517">
        <ele>802</ele>
        <time>2022-02-15T09:55:53.000Z</time>
      </trkpt>
      <trkpt lat="43.5312" lon="5.57517">
        <ele>802</ele>
        <time>2022-02-15T09:55:54.000Z</time>
      </trkpt>
      <trkpt lat="43.53121" lon="5.57518">
        <ele>802</ele>
        <time>2022-02-15T09:55:55.000Z</time>
      </trkpt>
      <trkpt lat="43.53121" lon="5.57518">
        <ele>802</ele>
        <time>2022-02-15T09:55:56.000Z</time>
      </trkpt>
      <trkpt lat="43.53121" lon="5.57518">
        <ele>802</ele>
        <time>2022-02-15T09:55:57.000Z</time>
      </trkpt>
      <trkpt lat="43.53121" lon="5.57519">
        <ele>802</ele>
        <time>2022-02-15T09:55:58.000Z</time>
      </trkpt>
      <trkpt lat="43.5312" lon="5.5752">
        <ele>802</ele>
        <time>2022-02-15T09:55:59.000Z</time>
      </trkpt>
      <trkpt lat="43.53119" lon="5.5752">
        <ele>802</ele>
        <time>2022-02-15T09:56:00.000Z</time>
      </trkpt>
      <trkpt lat="43.53118" lon="5.5752">
        <ele>802</ele>
        <time>2022-02-15T09:56:01.000Z</time>
      </trkpt>
      <trkpt lat="43.53118" lon="5.57519">
        <ele>802</ele>
        <time>2022-02-15T09:56:02.000Z</time>
      </trkpt>
      <trkpt lat="43.53117" lon="5.57518">
        <ele>802</ele>
        <time>2022-02-15T09:56:03.000Z</time>
      </trkpt>
      <trkpt lat="43.53116" lon="5.57517">
        <ele>802</ele>
        <time>2022-02-15T09:56:04.000Z</time>
      </trkpt>
      <trkpt lat="43.53116" lon="5.57517">
        <ele>802</ele>
        <time>2022-02-15T09:56:05.000Z</time>
      </trkpt>
      <trkpt lat="43.53116" lon="5.57516">
        <ele>802</ele>
        <time>2022-02-15T09:56:06.000Z</time>
      </trkpt>
      <trkpt lat="43.53116" lon="5.57515">
        <ele>803</ele>
        <time>2022-02-15T09:56:07.000Z</time>
      </trkpt>
      <trkpt lat="43.53116" lon="5.57515">
        <ele>803</ele>
        <time>2022-02-15T09:56:08.000Z</time>
      </trkpt>
      <trkpt lat="43.53116" lon="5.57514">
        <ele>803</ele>
        <time>2022-02-15T09:56:09.000Z</time>
      </trkpt>
      <trkpt lat="43.53116" lon="5.57513">
        <ele>803</ele>
        <time>2022-02-15T09:56:10.000Z</time>
      </trkpt>
      <trkpt lat="43.53116" lon="5.57513">
        <ele>803</ele>
        <time>2022-02-15T09:56:11.000Z</time>
      </trkpt>
      <trkpt lat="43.53116" lon="5.57512">
        <ele>803</ele>
        <time>2022-02-15T09:56:12.000Z</time>
      </trkpt>
      <trkpt lat="43.53116" lon="5.57512">
        <ele>804</ele>
        <time>2022-02-15T09:56:13.000Z</time>
      </trkpt>
      <trkpt lat="43.53116" lon="5.57512">
        <ele>804</ele>
        <time>2022-02-15T09:56:14.000Z</time>
      </trkpt>
      <trkpt lat="43.53116" lon="5.57512">
        <ele>804</ele>
        <time>2022-02-15T09:56:15.000Z</time>
      </trkpt>
      <trkpt lat="43.53116" lon="5.57512">
        <ele>804</ele>
        <time>2022-02-15T09:56:16.000Z</time>
      </trkpt>
      <trkpt lat="43.53116" lon="5.57512">
        <ele>804</ele>
        <time>2022-02-15T09:56:17.000Z</time>
      </trkpt>
      <trkpt lat="43.53116" lon="5.57511">
        <ele>804</ele>
        <time>2022-02-15T09:56:18.000Z</time>
      </trkpt>
      <trkpt lat="43.53117" lon="5.57511">
        <ele>804</ele>
        <time>2022-02-15T09:56:19.000Z</time>
      </trkpt>
      <trkpt lat="43.53117" lon="5.5751">
        <ele>805</ele>
        <time>2022-02-15T09:56:20.000Z</time>
      </trkpt>
      <trkpt lat="43.53116" lon="5.5751">
        <ele>805</ele>
        <time>2022-02-15T09:56:21.000Z</time>
      </trkpt>
      <trkpt lat="43.53116" lon="5.5751">
        <ele>805</ele>
        <time>2022-02-15T09:56:22.000Z</time>
      </trkpt>
      <trkpt lat="43.53116" lon="5.57511">
        <ele>805</ele>
        <time>2022-02-15T09:56:23.000Z</time>
      </trkpt>
      <trkpt lat="43.53116" lon="5.57511">
        <ele>805</ele>
        <time>2022-02-15T09:56:24.000Z</time>
      </trkpt>
      <trkpt lat="43.53116" lon="5.57511">
        <ele>805</ele>
        <time>2022-02-15T09:56:25.000Z</time>
      </trkpt>
      <trkpt lat="43.53116" lon="5.57511">
        <ele>805</ele>
        <time>2022-02-15T09:56:26.000Z</time>
      </trkpt>
      <trkpt lat="43.53116" lon="5.57511">
        <ele>805</ele>
        <time>2022-02-15T09:56:27.000Z</time>
      </trkpt>
      <trkpt lat="43.53116" lon="5.57511">
        <ele>805</ele>
        <time>2022-02-15T09:56:28.000Z</time>
      </trkpt>
      <trkpt lat="43.53115" lon="5.57511">
        <ele>805</ele>
        <time>2022-02-15T09:56:29.000Z</time>
      </trkpt>
      <trkpt lat="43.53115" lon="5.57511">
        <ele>806</ele>
        <time>2022-02-15T09:56:30.000Z</time>
      </trkpt>
      <trkpt lat="43.53115" lon="5.57511">
        <ele>806</ele>
        <time>2022-02-15T09:56:31.000Z</time>
      </trkpt>
      <trkpt lat="43.53115" lon="5.57511">
        <ele>806</ele>
        <time>2022-02-15T09:56:32.000Z</time>
      </trkpt>
      <trkpt lat="43.53115" lon="5.57511">
        <ele>806</ele>
        <time>2022-02-15T09:56:33.000Z</time>
      </trkpt>
      <trkpt lat="43.53115" lon="5.57511">
        <ele>806</ele>
        <time>2022-02-15T09:56:34.000Z</time>
      </trkpt>
      <trkpt lat="43.53115" lon="5.57511">
        <ele>806</ele>
        <time>2022-02-15T09:56:35.000Z</time>
      </trkpt>
      <trkpt lat="43.53115" lon="5.57511">
        <ele>806</ele>
        <time>2022-02-15T09:56:36.000Z</time>
      </trkpt>
      <trkpt lat="43.53115" lon="5.57511">
        <ele>806</ele>
        <time>2022-02-15T09:56:37.000Z</time>
      </trkpt>
      <trkpt lat="43.53115" lon="5.57511">
        <ele>806</ele>
        <time>2022-02-15T09:56:38.000Z</time>
      </trkpt>
      <trkpt lat="43.53115" lon="5.57511">
        <ele>806</ele>
        <time>2022-02-15T09:56:39.000Z</time>
      </trkpt>
      <trkpt lat="43.53115" lon="5.57511">
        <ele>806</ele>
        <time>2022-02-15T09:56:40.000Z</time>
      </trkpt>
      <trkpt lat="43.53115" lon="5.57511">
        <ele>806</ele>
        <time>2022-02-15T09:56:41.000Z</time>
      </trkpt>
      <trkpt lat="43.53115" lon="5.57511">
        <ele>806</ele>
        <time>2022-02-15T09:56:42.000Z</time>
      </trkpt>
      <trkpt lat="43.53115" lon="5.57511">
        <ele>806</ele>
        <time>2022-02-15T09:56:43.000Z</time>
      </trkpt>
      <trkpt lat="43.53115" lon="5.57511">
        <ele>806</ele>
        <time>2022-02-15T09:56:44.000Z</time>
      </trkpt>
      <trkpt lat="43.53115" lon="5.57511">
        <ele>806</ele>
        <time>2022-02-15T09:56:45.000Z</time>
      </trkpt>
      <trkpt lat="43.53115" lon="5.57511">
        <ele>806</ele>
        <time>2022-02-15T09:56:46.000Z</time>
      </trkpt>
      <trkpt lat="43.53115" lon="5.57511">
        <ele>806</ele>
        <time>2022-02-15T09:56:47.000Z</time>
      </trkpt>
      <trkpt lat="43.53115" lon="5.57511">
        <ele>806</ele>
        <time>2022-02-15T09:56:48.000Z</time>
      </trkpt>
      <trkpt lat="43.53115" lon="5.57511">
        <ele>806</ele>
        <time>2022-02-15T09:56:49.000Z</time>
      </trkpt>
      <trkpt lat="43.53115" lon="5.57511">
        <ele>806</ele>
        <time>2022-02-15T09:56:50.000Z</time>
      </trkpt>
      <trkpt lat="43.53115" lon="5.57511">
        <ele>806</ele>
        <time>2022-02-15T09:56:51.000Z</time>
      </trkpt>
      <trkpt lat="43.53115" lon="5.5751">
        <ele>806</ele>
        <time>2022-02-15T09:56:52.000Z</time>
      </trkpt>
      <trkpt lat="43.53115" lon="5.5751">
        <ele>807</ele>
        <time>2022-02-15T09:56:53.000Z</time>
      </trkpt>
      <trkpt lat="43.53116" lon="5.57509">
        <ele>807</ele>
        <time>2022-02-15T09:56:54.000Z</time>
      </trkpt>
      <trkpt lat="43.53116" lon="5.57509">
        <ele>807</ele>
        <time>2022-02-15T09:56:55.000Z</time>
      </trkpt>
      <trkpt lat="43.53116" lon="5.57508">
        <ele>807</ele>
        <time>2022-02-15T09:56:56.000Z</time>
      </trkpt>
      <trkpt lat="43.53117" lon="5.57508">
        <ele>807</ele>
        <time>2022-02-15T09:56:57.000Z</time>
      </trkpt>
      <trkpt lat="43.53117" lon="5.57507">
        <ele>807</ele>
        <time>2022-02-15T09:56:58.000Z</time>
      </trkpt>
      <trkpt lat="43.53117" lon="5.57507">
        <ele>807</ele>
        <time>2022-02-15T09:56:59.000Z</time>
      </trkpt>
      <trkpt lat="43.53117" lon="5.57507">
        <ele>807</ele>
        <time>2022-02-15T09:57:00.000Z</time>
      </trkpt>
      <trkpt lat="43.53117" lon="5.57506">
        <ele>807</ele>
        <time>2022-02-15T09:57:01.000Z</time>
      </trkpt>
      <trkpt lat="43.53117" lon="5.57506">
        <ele>807</ele>
        <time>2022-02-15T09:57:02.000Z</time>
      </trkpt>
      <trkpt lat="43.53117" lon="5.57506">
        <ele>808</ele>
        <time>2022-02-15T09:57:03.000Z</time>
      </trkpt>
      <trkpt lat="43.53117" lon="5.57506">
        <ele>808</ele>
        <time>2022-02-15T09:57:04.000Z</time>
      </trkpt>
      <trkpt lat="43.53117" lon="5.57506">
        <ele>808</ele>
        <time>2022-02-15T09:57:05.000Z</time>
      </trkpt>
      <trkpt lat="43.53117" lon="5.57506">
        <ele>808</ele>
        <time>2022-02-15T09:57:06.000Z</time>
      </trkpt>
      <trkpt lat="43.53117" lon="5.57506">
        <ele>808</ele>
        <time>2022-02-15T09:57:07.000Z</time>
      </trkpt>
      <trkpt lat="43.53117" lon="5.57505">
        <ele>808</ele>
        <time>2022-02-15T09:57:08.000Z</time>
      </trkpt>
      <trkpt lat="43.53117" lon="5.57505">
        <ele>808</ele>
        <time>2022-02-15T09:57:09.000Z</time>
      </trkpt>
      <trkpt lat="43.53117" lon="5.57505">
        <ele>808</ele>
        <time>2022-02-15T09:57:10.000Z</time>
      </trkpt>
      <trkpt lat="43.53117" lon="5.57505">
        <ele>808</ele>
        <time>2022-02-15T09:57:11.000Z</time>
      </trkpt>
      <trkpt lat="43.53117" lon="5.57505">
        <ele>808</ele>
        <time>2022-02-15T09:57:12.000Z</time>
      </trkpt>
      <trkpt lat="43.53117" lon="5.57505">
        <ele>808</ele>
        <time>2022-02-15T09:57:13.000Z</time>
      </trkpt>
      <trkpt lat="43.53116" lon="5.57505">
        <ele>808</ele>
        <time>2022-02-15T09:57:14.000Z</time>
      </trkpt>
      <trkpt lat="43.53116" lon="5.57505">
        <ele>808</ele>
        <time>2022-02-15T09:57:15.000Z</time>
      </trkpt>
      <trkpt lat="43.53116" lon="5.57505">
        <ele>808</ele>
        <time>2022-02-15T09:57:16.000Z</time>
      </trkpt>
      <trkpt lat="43.53116" lon="5.57505">
        <ele>808</ele>
        <time>2022-02-15T09:57:17.000Z</time>
      </trkpt>
      <trkpt lat="43.53116" lon="5.57505">
        <ele>808</ele>
        <time>2022-02-15T09:57:18.000Z</time>
      </trkpt>
      <trkpt lat="43.53116" lon="5.57505">
        <ele>808</ele>
        <time>2022-02-15T09:57:19.000Z</time>
      </trkpt>
      <trkpt lat="43.53116" lon="5.57505">
        <ele>808</ele>
        <time>2022-02-15T09:57:20.000Z</time>
      </trkpt>
      <trkpt lat="43.53116" lon="5.57504">
        <ele>808</ele>
        <time>2022-02-15T09:57:21.000Z</time>
      </trkpt>
      <trkpt lat="43.53116" lon="5.57504">
        <ele>808</ele>
        <time>2022-02-15T09:57:22.000Z</time>
      </trkpt>
      <trkpt lat="43.53116" lon="5.57504">
        <ele>808</ele>
        <time>2022-02-15T09:57:23.000Z</time>
      </trkpt>
      <trkpt lat="43.53116" lon="5.57504">
        <ele>808</ele>
        <time>2022-02-15T09:57:24.000Z</time>
      </trkpt>
      <trkpt lat="43.53116" lon="5.57504">
        <ele>808</ele>
        <time>2022-02-15T09:57:25.000Z</time>
      </trkpt>
      <trkpt lat="43.53116" lon="5.57504">
        <ele>809</ele>
        <time>2022-02-15T09:57:26.000Z</time>
      </trkpt>
      <trkpt lat="43.53116" lon="5.57504">
        <ele>809</ele>
        <time>2022-02-15T09:57:27.000Z</time>
      </trkpt>
      <trkpt lat="43.53116" lon="5.57504">
        <ele>808</ele>
        <time>2022-02-15T09:57:28.000Z</time>
      </trkpt>
      <trkpt lat="43.53117" lon="5.57504">
        <ele>808</ele>
        <time>2022-02-15T09:57:29.000Z</time>
      </trkpt>
      <trkpt lat="43.53117" lon="5.57504">
        <ele>808</ele>
        <time>2022-02-15T09:57:30.000Z</time>
      </trkpt>
      <trkpt lat="43.53117" lon="5.57503">
        <ele>808</ele>
        <time>2022-02-15T09:57:31.000Z</time>
      </trkpt>
      <trkpt lat="43.53117" lon="5.57503">
        <ele>808</ele>
        <time>2022-02-15T09:57:32.000Z</time>
      </trkpt>
      <trkpt lat="43.53118" lon="5.57504">
        <ele>808</ele>
        <time>2022-02-15T09:57:33.000Z</time>
      </trkpt>
      <trkpt lat="43.53118" lon="5.57504">
        <ele>808</ele>
        <time>2022-02-15T09:57:34.000Z</time>
      </trkpt>
      <trkpt lat="43.53118" lon="5.57504">
        <ele>807</ele>
        <time>2022-02-15T09:57:35.000Z</time>
      </trkpt>
      <trkpt lat="43.53118" lon="5.57504">
        <ele>807</ele>
        <time>2022-02-15T09:57:36.000Z</time>
      </trkpt>
      <trkpt lat="43.53119" lon="5.57504">
        <ele>807</ele>
        <time>2022-02-15T09:57:37.000Z</time>
      </trkpt>
      <trkpt lat="43.53119" lon="5.57504">
        <ele>807</ele>
        <time>2022-02-15T09:57:38.000Z</time>
      </trkpt>
      <trkpt lat="43.53119" lon="5.57504">
        <ele>807</ele>
        <time>2022-02-15T09:57:39.000Z</time>
      </trkpt>
      <trkpt lat="43.5312" lon="5.57504">
        <ele>806</ele>
        <time>2022-02-15T09:57:40.000Z</time>
      </trkpt>
      <trkpt lat="43.5312" lon="5.57504">
        <ele>806</ele>
        <time>2022-02-15T09:57:41.000Z</time>
      </trkpt>
      <trkpt lat="43.53119" lon="5.57503">
        <ele>806</ele>
        <time>2022-02-15T09:57:42.000Z</time>
      </trkpt>
      <trkpt lat="43.53119" lon="5.57502">
        <ele>806</ele>
        <time>2022-02-15T09:57:43.000Z</time>
      </trkpt>
      <trkpt lat="43.53119" lon="5.57502">
        <ele>805</ele>
        <time>2022-02-15T09:57:44.000Z</time>
      </trkpt>
      <trkpt lat="43.53119" lon="5.57502">
        <ele>805</ele>
        <time>2022-02-15T09:57:45.000Z</time>
      </trkpt>
      <trkpt lat="43.53119" lon="5.57502">
        <ele>805</ele>
        <time>2022-02-15T09:57:46.000Z</time>
      </trkpt>
      <trkpt lat="43.53119" lon="5.57502">
        <ele>805</ele>
        <time>2022-02-15T09:57:47.000Z</time>
      </trkpt>
      <trkpt lat="43.53118" lon="5.57502">
        <ele>805</ele>
        <time>2022-02-15T09:57:48.000Z</time>
      </trkpt>
      <trkpt lat="43.53117" lon="5.57502">
        <ele>805</ele>
        <time>2022-02-15T09:57:49.000Z</time>
      </trkpt>
      <trkpt lat="43.53117" lon="5.57502">
        <ele>805</ele>
        <time>2022-02-15T09:57:50.000Z</time>
      </trkpt>
      <trkpt lat="43.53117" lon="5.57501">
        <ele>805</ele>
        <time>2022-02-15T09:57:51.000Z</time>
      </trkpt>
      <trkpt lat="43.53116" lon="5.57501">
        <ele>805</ele>
        <time>2022-02-15T09:57:52.000Z</time>
      </trkpt>
      <trkpt lat="43.53115" lon="5.57501">
        <ele>804</ele>
        <time>2022-02-15T09:57:53.000Z</time>
      </trkpt>
      <trkpt lat="43.53115" lon="5.575">
        <ele>804</ele>
        <time>2022-02-15T09:57:54.000Z</time>
      </trkpt>
      <trkpt lat="43.53114" lon="5.57499">
        <ele>804</ele>
        <time>2022-02-15T09:57:55.000Z</time>
      </trkpt>
      <trkpt lat="43.53114" lon="5.57499">
        <ele>804</ele>
        <time>2022-02-15T09:57:56.000Z</time>
      </trkpt>
      <trkpt lat="43.53114" lon="5.57499">
        <ele>804</ele>
        <time>2022-02-15T09:57:57.000Z</time>
      </trkpt>
      <trkpt lat="43.53114" lon="5.57499">
        <ele>804</ele>
        <time>2022-02-15T09:57:58.000Z</time>
      </trkpt>
      <trkpt lat="43.53114" lon="5.57499">
        <ele>803</ele>
        <time>2022-02-15T09:57:59.000Z</time>
      </trkpt>
      <trkpt lat="43.53114" lon="5.57499">
        <ele>803</ele>
        <time>2022-02-15T09:58:00.000Z</time>
      </trkpt>
      <trkpt lat="43.53114" lon="5.57499">
        <ele>803</ele>
        <time>2022-02-15T09:58:01.000Z</time>
      </trkpt>
      <trkpt lat="43.53114" lon="5.57499">
        <ele>803</ele>
        <time>2022-02-15T09:58:02.000Z</time>
      </trkpt>
      <trkpt lat="43.53114" lon="5.57499">
        <ele>803</ele>
        <time>2022-02-15T09:58:03.000Z</time>
      </trkpt>
      <trkpt lat="43.53114" lon="5.57499">
        <ele>803</ele>
        <time>2022-02-15T09:58:04.000Z</time>
      </trkpt>
      <trkpt lat="43.53114" lon="5.57499">
        <ele>804</ele>
        <time>2022-02-15T09:58:05.000Z</time>
      </trkpt>
      <trkpt lat="43.53114" lon="5.57499">
        <ele>804</ele>
        <time>2022-02-15T09:58:06.000Z</time>
      </trkpt>
      <trkpt lat="43.53114" lon="5.57499">
        <ele>803</ele>
        <time>2022-02-15T09:58:07.000Z</time>
      </trkpt>
      <trkpt lat="43.53114" lon="5.57499">
        <ele>803</ele>
        <time>2022-02-15T09:58:08.000Z</time>
      </trkpt>
      <trkpt lat="43.53114" lon="5.57499">
        <ele>803</ele>
        <time>2022-02-15T09:58:09.000Z</time>
      </trkpt>
      <trkpt lat="43.53114" lon="5.57499">
        <ele>803</ele>
        <time>2022-02-15T09:58:10.000Z</time>
      </trkpt>
      <trkpt lat="43.53114" lon="5.57499">
        <ele>803</ele>
        <time>2022-02-15T09:58:11.000Z</time>
      </trkpt>
      <trkpt lat="43.53114" lon="5.57499">
        <ele>803</ele>
        <time>2022-02-15T09:58:12.000Z</time>
      </trkpt>
      <trkpt lat="43.53114" lon="5.57499">
        <ele>803</ele>
        <time>2022-02-15T09:58:13.000Z</time>
      </trkpt>
      <trkpt lat="43.53114" lon="5.57499">
        <ele>803</ele>
        <time>2022-02-15T09:58:14.000Z</time>
      </trkpt>
      <trkpt lat="43.53114" lon="5.57499">
        <ele>803</ele>
        <time>2022-02-15T09:58:15.000Z</time>
      </trkpt>
      <trkpt lat="43.53114" lon="5.57499">
        <ele>803</ele>
        <time>2022-02-15T09:58:16.000Z</time>
      </trkpt>
      <trkpt lat="43.53114" lon="5.57499">
        <ele>803</ele>
        <time>2022-02-15T09:58:17.000Z</time>
      </trkpt>
      <trkpt lat="43.53113" lon="5.575">
        <ele>803</ele>
        <time>2022-02-15T09:58:18.000Z</time>
      </trkpt>
      <trkpt lat="43.53113" lon="5.575">
        <ele>803</ele>
        <time>2022-02-15T09:58:19.000Z</time>
      </trkpt>
      <trkpt lat="43.53113" lon="5.575">
        <ele>804</ele>
        <time>2022-02-15T09:58:20.000Z</time>
      </trkpt>
      <trkpt lat="43.53113" lon="5.575">
        <ele>804</ele>
        <time>2022-02-15T09:58:21.000Z</time>
      </trkpt>
      <trkpt lat="43.53113" lon="5.57499">
        <ele>804</ele>
        <time>2022-02-15T09:58:22.000Z</time>
      </trkpt>
      <trkpt lat="43.53113" lon="5.57499">
        <ele>804</ele>
        <time>2022-02-15T09:58:23.000Z</time>
      </trkpt>
      <trkpt lat="43.53113" lon="5.57499">
        <ele>804</ele>
        <time>2022-02-15T09:58:24.000Z</time>
      </trkpt>
      <trkpt lat="43.53113" lon="5.57499">
        <ele>804</ele>
        <time>2022-02-15T09:58:25.000Z</time>
      </trkpt>
      <trkpt lat="43.53113" lon="5.57499">
        <ele>804</ele>
        <time>2022-02-15T09:58:26.000Z</time>
      </trkpt>
      <trkpt lat="43.53113" lon="5.57499">
        <ele>804</ele>
        <time>2022-02-15T09:58:27.000Z</time>
      </trkpt>
      <trkpt lat="43.53113" lon="5.57499">
        <ele>804</ele>
        <time>2022-02-15T09:58:28.000Z</time>
      </trkpt>
      <trkpt lat="43.53113" lon="5.57499">
        <ele>804</ele>
        <time>2022-02-15T09:58:29.000Z</time>
      </trkpt>
      <trkpt lat="43.53113" lon="5.575">
        <ele>804</ele>
        <time>2022-02-15T09:58:30.000Z</time>
      </trkpt>
      <trkpt lat="43.53113" lon="5.57499">
        <ele>804</ele>
        <time>2022-02-15T09:58:31.000Z</time>
      </trkpt>
      <trkpt lat="43.53113" lon="5.57499">
        <ele>804</ele>
        <time>2022-02-15T09:58:32.000Z</time>
      </trkpt>
      <trkpt lat="43.53113" lon="5.57499">
        <ele>804</ele>
        <time>2022-02-15T09:58:33.000Z</time>
      </trkpt>
      <trkpt lat="43.53113" lon="5.57499">
        <ele>804</ele>
        <time>2022-02-15T09:58:34.000Z</time>
      </trkpt>
      <trkpt lat="43.53113" lon="5.575">
        <ele>804</ele>
        <time>2022-02-15T09:58:35.000Z</time>
      </trkpt>
      <trkpt lat="43.53113" lon="5.57499">
        <ele>804</ele>
        <time>2022-02-15T09:58:36.000Z</time>
      </trkpt>
      <trkpt lat="43.53113" lon="5.57498">
        <ele>804</ele>
        <time>2022-02-15T09:58:37.000Z</time>
      </trkpt>
      <trkpt lat="43.53112" lon="5.57497">
        <ele>804</ele>
        <time>2022-02-15T09:58:38.000Z</time>
      </trkpt>
      <trkpt lat="43.53113" lon="5.57496">
        <ele>804</ele>
        <time>2022-02-15T09:58:39.000Z</time>
      </trkpt>
      <trkpt lat="43.53113" lon="5.57496">
        <ele>804</ele>
        <time>2022-02-15T09:58:40.000Z</time>
      </trkpt>
      <trkpt lat="43.53113" lon="5.57495">
        <ele>804</ele>
        <time>2022-02-15T09:58:41.000Z</time>
      </trkpt>
      <trkpt lat="43.53114" lon="5.57495">
        <ele>804</ele>
        <time>2022-02-15T09:58:42.000Z</time>
      </trkpt>
      <trkpt lat="43.53114" lon="5.57495">
        <ele>804</ele>
        <time>2022-02-15T09:58:43.000Z</time>
      </trkpt>
      <trkpt lat="43.53114" lon="5.57494">
        <ele>804</ele>
        <time>2022-02-15T09:58:44.000Z</time>
      </trkpt>
      <trkpt lat="43.53114" lon="5.57494">
        <ele>804</ele>
        <time>2022-02-15T09:58:45.000Z</time>
      </trkpt>
      <trkpt lat="43.53114" lon="5.57494">
        <ele>804</ele>
        <time>2022-02-15T09:58:46.000Z</time>
      </trkpt>
      <trkpt lat="43.53114" lon="5.57493">
        <ele>804</ele>
        <time>2022-02-15T09:58:47.000Z</time>
      </trkpt>
      <trkpt lat="43.53115" lon="5.57493">
        <ele>804</ele>
        <time>2022-02-15T09:58:48.000Z</time>
      </trkpt>
      <trkpt lat="43.53115" lon="5.57493">
        <ele>804</ele>
        <time>2022-02-15T09:58:49.000Z</time>
      </trkpt>
      <trkpt lat="43.53115" lon="5.57492">
        <ele>805</ele>
        <time>2022-02-15T09:58:50.000Z</time>
      </trkpt>
      <trkpt lat="43.53115" lon="5.57492">
        <ele>805</ele>
        <time>2022-02-15T09:58:51.000Z</time>
      </trkpt>
      <trkpt lat="43.53115" lon="5.57492">
        <ele>805</ele>
        <time>2022-02-15T09:58:52.000Z</time>
      </trkpt>
      <trkpt lat="43.53115" lon="5.57491">
        <ele>805</ele>
        <time>2022-02-15T09:58:53.000Z</time>
      </trkpt>
      <trkpt lat="43.53115" lon="5.57491">
        <ele>805</ele>
        <time>2022-02-15T09:58:54.000Z</time>
      </trkpt>
      <trkpt lat="43.53115" lon="5.57491">
        <ele>805</ele>
        <time>2022-02-15T09:58:55.000Z</time>
      </trkpt>
      <trkpt lat="43.53115" lon="5.5749">
        <ele>805</ele>
        <time>2022-02-15T09:58:56.000Z</time>
      </trkpt>
      <trkpt lat="43.53115" lon="5.5749">
        <ele>806</ele>
        <time>2022-02-15T09:58:57.000Z</time>
      </trkpt>
      <trkpt lat="43.53115" lon="5.5749">
        <ele>806</ele>
        <time>2022-02-15T09:58:58.000Z</time>
      </trkpt>
      <trkpt lat="43.53115" lon="5.57489">
        <ele>806</ele>
        <time>2022-02-15T09:58:59.000Z</time>
      </trkpt>
      <trkpt lat="43.53115" lon="5.57489">
        <ele>806</ele>
        <time>2022-02-15T09:59:00.000Z</time>
      </trkpt>
      <trkpt lat="43.53115" lon="5.57489">
        <ele>806</ele>
        <time>2022-02-15T09:59:01.000Z</time>
      </trkpt>
      <trkpt lat="43.53115" lon="5.57489">
        <ele>806</ele>
        <time>2022-02-15T09:59:02.000Z</time>
      </trkpt>
      <trkpt lat="43.53115" lon="5.57489">
        <ele>806</ele>
        <time>2022-02-15T09:59:03.000Z</time>
      </trkpt>
      <trkpt lat="43.53116" lon="5.57489">
        <ele>807</ele>
        <time>2022-02-15T09:59:04.000Z</time>
      </trkpt>
      <trkpt lat="43.53116" lon="5.57489">
        <ele>807</ele>
        <time>2022-02-15T09:59:05.000Z</time>
      </trkpt>
      <trkpt lat="43.53116" lon="5.57489">
        <ele>807</ele>
        <time>2022-02-15T09:59:06.000Z</time>
      </trkpt>
      <trkpt lat="43.53116" lon="5.57489">
        <ele>807</ele>
        <time>2022-02-15T09:59:07.000Z</time>
      </trkpt>
      <trkpt lat="43.53116" lon="5.57489">
        <ele>807</ele>
        <time>2022-02-15T09:59:08.000Z</time>
      </trkpt>
      <trkpt lat="43.53116" lon="5.57489">
        <ele>807</ele>
        <time>2022-02-15T09:59:09.000Z</time>
      </trkpt>
      <trkpt lat="43.53116" lon="5.5749">
        <ele>807</ele>
        <time>2022-02-15T09:59:10.000Z</time>
      </trkpt>
      <trkpt lat="43.53116" lon="5.5749">
        <ele>807</ele>
        <time>2022-02-15T09:59:11.000Z</time>
      </trkpt>
      <trkpt lat="43.53116" lon="5.5749">
        <ele>808</ele>
        <time>2022-02-15T09:59:12.000Z</time>
      </trkpt>
      <trkpt lat="43.53116" lon="5.57489">
        <ele>808</ele>
        <time>2022-02-15T09:59:13.000Z</time>
      </trkpt>
      <trkpt lat="43.53116" lon="5.57488">
        <ele>808</ele>
        <time>2022-02-15T09:59:14.000Z</time>
      </trkpt>
      <trkpt lat="43.53116" lon="5.57488">
        <ele>808</ele>
        <time>2022-02-15T09:59:15.000Z</time>
      </trkpt>
      <trkpt lat="43.53116" lon="5.57487">
        <ele>808</ele>
        <time>2022-02-15T09:59:16.000Z</time>
      </trkpt>
      <trkpt lat="43.53116" lon="5.57487">
        <ele>808</ele>
        <time>2022-02-15T09:59:17.000Z</time>
      </trkpt>
      <trkpt lat="43.53116" lon="5.57487">
        <ele>808</ele>
        <time>2022-02-15T09:59:18.000Z</time>
      </trkpt>
      <trkpt lat="43.53116" lon="5.57487">
        <ele>808</ele>
        <time>2022-02-15T09:59:19.000Z</time>
      </trkpt>
      <trkpt lat="43.53116" lon="5.57488">
        <ele>808</ele>
        <time>2022-02-15T09:59:20.000Z</time>
      </trkpt>
      <trkpt lat="43.53116" lon="5.57488">
        <ele>809</ele>
        <time>2022-02-15T09:59:21.000Z</time>
      </trkpt>
      <trkpt lat="43.53116" lon="5.57488">
        <ele>809</ele>
        <time>2022-02-15T09:59:22.000Z</time>
      </trkpt>
      <trkpt lat="43.53116" lon="5.57488">
        <ele>809</ele>
        <time>2022-02-15T09:59:23.000Z</time>
      </trkpt>
      <trkpt lat="43.53116" lon="5.57488">
        <ele>809</ele>
        <time>2022-02-15T09:59:24.000Z</time>
      </trkpt>
      <trkpt lat="43.53116" lon="5.57488">
        <ele>809</ele>
        <time>2022-02-15T09:59:25.000Z</time>
      </trkpt>
      <trkpt lat="43.53116" lon="5.57488">
        <ele>809</ele>
        <time>2022-02-15T09:59:26.000Z</time>
      </trkpt>
      <trkpt lat="43.53116" lon="5.57487">
        <ele>809</ele>
        <time>2022-02-15T09:59:27.000Z</time>
      </trkpt>
      <trkpt lat="43.53116" lon="5.57487">
        <ele>809</ele>
        <time>2022-02-15T09:59:28.000Z</time>
      </trkpt>
      <trkpt lat="43.53117" lon="5.57486">
        <ele>809</ele>
        <time>2022-02-15T09:59:29.000Z</time>
      </trkpt>
      <trkpt lat="43.53117" lon="5.57486">
        <ele>809</ele>
        <time>2022-02-15T09:59:30.000Z</time>
      </trkpt>
      <trkpt lat="43.53117" lon="5.57485">
        <ele>809</ele>
        <time>2022-02-15T09:59:31.000Z</time>
      </trkpt>
      <trkpt lat="43.53117" lon="5.57485">
        <ele>810</ele>
        <time>2022-02-15T09:59:32.000Z</time>
      </trkpt>
      <trkpt lat="43.53117" lon="5.57485">
        <ele>810</ele>
        <time>2022-02-15T09:59:33.000Z</time>
      </trkpt>
      <trkpt lat="43.53117" lon="5.57485">
        <ele>810</ele>
        <time>2022-02-15T09:59:34.000Z</time>
      </trkpt>
      <trkpt lat="43.53117" lon="5.57485">
        <ele>810</ele>
        <time>2022-02-15T09:59:35.000Z</time>
      </trkpt>
      <trkpt lat="43.53118" lon="5.57485">
        <ele>810</ele>
        <time>2022-02-15T09:59:36.000Z</time>
      </trkpt>
      <trkpt lat="43.53118" lon="5.57485">
        <ele>810</ele>
        <time>2022-02-15T09:59:37.000Z</time>
      </trkpt>
      <trkpt lat="43.53118" lon="5.57484">
        <ele>810</ele>
        <time>2022-02-15T09:59:38.000Z</time>
      </trkpt>
      <trkpt lat="43.53118" lon="5.57484">
        <ele>810</ele>
        <time>2022-02-15T09:59:39.000Z</time>
      </trkpt>
      <trkpt lat="43.53118" lon="5.57483">
        <ele>810</ele>
        <time>2022-02-15T09:59:40.000Z</time>
      </trkpt>
      <trkpt lat="43.53118" lon="5.57482">
        <ele>811</ele>
        <time>2022-02-15T09:59:41.000Z</time>
      </trkpt>
      <trkpt lat="43.53118" lon="5.57482">
        <ele>811</ele>
        <time>2022-02-15T09:59:42.000Z</time>
      </trkpt>
      <trkpt lat="43.53119" lon="5.57482">
        <ele>811</ele>
        <time>2022-02-15T09:59:43.000Z</time>
      </trkpt>
      <trkpt lat="43.5312" lon="5.57482">
        <ele>811</ele>
        <time>2022-02-15T09:59:44.000Z</time>
      </trkpt>
      <trkpt lat="43.53121" lon="5.57483">
        <ele>811</ele>
        <time>2022-02-15T09:59:45.000Z</time>
      </trkpt>
      <trkpt lat="43.53121" lon="5.57482">
        <ele>811</ele>
        <time>2022-02-15T09:59:46.000Z</time>
      </trkpt>
      <trkpt lat="43.53121" lon="5.57482">
        <ele>811</ele>
        <time>2022-02-15T09:59:47.000Z</time>
      </trkpt>
      <trkpt lat="43.53121" lon="5.57482">
        <ele>811</ele>
        <time>2022-02-15T09:59:48.000Z</time>
      </trkpt>
      <trkpt lat="43.53121" lon="5.57482">
        <ele>811</ele>
        <time>2022-02-15T09:59:49.000Z</time>
      </trkpt>
      <trkpt lat="43.53121" lon="5.57482">
        <ele>811</ele>
        <time>2022-02-15T09:59:50.000Z</time>
      </trkpt>
      <trkpt lat="43.53121" lon="5.57482">
        <ele>811</ele>
        <time>2022-02-15T09:59:51.000Z</time>
      </trkpt>
      <trkpt lat="43.53121" lon="5.57482">
        <ele>811</ele>
        <time>2022-02-15T09:59:52.000Z</time>
      </trkpt>
      <trkpt lat="43.53121" lon="5.57482">
        <ele>811</ele>
        <time>2022-02-15T09:59:53.000Z</time>
      </trkpt>
      <trkpt lat="43.53121" lon="5.57482">
        <ele>811</ele>
        <time>2022-02-15T09:59:54.000Z</time>
      </trkpt>
      <trkpt lat="43.53121" lon="5.57482">
        <ele>811</ele>
        <time>2022-02-15T09:59:55.000Z</time>
      </trkpt>
      <trkpt lat="43.53121" lon="5.57482">
        <ele>811</ele>
        <time>2022-02-15T09:59:56.000Z</time>
      </trkpt>
      <trkpt lat="43.53121" lon="5.57482">
        <ele>811</ele>
        <time>2022-02-15T09:59:57.000Z</time>
      </trkpt>
      <trkpt lat="43.53121" lon="5.57482">
        <ele>811</ele>
        <time>2022-02-15T09:59:58.000Z</time>
      </trkpt>
      <trkpt lat="43.53121" lon="5.57482">
        <ele>811</ele>
        <time>2022-02-15T09:59:59.000Z</time>
      </trkpt>
      <trkpt lat="43.53121" lon="5.57482">
        <ele>812</ele>
        <time>2022-02-15T10:00:00.000Z</time>
      </trkpt>
      <trkpt lat="43.53121" lon="5.57482">
        <ele>812</ele>
        <time>2022-02-15T10:00:01.000Z</time>
      </trkpt>
      <trkpt lat="43.53121" lon="5.57482">
        <ele>812</ele>
        <time>2022-02-15T10:00:02.000Z</time>
      </trkpt>
      <trkpt lat="43.53121" lon="5.57482">
        <ele>812</ele>
        <time>2022-02-15T10:00:03.000Z</time>
      </trkpt>
      <trkpt lat="43.53121" lon="5.57482">
        <ele>812</ele>
        <time>2022-02-15T10:00:04.000Z</time>
      </trkpt>
      <trkpt lat="43.53121" lon="5.57482">
        <ele>812</ele>
        <time>2022-02-15T10:00:05.000Z</time>
      </trkpt>
      <trkpt lat="43.53121" lon="5.57482">
        <ele>812</ele>
        <time>2022-02-15T10:00:06.000Z</time>
      </trkpt>
      <trkpt lat="43.53121" lon="5.57482">
        <ele>812</ele>
        <time>2022-02-15T10:00:07.000Z</time>
      </trkpt>
      <trkpt lat="43.53121" lon="5.57482">
        <ele>812</ele>
        <time>2022-02-15T10:00:08.000Z</time>
      </trkpt>
      <trkpt lat="43.53121" lon="5.57482">
        <ele>812</ele>
        <time>2022-02-15T10:00:09.000Z</time>
      </trkpt>
      <trkpt lat="43.53121" lon="5.57482">
        <ele>812</ele>
        <time>2022-02-15T10:00:10.000Z</time>
      </trkpt>
      <trkpt lat="43.53121" lon="5.57482">
        <ele>812</ele>
        <time>2022-02-15T10:00:11.000Z</time>
      </trkpt>
      <trkpt lat="43.53121" lon="5.57482">
        <ele>812</ele>
        <time>2022-02-15T10:00:12.000Z</time>
      </trkpt>
      <trkpt lat="43.53121" lon="5.57482">
        <ele>812</ele>
        <time>2022-02-15T10:00:13.000Z</time>
      </trkpt>
      <trkpt lat="43.5312" lon="5.57482">
        <ele>812</ele>
        <time>2022-02-15T10:00:14.000Z</time>
      </trkpt>
      <trkpt lat="43.5312" lon="5.57482">
        <ele>812</ele>
        <time>2022-02-15T10:00:15.000Z</time>
      </trkpt>
      <trkpt lat="43.5312" lon="5.57482">
        <ele>812</ele>
        <time>2022-02-15T10:00:16.000Z</time>
      </trkpt>
      <trkpt lat="43.5312" lon="5.57482">
        <ele>812</ele>
        <time>2022-02-15T10:00:17.000Z</time>
      </trkpt>
      <trkpt lat="43.5312" lon="5.57482">
        <ele>812</ele>
        <time>2022-02-15T10:00:18.000Z</time>
      </trkpt>
      <trkpt lat="43.5312" lon="5.57482">
        <ele>812</ele>
        <time>2022-02-15T10:00:19.000Z</time>
      </trkpt>
      <trkpt lat="43.5312" lon="5.57482">
        <ele>812</ele>
        <time>2022-02-15T10:00:20.000Z</time>
      </trkpt>
      <trkpt lat="43.5312" lon="5.57482">
        <ele>812</ele>
        <time>2022-02-15T10:00:21.000Z</time>
      </trkpt>
      <trkpt lat="43.53121" lon="5.57482">
        <ele>812</ele>
        <time>2022-02-15T10:00:22.000Z</time>
      </trkpt>
      <trkpt lat="43.53121" lon="5.57482">
        <ele>812</ele>
        <time>2022-02-15T10:00:23.000Z</time>
      </trkpt>
      <trkpt lat="43.53121" lon="5.57482">
        <ele>812</ele>
        <time>2022-02-15T10:00:24.000Z</time>
      </trkpt>
      <trkpt lat="43.53121" lon="5.57482">
        <ele>812</ele>
        <time>2022-02-15T10:00:25.000Z</time>
      </trkpt>
      <trkpt lat="43.53121" lon="5.57482">
        <ele>812</ele>
        <time>2022-02-15T10:00:26.000Z</time>
      </trkpt>
      <trkpt lat="43.53121" lon="5.57482">
        <ele>812</ele>
        <time>2022-02-15T10:00:27.000Z</time>
      </trkpt>
      <trkpt lat="43.53121" lon="5.57482">
        <ele>812</ele>
        <time>2022-02-15T10:00:28.000Z</time>
      </trkpt>
      <trkpt lat="43.53121" lon="5.57482">
        <ele>812</ele>
        <time>2022-02-15T10:00:29.000Z</time>
      </trkpt>
      <trkpt lat="43.53121" lon="5.57482">
        <ele>812</ele>
        <time>2022-02-15T10:00:30.000Z</time>
      </trkpt>
      <trkpt lat="43.53121" lon="5.57482">
        <ele>812</ele>
        <time>2022-02-15T10:00:31.000Z</time>
      </trkpt>
      <trkpt lat="43.53121" lon="5.57482">
        <ele>812</ele>
        <time>2022-02-15T10:00:32.000Z</time>
      </trkpt>
      <trkpt lat="43.53121" lon="5.57482">
        <ele>812</ele>
        <time>2022-02-15T10:00:33.000Z</time>
      </trkpt>
      <trkpt lat="43.53121" lon="5.57482">
        <ele>812</ele>
        <time>2022-02-15T10:00:34.000Z</time>
      </trkpt>
      <trkpt lat="43.5312" lon="5.57482">
        <ele>812</ele>
        <time>2022-02-15T10:00:35.000Z</time>
      </trkpt>
      <trkpt lat="43.5312" lon="5.57482">
        <ele>812</ele>
        <time>2022-02-15T10:00:36.000Z</time>
      </trkpt>
      <trkpt lat="43.5312" lon="5.57482">
        <ele>812</ele>
        <time>2022-02-15T10:00:37.000Z</time>
      </trkpt>
      <trkpt lat="43.5312" lon="5.57482">
        <ele>812</ele>
        <time>2022-02-15T10:00:38.000Z</time>
      </trkpt>
      <trkpt lat="43.5312" lon="5.57482">
        <ele>812</ele>
        <time>2022-02-15T10:00:39.000Z</time>
      </trkpt>
      <trkpt lat="43.5312" lon="5.57482">
        <ele>812</ele>
        <time>2022-02-15T10:00:40.000Z</time>
      </trkpt>
      <trkpt lat="43.5312" lon="5.57482">
        <ele>812</ele>
        <time>2022-02-15T10:00:41.000Z</time>
      </trkpt>
      <trkpt lat="43.5312" lon="5.57482">
        <ele>812</ele>
        <time>2022-02-15T10:00:42.000Z</time>
      </trkpt>
      <trkpt lat="43.5312" lon="5.57482">
        <ele>812</ele>
        <time>2022-02-15T10:00:43.000Z</time>
      </trkpt>
      <trkpt lat="43.5312" lon="5.57482">
        <ele>813</ele>
        <time>2022-02-15T10:00:44.000Z</time>
      </trkpt>
      <trkpt lat="43.5312" lon="5.57482">
        <ele>813</ele>
        <time>2022-02-15T10:00:45.000Z</time>
      </trkpt>
      <trkpt lat="43.5312" lon="5.57482">
        <ele>813</ele>
        <time>2022-02-15T10:00:46.000Z</time>
      </trkpt>
      <trkpt lat="43.5312" lon="5.57482">
        <ele>813</ele>
        <time>2022-02-15T10:00:47.000Z</time>
      </trkpt>
      <trkpt lat="43.5312" lon="5.57482">
        <ele>813</ele>
        <time>2022-02-15T10:00:48.000Z</time>
      </trkpt>
      <trkpt lat="43.5312" lon="5.57482">
        <ele>813</ele>
        <time>2022-02-15T10:00:49.000Z</time>
      </trkpt>
      <trkpt lat="43.5312" lon="5.57481">
        <ele>813</ele>
        <time>2022-02-15T10:00:50.000Z</time>
      </trkpt>
      <trkpt lat="43.5312" lon="5.57481">
        <ele>813</ele>
        <time>2022-02-15T10:00:51.000Z</time>
      </trkpt>
      <trkpt lat="43.5312" lon="5.57481">
        <ele>813</ele>
        <time>2022-02-15T10:00:52.000Z</time>
      </trkpt>
      <trkpt lat="43.5312" lon="5.57482">
        <ele>813</ele>
        <time>2022-02-15T10:00:53.000Z</time>
      </trkpt>
      <trkpt lat="43.5312" lon="5.57482">
        <ele>813</ele>
        <time>2022-02-15T10:00:54.000Z</time>
      </trkpt>
      <trkpt lat="43.5312" lon="5.57481">
        <ele>813</ele>
        <time>2022-02-15T10:00:55.000Z</time>
      </trkpt>
      <trkpt lat="43.5312" lon="5.57482">
        <ele>813</ele>
        <time>2022-02-15T10:00:56.000Z</time>
      </trkpt>
      <trkpt lat="43.5312" lon="5.57482">
        <ele>813</ele>
        <time>2022-02-15T10:00:57.000Z</time>
      </trkpt>
      <trkpt lat="43.5312" lon="5.57482">
        <ele>813</ele>
        <time>2022-02-15T10:00:58.000Z</time>
      </trkpt>
      <trkpt lat="43.5312" lon="5.57482">
        <ele>813</ele>
        <time>2022-02-15T10:00:59.000Z</time>
      </trkpt>
      <trkpt lat="43.5312" lon="5.57482">
        <ele>813</ele>
        <time>2022-02-15T10:01:00.000Z</time>
      </trkpt>
      <trkpt lat="43.5312" lon="5.57482">
        <ele>813</ele>
        <time>2022-02-15T10:01:01.000Z</time>
      </trkpt>
      <trkpt lat="43.5312" lon="5.57482">
        <ele>813</ele>
        <time>2022-02-15T10:01:02.000Z</time>
      </trkpt>
      <trkpt lat="43.5312" lon="5.57482">
        <ele>813</ele>
        <time>2022-02-15T10:01:03.000Z</time>
      </trkpt>
      <trkpt lat="43.5312" lon="5.57482">
        <ele>813</ele>
        <time>2022-02-15T10:01:04.000Z</time>
      </trkpt>
      <trkpt lat="43.5312" lon="5.57482">
        <ele>813</ele>
        <time>2022-02-15T10:01:05.000Z</time>
      </trkpt>
      <trkpt lat="43.5312" lon="5.57482">
        <ele>813</ele>
        <time>2022-02-15T10:01:06.000Z</time>
      </trkpt>
      <trkpt lat="43.5312" lon="5.57482">
        <ele>813</ele>
        <time>2022-02-15T10:01:07.000Z</time>
      </trkpt>
      <trkpt lat="43.5312" lon="5.57482">
        <ele>813</ele>
        <time>2022-02-15T10:01:08.000Z</time>
      </trkpt>
      <trkpt lat="43.5312" lon="5.57481">
        <ele>813</ele>
        <time>2022-02-15T10:01:09.000Z</time>
      </trkpt>
      <trkpt lat="43.5312" lon="5.5748">
        <ele>813</ele>
        <time>2022-02-15T10:01:10.000Z</time>
      </trkpt>
      <trkpt lat="43.5312" lon="5.5748">
        <ele>813</ele>
        <time>2022-02-15T10:01:11.000Z</time>
      </trkpt>
      <trkpt lat="43.5312" lon="5.5748">
        <ele>813</ele>
        <time>2022-02-15T10:01:12.000Z</time>
      </trkpt>
      <trkpt lat="43.5312" lon="5.5748">
        <ele>813</ele>
        <time>2022-02-15T10:01:13.000Z</time>
      </trkpt>
      <trkpt lat="43.5312" lon="5.5748">
        <ele>813</ele>
        <time>2022-02-15T10:01:14.000Z</time>
      </trkpt>
      <trkpt lat="43.5312" lon="5.5748">
        <ele>813</ele>
        <time>2022-02-15T10:01:15.000Z</time>
      </trkpt>
      <trkpt lat="43.5312" lon="5.57479">
        <ele>813</ele>
        <time>2022-02-15T10:01:16.000Z</time>
      </trkpt>
      <trkpt lat="43.5312" lon="5.5748">
        <ele>813</ele>
        <time>2022-02-15T10:01:17.000Z</time>
      </trkpt>
      <trkpt lat="43.5312" lon="5.5748">
        <ele>814</ele>
        <time>2022-02-15T10:01:18.000Z</time>
      </trkpt>
      <trkpt lat="43.5312" lon="5.5748">
        <ele>814</ele>
        <time>2022-02-15T10:01:19.000Z</time>
      </trkpt>
      <trkpt lat="43.5312" lon="5.5748">
        <ele>814</ele>
        <time>2022-02-15T10:01:20.000Z</time>
      </trkpt>
      <trkpt lat="43.5312" lon="5.5748">
        <ele>814</ele>
        <time>2022-02-15T10:01:21.000Z</time>
      </trkpt>
      <trkpt lat="43.5312" lon="5.5748">
        <ele>814</ele>
        <time>2022-02-15T10:01:22.000Z</time>
      </trkpt>
      <trkpt lat="43.5312" lon="5.5748">
        <ele>814</ele>
        <time>2022-02-15T10:01:23.000Z</time>
      </trkpt>
      <trkpt lat="43.5312" lon="5.5748">
        <ele>814</ele>
        <time>2022-02-15T10:01:24.000Z</time>
      </trkpt>
      <trkpt lat="43.5312" lon="5.5748">
        <ele>814</ele>
        <time>2022-02-15T10:01:25.000Z</time>
      </trkpt>
      <trkpt lat="43.5312" lon="5.57479">
        <ele>814</ele>
        <time>2022-02-15T10:01:26.000Z</time>
      </trkpt>
      <trkpt lat="43.5312" lon="5.57479">
        <ele>814</ele>
        <time>2022-02-15T10:01:27.000Z</time>
      </trkpt>
      <trkpt lat="43.5312" lon="5.57479">
        <ele>814</ele>
        <time>2022-02-15T10:01:28.000Z</time>
      </trkpt>
      <trkpt lat="43.5312" lon="5.57479">
        <ele>814</ele>
        <time>2022-02-15T10:01:29.000Z</time>
      </trkpt>
      <trkpt lat="43.5312" lon="5.57479">
        <ele>814</ele>
        <time>2022-02-15T10:01:30.000Z</time>
      </trkpt>
      <trkpt lat="43.5312" lon="5.57479">
        <ele>814</ele>
        <time>2022-02-15T10:01:31.000Z</time>
      </trkpt>
      <trkpt lat="43.5312" lon="5.57479">
        <ele>814</ele>
        <time>2022-02-15T10:01:32.000Z</time>
      </trkpt>
      <trkpt lat="43.5312" lon="5.57479">
        <ele>814</ele>
        <time>2022-02-15T10:01:33.000Z</time>
      </trkpt>
      <trkpt lat="43.5312" lon="5.57479">
        <ele>814</ele>
        <time>2022-02-15T10:01:34.000Z</time>
      </trkpt>
      <trkpt lat="43.5312" lon="5.5748">
        <ele>814</ele>
        <time>2022-02-15T10:01:35.000Z</time>
      </trkpt>
      <trkpt lat="43.5312" lon="5.5748">
        <ele>814</ele>
        <time>2022-02-15T10:01:36.000Z</time>
      </trkpt>
      <trkpt lat="43.5312" lon="5.5748">
        <ele>814</ele>
        <time>2022-02-15T10:01:37.000Z</time>
      </trkpt>
      <trkpt lat="43.5312" lon="5.5748">
        <ele>814</ele>
        <time>2022-02-15T10:01:38.000Z</time>
      </trkpt>
      <trkpt lat="43.5312" lon="5.5748">
        <ele>814</ele>
        <time>2022-02-15T10:01:39.000Z</time>
      </trkpt>
      <trkpt lat="43.5312" lon="5.5748">
        <ele>814</ele>
        <time>2022-02-15T10:01:40.000Z</time>
      </trkpt>
      <trkpt lat="43.5312" lon="5.5748">
        <ele>814</ele>
        <time>2022-02-15T10:01:41.000Z</time>
      </trkpt>
      <trkpt lat="43.5312" lon="5.5748">
        <ele>814</ele>
        <time>2022-02-15T10:01:42.000Z</time>
      </trkpt>
      <trkpt lat="43.5312" lon="5.5748">
        <ele>814</ele>
        <time>2022-02-15T10:01:43.000Z</time>
      </trkpt>
      <trkpt lat="43.5312" lon="5.5748">
        <ele>814</ele>
        <time>2022-02-15T10:01:44.000Z</time>
      </trkpt>
      <trkpt lat="43.5312" lon="5.5748">
        <ele>814</ele>
        <time>2022-02-15T10:01:45.000Z</time>
      </trkpt>
      <trkpt lat="43.5312" lon="5.5748">
        <ele>814</ele>
        <time>2022-02-15T10:01:46.000Z</time>
      </trkpt>
      <trkpt lat="43.5312" lon="5.5748">
        <ele>814</ele>
        <time>2022-02-15T10:01:47.000Z</time>
      </trkpt>
      <trkpt lat="43.5312" lon="5.5748">
        <ele>814</ele>
        <time>2022-02-15T10:01:48.000Z</time>
      </trkpt>
      <trkpt lat="43.53121" lon="5.57479">
        <ele>814</ele>
        <time>2022-02-15T10:01:49.000Z</time>
      </trkpt>
      <trkpt lat="43.53121" lon="5.57479">
        <ele>814</ele>
        <time>2022-02-15T10:01:50.000Z</time>
      </trkpt>
      <trkpt lat="43.53121" lon="5.57479">
        <ele>814</ele>
        <time>2022-02-15T10:01:51.000Z</time>
      </trkpt>
      <trkpt lat="43.53121" lon="5.57478">
        <ele>814</ele>
        <time>2022-02-15T10:01:52.000Z</time>
      </trkpt>
      <trkpt lat="43.53121" lon="5.57479">
        <ele>814</ele>
        <time>2022-02-15T10:01:53.000Z</time>
      </trkpt>
      <trkpt lat="43.53121" lon="5.57478">
        <ele>814</ele>
        <time>2022-02-15T10:01:54.000Z</time>
      </trkpt>
      <trkpt lat="43.53121" lon="5.57479">
        <ele>814</ele>
        <time>2022-02-15T10:01:55.000Z</time>
      </trkpt>
      <trkpt lat="43.53121" lon="5.57478">
        <ele>814</ele>
        <time>2022-02-15T10:01:56.000Z</time>
      </trkpt>
      <trkpt lat="43.53121" lon="5.57478">
        <ele>814</ele>
        <time>2022-02-15T10:01:57.000Z</time>
      </trkpt>
      <trkpt lat="43.53121" lon="5.57478">
        <ele>814</ele>
        <time>2022-02-15T10:01:58.000Z</time>
      </trkpt>
      <trkpt lat="43.53121" lon="5.57478">
        <ele>814</ele>
        <time>2022-02-15T10:01:59.000Z</time>
      </trkpt>
      <trkpt lat="43.53121" lon="5.57478">
        <ele>814</ele>
        <time>2022-02-15T10:02:00.000Z</time>
      </trkpt>
      <trkpt lat="43.53121" lon="5.57478">
        <ele>814</ele>
        <time>2022-02-15T10:02:01.000Z</time>
      </trkpt>
      <trkpt lat="43.53121" lon="5.57478">
        <ele>814</ele>
        <time>2022-02-15T10:02:02.000Z</time>
      </trkpt>
      <trkpt lat="43.53121" lon="5.57478">
        <ele>814</ele>
        <time>2022-02-15T10:02:03.000Z</time>
      </trkpt>
      <trkpt lat="43.53121" lon="5.57478">
        <ele>814</ele>
        <time>2022-02-15T10:02:04.000Z</time>
      </trkpt>
      <trkpt lat="43.53121" lon="5.57478">
        <ele>814</ele>
        <time>2022-02-15T10:02:05.000Z</time>
      </trkpt>
      <trkpt lat="43.53121" lon="5.57478">
        <ele>814</ele>
        <time>2022-02-15T10:02:06.000Z</time>
      </trkpt>
      <trkpt lat="43.53121" lon="5.57478">
        <ele>814</ele>
        <time>2022-02-15T10:02:07.000Z</time>
      </trkpt>
      <trkpt lat="43.53121" lon="5.57478">
        <ele>814</ele>
        <time>2022-02-15T10:02:08.000Z</time>
      </trkpt>
      <trkpt lat="43.53121" lon="5.57479">
        <ele>814</ele>
        <time>2022-02-15T10:02:09.000Z</time>
      </trkpt>
      <trkpt lat="43.53121" lon="5.57479">
        <ele>814</ele>
        <time>2022-02-15T10:02:10.000Z</time>
      </trkpt>
      <trkpt lat="43.53121" lon="5.57479">
        <ele>814</ele>
        <time>2022-02-15T10:02:11.000Z</time>
      </trkpt>
      <trkpt lat="43.53122" lon="5.57479">
        <ele>814</ele>
        <time>2022-02-15T10:02:12.000Z</time>
      </trkpt>
      <trkpt lat="43.53122" lon="5.57479">
        <ele>814</ele>
        <time>2022-02-15T10:02:13.000Z</time>
      </trkpt>
      <trkpt lat="43.53122" lon="5.57479">
        <ele>814</ele>
        <time>2022-02-15T10:02:14.000Z</time>
      </trkpt>
      <trkpt lat="43.53122" lon="5.57479">
        <ele>815</ele>
        <time>2022-02-15T10:02:15.000Z</time>
      </trkpt>
      <trkpt lat="43.53122" lon="5.5748">
        <ele>815</ele>
        <time>2022-02-15T10:02:16.000Z</time>
      </trkpt>
      <trkpt lat="43.53122" lon="5.5748">
        <ele>815</ele>
        <time>2022-02-15T10:02:17.000Z</time>
      </trkpt>
      <trkpt lat="43.53122" lon="5.5748">
        <ele>815</ele>
        <time>2022-02-15T10:02:18.000Z</time>
      </trkpt>
      <trkpt lat="43.53122" lon="5.5748">
        <ele>815</ele>
        <time>2022-02-15T10:02:19.000Z</time>
      </trkpt>
      <trkpt lat="43.53122" lon="5.5748">
        <ele>815</ele>
        <time>2022-02-15T10:02:20.000Z</time>
      </trkpt>
      <trkpt lat="43.53122" lon="5.5748">
        <ele>815</ele>
        <time>2022-02-15T10:02:21.000Z</time>
      </trkpt>
      <trkpt lat="43.53122" lon="5.5748">
        <ele>815</ele>
        <time>2022-02-15T10:02:22.000Z</time>
      </trkpt>
      <trkpt lat="43.53122" lon="5.5748">
        <ele>815</ele>
        <time>2022-02-15T10:02:23.000Z</time>
      </trkpt>
      <trkpt lat="43.53122" lon="5.5748">
        <ele>815</ele>
        <time>2022-02-15T10:02:24.000Z</time>
      </trkpt>
      <trkpt lat="43.53122" lon="5.5748">
        <ele>815</ele>
        <time>2022-02-15T10:02:25.000Z</time>
      </trkpt>
      <trkpt lat="43.53122" lon="5.5748">
        <ele>815</ele>
        <time>2022-02-15T10:02:26.000Z</time>
      </trkpt>
      <trkpt lat="43.53122" lon="5.5748">
        <ele>815</ele>
        <time>2022-02-15T10:02:27.000Z</time>
      </trkpt>
      <trkpt lat="43.53122" lon="5.5748">
        <ele>815</ele>
        <time>2022-02-15T10:02:28.000Z</time>
      </trkpt>
      <trkpt lat="43.53122" lon="5.5748">
        <ele>815</ele>
        <time>2022-02-15T10:02:29.000Z</time>
      </trkpt>
      <trkpt lat="43.53122" lon="5.5748">
        <ele>815</ele>
        <time>2022-02-15T10:02:30.000Z</time>
      </trkpt>
      <trkpt lat="43.53122" lon="5.5748">
        <ele>815</ele>
        <time>2022-02-15T10:02:31.000Z</time>
      </trkpt>
      <trkpt lat="43.53122" lon="5.5748">
        <ele>815</ele>
        <time>2022-02-15T10:02:32.000Z</time>
      </trkpt>
      <trkpt lat="43.53122" lon="5.5748">
        <ele>815</ele>
        <time>2022-02-15T10:02:33.000Z</time>
      </trkpt>
      <trkpt lat="43.53122" lon="5.5748">
        <ele>815</ele>
        <time>2022-02-15T10:02:34.000Z</time>
      </trkpt>
      <trkpt lat="43.53122" lon="5.5748">
        <ele>816</ele>
        <time>2022-02-15T10:02:35.000Z</time>
      </trkpt>
      <trkpt lat="43.53122" lon="5.5748">
        <ele>816</ele>
        <time>2022-02-15T10:02:36.000Z</time>
      </trkpt>
      <trkpt lat="43.53122" lon="5.5748">
        <ele>816</ele>
        <time>2022-02-15T10:02:37.000Z</time>
      </trkpt>
      <trkpt lat="43.53122" lon="5.5748">
        <ele>816</ele>
        <time>2022-02-15T10:02:38.000Z</time>
      </trkpt>
      <trkpt lat="43.53122" lon="5.5748">
        <ele>816</ele>
        <time>2022-02-15T10:02:39.000Z</time>
      </trkpt>
      <trkpt lat="43.53122" lon="5.5748">
        <ele>816</ele>
        <time>2022-02-15T10:02:40.000Z</time>
      </trkpt>
      <trkpt lat="43.53122" lon="5.5748">
        <ele>816</ele>
        <time>2022-02-15T10:02:41.000Z</time>
      </trkpt>
      <trkpt lat="43.53122" lon="5.5748">
        <ele>816</ele>
        <time>2022-02-15T10:02:42.000Z</time>
      </trkpt>
      <trkpt lat="43.53122" lon="5.5748">
        <ele>816</ele>
        <time>2022-02-15T10:02:43.000Z</time>
      </trkpt>
      <trkpt lat="43.53122" lon="5.5748">
        <ele>816</ele>
        <time>2022-02-15T10:02:44.000Z</time>
      </trkpt>
      <trkpt lat="43.53122" lon="5.5748">
        <ele>816</ele>
        <time>2022-02-15T10:02:45.000Z</time>
      </trkpt>
      <trkpt lat="43.53122" lon="5.5748">
        <ele>816</ele>
        <time>2022-02-15T10:02:46.000Z</time>
      </trkpt>
      <trkpt lat="43.53122" lon="5.5748">
        <ele>816</ele>
        <time>2022-02-15T10:02:47.000Z</time>
      </trkpt>
      <trkpt lat="43.53122" lon="5.5748">
        <ele>816</ele>
        <time>2022-02-15T10:02:48.000Z</time>
      </trkpt>
      <trkpt lat="43.53121" lon="5.5748">
        <ele>816</ele>
        <time>2022-02-15T10:02:49.000Z</time>
      </trkpt>
      <trkpt lat="43.53121" lon="5.5748">
        <ele>816</ele>
        <time>2022-02-15T10:02:50.000Z</time>
      </trkpt>
      <trkpt lat="43.53121" lon="5.5748">
        <ele>816</ele>
        <time>2022-02-15T10:02:51.000Z</time>
      </trkpt>
      <trkpt lat="43.53121" lon="5.5748">
        <ele>816</ele>
        <time>2022-02-15T10:02:52.000Z</time>
      </trkpt>
      <trkpt lat="43.53121" lon="5.5748">
        <ele>816</ele>
        <time>2022-02-15T10:02:53.000Z</time>
      </trkpt>
      <trkpt lat="43.53121" lon="5.5748">
        <ele>816</ele>
        <time>2022-02-15T10:02:54.000Z</time>
      </trkpt>
      <trkpt lat="43.53121" lon="5.5748">
        <ele>816</ele>
        <time>2022-02-15T10:02:55.000Z</time>
      </trkpt>
      <trkpt lat="43.53121" lon="5.57481">
        <ele>816</ele>
        <time>2022-02-15T10:02:56.000Z</time>
      </trkpt>
      <trkpt lat="43.53121" lon="5.57481">
        <ele>816</ele>
        <time>2022-02-15T10:02:57.000Z</time>
      </trkpt>
      <trkpt lat="43.53121" lon="5.57481">
        <ele>816</ele>
        <time>2022-02-15T10:02:58.000Z</time>
      </trkpt>
      <trkpt lat="43.53121" lon="5.57481">
        <ele>816</ele>
        <time>2022-02-15T10:02:59.000Z</time>
      </trkpt>
      <trkpt lat="43.53121" lon="5.57481">
        <ele>816</ele>
        <time>2022-02-15T10:03:00.000Z</time>
      </trkpt>
      <trkpt lat="43.53121" lon="5.57481">
        <ele>816</ele>
        <time>2022-02-15T10:03:01.000Z</time>
      </trkpt>
      <trkpt lat="43.53121" lon="5.57481">
        <ele>816</ele>
        <time>2022-02-15T10:03:02.000Z</time>
      </trkpt>
      <trkpt lat="43.53121" lon="5.57481">
        <ele>816</ele>
        <time>2022-02-15T10:03:03.000Z</time>
      </trkpt>
      <trkpt lat="43.53121" lon="5.57481">
        <ele>816</ele>
        <time>2022-02-15T10:03:04.000Z</time>
      </trkpt>
      <trkpt lat="43.53121" lon="5.57481">
        <ele>816</ele>
        <time>2022-02-15T10:03:05.000Z</time>
      </trkpt>
      <trkpt lat="43.53121" lon="5.57481">
        <ele>816</ele>
        <time>2022-02-15T10:03:06.000Z</time>
      </trkpt>
      <trkpt lat="43.53121" lon="5.57481">
        <ele>816</ele>
        <time>2022-02-15T10:03:07.000Z</time>
      </trkpt>
      <trkpt lat="43.53121" lon="5.57481">
        <ele>816</ele>
        <time>2022-02-15T10:03:08.000Z</time>
      </trkpt>
      <trkpt lat="43.53121" lon="5.57481">
        <ele>816</ele>
        <time>2022-02-15T10:03:09.000Z</time>
      </trkpt>
      <trkpt lat="43.53121" lon="5.57481">
        <ele>816</ele>
        <time>2022-02-15T10:03:10.000Z</time>
      </trkpt>
      <trkpt lat="43.53121" lon="5.57481">
        <ele>816</ele>
        <time>2022-02-15T10:03:11.000Z</time>
      </trkpt>
      <trkpt lat="43.53121" lon="5.57481">
        <ele>816</ele>
        <time>2022-02-15T10:03:12.000Z</time>
      </trkpt>
      <trkpt lat="43.53121" lon="5.57481">
        <ele>816</ele>
        <time>2022-02-15T10:03:13.000Z</time>
      </trkpt>
      <trkpt lat="43.53121" lon="5.57481">
        <ele>816</ele>
        <time>2022-02-15T10:03:14.000Z</time>
      </trkpt>
      <trkpt lat="43.53121" lon="5.57481">
        <ele>816</ele>
        <time>2022-02-15T10:03:15.000Z</time>
      </trkpt>
      <trkpt lat="43.53121" lon="5.57481">
        <ele>816</ele>
        <time>2022-02-15T10:03:16.000Z</time>
      </trkpt>
      <trkpt lat="43.53121" lon="5.57481">
        <ele>816</ele>
        <time>2022-02-15T10:03:17.000Z</time>
      </trkpt>
      <trkpt lat="43.53121" lon="5.57481">
        <ele>816</ele>
        <time>2022-02-15T10:03:18.000Z</time>
      </trkpt>
      <trkpt lat="43.53121" lon="5.57481">
        <ele>816</ele>
        <time>2022-02-15T10:03:19.000Z</time>
      </trkpt>
      <trkpt lat="43.53121" lon="5.57481">
        <ele>816</ele>
        <time>2022-02-15T10:03:20.000Z</time>
      </trkpt>
      <trkpt lat="43.53121" lon="5.57481">
        <ele>816</ele>
        <time>2022-02-15T10:03:21.000Z</time>
      </trkpt>
      <trkpt lat="43.53121" lon="5.57481">
        <ele>816</ele>
        <time>2022-02-15T10:03:22.000Z</time>
      </trkpt>
      <trkpt lat="43.53121" lon="5.57481">
        <ele>816</ele>
        <time>2022-02-15T10:03:23.000Z</time>
      </trkpt>
      <trkpt lat="43.53121" lon="5.57481">
        <ele>816</ele>
        <time>2022-02-15T10:03:24.000Z</time>
      </trkpt>
      <trkpt lat="43.53121" lon="5.57481">
        <ele>816</ele>
        <time>2022-02-15T10:03:25.000Z</time>
      </trkpt>
      <trkpt lat="43.53121" lon="5.57481">
        <ele>816</ele>
        <time>2022-02-15T10:03:26.000Z</time>
      </trkpt>
      <trkpt lat="43.53121" lon="5.57481">
        <ele>816</ele>
        <time>2022-02-15T10:03:27.000Z</time>
      </trkpt>
      <trkpt lat="43.53121" lon="5.57481">
        <ele>816</ele>
        <time>2022-02-15T10:03:28.000Z</time>
      </trkpt>
      <trkpt lat="43.53121" lon="5.57481">
        <ele>816</ele>
        <time>2022-02-15T10:03:29.000Z</time>
      </trkpt>
      <trkpt lat="43.53121" lon="5.57481">
        <ele>816</ele>
        <time>2022-02-15T10:03:30.000Z</time>
      </trkpt>
      <trkpt lat="43.53121" lon="5.57481">
        <ele>816</ele>
        <time>2022-02-15T10:03:31.000Z</time>
      </trkpt>
      <trkpt lat="43.53121" lon="5.57481">
        <ele>816</ele>
        <time>2022-02-15T10:03:32.000Z</time>
      </trkpt>
      <trkpt lat="43.53121" lon="5.57481">
        <ele>816</ele>
        <time>2022-02-15T10:03:33.000Z</time>
      </trkpt>
      <trkpt lat="43.53121" lon="5.57481">
        <ele>816</ele>
        <time>2022-02-15T10:03:34.000Z</time>
      </trkpt>
      <trkpt lat="43.53121" lon="5.57481">
        <ele>816</ele>
        <time>2022-02-15T10:03:35.000Z</time>
      </trkpt>
      <trkpt lat="43.53121" lon="5.57481">
        <ele>816</ele>
        <time>2022-02-15T10:03:36.000Z</time>
      </trkpt>
      <trkpt lat="43.53121" lon="5.57481">
        <ele>816</ele>
        <time>2022-02-15T10:03:37.000Z</time>
      </trkpt>
      <trkpt lat="43.53121" lon="5.57481">
        <ele>816</ele>
        <time>2022-02-15T10:03:38.000Z</time>
      </trkpt>
      <trkpt lat="43.53121" lon="5.57481">
        <ele>816</ele>
        <time>2022-02-15T10:03:39.000Z</time>
      </trkpt>
      <trkpt lat="43.53121" lon="5.57481">
        <ele>816</ele>
        <time>2022-02-15T10:03:40.000Z</time>
      </trkpt>
      <trkpt lat="43.53121" lon="5.57481">
        <ele>816</ele>
        <time>2022-02-15T10:03:41.000Z</time>
      </trkpt>
      <trkpt lat="43.53121" lon="5.57481">
        <ele>816</ele>
        <time>2022-02-15T10:03:42.000Z</time>
      </trkpt>
      <trkpt lat="43.53121" lon="5.57481">
        <ele>816</ele>
        <time>2022-02-15T10:03:43.000Z</time>
      </trkpt>
      <trkpt lat="43.53121" lon="5.57481">
        <ele>816</ele>
        <time>2022-02-15T10:03:44.000Z</time>
      </trkpt>
      <trkpt lat="43.53121" lon="5.57481">
        <ele>816</ele>
        <time>2022-02-15T10:03:45.000Z</time>
      </trkpt>
      <trkpt lat="43.53121" lon="5.57481">
        <ele>816</ele>
        <time>2022-02-15T10:03:46.000Z</time>
      </trkpt>
      <trkpt lat="43.53121" lon="5.57481">
        <ele>816</ele>
        <time>2022-02-15T10:03:47.000Z</time>
      </trkpt>
      <trkpt lat="43.53121" lon="5.57481">
        <ele>816</ele>
        <time>2022-02-15T10:03:48.000Z</time>
      </trkpt>
      <trkpt lat="43.53121" lon="5.57481">
        <ele>816</ele>
        <time>2022-02-15T10:03:49.000Z</time>
      </trkpt>
      <trkpt lat="43.53121" lon="5.57481">
        <ele>816</ele>
        <time>2022-02-15T10:03:50.000Z</time>
      </trkpt>
      <trkpt lat="43.53121" lon="5.57481">
        <ele>816</ele>
        <time>2022-02-15T10:03:51.000Z</time>
      </trkpt>
      <trkpt lat="43.53121" lon="5.57481">
        <ele>816</ele>
        <time>2022-02-15T10:03:52.000Z</time>
      </trkpt>
      <trkpt lat="43.53121" lon="5.57481">
        <ele>816</ele>
        <time>2022-02-15T10:03:53.000Z</time>
      </trkpt>
      <trkpt lat="43.53121" lon="5.57481">
        <ele>816</ele>
        <time>2022-02-15T10:03:54.000Z</time>
      </trkpt>
      <trkpt lat="43.53121" lon="5.57481">
        <ele>816</ele>
        <time>2022-02-15T10:03:55.000Z</time>
      </trkpt>
      <trkpt lat="43.53121" lon="5.57481">
        <ele>816</ele>
        <time>2022-02-15T10:03:56.000Z</time>
      </trkpt>
      <trkpt lat="43.53121" lon="5.5748">
        <ele>816</ele>
        <time>2022-02-15T10:03:57.000Z</time>
      </trkpt>
      <trkpt lat="43.53121" lon="5.5748">
        <ele>816</ele>
        <time>2022-02-15T10:03:58.000Z</time>
      </trkpt>
      <trkpt lat="43.53121" lon="5.5748">
        <ele>816</ele>
        <time>2022-02-15T10:03:59.000Z</time>
      </trkpt>
      <trkpt lat="43.53121" lon="5.5748">
        <ele>816</ele>
        <time>2022-02-15T10:04:00.000Z</time>
      </trkpt>
      <trkpt lat="43.53121" lon="5.5748">
        <ele>816</ele>
        <time>2022-02-15T10:04:01.000Z</time>
      </trkpt>
      <trkpt lat="43.53121" lon="5.5748">
        <ele>816</ele>
        <time>2022-02-15T10:04:02.000Z</time>
      </trkpt>
      <trkpt lat="43.53121" lon="5.5748">
        <ele>816</ele>
        <time>2022-02-15T10:04:03.000Z</time>
      </trkpt>
      <trkpt lat="43.53121" lon="5.5748">
        <ele>816</ele>
        <time>2022-02-15T10:04:04.000Z</time>
      </trkpt>
      <trkpt lat="43.53121" lon="5.5748">
        <ele>816</ele>
        <time>2022-02-15T10:04:05.000Z</time>
      </trkpt>
      <trkpt lat="43.53121" lon="5.5748">
        <ele>816</ele>
        <time>2022-02-15T10:04:06.000Z</time>
      </trkpt>
      <trkpt lat="43.53121" lon="5.5748">
        <ele>816</ele>
        <time>2022-02-15T10:04:07.000Z</time>
      </trkpt>
      <trkpt lat="43.53121" lon="5.5748">
        <ele>816</ele>
        <time>2022-02-15T10:04:08.000Z</time>
      </trkpt>
      <trkpt lat="43.53121" lon="5.5748">
        <ele>816</ele>
        <time>2022-02-15T10:04:09.000Z</time>
      </trkpt>
      <trkpt lat="43.53121" lon="5.5748">
        <ele>816</ele>
        <time>2022-02-15T10:04:10.000Z</time>
      </trkpt>
      <trkpt lat="43.53121" lon="5.5748">
        <ele>817</ele>
        <time>2022-02-15T10:04:11.000Z</time>
      </trkpt>
      <trkpt lat="43.53121" lon="5.5748">
        <ele>817</ele>
        <time>2022-02-15T10:04:12.000Z</time>
      </trkpt>
      <trkpt lat="43.53121" lon="5.5748">
        <ele>817</ele>
        <time>2022-02-15T10:04:13.000Z</time>
      </trkpt>
      <trkpt lat="43.53121" lon="5.5748">
        <ele>817</ele>
        <time>2022-02-15T10:04:14.000Z</time>
      </trkpt>
      <trkpt lat="43.53121" lon="5.5748">
        <ele>817</ele>
        <time>2022-02-15T10:04:15.000Z</time>
      </trkpt>
      <trkpt lat="43.53121" lon="5.5748">
        <ele>817</ele>
        <time>2022-02-15T10:04:16.000Z</time>
      </trkpt>
      <trkpt lat="43.53121" lon="5.5748">
        <ele>817</ele>
        <time>2022-02-15T10:04:17.000Z</time>
      </trkpt>
      <trkpt lat="43.53121" lon="5.5748">
        <ele>817</ele>
        <time>2022-02-15T10:04:18.000Z</time>
      </trkpt>
      <trkpt lat="43.53121" lon="5.5748">
        <ele>817</ele>
        <time>2022-02-15T10:04:19.000Z</time>
      </trkpt>
      <trkpt lat="43.53121" lon="5.5748">
        <ele>817</ele>
        <time>2022-02-15T10:04:20.000Z</time>
      </trkpt>
      <trkpt lat="43.53121" lon="5.5748">
        <ele>817</ele>
        <time>2022-02-15T10:04:21.000Z</time>
      </trkpt>
      <trkpt lat="43.53121" lon="5.5748">
        <ele>817</ele>
        <time>2022-02-15T10:04:22.000Z</time>
      </trkpt>
      <trkpt lat="43.53121" lon="5.5748">
        <ele>817</ele>
        <time>2022-02-15T10:04:23.000Z</time>
      </trkpt>
      <trkpt lat="43.53121" lon="5.5748">
        <ele>817</ele>
        <time>2022-02-15T10:04:24.000Z</time>
      </trkpt>
      <trkpt lat="43.53121" lon="5.5748">
        <ele>817</ele>
        <time>2022-02-15T10:04:25.000Z</time>
      </trkpt>
      <trkpt lat="43.53121" lon="5.5748">
        <ele>817</ele>
        <time>2022-02-15T10:04:26.000Z</time>
      </trkpt>
      <trkpt lat="43.53121" lon="5.5748">
        <ele>817</ele>
        <time>2022-02-15T10:04:27.000Z</time>
      </trkpt>
      <trkpt lat="43.53121" lon="5.5748">
        <ele>817</ele>
        <time>2022-02-15T10:04:28.000Z</time>
      </trkpt>
      <trkpt lat="43.53121" lon="5.5748">
        <ele>817</ele>
        <time>2022-02-15T10:04:29.000Z</time>
      </trkpt>
      <trkpt lat="43.53121" lon="5.5748">
        <ele>817</ele>
        <time>2022-02-15T10:04:30.000Z</time>
      </trkpt>
      <trkpt lat="43.53121" lon="5.57479">
        <ele>817</ele>
        <time>2022-02-15T10:04:31.000Z</time>
      </trkpt>
      <trkpt lat="43.53122" lon="5.57479">
        <ele>817</ele>
        <time>2022-02-15T10:04:32.000Z</time>
      </trkpt>
      <trkpt lat="43.53122" lon="5.57479">
        <ele>817</ele>
        <time>2022-02-15T10:04:33.000Z</time>
      </trkpt>
      <trkpt lat="43.53121" lon="5.57479">
        <ele>817</ele>
        <time>2022-02-15T10:04:34.000Z</time>
      </trkpt>
      <trkpt lat="43.53121" lon="5.57479">
        <ele>817</ele>
        <time>2022-02-15T10:04:35.000Z</time>
      </trkpt>
      <trkpt lat="43.53121" lon="5.57479">
        <ele>817</ele>
        <time>2022-02-15T10:04:36.000Z</time>
      </trkpt>
      <trkpt lat="43.53121" lon="5.57479">
        <ele>817</ele>
        <time>2022-02-15T10:04:37.000Z</time>
      </trkpt>
      <trkpt lat="43.53122" lon="5.5748">
        <ele>817</ele>
        <time>2022-02-15T10:04:38.000Z</time>
      </trkpt>
      <trkpt lat="43.53122" lon="5.5748">
        <ele>817</ele>
        <time>2022-02-15T10:04:39.000Z</time>
      </trkpt>
      <trkpt lat="43.53122" lon="5.5748">
        <ele>818</ele>
        <time>2022-02-15T10:04:40.000Z</time>
      </trkpt>
      <trkpt lat="43.53122" lon="5.5748">
        <ele>818</ele>
        <time>2022-02-15T10:04:41.000Z</time>
      </trkpt>
      <trkpt lat="43.53122" lon="5.5748">
        <ele>818</ele>
        <time>2022-02-15T10:04:42.000Z</time>
      </trkpt>
      <trkpt lat="43.53122" lon="5.5748">
        <ele>818</ele>
        <time>2022-02-15T10:04:43.000Z</time>
      </trkpt>
      <trkpt lat="43.53122" lon="5.5748">
        <ele>818</ele>
        <time>2022-02-15T10:04:44.000Z</time>
      </trkpt>
      <trkpt lat="43.53123" lon="5.5748">
        <ele>818</ele>
        <time>2022-02-15T10:04:45.000Z</time>
      </trkpt>
      <trkpt lat="43.53123" lon="5.57479">
        <ele>818</ele>
        <time>2022-02-15T10:04:46.000Z</time>
      </trkpt>
      <trkpt lat="43.53123" lon="5.57479">
        <ele>818</ele>
        <time>2022-02-15T10:04:47.000Z</time>
      </trkpt>
      <trkpt lat="43.53123" lon="5.57479">
        <ele>818</ele>
        <time>2022-02-15T10:04:48.000Z</time>
      </trkpt>
      <trkpt lat="43.53124" lon="5.57479">
        <ele>818</ele>
        <time>2022-02-15T10:04:49.000Z</time>
      </trkpt>
      <trkpt lat="43.53124" lon="5.57479">
        <ele>818</ele>
        <time>2022-02-15T10:04:50.000Z</time>
      </trkpt>
      <trkpt lat="43.53124" lon="5.57479">
        <ele>819</ele>
        <time>2022-02-15T10:04:51.000Z</time>
      </trkpt>
      <trkpt lat="43.53124" lon="5.57479">
        <ele>819</ele>
        <time>2022-02-15T10:04:52.000Z</time>
      </trkpt>
      <trkpt lat="43.53125" lon="5.57478">
        <ele>819</ele>
        <time>2022-02-15T10:04:53.000Z</time>
      </trkpt>
      <trkpt lat="43.53125" lon="5.57478">
        <ele>819</ele>
        <time>2022-02-15T10:04:54.000Z</time>
      </trkpt>
      <trkpt lat="43.53126" lon="5.57479">
        <ele>820</ele>
        <time>2022-02-15T10:04:55.000Z</time>
      </trkpt>
      <trkpt lat="43.53126" lon="5.57479">
        <ele>820</ele>
        <time>2022-02-15T10:04:56.000Z</time>
      </trkpt>
      <trkpt lat="43.53126" lon="5.57479">
        <ele>820</ele>
        <time>2022-02-15T10:04:57.000Z</time>
      </trkpt>
      <trkpt lat="43.53127" lon="5.57479">
        <ele>820</ele>
        <time>2022-02-15T10:04:58.000Z</time>
      </trkpt>
      <trkpt lat="43.53127" lon="5.57479">
        <ele>820</ele>
        <time>2022-02-15T10:04:59.000Z</time>
      </trkpt>
      <trkpt lat="43.53127" lon="5.57478">
        <ele>820</ele>
        <time>2022-02-15T10:05:00.000Z</time>
      </trkpt>
      <trkpt lat="43.53127" lon="5.57478">
        <ele>821</ele>
        <time>2022-02-15T10:05:01.000Z</time>
      </trkpt>
      <trkpt lat="43.53127" lon="5.57478">
        <ele>821</ele>
        <time>2022-02-15T10:05:02.000Z</time>
      </trkpt>
      <trkpt lat="43.53127" lon="5.57478">
        <ele>821</ele>
        <time>2022-02-15T10:05:03.000Z</time>
      </trkpt>
      <trkpt lat="43.53127" lon="5.57478">
        <ele>821</ele>
        <time>2022-02-15T10:05:04.000Z</time>
      </trkpt>
      <trkpt lat="43.53127" lon="5.57478">
        <ele>821</ele>
        <time>2022-02-15T10:05:05.000Z</time>
      </trkpt>
      <trkpt lat="43.53127" lon="5.57478">
        <ele>821</ele>
        <time>2022-02-15T10:05:06.000Z</time>
      </trkpt>
      <trkpt lat="43.53128" lon="5.57478">
        <ele>821</ele>
        <time>2022-02-15T10:05:07.000Z</time>
      </trkpt>
      <trkpt lat="43.53127" lon="5.57477">
        <ele>821</ele>
        <time>2022-02-15T10:05:08.000Z</time>
      </trkpt>
      <trkpt lat="43.53127" lon="5.57477">
        <ele>821</ele>
        <time>2022-02-15T10:05:09.000Z</time>
      </trkpt>
      <trkpt lat="43.53127" lon="5.57478">
        <ele>821</ele>
        <time>2022-02-15T10:05:10.000Z</time>
      </trkpt>
      <trkpt lat="43.53127" lon="5.57478">
        <ele>821</ele>
        <time>2022-02-15T10:05:11.000Z</time>
      </trkpt>
      <trkpt lat="43.53127" lon="5.57477">
        <ele>821</ele>
        <time>2022-02-15T10:05:12.000Z</time>
      </trkpt>
      <trkpt lat="43.53127" lon="5.57477">
        <ele>821</ele>
        <time>2022-02-15T10:05:13.000Z</time>
      </trkpt>
      <trkpt lat="43.53127" lon="5.57477">
        <ele>821</ele>
        <time>2022-02-15T10:05:14.000Z</time>
      </trkpt>
      <trkpt lat="43.53127" lon="5.57477">
        <ele>821</ele>
        <time>2022-02-15T10:05:15.000Z</time>
      </trkpt>
      <trkpt lat="43.53127" lon="5.57477">
        <ele>821</ele>
        <time>2022-02-15T10:05:16.000Z</time>
      </trkpt>
      <trkpt lat="43.53127" lon="5.57477">
        <ele>821</ele>
        <time>2022-02-15T10:05:17.000Z</time>
      </trkpt>
      <trkpt lat="43.53127" lon="5.57477">
        <ele>821</ele>
        <time>2022-02-15T10:05:18.000Z</time>
      </trkpt>
      <trkpt lat="43.53127" lon="5.57477">
        <ele>821</ele>
        <time>2022-02-15T10:05:19.000Z</time>
      </trkpt>
      <trkpt lat="43.53128" lon="5.57477">
        <ele>821</ele>
        <time>2022-02-15T10:05:20.000Z</time>
      </trkpt>
      <trkpt lat="43.53128" lon="5.57477">
        <ele>821</ele>
        <time>2022-02-15T10:05:21.000Z</time>
      </trkpt>
      <trkpt lat="43.53128" lon="5.57477">
        <ele>821</ele>
        <time>2022-02-15T10:05:22.000Z</time>
      </trkpt>
      <trkpt lat="43.53128" lon="5.57477">
        <ele>821</ele>
        <time>2022-02-15T10:05:23.000Z</time>
      </trkpt>
      <trkpt lat="43.53128" lon="5.57477">
        <ele>821</ele>
        <time>2022-02-15T10:05:24.000Z</time>
      </trkpt>
      <trkpt lat="43.53128" lon="5.57477">
        <ele>821</ele>
        <time>2022-02-15T10:05:25.000Z</time>
      </trkpt>
      <trkpt lat="43.53128" lon="5.57477">
        <ele>821</ele>
        <time>2022-02-15T10:05:26.000Z</time>
      </trkpt>
      <trkpt lat="43.53128" lon="5.57477">
        <ele>821</ele>
        <time>2022-02-15T10:05:27.000Z</time>
      </trkpt>
      <trkpt lat="43.53128" lon="5.57477">
        <ele>821</ele>
        <time>2022-02-15T10:05:28.000Z</time>
      </trkpt>
      <trkpt lat="43.53128" lon="5.57476">
        <ele>821</ele>
        <time>2022-02-15T10:05:29.000Z</time>
      </trkpt>
      <trkpt lat="43.53129" lon="5.57478">
        <ele>821</ele>
        <time>2022-02-15T10:05:30.000Z</time>
      </trkpt>
      <trkpt lat="43.53129" lon="5.57479">
        <ele>821</ele>
        <time>2022-02-15T10:05:31.000Z</time>
      </trkpt>
      <trkpt lat="43.5313" lon="5.5748">
        <ele>821</ele>
        <time>2022-02-15T10:05:32.000Z</time>
      </trkpt>
      <trkpt lat="43.5313" lon="5.5748">
        <ele>822</ele>
        <time>2022-02-15T10:05:33.000Z</time>
      </trkpt>
      <trkpt lat="43.5313" lon="5.5748">
        <ele>822</ele>
        <time>2022-02-15T10:05:34.000Z</time>
      </trkpt>
      <trkpt lat="43.5313" lon="5.5748">
        <ele>822</ele>
        <time>2022-02-15T10:05:35.000Z</time>
      </trkpt>
      <trkpt lat="43.5313" lon="5.5748">
        <ele>822</ele>
        <time>2022-02-15T10:05:36.000Z</time>
      </trkpt>
      <trkpt lat="43.5313" lon="5.5748">
        <ele>822</ele>
        <time>2022-02-15T10:05:37.000Z</time>
      </trkpt>
      <trkpt lat="43.5313" lon="5.5748">
        <ele>822</ele>
        <time>2022-02-15T10:05:38.000Z</time>
      </trkpt>
      <trkpt lat="43.53131" lon="5.57481">
        <ele>822</ele>
        <time>2022-02-15T10:05:39.000Z</time>
      </trkpt>
      <trkpt lat="43.53131" lon="5.57481">
        <ele>822</ele>
        <time>2022-02-15T10:05:40.000Z</time>
      </trkpt>
      <trkpt lat="43.53131" lon="5.57481">
        <ele>822</ele>
        <time>2022-02-15T10:05:41.000Z</time>
      </trkpt>
      <trkpt lat="43.53131" lon="5.57481">
        <ele>822</ele>
        <time>2022-02-15T10:05:42.000Z</time>
      </trkpt>
      <trkpt lat="43.53132" lon="5.57481">
        <ele>822</ele>
        <time>2022-02-15T10:05:43.000Z</time>
      </trkpt>
      <trkpt lat="43.53132" lon="5.57481">
        <ele>823</ele>
        <time>2022-02-15T10:05:44.000Z</time>
      </trkpt>
      <trkpt lat="43.53132" lon="5.57481">
        <ele>823</ele>
        <time>2022-02-15T10:05:45.000Z</time>
      </trkpt>
      <trkpt lat="43.53132" lon="5.57481">
        <ele>823</ele>
        <time>2022-02-15T10:05:46.000Z</time>
      </trkpt>
      <trkpt lat="43.53132" lon="5.57481">
        <ele>823</ele>
        <time>2022-02-15T10:05:47.000Z</time>
      </trkpt>
      <trkpt lat="43.53132" lon="5.5748">
        <ele>823</ele>
        <time>2022-02-15T10:05:48.000Z</time>
      </trkpt>
      <trkpt lat="43.53132" lon="5.5748">
        <ele>823</ele>
        <time>2022-02-15T10:05:49.000Z</time>
      </trkpt>
      <trkpt lat="43.53132" lon="5.57481">
        <ele>823</ele>
        <time>2022-02-15T10:05:50.000Z</time>
      </trkpt>
      <trkpt lat="43.53132" lon="5.57481">
        <ele>823</ele>
        <time>2022-02-15T10:05:51.000Z</time>
      </trkpt>
      <trkpt lat="43.53132" lon="5.57481">
        <ele>823</ele>
        <time>2022-02-15T10:05:52.000Z</time>
      </trkpt>
      <trkpt lat="43.53132" lon="5.57481">
        <ele>823</ele>
        <time>2022-02-15T10:05:53.000Z</time>
      </trkpt>
      <trkpt lat="43.53133" lon="5.57481">
        <ele>823</ele>
        <time>2022-02-15T10:05:54.000Z</time>
      </trkpt>
      <trkpt lat="43.53133" lon="5.57481">
        <ele>823</ele>
        <time>2022-02-15T10:05:55.000Z</time>
      </trkpt>
      <trkpt lat="43.53132" lon="5.57481">
        <ele>823</ele>
        <time>2022-02-15T10:05:56.000Z</time>
      </trkpt>
      <trkpt lat="43.53132" lon="5.57481">
        <ele>823</ele>
        <time>2022-02-15T10:05:57.000Z</time>
      </trkpt>
      <trkpt lat="43.53132" lon="5.57481">
        <ele>823</ele>
        <time>2022-02-15T10:05:58.000Z</time>
      </trkpt>
      <trkpt lat="43.53132" lon="5.57481">
        <ele>823</ele>
        <time>2022-02-15T10:05:59.000Z</time>
      </trkpt>
      <trkpt lat="43.53132" lon="5.57481">
        <ele>824</ele>
        <time>2022-02-15T10:06:00.000Z</time>
      </trkpt>
      <trkpt lat="43.53132" lon="5.57481">
        <ele>824</ele>
        <time>2022-02-15T10:06:01.000Z</time>
      </trkpt>
      <trkpt lat="43.53133" lon="5.57481">
        <ele>824</ele>
        <time>2022-02-15T10:06:02.000Z</time>
      </trkpt>
      <trkpt lat="43.53133" lon="5.57482">
        <ele>824</ele>
        <time>2022-02-15T10:06:03.000Z</time>
      </trkpt>
      <trkpt lat="43.53134" lon="5.57482">
        <ele>824</ele>
        <time>2022-02-15T10:06:04.000Z</time>
      </trkpt>
      <trkpt lat="43.53134" lon="5.57482">
        <ele>824</ele>
        <time>2022-02-15T10:06:05.000Z</time>
      </trkpt>
      <trkpt lat="43.53134" lon="5.57482">
        <ele>824</ele>
        <time>2022-02-15T10:06:06.000Z</time>
      </trkpt>
      <trkpt lat="43.53135" lon="5.57482">
        <ele>824</ele>
        <time>2022-02-15T10:06:07.000Z</time>
      </trkpt>
      <trkpt lat="43.53135" lon="5.57482">
        <ele>824</ele>
        <time>2022-02-15T10:06:08.000Z</time>
      </trkpt>
      <trkpt lat="43.53135" lon="5.57483">
        <ele>825</ele>
        <time>2022-02-15T10:06:09.000Z</time>
      </trkpt>
      <trkpt lat="43.53136" lon="5.57483">
        <ele>825</ele>
        <time>2022-02-15T10:06:10.000Z</time>
      </trkpt>
      <trkpt lat="43.53136" lon="5.57483">
        <ele>825</ele>
        <time>2022-02-15T10:06:11.000Z</time>
      </trkpt>
      <trkpt lat="43.53136" lon="5.57483">
        <ele>825</ele>
        <time>2022-02-15T10:06:12.000Z</time>
      </trkpt>
      <trkpt lat="43.53136" lon="5.57484">
        <ele>825</ele>
        <time>2022-02-15T10:06:13.000Z</time>
      </trkpt>
      <trkpt lat="43.53136" lon="5.57484">
        <ele>825</ele>
        <time>2022-02-15T10:06:14.000Z</time>
      </trkpt>
      <trkpt lat="43.53136" lon="5.57484">
        <ele>825</ele>
        <time>2022-02-15T10:06:15.000Z</time>
      </trkpt>
      <trkpt lat="43.53136" lon="5.57484">
        <ele>825</ele>
        <time>2022-02-15T10:06:16.000Z</time>
      </trkpt>
      <trkpt lat="43.53136" lon="5.57484">
        <ele>826</ele>
        <time>2022-02-15T10:06:17.000Z</time>
      </trkpt>
      <trkpt lat="43.53136" lon="5.57484">
        <ele>826</ele>
        <time>2022-02-15T10:06:18.000Z</time>
      </trkpt>
      <trkpt lat="43.53136" lon="5.57484">
        <ele>826</ele>
        <time>2022-02-15T10:06:19.000Z</time>
      </trkpt>
      <trkpt lat="43.53136" lon="5.57484">
        <ele>826</ele>
        <time>2022-02-15T10:06:20.000Z</time>
      </trkpt>
      <trkpt lat="43.53136" lon="5.57484">
        <ele>826</ele>
        <time>2022-02-15T10:06:21.000Z</time>
      </trkpt>
      <trkpt lat="43.53136" lon="5.57484">
        <ele>826</ele>
        <time>2022-02-15T10:06:22.000Z</time>
      </trkpt>
      <trkpt lat="43.53136" lon="5.57484">
        <ele>826</ele>
        <time>2022-02-15T10:06:23.000Z</time>
      </trkpt>
      <trkpt lat="43.53136" lon="5.57484">
        <ele>826</ele>
        <time>2022-02-15T10:06:24.000Z</time>
      </trkpt>
      <trkpt lat="43.53136" lon="5.57484">
        <ele>826</ele>
        <time>2022-02-15T10:06:25.000Z</time>
      </trkpt>
      <trkpt lat="43.53136" lon="5.57484">
        <ele>826</ele>
        <time>2022-02-15T10:06:26.000Z</time>
      </trkpt>
      <trkpt lat="43.53136" lon="5.57484">
        <ele>826</ele>
        <time>2022-02-15T10:06:27.000Z</time>
      </trkpt>
      <trkpt lat="43.53136" lon="5.57484">
        <ele>826</ele>
        <time>2022-02-15T10:06:28.000Z</time>
      </trkpt>
      <trkpt lat="43.53136" lon="5.57484">
        <ele>826</ele>
        <time>2022-02-15T10:06:29.000Z</time>
      </trkpt>
      <trkpt lat="43.53136" lon="5.57484">
        <ele>826</ele>
        <time>2022-02-15T10:06:30.000Z</time>
      </trkpt>
      <trkpt lat="43.53136" lon="5.57484">
        <ele>826</ele>
        <time>2022-02-15T10:06:31.000Z</time>
      </trkpt>
      <trkpt lat="43.53136" lon="5.57484">
        <ele>826</ele>
        <time>2022-02-15T10:06:32.000Z</time>
      </trkpt>
      <trkpt lat="43.53136" lon="5.57484">
        <ele>826</ele>
        <time>2022-02-15T10:06:33.000Z</time>
      </trkpt>
      <trkpt lat="43.53136" lon="5.57484">
        <ele>826</ele>
        <time>2022-02-15T10:06:34.000Z</time>
      </trkpt>
      <trkpt lat="43.53136" lon="5.57484">
        <ele>826</ele>
        <time>2022-02-15T10:06:35.000Z</time>
      </trkpt>
      <trkpt lat="43.53136" lon="5.57484">
        <ele>826</ele>
        <time>2022-02-15T10:06:36.000Z</time>
      </trkpt>
      <trkpt lat="43.53136" lon="5.57484">
        <ele>826</ele>
        <time>2022-02-15T10:06:37.000Z</time>
      </trkpt>
      <trkpt lat="43.53136" lon="5.57484">
        <ele>826</ele>
        <time>2022-02-15T10:06:38.000Z</time>
      </trkpt>
      <trkpt lat="43.53137" lon="5.57484">
        <ele>826</ele>
        <time>2022-02-15T10:06:39.000Z</time>
      </trkpt>
      <trkpt lat="43.53137" lon="5.57485">
        <ele>826</ele>
        <time>2022-02-15T10:06:40.000Z</time>
      </trkpt>
      <trkpt lat="43.53137" lon="5.57485">
        <ele>826</ele>
        <time>2022-02-15T10:06:41.000Z</time>
      </trkpt>
      <trkpt lat="43.53137" lon="5.57485">
        <ele>826</ele>
        <time>2022-02-15T10:06:42.000Z</time>
      </trkpt>
      <trkpt lat="43.53137" lon="5.57485">
        <ele>826</ele>
        <time>2022-02-15T10:06:43.000Z</time>
      </trkpt>
      <trkpt lat="43.53137" lon="5.57485">
        <ele>826</ele>
        <time>2022-02-15T10:06:44.000Z</time>
      </trkpt>
      <trkpt lat="43.53137" lon="5.57485">
        <ele>826</ele>
        <time>2022-02-15T10:06:45.000Z</time>
      </trkpt>
      <trkpt lat="43.53137" lon="5.57485">
        <ele>826</ele>
        <time>2022-02-15T10:06:46.000Z</time>
      </trkpt>
      <trkpt lat="43.53137" lon="5.57485">
        <ele>826</ele>
        <time>2022-02-15T10:06:47.000Z</time>
      </trkpt>
      <trkpt lat="43.53136" lon="5.57485">
        <ele>826</ele>
        <time>2022-02-15T10:06:48.000Z</time>
      </trkpt>
      <trkpt lat="43.53136" lon="5.57485">
        <ele>826</ele>
        <time>2022-02-15T10:06:49.000Z</time>
      </trkpt>
      <trkpt lat="43.53136" lon="5.57485">
        <ele>826</ele>
        <time>2022-02-15T10:06:50.000Z</time>
      </trkpt>
      <trkpt lat="43.53136" lon="5.57485">
        <ele>826</ele>
        <time>2022-02-15T10:06:51.000Z</time>
      </trkpt>
      <trkpt lat="43.53136" lon="5.57485">
        <ele>826</ele>
        <time>2022-02-15T10:06:52.000Z</time>
      </trkpt>
      <trkpt lat="43.53136" lon="5.57485">
        <ele>826</ele>
        <time>2022-02-15T10:06:53.000Z</time>
      </trkpt>
      <trkpt lat="43.53136" lon="5.57484">
        <ele>826</ele>
        <time>2022-02-15T10:06:54.000Z</time>
      </trkpt>
      <trkpt lat="43.53136" lon="5.57484">
        <ele>826</ele>
        <time>2022-02-15T10:06:55.000Z</time>
      </trkpt>
      <trkpt lat="43.53136" lon="5.57484">
        <ele>826</ele>
        <time>2022-02-15T10:06:56.000Z</time>
      </trkpt>
      <trkpt lat="43.53136" lon="5.57484">
        <ele>826</ele>
        <time>2022-02-15T10:06:57.000Z</time>
      </trkpt>
      <trkpt lat="43.53136" lon="5.57484">
        <ele>826</ele>
        <time>2022-02-15T10:06:58.000Z</time>
      </trkpt>
      <trkpt lat="43.53136" lon="5.57484">
        <ele>826</ele>
        <time>2022-02-15T10:06:59.000Z</time>
      </trkpt>
      <trkpt lat="43.53136" lon="5.57484">
        <ele>826</ele>
        <time>2022-02-15T10:07:00.000Z</time>
      </trkpt>
      <trkpt lat="43.53136" lon="5.57484">
        <ele>826</ele>
        <time>2022-02-15T10:07:01.000Z</time>
      </trkpt>
      <trkpt lat="43.53136" lon="5.57484">
        <ele>826</ele>
        <time>2022-02-15T10:07:02.000Z</time>
      </trkpt>
      <trkpt lat="43.53136" lon="5.57484">
        <ele>826</ele>
        <time>2022-02-15T10:07:03.000Z</time>
      </trkpt>
      <trkpt lat="43.53136" lon="5.57484">
        <ele>827</ele>
        <time>2022-02-15T10:07:04.000Z</time>
      </trkpt>
      <trkpt lat="43.53136" lon="5.57484">
        <ele>827</ele>
        <time>2022-02-15T10:07:05.000Z</time>
      </trkpt>
      <trkpt lat="43.53136" lon="5.57484">
        <ele>827</ele>
        <time>2022-02-15T10:07:06.000Z</time>
      </trkpt>
      <trkpt lat="43.53136" lon="5.57484">
        <ele>827</ele>
        <time>2022-02-15T10:07:07.000Z</time>
      </trkpt>
      <trkpt lat="43.53136" lon="5.57485">
        <ele>827</ele>
        <time>2022-02-15T10:07:08.000Z</time>
      </trkpt>
      <trkpt lat="43.53136" lon="5.57485">
        <ele>827</ele>
        <time>2022-02-15T10:07:09.000Z</time>
      </trkpt>
      <trkpt lat="43.53136" lon="5.57484">
        <ele>827</ele>
        <time>2022-02-15T10:07:10.000Z</time>
      </trkpt>
      <trkpt lat="43.53136" lon="5.57484">
        <ele>827</ele>
        <time>2022-02-15T10:07:11.000Z</time>
      </trkpt>
      <trkpt lat="43.53136" lon="5.57484">
        <ele>827</ele>
        <time>2022-02-15T10:07:12.000Z</time>
      </trkpt>
      <trkpt lat="43.53136" lon="5.57484">
        <ele>827</ele>
        <time>2022-02-15T10:07:13.000Z</time>
      </trkpt>
      <trkpt lat="43.53136" lon="5.57484">
        <ele>827</ele>
        <time>2022-02-15T10:07:14.000Z</time>
      </trkpt>
      <trkpt lat="43.53136" lon="5.57484">
        <ele>827</ele>
        <time>2022-02-15T10:07:15.000Z</time>
      </trkpt>
      <trkpt lat="43.53136" lon="5.57484">
        <ele>827</ele>
        <time>2022-02-15T10:07:16.000Z</time>
      </trkpt>
      <trkpt lat="43.53136" lon="5.57484">
        <ele>827</ele>
        <time>2022-02-15T10:07:17.000Z</time>
      </trkpt>
      <trkpt lat="43.53136" lon="5.57484">
        <ele>827</ele>
        <time>2022-02-15T10:07:18.000Z</time>
      </trkpt>
      <trkpt lat="43.53136" lon="5.57484">
        <ele>827</ele>
        <time>2022-02-15T10:07:19.000Z</time>
      </trkpt>
      <trkpt lat="43.53136" lon="5.57484">
        <ele>827</ele>
        <time>2022-02-15T10:07:20.000Z</time>
      </trkpt>
      <trkpt lat="43.53136" lon="5.57484">
        <ele>827</ele>
        <time>2022-02-15T10:07:21.000Z</time>
      </trkpt>
      <trkpt lat="43.53136" lon="5.57484">
        <ele>827</ele>
        <time>2022-02-15T10:07:22.000Z</time>
      </trkpt>
      <trkpt lat="43.53136" lon="5.57484">
        <ele>827</ele>
        <time>2022-02-15T10:07:23.000Z</time>
      </trkpt>
      <trkpt lat="43.53136" lon="5.57484">
        <ele>827</ele>
        <time>2022-02-15T10:07:24.000Z</time>
      </trkpt>
      <trkpt lat="43.53136" lon="5.57484">
        <ele>827</ele>
        <time>2022-02-15T10:07:25.000Z</time>
      </trkpt>
      <trkpt lat="43.53135" lon="5.57484">
        <ele>827</ele>
        <time>2022-02-15T10:07:26.000Z</time>
      </trkpt>
      <trkpt lat="43.53135" lon="5.57484">
        <ele>827</ele>
        <time>2022-02-15T10:07:27.000Z</time>
      </trkpt>
      <trkpt lat="43.53136" lon="5.57484">
        <ele>827</ele>
        <time>2022-02-15T10:07:28.000Z</time>
      </trkpt>
      <trkpt lat="43.53136" lon="5.57484">
        <ele>827</ele>
        <time>2022-02-15T10:07:29.000Z</time>
      </trkpt>
      <trkpt lat="43.53137" lon="5.57484">
        <ele>827</ele>
        <time>2022-02-15T10:07:30.000Z</time>
      </trkpt>
      <trkpt lat="43.53137" lon="5.57484">
        <ele>827</ele>
        <time>2022-02-15T10:07:31.000Z</time>
      </trkpt>
      <trkpt lat="43.53137" lon="5.57484">
        <ele>827</ele>
        <time>2022-02-15T10:07:32.000Z</time>
      </trkpt>
      <trkpt lat="43.53137" lon="5.57484">
        <ele>828</ele>
        <time>2022-02-15T10:07:33.000Z</time>
      </trkpt>
      <trkpt lat="43.53138" lon="5.57484">
        <ele>828</ele>
        <time>2022-02-15T10:07:34.000Z</time>
      </trkpt>
      <trkpt lat="43.53138" lon="5.57484">
        <ele>828</ele>
        <time>2022-02-15T10:07:35.000Z</time>
      </trkpt>
      <trkpt lat="43.53138" lon="5.57484">
        <ele>827</ele>
        <time>2022-02-15T10:07:36.000Z</time>
      </trkpt>
      <trkpt lat="43.53138" lon="5.57484">
        <ele>827</ele>
        <time>2022-02-15T10:07:37.000Z</time>
      </trkpt>
      <trkpt lat="43.53138" lon="5.57484">
        <ele>828</ele>
        <time>2022-02-15T10:07:38.000Z</time>
      </trkpt>
      <trkpt lat="43.53138" lon="5.57484">
        <ele>827</ele>
        <time>2022-02-15T10:07:39.000Z</time>
      </trkpt>
      <trkpt lat="43.53138" lon="5.57484">
        <ele>827</ele>
        <time>2022-02-15T10:07:40.000Z</time>
      </trkpt>
      <trkpt lat="43.53138" lon="5.57484">
        <ele>827</ele>
        <time>2022-02-15T10:07:41.000Z</time>
      </trkpt>
      <trkpt lat="43.53139" lon="5.57485">
        <ele>827</ele>
        <time>2022-02-15T10:07:42.000Z</time>
      </trkpt>
      <trkpt lat="43.53139" lon="5.57485">
        <ele>827</ele>
        <time>2022-02-15T10:07:43.000Z</time>
      </trkpt>
      <trkpt lat="43.53139" lon="5.57485">
        <ele>827</ele>
        <time>2022-02-15T10:07:44.000Z</time>
      </trkpt>
      <trkpt lat="43.53139" lon="5.57486">
        <ele>828</ele>
        <time>2022-02-15T10:07:45.000Z</time>
      </trkpt>
      <trkpt lat="43.53139" lon="5.57486">
        <ele>828</ele>
        <time>2022-02-15T10:07:46.000Z</time>
      </trkpt>
      <trkpt lat="43.53139" lon="5.57486">
        <ele>828</ele>
        <time>2022-02-15T10:07:47.000Z</time>
      </trkpt>
      <trkpt lat="43.53139" lon="5.57486">
        <ele>828</ele>
        <time>2022-02-15T10:07:48.000Z</time>
      </trkpt>
      <trkpt lat="43.53139" lon="5.57486">
        <ele>828</ele>
        <time>2022-02-15T10:07:49.000Z</time>
      </trkpt>
      <trkpt lat="43.5314" lon="5.57486">
        <ele>828</ele>
        <time>2022-02-15T10:07:50.000Z</time>
      </trkpt>
      <trkpt lat="43.53139" lon="5.57486">
        <ele>828</ele>
        <time>2022-02-15T10:07:51.000Z</time>
      </trkpt>
      <trkpt lat="43.53139" lon="5.57486">
        <ele>828</ele>
        <time>2022-02-15T10:07:52.000Z</time>
      </trkpt>
      <trkpt lat="43.53139" lon="5.57486">
        <ele>828</ele>
        <time>2022-02-15T10:07:53.000Z</time>
      </trkpt>
      <trkpt lat="43.53139" lon="5.57486">
        <ele>828</ele>
        <time>2022-02-15T10:07:54.000Z</time>
      </trkpt>
      <trkpt lat="43.53139" lon="5.57487">
        <ele>828</ele>
        <time>2022-02-15T10:07:55.000Z</time>
      </trkpt>
      <trkpt lat="43.53139" lon="5.57487">
        <ele>828</ele>
        <time>2022-02-15T10:07:56.000Z</time>
      </trkpt>
      <trkpt lat="43.53139" lon="5.57487">
        <ele>828</ele>
        <time>2022-02-15T10:07:57.000Z</time>
      </trkpt>
      <trkpt lat="43.53139" lon="5.57487">
        <ele>828</ele>
        <time>2022-02-15T10:07:58.000Z</time>
      </trkpt>
      <trkpt lat="43.53139" lon="5.57487">
        <ele>828</ele>
        <time>2022-02-15T10:07:59.000Z</time>
      </trkpt>
      <trkpt lat="43.53139" lon="5.57487">
        <ele>828</ele>
        <time>2022-02-15T10:08:00.000Z</time>
      </trkpt>
      <trkpt lat="43.53139" lon="5.57487">
        <ele>828</ele>
        <time>2022-02-15T10:08:01.000Z</time>
      </trkpt>
      <trkpt lat="43.53139" lon="5.57487">
        <ele>829</ele>
        <time>2022-02-15T10:08:02.000Z</time>
      </trkpt>
      <trkpt lat="43.53139" lon="5.57487">
        <ele>829</ele>
        <time>2022-02-15T10:08:03.000Z</time>
      </trkpt>
      <trkpt lat="43.53139" lon="5.57487">
        <ele>829</ele>
        <time>2022-02-15T10:08:04.000Z</time>
      </trkpt>
      <trkpt lat="43.53139" lon="5.57487">
        <ele>829</ele>
        <time>2022-02-15T10:08:05.000Z</time>
      </trkpt>
      <trkpt lat="43.53139" lon="5.57486">
        <ele>829</ele>
        <time>2022-02-15T10:08:06.000Z</time>
      </trkpt>
      <trkpt lat="43.53139" lon="5.57486">
        <ele>829</ele>
        <time>2022-02-15T10:08:07.000Z</time>
      </trkpt>
      <trkpt lat="43.53138" lon="5.57486">
        <ele>829</ele>
        <time>2022-02-15T10:08:08.000Z</time>
      </trkpt>
      <trkpt lat="43.53139" lon="5.57486">
        <ele>829</ele>
        <time>2022-02-15T10:08:09.000Z</time>
      </trkpt>
      <trkpt lat="43.53139" lon="5.57486">
        <ele>829</ele>
        <time>2022-02-15T10:08:10.000Z</time>
      </trkpt>
      <trkpt lat="43.53139" lon="5.57486">
        <ele>829</ele>
        <time>2022-02-15T10:08:11.000Z</time>
      </trkpt>
      <trkpt lat="43.53139" lon="5.57486">
        <ele>829</ele>
        <time>2022-02-15T10:08:12.000Z</time>
      </trkpt>
      <trkpt lat="43.53139" lon="5.57486">
        <ele>829</ele>
        <time>2022-02-15T10:08:13.000Z</time>
      </trkpt>
      <trkpt lat="43.53138" lon="5.57486">
        <ele>830</ele>
        <time>2022-02-15T10:08:14.000Z</time>
      </trkpt>
      <trkpt lat="43.53139" lon="5.57486">
        <ele>830</ele>
        <time>2022-02-15T10:08:15.000Z</time>
      </trkpt>
      <trkpt lat="43.53139" lon="5.57486">
        <ele>830</ele>
        <time>2022-02-15T10:08:16.000Z</time>
      </trkpt>
      <trkpt lat="43.53139" lon="5.57485">
        <ele>830</ele>
        <time>2022-02-15T10:08:17.000Z</time>
      </trkpt>
      <trkpt lat="43.53139" lon="5.57485">
        <ele>830</ele>
        <time>2022-02-15T10:08:18.000Z</time>
      </trkpt>
      <trkpt lat="43.53139" lon="5.57485">
        <ele>830</ele>
        <time>2022-02-15T10:08:19.000Z</time>
      </trkpt>
      <trkpt lat="43.53139" lon="5.57485">
        <ele>830</ele>
        <time>2022-02-15T10:08:20.000Z</time>
      </trkpt>
      <trkpt lat="43.53139" lon="5.57485">
        <ele>830</ele>
        <time>2022-02-15T10:08:21.000Z</time>
      </trkpt>
      <trkpt lat="43.53139" lon="5.57485">
        <ele>830</ele>
        <time>2022-02-15T10:08:22.000Z</time>
      </trkpt>
      <trkpt lat="43.53138" lon="5.57485">
        <ele>830</ele>
        <time>2022-02-15T10:08:23.000Z</time>
      </trkpt>
      <trkpt lat="43.53138" lon="5.57485">
        <ele>830</ele>
        <time>2022-02-15T10:08:24.000Z</time>
      </trkpt>
      <trkpt lat="43.53138" lon="5.57485">
        <ele>830</ele>
        <time>2022-02-15T10:08:25.000Z</time>
      </trkpt>
      <trkpt lat="43.53139" lon="5.57485">
        <ele>830</ele>
        <time>2022-02-15T10:08:26.000Z</time>
      </trkpt>
      <trkpt lat="43.53139" lon="5.57485">
        <ele>831</ele>
        <time>2022-02-15T10:08:27.000Z</time>
      </trkpt>
      <trkpt lat="43.53139" lon="5.57485">
        <ele>831</ele>
        <time>2022-02-15T10:08:28.000Z</time>
      </trkpt>
      <trkpt lat="43.53139" lon="5.57485">
        <ele>831</ele>
        <time>2022-02-15T10:08:29.000Z</time>
      </trkpt>
      <trkpt lat="43.53139" lon="5.57485">
        <ele>831</ele>
        <time>2022-02-15T10:08:30.000Z</time>
      </trkpt>
      <trkpt lat="43.53138" lon="5.57485">
        <ele>831</ele>
        <time>2022-02-15T10:08:31.000Z</time>
      </trkpt>
      <trkpt lat="43.53138" lon="5.57485">
        <ele>831</ele>
        <time>2022-02-15T10:08:32.000Z</time>
      </trkpt>
      <trkpt lat="43.53138" lon="5.57485">
        <ele>831</ele>
        <time>2022-02-15T10:08:33.000Z</time>
      </trkpt>
      <trkpt lat="43.53138" lon="5.57485">
        <ele>831</ele>
        <time>2022-02-15T10:08:34.000Z</time>
      </trkpt>
      <trkpt lat="43.53138" lon="5.57485">
        <ele>831</ele>
        <time>2022-02-15T10:08:35.000Z</time>
      </trkpt>
      <trkpt lat="43.53138" lon="5.57485">
        <ele>831</ele>
        <time>2022-02-15T10:08:36.000Z</time>
      </trkpt>
      <trkpt lat="43.53138" lon="5.57485">
        <ele>831</ele>
        <time>2022-02-15T10:08:37.000Z</time>
      </trkpt>
      <trkpt lat="43.53138" lon="5.57485">
        <ele>831</ele>
        <time>2022-02-15T10:08:38.000Z</time>
      </trkpt>
      <trkpt lat="43.53138" lon="5.57485">
        <ele>831</ele>
        <time>2022-02-15T10:08:39.000Z</time>
      </trkpt>
      <trkpt lat="43.53138" lon="5.57485">
        <ele>831</ele>
        <time>2022-02-15T10:08:40.000Z</time>
      </trkpt>
      <trkpt lat="43.53138" lon="5.57485">
        <ele>831</ele>
        <time>2022-02-15T10:08:41.000Z</time>
      </trkpt>
      <trkpt lat="43.53138" lon="5.57485">
        <ele>831</ele>
        <time>2022-02-15T10:08:42.000Z</time>
      </trkpt>
      <trkpt lat="43.53138" lon="5.57485">
        <ele>831</ele>
        <time>2022-02-15T10:08:43.000Z</time>
      </trkpt>
      <trkpt lat="43.53138" lon="5.57485">
        <ele>831</ele>
        <time>2022-02-15T10:08:44.000Z</time>
      </trkpt>
      <trkpt lat="43.53138" lon="5.57485">
        <ele>831</ele>
        <time>2022-02-15T10:08:45.000Z</time>
      </trkpt>
      <trkpt lat="43.53138" lon="5.57485">
        <ele>831</ele>
        <time>2022-02-15T10:08:46.000Z</time>
      </trkpt>
      <trkpt lat="43.53138" lon="5.57485">
        <ele>831</ele>
        <time>2022-02-15T10:08:47.000Z</time>
      </trkpt>
      <trkpt lat="43.53138" lon="5.57485">
        <ele>831</ele>
        <time>2022-02-15T10:08:48.000Z</time>
      </trkpt>
      <trkpt lat="43.53138" lon="5.57485">
        <ele>831</ele>
        <time>2022-02-15T10:08:49.000Z</time>
      </trkpt>
      <trkpt lat="43.53138" lon="5.57485">
        <ele>831</ele>
        <time>2022-02-15T10:08:50.000Z</time>
      </trkpt>
      <trkpt lat="43.53138" lon="5.57485">
        <ele>831</ele>
        <time>2022-02-15T10:08:51.000Z</time>
      </trkpt>
      <trkpt lat="43.53138" lon="5.57485">
        <ele>831</ele>
        <time>2022-02-15T10:08:52.000Z</time>
      </trkpt>
      <trkpt lat="43.53138" lon="5.57485">
        <ele>831</ele>
        <time>2022-02-15T10:08:53.000Z</time>
      </trkpt>
      <trkpt lat="43.53138" lon="5.57485">
        <ele>831</ele>
        <time>2022-02-15T10:08:54.000Z</time>
      </trkpt>
      <trkpt lat="43.53138" lon="5.57485">
        <ele>831</ele>
        <time>2022-02-15T10:08:55.000Z</time>
      </trkpt>
      <trkpt lat="43.53138" lon="5.57485">
        <ele>831</ele>
        <time>2022-02-15T10:08:56.000Z</time>
      </trkpt>
      <trkpt lat="43.53138" lon="5.57485">
        <ele>831</ele>
        <time>2022-02-15T10:08:57.000Z</time>
      </trkpt>
      <trkpt lat="43.53138" lon="5.57485">
        <ele>831</ele>
        <time>2022-02-15T10:08:58.000Z</time>
      </trkpt>
      <trkpt lat="43.53138" lon="5.57485">
        <ele>831</ele>
        <time>2022-02-15T10:08:59.000Z</time>
      </trkpt>
      <trkpt lat="43.53138" lon="5.57485">
        <ele>831</ele>
        <time>2022-02-15T10:09:00.000Z</time>
      </trkpt>
      <trkpt lat="43.53138" lon="5.57485">
        <ele>831</ele>
        <time>2022-02-15T10:09:01.000Z</time>
      </trkpt>
      <trkpt lat="43.53138" lon="5.57485">
        <ele>831</ele>
        <time>2022-02-15T10:09:02.000Z</time>
      </trkpt>
      <trkpt lat="43.53138" lon="5.57485">
        <ele>831</ele>
        <time>2022-02-15T10:09:03.000Z</time>
      </trkpt>
      <trkpt lat="43.53138" lon="5.57485">
        <ele>831</ele>
        <time>2022-02-15T10:09:04.000Z</time>
      </trkpt>
      <trkpt lat="43.53138" lon="5.57485">
        <ele>832</ele>
        <time>2022-02-15T10:09:05.000Z</time>
      </trkpt>
      <trkpt lat="43.53138" lon="5.57485">
        <ele>832</ele>
        <time>2022-02-15T10:09:06.000Z</time>
      </trkpt>
      <trkpt lat="43.53139" lon="5.57485">
        <ele>832</ele>
        <time>2022-02-15T10:09:07.000Z</time>
      </trkpt>
      <trkpt lat="43.53139" lon="5.57486">
        <ele>832</ele>
        <time>2022-02-15T10:09:08.000Z</time>
      </trkpt>
      <trkpt lat="43.53139" lon="5.57486">
        <ele>832</ele>
        <time>2022-02-15T10:09:09.000Z</time>
      </trkpt>
      <trkpt lat="43.53139" lon="5.57486">
        <ele>832</ele>
        <time>2022-02-15T10:09:10.000Z</time>
      </trkpt>
      <trkpt lat="43.53139" lon="5.57486">
        <ele>832</ele>
        <time>2022-02-15T10:09:11.000Z</time>
      </trkpt>
      <trkpt lat="43.53139" lon="5.57486">
        <ele>832</ele>
        <time>2022-02-15T10:09:12.000Z</time>
      </trkpt>
      <trkpt lat="43.53139" lon="5.57486">
        <ele>832</ele>
        <time>2022-02-15T10:09:13.000Z</time>
      </trkpt>
      <trkpt lat="43.53139" lon="5.57486">
        <ele>832</ele>
        <time>2022-02-15T10:09:14.000Z</time>
      </trkpt>
      <trkpt lat="43.53139" lon="5.57486">
        <ele>832</ele>
        <time>2022-02-15T10:09:15.000Z</time>
      </trkpt>
      <trkpt lat="43.53139" lon="5.57486">
        <ele>832</ele>
        <time>2022-02-15T10:09:16.000Z</time>
      </trkpt>
      <trkpt lat="43.53139" lon="5.57486">
        <ele>832</ele>
        <time>2022-02-15T10:09:17.000Z</time>
      </trkpt>
      <trkpt lat="43.53139" lon="5.57486">
        <ele>832</ele>
        <time>2022-02-15T10:09:18.000Z</time>
      </trkpt>
      <trkpt lat="43.53139" lon="5.57486">
        <ele>832</ele>
        <time>2022-02-15T10:09:19.000Z</time>
      </trkpt>
      <trkpt lat="43.53139" lon="5.57486">
        <ele>832</ele>
        <time>2022-02-15T10:09:20.000Z</time>
      </trkpt>
      <trkpt lat="43.53139" lon="5.57486">
        <ele>832</ele>
        <time>2022-02-15T10:09:21.000Z</time>
      </trkpt>
      <trkpt lat="43.53139" lon="5.57486">
        <ele>832</ele>
        <time>2022-02-15T10:09:22.000Z</time>
      </trkpt>
      <trkpt lat="43.53139" lon="5.57486">
        <ele>832</ele>
        <time>2022-02-15T10:09:23.000Z</time>
      </trkpt>
      <trkpt lat="43.53139" lon="5.57486">
        <ele>832</ele>
        <time>2022-02-15T10:09:24.000Z</time>
      </trkpt>
      <trkpt lat="43.53139" lon="5.57486">
        <ele>832</ele>
        <time>2022-02-15T10:09:25.000Z</time>
      </trkpt>
      <trkpt lat="43.53139" lon="5.57486">
        <ele>832</ele>
        <time>2022-02-15T10:09:26.000Z</time>
      </trkpt>
      <trkpt lat="43.53139" lon="5.57486">
        <ele>832</ele>
        <time>2022-02-15T10:09:27.000Z</time>
      </trkpt>
      <trkpt lat="43.53139" lon="5.57486">
        <ele>832</ele>
        <time>2022-02-15T10:09:28.000Z</time>
      </trkpt>
      <trkpt lat="43.53139" lon="5.57486">
        <ele>832</ele>
        <time>2022-02-15T10:09:29.000Z</time>
      </trkpt>
      <trkpt lat="43.53139" lon="5.57486">
        <ele>832</ele>
        <time>2022-02-15T10:09:30.000Z</time>
      </trkpt>
      <trkpt lat="43.53139" lon="5.57486">
        <ele>832</ele>
        <time>2022-02-15T10:09:31.000Z</time>
      </trkpt>
      <trkpt lat="43.53139" lon="5.57486">
        <ele>832</ele>
        <time>2022-02-15T10:09:32.000Z</time>
      </trkpt>
      <trkpt lat="43.53139" lon="5.57486">
        <ele>832</ele>
        <time>2022-02-15T10:09:33.000Z</time>
      </trkpt>
      <trkpt lat="43.53139" lon="5.57486">
        <ele>832</ele>
        <time>2022-02-15T10:09:34.000Z</time>
      </trkpt>
      <trkpt lat="43.53139" lon="5.57487">
        <ele>832</ele>
        <time>2022-02-15T10:09:35.000Z</time>
      </trkpt>
      <trkpt lat="43.53139" lon="5.57487">
        <ele>832</ele>
        <time>2022-02-15T10:09:36.000Z</time>
      </trkpt>
      <trkpt lat="43.53139" lon="5.57487">
        <ele>832</ele>
        <time>2022-02-15T10:09:37.000Z</time>
      </trkpt>
      <trkpt lat="43.53139" lon="5.57487">
        <ele>832</ele>
        <time>2022-02-15T10:09:38.000Z</time>
      </trkpt>
      <trkpt lat="43.53139" lon="5.57487">
        <ele>833</ele>
        <time>2022-02-15T10:09:39.000Z</time>
      </trkpt>
      <trkpt lat="43.53139" lon="5.57487">
        <ele>833</ele>
        <time>2022-02-15T10:09:40.000Z</time>
      </trkpt>
      <trkpt lat="43.53139" lon="5.57487">
        <ele>833</ele>
        <time>2022-02-15T10:09:41.000Z</time>
      </trkpt>
      <trkpt lat="43.53139" lon="5.57487">
        <ele>833</ele>
        <time>2022-02-15T10:09:42.000Z</time>
      </trkpt>
      <trkpt lat="43.53139" lon="5.57487">
        <ele>833</ele>
        <time>2022-02-15T10:09:43.000Z</time>
      </trkpt>
      <trkpt lat="43.53139" lon="5.57487">
        <ele>833</ele>
        <time>2022-02-15T10:09:44.000Z</time>
      </trkpt>
      <trkpt lat="43.53139" lon="5.57487">
        <ele>833</ele>
        <time>2022-02-15T10:09:45.000Z</time>
      </trkpt>
      <trkpt lat="43.5314" lon="5.57487">
        <ele>833</ele>
        <time>2022-02-15T10:09:46.000Z</time>
      </trkpt>
      <trkpt lat="43.5314" lon="5.57487">
        <ele>833</ele>
        <time>2022-02-15T10:09:47.000Z</time>
      </trkpt>
      <trkpt lat="43.5314" lon="5.57487">
        <ele>833</ele>
        <time>2022-02-15T10:09:48.000Z</time>
      </trkpt>
      <trkpt lat="43.5314" lon="5.57487">
        <ele>833</ele>
        <time>2022-02-15T10:09:49.000Z</time>
      </trkpt>
      <trkpt lat="43.5314" lon="5.57487">
        <ele>833</ele>
        <time>2022-02-15T10:09:50.000Z</time>
      </trkpt>
      <trkpt lat="43.5314" lon="5.57487">
        <ele>833</ele>
        <time>2022-02-15T10:09:51.000Z</time>
      </trkpt>
      <trkpt lat="43.5314" lon="5.57487">
        <ele>833</ele>
        <time>2022-02-15T10:09:52.000Z</time>
      </trkpt>
      <trkpt lat="43.5314" lon="5.57487">
        <ele>833</ele>
        <time>2022-02-15T10:09:53.000Z</time>
      </trkpt>
      <trkpt lat="43.5314" lon="5.57487">
        <ele>833</ele>
        <time>2022-02-15T10:09:54.000Z</time>
      </trkpt>
      <trkpt lat="43.5314" lon="5.57487">
        <ele>833</ele>
        <time>2022-02-15T10:09:55.000Z</time>
      </trkpt>
      <trkpt lat="43.5314" lon="5.57487">
        <ele>833</ele>
        <time>2022-02-15T10:09:56.000Z</time>
      </trkpt>
      <trkpt lat="43.5314" lon="5.57488">
        <ele>833</ele>
        <time>2022-02-15T10:09:57.000Z</time>
      </trkpt>
      <trkpt lat="43.5314" lon="5.57488">
        <ele>833</ele>
        <time>2022-02-15T10:09:58.000Z</time>
      </trkpt>
      <trkpt lat="43.5314" lon="5.57488">
        <ele>833</ele>
        <time>2022-02-15T10:09:59.000Z</time>
      </trkpt>
      <trkpt lat="43.5314" lon="5.57488">
        <ele>833</ele>
        <time>2022-02-15T10:10:00.000Z</time>
      </trkpt>
      <trkpt lat="43.5314" lon="5.57488">
        <ele>833</ele>
        <time>2022-02-15T10:10:01.000Z</time>
      </trkpt>
      <trkpt lat="43.5314" lon="5.57488">
        <ele>833</ele>
        <time>2022-02-15T10:10:02.000Z</time>
      </trkpt>
      <trkpt lat="43.5314" lon="5.57488">
        <ele>833</ele>
        <time>2022-02-15T10:10:03.000Z</time>
      </trkpt>
      <trkpt lat="43.5314" lon="5.57489">
        <ele>833</ele>
        <time>2022-02-15T10:10:04.000Z</time>
      </trkpt>
      <trkpt lat="43.5314" lon="5.57489">
        <ele>833</ele>
        <time>2022-02-15T10:10:05.000Z</time>
      </trkpt>
      <trkpt lat="43.5314" lon="5.57489">
        <ele>833</ele>
        <time>2022-02-15T10:10:06.000Z</time>
      </trkpt>
      <trkpt lat="43.5314" lon="5.57489">
        <ele>833</ele>
        <time>2022-02-15T10:10:07.000Z</time>
      </trkpt>
      <trkpt lat="43.5314" lon="5.57489">
        <ele>833</ele>
        <time>2022-02-15T10:10:08.000Z</time>
      </trkpt>
      <trkpt lat="43.5314" lon="5.57489">
        <ele>833</ele>
        <time>2022-02-15T10:10:09.000Z</time>
      </trkpt>
      <trkpt lat="43.5314" lon="5.57489">
        <ele>833</ele>
        <time>2022-02-15T10:10:10.000Z</time>
      </trkpt>
      <trkpt lat="43.5314" lon="5.57489">
        <ele>833</ele>
        <time>2022-02-15T10:10:11.000Z</time>
      </trkpt>
      <trkpt lat="43.5314" lon="5.57489">
        <ele>833</ele>
        <time>2022-02-15T10:10:12.000Z</time>
      </trkpt>
      <trkpt lat="43.5314" lon="5.57489">
        <ele>833</ele>
        <time>2022-02-15T10:10:13.000Z</time>
      </trkpt>
      <trkpt lat="43.5314" lon="5.57489">
        <ele>833</ele>
        <time>2022-02-15T10:10:14.000Z</time>
      </trkpt>
      <trkpt lat="43.5314" lon="5.57489">
        <ele>833</ele>
        <time>2022-02-15T10:10:15.000Z</time>
      </trkpt>
      <trkpt lat="43.5314" lon="5.57489">
        <ele>833</ele>
        <time>2022-02-15T10:10:16.000Z</time>
      </trkpt>
      <trkpt lat="43.5314" lon="5.57489">
        <ele>833</ele>
        <time>2022-02-15T10:10:17.000Z</time>
      </trkpt>
      <trkpt lat="43.5314" lon="5.57489">
        <ele>833</ele>
        <time>2022-02-15T10:10:18.000Z</time>
      </trkpt>
      <trkpt lat="43.5314" lon="5.57489">
        <ele>833</ele>
        <time>2022-02-15T10:10:19.000Z</time>
      </trkpt>
      <trkpt lat="43.53141" lon="5.5749">
        <ele>834</ele>
        <time>2022-02-15T10:10:20.000Z</time>
      </trkpt>
      <trkpt lat="43.53141" lon="5.5749">
        <ele>834</ele>
        <time>2022-02-15T10:10:21.000Z</time>
      </trkpt>
      <trkpt lat="43.53141" lon="5.5749">
        <ele>834</ele>
        <time>2022-02-15T10:10:22.000Z</time>
      </trkpt>
      <trkpt lat="43.53141" lon="5.5749">
        <ele>834</ele>
        <time>2022-02-15T10:10:23.000Z</time>
      </trkpt>
      <trkpt lat="43.53141" lon="5.5749">
        <ele>834</ele>
        <time>2022-02-15T10:10:24.000Z</time>
      </trkpt>
      <trkpt lat="43.53141" lon="5.5749">
        <ele>834</ele>
        <time>2022-02-15T10:10:25.000Z</time>
      </trkpt>
      <trkpt lat="43.53141" lon="5.5749">
        <ele>834</ele>
        <time>2022-02-15T10:10:26.000Z</time>
      </trkpt>
      <trkpt lat="43.53141" lon="5.5749">
        <ele>834</ele>
        <time>2022-02-15T10:10:27.000Z</time>
      </trkpt>
      <trkpt lat="43.53141" lon="5.5749">
        <ele>834</ele>
        <time>2022-02-15T10:10:28.000Z</time>
      </trkpt>
      <trkpt lat="43.53141" lon="5.5749">
        <ele>834</ele>
        <time>2022-02-15T10:10:29.000Z</time>
      </trkpt>
      <trkpt lat="43.53141" lon="5.5749">
        <ele>834</ele>
        <time>2022-02-15T10:10:30.000Z</time>
      </trkpt>
      <trkpt lat="43.53141" lon="5.5749">
        <ele>834</ele>
        <time>2022-02-15T10:10:31.000Z</time>
      </trkpt>
      <trkpt lat="43.53141" lon="5.5749">
        <ele>834</ele>
        <time>2022-02-15T10:10:32.000Z</time>
      </trkpt>
      <trkpt lat="43.53141" lon="5.5749">
        <ele>834</ele>
        <time>2022-02-15T10:10:33.000Z</time>
      </trkpt>
      <trkpt lat="43.53141" lon="5.5749">
        <ele>834</ele>
        <time>2022-02-15T10:10:34.000Z</time>
      </trkpt>
      <trkpt lat="43.53141" lon="5.5749">
        <ele>834</ele>
        <time>2022-02-15T10:10:35.000Z</time>
      </trkpt>
      <trkpt lat="43.53141" lon="5.5749">
        <ele>834</ele>
        <time>2022-02-15T10:10:36.000Z</time>
      </trkpt>
      <trkpt lat="43.53141" lon="5.5749">
        <ele>834</ele>
        <time>2022-02-15T10:10:37.000Z</time>
      </trkpt>
      <trkpt lat="43.53141" lon="5.5749">
        <ele>834</ele>
        <time>2022-02-15T10:10:38.000Z</time>
      </trkpt>
      <trkpt lat="43.53141" lon="5.5749">
        <ele>834</ele>
        <time>2022-02-15T10:10:39.000Z</time>
      </trkpt>
      <trkpt lat="43.53141" lon="5.5749">
        <ele>834</ele>
        <time>2022-02-15T10:10:40.000Z</time>
      </trkpt>
      <trkpt lat="43.53141" lon="5.5749">
        <ele>834</ele>
        <time>2022-02-15T10:10:41.000Z</time>
      </trkpt>
      <trkpt lat="43.53141" lon="5.5749">
        <ele>834</ele>
        <time>2022-02-15T10:10:42.000Z</time>
      </trkpt>
      <trkpt lat="43.5314" lon="5.5749">
        <ele>834</ele>
        <time>2022-02-15T10:10:43.000Z</time>
      </trkpt>
      <trkpt lat="43.5314" lon="5.5749">
        <ele>834</ele>
        <time>2022-02-15T10:10:44.000Z</time>
      </trkpt>
      <trkpt lat="43.53141" lon="5.5749">
        <ele>834</ele>
        <time>2022-02-15T10:10:45.000Z</time>
      </trkpt>
      <trkpt lat="43.53141" lon="5.5749">
        <ele>834</ele>
        <time>2022-02-15T10:10:46.000Z</time>
      </trkpt>
      <trkpt lat="43.53141" lon="5.5749">
        <ele>834</ele>
        <time>2022-02-15T10:10:47.000Z</time>
      </trkpt>
      <trkpt lat="43.53141" lon="5.5749">
        <ele>834</ele>
        <time>2022-02-15T10:10:48.000Z</time>
      </trkpt>
      <trkpt lat="43.53141" lon="5.57491">
        <ele>835</ele>
        <time>2022-02-15T10:10:49.000Z</time>
      </trkpt>
      <trkpt lat="43.53141" lon="5.57491">
        <ele>835</ele>
        <time>2022-02-15T10:10:50.000Z</time>
      </trkpt>
      <trkpt lat="43.53141" lon="5.57491">
        <ele>835</ele>
        <time>2022-02-15T10:10:51.000Z</time>
      </trkpt>
      <trkpt lat="43.53141" lon="5.57491">
        <ele>835</ele>
        <time>2022-02-15T10:10:52.000Z</time>
      </trkpt>
      <trkpt lat="43.53141" lon="5.57491">
        <ele>835</ele>
        <time>2022-02-15T10:10:53.000Z</time>
      </trkpt>
      <trkpt lat="43.53141" lon="5.57491">
        <ele>835</ele>
        <time>2022-02-15T10:10:54.000Z</time>
      </trkpt>
      <trkpt lat="43.53141" lon="5.57491">
        <ele>835</ele>
        <time>2022-02-15T10:10:55.000Z</time>
      </trkpt>
      <trkpt lat="43.53141" lon="5.57491">
        <ele>835</ele>
        <time>2022-02-15T10:10:56.000Z</time>
      </trkpt>
      <trkpt lat="43.53142" lon="5.57491">
        <ele>835</ele>
        <time>2022-02-15T10:10:57.000Z</time>
      </trkpt>
      <trkpt lat="43.53142" lon="5.57491">
        <ele>835</ele>
        <time>2022-02-15T10:10:58.000Z</time>
      </trkpt>
      <trkpt lat="43.53142" lon="5.57491">
        <ele>835</ele>
        <time>2022-02-15T10:10:59.000Z</time>
      </trkpt>
      <trkpt lat="43.53142" lon="5.57491">
        <ele>835</ele>
        <time>2022-02-15T10:11:00.000Z</time>
      </trkpt>
      <trkpt lat="43.53142" lon="5.57491">
        <ele>835</ele>
        <time>2022-02-15T10:11:01.000Z</time>
      </trkpt>
      <trkpt lat="43.53142" lon="5.57491">
        <ele>835</ele>
        <time>2022-02-15T10:11:02.000Z</time>
      </trkpt>
      <trkpt lat="43.53142" lon="5.57491">
        <ele>835</ele>
        <time>2022-02-15T10:11:03.000Z</time>
      </trkpt>
      <trkpt lat="43.53142" lon="5.57491">
        <ele>835</ele>
        <time>2022-02-15T10:11:04.000Z</time>
      </trkpt>
      <trkpt lat="43.53142" lon="5.57491">
        <ele>835</ele>
        <time>2022-02-15T10:11:05.000Z</time>
      </trkpt>
      <trkpt lat="43.53142" lon="5.57491">
        <ele>835</ele>
        <time>2022-02-15T10:11:06.000Z</time>
      </trkpt>
      <trkpt lat="43.53142" lon="5.57491">
        <ele>835</ele>
        <time>2022-02-15T10:11:07.000Z</time>
      </trkpt>
      <trkpt lat="43.53142" lon="5.57491">
        <ele>835</ele>
        <time>2022-02-15T10:11:08.000Z</time>
      </trkpt>
      <trkpt lat="43.53141" lon="5.57492">
        <ele>835</ele>
        <time>2022-02-15T10:11:09.000Z</time>
      </trkpt>
      <trkpt lat="43.53141" lon="5.57492">
        <ele>835</ele>
        <time>2022-02-15T10:11:10.000Z</time>
      </trkpt>
      <trkpt lat="43.53141" lon="5.57492">
        <ele>835</ele>
        <time>2022-02-15T10:11:11.000Z</time>
      </trkpt>
      <trkpt lat="43.53141" lon="5.57492">
        <ele>835</ele>
        <time>2022-02-15T10:11:12.000Z</time>
      </trkpt>
      <trkpt lat="43.53141" lon="5.57492">
        <ele>835</ele>
        <time>2022-02-15T10:11:13.000Z</time>
      </trkpt>
      <trkpt lat="43.53142" lon="5.57493">
        <ele>835</ele>
        <time>2022-02-15T10:11:14.000Z</time>
      </trkpt>
      <trkpt lat="43.53142" lon="5.57493">
        <ele>836</ele>
        <time>2022-02-15T10:11:15.000Z</time>
      </trkpt>
      <trkpt lat="43.53142" lon="5.57493">
        <ele>836</ele>
        <time>2022-02-15T10:11:16.000Z</time>
      </trkpt>
      <trkpt lat="43.53142" lon="5.57493">
        <ele>836</ele>
        <time>2022-02-15T10:11:17.000Z</time>
      </trkpt>
      <trkpt lat="43.53143" lon="5.57494">
        <ele>836</ele>
        <time>2022-02-15T10:11:18.000Z</time>
      </trkpt>
      <trkpt lat="43.53143" lon="5.57494">
        <ele>836</ele>
        <time>2022-02-15T10:11:19.000Z</time>
      </trkpt>
      <trkpt lat="43.53143" lon="5.57494">
        <ele>836</ele>
        <time>2022-02-15T10:11:20.000Z</time>
      </trkpt>
      <trkpt lat="43.53143" lon="5.57494">
        <ele>836</ele>
        <time>2022-02-15T10:11:21.000Z</time>
      </trkpt>
      <trkpt lat="43.53143" lon="5.57494">
        <ele>836</ele>
        <time>2022-02-15T10:11:22.000Z</time>
      </trkpt>
      <trkpt lat="43.53143" lon="5.57494">
        <ele>836</ele>
        <time>2022-02-15T10:11:23.000Z</time>
      </trkpt>
      <trkpt lat="43.53143" lon="5.57494">
        <ele>836</ele>
        <time>2022-02-15T10:11:24.000Z</time>
      </trkpt>
      <trkpt lat="43.53143" lon="5.57494">
        <ele>836</ele>
        <time>2022-02-15T10:11:25.000Z</time>
      </trkpt>
      <trkpt lat="43.53143" lon="5.57494">
        <ele>836</ele>
        <time>2022-02-15T10:11:26.000Z</time>
      </trkpt>
      <trkpt lat="43.53143" lon="5.57494">
        <ele>836</ele>
        <time>2022-02-15T10:11:27.000Z</time>
      </trkpt>
      <trkpt lat="43.53143" lon="5.57494">
        <ele>836</ele>
        <time>2022-02-15T10:11:28.000Z</time>
      </trkpt>
      <trkpt lat="43.53143" lon="5.57494">
        <ele>836</ele>
        <time>2022-02-15T10:11:29.000Z</time>
      </trkpt>
      <trkpt lat="43.53143" lon="5.57494">
        <ele>836</ele>
        <time>2022-02-15T10:11:30.000Z</time>
      </trkpt>
      <trkpt lat="43.53143" lon="5.57494">
        <ele>836</ele>
        <time>2022-02-15T10:11:31.000Z</time>
      </trkpt>
      <trkpt lat="43.53143" lon="5.57493">
        <ele>836</ele>
        <time>2022-02-15T10:11:32.000Z</time>
      </trkpt>
      <trkpt lat="43.53143" lon="5.57493">
        <ele>836</ele>
        <time>2022-02-15T10:11:33.000Z</time>
      </trkpt>
      <trkpt lat="43.53143" lon="5.57493">
        <ele>836</ele>
        <time>2022-02-15T10:11:34.000Z</time>
      </trkpt>
      <trkpt lat="43.53143" lon="5.57494">
        <ele>836</ele>
        <time>2022-02-15T10:11:35.000Z</time>
      </trkpt>
      <trkpt lat="43.53143" lon="5.57494">
        <ele>836</ele>
        <time>2022-02-15T10:11:36.000Z</time>
      </trkpt>
      <trkpt lat="43.53143" lon="5.57494">
        <ele>836</ele>
        <time>2022-02-15T10:11:37.000Z</time>
      </trkpt>
      <trkpt lat="43.53142" lon="5.57493">
        <ele>836</ele>
        <time>2022-02-15T10:11:38.000Z</time>
      </trkpt>
      <trkpt lat="43.53142" lon="5.57493">
        <ele>837</ele>
        <time>2022-02-15T10:11:39.000Z</time>
      </trkpt>
      <trkpt lat="43.53142" lon="5.57493">
        <ele>837</ele>
        <time>2022-02-15T10:11:40.000Z</time>
      </trkpt>
      <trkpt lat="43.53142" lon="5.57493">
        <ele>837</ele>
        <time>2022-02-15T10:11:41.000Z</time>
      </trkpt>
      <trkpt lat="43.53142" lon="5.57493">
        <ele>837</ele>
        <time>2022-02-15T10:11:42.000Z</time>
      </trkpt>
      <trkpt lat="43.53142" lon="5.57493">
        <ele>837</ele>
        <time>2022-02-15T10:11:43.000Z</time>
      </trkpt>
      <trkpt lat="43.53142" lon="5.57493">
        <ele>837</ele>
        <time>2022-02-15T10:11:44.000Z</time>
      </trkpt>
      <trkpt lat="43.53142" lon="5.57493">
        <ele>837</ele>
        <time>2022-02-15T10:11:45.000Z</time>
      </trkpt>
      <trkpt lat="43.53142" lon="5.57493">
        <ele>837</ele>
        <time>2022-02-15T10:11:46.000Z</time>
      </trkpt>
      <trkpt lat="43.53142" lon="5.57493">
        <ele>837</ele>
        <time>2022-02-15T10:11:47.000Z</time>
      </trkpt>
      <trkpt lat="43.53142" lon="5.57493">
        <ele>837</ele>
        <time>2022-02-15T10:11:48.000Z</time>
      </trkpt>
      <trkpt lat="43.53142" lon="5.57493">
        <ele>837</ele>
        <time>2022-02-15T10:11:49.000Z</time>
      </trkpt>
      <trkpt lat="43.53142" lon="5.57493">
        <ele>837</ele>
        <time>2022-02-15T10:11:50.000Z</time>
      </trkpt>
      <trkpt lat="43.53142" lon="5.57493">
        <ele>837</ele>
        <time>2022-02-15T10:11:51.000Z</time>
      </trkpt>
      <trkpt lat="43.53142" lon="5.57493">
        <ele>837</ele>
        <time>2022-02-15T10:11:52.000Z</time>
      </trkpt>
      <trkpt lat="43.53142" lon="5.57493">
        <ele>837</ele>
        <time>2022-02-15T10:11:53.000Z</time>
      </trkpt>
      <trkpt lat="43.53142" lon="5.57493">
        <ele>837</ele>
        <time>2022-02-15T10:11:54.000Z</time>
      </trkpt>
      <trkpt lat="43.53142" lon="5.57493">
        <ele>837</ele>
        <time>2022-02-15T10:11:55.000Z</time>
      </trkpt>
      <trkpt lat="43.53142" lon="5.57493">
        <ele>837</ele>
        <time>2022-02-15T10:11:56.000Z</time>
      </trkpt>
      <trkpt lat="43.53142" lon="5.57493">
        <ele>837</ele>
        <time>2022-02-15T10:11:57.000Z</time>
      </trkpt>
      <trkpt lat="43.53142" lon="5.57493">
        <ele>837</ele>
        <time>2022-02-15T10:11:58.000Z</time>
      </trkpt>
      <trkpt lat="43.53142" lon="5.57493">
        <ele>837</ele>
        <time>2022-02-15T10:11:59.000Z</time>
      </trkpt>
      <trkpt lat="43.53142" lon="5.57493">
        <ele>837</ele>
        <time>2022-02-15T10:12:00.000Z</time>
      </trkpt>
      <trkpt lat="43.53142" lon="5.57493">
        <ele>837</ele>
        <time>2022-02-15T10:12:01.000Z</time>
      </trkpt>
      <trkpt lat="43.53142" lon="5.57493">
        <ele>837</ele>
        <time>2022-02-15T10:12:02.000Z</time>
      </trkpt>
      <trkpt lat="43.53142" lon="5.57493">
        <ele>837</ele>
        <time>2022-02-15T10:12:03.000Z</time>
      </trkpt>
      <trkpt lat="43.53142" lon="5.57493">
        <ele>837</ele>
        <time>2022-02-15T10:12:04.000Z</time>
      </trkpt>
      <trkpt lat="43.53142" lon="5.57493">
        <ele>837</ele>
        <time>2022-02-15T10:12:05.000Z</time>
      </trkpt>
      <trkpt lat="43.53142" lon="5.57493">
        <ele>837</ele>
        <time>2022-02-15T10:12:06.000Z</time>
      </trkpt>
      <trkpt lat="43.53142" lon="5.57493">
        <ele>837</ele>
        <time>2022-02-15T10:12:07.000Z</time>
      </trkpt>
      <trkpt lat="43.53142" lon="5.57493">
        <ele>837</ele>
        <time>2022-02-15T10:12:08.000Z</time>
      </trkpt>
      <trkpt lat="43.53142" lon="5.57493">
        <ele>837</ele>
        <time>2022-02-15T10:12:09.000Z</time>
      </trkpt>
      <trkpt lat="43.53142" lon="5.57493">
        <ele>837</ele>
        <time>2022-02-15T10:12:10.000Z</time>
      </trkpt>
      <trkpt lat="43.53142" lon="5.57493">
        <ele>837</ele>
        <time>2022-02-15T10:12:11.000Z</time>
      </trkpt>
      <trkpt lat="43.53142" lon="5.57493">
        <ele>837</ele>
        <time>2022-02-15T10:12:12.000Z</time>
      </trkpt>
      <trkpt lat="43.53142" lon="5.57493">
        <ele>837</ele>
        <time>2022-02-15T10:12:13.000Z</time>
      </trkpt>
      <trkpt lat="43.53142" lon="5.57493">
        <ele>837</ele>
        <time>2022-02-15T10:12:14.000Z</time>
      </trkpt>
      <trkpt lat="43.53142" lon="5.57493">
        <ele>837</ele>
        <time>2022-02-15T10:12:15.000Z</time>
      </trkpt>
      <trkpt lat="43.53142" lon="5.57493">
        <ele>837</ele>
        <time>2022-02-15T10:12:16.000Z</time>
      </trkpt>
      <trkpt lat="43.53142" lon="5.57493">
        <ele>837</ele>
        <time>2022-02-15T10:12:17.000Z</time>
      </trkpt>
      <trkpt lat="43.53142" lon="5.57493">
        <ele>837</ele>
        <time>2022-02-15T10:12:18.000Z</time>
      </trkpt>
      <trkpt lat="43.53143" lon="5.57493">
        <ele>837</ele>
        <time>2022-02-15T10:12:19.000Z</time>
      </trkpt>
      <trkpt lat="43.53143" lon="5.57493">
        <ele>837</ele>
        <time>2022-02-15T10:12:20.000Z</time>
      </trkpt>
      <trkpt lat="43.53143" lon="5.57493">
        <ele>837</ele>
        <time>2022-02-15T10:12:21.000Z</time>
      </trkpt>
      <trkpt lat="43.53143" lon="5.57493">
        <ele>837</ele>
        <time>2022-02-15T10:12:22.000Z</time>
      </trkpt>
      <trkpt lat="43.53143" lon="5.57494">
        <ele>837</ele>
        <time>2022-02-15T10:12:23.000Z</time>
      </trkpt>
      <trkpt lat="43.53143" lon="5.57494">
        <ele>837</ele>
        <time>2022-02-15T10:12:24.000Z</time>
      </trkpt>
      <trkpt lat="43.53143" lon="5.57494">
        <ele>837</ele>
        <time>2022-02-15T10:12:25.000Z</time>
      </trkpt>
      <trkpt lat="43.53143" lon="5.57494">
        <ele>837</ele>
        <time>2022-02-15T10:12:26.000Z</time>
      </trkpt>
      <trkpt lat="43.53143" lon="5.57494">
        <ele>837</ele>
        <time>2022-02-15T10:12:27.000Z</time>
      </trkpt>
      <trkpt lat="43.53143" lon="5.57494">
        <ele>837</ele>
        <time>2022-02-15T10:12:28.000Z</time>
      </trkpt>
      <trkpt lat="43.53143" lon="5.57494">
        <ele>837</ele>
        <time>2022-02-15T10:12:29.000Z</time>
      </trkpt>
      <trkpt lat="43.53143" lon="5.57494">
        <ele>837</ele>
        <time>2022-02-15T10:12:30.000Z</time>
      </trkpt>
      <trkpt lat="43.53143" lon="5.57494">
        <ele>837</ele>
        <time>2022-02-15T10:12:31.000Z</time>
      </trkpt>
      <trkpt lat="43.53144" lon="5.57494">
        <ele>837</ele>
        <time>2022-02-15T10:12:32.000Z</time>
      </trkpt>
      <trkpt lat="43.53144" lon="5.57494">
        <ele>837</ele>
        <time>2022-02-15T10:12:33.000Z</time>
      </trkpt>
      <trkpt lat="43.53144" lon="5.57495">
        <ele>837</ele>
        <time>2022-02-15T10:12:34.000Z</time>
      </trkpt>
      <trkpt lat="43.53144" lon="5.57495">
        <ele>837</ele>
        <time>2022-02-15T10:12:35.000Z</time>
      </trkpt>
      <trkpt lat="43.53144" lon="5.57495">
        <ele>837</ele>
        <time>2022-02-15T10:12:36.000Z</time>
      </trkpt>
      <trkpt lat="43.53144" lon="5.57495">
        <ele>837</ele>
        <time>2022-02-15T10:12:37.000Z</time>
      </trkpt>
      <trkpt lat="43.53144" lon="5.57495">
        <ele>837</ele>
        <time>2022-02-15T10:12:38.000Z</time>
      </trkpt>
      <trkpt lat="43.53144" lon="5.57495">
        <ele>837</ele>
        <time>2022-02-15T10:12:39.000Z</time>
      </trkpt>
      <trkpt lat="43.53144" lon="5.57495">
        <ele>837</ele>
        <time>2022-02-15T10:12:40.000Z</time>
      </trkpt>
      <trkpt lat="43.53144" lon="5.57494">
        <ele>837</ele>
        <time>2022-02-15T10:12:41.000Z</time>
      </trkpt>
      <trkpt lat="43.53145" lon="5.57494">
        <ele>838</ele>
        <time>2022-02-15T10:12:42.000Z</time>
      </trkpt>
      <trkpt lat="43.53145" lon="5.57494">
        <ele>838</ele>
        <time>2022-02-15T10:12:43.000Z</time>
      </trkpt>
      <trkpt lat="43.53145" lon="5.57494">
        <ele>838</ele>
        <time>2022-02-15T10:12:44.000Z</time>
      </trkpt>
      <trkpt lat="43.53145" lon="5.57494">
        <ele>838</ele>
        <time>2022-02-15T10:12:45.000Z</time>
      </trkpt>
      <trkpt lat="43.53146" lon="5.57494">
        <ele>838</ele>
        <time>2022-02-15T10:12:46.000Z</time>
      </trkpt>
      <trkpt lat="43.53146" lon="5.57494">
        <ele>838</ele>
        <time>2022-02-15T10:12:47.000Z</time>
      </trkpt>
      <trkpt lat="43.53145" lon="5.57494">
        <ele>838</ele>
        <time>2022-02-15T10:12:48.000Z</time>
      </trkpt>
      <trkpt lat="43.53145" lon="5.57493">
        <ele>838</ele>
        <time>2022-02-15T10:12:49.000Z</time>
      </trkpt>
      <trkpt lat="43.53145" lon="5.57493">
        <ele>839</ele>
        <time>2022-02-15T10:12:50.000Z</time>
      </trkpt>
      <trkpt lat="43.53145" lon="5.57493">
        <ele>839</ele>
        <time>2022-02-15T10:12:51.000Z</time>
      </trkpt>
      <trkpt lat="43.53145" lon="5.57493">
        <ele>839</ele>
        <time>2022-02-15T10:12:52.000Z</time>
      </trkpt>
      <trkpt lat="43.53145" lon="5.57493">
        <ele>839</ele>
        <time>2022-02-15T10:12:53.000Z</time>
      </trkpt>
      <trkpt lat="43.53145" lon="5.57493">
        <ele>839</ele>
        <time>2022-02-15T10:12:54.000Z</time>
      </trkpt>
      <trkpt lat="43.53145" lon="5.57493">
        <ele>839</ele>
        <time>2022-02-15T10:12:55.000Z</time>
      </trkpt>
      <trkpt lat="43.53145" lon="5.57493">
        <ele>839</ele>
        <time>2022-02-15T10:12:56.000Z</time>
      </trkpt>
      <trkpt lat="43.53145" lon="5.57493">
        <ele>839</ele>
        <time>2022-02-15T10:12:57.000Z</time>
      </trkpt>
      <trkpt lat="43.53145" lon="5.57493">
        <ele>839</ele>
        <time>2022-02-15T10:12:58.000Z</time>
      </trkpt>
      <trkpt lat="43.53145" lon="5.57493">
        <ele>839</ele>
        <time>2022-02-15T10:12:59.000Z</time>
      </trkpt>
      <trkpt lat="43.53145" lon="5.57493">
        <ele>839</ele>
        <time>2022-02-15T10:13:00.000Z</time>
      </trkpt>
      <trkpt lat="43.53145" lon="5.57493">
        <ele>839</ele>
        <time>2022-02-15T10:13:01.000Z</time>
      </trkpt>
      <trkpt lat="43.53145" lon="5.57492">
        <ele>839</ele>
        <time>2022-02-15T10:13:02.000Z</time>
      </trkpt>
      <trkpt lat="43.53145" lon="5.57492">
        <ele>839</ele>
        <time>2022-02-15T10:13:03.000Z</time>
      </trkpt>
      <trkpt lat="43.53145" lon="5.57492">
        <ele>839</ele>
        <time>2022-02-15T10:13:04.000Z</time>
      </trkpt>
      <trkpt lat="43.53145" lon="5.57492">
        <ele>839</ele>
        <time>2022-02-15T10:13:05.000Z</time>
      </trkpt>
      <trkpt lat="43.53145" lon="5.57492">
        <ele>839</ele>
        <time>2022-02-15T10:13:06.000Z</time>
      </trkpt>
      <trkpt lat="43.53145" lon="5.57492">
        <ele>839</ele>
        <time>2022-02-15T10:13:07.000Z</time>
      </trkpt>
      <trkpt lat="43.53146" lon="5.57492">
        <ele>840</ele>
        <time>2022-02-15T10:13:08.000Z</time>
      </trkpt>
      <trkpt lat="43.53146" lon="5.57492">
        <ele>840</ele>
        <time>2022-02-15T10:13:09.000Z</time>
      </trkpt>
      <trkpt lat="43.53146" lon="5.57492">
        <ele>840</ele>
        <time>2022-02-15T10:13:10.000Z</time>
      </trkpt>
      <trkpt lat="43.53146" lon="5.57492">
        <ele>840</ele>
        <time>2022-02-15T10:13:11.000Z</time>
      </trkpt>
      <trkpt lat="43.53146" lon="5.57492">
        <ele>840</ele>
        <time>2022-02-15T10:13:12.000Z</time>
      </trkpt>
      <trkpt lat="43.53146" lon="5.57492">
        <ele>840</ele>
        <time>2022-02-15T10:13:13.000Z</time>
      </trkpt>
      <trkpt lat="43.53146" lon="5.57492">
        <ele>840</ele>
        <time>2022-02-15T10:13:14.000Z</time>
      </trkpt>
      <trkpt lat="43.53146" lon="5.57492">
        <ele>840</ele>
        <time>2022-02-15T10:13:15.000Z</time>
      </trkpt>
      <trkpt lat="43.53146" lon="5.57492">
        <ele>840</ele>
        <time>2022-02-15T10:13:16.000Z</time>
      </trkpt>
      <trkpt lat="43.53146" lon="5.57492">
        <ele>840</ele>
        <time>2022-02-15T10:13:17.000Z</time>
      </trkpt>
      <trkpt lat="43.53146" lon="5.57492">
        <ele>841</ele>
        <time>2022-02-15T10:13:18.000Z</time>
      </trkpt>
      <trkpt lat="43.53146" lon="5.57492">
        <ele>841</ele>
        <time>2022-02-15T10:13:19.000Z</time>
      </trkpt>
      <trkpt lat="43.53146" lon="5.57492">
        <ele>841</ele>
        <time>2022-02-15T10:13:20.000Z</time>
      </trkpt>
      <trkpt lat="43.53146" lon="5.57492">
        <ele>841</ele>
        <time>2022-02-15T10:13:21.000Z</time>
      </trkpt>
      <trkpt lat="43.53146" lon="5.57492">
        <ele>841</ele>
        <time>2022-02-15T10:13:22.000Z</time>
      </trkpt>
      <trkpt lat="43.53146" lon="5.57492">
        <ele>841</ele>
        <time>2022-02-15T10:13:23.000Z</time>
      </trkpt>
      <trkpt lat="43.53146" lon="5.57492">
        <ele>841</ele>
        <time>2022-02-15T10:13:24.000Z</time>
      </trkpt>
      <trkpt lat="43.53147" lon="5.57492">
        <ele>841</ele>
        <time>2022-02-15T10:13:25.000Z</time>
      </trkpt>
      <trkpt lat="43.53147" lon="5.57492">
        <ele>841</ele>
        <time>2022-02-15T10:13:26.000Z</time>
      </trkpt>
      <trkpt lat="43.53147" lon="5.57492">
        <ele>841</ele>
        <time>2022-02-15T10:13:27.000Z</time>
      </trkpt>
      <trkpt lat="43.53147" lon="5.57492">
        <ele>841</ele>
        <time>2022-02-15T10:13:28.000Z</time>
      </trkpt>
      <trkpt lat="43.53147" lon="5.57492">
        <ele>841</ele>
        <time>2022-02-15T10:13:29.000Z</time>
      </trkpt>
      <trkpt lat="43.53147" lon="5.57492">
        <ele>841</ele>
        <time>2022-02-15T10:13:30.000Z</time>
      </trkpt>
      <trkpt lat="43.53147" lon="5.57492">
        <ele>841</ele>
        <time>2022-02-15T10:13:31.000Z</time>
      </trkpt>
      <trkpt lat="43.53147" lon="5.57492">
        <ele>841</ele>
        <time>2022-02-15T10:13:32.000Z</time>
      </trkpt>
      <trkpt lat="43.53147" lon="5.57492">
        <ele>841</ele>
        <time>2022-02-15T10:13:33.000Z</time>
      </trkpt>
      <trkpt lat="43.53147" lon="5.57492">
        <ele>841</ele>
        <time>2022-02-15T10:13:34.000Z</time>
      </trkpt>
      <trkpt lat="43.53147" lon="5.57492">
        <ele>841</ele>
        <time>2022-02-15T10:13:35.000Z</time>
      </trkpt>
      <trkpt lat="43.53147" lon="5.57492">
        <ele>841</ele>
        <time>2022-02-15T10:13:36.000Z</time>
      </trkpt>
      <trkpt lat="43.53147" lon="5.57492">
        <ele>841</ele>
        <time>2022-02-15T10:13:37.000Z</time>
      </trkpt>
      <trkpt lat="43.53147" lon="5.57492">
        <ele>841</ele>
        <time>2022-02-15T10:13:38.000Z</time>
      </trkpt>
      <trkpt lat="43.53147" lon="5.57492">
        <ele>841</ele>
        <time>2022-02-15T10:13:39.000Z</time>
      </trkpt>
      <trkpt lat="43.53147" lon="5.57492">
        <ele>841</ele>
        <time>2022-02-15T10:13:40.000Z</time>
      </trkpt>
      <trkpt lat="43.53147" lon="5.57492">
        <ele>841</ele>
        <time>2022-02-15T10:13:41.000Z</time>
      </trkpt>
      <trkpt lat="43.53147" lon="5.57492">
        <ele>841</ele>
        <time>2022-02-15T10:13:42.000Z</time>
      </trkpt>
      <trkpt lat="43.53147" lon="5.57492">
        <ele>841</ele>
        <time>2022-02-15T10:13:43.000Z</time>
      </trkpt>
      <trkpt lat="43.53147" lon="5.57492">
        <ele>841</ele>
        <time>2022-02-15T10:13:44.000Z</time>
      </trkpt>
      <trkpt lat="43.53148" lon="5.57492">
        <ele>841</ele>
        <time>2022-02-15T10:13:45.000Z</time>
      </trkpt>
      <trkpt lat="43.53148" lon="5.57492">
        <ele>842</ele>
        <time>2022-02-15T10:13:46.000Z</time>
      </trkpt>
      <trkpt lat="43.53148" lon="5.57492">
        <ele>842</ele>
        <time>2022-02-15T10:13:47.000Z</time>
      </trkpt>
      <trkpt lat="43.53148" lon="5.57492">
        <ele>842</ele>
        <time>2022-02-15T10:13:48.000Z</time>
      </trkpt>
      <trkpt lat="43.53148" lon="5.57493">
        <ele>842</ele>
        <time>2022-02-15T10:13:49.000Z</time>
      </trkpt>
      <trkpt lat="43.53149" lon="5.57493">
        <ele>842</ele>
        <time>2022-02-15T10:13:50.000Z</time>
      </trkpt>
      <trkpt lat="43.53149" lon="5.57493">
        <ele>842</ele>
        <time>2022-02-15T10:13:51.000Z</time>
      </trkpt>
      <trkpt lat="43.53149" lon="5.57493">
        <ele>842</ele>
        <time>2022-02-15T10:13:52.000Z</time>
      </trkpt>
      <trkpt lat="43.53149" lon="5.57493">
        <ele>842</ele>
        <time>2022-02-15T10:13:53.000Z</time>
      </trkpt>
      <trkpt lat="43.53149" lon="5.57493">
        <ele>842</ele>
        <time>2022-02-15T10:13:54.000Z</time>
      </trkpt>
      <trkpt lat="43.53149" lon="5.57493">
        <ele>842</ele>
        <time>2022-02-15T10:13:55.000Z</time>
      </trkpt>
      <trkpt lat="43.53149" lon="5.57493">
        <ele>842</ele>
        <time>2022-02-15T10:13:56.000Z</time>
      </trkpt>
      <trkpt lat="43.53149" lon="5.57493">
        <ele>842</ele>
        <time>2022-02-15T10:13:57.000Z</time>
      </trkpt>
      <trkpt lat="43.53149" lon="5.57493">
        <ele>842</ele>
        <time>2022-02-15T10:13:58.000Z</time>
      </trkpt>
      <trkpt lat="43.53149" lon="5.57493">
        <ele>842</ele>
        <time>2022-02-15T10:13:59.000Z</time>
      </trkpt>
      <trkpt lat="43.53149" lon="5.57493">
        <ele>842</ele>
        <time>2022-02-15T10:14:00.000Z</time>
      </trkpt>
      <trkpt lat="43.53149" lon="5.57493">
        <ele>842</ele>
        <time>2022-02-15T10:14:01.000Z</time>
      </trkpt>
      <trkpt lat="43.53149" lon="5.57493">
        <ele>842</ele>
        <time>2022-02-15T10:14:02.000Z</time>
      </trkpt>
      <trkpt lat="43.53149" lon="5.57492">
        <ele>843</ele>
        <time>2022-02-15T10:14:03.000Z</time>
      </trkpt>
      <trkpt lat="43.53149" lon="5.57492">
        <ele>843</ele>
        <time>2022-02-15T10:14:04.000Z</time>
      </trkpt>
      <trkpt lat="43.53149" lon="5.57492">
        <ele>843</ele>
        <time>2022-02-15T10:14:05.000Z</time>
      </trkpt>
      <trkpt lat="43.53149" lon="5.57492">
        <ele>843</ele>
        <time>2022-02-15T10:14:06.000Z</time>
      </trkpt>
      <trkpt lat="43.53149" lon="5.57492">
        <ele>843</ele>
        <time>2022-02-15T10:14:07.000Z</time>
      </trkpt>
      <trkpt lat="43.53149" lon="5.57492">
        <ele>843</ele>
        <time>2022-02-15T10:14:08.000Z</time>
      </trkpt>
      <trkpt lat="43.53149" lon="5.57492">
        <ele>843</ele>
        <time>2022-02-15T10:14:09.000Z</time>
      </trkpt>
      <trkpt lat="43.53149" lon="5.57492">
        <ele>843</ele>
        <time>2022-02-15T10:14:10.000Z</time>
      </trkpt>
      <trkpt lat="43.53149" lon="5.57492">
        <ele>843</ele>
        <time>2022-02-15T10:14:11.000Z</time>
      </trkpt>
      <trkpt lat="43.53149" lon="5.57492">
        <ele>843</ele>
        <time>2022-02-15T10:14:12.000Z</time>
      </trkpt>
      <trkpt lat="43.53149" lon="5.57492">
        <ele>843</ele>
        <time>2022-02-15T10:14:13.000Z</time>
      </trkpt>
      <trkpt lat="43.53149" lon="5.57492">
        <ele>843</ele>
        <time>2022-02-15T10:14:14.000Z</time>
      </trkpt>
      <trkpt lat="43.53149" lon="5.57492">
        <ele>843</ele>
        <time>2022-02-15T10:14:15.000Z</time>
      </trkpt>
      <trkpt lat="43.53149" lon="5.57492">
        <ele>843</ele>
        <time>2022-02-15T10:14:16.000Z</time>
      </trkpt>
      <trkpt lat="43.53149" lon="5.57492">
        <ele>843</ele>
        <time>2022-02-15T10:14:17.000Z</time>
      </trkpt>
      <trkpt lat="43.53149" lon="5.57492">
        <ele>843</ele>
        <time>2022-02-15T10:14:18.000Z</time>
      </trkpt>
      <trkpt lat="43.53149" lon="5.57492">
        <ele>843</ele>
        <time>2022-02-15T10:14:19.000Z</time>
      </trkpt>
      <trkpt lat="43.53149" lon="5.57492">
        <ele>843</ele>
        <time>2022-02-15T10:14:20.000Z</time>
      </trkpt>
      <trkpt lat="43.53149" lon="5.57492">
        <ele>843</ele>
        <time>2022-02-15T10:14:21.000Z</time>
      </trkpt>
      <trkpt lat="43.53149" lon="5.57492">
        <ele>843</ele>
        <time>2022-02-15T10:14:22.000Z</time>
      </trkpt>
      <trkpt lat="43.53149" lon="5.57492">
        <ele>843</ele>
        <time>2022-02-15T10:14:23.000Z</time>
      </trkpt>
      <trkpt lat="43.53149" lon="5.57492">
        <ele>843</ele>
        <time>2022-02-15T10:14:24.000Z</time>
      </trkpt>
      <trkpt lat="43.53149" lon="5.57492">
        <ele>843</ele>
        <time>2022-02-15T10:14:25.000Z</time>
      </trkpt>
      <trkpt lat="43.53149" lon="5.57492">
        <ele>843</ele>
        <time>2022-02-15T10:14:26.000Z</time>
      </trkpt>
      <trkpt lat="43.53149" lon="5.57492">
        <ele>843</ele>
        <time>2022-02-15T10:14:27.000Z</time>
      </trkpt>
      <trkpt lat="43.53149" lon="5.57492">
        <ele>843</ele>
        <time>2022-02-15T10:14:28.000Z</time>
      </trkpt>
      <trkpt lat="43.53149" lon="5.57492">
        <ele>843</ele>
        <time>2022-02-15T10:14:29.000Z</time>
      </trkpt>
      <trkpt lat="43.53149" lon="5.57492">
        <ele>843</ele>
        <time>2022-02-15T10:14:30.000Z</time>
      </trkpt>
      <trkpt lat="43.53149" lon="5.57492">
        <ele>843</ele>
        <time>2022-02-15T10:14:31.000Z</time>
      </trkpt>
      <trkpt lat="43.53149" lon="5.57492">
        <ele>843</ele>
        <time>2022-02-15T10:14:32.000Z</time>
      </trkpt>
      <trkpt lat="43.53149" lon="5.57492">
        <ele>843</ele>
        <time>2022-02-15T10:14:33.000Z</time>
      </trkpt>
      <trkpt lat="43.53149" lon="5.57492">
        <ele>843</ele>
        <time>2022-02-15T10:14:34.000Z</time>
      </trkpt>
      <trkpt lat="43.53149" lon="5.57492">
        <ele>843</ele>
        <time>2022-02-15T10:14:35.000Z</time>
      </trkpt>
      <trkpt lat="43.53149" lon="5.57492">
        <ele>843</ele>
        <time>2022-02-15T10:14:36.000Z</time>
      </trkpt>
      <trkpt lat="43.53149" lon="5.57492">
        <ele>843</ele>
        <time>2022-02-15T10:14:37.000Z</time>
      </trkpt>
      <trkpt lat="43.53149" lon="5.57492">
        <ele>843</ele>
        <time>2022-02-15T10:14:38.000Z</time>
      </trkpt>
      <trkpt lat="43.53149" lon="5.57492">
        <ele>843</ele>
        <time>2022-02-15T10:14:39.000Z</time>
      </trkpt>
      <trkpt lat="43.53149" lon="5.57492">
        <ele>843</ele>
        <time>2022-02-15T10:14:40.000Z</time>
      </trkpt>
      <trkpt lat="43.53149" lon="5.57492">
        <ele>844</ele>
        <time>2022-02-15T10:14:41.000Z</time>
      </trkpt>
      <trkpt lat="43.53149" lon="5.57492">
        <ele>844</ele>
        <time>2022-02-15T10:14:42.000Z</time>
      </trkpt>
      <trkpt lat="43.53149" lon="5.57491">
        <ele>844</ele>
        <time>2022-02-15T10:14:43.000Z</time>
      </trkpt>
      <trkpt lat="43.5315" lon="5.57491">
        <ele>844</ele>
        <time>2022-02-15T10:14:44.000Z</time>
      </trkpt>
      <trkpt lat="43.5315" lon="5.57491">
        <ele>844</ele>
        <time>2022-02-15T10:14:45.000Z</time>
      </trkpt>
      <trkpt lat="43.53151" lon="5.57491">
        <ele>844</ele>
        <time>2022-02-15T10:14:46.000Z</time>
      </trkpt>
      <trkpt lat="43.53151" lon="5.57491">
        <ele>844</ele>
        <time>2022-02-15T10:14:47.000Z</time>
      </trkpt>
      <trkpt lat="43.53151" lon="5.57491">
        <ele>844</ele>
        <time>2022-02-15T10:14:48.000Z</time>
      </trkpt>
      <trkpt lat="43.53151" lon="5.57491">
        <ele>844</ele>
        <time>2022-02-15T10:14:49.000Z</time>
      </trkpt>
      <trkpt lat="43.53151" lon="5.57491">
        <ele>844</ele>
        <time>2022-02-15T10:14:50.000Z</time>
      </trkpt>
      <trkpt lat="43.53151" lon="5.57491">
        <ele>844</ele>
        <time>2022-02-15T10:14:51.000Z</time>
      </trkpt>
      <trkpt lat="43.53151" lon="5.57491">
        <ele>844</ele>
        <time>2022-02-15T10:14:52.000Z</time>
      </trkpt>
      <trkpt lat="43.5315" lon="5.57491">
        <ele>845</ele>
        <time>2022-02-15T10:14:53.000Z</time>
      </trkpt>
      <trkpt lat="43.5315" lon="5.57491">
        <ele>845</ele>
        <time>2022-02-15T10:14:54.000Z</time>
      </trkpt>
      <trkpt lat="43.53151" lon="5.57491">
        <ele>845</ele>
        <time>2022-02-15T10:14:55.000Z</time>
      </trkpt>
      <trkpt lat="43.53151" lon="5.57491">
        <ele>845</ele>
        <time>2022-02-15T10:14:56.000Z</time>
      </trkpt>
      <trkpt lat="43.53152" lon="5.57491">
        <ele>845</ele>
        <time>2022-02-15T10:14:57.000Z</time>
      </trkpt>
      <trkpt lat="43.53152" lon="5.57491">
        <ele>845</ele>
        <time>2022-02-15T10:14:58.000Z</time>
      </trkpt>
      <trkpt lat="43.53152" lon="5.57492">
        <ele>845</ele>
        <time>2022-02-15T10:14:59.000Z</time>
      </trkpt>
      <trkpt lat="43.53152" lon="5.57492">
        <ele>845</ele>
        <time>2022-02-15T10:15:00.000Z</time>
      </trkpt>
      <trkpt lat="43.53153" lon="5.57492">
        <ele>845</ele>
        <time>2022-02-15T10:15:01.000Z</time>
      </trkpt>
      <trkpt lat="43.53153" lon="5.57492">
        <ele>845</ele>
        <time>2022-02-15T10:15:02.000Z</time>
      </trkpt>
      <trkpt lat="43.53154" lon="5.57492">
        <ele>846</ele>
        <time>2022-02-15T10:15:03.000Z</time>
      </trkpt>
      <trkpt lat="43.53154" lon="5.57493">
        <ele>846</ele>
        <time>2022-02-15T10:15:04.000Z</time>
      </trkpt>
      <trkpt lat="43.53154" lon="5.57493">
        <ele>846</ele>
        <time>2022-02-15T10:15:05.000Z</time>
      </trkpt>
      <trkpt lat="43.53155" lon="5.57493">
        <ele>846</ele>
        <time>2022-02-15T10:15:06.000Z</time>
      </trkpt>
      <trkpt lat="43.53155" lon="5.57493">
        <ele>847</ele>
        <time>2022-02-15T10:15:07.000Z</time>
      </trkpt>
      <trkpt lat="43.53155" lon="5.57494">
        <ele>847</ele>
        <time>2022-02-15T10:15:08.000Z</time>
      </trkpt>
      <trkpt lat="43.53156" lon="5.57494">
        <ele>847</ele>
        <time>2022-02-15T10:15:09.000Z</time>
      </trkpt>
      <trkpt lat="43.53156" lon="5.57494">
        <ele>847</ele>
        <time>2022-02-15T10:15:10.000Z</time>
      </trkpt>
      <trkpt lat="43.53156" lon="5.57494">
        <ele>848</ele>
        <time>2022-02-15T10:15:11.000Z</time>
      </trkpt>
      <trkpt lat="43.53156" lon="5.57494">
        <ele>848</ele>
        <time>2022-02-15T10:15:12.000Z</time>
      </trkpt>
      <trkpt lat="43.53156" lon="5.57494">
        <ele>848</ele>
        <time>2022-02-15T10:15:13.000Z</time>
      </trkpt>
      <trkpt lat="43.53156" lon="5.57494">
        <ele>848</ele>
        <time>2022-02-15T10:15:14.000Z</time>
      </trkpt>
      <trkpt lat="43.53156" lon="5.57494">
        <ele>848</ele>
        <time>2022-02-15T10:15:15.000Z</time>
      </trkpt>
      <trkpt lat="43.53156" lon="5.57494">
        <ele>848</ele>
        <time>2022-02-15T10:15:16.000Z</time>
      </trkpt>
      <trkpt lat="43.53156" lon="5.57494">
        <ele>848</ele>
        <time>2022-02-15T10:15:17.000Z</time>
      </trkpt>
      <trkpt lat="43.53156" lon="5.57494">
        <ele>848</ele>
        <time>2022-02-15T10:15:18.000Z</time>
      </trkpt>
      <trkpt lat="43.53156" lon="5.57494">
        <ele>848</ele>
        <time>2022-02-15T10:15:19.000Z</time>
      </trkpt>
      <trkpt lat="43.53156" lon="5.57494">
        <ele>848</ele>
        <time>2022-02-15T10:15:20.000Z</time>
      </trkpt>
      <trkpt lat="43.53156" lon="5.57494">
        <ele>848</ele>
        <time>2022-02-15T10:15:21.000Z</time>
      </trkpt>
      <trkpt lat="43.53156" lon="5.57494">
        <ele>848</ele>
        <time>2022-02-15T10:15:22.000Z</time>
      </trkpt>
      <trkpt lat="43.53156" lon="5.57494">
        <ele>848</ele>
        <time>2022-02-15T10:15:23.000Z</time>
      </trkpt>
      <trkpt lat="43.53156" lon="5.57494">
        <ele>848</ele>
        <time>2022-02-15T10:15:24.000Z</time>
      </trkpt>
      <trkpt lat="43.53156" lon="5.57494">
        <ele>848</ele>
        <time>2022-02-15T10:15:25.000Z</time>
      </trkpt>
      <trkpt lat="43.53156" lon="5.57494">
        <ele>848</ele>
        <time>2022-02-15T10:15:26.000Z</time>
      </trkpt>
      <trkpt lat="43.53156" lon="5.57494">
        <ele>848</ele>
        <time>2022-02-15T10:15:27.000Z</time>
      </trkpt>
      <trkpt lat="43.53156" lon="5.57494">
        <ele>848</ele>
        <time>2022-02-15T10:15:28.000Z</time>
      </trkpt>
      <trkpt lat="43.53156" lon="5.57494">
        <ele>848</ele>
        <time>2022-02-15T10:15:29.000Z</time>
      </trkpt>
      <trkpt lat="43.53156" lon="5.57495">
        <ele>848</ele>
        <time>2022-02-15T10:15:30.000Z</time>
      </trkpt>
      <trkpt lat="43.53156" lon="5.57495">
        <ele>849</ele>
        <time>2022-02-15T10:15:31.000Z</time>
      </trkpt>
      <trkpt lat="43.53156" lon="5.57495">
        <ele>849</ele>
        <time>2022-02-15T10:15:32.000Z</time>
      </trkpt>
      <trkpt lat="43.53156" lon="5.57495">
        <ele>849</ele>
        <time>2022-02-15T10:15:33.000Z</time>
      </trkpt>
      <trkpt lat="43.53156" lon="5.57495">
        <ele>849</ele>
        <time>2022-02-15T10:15:34.000Z</time>
      </trkpt>
      <trkpt lat="43.53156" lon="5.57495">
        <ele>849</ele>
        <time>2022-02-15T10:15:35.000Z</time>
      </trkpt>
      <trkpt lat="43.53156" lon="5.57495">
        <ele>849</ele>
        <time>2022-02-15T10:15:36.000Z</time>
      </trkpt>
      <trkpt lat="43.53156" lon="5.57495">
        <ele>849</ele>
        <time>2022-02-15T10:15:37.000Z</time>
      </trkpt>
      <trkpt lat="43.53156" lon="5.57495">
        <ele>849</ele>
        <time>2022-02-15T10:15:38.000Z</time>
      </trkpt>
      <trkpt lat="43.53156" lon="5.57495">
        <ele>849</ele>
        <time>2022-02-15T10:15:39.000Z</time>
      </trkpt>
      <trkpt lat="43.53156" lon="5.57495">
        <ele>849</ele>
        <time>2022-02-15T10:15:40.000Z</time>
      </trkpt>
      <trkpt lat="43.53156" lon="5.57495">
        <ele>849</ele>
        <time>2022-02-15T10:15:41.000Z</time>
      </trkpt>
      <trkpt lat="43.53156" lon="5.57495">
        <ele>849</ele>
        <time>2022-02-15T10:15:42.000Z</time>
      </trkpt>
      <trkpt lat="43.53156" lon="5.57495">
        <ele>849</ele>
        <time>2022-02-15T10:15:43.000Z</time>
      </trkpt>
      <trkpt lat="43.53156" lon="5.57495">
        <ele>849</ele>
        <time>2022-02-15T10:15:44.000Z</time>
      </trkpt>
      <trkpt lat="43.53156" lon="5.57495">
        <ele>849</ele>
        <time>2022-02-15T10:15:45.000Z</time>
      </trkpt>
      <trkpt lat="43.53155" lon="5.57495">
        <ele>849</ele>
        <time>2022-02-15T10:15:46.000Z</time>
      </trkpt>
      <trkpt lat="43.53155" lon="5.57495">
        <ele>849</ele>
        <time>2022-02-15T10:15:47.000Z</time>
      </trkpt>
      <trkpt lat="43.53155" lon="5.57495">
        <ele>849</ele>
        <time>2022-02-15T10:15:48.000Z</time>
      </trkpt>
      <trkpt lat="43.53155" lon="5.57494">
        <ele>849</ele>
        <time>2022-02-15T10:15:49.000Z</time>
      </trkpt>
      <trkpt lat="43.53155" lon="5.57494">
        <ele>849</ele>
        <time>2022-02-15T10:15:50.000Z</time>
      </trkpt>
      <trkpt lat="43.53155" lon="5.57494">
        <ele>849</ele>
        <time>2022-02-15T10:15:51.000Z</time>
      </trkpt>
      <trkpt lat="43.53155" lon="5.57494">
        <ele>849</ele>
        <time>2022-02-15T10:15:52.000Z</time>
      </trkpt>
      <trkpt lat="43.53155" lon="5.57494">
        <ele>849</ele>
        <time>2022-02-15T10:15:53.000Z</time>
      </trkpt>
      <trkpt lat="43.53155" lon="5.57494">
        <ele>849</ele>
        <time>2022-02-15T10:15:54.000Z</time>
      </trkpt>
      <trkpt lat="43.53155" lon="5.57495">
        <ele>849</ele>
        <time>2022-02-15T10:15:55.000Z</time>
      </trkpt>
      <trkpt lat="43.53155" lon="5.57495">
        <ele>849</ele>
        <time>2022-02-15T10:15:56.000Z</time>
      </trkpt>
      <trkpt lat="43.53155" lon="5.57495">
        <ele>849</ele>
        <time>2022-02-15T10:15:57.000Z</time>
      </trkpt>
      <trkpt lat="43.53156" lon="5.57495">
        <ele>849</ele>
        <time>2022-02-15T10:15:58.000Z</time>
      </trkpt>
      <trkpt lat="43.53156" lon="5.57495">
        <ele>849</ele>
        <time>2022-02-15T10:15:59.000Z</time>
      </trkpt>
      <trkpt lat="43.53156" lon="5.57495">
        <ele>849</ele>
        <time>2022-02-15T10:16:00.000Z</time>
      </trkpt>
      <trkpt lat="43.53157" lon="5.57495">
        <ele>849</ele>
        <time>2022-02-15T10:16:01.000Z</time>
      </trkpt>
      <trkpt lat="43.53157" lon="5.57495">
        <ele>850</ele>
        <time>2022-02-15T10:16:02.000Z</time>
      </trkpt>
      <trkpt lat="43.53158" lon="5.57495">
        <ele>850</ele>
        <time>2022-02-15T10:16:03.000Z</time>
      </trkpt>
      <trkpt lat="43.53158" lon="5.57495">
        <ele>850</ele>
        <time>2022-02-15T10:16:04.000Z</time>
      </trkpt>
      <trkpt lat="43.53159" lon="5.57495">
        <ele>850</ele>
        <time>2022-02-15T10:16:05.000Z</time>
      </trkpt>
      <trkpt lat="43.5316" lon="5.57496">
        <ele>850</ele>
        <time>2022-02-15T10:16:06.000Z</time>
      </trkpt>
      <trkpt lat="43.5316" lon="5.57496">
        <ele>851</ele>
        <time>2022-02-15T10:16:07.000Z</time>
      </trkpt>
      <trkpt lat="43.53161" lon="5.57496">
        <ele>851</ele>
        <time>2022-02-15T10:16:08.000Z</time>
      </trkpt>
      <trkpt lat="43.53162" lon="5.57496">
        <ele>851</ele>
        <time>2022-02-15T10:16:09.000Z</time>
      </trkpt>
      <trkpt lat="43.53162" lon="5.57496">
        <ele>851</ele>
        <time>2022-02-15T10:16:10.000Z</time>
      </trkpt>
      <trkpt lat="43.53162" lon="5.57497">
        <ele>851</ele>
        <time>2022-02-15T10:16:11.000Z</time>
      </trkpt>
      <trkpt lat="43.53162" lon="5.57497">
        <ele>851</ele>
        <time>2022-02-15T10:16:12.000Z</time>
      </trkpt>
      <trkpt lat="43.53162" lon="5.57497">
        <ele>851</ele>
        <time>2022-02-15T10:16:13.000Z</time>
      </trkpt>
      <trkpt lat="43.53162" lon="5.57498">
        <ele>851</ele>
        <time>2022-02-15T10:16:14.000Z</time>
      </trkpt>
      <trkpt lat="43.53162" lon="5.57498">
        <ele>852</ele>
        <time>2022-02-15T10:16:15.000Z</time>
      </trkpt>
      <trkpt lat="43.53163" lon="5.57498">
        <ele>852</ele>
        <time>2022-02-15T10:16:16.000Z</time>
      </trkpt>
      <trkpt lat="43.53163" lon="5.57499">
        <ele>852</ele>
        <time>2022-02-15T10:16:17.000Z</time>
      </trkpt>
      <trkpt lat="43.53163" lon="5.57499">
        <ele>852</ele>
        <time>2022-02-15T10:16:18.000Z</time>
      </trkpt>
      <trkpt lat="43.53163" lon="5.57499">
        <ele>852</ele>
        <time>2022-02-15T10:16:19.000Z</time>
      </trkpt>
      <trkpt lat="43.53163" lon="5.57499">
        <ele>852</ele>
        <time>2022-02-15T10:16:20.000Z</time>
      </trkpt>
      <trkpt lat="43.53163" lon="5.57499">
        <ele>853</ele>
        <time>2022-02-15T10:16:21.000Z</time>
      </trkpt>
      <trkpt lat="43.53163" lon="5.57499">
        <ele>853</ele>
        <time>2022-02-15T10:16:22.000Z</time>
      </trkpt>
      <trkpt lat="43.53163" lon="5.57499">
        <ele>853</ele>
        <time>2022-02-15T10:16:23.000Z</time>
      </trkpt>
      <trkpt lat="43.53163" lon="5.575">
        <ele>853</ele>
        <time>2022-02-15T10:16:24.000Z</time>
      </trkpt>
      <trkpt lat="43.53163" lon="5.575">
        <ele>853</ele>
        <time>2022-02-15T10:16:25.000Z</time>
      </trkpt>
      <trkpt lat="43.53163" lon="5.575">
        <ele>853</ele>
        <time>2022-02-15T10:16:26.000Z</time>
      </trkpt>
      <trkpt lat="43.53163" lon="5.575">
        <ele>853</ele>
        <time>2022-02-15T10:16:27.000Z</time>
      </trkpt>
      <trkpt lat="43.53164" lon="5.575">
        <ele>853</ele>
        <time>2022-02-15T10:16:28.000Z</time>
      </trkpt>
      <trkpt lat="43.53164" lon="5.575">
        <ele>853</ele>
        <time>2022-02-15T10:16:29.000Z</time>
      </trkpt>
      <trkpt lat="43.53164" lon="5.575">
        <ele>853</ele>
        <time>2022-02-15T10:16:30.000Z</time>
      </trkpt>
      <trkpt lat="43.53164" lon="5.57501">
        <ele>853</ele>
        <time>2022-02-15T10:16:31.000Z</time>
      </trkpt>
      <trkpt lat="43.53164" lon="5.57501">
        <ele>854</ele>
        <time>2022-02-15T10:16:32.000Z</time>
      </trkpt>
      <trkpt lat="43.53164" lon="5.57501">
        <ele>854</ele>
        <time>2022-02-15T10:16:33.000Z</time>
      </trkpt>
      <trkpt lat="43.53164" lon="5.57501">
        <ele>854</ele>
        <time>2022-02-15T10:16:34.000Z</time>
      </trkpt>
      <trkpt lat="43.53164" lon="5.57501">
        <ele>854</ele>
        <time>2022-02-15T10:16:35.000Z</time>
      </trkpt>
      <trkpt lat="43.53164" lon="5.57501">
        <ele>854</ele>
        <time>2022-02-15T10:16:36.000Z</time>
      </trkpt>
      <trkpt lat="43.53164" lon="5.57502">
        <ele>854</ele>
        <time>2022-02-15T10:16:37.000Z</time>
      </trkpt>
      <trkpt lat="43.53164" lon="5.57502">
        <ele>854</ele>
        <time>2022-02-15T10:16:38.000Z</time>
      </trkpt>
      <trkpt lat="43.53164" lon="5.57502">
        <ele>854</ele>
        <time>2022-02-15T10:16:39.000Z</time>
      </trkpt>
      <trkpt lat="43.53164" lon="5.57502">
        <ele>854</ele>
        <time>2022-02-15T10:16:40.000Z</time>
      </trkpt>
      <trkpt lat="43.53164" lon="5.57502">
        <ele>855</ele>
        <time>2022-02-15T10:16:41.000Z</time>
      </trkpt>
      <trkpt lat="43.53164" lon="5.57502">
        <ele>855</ele>
        <time>2022-02-15T10:16:42.000Z</time>
      </trkpt>
      <trkpt lat="43.53164" lon="5.57502">
        <ele>855</ele>
        <time>2022-02-15T10:16:43.000Z</time>
      </trkpt>
      <trkpt lat="43.53164" lon="5.57502">
        <ele>855</ele>
        <time>2022-02-15T10:16:44.000Z</time>
      </trkpt>
      <trkpt lat="43.53164" lon="5.57502">
        <ele>855</ele>
        <time>2022-02-15T10:16:45.000Z</time>
      </trkpt>
      <trkpt lat="43.53164" lon="5.57502">
        <ele>855</ele>
        <time>2022-02-15T10:16:46.000Z</time>
      </trkpt>
      <trkpt lat="43.53164" lon="5.57502">
        <ele>855</ele>
        <time>2022-02-15T10:16:47.000Z</time>
      </trkpt>
      <trkpt lat="43.53164" lon="5.57502">
        <ele>855</ele>
        <time>2022-02-15T10:16:48.000Z</time>
      </trkpt>
      <trkpt lat="43.53164" lon="5.57502">
        <ele>855</ele>
        <time>2022-02-15T10:16:49.000Z</time>
      </trkpt>
      <trkpt lat="43.53164" lon="5.57502">
        <ele>855</ele>
        <time>2022-02-15T10:16:50.000Z</time>
      </trkpt>
      <trkpt lat="43.53164" lon="5.57502">
        <ele>855</ele>
        <time>2022-02-15T10:16:51.000Z</time>
      </trkpt>
      <trkpt lat="43.53164" lon="5.57502">
        <ele>855</ele>
        <time>2022-02-15T10:16:52.000Z</time>
      </trkpt>
      <trkpt lat="43.53164" lon="5.57502">
        <ele>855</ele>
        <time>2022-02-15T10:16:53.000Z</time>
      </trkpt>
      <trkpt lat="43.53164" lon="5.57502">
        <ele>855</ele>
        <time>2022-02-15T10:16:54.000Z</time>
      </trkpt>
      <trkpt lat="43.53163" lon="5.57502">
        <ele>855</ele>
        <time>2022-02-15T10:16:55.000Z</time>
      </trkpt>
      <trkpt lat="43.53163" lon="5.57502">
        <ele>855</ele>
        <time>2022-02-15T10:16:56.000Z</time>
      </trkpt>
      <trkpt lat="43.53164" lon="5.57502">
        <ele>855</ele>
        <time>2022-02-15T10:16:57.000Z</time>
      </trkpt>
      <trkpt lat="43.53164" lon="5.57502">
        <ele>855</ele>
        <time>2022-02-15T10:16:58.000Z</time>
      </trkpt>
      <trkpt lat="43.53164" lon="5.57502">
        <ele>855</ele>
        <time>2022-02-15T10:16:59.000Z</time>
      </trkpt>
      <trkpt lat="43.53164" lon="5.57502">
        <ele>855</ele>
        <time>2022-02-15T10:17:00.000Z</time>
      </trkpt>
      <trkpt lat="43.53164" lon="5.57502">
        <ele>855</ele>
        <time>2022-02-15T10:17:01.000Z</time>
      </trkpt>
      <trkpt lat="43.53164" lon="5.57502">
        <ele>855</ele>
        <time>2022-02-15T10:17:02.000Z</time>
      </trkpt>
      <trkpt lat="43.53164" lon="5.57502">
        <ele>856</ele>
        <time>2022-02-15T10:17:03.000Z</time>
      </trkpt>
      <trkpt lat="43.53164" lon="5.57502">
        <ele>856</ele>
        <time>2022-02-15T10:17:04.000Z</time>
      </trkpt>
      <trkpt lat="43.53164" lon="5.57502">
        <ele>856</ele>
        <time>2022-02-15T10:17:05.000Z</time>
      </trkpt>
      <trkpt lat="43.53164" lon="5.57502">
        <ele>856</ele>
        <time>2022-02-15T10:17:06.000Z</time>
      </trkpt>
      <trkpt lat="43.53164" lon="5.57502">
        <ele>856</ele>
        <time>2022-02-15T10:17:07.000Z</time>
      </trkpt>
      <trkpt lat="43.53164" lon="5.57502">
        <ele>856</ele>
        <time>2022-02-15T10:17:08.000Z</time>
      </trkpt>
      <trkpt lat="43.53164" lon="5.57502">
        <ele>856</ele>
        <time>2022-02-15T10:17:09.000Z</time>
      </trkpt>
      <trkpt lat="43.53164" lon="5.57502">
        <ele>856</ele>
        <time>2022-02-15T10:17:10.000Z</time>
      </trkpt>
      <trkpt lat="43.53164" lon="5.57502">
        <ele>857</ele>
        <time>2022-02-15T10:17:11.000Z</time>
      </trkpt>
      <trkpt lat="43.53164" lon="5.57502">
        <ele>857</ele>
        <time>2022-02-15T10:17:12.000Z</time>
      </trkpt>
      <trkpt lat="43.53164" lon="5.57502">
        <ele>857</ele>
        <time>2022-02-15T10:17:13.000Z</time>
      </trkpt>
      <trkpt lat="43.53164" lon="5.57502">
        <ele>857</ele>
        <time>2022-02-15T10:17:14.000Z</time>
      </trkpt>
      <trkpt lat="43.53164" lon="5.57502">
        <ele>857</ele>
        <time>2022-02-15T10:17:15.000Z</time>
      </trkpt>
      <trkpt lat="43.53164" lon="5.57502">
        <ele>857</ele>
        <time>2022-02-15T10:17:16.000Z</time>
      </trkpt>
      <trkpt lat="43.53164" lon="5.57502">
        <ele>857</ele>
        <time>2022-02-15T10:17:17.000Z</time>
      </trkpt>
      <trkpt lat="43.53164" lon="5.57502">
        <ele>857</ele>
        <time>2022-02-15T10:17:18.000Z</time>
      </trkpt>
      <trkpt lat="43.53164" lon="5.57502">
        <ele>857</ele>
        <time>2022-02-15T10:17:19.000Z</time>
      </trkpt>
      <trkpt lat="43.53164" lon="5.57502">
        <ele>857</ele>
        <time>2022-02-15T10:17:20.000Z</time>
      </trkpt>
      <trkpt lat="43.53164" lon="5.57502">
        <ele>857</ele>
        <time>2022-02-15T10:17:21.000Z</time>
      </trkpt>
      <trkpt lat="43.53164" lon="5.57503">
        <ele>857</ele>
        <time>2022-02-15T10:17:22.000Z</time>
      </trkpt>
      <trkpt lat="43.53164" lon="5.57503">
        <ele>857</ele>
        <time>2022-02-15T10:17:23.000Z</time>
      </trkpt>
      <trkpt lat="43.53164" lon="5.57503">
        <ele>857</ele>
        <time>2022-02-15T10:17:24.000Z</time>
      </trkpt>
      <trkpt lat="43.53164" lon="5.57503">
        <ele>857</ele>
        <time>2022-02-15T10:17:25.000Z</time>
      </trkpt>
      <trkpt lat="43.53164" lon="5.57503">
        <ele>858</ele>
        <time>2022-02-15T10:17:26.000Z</time>
      </trkpt>
      <trkpt lat="43.53164" lon="5.57503">
        <ele>858</ele>
        <time>2022-02-15T10:17:27.000Z</time>
      </trkpt>
      <trkpt lat="43.53164" lon="5.57503">
        <ele>858</ele>
        <time>2022-02-15T10:17:28.000Z</time>
      </trkpt>
      <trkpt lat="43.53164" lon="5.57503">
        <ele>858</ele>
        <time>2022-02-15T10:17:29.000Z</time>
      </trkpt>
      <trkpt lat="43.53164" lon="5.57504">
        <ele>858</ele>
        <time>2022-02-15T10:17:30.000Z</time>
      </trkpt>
      <trkpt lat="43.53164" lon="5.57504">
        <ele>858</ele>
        <time>2022-02-15T10:17:31.000Z</time>
      </trkpt>
      <trkpt lat="43.53164" lon="5.57504">
        <ele>858</ele>
        <time>2022-02-15T10:17:32.000Z</time>
      </trkpt>
      <trkpt lat="43.53164" lon="5.57504">
        <ele>858</ele>
        <time>2022-02-15T10:17:33.000Z</time>
      </trkpt>
      <trkpt lat="43.53164" lon="5.57504">
        <ele>858</ele>
        <time>2022-02-15T10:17:34.000Z</time>
      </trkpt>
      <trkpt lat="43.53164" lon="5.57504">
        <ele>858</ele>
        <time>2022-02-15T10:17:35.000Z</time>
      </trkpt>
      <trkpt lat="43.53165" lon="5.57504">
        <ele>858</ele>
        <time>2022-02-15T10:17:36.000Z</time>
      </trkpt>
      <trkpt lat="43.53165" lon="5.57504">
        <ele>858</ele>
        <time>2022-02-15T10:17:37.000Z</time>
      </trkpt>
      <trkpt lat="43.53164" lon="5.57504">
        <ele>858</ele>
        <time>2022-02-15T10:17:38.000Z</time>
      </trkpt>
      <trkpt lat="43.53164" lon="5.57504">
        <ele>858</ele>
        <time>2022-02-15T10:17:39.000Z</time>
      </trkpt>
      <trkpt lat="43.53164" lon="5.57504">
        <ele>858</ele>
        <time>2022-02-15T10:17:40.000Z</time>
      </trkpt>
      <trkpt lat="43.53164" lon="5.57504">
        <ele>858</ele>
        <time>2022-02-15T10:17:41.000Z</time>
      </trkpt>
      <trkpt lat="43.53164" lon="5.57504">
        <ele>858</ele>
        <time>2022-02-15T10:17:42.000Z</time>
      </trkpt>
      <trkpt lat="43.53165" lon="5.57505">
        <ele>858</ele>
        <time>2022-02-15T10:17:43.000Z</time>
      </trkpt>
      <trkpt lat="43.53165" lon="5.57505">
        <ele>859</ele>
        <time>2022-02-15T10:17:44.000Z</time>
      </trkpt>
      <trkpt lat="43.53165" lon="5.57505">
        <ele>859</ele>
        <time>2022-02-15T10:17:45.000Z</time>
      </trkpt>
      <trkpt lat="43.53165" lon="5.57505">
        <ele>859</ele>
        <time>2022-02-15T10:17:46.000Z</time>
      </trkpt>
      <trkpt lat="43.53165" lon="5.57505">
        <ele>859</ele>
        <time>2022-02-15T10:17:47.000Z</time>
      </trkpt>
      <trkpt lat="43.53165" lon="5.57505">
        <ele>859</ele>
        <time>2022-02-15T10:17:48.000Z</time>
      </trkpt>
      <trkpt lat="43.53165" lon="5.57505">
        <ele>859</ele>
        <time>2022-02-15T10:17:49.000Z</time>
      </trkpt>
      <trkpt lat="43.53165" lon="5.57505">
        <ele>859</ele>
        <time>2022-02-15T10:17:50.000Z</time>
      </trkpt>
      <trkpt lat="43.53165" lon="5.57505">
        <ele>859</ele>
        <time>2022-02-15T10:17:51.000Z</time>
      </trkpt>
      <trkpt lat="43.53166" lon="5.57505">
        <ele>860</ele>
        <time>2022-02-15T10:17:52.000Z</time>
      </trkpt>
      <trkpt lat="43.53166" lon="5.57505">
        <ele>860</ele>
        <time>2022-02-15T10:17:53.000Z</time>
      </trkpt>
      <trkpt lat="43.53166" lon="5.57505">
        <ele>860</ele>
        <time>2022-02-15T10:17:54.000Z</time>
      </trkpt>
      <trkpt lat="43.53166" lon="5.57505">
        <ele>860</ele>
        <time>2022-02-15T10:17:55.000Z</time>
      </trkpt>
      <trkpt lat="43.53167" lon="5.57505">
        <ele>861</ele>
        <time>2022-02-15T10:17:56.000Z</time>
      </trkpt>
      <trkpt lat="43.53167" lon="5.57505">
        <ele>861</ele>
        <time>2022-02-15T10:17:57.000Z</time>
      </trkpt>
      <trkpt lat="43.53167" lon="5.57505">
        <ele>861</ele>
        <time>2022-02-15T10:17:58.000Z</time>
      </trkpt>
      <trkpt lat="43.53167" lon="5.57504">
        <ele>861</ele>
        <time>2022-02-15T10:17:59.000Z</time>
      </trkpt>
      <trkpt lat="43.53168" lon="5.57504">
        <ele>862</ele>
        <time>2022-02-15T10:18:00.000Z</time>
      </trkpt>
      <trkpt lat="43.53168" lon="5.57504">
        <ele>862</ele>
        <time>2022-02-15T10:18:01.000Z</time>
      </trkpt>
      <trkpt lat="43.53168" lon="5.57504">
        <ele>862</ele>
        <time>2022-02-15T10:18:02.000Z</time>
      </trkpt>
      <trkpt lat="43.53168" lon="5.57504">
        <ele>862</ele>
        <time>2022-02-15T10:18:03.000Z</time>
      </trkpt>
      <trkpt lat="43.53168" lon="5.57504">
        <ele>862</ele>
        <time>2022-02-15T10:18:04.000Z</time>
      </trkpt>
      <trkpt lat="43.53168" lon="5.57504">
        <ele>862</ele>
        <time>2022-02-15T10:18:05.000Z</time>
      </trkpt>
      <trkpt lat="43.53168" lon="5.57504">
        <ele>862</ele>
        <time>2022-02-15T10:18:06.000Z</time>
      </trkpt>
      <trkpt lat="43.53168" lon="5.57504">
        <ele>862</ele>
        <time>2022-02-15T10:18:07.000Z</time>
      </trkpt>
      <trkpt lat="43.53168" lon="5.57504">
        <ele>863</ele>
        <time>2022-02-15T10:18:08.000Z</time>
      </trkpt>
      <trkpt lat="43.53169" lon="5.57504">
        <ele>863</ele>
        <time>2022-02-15T10:18:09.000Z</time>
      </trkpt>
      <trkpt lat="43.53169" lon="5.57504">
        <ele>863</ele>
        <time>2022-02-15T10:18:10.000Z</time>
      </trkpt>
      <trkpt lat="43.53169" lon="5.57504">
        <ele>863</ele>
        <time>2022-02-15T10:18:11.000Z</time>
      </trkpt>
      <trkpt lat="43.53169" lon="5.57504">
        <ele>863</ele>
        <time>2022-02-15T10:18:12.000Z</time>
      </trkpt>
      <trkpt lat="43.53169" lon="5.57503">
        <ele>863</ele>
        <time>2022-02-15T10:18:13.000Z</time>
      </trkpt>
      <trkpt lat="43.53169" lon="5.57503">
        <ele>863</ele>
        <time>2022-02-15T10:18:14.000Z</time>
      </trkpt>
      <trkpt lat="43.53169" lon="5.57503">
        <ele>863</ele>
        <time>2022-02-15T10:18:15.000Z</time>
      </trkpt>
      <trkpt lat="43.53169" lon="5.57503">
        <ele>863</ele>
        <time>2022-02-15T10:18:16.000Z</time>
      </trkpt>
      <trkpt lat="43.53169" lon="5.57503">
        <ele>863</ele>
        <time>2022-02-15T10:18:17.000Z</time>
      </trkpt>
      <trkpt lat="43.53169" lon="5.57503">
        <ele>863</ele>
        <time>2022-02-15T10:18:18.000Z</time>
      </trkpt>
      <trkpt lat="43.53169" lon="5.57503">
        <ele>863</ele>
        <time>2022-02-15T10:18:19.000Z</time>
      </trkpt>
      <trkpt lat="43.53169" lon="5.57503">
        <ele>863</ele>
        <time>2022-02-15T10:18:20.000Z</time>
      </trkpt>
      <trkpt lat="43.53169" lon="5.57503">
        <ele>864</ele>
        <time>2022-02-15T10:18:21.000Z</time>
      </trkpt>
      <trkpt lat="43.53169" lon="5.57503">
        <ele>864</ele>
        <time>2022-02-15T10:18:22.000Z</time>
      </trkpt>
      <trkpt lat="43.53169" lon="5.57503">
        <ele>864</ele>
        <time>2022-02-15T10:18:23.000Z</time>
      </trkpt>
      <trkpt lat="43.53169" lon="5.57503">
        <ele>864</ele>
        <time>2022-02-15T10:18:24.000Z</time>
      </trkpt>
      <trkpt lat="43.53169" lon="5.57503">
        <ele>864</ele>
        <time>2022-02-15T10:18:25.000Z</time>
      </trkpt>
      <trkpt lat="43.53169" lon="5.57503">
        <ele>864</ele>
        <time>2022-02-15T10:18:26.000Z</time>
      </trkpt>
      <trkpt lat="43.53169" lon="5.57503">
        <ele>864</ele>
        <time>2022-02-15T10:18:27.000Z</time>
      </trkpt>
      <trkpt lat="43.53169" lon="5.57503">
        <ele>864</ele>
        <time>2022-02-15T10:18:28.000Z</time>
      </trkpt>
      <trkpt lat="43.53169" lon="5.57503">
        <ele>864</ele>
        <time>2022-02-15T10:18:29.000Z</time>
      </trkpt>
      <trkpt lat="43.53169" lon="5.57503">
        <ele>864</ele>
        <time>2022-02-15T10:18:30.000Z</time>
      </trkpt>
      <trkpt lat="43.53169" lon="5.57503">
        <ele>864</ele>
        <time>2022-02-15T10:18:31.000Z</time>
      </trkpt>
      <trkpt lat="43.53169" lon="5.57503">
        <ele>864</ele>
        <time>2022-02-15T10:18:32.000Z</time>
      </trkpt>
      <trkpt lat="43.53169" lon="5.57503">
        <ele>864</ele>
        <time>2022-02-15T10:18:33.000Z</time>
      </trkpt>
      <trkpt lat="43.53169" lon="5.57503">
        <ele>864</ele>
        <time>2022-02-15T10:18:34.000Z</time>
      </trkpt>
      <trkpt lat="43.53169" lon="5.57503">
        <ele>864</ele>
        <time>2022-02-15T10:18:35.000Z</time>
      </trkpt>
      <trkpt lat="43.53169" lon="5.57503">
        <ele>864</ele>
        <time>2022-02-15T10:18:36.000Z</time>
      </trkpt>
      <trkpt lat="43.53169" lon="5.57503">
        <ele>864</ele>
        <time>2022-02-15T10:18:37.000Z</time>
      </trkpt>
      <trkpt lat="43.53169" lon="5.57503">
        <ele>864</ele>
        <time>2022-02-15T10:18:38.000Z</time>
      </trkpt>
      <trkpt lat="43.53169" lon="5.57503">
        <ele>864</ele>
        <time>2022-02-15T10:18:39.000Z</time>
      </trkpt>
      <trkpt lat="43.53169" lon="5.57503">
        <ele>864</ele>
        <time>2022-02-15T10:18:40.000Z</time>
      </trkpt>
      <trkpt lat="43.53169" lon="5.57502">
        <ele>864</ele>
        <time>2022-02-15T10:18:41.000Z</time>
      </trkpt>
      <trkpt lat="43.53169" lon="5.57502">
        <ele>864</ele>
        <time>2022-02-15T10:18:42.000Z</time>
      </trkpt>
      <trkpt lat="43.53169" lon="5.57502">
        <ele>864</ele>
        <time>2022-02-15T10:18:43.000Z</time>
      </trkpt>
      <trkpt lat="43.53169" lon="5.57502">
        <ele>864</ele>
        <time>2022-02-15T10:18:44.000Z</time>
      </trkpt>
      <trkpt lat="43.53169" lon="5.57502">
        <ele>864</ele>
        <time>2022-02-15T10:18:45.000Z</time>
      </trkpt>
      <trkpt lat="43.53169" lon="5.57502">
        <ele>864</ele>
        <time>2022-02-15T10:18:46.000Z</time>
      </trkpt>
      <trkpt lat="43.53169" lon="5.57502">
        <ele>864</ele>
        <time>2022-02-15T10:18:47.000Z</time>
      </trkpt>
      <trkpt lat="43.53169" lon="5.57502">
        <ele>864</ele>
        <time>2022-02-15T10:18:48.000Z</time>
      </trkpt>
      <trkpt lat="43.53169" lon="5.57502">
        <ele>864</ele>
        <time>2022-02-15T10:18:49.000Z</time>
      </trkpt>
      <trkpt lat="43.53169" lon="5.57502">
        <ele>864</ele>
        <time>2022-02-15T10:18:50.000Z</time>
      </trkpt>
      <trkpt lat="43.53169" lon="5.57502">
        <ele>864</ele>
        <time>2022-02-15T10:18:51.000Z</time>
      </trkpt>
      <trkpt lat="43.53169" lon="5.57502">
        <ele>864</ele>
        <time>2022-02-15T10:18:52.000Z</time>
      </trkpt>
      <trkpt lat="43.53169" lon="5.57502">
        <ele>864</ele>
        <time>2022-02-15T10:18:53.000Z</time>
      </trkpt>
      <trkpt lat="43.53169" lon="5.57502">
        <ele>864</ele>
        <time>2022-02-15T10:18:54.000Z</time>
      </trkpt>
      <trkpt lat="43.53169" lon="5.57502">
        <ele>864</ele>
        <time>2022-02-15T10:18:55.000Z</time>
      </trkpt>
      <trkpt lat="43.53169" lon="5.57502">
        <ele>864</ele>
        <time>2022-02-15T10:18:56.000Z</time>
      </trkpt>
      <trkpt lat="43.53169" lon="5.57501">
        <ele>864</ele>
        <time>2022-02-15T10:18:57.000Z</time>
      </trkpt>
      <trkpt lat="43.53169" lon="5.57501">
        <ele>864</ele>
        <time>2022-02-15T10:18:58.000Z</time>
      </trkpt>
      <trkpt lat="43.53169" lon="5.57501">
        <ele>864</ele>
        <time>2022-02-15T10:18:59.000Z</time>
      </trkpt>
      <trkpt lat="43.53169" lon="5.57501">
        <ele>864</ele>
        <time>2022-02-15T10:19:00.000Z</time>
      </trkpt>
      <trkpt lat="43.53169" lon="5.57501">
        <ele>864</ele>
        <time>2022-02-15T10:19:01.000Z</time>
      </trkpt>
      <trkpt lat="43.53169" lon="5.57501">
        <ele>864</ele>
        <time>2022-02-15T10:19:02.000Z</time>
      </trkpt>
      <trkpt lat="43.53169" lon="5.57501">
        <ele>864</ele>
        <time>2022-02-15T10:19:03.000Z</time>
      </trkpt>
      <trkpt lat="43.53169" lon="5.57501">
        <ele>864</ele>
        <time>2022-02-15T10:19:04.000Z</time>
      </trkpt>
      <trkpt lat="43.53169" lon="5.57501">
        <ele>864</ele>
        <time>2022-02-15T10:19:05.000Z</time>
      </trkpt>
      <trkpt lat="43.53169" lon="5.57501">
        <ele>864</ele>
        <time>2022-02-15T10:19:06.000Z</time>
      </trkpt>
      <trkpt lat="43.53169" lon="5.57501">
        <ele>864</ele>
        <time>2022-02-15T10:19:07.000Z</time>
      </trkpt>
      <trkpt lat="43.53169" lon="5.57501">
        <ele>864</ele>
        <time>2022-02-15T10:19:08.000Z</time>
      </trkpt>
      <trkpt lat="43.53169" lon="5.57501">
        <ele>864</ele>
        <time>2022-02-15T10:19:09.000Z</time>
      </trkpt>
      <trkpt lat="43.53169" lon="5.57501">
        <ele>864</ele>
        <time>2022-02-15T10:19:10.000Z</time>
      </trkpt>
      <trkpt lat="43.53168" lon="5.57501">
        <ele>864</ele>
        <time>2022-02-15T10:19:11.000Z</time>
      </trkpt>
      <trkpt lat="43.53168" lon="5.57501">
        <ele>864</ele>
        <time>2022-02-15T10:19:12.000Z</time>
      </trkpt>
      <trkpt lat="43.53168" lon="5.57501">
        <ele>864</ele>
        <time>2022-02-15T10:19:13.000Z</time>
      </trkpt>
      <trkpt lat="43.53168" lon="5.57501">
        <ele>864</ele>
        <time>2022-02-15T10:19:14.000Z</time>
      </trkpt>
      <trkpt lat="43.53168" lon="5.57501">
        <ele>864</ele>
        <time>2022-02-15T10:19:15.000Z</time>
      </trkpt>
      <trkpt lat="43.53169" lon="5.57501">
        <ele>864</ele>
        <time>2022-02-15T10:19:16.000Z</time>
      </trkpt>
      <trkpt lat="43.53169" lon="5.575">
        <ele>864</ele>
        <time>2022-02-15T10:19:17.000Z</time>
      </trkpt>
      <trkpt lat="43.53169" lon="5.575">
        <ele>864</ele>
        <time>2022-02-15T10:19:18.000Z</time>
      </trkpt>
      <trkpt lat="43.53169" lon="5.575">
        <ele>864</ele>
        <time>2022-02-15T10:19:19.000Z</time>
      </trkpt>
      <trkpt lat="43.53169" lon="5.575">
        <ele>864</ele>
        <time>2022-02-15T10:19:20.000Z</time>
      </trkpt>
      <trkpt lat="43.53169" lon="5.575">
        <ele>865</ele>
        <time>2022-02-15T10:19:21.000Z</time>
      </trkpt>
      <trkpt lat="43.53168" lon="5.575">
        <ele>865</ele>
        <time>2022-02-15T10:19:22.000Z</time>
      </trkpt>
      <trkpt lat="43.53168" lon="5.575">
        <ele>865</ele>
        <time>2022-02-15T10:19:23.000Z</time>
      </trkpt>
      <trkpt lat="43.53168" lon="5.575">
        <ele>865</ele>
        <time>2022-02-15T10:19:24.000Z</time>
      </trkpt>
      <trkpt lat="43.53168" lon="5.575">
        <ele>865</ele>
        <time>2022-02-15T10:19:25.000Z</time>
      </trkpt>
      <trkpt lat="43.53168" lon="5.575">
        <ele>865</ele>
        <time>2022-02-15T10:19:26.000Z</time>
      </trkpt>
      <trkpt lat="43.53168" lon="5.575">
        <ele>865</ele>
        <time>2022-02-15T10:19:27.000Z</time>
      </trkpt>
      <trkpt lat="43.53168" lon="5.575">
        <ele>865</ele>
        <time>2022-02-15T10:19:28.000Z</time>
      </trkpt>
      <trkpt lat="43.53168" lon="5.575">
        <ele>865</ele>
        <time>2022-02-15T10:19:29.000Z</time>
      </trkpt>
      <trkpt lat="43.53168" lon="5.575">
        <ele>865</ele>
        <time>2022-02-15T10:19:30.000Z</time>
      </trkpt>
      <trkpt lat="43.53168" lon="5.575">
        <ele>865</ele>
        <time>2022-02-15T10:19:31.000Z</time>
      </trkpt>
      <trkpt lat="43.53168" lon="5.575">
        <ele>865</ele>
        <time>2022-02-15T10:19:32.000Z</time>
      </trkpt>
      <trkpt lat="43.53168" lon="5.575">
        <ele>865</ele>
        <time>2022-02-15T10:19:33.000Z</time>
      </trkpt>
      <trkpt lat="43.53168" lon="5.575">
        <ele>865</ele>
        <time>2022-02-15T10:19:34.000Z</time>
      </trkpt>
      <trkpt lat="43.53168" lon="5.575">
        <ele>865</ele>
        <time>2022-02-15T10:19:35.000Z</time>
      </trkpt>
      <trkpt lat="43.53168" lon="5.575">
        <ele>865</ele>
        <time>2022-02-15T10:19:36.000Z</time>
      </trkpt>
      <trkpt lat="43.53168" lon="5.575">
        <ele>865</ele>
        <time>2022-02-15T10:19:37.000Z</time>
      </trkpt>
      <trkpt lat="43.53168" lon="5.575">
        <ele>865</ele>
        <time>2022-02-15T10:19:38.000Z</time>
      </trkpt>
      <trkpt lat="43.53168" lon="5.575">
        <ele>865</ele>
        <time>2022-02-15T10:19:39.000Z</time>
      </trkpt>
      <trkpt lat="43.53168" lon="5.575">
        <ele>865</ele>
        <time>2022-02-15T10:19:40.000Z</time>
      </trkpt>
      <trkpt lat="43.53168" lon="5.575">
        <ele>865</ele>
        <time>2022-02-15T10:19:41.000Z</time>
      </trkpt>
      <trkpt lat="43.53168" lon="5.575">
        <ele>865</ele>
        <time>2022-02-15T10:19:42.000Z</time>
      </trkpt>
      <trkpt lat="43.53168" lon="5.575">
        <ele>865</ele>
        <time>2022-02-15T10:19:43.000Z</time>
      </trkpt>
      <trkpt lat="43.53168" lon="5.575">
        <ele>865</ele>
        <time>2022-02-15T10:19:44.000Z</time>
      </trkpt>
      <trkpt lat="43.53169" lon="5.575">
        <ele>865</ele>
        <time>2022-02-15T10:19:45.000Z</time>
      </trkpt>
      <trkpt lat="43.53169" lon="5.575">
        <ele>865</ele>
        <time>2022-02-15T10:19:46.000Z</time>
      </trkpt>
      <trkpt lat="43.53169" lon="5.575">
        <ele>865</ele>
        <time>2022-02-15T10:19:47.000Z</time>
      </trkpt>
      <trkpt lat="43.53168" lon="5.575">
        <ele>865</ele>
        <time>2022-02-15T10:19:48.000Z</time>
      </trkpt>
      <trkpt lat="43.53168" lon="5.575">
        <ele>865</ele>
        <time>2022-02-15T10:19:49.000Z</time>
      </trkpt>
      <trkpt lat="43.53168" lon="5.575">
        <ele>865</ele>
        <time>2022-02-15T10:19:50.000Z</time>
      </trkpt>
      <trkpt lat="43.53168" lon="5.575">
        <ele>865</ele>
        <time>2022-02-15T10:19:51.000Z</time>
      </trkpt>
      <trkpt lat="43.53168" lon="5.575">
        <ele>865</ele>
        <time>2022-02-15T10:19:52.000Z</time>
      </trkpt>
      <trkpt lat="43.53168" lon="5.575">
        <ele>865</ele>
        <time>2022-02-15T10:19:53.000Z</time>
      </trkpt>
      <trkpt lat="43.53168" lon="5.575">
        <ele>865</ele>
        <time>2022-02-15T10:19:54.000Z</time>
      </trkpt>
      <trkpt lat="43.53168" lon="5.575">
        <ele>865</ele>
        <time>2022-02-15T10:19:55.000Z</time>
      </trkpt>
      <trkpt lat="43.53169" lon="5.575">
        <ele>866</ele>
        <time>2022-02-15T10:19:56.000Z</time>
      </trkpt>
      <trkpt lat="43.53169" lon="5.575">
        <ele>866</ele>
        <time>2022-02-15T10:19:57.000Z</time>
      </trkpt>
      <trkpt lat="43.53169" lon="5.575">
        <ele>866</ele>
        <time>2022-02-15T10:19:58.000Z</time>
      </trkpt>
      <trkpt lat="43.53169" lon="5.57499">
        <ele>866</ele>
        <time>2022-02-15T10:19:59.000Z</time>
      </trkpt>
      <trkpt lat="43.53169" lon="5.57499">
        <ele>866</ele>
        <time>2022-02-15T10:20:00.000Z</time>
      </trkpt>
      <trkpt lat="43.53169" lon="5.57499">
        <ele>866</ele>
        <time>2022-02-15T10:20:01.000Z</time>
      </trkpt>
      <trkpt lat="43.53169" lon="5.57499">
        <ele>866</ele>
        <time>2022-02-15T10:20:02.000Z</time>
      </trkpt>
      <trkpt lat="43.53169" lon="5.57499">
        <ele>866</ele>
        <time>2022-02-15T10:20:03.000Z</time>
      </trkpt>
      <trkpt lat="43.53169" lon="5.57499">
        <ele>866</ele>
        <time>2022-02-15T10:20:04.000Z</time>
      </trkpt>
      <trkpt lat="43.53169" lon="5.57499">
        <ele>866</ele>
        <time>2022-02-15T10:20:05.000Z</time>
      </trkpt>
      <trkpt lat="43.53169" lon="5.57499">
        <ele>866</ele>
        <time>2022-02-15T10:20:06.000Z</time>
      </trkpt>
      <trkpt lat="43.53169" lon="5.57499">
        <ele>866</ele>
        <time>2022-02-15T10:20:07.000Z</time>
      </trkpt>
      <trkpt lat="43.53169" lon="5.57499">
        <ele>866</ele>
        <time>2022-02-15T10:20:08.000Z</time>
      </trkpt>
      <trkpt lat="43.53169" lon="5.57499">
        <ele>866</ele>
        <time>2022-02-15T10:20:09.000Z</time>
      </trkpt>
      <trkpt lat="43.5317" lon="5.57499">
        <ele>866</ele>
        <time>2022-02-15T10:20:10.000Z</time>
      </trkpt>
      <trkpt lat="43.5317" lon="5.57499">
        <ele>866</ele>
        <time>2022-02-15T10:20:11.000Z</time>
      </trkpt>
      <trkpt lat="43.5317" lon="5.57499">
        <ele>866</ele>
        <time>2022-02-15T10:20:12.000Z</time>
      </trkpt>
      <trkpt lat="43.5317" lon="5.57499">
        <ele>866</ele>
        <time>2022-02-15T10:20:13.000Z</time>
      </trkpt>
      <trkpt lat="43.5317" lon="5.57499">
        <ele>866</ele>
        <time>2022-02-15T10:20:14.000Z</time>
      </trkpt>
      <trkpt lat="43.5317" lon="5.57499">
        <ele>866</ele>
        <time>2022-02-15T10:20:15.000Z</time>
      </trkpt>
      <trkpt lat="43.5317" lon="5.57499">
        <ele>866</ele>
        <time>2022-02-15T10:20:16.000Z</time>
      </trkpt>
      <trkpt lat="43.5317" lon="5.57499">
        <ele>866</ele>
        <time>2022-02-15T10:20:17.000Z</time>
      </trkpt>
      <trkpt lat="43.5317" lon="5.57499">
        <ele>866</ele>
        <time>2022-02-15T10:20:18.000Z</time>
      </trkpt>
      <trkpt lat="43.5317" lon="5.57499">
        <ele>866</ele>
        <time>2022-02-15T10:20:19.000Z</time>
      </trkpt>
      <trkpt lat="43.5317" lon="5.57499">
        <ele>866</ele>
        <time>2022-02-15T10:20:20.000Z</time>
      </trkpt>
      <trkpt lat="43.5317" lon="5.57499">
        <ele>866</ele>
        <time>2022-02-15T10:20:21.000Z</time>
      </trkpt>
      <trkpt lat="43.5317" lon="5.57499">
        <ele>866</ele>
        <time>2022-02-15T10:20:22.000Z</time>
      </trkpt>
      <trkpt lat="43.5317" lon="5.57499">
        <ele>866</ele>
        <time>2022-02-15T10:20:23.000Z</time>
      </trkpt>
      <trkpt lat="43.5317" lon="5.57499">
        <ele>866</ele>
        <time>2022-02-15T10:20:24.000Z</time>
      </trkpt>
      <trkpt lat="43.5317" lon="5.57499">
        <ele>866</ele>
        <time>2022-02-15T10:20:25.000Z</time>
      </trkpt>
      <trkpt lat="43.5317" lon="5.57499">
        <ele>866</ele>
        <time>2022-02-15T10:20:26.000Z</time>
      </trkpt>
      <trkpt lat="43.5317" lon="5.57499">
        <ele>866</ele>
        <time>2022-02-15T10:20:27.000Z</time>
      </trkpt>
      <trkpt lat="43.5317" lon="5.57499">
        <ele>866</ele>
        <time>2022-02-15T10:20:28.000Z</time>
      </trkpt>
      <trkpt lat="43.5317" lon="5.57499">
        <ele>866</ele>
        <time>2022-02-15T10:20:29.000Z</time>
      </trkpt>
      <trkpt lat="43.5317" lon="5.57499">
        <ele>866</ele>
        <time>2022-02-15T10:20:30.000Z</time>
      </trkpt>
      <trkpt lat="43.5317" lon="5.57499">
        <ele>866</ele>
        <time>2022-02-15T10:20:31.000Z</time>
      </trkpt>
      <trkpt lat="43.5317" lon="5.57499">
        <ele>866</ele>
        <time>2022-02-15T10:20:32.000Z</time>
      </trkpt>
      <trkpt lat="43.53171" lon="5.57499">
        <ele>866</ele>
        <time>2022-02-15T10:20:33.000Z</time>
      </trkpt>
      <trkpt lat="43.53171" lon="5.57499">
        <ele>867</ele>
        <time>2022-02-15T10:20:34.000Z</time>
      </trkpt>
      <trkpt lat="43.53171" lon="5.57499">
        <ele>867</ele>
        <time>2022-02-15T10:20:35.000Z</time>
      </trkpt>
      <trkpt lat="43.53171" lon="5.57499">
        <ele>867</ele>
        <time>2022-02-15T10:20:36.000Z</time>
      </trkpt>
      <trkpt lat="43.53171" lon="5.57499">
        <ele>867</ele>
        <time>2022-02-15T10:20:37.000Z</time>
      </trkpt>
      <trkpt lat="43.53171" lon="5.57499">
        <ele>867</ele>
        <time>2022-02-15T10:20:38.000Z</time>
      </trkpt>
      <trkpt lat="43.53171" lon="5.57499">
        <ele>867</ele>
        <time>2022-02-15T10:20:39.000Z</time>
      </trkpt>
      <trkpt lat="43.53171" lon="5.57499">
        <ele>867</ele>
        <time>2022-02-15T10:20:40.000Z</time>
      </trkpt>
      <trkpt lat="43.53171" lon="5.57499">
        <ele>867</ele>
        <time>2022-02-15T10:20:41.000Z</time>
      </trkpt>
      <trkpt lat="43.53171" lon="5.57499">
        <ele>867</ele>
        <time>2022-02-15T10:20:42.000Z</time>
      </trkpt>
      <trkpt lat="43.53171" lon="5.57499">
        <ele>867</ele>
        <time>2022-02-15T10:20:43.000Z</time>
      </trkpt>
      <trkpt lat="43.53171" lon="5.57499">
        <ele>867</ele>
        <time>2022-02-15T10:20:44.000Z</time>
      </trkpt>
      <trkpt lat="43.53171" lon="5.57499">
        <ele>867</ele>
        <time>2022-02-15T10:20:45.000Z</time>
      </trkpt>
      <trkpt lat="43.53171" lon="5.57499">
        <ele>867</ele>
        <time>2022-02-15T10:20:46.000Z</time>
      </trkpt>
      <trkpt lat="43.53171" lon="5.57499">
        <ele>867</ele>
        <time>2022-02-15T10:20:47.000Z</time>
      </trkpt>
      <trkpt lat="43.53171" lon="5.57499">
        <ele>867</ele>
        <time>2022-02-15T10:20:48.000Z</time>
      </trkpt>
      <trkpt lat="43.53171" lon="5.57499">
        <ele>867</ele>
        <time>2022-02-15T10:20:49.000Z</time>
      </trkpt>
      <trkpt lat="43.53171" lon="5.57499">
        <ele>867</ele>
        <time>2022-02-15T10:20:50.000Z</time>
      </trkpt>
      <trkpt lat="43.53171" lon="5.57499">
        <ele>867</ele>
        <time>2022-02-15T10:20:51.000Z</time>
      </trkpt>
      <trkpt lat="43.53171" lon="5.57499">
        <ele>867</ele>
        <time>2022-02-15T10:20:52.000Z</time>
      </trkpt>
      <trkpt lat="43.53171" lon="5.57499">
        <ele>867</ele>
        <time>2022-02-15T10:20:53.000Z</time>
      </trkpt>
      <trkpt lat="43.53171" lon="5.57499">
        <ele>867</ele>
        <time>2022-02-15T10:20:54.000Z</time>
      </trkpt>
      <trkpt lat="43.53171" lon="5.57499">
        <ele>867</ele>
        <time>2022-02-15T10:20:55.000Z</time>
      </trkpt>
      <trkpt lat="43.53171" lon="5.57499">
        <ele>867</ele>
        <time>2022-02-15T10:20:56.000Z</time>
      </trkpt>
      <trkpt lat="43.53171" lon="5.57499">
        <ele>867</ele>
        <time>2022-02-15T10:20:57.000Z</time>
      </trkpt>
      <trkpt lat="43.53171" lon="5.57499">
        <ele>867</ele>
        <time>2022-02-15T10:20:58.000Z</time>
      </trkpt>
      <trkpt lat="43.53171" lon="5.57499">
        <ele>867</ele>
        <time>2022-02-15T10:20:59.000Z</time>
      </trkpt>
      <trkpt lat="43.53171" lon="5.57499">
        <ele>867</ele>
        <time>2022-02-15T10:21:00.000Z</time>
      </trkpt>
      <trkpt lat="43.53171" lon="5.57499">
        <ele>867</ele>
        <time>2022-02-15T10:21:01.000Z</time>
      </trkpt>
      <trkpt lat="43.53171" lon="5.57499">
        <ele>867</ele>
        <time>2022-02-15T10:21:02.000Z</time>
      </trkpt>
      <trkpt lat="43.53171" lon="5.57499">
        <ele>867</ele>
        <time>2022-02-15T10:21:03.000Z</time>
      </trkpt>
      <trkpt lat="43.53171" lon="5.57499">
        <ele>867</ele>
        <time>2022-02-15T10:21:04.000Z</time>
      </trkpt>
      <trkpt lat="43.53171" lon="5.57499">
        <ele>867</ele>
        <time>2022-02-15T10:21:05.000Z</time>
      </trkpt>
      <trkpt lat="43.53171" lon="5.57499">
        <ele>867</ele>
        <time>2022-02-15T10:21:06.000Z</time>
      </trkpt>
      <trkpt lat="43.53171" lon="5.57499">
        <ele>867</ele>
        <time>2022-02-15T10:21:07.000Z</time>
      </trkpt>
      <trkpt lat="43.53171" lon="5.57499">
        <ele>867</ele>
        <time>2022-02-15T10:21:08.000Z</time>
      </trkpt>
      <trkpt lat="43.53171" lon="5.57499">
        <ele>867</ele>
        <time>2022-02-15T10:21:09.000Z</time>
      </trkpt>
      <trkpt lat="43.53171" lon="5.57499">
        <ele>867</ele>
        <time>2022-02-15T10:21:10.000Z</time>
      </trkpt>
      <trkpt lat="43.53171" lon="5.57499">
        <ele>867</ele>
        <time>2022-02-15T10:21:11.000Z</time>
      </trkpt>
      <trkpt lat="43.53171" lon="5.57499">
        <ele>867</ele>
        <time>2022-02-15T10:21:12.000Z</time>
      </trkpt>
      <trkpt lat="43.53171" lon="5.57499">
        <ele>867</ele>
        <time>2022-02-15T10:21:13.000Z</time>
      </trkpt>
      <trkpt lat="43.53171" lon="5.57499">
        <ele>867</ele>
        <time>2022-02-15T10:21:14.000Z</time>
      </trkpt>
      <trkpt lat="43.53171" lon="5.57499">
        <ele>867</ele>
        <time>2022-02-15T10:21:15.000Z</time>
      </trkpt>
      <trkpt lat="43.53171" lon="5.57499">
        <ele>867</ele>
        <time>2022-02-15T10:21:16.000Z</time>
      </trkpt>
      <trkpt lat="43.53171" lon="5.57499">
        <ele>867</ele>
        <time>2022-02-15T10:21:17.000Z</time>
      </trkpt>
      <trkpt lat="43.53172" lon="5.57499">
        <ele>867</ele>
        <time>2022-02-15T10:21:18.000Z</time>
      </trkpt>
      <trkpt lat="43.53172" lon="5.57499">
        <ele>867</ele>
        <time>2022-02-15T10:21:19.000Z</time>
      </trkpt>
      <trkpt lat="43.53172" lon="5.575">
        <ele>867</ele>
        <time>2022-02-15T10:21:20.000Z</time>
      </trkpt>
      <trkpt lat="43.53172" lon="5.57499">
        <ele>868</ele>
        <time>2022-02-15T10:21:21.000Z</time>
      </trkpt>
      <trkpt lat="43.53172" lon="5.57499">
        <ele>868</ele>
        <time>2022-02-15T10:21:22.000Z</time>
      </trkpt>
      <trkpt lat="43.53172" lon="5.57499">
        <ele>868</ele>
        <time>2022-02-15T10:21:23.000Z</time>
      </trkpt>
      <trkpt lat="43.53172" lon="5.57499">
        <ele>868</ele>
        <time>2022-02-15T10:21:24.000Z</time>
      </trkpt>
      <trkpt lat="43.53172" lon="5.57499">
        <ele>868</ele>
        <time>2022-02-15T10:21:25.000Z</time>
      </trkpt>
      <trkpt lat="43.53172" lon="5.57499">
        <ele>868</ele>
        <time>2022-02-15T10:21:26.000Z</time>
      </trkpt>
      <trkpt lat="43.53172" lon="5.57499">
        <ele>868</ele>
        <time>2022-02-15T10:21:27.000Z</time>
      </trkpt>
      <trkpt lat="43.53172" lon="5.57499">
        <ele>868</ele>
        <time>2022-02-15T10:21:28.000Z</time>
      </trkpt>
      <trkpt lat="43.53172" lon="5.57499">
        <ele>868</ele>
        <time>2022-02-15T10:21:29.000Z</time>
      </trkpt>
      <trkpt lat="43.53172" lon="5.57499">
        <ele>868</ele>
        <time>2022-02-15T10:21:30.000Z</time>
      </trkpt>
      <trkpt lat="43.53172" lon="5.57499">
        <ele>868</ele>
        <time>2022-02-15T10:21:31.000Z</time>
      </trkpt>
      <trkpt lat="43.53172" lon="5.57499">
        <ele>868</ele>
        <time>2022-02-15T10:21:32.000Z</time>
      </trkpt>
      <trkpt lat="43.53172" lon="5.57499">
        <ele>868</ele>
        <time>2022-02-15T10:21:33.000Z</time>
      </trkpt>
      <trkpt lat="43.53172" lon="5.57499">
        <ele>868</ele>
        <time>2022-02-15T10:21:34.000Z</time>
      </trkpt>
      <trkpt lat="43.53172" lon="5.57499">
        <ele>868</ele>
        <time>2022-02-15T10:21:35.000Z</time>
      </trkpt>
      <trkpt lat="43.53172" lon="5.57499">
        <ele>868</ele>
        <time>2022-02-15T10:21:36.000Z</time>
      </trkpt>
      <trkpt lat="43.53172" lon="5.57499">
        <ele>868</ele>
        <time>2022-02-15T10:21:37.000Z</time>
      </trkpt>
      <trkpt lat="43.53172" lon="5.57499">
        <ele>868</ele>
        <time>2022-02-15T10:21:38.000Z</time>
      </trkpt>
      <trkpt lat="43.53172" lon="5.57499">
        <ele>868</ele>
        <time>2022-02-15T10:21:39.000Z</time>
      </trkpt>
      <trkpt lat="43.53172" lon="5.57499">
        <ele>868</ele>
        <time>2022-02-15T10:21:40.000Z</time>
      </trkpt>
      <trkpt lat="43.53172" lon="5.57499">
        <ele>868</ele>
        <time>2022-02-15T10:21:41.000Z</time>
      </trkpt>
      <trkpt lat="43.53172" lon="5.57499">
        <ele>868</ele>
        <time>2022-02-15T10:21:42.000Z</time>
      </trkpt>
      <trkpt lat="43.53172" lon="5.57499">
        <ele>868</ele>
        <time>2022-02-15T10:21:43.000Z</time>
      </trkpt>
      <trkpt lat="43.53172" lon="5.57499">
        <ele>868</ele>
        <time>2022-02-15T10:21:44.000Z</time>
      </trkpt>
      <trkpt lat="43.53172" lon="5.57499">
        <ele>868</ele>
        <time>2022-02-15T10:21:45.000Z</time>
      </trkpt>
      <trkpt lat="43.53172" lon="5.57499">
        <ele>868</ele>
        <time>2022-02-15T10:21:46.000Z</time>
      </trkpt>
      <trkpt lat="43.53172" lon="5.57499">
        <ele>868</ele>
        <time>2022-02-15T10:21:47.000Z</time>
      </trkpt>
      <trkpt lat="43.53172" lon="5.57499">
        <ele>868</ele>
        <time>2022-02-15T10:21:48.000Z</time>
      </trkpt>
      <trkpt lat="43.53172" lon="5.57499">
        <ele>868</ele>
        <time>2022-02-15T10:21:49.000Z</time>
      </trkpt>
      <trkpt lat="43.53172" lon="5.57499">
        <ele>868</ele>
        <time>2022-02-15T10:21:50.000Z</time>
      </trkpt>
      <trkpt lat="43.53172" lon="5.57499">
        <ele>868</ele>
        <time>2022-02-15T10:21:51.000Z</time>
      </trkpt>
      <trkpt lat="43.53172" lon="5.57499">
        <ele>868</ele>
        <time>2022-02-15T10:21:52.000Z</time>
      </trkpt>
      <trkpt lat="43.53172" lon="5.57499">
        <ele>868</ele>
        <time>2022-02-15T10:21:53.000Z</time>
      </trkpt>
      <trkpt lat="43.53172" lon="5.57499">
        <ele>868</ele>
        <time>2022-02-15T10:21:54.000Z</time>
      </trkpt>
      <trkpt lat="43.53172" lon="5.57499">
        <ele>868</ele>
        <time>2022-02-15T10:21:55.000Z</time>
      </trkpt>
      <trkpt lat="43.53173" lon="5.575">
        <ele>868</ele>
        <time>2022-02-15T10:21:56.000Z</time>
      </trkpt>
      <trkpt lat="43.53173" lon="5.575">
        <ele>868</ele>
        <time>2022-02-15T10:21:57.000Z</time>
      </trkpt>
      <trkpt lat="43.53173" lon="5.575">
        <ele>868</ele>
        <time>2022-02-15T10:21:58.000Z</time>
      </trkpt>
      <trkpt lat="43.53173" lon="5.575">
        <ele>868</ele>
        <time>2022-02-15T10:21:59.000Z</time>
      </trkpt>
      <trkpt lat="43.53173" lon="5.575">
        <ele>868</ele>
        <time>2022-02-15T10:22:00.000Z</time>
      </trkpt>
      <trkpt lat="43.53173" lon="5.57499">
        <ele>868</ele>
        <time>2022-02-15T10:22:01.000Z</time>
      </trkpt>
      <trkpt lat="43.53173" lon="5.57499">
        <ele>868</ele>
        <time>2022-02-15T10:22:02.000Z</time>
      </trkpt>
      <trkpt lat="43.53173" lon="5.57499">
        <ele>868</ele>
        <time>2022-02-15T10:22:03.000Z</time>
      </trkpt>
      <trkpt lat="43.53173" lon="5.57499">
        <ele>868</ele>
        <time>2022-02-15T10:22:04.000Z</time>
      </trkpt>
      <trkpt lat="43.53173" lon="5.57499">
        <ele>868</ele>
        <time>2022-02-15T10:22:05.000Z</time>
      </trkpt>
      <trkpt lat="43.53173" lon="5.57499">
        <ele>868</ele>
        <time>2022-02-15T10:22:06.000Z</time>
      </trkpt>
      <trkpt lat="43.53174" lon="5.57499">
        <ele>868</ele>
        <time>2022-02-15T10:22:07.000Z</time>
      </trkpt>
      <trkpt lat="43.53174" lon="5.57499">
        <ele>868</ele>
        <time>2022-02-15T10:22:08.000Z</time>
      </trkpt>
      <trkpt lat="43.53174" lon="5.57499">
        <ele>868</ele>
        <time>2022-02-15T10:22:09.000Z</time>
      </trkpt>
      <trkpt lat="43.53174" lon="5.57499">
        <ele>868</ele>
        <time>2022-02-15T10:22:10.000Z</time>
      </trkpt>
      <trkpt lat="43.53174" lon="5.57499">
        <ele>868</ele>
        <time>2022-02-15T10:22:11.000Z</time>
      </trkpt>
      <trkpt lat="43.53174" lon="5.57499">
        <ele>868</ele>
        <time>2022-02-15T10:22:12.000Z</time>
      </trkpt>
      <trkpt lat="43.53173" lon="5.57499">
        <ele>868</ele>
        <time>2022-02-15T10:22:13.000Z</time>
      </trkpt>
      <trkpt lat="43.53173" lon="5.57499">
        <ele>868</ele>
        <time>2022-02-15T10:22:14.000Z</time>
      </trkpt>
      <trkpt lat="43.53174" lon="5.57498">
        <ele>868</ele>
        <time>2022-02-15T10:22:15.000Z</time>
      </trkpt>
      <trkpt lat="43.53174" lon="5.57498">
        <ele>869</ele>
        <time>2022-02-15T10:22:16.000Z</time>
      </trkpt>
      <trkpt lat="43.53174" lon="5.57499">
        <ele>869</ele>
        <time>2022-02-15T10:22:17.000Z</time>
      </trkpt>
      <trkpt lat="43.53174" lon="5.57499">
        <ele>869</ele>
        <time>2022-02-15T10:22:18.000Z</time>
      </trkpt>
      <trkpt lat="43.53174" lon="5.57499">
        <ele>869</ele>
        <time>2022-02-15T10:22:19.000Z</time>
      </trkpt>
      <trkpt lat="43.53174" lon="5.57499">
        <ele>869</ele>
        <time>2022-02-15T10:22:20.000Z</time>
      </trkpt>
      <trkpt lat="43.53175" lon="5.57499">
        <ele>869</ele>
        <time>2022-02-15T10:22:21.000Z</time>
      </trkpt>
      <trkpt lat="43.53175" lon="5.57499">
        <ele>869</ele>
        <time>2022-02-15T10:22:22.000Z</time>
      </trkpt>
      <trkpt lat="43.53175" lon="5.57499">
        <ele>869</ele>
        <time>2022-02-15T10:22:23.000Z</time>
      </trkpt>
      <trkpt lat="43.53175" lon="5.57499">
        <ele>870</ele>
        <time>2022-02-15T10:22:24.000Z</time>
      </trkpt>
      <trkpt lat="43.53175" lon="5.57498">
        <ele>870</ele>
        <time>2022-02-15T10:22:25.000Z</time>
      </trkpt>
      <trkpt lat="43.53175" lon="5.57498">
        <ele>870</ele>
        <time>2022-02-15T10:22:26.000Z</time>
      </trkpt>
      <trkpt lat="43.53175" lon="5.57498">
        <ele>870</ele>
        <time>2022-02-15T10:22:27.000Z</time>
      </trkpt>
      <trkpt lat="43.53175" lon="5.57499">
        <ele>870</ele>
        <time>2022-02-15T10:22:28.000Z</time>
      </trkpt>
      <trkpt lat="43.53175" lon="5.57499">
        <ele>870</ele>
        <time>2022-02-15T10:22:29.000Z</time>
      </trkpt>
      <trkpt lat="43.53175" lon="5.57499">
        <ele>870</ele>
        <time>2022-02-15T10:22:30.000Z</time>
      </trkpt>
      <trkpt lat="43.53175" lon="5.57499">
        <ele>870</ele>
        <time>2022-02-15T10:22:31.000Z</time>
      </trkpt>
      <trkpt lat="43.53175" lon="5.57499">
        <ele>870</ele>
        <time>2022-02-15T10:22:32.000Z</time>
      </trkpt>
      <trkpt lat="43.53175" lon="5.57499">
        <ele>870</ele>
        <time>2022-02-15T10:22:33.000Z</time>
      </trkpt>
      <trkpt lat="43.53176" lon="5.57499">
        <ele>870</ele>
        <time>2022-02-15T10:22:34.000Z</time>
      </trkpt>
      <trkpt lat="43.53176" lon="5.57499">
        <ele>870</ele>
        <time>2022-02-15T10:22:35.000Z</time>
      </trkpt>
      <trkpt lat="43.53176" lon="5.57499">
        <ele>870</ele>
        <time>2022-02-15T10:22:36.000Z</time>
      </trkpt>
      <trkpt lat="43.53176" lon="5.57499">
        <ele>870</ele>
        <time>2022-02-15T10:22:37.000Z</time>
      </trkpt>
      <trkpt lat="43.53176" lon="5.57499">
        <ele>870</ele>
        <time>2022-02-15T10:22:38.000Z</time>
      </trkpt>
      <trkpt lat="43.53176" lon="5.57499">
        <ele>870</ele>
        <time>2022-02-15T10:22:39.000Z</time>
      </trkpt>
      <trkpt lat="43.53176" lon="5.57499">
        <ele>871</ele>
        <time>2022-02-15T10:22:40.000Z</time>
      </trkpt>
      <trkpt lat="43.53176" lon="5.57499">
        <ele>871</ele>
        <time>2022-02-15T10:22:41.000Z</time>
      </trkpt>
      <trkpt lat="43.53177" lon="5.57499">
        <ele>871</ele>
        <time>2022-02-15T10:22:42.000Z</time>
      </trkpt>
      <trkpt lat="43.53177" lon="5.575">
        <ele>871</ele>
        <time>2022-02-15T10:22:43.000Z</time>
      </trkpt>
      <trkpt lat="43.53177" lon="5.575">
        <ele>871</ele>
        <time>2022-02-15T10:22:44.000Z</time>
      </trkpt>
      <trkpt lat="43.53177" lon="5.575">
        <ele>871</ele>
        <time>2022-02-15T10:22:45.000Z</time>
      </trkpt>
      <trkpt lat="43.53178" lon="5.575">
        <ele>871</ele>
        <time>2022-02-15T10:22:46.000Z</time>
      </trkpt>
      <trkpt lat="43.53178" lon="5.575">
        <ele>871</ele>
        <time>2022-02-15T10:22:47.000Z</time>
      </trkpt>
      <trkpt lat="43.53178" lon="5.57501">
        <ele>872</ele>
        <time>2022-02-15T10:22:48.000Z</time>
      </trkpt>
      <trkpt lat="43.53178" lon="5.57501">
        <ele>871</ele>
        <time>2022-02-15T10:22:49.000Z</time>
      </trkpt>
      <trkpt lat="43.53178" lon="5.575">
        <ele>871</ele>
        <time>2022-02-15T10:22:50.000Z</time>
      </trkpt>
      <trkpt lat="43.53178" lon="5.575">
        <ele>871</ele>
        <time>2022-02-15T10:22:51.000Z</time>
      </trkpt>
      <trkpt lat="43.53178" lon="5.575">
        <ele>871</ele>
        <time>2022-02-15T10:22:52.000Z</time>
      </trkpt>
      <trkpt lat="43.53179" lon="5.575">
        <ele>871</ele>
        <time>2022-02-15T10:22:53.000Z</time>
      </trkpt>
      <trkpt lat="43.53179" lon="5.575">
        <ele>871</ele>
        <time>2022-02-15T10:22:54.000Z</time>
      </trkpt>
      <trkpt lat="43.53179" lon="5.575">
        <ele>872</ele>
        <time>2022-02-15T10:22:55.000Z</time>
      </trkpt>
      <trkpt lat="43.53179" lon="5.575">
        <ele>872</ele>
        <time>2022-02-15T10:22:56.000Z</time>
      </trkpt>
      <trkpt lat="43.53179" lon="5.575">
        <ele>872</ele>
        <time>2022-02-15T10:22:57.000Z</time>
      </trkpt>
      <trkpt lat="43.53179" lon="5.575">
        <ele>872</ele>
        <time>2022-02-15T10:22:58.000Z</time>
      </trkpt>
      <trkpt lat="43.53179" lon="5.575">
        <ele>872</ele>
        <time>2022-02-15T10:22:59.000Z</time>
      </trkpt>
      <trkpt lat="43.53179" lon="5.575">
        <ele>872</ele>
        <time>2022-02-15T10:23:00.000Z</time>
      </trkpt>
      <trkpt lat="43.53179" lon="5.575">
        <ele>872</ele>
        <time>2022-02-15T10:23:01.000Z</time>
      </trkpt>
      <trkpt lat="43.53179" lon="5.575">
        <ele>872</ele>
        <time>2022-02-15T10:23:02.000Z</time>
      </trkpt>
      <trkpt lat="43.53179" lon="5.575">
        <ele>872</ele>
        <time>2022-02-15T10:23:03.000Z</time>
      </trkpt>
      <trkpt lat="43.5318" lon="5.575">
        <ele>872</ele>
        <time>2022-02-15T10:23:04.000Z</time>
      </trkpt>
      <trkpt lat="43.5318" lon="5.575">
        <ele>872</ele>
        <time>2022-02-15T10:23:05.000Z</time>
      </trkpt>
      <trkpt lat="43.53181" lon="5.575">
        <ele>872</ele>
        <time>2022-02-15T10:23:06.000Z</time>
      </trkpt>
      <trkpt lat="43.53181" lon="5.575">
        <ele>873</ele>
        <time>2022-02-15T10:23:07.000Z</time>
      </trkpt>
      <trkpt lat="43.53181" lon="5.575">
        <ele>873</ele>
        <time>2022-02-15T10:23:08.000Z</time>
      </trkpt>
      <trkpt lat="43.53181" lon="5.575">
        <ele>873</ele>
        <time>2022-02-15T10:23:09.000Z</time>
      </trkpt>
      <trkpt lat="43.53181" lon="5.575">
        <ele>873</ele>
        <time>2022-02-15T10:23:10.000Z</time>
      </trkpt>
      <trkpt lat="43.53181" lon="5.57501">
        <ele>873</ele>
        <time>2022-02-15T10:23:11.000Z</time>
      </trkpt>
      <trkpt lat="43.53181" lon="5.57501">
        <ele>873</ele>
        <time>2022-02-15T10:23:12.000Z</time>
      </trkpt>
      <trkpt lat="43.53181" lon="5.57501">
        <ele>873</ele>
        <time>2022-02-15T10:23:13.000Z</time>
      </trkpt>
      <trkpt lat="43.53181" lon="5.57501">
        <ele>873</ele>
        <time>2022-02-15T10:23:14.000Z</time>
      </trkpt>
      <trkpt lat="43.53181" lon="5.57501">
        <ele>873</ele>
        <time>2022-02-15T10:23:15.000Z</time>
      </trkpt>
      <trkpt lat="43.53181" lon="5.57501">
        <ele>873</ele>
        <time>2022-02-15T10:23:16.000Z</time>
      </trkpt>
      <trkpt lat="43.53181" lon="5.57501">
        <ele>873</ele>
        <time>2022-02-15T10:23:17.000Z</time>
      </trkpt>
      <trkpt lat="43.53181" lon="5.57501">
        <ele>873</ele>
        <time>2022-02-15T10:23:18.000Z</time>
      </trkpt>
      <trkpt lat="43.53181" lon="5.57501">
        <ele>873</ele>
        <time>2022-02-15T10:23:19.000Z</time>
      </trkpt>
      <trkpt lat="43.53181" lon="5.57501">
        <ele>873</ele>
        <time>2022-02-15T10:23:20.000Z</time>
      </trkpt>
      <trkpt lat="43.53181" lon="5.57501">
        <ele>873</ele>
        <time>2022-02-15T10:23:21.000Z</time>
      </trkpt>
      <trkpt lat="43.53181" lon="5.57502">
        <ele>874</ele>
        <time>2022-02-15T10:23:22.000Z</time>
      </trkpt>
      <trkpt lat="43.53181" lon="5.57502">
        <ele>874</ele>
        <time>2022-02-15T10:23:23.000Z</time>
      </trkpt>
      <trkpt lat="43.53181" lon="5.57503">
        <ele>874</ele>
        <time>2022-02-15T10:23:24.000Z</time>
      </trkpt>
      <trkpt lat="43.53181" lon="5.57503">
        <ele>874</ele>
        <time>2022-02-15T10:23:25.000Z</time>
      </trkpt>
      <trkpt lat="43.53181" lon="5.57504">
        <ele>874</ele>
        <time>2022-02-15T10:23:26.000Z</time>
      </trkpt>
      <trkpt lat="43.53181" lon="5.57504">
        <ele>875</ele>
        <time>2022-02-15T10:23:27.000Z</time>
      </trkpt>
      <trkpt lat="43.53181" lon="5.57503">
        <ele>875</ele>
        <time>2022-02-15T10:23:28.000Z</time>
      </trkpt>
      <trkpt lat="43.53181" lon="5.57503">
        <ele>875</ele>
        <time>2022-02-15T10:23:29.000Z</time>
      </trkpt>
      <trkpt lat="43.53181" lon="5.57503">
        <ele>875</ele>
        <time>2022-02-15T10:23:30.000Z</time>
      </trkpt>
      <trkpt lat="43.53181" lon="5.57503">
        <ele>875</ele>
        <time>2022-02-15T10:23:31.000Z</time>
      </trkpt>
      <trkpt lat="43.53181" lon="5.57503">
        <ele>875</ele>
        <time>2022-02-15T10:23:32.000Z</time>
      </trkpt>
      <trkpt lat="43.53181" lon="5.57503">
        <ele>875</ele>
        <time>2022-02-15T10:23:33.000Z</time>
      </trkpt>
      <trkpt lat="43.53181" lon="5.57503">
        <ele>875</ele>
        <time>2022-02-15T10:23:34.000Z</time>
      </trkpt>
      <trkpt lat="43.53181" lon="5.57503">
        <ele>875</ele>
        <time>2022-02-15T10:23:35.000Z</time>
      </trkpt>
      <trkpt lat="43.53181" lon="5.57503">
        <ele>875</ele>
        <time>2022-02-15T10:23:36.000Z</time>
      </trkpt>
      <trkpt lat="43.53181" lon="5.57503">
        <ele>875</ele>
        <time>2022-02-15T10:23:37.000Z</time>
      </trkpt>
      <trkpt lat="43.53181" lon="5.57503">
        <ele>875</ele>
        <time>2022-02-15T10:23:38.000Z</time>
      </trkpt>
      <trkpt lat="43.53181" lon="5.57503">
        <ele>875</ele>
        <time>2022-02-15T10:23:39.000Z</time>
      </trkpt>
      <trkpt lat="43.53181" lon="5.57504">
        <ele>875</ele>
        <time>2022-02-15T10:23:40.000Z</time>
      </trkpt>
      <trkpt lat="43.53181" lon="5.57504">
        <ele>875</ele>
        <time>2022-02-15T10:23:41.000Z</time>
      </trkpt>
      <trkpt lat="43.5318" lon="5.57504">
        <ele>875</ele>
        <time>2022-02-15T10:23:42.000Z</time>
      </trkpt>
      <trkpt lat="43.53181" lon="5.57504">
        <ele>875</ele>
        <time>2022-02-15T10:23:43.000Z</time>
      </trkpt>
      <trkpt lat="43.53181" lon="5.57504">
        <ele>875</ele>
        <time>2022-02-15T10:23:44.000Z</time>
      </trkpt>
      <trkpt lat="43.53181" lon="5.57504">
        <ele>875</ele>
        <time>2022-02-15T10:23:45.000Z</time>
      </trkpt>
      <trkpt lat="43.53181" lon="5.57504">
        <ele>875</ele>
        <time>2022-02-15T10:23:46.000Z</time>
      </trkpt>
      <trkpt lat="43.53181" lon="5.57505">
        <ele>875</ele>
        <time>2022-02-15T10:23:47.000Z</time>
      </trkpt>
      <trkpt lat="43.53181" lon="5.57505">
        <ele>875</ele>
        <time>2022-02-15T10:23:48.000Z</time>
      </trkpt>
      <trkpt lat="43.53181" lon="5.57505">
        <ele>876</ele>
        <time>2022-02-15T10:23:49.000Z</time>
      </trkpt>
      <trkpt lat="43.53181" lon="5.57505">
        <ele>876</ele>
        <time>2022-02-15T10:23:50.000Z</time>
      </trkpt>
      <trkpt lat="43.53181" lon="5.57505">
        <ele>876</ele>
        <time>2022-02-15T10:23:51.000Z</time>
      </trkpt>
      <trkpt lat="43.5318" lon="5.57505">
        <ele>876</ele>
        <time>2022-02-15T10:23:52.000Z</time>
      </trkpt>
      <trkpt lat="43.5318" lon="5.57505">
        <ele>876</ele>
        <time>2022-02-15T10:23:53.000Z</time>
      </trkpt>
      <trkpt lat="43.5318" lon="5.57505">
        <ele>876</ele>
        <time>2022-02-15T10:23:54.000Z</time>
      </trkpt>
      <trkpt lat="43.5318" lon="5.57505">
        <ele>876</ele>
        <time>2022-02-15T10:23:55.000Z</time>
      </trkpt>
      <trkpt lat="43.53181" lon="5.57504">
        <ele>876</ele>
        <time>2022-02-15T10:23:56.000Z</time>
      </trkpt>
      <trkpt lat="43.53181" lon="5.57504">
        <ele>876</ele>
        <time>2022-02-15T10:23:57.000Z</time>
      </trkpt>
      <trkpt lat="43.5318" lon="5.57504">
        <ele>876</ele>
        <time>2022-02-15T10:23:58.000Z</time>
      </trkpt>
      <trkpt lat="43.5318" lon="5.57504">
        <ele>876</ele>
        <time>2022-02-15T10:23:59.000Z</time>
      </trkpt>
      <trkpt lat="43.5318" lon="5.57505">
        <ele>876</ele>
        <time>2022-02-15T10:24:00.000Z</time>
      </trkpt>
      <trkpt lat="43.5318" lon="5.57505">
        <ele>876</ele>
        <time>2022-02-15T10:24:01.000Z</time>
      </trkpt>
      <trkpt lat="43.5318" lon="5.57505">
        <ele>876</ele>
        <time>2022-02-15T10:24:02.000Z</time>
      </trkpt>
      <trkpt lat="43.53181" lon="5.57505">
        <ele>876</ele>
        <time>2022-02-15T10:24:03.000Z</time>
      </trkpt>
      <trkpt lat="43.5318" lon="5.57505">
        <ele>876</ele>
        <time>2022-02-15T10:24:04.000Z</time>
      </trkpt>
      <trkpt lat="43.5318" lon="5.57505">
        <ele>876</ele>
        <time>2022-02-15T10:24:05.000Z</time>
      </trkpt>
      <trkpt lat="43.5318" lon="5.57505">
        <ele>876</ele>
        <time>2022-02-15T10:24:06.000Z</time>
      </trkpt>
      <trkpt lat="43.5318" lon="5.57505">
        <ele>876</ele>
        <time>2022-02-15T10:24:07.000Z</time>
      </trkpt>
      <trkpt lat="43.5318" lon="5.57505">
        <ele>876</ele>
        <time>2022-02-15T10:24:08.000Z</time>
      </trkpt>
      <trkpt lat="43.5318" lon="5.57505">
        <ele>876</ele>
        <time>2022-02-15T10:24:09.000Z</time>
      </trkpt>
      <trkpt lat="43.5318" lon="5.57505">
        <ele>876</ele>
        <time>2022-02-15T10:24:10.000Z</time>
      </trkpt>
      <trkpt lat="43.5318" lon="5.57505">
        <ele>876</ele>
        <time>2022-02-15T10:24:11.000Z</time>
      </trkpt>
      <trkpt lat="43.5318" lon="5.57505">
        <ele>876</ele>
        <time>2022-02-15T10:24:12.000Z</time>
      </trkpt>
      <trkpt lat="43.5318" lon="5.57505">
        <ele>876</ele>
        <time>2022-02-15T10:24:13.000Z</time>
      </trkpt>
      <trkpt lat="43.5318" lon="5.57505">
        <ele>876</ele>
        <time>2022-02-15T10:24:14.000Z</time>
      </trkpt>
      <trkpt lat="43.5318" lon="5.57505">
        <ele>876</ele>
        <time>2022-02-15T10:24:15.000Z</time>
      </trkpt>
      <trkpt lat="43.5318" lon="5.57505">
        <ele>876</ele>
        <time>2022-02-15T10:24:16.000Z</time>
      </trkpt>
      <trkpt lat="43.5318" lon="5.57505">
        <ele>876</ele>
        <time>2022-02-15T10:24:17.000Z</time>
      </trkpt>
      <trkpt lat="43.5318" lon="5.57505">
        <ele>876</ele>
        <time>2022-02-15T10:24:18.000Z</time>
      </trkpt>
      <trkpt lat="43.5318" lon="5.57505">
        <ele>876</ele>
        <time>2022-02-15T10:24:19.000Z</time>
      </trkpt>
      <trkpt lat="43.5318" lon="5.57505">
        <ele>876</ele>
        <time>2022-02-15T10:24:20.000Z</time>
      </trkpt>
      <trkpt lat="43.5318" lon="5.57505">
        <ele>876</ele>
        <time>2022-02-15T10:24:21.000Z</time>
      </trkpt>
      <trkpt lat="43.5318" lon="5.57505">
        <ele>876</ele>
        <time>2022-02-15T10:24:22.000Z</time>
      </trkpt>
      <trkpt lat="43.5318" lon="5.57505">
        <ele>876</ele>
        <time>2022-02-15T10:24:23.000Z</time>
      </trkpt>
      <trkpt lat="43.5318" lon="5.57505">
        <ele>876</ele>
        <time>2022-02-15T10:24:24.000Z</time>
      </trkpt>
      <trkpt lat="43.5318" lon="5.57505">
        <ele>876</ele>
        <time>2022-02-15T10:24:25.000Z</time>
      </trkpt>
      <trkpt lat="43.5318" lon="5.57505">
        <ele>876</ele>
        <time>2022-02-15T10:24:26.000Z</time>
      </trkpt>
      <trkpt lat="43.5318" lon="5.57506">
        <ele>876</ele>
        <time>2022-02-15T10:24:27.000Z</time>
      </trkpt>
      <trkpt lat="43.5318" lon="5.57506">
        <ele>876</ele>
        <time>2022-02-15T10:24:28.000Z</time>
      </trkpt>
      <trkpt lat="43.5318" lon="5.57506">
        <ele>876</ele>
        <time>2022-02-15T10:24:29.000Z</time>
      </trkpt>
      <trkpt lat="43.5318" lon="5.57506">
        <ele>876</ele>
        <time>2022-02-15T10:24:30.000Z</time>
      </trkpt>
      <trkpt lat="43.5318" lon="5.57506">
        <ele>876</ele>
        <time>2022-02-15T10:24:31.000Z</time>
      </trkpt>
      <trkpt lat="43.5318" lon="5.57506">
        <ele>876</ele>
        <time>2022-02-15T10:24:32.000Z</time>
      </trkpt>
      <trkpt lat="43.5318" lon="5.57506">
        <ele>876</ele>
        <time>2022-02-15T10:24:33.000Z</time>
      </trkpt>
      <trkpt lat="43.5318" lon="5.57506">
        <ele>876</ele>
        <time>2022-02-15T10:24:34.000Z</time>
      </trkpt>
      <trkpt lat="43.5318" lon="5.57506">
        <ele>876</ele>
        <time>2022-02-15T10:24:35.000Z</time>
      </trkpt>
      <trkpt lat="43.5318" lon="5.57506">
        <ele>876</ele>
        <time>2022-02-15T10:24:36.000Z</time>
      </trkpt>
      <trkpt lat="43.5318" lon="5.57506">
        <ele>876</ele>
        <time>2022-02-15T10:24:37.000Z</time>
      </trkpt>
      <trkpt lat="43.5318" lon="5.57506">
        <ele>876</ele>
        <time>2022-02-15T10:24:38.000Z</time>
      </trkpt>
      <trkpt lat="43.5318" lon="5.57506">
        <ele>876</ele>
        <time>2022-02-15T10:24:39.000Z</time>
      </trkpt>
      <trkpt lat="43.5318" lon="5.57506">
        <ele>876</ele>
        <time>2022-02-15T10:24:40.000Z</time>
      </trkpt>
      <trkpt lat="43.5318" lon="5.57507">
        <ele>876</ele>
        <time>2022-02-15T10:24:41.000Z</time>
      </trkpt>
      <trkpt lat="43.5318" lon="5.57508">
        <ele>877</ele>
        <time>2022-02-15T10:24:42.000Z</time>
      </trkpt>
      <trkpt lat="43.5318" lon="5.57508">
        <ele>877</ele>
        <time>2022-02-15T10:24:43.000Z</time>
      </trkpt>
      <trkpt lat="43.5318" lon="5.57508">
        <ele>877</ele>
        <time>2022-02-15T10:24:44.000Z</time>
      </trkpt>
      <trkpt lat="43.5318" lon="5.57509">
        <ele>876</ele>
        <time>2022-02-15T10:24:45.000Z</time>
      </trkpt>
      <trkpt lat="43.5318" lon="5.57509">
        <ele>876</ele>
        <time>2022-02-15T10:24:46.000Z</time>
      </trkpt>
      <trkpt lat="43.53179" lon="5.57509">
        <ele>877</ele>
        <time>2022-02-15T10:24:47.000Z</time>
      </trkpt>
      <trkpt lat="43.53179" lon="5.57509">
        <ele>877</ele>
        <time>2022-02-15T10:24:48.000Z</time>
      </trkpt>
      <trkpt lat="43.53179" lon="5.57509">
        <ele>877</ele>
        <time>2022-02-15T10:24:49.000Z</time>
      </trkpt>
      <trkpt lat="43.53179" lon="5.57509">
        <ele>877</ele>
        <time>2022-02-15T10:24:50.000Z</time>
      </trkpt>
      <trkpt lat="43.5318" lon="5.57509">
        <ele>877</ele>
        <time>2022-02-15T10:24:51.000Z</time>
      </trkpt>
      <trkpt lat="43.5318" lon="5.5751">
        <ele>877</ele>
        <time>2022-02-15T10:24:52.000Z</time>
      </trkpt>
      <trkpt lat="43.5318" lon="5.5751">
        <ele>877</ele>
        <time>2022-02-15T10:24:53.000Z</time>
      </trkpt>
      <trkpt lat="43.5318" lon="5.5751">
        <ele>877</ele>
        <time>2022-02-15T10:24:54.000Z</time>
      </trkpt>
      <trkpt lat="43.5318" lon="5.57511">
        <ele>877</ele>
        <time>2022-02-15T10:24:55.000Z</time>
      </trkpt>
      <trkpt lat="43.5318" lon="5.57511">
        <ele>877</ele>
        <time>2022-02-15T10:24:56.000Z</time>
      </trkpt>
      <trkpt lat="43.5318" lon="5.57511">
        <ele>877</ele>
        <time>2022-02-15T10:24:57.000Z</time>
      </trkpt>
      <trkpt lat="43.5318" lon="5.57511">
        <ele>877</ele>
        <time>2022-02-15T10:24:58.000Z</time>
      </trkpt>
      <trkpt lat="43.5318" lon="5.57511">
        <ele>877</ele>
        <time>2022-02-15T10:24:59.000Z</time>
      </trkpt>
      <trkpt lat="43.5318" lon="5.57511">
        <ele>877</ele>
        <time>2022-02-15T10:25:00.000Z</time>
      </trkpt>
      <trkpt lat="43.5318" lon="5.57511">
        <ele>877</ele>
        <time>2022-02-15T10:25:01.000Z</time>
      </trkpt>
      <trkpt lat="43.5318" lon="5.57512">
        <ele>877</ele>
        <time>2022-02-15T10:25:02.000Z</time>
      </trkpt>
      <trkpt lat="43.5318" lon="5.57513">
        <ele>877</ele>
        <time>2022-02-15T10:25:03.000Z</time>
      </trkpt>
      <trkpt lat="43.53181" lon="5.57513">
        <ele>877</ele>
        <time>2022-02-15T10:25:04.000Z</time>
      </trkpt>
      <trkpt lat="43.5318" lon="5.57513">
        <ele>878</ele>
        <time>2022-02-15T10:25:05.000Z</time>
      </trkpt>
      <trkpt lat="43.5318" lon="5.57513">
        <ele>878</ele>
        <time>2022-02-15T10:25:06.000Z</time>
      </trkpt>
      <trkpt lat="43.53181" lon="5.57513">
        <ele>878</ele>
        <time>2022-02-15T10:25:07.000Z</time>
      </trkpt>
      <trkpt lat="43.53181" lon="5.57514">
        <ele>878</ele>
        <time>2022-02-15T10:25:08.000Z</time>
      </trkpt>
      <trkpt lat="43.53181" lon="5.57515">
        <ele>878</ele>
        <time>2022-02-15T10:25:09.000Z</time>
      </trkpt>
      <trkpt lat="43.53181" lon="5.57516">
        <ele>878</ele>
        <time>2022-02-15T10:25:10.000Z</time>
      </trkpt>
      <trkpt lat="43.53181" lon="5.57516">
        <ele>878</ele>
        <time>2022-02-15T10:25:11.000Z</time>
      </trkpt>
      <trkpt lat="43.53181" lon="5.57516">
        <ele>878</ele>
        <time>2022-02-15T10:25:12.000Z</time>
      </trkpt>
      <trkpt lat="43.53182" lon="5.57517">
        <ele>878</ele>
        <time>2022-02-15T10:25:13.000Z</time>
      </trkpt>
      <trkpt lat="43.53182" lon="5.57518">
        <ele>878</ele>
        <time>2022-02-15T10:25:14.000Z</time>
      </trkpt>
      <trkpt lat="43.53183" lon="5.57519">
        <ele>878</ele>
        <time>2022-02-15T10:25:15.000Z</time>
      </trkpt>
      <trkpt lat="43.53183" lon="5.57519">
        <ele>878</ele>
        <time>2022-02-15T10:25:16.000Z</time>
      </trkpt>
      <trkpt lat="43.53183" lon="5.57519">
        <ele>878</ele>
        <time>2022-02-15T10:25:17.000Z</time>
      </trkpt>
      <trkpt lat="43.53183" lon="5.57519">
        <ele>878</ele>
        <time>2022-02-15T10:25:18.000Z</time>
      </trkpt>
      <trkpt lat="43.53183" lon="5.5752">
        <ele>878</ele>
        <time>2022-02-15T10:25:19.000Z</time>
      </trkpt>
      <trkpt lat="43.53184" lon="5.57521">
        <ele>878</ele>
        <time>2022-02-15T10:25:20.000Z</time>
      </trkpt>
      <trkpt lat="43.53184" lon="5.57522">
        <ele>878</ele>
        <time>2022-02-15T10:25:21.000Z</time>
      </trkpt>
      <trkpt lat="43.53184" lon="5.57524">
        <ele>878</ele>
        <time>2022-02-15T10:25:22.000Z</time>
      </trkpt>
      <trkpt lat="43.53185" lon="5.57525">
        <ele>878</ele>
        <time>2022-02-15T10:25:23.000Z</time>
      </trkpt>
      <trkpt lat="43.53184" lon="5.57526">
        <ele>879</ele>
        <time>2022-02-15T10:25:24.000Z</time>
      </trkpt>
      <trkpt lat="43.53184" lon="5.57527">
        <ele>879</ele>
        <time>2022-02-15T10:25:25.000Z</time>
      </trkpt>
      <trkpt lat="43.53184" lon="5.57528">
        <ele>879</ele>
        <time>2022-02-15T10:25:26.000Z</time>
      </trkpt>
      <trkpt lat="43.53184" lon="5.57529">
        <ele>879</ele>
        <time>2022-02-15T10:25:27.000Z</time>
      </trkpt>
      <trkpt lat="43.53185" lon="5.5753">
        <ele>879</ele>
        <time>2022-02-15T10:25:28.000Z</time>
      </trkpt>
      <trkpt lat="43.53184" lon="5.57531">
        <ele>879</ele>
        <time>2022-02-15T10:25:29.000Z</time>
      </trkpt>
      <trkpt lat="43.53184" lon="5.57531">
        <ele>879</ele>
        <time>2022-02-15T10:25:30.000Z</time>
      </trkpt>
      <trkpt lat="43.53184" lon="5.57531">
        <ele>879</ele>
        <time>2022-02-15T10:25:31.000Z</time>
      </trkpt>
      <trkpt lat="43.53184" lon="5.57532">
        <ele>879</ele>
        <time>2022-02-15T10:25:32.000Z</time>
      </trkpt>
      <trkpt lat="43.53184" lon="5.57532">
        <ele>880</ele>
        <time>2022-02-15T10:25:33.000Z</time>
      </trkpt>
      <trkpt lat="43.53184" lon="5.57533">
        <ele>880</ele>
        <time>2022-02-15T10:25:34.000Z</time>
      </trkpt>
      <trkpt lat="43.53184" lon="5.57534">
        <ele>880</ele>
        <time>2022-02-15T10:25:35.000Z</time>
      </trkpt>
      <trkpt lat="43.53184" lon="5.57535">
        <ele>880</ele>
        <time>2022-02-15T10:25:36.000Z</time>
      </trkpt>
      <trkpt lat="43.53184" lon="5.57536">
        <ele>880</ele>
        <time>2022-02-15T10:25:37.000Z</time>
      </trkpt>
      <trkpt lat="43.53183" lon="5.57537">
        <ele>880</ele>
        <time>2022-02-15T10:25:38.000Z</time>
      </trkpt>
      <trkpt lat="43.53183" lon="5.57538">
        <ele>880</ele>
        <time>2022-02-15T10:25:39.000Z</time>
      </trkpt>
      <trkpt lat="43.53183" lon="5.57538">
        <ele>880</ele>
        <time>2022-02-15T10:25:40.000Z</time>
      </trkpt>
      <trkpt lat="43.53182" lon="5.57538">
        <ele>880</ele>
        <time>2022-02-15T10:25:41.000Z</time>
      </trkpt>
      <trkpt lat="43.53182" lon="5.57538">
        <ele>880</ele>
        <time>2022-02-15T10:25:42.000Z</time>
      </trkpt>
      <trkpt lat="43.53182" lon="5.57538">
        <ele>881</ele>
        <time>2022-02-15T10:25:43.000Z</time>
      </trkpt>
      <trkpt lat="43.53182" lon="5.57538">
        <ele>881</ele>
        <time>2022-02-15T10:25:44.000Z</time>
      </trkpt>
      <trkpt lat="43.53182" lon="5.57538">
        <ele>881</ele>
        <time>2022-02-15T10:25:45.000Z</time>
      </trkpt>
      <trkpt lat="43.53182" lon="5.57538">
        <ele>881</ele>
        <time>2022-02-15T10:25:46.000Z</time>
      </trkpt>
      <trkpt lat="43.53182" lon="5.57538">
        <ele>881</ele>
        <time>2022-02-15T10:25:47.000Z</time>
      </trkpt>
      <trkpt lat="43.53182" lon="5.57538">
        <ele>881</ele>
        <time>2022-02-15T10:25:48.000Z</time>
      </trkpt>
      <trkpt lat="43.53182" lon="5.57538">
        <ele>881</ele>
        <time>2022-02-15T10:25:49.000Z</time>
      </trkpt>
      <trkpt lat="43.53182" lon="5.57538">
        <ele>881</ele>
        <time>2022-02-15T10:25:50.000Z</time>
      </trkpt>
      <trkpt lat="43.53182" lon="5.57538">
        <ele>881</ele>
        <time>2022-02-15T10:25:51.000Z</time>
      </trkpt>
      <trkpt lat="43.53182" lon="5.57538">
        <ele>881</ele>
        <time>2022-02-15T10:25:52.000Z</time>
      </trkpt>
      <trkpt lat="43.53182" lon="5.57538">
        <ele>881</ele>
        <time>2022-02-15T10:25:53.000Z</time>
      </trkpt>
      <trkpt lat="43.53182" lon="5.57538">
        <ele>881</ele>
        <time>2022-02-15T10:25:54.000Z</time>
      </trkpt>
      <trkpt lat="43.53182" lon="5.57538">
        <ele>881</ele>
        <time>2022-02-15T10:25:55.000Z</time>
      </trkpt>
      <trkpt lat="43.53182" lon="5.57538">
        <ele>881</ele>
        <time>2022-02-15T10:25:56.000Z</time>
      </trkpt>
      <trkpt lat="43.53182" lon="5.57538">
        <ele>881</ele>
        <time>2022-02-15T10:25:57.000Z</time>
      </trkpt>
      <trkpt lat="43.53182" lon="5.57538">
        <ele>881</ele>
        <time>2022-02-15T10:25:58.000Z</time>
      </trkpt>
      <trkpt lat="43.53182" lon="5.57538">
        <ele>881</ele>
        <time>2022-02-15T10:25:59.000Z</time>
      </trkpt>
      <trkpt lat="43.53182" lon="5.57538">
        <ele>881</ele>
        <time>2022-02-15T10:26:00.000Z</time>
      </trkpt>
      <trkpt lat="43.53182" lon="5.57538">
        <ele>881</ele>
        <time>2022-02-15T10:26:01.000Z</time>
      </trkpt>
      <trkpt lat="43.53182" lon="5.57538">
        <ele>881</ele>
        <time>2022-02-15T10:26:02.000Z</time>
      </trkpt>
      <trkpt lat="43.53182" lon="5.57538">
        <ele>881</ele>
        <time>2022-02-15T10:26:03.000Z</time>
      </trkpt>
      <trkpt lat="43.53182" lon="5.57538">
        <ele>881</ele>
        <time>2022-02-15T10:26:04.000Z</time>
      </trkpt>
      <trkpt lat="43.53182" lon="5.57538">
        <ele>881</ele>
        <time>2022-02-15T10:26:05.000Z</time>
      </trkpt>
      <trkpt lat="43.53182" lon="5.57538">
        <ele>881</ele>
        <time>2022-02-15T10:26:06.000Z</time>
      </trkpt>
      <trkpt lat="43.53182" lon="5.57538">
        <ele>881</ele>
        <time>2022-02-15T10:26:07.000Z</time>
      </trkpt>
      <trkpt lat="43.53182" lon="5.57538">
        <ele>881</ele>
        <time>2022-02-15T10:26:08.000Z</time>
      </trkpt>
      <trkpt lat="43.53182" lon="5.57538">
        <ele>881</ele>
        <time>2022-02-15T10:26:09.000Z</time>
      </trkpt>
      <trkpt lat="43.53182" lon="5.57538">
        <ele>881</ele>
        <time>2022-02-15T10:26:10.000Z</time>
      </trkpt>
      <trkpt lat="43.53182" lon="5.57538">
        <ele>881</ele>
        <time>2022-02-15T10:26:11.000Z</time>
      </trkpt>
      <trkpt lat="43.53182" lon="5.57538">
        <ele>881</ele>
        <time>2022-02-15T10:26:12.000Z</time>
      </trkpt>
      <trkpt lat="43.53182" lon="5.57538">
        <ele>881</ele>
        <time>2022-02-15T10:26:13.000Z</time>
      </trkpt>
      <trkpt lat="43.53182" lon="5.57538">
        <ele>881</ele>
        <time>2022-02-15T10:26:14.000Z</time>
      </trkpt>
      <trkpt lat="43.53182" lon="5.57538">
        <ele>881</ele>
        <time>2022-02-15T10:26:15.000Z</time>
      </trkpt>
      <trkpt lat="43.53182" lon="5.57538">
        <ele>881</ele>
        <time>2022-02-15T10:26:16.000Z</time>
      </trkpt>
      <trkpt lat="43.53182" lon="5.57538">
        <ele>881</ele>
        <time>2022-02-15T10:26:17.000Z</time>
      </trkpt>
      <trkpt lat="43.53182" lon="5.57539">
        <ele>881</ele>
        <time>2022-02-15T10:26:18.000Z</time>
      </trkpt>
      <trkpt lat="43.53182" lon="5.5754">
        <ele>880</ele>
        <time>2022-02-15T10:26:19.000Z</time>
      </trkpt>
      <trkpt lat="43.53182" lon="5.57541">
        <ele>881</ele>
        <time>2022-02-15T10:26:20.000Z</time>
      </trkpt>
      <trkpt lat="43.53182" lon="5.57543">
        <ele>881</ele>
        <time>2022-02-15T10:26:21.000Z</time>
      </trkpt>
      <trkpt lat="43.53181" lon="5.57544">
        <ele>881</ele>
        <time>2022-02-15T10:26:22.000Z</time>
      </trkpt>
      <trkpt lat="43.53181" lon="5.57545">
        <ele>881</ele>
        <time>2022-02-15T10:26:23.000Z</time>
      </trkpt>
      <trkpt lat="43.53181" lon="5.57547">
        <ele>881</ele>
        <time>2022-02-15T10:26:24.000Z</time>
      </trkpt>
      <trkpt lat="43.5318" lon="5.57548">
        <ele>881</ele>
        <time>2022-02-15T10:26:25.000Z</time>
      </trkpt>
      <trkpt lat="43.5318" lon="5.5755">
        <ele>881</ele>
        <time>2022-02-15T10:26:26.000Z</time>
      </trkpt>
      <trkpt lat="43.5318" lon="5.5755">
        <ele>881</ele>
        <time>2022-02-15T10:26:27.000Z</time>
      </trkpt>
      <trkpt lat="43.53179" lon="5.57551">
        <ele>881</ele>
        <time>2022-02-15T10:26:28.000Z</time>
      </trkpt>
      <trkpt lat="43.53178" lon="5.57552">
        <ele>882</ele>
        <time>2022-02-15T10:26:29.000Z</time>
      </trkpt>
      <trkpt lat="43.53178" lon="5.57552">
        <ele>882</ele>
        <time>2022-02-15T10:26:30.000Z</time>
      </trkpt>
      <trkpt lat="43.53178" lon="5.57553">
        <ele>882</ele>
        <time>2022-02-15T10:26:31.000Z</time>
      </trkpt>
      <trkpt lat="43.53178" lon="5.57554">
        <ele>882</ele>
        <time>2022-02-15T10:26:32.000Z</time>
      </trkpt>
      <trkpt lat="43.53177" lon="5.57555">
        <ele>882</ele>
        <time>2022-02-15T10:26:33.000Z</time>
      </trkpt>
      <trkpt lat="43.53177" lon="5.57556">
        <ele>883</ele>
        <time>2022-02-15T10:26:34.000Z</time>
      </trkpt>
      <trkpt lat="43.53177" lon="5.57556">
        <ele>883</ele>
        <time>2022-02-15T10:26:35.000Z</time>
      </trkpt>
      <trkpt lat="43.53177" lon="5.57556">
        <ele>883</ele>
        <time>2022-02-15T10:26:36.000Z</time>
      </trkpt>
      <trkpt lat="43.53177" lon="5.57557">
        <ele>883</ele>
        <time>2022-02-15T10:26:37.000Z</time>
      </trkpt>
      <trkpt lat="43.53176" lon="5.57558">
        <ele>883</ele>
        <time>2022-02-15T10:26:38.000Z</time>
      </trkpt>
      <trkpt lat="43.53177" lon="5.57558">
        <ele>883</ele>
        <time>2022-02-15T10:26:39.000Z</time>
      </trkpt>
      <trkpt lat="43.53177" lon="5.57559">
        <ele>883</ele>
        <time>2022-02-15T10:26:40.000Z</time>
      </trkpt>
      <trkpt lat="43.53177" lon="5.5756">
        <ele>883</ele>
        <time>2022-02-15T10:26:41.000Z</time>
      </trkpt>
      <trkpt lat="43.53177" lon="5.57561">
        <ele>883</ele>
        <time>2022-02-15T10:26:42.000Z</time>
      </trkpt>
      <trkpt lat="43.53176" lon="5.57562">
        <ele>884</ele>
        <time>2022-02-15T10:26:43.000Z</time>
      </trkpt>
      <trkpt lat="43.53176" lon="5.57562">
        <ele>884</ele>
        <time>2022-02-15T10:26:44.000Z</time>
      </trkpt>
      <trkpt lat="43.53176" lon="5.57562">
        <ele>884</ele>
        <time>2022-02-15T10:26:45.000Z</time>
      </trkpt>
      <trkpt lat="43.53176" lon="5.57562">
        <ele>884</ele>
        <time>2022-02-15T10:26:46.000Z</time>
      </trkpt>
      <trkpt lat="43.53176" lon="5.57562">
        <ele>884</ele>
        <time>2022-02-15T10:26:47.000Z</time>
      </trkpt>
      <trkpt lat="43.53176" lon="5.57562">
        <ele>884</ele>
        <time>2022-02-15T10:26:48.000Z</time>
      </trkpt>
      <trkpt lat="43.53176" lon="5.57562">
        <ele>884</ele>
        <time>2022-02-15T10:26:49.000Z</time>
      </trkpt>
      <trkpt lat="43.53176" lon="5.57562">
        <ele>884</ele>
        <time>2022-02-15T10:26:50.000Z</time>
      </trkpt>
      <trkpt lat="43.53175" lon="5.57563">
        <ele>884</ele>
        <time>2022-02-15T10:26:51.000Z</time>
      </trkpt>
      <trkpt lat="43.53175" lon="5.57563">
        <ele>884</ele>
        <time>2022-02-15T10:26:52.000Z</time>
      </trkpt>
      <trkpt lat="43.53175" lon="5.57562">
        <ele>884</ele>
        <time>2022-02-15T10:26:53.000Z</time>
      </trkpt>
      <trkpt lat="43.53174" lon="5.57562">
        <ele>884</ele>
        <time>2022-02-15T10:26:54.000Z</time>
      </trkpt>
      <trkpt lat="43.53174" lon="5.57562">
        <ele>884</ele>
        <time>2022-02-15T10:26:55.000Z</time>
      </trkpt>
      <trkpt lat="43.53173" lon="5.57562">
        <ele>884</ele>
        <time>2022-02-15T10:26:56.000Z</time>
      </trkpt>
      <trkpt lat="43.53173" lon="5.57562">
        <ele>884</ele>
        <time>2022-02-15T10:26:57.000Z</time>
      </trkpt>
      <trkpt lat="43.53172" lon="5.57562">
        <ele>884</ele>
        <time>2022-02-15T10:26:58.000Z</time>
      </trkpt>
      <trkpt lat="43.53172" lon="5.57562">
        <ele>885</ele>
        <time>2022-02-15T10:26:59.000Z</time>
      </trkpt>
      <trkpt lat="43.53172" lon="5.57562">
        <ele>885</ele>
        <time>2022-02-15T10:27:00.000Z</time>
      </trkpt>
      <trkpt lat="43.53172" lon="5.57562">
        <ele>885</ele>
        <time>2022-02-15T10:27:01.000Z</time>
      </trkpt>
      <trkpt lat="43.53172" lon="5.57562">
        <ele>885</ele>
        <time>2022-02-15T10:27:02.000Z</time>
      </trkpt>
      <trkpt lat="43.53172" lon="5.57562">
        <ele>885</ele>
        <time>2022-02-15T10:27:03.000Z</time>
      </trkpt>
      <trkpt lat="43.53172" lon="5.57562">
        <ele>885</ele>
        <time>2022-02-15T10:27:04.000Z</time>
      </trkpt>
      <trkpt lat="43.53171" lon="5.57562">
        <ele>885</ele>
        <time>2022-02-15T10:27:05.000Z</time>
      </trkpt>
      <trkpt lat="43.53171" lon="5.57562">
        <ele>885</ele>
        <time>2022-02-15T10:27:06.000Z</time>
      </trkpt>
      <trkpt lat="43.53171" lon="5.57563">
        <ele>885</ele>
        <time>2022-02-15T10:27:07.000Z</time>
      </trkpt>
      <trkpt lat="43.53171" lon="5.57563">
        <ele>885</ele>
        <time>2022-02-15T10:27:08.000Z</time>
      </trkpt>
      <trkpt lat="43.53171" lon="5.57563">
        <ele>886</ele>
        <time>2022-02-15T10:27:09.000Z</time>
      </trkpt>
      <trkpt lat="43.5317" lon="5.57564">
        <ele>886</ele>
        <time>2022-02-15T10:27:10.000Z</time>
      </trkpt>
      <trkpt lat="43.5317" lon="5.57564">
        <ele>886</ele>
        <time>2022-02-15T10:27:11.000Z</time>
      </trkpt>
      <trkpt lat="43.5317" lon="5.57564">
        <ele>886</ele>
        <time>2022-02-15T10:27:12.000Z</time>
      </trkpt>
      <trkpt lat="43.53169" lon="5.57564">
        <ele>886</ele>
        <time>2022-02-15T10:27:13.000Z</time>
      </trkpt>
      <trkpt lat="43.5317" lon="5.57565">
        <ele>886</ele>
        <time>2022-02-15T10:27:14.000Z</time>
      </trkpt>
      <trkpt lat="43.5317" lon="5.57565">
        <ele>886</ele>
        <time>2022-02-15T10:27:15.000Z</time>
      </trkpt>
      <trkpt lat="43.5317" lon="5.57565">
        <ele>886</ele>
        <time>2022-02-15T10:27:16.000Z</time>
      </trkpt>
      <trkpt lat="43.5317" lon="5.57566">
        <ele>887</ele>
        <time>2022-02-15T10:27:17.000Z</time>
      </trkpt>
      <trkpt lat="43.5317" lon="5.57567">
        <ele>887</ele>
        <time>2022-02-15T10:27:18.000Z</time>
      </trkpt>
      <trkpt lat="43.5317" lon="5.57567">
        <ele>887</ele>
        <time>2022-02-15T10:27:19.000Z</time>
      </trkpt>
      <trkpt lat="43.53169" lon="5.57568">
        <ele>887</ele>
        <time>2022-02-15T10:27:20.000Z</time>
      </trkpt>
      <trkpt lat="43.53169" lon="5.57569">
        <ele>887</ele>
        <time>2022-02-15T10:27:21.000Z</time>
      </trkpt>
      <trkpt lat="43.53169" lon="5.5757">
        <ele>888</ele>
        <time>2022-02-15T10:27:22.000Z</time>
      </trkpt>
      <trkpt lat="43.53168" lon="5.5757">
        <ele>888</ele>
        <time>2022-02-15T10:27:23.000Z</time>
      </trkpt>
      <trkpt lat="43.53168" lon="5.57571">
        <ele>888</ele>
        <time>2022-02-15T10:27:24.000Z</time>
      </trkpt>
      <trkpt lat="43.53168" lon="5.57571">
        <ele>888</ele>
        <time>2022-02-15T10:27:25.000Z</time>
      </trkpt>
      <trkpt lat="43.53167" lon="5.57572">
        <ele>888</ele>
        <time>2022-02-15T10:27:26.000Z</time>
      </trkpt>
      <trkpt lat="43.53167" lon="5.57572">
        <ele>889</ele>
        <time>2022-02-15T10:27:27.000Z</time>
      </trkpt>
      <trkpt lat="43.53166" lon="5.57573">
        <ele>889</ele>
        <time>2022-02-15T10:27:28.000Z</time>
      </trkpt>
      <trkpt lat="43.53166" lon="5.57574">
        <ele>889</ele>
        <time>2022-02-15T10:27:29.000Z</time>
      </trkpt>
      <trkpt lat="43.53165" lon="5.57574">
        <ele>889</ele>
        <time>2022-02-15T10:27:30.000Z</time>
      </trkpt>
      <trkpt lat="43.53165" lon="5.57575">
        <ele>889</ele>
        <time>2022-02-15T10:27:31.000Z</time>
      </trkpt>
      <trkpt lat="43.53165" lon="5.57576">
        <ele>890</ele>
        <time>2022-02-15T10:27:32.000Z</time>
      </trkpt>
      <trkpt lat="43.53165" lon="5.57577">
        <ele>890</ele>
        <time>2022-02-15T10:27:33.000Z</time>
      </trkpt>
      <trkpt lat="43.53165" lon="5.57578">
        <ele>890</ele>
        <time>2022-02-15T10:27:34.000Z</time>
      </trkpt>
      <trkpt lat="43.53165" lon="5.57579">
        <ele>890</ele>
        <time>2022-02-15T10:27:35.000Z</time>
      </trkpt>
      <trkpt lat="43.53165" lon="5.57579">
        <ele>890</ele>
        <time>2022-02-15T10:27:36.000Z</time>
      </trkpt>
      <trkpt lat="43.53165" lon="5.57579">
        <ele>890</ele>
        <time>2022-02-15T10:27:37.000Z</time>
      </trkpt>
      <trkpt lat="43.53165" lon="5.57579">
        <ele>890</ele>
        <time>2022-02-15T10:27:38.000Z</time>
      </trkpt>
      <trkpt lat="43.53165" lon="5.57579">
        <ele>890</ele>
        <time>2022-02-15T10:27:39.000Z</time>
      </trkpt>
      <trkpt lat="43.53165" lon="5.57579">
        <ele>890</ele>
        <time>2022-02-15T10:27:40.000Z</time>
      </trkpt>
      <trkpt lat="43.53165" lon="5.57579">
        <ele>890</ele>
        <time>2022-02-15T10:27:41.000Z</time>
      </trkpt>
      <trkpt lat="43.53165" lon="5.5758">
        <ele>890</ele>
        <time>2022-02-15T10:27:42.000Z</time>
      </trkpt>
      <trkpt lat="43.53165" lon="5.5758">
        <ele>890</ele>
        <time>2022-02-15T10:27:43.000Z</time>
      </trkpt>
      <trkpt lat="43.53165" lon="5.57581">
        <ele>891</ele>
        <time>2022-02-15T10:27:44.000Z</time>
      </trkpt>
      <trkpt lat="43.53165" lon="5.57581">
        <ele>891</ele>
        <time>2022-02-15T10:27:45.000Z</time>
      </trkpt>
      <trkpt lat="43.53165" lon="5.57582">
        <ele>891</ele>
        <time>2022-02-15T10:27:46.000Z</time>
      </trkpt>
      <trkpt lat="43.53165" lon="5.57583">
        <ele>891</ele>
        <time>2022-02-15T10:27:47.000Z</time>
      </trkpt>
      <trkpt lat="43.53165" lon="5.57583">
        <ele>891</ele>
        <time>2022-02-15T10:27:48.000Z</time>
      </trkpt>
      <trkpt lat="43.53165" lon="5.57584">
        <ele>891</ele>
        <time>2022-02-15T10:27:49.000Z</time>
      </trkpt>
      <trkpt lat="43.53165" lon="5.57584">
        <ele>891</ele>
        <time>2022-02-15T10:27:50.000Z</time>
      </trkpt>
      <trkpt lat="43.53165" lon="5.57584">
        <ele>891</ele>
        <time>2022-02-15T10:27:51.000Z</time>
      </trkpt>
      <trkpt lat="43.53165" lon="5.57584">
        <ele>891</ele>
        <time>2022-02-15T10:27:52.000Z</time>
      </trkpt>
      <trkpt lat="43.53165" lon="5.57584">
        <ele>891</ele>
        <time>2022-02-15T10:27:53.000Z</time>
      </trkpt>
      <trkpt lat="43.53165" lon="5.57584">
        <ele>891</ele>
        <time>2022-02-15T10:27:54.000Z</time>
      </trkpt>
      <trkpt lat="43.53165" lon="5.57584">
        <ele>891</ele>
        <time>2022-02-15T10:27:55.000Z</time>
      </trkpt>
      <trkpt lat="43.53165" lon="5.57584">
        <ele>891</ele>
        <time>2022-02-15T10:27:56.000Z</time>
      </trkpt>
      <trkpt lat="43.53165" lon="5.57584">
        <ele>891</ele>
        <time>2022-02-15T10:27:57.000Z</time>
      </trkpt>
      <trkpt lat="43.53165" lon="5.57585">
        <ele>891</ele>
        <time>2022-02-15T10:27:58.000Z</time>
      </trkpt>
      <trkpt lat="43.53165" lon="5.57585">
        <ele>891</ele>
        <time>2022-02-15T10:27:59.000Z</time>
      </trkpt>
      <trkpt lat="43.53165" lon="5.57585">
        <ele>891</ele>
        <time>2022-02-15T10:28:00.000Z</time>
      </trkpt>
      <trkpt lat="43.53165" lon="5.57585">
        <ele>891</ele>
        <time>2022-02-15T10:28:01.000Z</time>
      </trkpt>
      <trkpt lat="43.53165" lon="5.57584">
        <ele>891</ele>
        <time>2022-02-15T10:28:02.000Z</time>
      </trkpt>
      <trkpt lat="43.53165" lon="5.57584">
        <ele>891</ele>
        <time>2022-02-15T10:28:03.000Z</time>
      </trkpt>
      <trkpt lat="43.53165" lon="5.57584">
        <ele>891</ele>
        <time>2022-02-15T10:28:04.000Z</time>
      </trkpt>
      <trkpt lat="43.53165" lon="5.57584">
        <ele>891</ele>
        <time>2022-02-15T10:28:05.000Z</time>
      </trkpt>
      <trkpt lat="43.53165" lon="5.57584">
        <ele>891</ele>
        <time>2022-02-15T10:28:06.000Z</time>
      </trkpt>
      <trkpt lat="43.53165" lon="5.57584">
        <ele>891</ele>
        <time>2022-02-15T10:28:07.000Z</time>
      </trkpt>
      <trkpt lat="43.53165" lon="5.57584">
        <ele>891</ele>
        <time>2022-02-15T10:28:08.000Z</time>
      </trkpt>
      <trkpt lat="43.53165" lon="5.57584">
        <ele>891</ele>
        <time>2022-02-15T10:28:09.000Z</time>
      </trkpt>
      <trkpt lat="43.53165" lon="5.57584">
        <ele>891</ele>
        <time>2022-02-15T10:28:10.000Z</time>
      </trkpt>
      <trkpt lat="43.53165" lon="5.57585">
        <ele>891</ele>
        <time>2022-02-15T10:28:11.000Z</time>
      </trkpt>
      <trkpt lat="43.53165" lon="5.57585">
        <ele>891</ele>
        <time>2022-02-15T10:28:12.000Z</time>
      </trkpt>
      <trkpt lat="43.53165" lon="5.57585">
        <ele>891</ele>
        <time>2022-02-15T10:28:13.000Z</time>
      </trkpt>
      <trkpt lat="43.53165" lon="5.57585">
        <ele>891</ele>
        <time>2022-02-15T10:28:14.000Z</time>
      </trkpt>
      <trkpt lat="43.53165" lon="5.57585">
        <ele>891</ele>
        <time>2022-02-15T10:28:15.000Z</time>
      </trkpt>
      <trkpt lat="43.53165" lon="5.57585">
        <ele>891</ele>
        <time>2022-02-15T10:28:16.000Z</time>
      </trkpt>
      <trkpt lat="43.53165" lon="5.57585">
        <ele>891</ele>
        <time>2022-02-15T10:28:17.000Z</time>
      </trkpt>
      <trkpt lat="43.53165" lon="5.57585">
        <ele>891</ele>
        <time>2022-02-15T10:28:18.000Z</time>
      </trkpt>
      <trkpt lat="43.53165" lon="5.57585">
        <ele>891</ele>
        <time>2022-02-15T10:28:19.000Z</time>
      </trkpt>
      <trkpt lat="43.53165" lon="5.57585">
        <ele>891</ele>
        <time>2022-02-15T10:28:20.000Z</time>
      </trkpt>
      <trkpt lat="43.53165" lon="5.57585">
        <ele>891</ele>
        <time>2022-02-15T10:28:21.000Z</time>
      </trkpt>
      <trkpt lat="43.53165" lon="5.57585">
        <ele>891</ele>
        <time>2022-02-15T10:28:22.000Z</time>
      </trkpt>
      <trkpt lat="43.53165" lon="5.57585">
        <ele>891</ele>
        <time>2022-02-15T10:28:23.000Z</time>
      </trkpt>
      <trkpt lat="43.53165" lon="5.57585">
        <ele>891</ele>
        <time>2022-02-15T10:28:24.000Z</time>
      </trkpt>
      <trkpt lat="43.53165" lon="5.57586">
        <ele>891</ele>
        <time>2022-02-15T10:28:25.000Z</time>
      </trkpt>
      <trkpt lat="43.53165" lon="5.57586">
        <ele>891</ele>
        <time>2022-02-15T10:28:26.000Z</time>
      </trkpt>
      <trkpt lat="43.53165" lon="5.57586">
        <ele>891</ele>
        <time>2022-02-15T10:28:27.000Z</time>
      </trkpt>
      <trkpt lat="43.53165" lon="5.57586">
        <ele>891</ele>
        <time>2022-02-15T10:28:28.000Z</time>
      </trkpt>
      <trkpt lat="43.53165" lon="5.57586">
        <ele>891</ele>
        <time>2022-02-15T10:28:29.000Z</time>
      </trkpt>
      <trkpt lat="43.53165" lon="5.57586">
        <ele>891</ele>
        <time>2022-02-15T10:28:30.000Z</time>
      </trkpt>
      <trkpt lat="43.53165" lon="5.57586">
        <ele>891</ele>
        <time>2022-02-15T10:28:31.000Z</time>
      </trkpt>
      <trkpt lat="43.53165" lon="5.57586">
        <ele>891</ele>
        <time>2022-02-15T10:28:32.000Z</time>
      </trkpt>
      <trkpt lat="43.53165" lon="5.57586">
        <ele>892</ele>
        <time>2022-02-15T10:28:33.000Z</time>
      </trkpt>
      <trkpt lat="43.53165" lon="5.57585">
        <ele>892</ele>
        <time>2022-02-15T10:28:34.000Z</time>
      </trkpt>
      <trkpt lat="43.53165" lon="5.57586">
        <ele>892</ele>
        <time>2022-02-15T10:28:35.000Z</time>
      </trkpt>
      <trkpt lat="43.53165" lon="5.57586">
        <ele>892</ele>
        <time>2022-02-15T10:28:36.000Z</time>
      </trkpt>
      <trkpt lat="43.53165" lon="5.57586">
        <ele>892</ele>
        <time>2022-02-15T10:28:37.000Z</time>
      </trkpt>
      <trkpt lat="43.53165" lon="5.57586">
        <ele>892</ele>
        <time>2022-02-15T10:28:38.000Z</time>
      </trkpt>
      <trkpt lat="43.53165" lon="5.57586">
        <ele>892</ele>
        <time>2022-02-15T10:28:39.000Z</time>
      </trkpt>
      <trkpt lat="43.53165" lon="5.57586">
        <ele>892</ele>
        <time>2022-02-15T10:28:40.000Z</time>
      </trkpt>
      <trkpt lat="43.53165" lon="5.57586">
        <ele>892</ele>
        <time>2022-02-15T10:28:41.000Z</time>
      </trkpt>
      <trkpt lat="43.53165" lon="5.57586">
        <ele>892</ele>
        <time>2022-02-15T10:28:42.000Z</time>
      </trkpt>
      <trkpt lat="43.53165" lon="5.57586">
        <ele>892</ele>
        <time>2022-02-15T10:28:43.000Z</time>
      </trkpt>
      <trkpt lat="43.53165" lon="5.57586">
        <ele>892</ele>
        <time>2022-02-15T10:28:44.000Z</time>
      </trkpt>
      <trkpt lat="43.53165" lon="5.57586">
        <ele>892</ele>
        <time>2022-02-15T10:28:45.000Z</time>
      </trkpt>
      <trkpt lat="43.53165" lon="5.57586">
        <ele>892</ele>
        <time>2022-02-15T10:28:46.000Z</time>
      </trkpt>
      <trkpt lat="43.53165" lon="5.57586">
        <ele>892</ele>
        <time>2022-02-15T10:28:47.000Z</time>
      </trkpt>
      <trkpt lat="43.53165" lon="5.57586">
        <ele>892</ele>
        <time>2022-02-15T10:28:48.000Z</time>
      </trkpt>
      <trkpt lat="43.53165" lon="5.57586">
        <ele>892</ele>
        <time>2022-02-15T10:28:49.000Z</time>
      </trkpt>
      <trkpt lat="43.53165" lon="5.57586">
        <ele>892</ele>
        <time>2022-02-15T10:28:50.000Z</time>
      </trkpt>
      <trkpt lat="43.53165" lon="5.57586">
        <ele>892</ele>
        <time>2022-02-15T10:28:51.000Z</time>
      </trkpt>
      <trkpt lat="43.53165" lon="5.57586">
        <ele>892</ele>
        <time>2022-02-15T10:28:52.000Z</time>
      </trkpt>
      <trkpt lat="43.53165" lon="5.57586">
        <ele>892</ele>
        <time>2022-02-15T10:28:53.000Z</time>
      </trkpt>
      <trkpt lat="43.53165" lon="5.57586">
        <ele>892</ele>
        <time>2022-02-15T10:28:54.000Z</time>
      </trkpt>
      <trkpt lat="43.53165" lon="5.57586">
        <ele>892</ele>
        <time>2022-02-15T10:28:55.000Z</time>
      </trkpt>
      <trkpt lat="43.53165" lon="5.57586">
        <ele>892</ele>
        <time>2022-02-15T10:28:56.000Z</time>
      </trkpt>
      <trkpt lat="43.53165" lon="5.57586">
        <ele>892</ele>
        <time>2022-02-15T10:28:57.000Z</time>
      </trkpt>
      <trkpt lat="43.53165" lon="5.57586">
        <ele>892</ele>
        <time>2022-02-15T10:28:58.000Z</time>
      </trkpt>
      <trkpt lat="43.53165" lon="5.57586">
        <ele>892</ele>
        <time>2022-02-15T10:28:59.000Z</time>
      </trkpt>
      <trkpt lat="43.53165" lon="5.57586">
        <ele>892</ele>
        <time>2022-02-15T10:29:00.000Z</time>
      </trkpt>
      <trkpt lat="43.53165" lon="5.57586">
        <ele>892</ele>
        <time>2022-02-15T10:29:01.000Z</time>
      </trkpt>
      <trkpt lat="43.53165" lon="5.57586">
        <ele>892</ele>
        <time>2022-02-15T10:29:02.000Z</time>
      </trkpt>
      <trkpt lat="43.53165" lon="5.57586">
        <ele>892</ele>
        <time>2022-02-15T10:29:03.000Z</time>
      </trkpt>
      <trkpt lat="43.53165" lon="5.57586">
        <ele>892</ele>
        <time>2022-02-15T10:29:04.000Z</time>
      </trkpt>
      <trkpt lat="43.53165" lon="5.57586">
        <ele>892</ele>
        <time>2022-02-15T10:29:05.000Z</time>
      </trkpt>
      <trkpt lat="43.53165" lon="5.57586">
        <ele>892</ele>
        <time>2022-02-15T10:29:06.000Z</time>
      </trkpt>
      <trkpt lat="43.53165" lon="5.57586">
        <ele>892</ele>
        <time>2022-02-15T10:29:07.000Z</time>
      </trkpt>
      <trkpt lat="43.53165" lon="5.57586">
        <ele>892</ele>
        <time>2022-02-15T10:29:08.000Z</time>
      </trkpt>
      <trkpt lat="43.53165" lon="5.57586">
        <ele>892</ele>
        <time>2022-02-15T10:29:09.000Z</time>
      </trkpt>
      <trkpt lat="43.53165" lon="5.57587">
        <ele>892</ele>
        <time>2022-02-15T10:29:10.000Z</time>
      </trkpt>
      <trkpt lat="43.53165" lon="5.57589">
        <ele>892</ele>
        <time>2022-02-15T10:29:11.000Z</time>
      </trkpt>
      <trkpt lat="43.53165" lon="5.5759">
        <ele>892</ele>
        <time>2022-02-15T10:29:12.000Z</time>
      </trkpt>
      <trkpt lat="43.53165" lon="5.57591">
        <ele>892</ele>
        <time>2022-02-15T10:29:13.000Z</time>
      </trkpt>
      <trkpt lat="43.53165" lon="5.57592">
        <ele>892</ele>
        <time>2022-02-15T10:29:14.000Z</time>
      </trkpt>
      <trkpt lat="43.53166" lon="5.57593">
        <ele>892</ele>
        <time>2022-02-15T10:29:15.000Z</time>
      </trkpt>
      <trkpt lat="43.53166" lon="5.57595">
        <ele>892</ele>
        <time>2022-02-15T10:29:16.000Z</time>
      </trkpt>
      <trkpt lat="43.53165" lon="5.57596">
        <ele>892</ele>
        <time>2022-02-15T10:29:17.000Z</time>
      </trkpt>
      <trkpt lat="43.53165" lon="5.57596">
        <ele>892</ele>
        <time>2022-02-15T10:29:18.000Z</time>
      </trkpt>
      <trkpt lat="43.53165" lon="5.57597">
        <ele>892</ele>
        <time>2022-02-15T10:29:19.000Z</time>
      </trkpt>
      <trkpt lat="43.53165" lon="5.57597">
        <ele>892</ele>
        <time>2022-02-15T10:29:20.000Z</time>
      </trkpt>
      <trkpt lat="43.53165" lon="5.57597">
        <ele>892</ele>
        <time>2022-02-15T10:29:21.000Z</time>
      </trkpt>
      <trkpt lat="43.53165" lon="5.57598">
        <ele>892</ele>
        <time>2022-02-15T10:29:22.000Z</time>
      </trkpt>
      <trkpt lat="43.53164" lon="5.57599">
        <ele>892</ele>
        <time>2022-02-15T10:29:23.000Z</time>
      </trkpt>
      <trkpt lat="43.53164" lon="5.576">
        <ele>893</ele>
        <time>2022-02-15T10:29:24.000Z</time>
      </trkpt>
      <trkpt lat="43.53164" lon="5.576">
        <ele>893</ele>
        <time>2022-02-15T10:29:25.000Z</time>
      </trkpt>
      <trkpt lat="43.53164" lon="5.57601">
        <ele>893</ele>
        <time>2022-02-15T10:29:26.000Z</time>
      </trkpt>
      <trkpt lat="43.53164" lon="5.57602">
        <ele>893</ele>
        <time>2022-02-15T10:29:27.000Z</time>
      </trkpt>
      <trkpt lat="43.53163" lon="5.57603">
        <ele>893</ele>
        <time>2022-02-15T10:29:28.000Z</time>
      </trkpt>
      <trkpt lat="43.53163" lon="5.57604">
        <ele>893</ele>
        <time>2022-02-15T10:29:29.000Z</time>
      </trkpt>
      <trkpt lat="43.53163" lon="5.57605">
        <ele>894</ele>
        <time>2022-02-15T10:29:30.000Z</time>
      </trkpt>
      <trkpt lat="43.53162" lon="5.57605">
        <ele>894</ele>
        <time>2022-02-15T10:29:31.000Z</time>
      </trkpt>
      <trkpt lat="43.53162" lon="5.57606">
        <ele>894</ele>
        <time>2022-02-15T10:29:32.000Z</time>
      </trkpt>
      <trkpt lat="43.53162" lon="5.57606">
        <ele>894</ele>
        <time>2022-02-15T10:29:33.000Z</time>
      </trkpt>
      <trkpt lat="43.53162" lon="5.57606">
        <ele>894</ele>
        <time>2022-02-15T10:29:34.000Z</time>
      </trkpt>
      <trkpt lat="43.53162" lon="5.57606">
        <ele>894</ele>
        <time>2022-02-15T10:29:35.000Z</time>
      </trkpt>
      <trkpt lat="43.53162" lon="5.57606">
        <ele>894</ele>
        <time>2022-02-15T10:29:36.000Z</time>
      </trkpt>
      <trkpt lat="43.53162" lon="5.57606">
        <ele>894</ele>
        <time>2022-02-15T10:29:37.000Z</time>
      </trkpt>
      <trkpt lat="43.53162" lon="5.57606">
        <ele>894</ele>
        <time>2022-02-15T10:29:38.000Z</time>
      </trkpt>
      <trkpt lat="43.53162" lon="5.57606">
        <ele>894</ele>
        <time>2022-02-15T10:29:39.000Z</time>
      </trkpt>
      <trkpt lat="43.53162" lon="5.57606">
        <ele>894</ele>
        <time>2022-02-15T10:29:40.000Z</time>
      </trkpt>
      <trkpt lat="43.53162" lon="5.57606">
        <ele>894</ele>
        <time>2022-02-15T10:29:41.000Z</time>
      </trkpt>
      <trkpt lat="43.53162" lon="5.57606">
        <ele>894</ele>
        <time>2022-02-15T10:29:42.000Z</time>
      </trkpt>
      <trkpt lat="43.53162" lon="5.57607">
        <ele>894</ele>
        <time>2022-02-15T10:29:43.000Z</time>
      </trkpt>
      <trkpt lat="43.53162" lon="5.57607">
        <ele>894</ele>
        <time>2022-02-15T10:29:44.000Z</time>
      </trkpt>
      <trkpt lat="43.53162" lon="5.57606">
        <ele>894</ele>
        <time>2022-02-15T10:29:45.000Z</time>
      </trkpt>
      <trkpt lat="43.53162" lon="5.57606">
        <ele>895</ele>
        <time>2022-02-15T10:29:46.000Z</time>
      </trkpt>
      <trkpt lat="43.53162" lon="5.57607">
        <ele>895</ele>
        <time>2022-02-15T10:29:47.000Z</time>
      </trkpt>
      <trkpt lat="43.53162" lon="5.57607">
        <ele>895</ele>
        <time>2022-02-15T10:29:48.000Z</time>
      </trkpt>
      <trkpt lat="43.53162" lon="5.57607">
        <ele>895</ele>
        <time>2022-02-15T10:29:49.000Z</time>
      </trkpt>
      <trkpt lat="43.53162" lon="5.57608">
        <ele>895</ele>
        <time>2022-02-15T10:29:50.000Z</time>
      </trkpt>
      <trkpt lat="43.53163" lon="5.57609">
        <ele>895</ele>
        <time>2022-02-15T10:29:51.000Z</time>
      </trkpt>
      <trkpt lat="43.53163" lon="5.57609">
        <ele>895</ele>
        <time>2022-02-15T10:29:52.000Z</time>
      </trkpt>
      <trkpt lat="43.53163" lon="5.5761">
        <ele>894</ele>
        <time>2022-02-15T10:29:53.000Z</time>
      </trkpt>
      <trkpt lat="43.53164" lon="5.57611">
        <ele>894</ele>
        <time>2022-02-15T10:29:54.000Z</time>
      </trkpt>
      <trkpt lat="43.53164" lon="5.57612">
        <ele>894</ele>
        <time>2022-02-15T10:29:55.000Z</time>
      </trkpt>
      <trkpt lat="43.53163" lon="5.57613">
        <ele>894</ele>
        <time>2022-02-15T10:29:56.000Z</time>
      </trkpt>
      <trkpt lat="43.53163" lon="5.57614">
        <ele>894</ele>
        <time>2022-02-15T10:29:57.000Z</time>
      </trkpt>
      <trkpt lat="43.53163" lon="5.57615">
        <ele>894</ele>
        <time>2022-02-15T10:29:58.000Z</time>
      </trkpt>
      <trkpt lat="43.53163" lon="5.57616">
        <ele>894</ele>
        <time>2022-02-15T10:29:59.000Z</time>
      </trkpt>
      <trkpt lat="43.53164" lon="5.57617">
        <ele>894</ele>
        <time>2022-02-15T10:30:00.000Z</time>
      </trkpt>
      <trkpt lat="43.53164" lon="5.57618">
        <ele>894</ele>
        <time>2022-02-15T10:30:01.000Z</time>
      </trkpt>
      <trkpt lat="43.53164" lon="5.57619">
        <ele>894</ele>
        <time>2022-02-15T10:30:02.000Z</time>
      </trkpt>
      <trkpt lat="43.53164" lon="5.5762">
        <ele>894</ele>
        <time>2022-02-15T10:30:03.000Z</time>
      </trkpt>
      <trkpt lat="43.53164" lon="5.57621">
        <ele>894</ele>
        <time>2022-02-15T10:30:04.000Z</time>
      </trkpt>
      <trkpt lat="43.53165" lon="5.57622">
        <ele>894</ele>
        <time>2022-02-15T10:30:05.000Z</time>
      </trkpt>
      <trkpt lat="43.53165" lon="5.57624">
        <ele>894</ele>
        <time>2022-02-15T10:30:06.000Z</time>
      </trkpt>
      <trkpt lat="43.53166" lon="5.57625">
        <ele>894</ele>
        <time>2022-02-15T10:30:07.000Z</time>
      </trkpt>
      <trkpt lat="43.53166" lon="5.57626">
        <ele>894</ele>
        <time>2022-02-15T10:30:08.000Z</time>
      </trkpt>
      <trkpt lat="43.53166" lon="5.57628">
        <ele>894</ele>
        <time>2022-02-15T10:30:09.000Z</time>
      </trkpt>
      <trkpt lat="43.53166" lon="5.57629">
        <ele>894</ele>
        <time>2022-02-15T10:30:10.000Z</time>
      </trkpt>
      <trkpt lat="43.53166" lon="5.57631">
        <ele>894</ele>
        <time>2022-02-15T10:30:11.000Z</time>
      </trkpt>
      <trkpt lat="43.53166" lon="5.57632">
        <ele>894</ele>
        <time>2022-02-15T10:30:12.000Z</time>
      </trkpt>
      <trkpt lat="43.53166" lon="5.57633">
        <ele>893</ele>
        <time>2022-02-15T10:30:13.000Z</time>
      </trkpt>
      <trkpt lat="43.53166" lon="5.57635">
        <ele>893</ele>
        <time>2022-02-15T10:30:14.000Z</time>
      </trkpt>
      <trkpt lat="43.53165" lon="5.57635">
        <ele>893</ele>
        <time>2022-02-15T10:30:15.000Z</time>
      </trkpt>
      <trkpt lat="43.53165" lon="5.57637">
        <ele>893</ele>
        <time>2022-02-15T10:30:16.000Z</time>
      </trkpt>
      <trkpt lat="43.53165" lon="5.57638">
        <ele>893</ele>
        <time>2022-02-15T10:30:17.000Z</time>
      </trkpt>
      <trkpt lat="43.53165" lon="5.57639">
        <ele>893</ele>
        <time>2022-02-15T10:30:18.000Z</time>
      </trkpt>
      <trkpt lat="43.53165" lon="5.5764">
        <ele>893</ele>
        <time>2022-02-15T10:30:19.000Z</time>
      </trkpt>
      <trkpt lat="43.53166" lon="5.57641">
        <ele>893</ele>
        <time>2022-02-15T10:30:20.000Z</time>
      </trkpt>
      <trkpt lat="43.53166" lon="5.57642">
        <ele>893</ele>
        <time>2022-02-15T10:30:21.000Z</time>
      </trkpt>
      <trkpt lat="43.53166" lon="5.57643">
        <ele>893</ele>
        <time>2022-02-15T10:30:22.000Z</time>
      </trkpt>
      <trkpt lat="43.53166" lon="5.57644">
        <ele>893</ele>
        <time>2022-02-15T10:30:23.000Z</time>
      </trkpt>
      <trkpt lat="43.53166" lon="5.57645">
        <ele>893</ele>
        <time>2022-02-15T10:30:24.000Z</time>
      </trkpt>
      <trkpt lat="43.53166" lon="5.57646">
        <ele>893</ele>
        <time>2022-02-15T10:30:25.000Z</time>
      </trkpt>
      <trkpt lat="43.53167" lon="5.57647">
        <ele>893</ele>
        <time>2022-02-15T10:30:26.000Z</time>
      </trkpt>
      <trkpt lat="43.53167" lon="5.57648">
        <ele>893</ele>
        <time>2022-02-15T10:30:27.000Z</time>
      </trkpt>
      <trkpt lat="43.53167" lon="5.57649">
        <ele>893</ele>
        <time>2022-02-15T10:30:28.000Z</time>
      </trkpt>
      <trkpt lat="43.53167" lon="5.57649">
        <ele>893</ele>
        <time>2022-02-15T10:30:29.000Z</time>
      </trkpt>
      <trkpt lat="43.53167" lon="5.5765">
        <ele>893</ele>
        <time>2022-02-15T10:30:30.000Z</time>
      </trkpt>
      <trkpt lat="43.53167" lon="5.57652">
        <ele>893</ele>
        <time>2022-02-15T10:30:31.000Z</time>
      </trkpt>
      <trkpt lat="43.53167" lon="5.57653">
        <ele>893</ele>
        <time>2022-02-15T10:30:32.000Z</time>
      </trkpt>
      <trkpt lat="43.53167" lon="5.57654">
        <ele>893</ele>
        <time>2022-02-15T10:30:33.000Z</time>
      </trkpt>
      <trkpt lat="43.53167" lon="5.57655">
        <ele>893</ele>
        <time>2022-02-15T10:30:34.000Z</time>
      </trkpt>
      <trkpt lat="43.53167" lon="5.57656">
        <ele>893</ele>
        <time>2022-02-15T10:30:35.000Z</time>
      </trkpt>
      <trkpt lat="43.53167" lon="5.57657">
        <ele>893</ele>
        <time>2022-02-15T10:30:36.000Z</time>
      </trkpt>
      <trkpt lat="43.53167" lon="5.57658">
        <ele>893</ele>
        <time>2022-02-15T10:30:37.000Z</time>
      </trkpt>
      <trkpt lat="43.53167" lon="5.57659">
        <ele>893</ele>
        <time>2022-02-15T10:30:38.000Z</time>
      </trkpt>
      <trkpt lat="43.53167" lon="5.57659">
        <ele>893</ele>
        <time>2022-02-15T10:30:39.000Z</time>
      </trkpt>
      <trkpt lat="43.53167" lon="5.57661">
        <ele>893</ele>
        <time>2022-02-15T10:30:40.000Z</time>
      </trkpt>
      <trkpt lat="43.53167" lon="5.57662">
        <ele>893</ele>
        <time>2022-02-15T10:30:41.000Z</time>
      </trkpt>
      <trkpt lat="43.53167" lon="5.57664">
        <ele>893</ele>
        <time>2022-02-15T10:30:42.000Z</time>
      </trkpt>
      <trkpt lat="43.53167" lon="5.57665">
        <ele>893</ele>
        <time>2022-02-15T10:30:43.000Z</time>
      </trkpt>
      <trkpt lat="43.53167" lon="5.57665">
        <ele>893</ele>
        <time>2022-02-15T10:30:44.000Z</time>
      </trkpt>
      <trkpt lat="43.53167" lon="5.57666">
        <ele>893</ele>
        <time>2022-02-15T10:30:45.000Z</time>
      </trkpt>
      <trkpt lat="43.53167" lon="5.57668">
        <ele>893</ele>
        <time>2022-02-15T10:30:46.000Z</time>
      </trkpt>
      <trkpt lat="43.53167" lon="5.57668">
        <ele>893</ele>
        <time>2022-02-15T10:30:47.000Z</time>
      </trkpt>
      <trkpt lat="43.53166" lon="5.57669">
        <ele>893</ele>
        <time>2022-02-15T10:30:48.000Z</time>
      </trkpt>
      <trkpt lat="43.53166" lon="5.5767">
        <ele>893</ele>
        <time>2022-02-15T10:30:49.000Z</time>
      </trkpt>
      <trkpt lat="43.53166" lon="5.5767">
        <ele>893</ele>
        <time>2022-02-15T10:30:50.000Z</time>
      </trkpt>
      <trkpt lat="43.53166" lon="5.57671">
        <ele>893</ele>
        <time>2022-02-15T10:30:51.000Z</time>
      </trkpt>
      <trkpt lat="43.53166" lon="5.57673">
        <ele>893</ele>
        <time>2022-02-15T10:30:52.000Z</time>
      </trkpt>
      <trkpt lat="43.53166" lon="5.57673">
        <ele>893</ele>
        <time>2022-02-15T10:30:53.000Z</time>
      </trkpt>
      <trkpt lat="43.53166" lon="5.57674">
        <ele>893</ele>
        <time>2022-02-15T10:30:54.000Z</time>
      </trkpt>
      <trkpt lat="43.53166" lon="5.57675">
        <ele>893</ele>
        <time>2022-02-15T10:30:55.000Z</time>
      </trkpt>
      <trkpt lat="43.53166" lon="5.57676">
        <ele>893</ele>
        <time>2022-02-15T10:30:56.000Z</time>
      </trkpt>
      <trkpt lat="43.53165" lon="5.57678">
        <ele>893</ele>
        <time>2022-02-15T10:30:57.000Z</time>
      </trkpt>
      <trkpt lat="43.53165" lon="5.57679">
        <ele>893</ele>
        <time>2022-02-15T10:30:58.000Z</time>
      </trkpt>
      <trkpt lat="43.53165" lon="5.57679">
        <ele>893</ele>
        <time>2022-02-15T10:30:59.000Z</time>
      </trkpt>
      <trkpt lat="43.53164" lon="5.57681">
        <ele>893</ele>
        <time>2022-02-15T10:31:00.000Z</time>
      </trkpt>
      <trkpt lat="43.53165" lon="5.57682">
        <ele>893</ele>
        <time>2022-02-15T10:31:01.000Z</time>
      </trkpt>
      <trkpt lat="43.53165" lon="5.57683">
        <ele>893</ele>
        <time>2022-02-15T10:31:02.000Z</time>
      </trkpt>
      <trkpt lat="43.53165" lon="5.57684">
        <ele>893</ele>
        <time>2022-02-15T10:31:03.000Z</time>
      </trkpt>
      <trkpt lat="43.53164" lon="5.57686">
        <ele>893</ele>
        <time>2022-02-15T10:31:04.000Z</time>
      </trkpt>
      <trkpt lat="43.53164" lon="5.57687">
        <ele>893</ele>
        <time>2022-02-15T10:31:05.000Z</time>
      </trkpt>
      <trkpt lat="43.53165" lon="5.57688">
        <ele>893</ele>
        <time>2022-02-15T10:31:06.000Z</time>
      </trkpt>
      <trkpt lat="43.53165" lon="5.5769">
        <ele>893</ele>
        <time>2022-02-15T10:31:07.000Z</time>
      </trkpt>
      <trkpt lat="43.53165" lon="5.57691">
        <ele>893</ele>
        <time>2022-02-15T10:31:08.000Z</time>
      </trkpt>
      <trkpt lat="43.53165" lon="5.57693">
        <ele>893</ele>
        <time>2022-02-15T10:31:09.000Z</time>
      </trkpt>
      <trkpt lat="43.53165" lon="5.57694">
        <ele>893</ele>
        <time>2022-02-15T10:31:10.000Z</time>
      </trkpt>
      <trkpt lat="43.53164" lon="5.57695">
        <ele>893</ele>
        <time>2022-02-15T10:31:11.000Z</time>
      </trkpt>
      <trkpt lat="43.53164" lon="5.57696">
        <ele>893</ele>
        <time>2022-02-15T10:31:12.000Z</time>
      </trkpt>
      <trkpt lat="43.53163" lon="5.57697">
        <ele>893</ele>
        <time>2022-02-15T10:31:13.000Z</time>
      </trkpt>
      <trkpt lat="43.53163" lon="5.57699">
        <ele>893</ele>
        <time>2022-02-15T10:31:14.000Z</time>
      </trkpt>
      <trkpt lat="43.53163" lon="5.57699">
        <ele>893</ele>
        <time>2022-02-15T10:31:15.000Z</time>
      </trkpt>
      <trkpt lat="43.53162" lon="5.577">
        <ele>893</ele>
        <time>2022-02-15T10:31:16.000Z</time>
      </trkpt>
      <trkpt lat="43.53162" lon="5.57701">
        <ele>894</ele>
        <time>2022-02-15T10:31:17.000Z</time>
      </trkpt>
      <trkpt lat="43.53161" lon="5.57702">
        <ele>894</ele>
        <time>2022-02-15T10:31:18.000Z</time>
      </trkpt>
      <trkpt lat="43.53161" lon="5.57703">
        <ele>894</ele>
        <time>2022-02-15T10:31:19.000Z</time>
      </trkpt>
      <trkpt lat="43.53161" lon="5.57705">
        <ele>894</ele>
        <time>2022-02-15T10:31:20.000Z</time>
      </trkpt>
      <trkpt lat="43.5316" lon="5.57706">
        <ele>894</ele>
        <time>2022-02-15T10:31:21.000Z</time>
      </trkpt>
      <trkpt lat="43.5316" lon="5.57707">
        <ele>894</ele>
        <time>2022-02-15T10:31:22.000Z</time>
      </trkpt>
      <trkpt lat="43.5316" lon="5.57708">
        <ele>894</ele>
        <time>2022-02-15T10:31:23.000Z</time>
      </trkpt>
      <trkpt lat="43.5316" lon="5.5771">
        <ele>894</ele>
        <time>2022-02-15T10:31:24.000Z</time>
      </trkpt>
      <trkpt lat="43.5316" lon="5.57711">
        <ele>894</ele>
        <time>2022-02-15T10:31:25.000Z</time>
      </trkpt>
      <trkpt lat="43.5316" lon="5.57712">
        <ele>894</ele>
        <time>2022-02-15T10:31:26.000Z</time>
      </trkpt>
      <trkpt lat="43.5316" lon="5.57714">
        <ele>894</ele>
        <time>2022-02-15T10:31:27.000Z</time>
      </trkpt>
      <trkpt lat="43.5316" lon="5.57715">
        <ele>894</ele>
        <time>2022-02-15T10:31:28.000Z</time>
      </trkpt>
      <trkpt lat="43.5316" lon="5.57716">
        <ele>894</ele>
        <time>2022-02-15T10:31:29.000Z</time>
      </trkpt>
      <trkpt lat="43.5316" lon="5.57717">
        <ele>894</ele>
        <time>2022-02-15T10:31:30.000Z</time>
      </trkpt>
      <trkpt lat="43.5316" lon="5.57719">
        <ele>894</ele>
        <time>2022-02-15T10:31:31.000Z</time>
      </trkpt>
      <trkpt lat="43.5316" lon="5.5772">
        <ele>894</ele>
        <time>2022-02-15T10:31:32.000Z</time>
      </trkpt>
      <trkpt lat="43.53161" lon="5.57721">
        <ele>894</ele>
        <time>2022-02-15T10:31:33.000Z</time>
      </trkpt>
      <trkpt lat="43.53161" lon="5.57722">
        <ele>894</ele>
        <time>2022-02-15T10:31:34.000Z</time>
      </trkpt>
      <trkpt lat="43.53161" lon="5.57724">
        <ele>893</ele>
        <time>2022-02-15T10:31:35.000Z</time>
      </trkpt>
      <trkpt lat="43.53161" lon="5.57726">
        <ele>894</ele>
        <time>2022-02-15T10:31:36.000Z</time>
      </trkpt>
      <trkpt lat="43.53161" lon="5.57726">
        <ele>894</ele>
        <time>2022-02-15T10:31:37.000Z</time>
      </trkpt>
      <trkpt lat="43.53161" lon="5.57728">
        <ele>894</ele>
        <time>2022-02-15T10:31:38.000Z</time>
      </trkpt>
      <trkpt lat="43.53162" lon="5.57729">
        <ele>894</ele>
        <time>2022-02-15T10:31:39.000Z</time>
      </trkpt>
      <trkpt lat="43.53162" lon="5.5773">
        <ele>893</ele>
        <time>2022-02-15T10:31:40.000Z</time>
      </trkpt>
      <trkpt lat="43.53162" lon="5.57731">
        <ele>893</ele>
        <time>2022-02-15T10:31:41.000Z</time>
      </trkpt>
      <trkpt lat="43.53162" lon="5.57733">
        <ele>893</ele>
        <time>2022-02-15T10:31:42.000Z</time>
      </trkpt>
      <trkpt lat="43.53162" lon="5.57734">
        <ele>893</ele>
        <time>2022-02-15T10:31:43.000Z</time>
      </trkpt>
      <trkpt lat="43.53162" lon="5.57734">
        <ele>893</ele>
        <time>2022-02-15T10:31:44.000Z</time>
      </trkpt>
      <trkpt lat="43.53162" lon="5.57735">
        <ele>893</ele>
        <time>2022-02-15T10:31:45.000Z</time>
      </trkpt>
      <trkpt lat="43.53162" lon="5.57736">
        <ele>893</ele>
        <time>2022-02-15T10:31:46.000Z</time>
      </trkpt>
      <trkpt lat="43.53162" lon="5.57737">
        <ele>893</ele>
        <time>2022-02-15T10:31:47.000Z</time>
      </trkpt>
      <trkpt lat="43.53163" lon="5.57738">
        <ele>893</ele>
        <time>2022-02-15T10:31:48.000Z</time>
      </trkpt>
      <trkpt lat="43.53163" lon="5.57739">
        <ele>893</ele>
        <time>2022-02-15T10:31:49.000Z</time>
      </trkpt>
      <trkpt lat="43.53163" lon="5.5774">
        <ele>893</ele>
        <time>2022-02-15T10:31:50.000Z</time>
      </trkpt>
      <trkpt lat="43.53163" lon="5.57741">
        <ele>893</ele>
        <time>2022-02-15T10:31:51.000Z</time>
      </trkpt>
      <trkpt lat="43.53163" lon="5.57742">
        <ele>893</ele>
        <time>2022-02-15T10:31:52.000Z</time>
      </trkpt>
      <trkpt lat="43.53163" lon="5.57743">
        <ele>893</ele>
        <time>2022-02-15T10:31:53.000Z</time>
      </trkpt>
      <trkpt lat="43.53163" lon="5.57745">
        <ele>893</ele>
        <time>2022-02-15T10:31:54.000Z</time>
      </trkpt>
      <trkpt lat="43.53164" lon="5.57746">
        <ele>893</ele>
        <time>2022-02-15T10:31:55.000Z</time>
      </trkpt>
      <trkpt lat="43.53164" lon="5.57747">
        <ele>893</ele>
        <time>2022-02-15T10:31:56.000Z</time>
      </trkpt>
      <trkpt lat="43.53164" lon="5.57747">
        <ele>893</ele>
        <time>2022-02-15T10:31:57.000Z</time>
      </trkpt>
      <trkpt lat="43.53164" lon="5.57747">
        <ele>893</ele>
        <time>2022-02-15T10:31:58.000Z</time>
      </trkpt>
      <trkpt lat="43.53163" lon="5.57748">
        <ele>893</ele>
        <time>2022-02-15T10:31:59.000Z</time>
      </trkpt>
      <trkpt lat="43.53163" lon="5.57748">
        <ele>893</ele>
        <time>2022-02-15T10:32:00.000Z</time>
      </trkpt>
      <trkpt lat="43.53163" lon="5.57749">
        <ele>893</ele>
        <time>2022-02-15T10:32:01.000Z</time>
      </trkpt>
      <trkpt lat="43.53164" lon="5.57749">
        <ele>893</ele>
        <time>2022-02-15T10:32:02.000Z</time>
      </trkpt>
      <trkpt lat="43.53164" lon="5.5775">
        <ele>893</ele>
        <time>2022-02-15T10:32:03.000Z</time>
      </trkpt>
      <trkpt lat="43.53164" lon="5.5775">
        <ele>893</ele>
        <time>2022-02-15T10:32:04.000Z</time>
      </trkpt>
      <trkpt lat="43.53164" lon="5.5775">
        <ele>893</ele>
        <time>2022-02-15T10:32:05.000Z</time>
      </trkpt>
      <trkpt lat="43.53164" lon="5.5775">
        <ele>893</ele>
        <time>2022-02-15T10:32:06.000Z</time>
      </trkpt>
      <trkpt lat="43.53164" lon="5.57749">
        <ele>893</ele>
        <time>2022-02-15T10:32:07.000Z</time>
      </trkpt>
      <trkpt lat="43.53165" lon="5.5775">
        <ele>893</ele>
        <time>2022-02-15T10:32:08.000Z</time>
      </trkpt>
      <trkpt lat="43.53165" lon="5.5775">
        <ele>893</ele>
        <time>2022-02-15T10:32:09.000Z</time>
      </trkpt>
      <trkpt lat="43.53165" lon="5.5775">
        <ele>893</ele>
        <time>2022-02-15T10:32:10.000Z</time>
      </trkpt>
      <trkpt lat="43.53165" lon="5.5775">
        <ele>893</ele>
        <time>2022-02-15T10:32:11.000Z</time>
      </trkpt>
      <trkpt lat="43.53165" lon="5.57751">
        <ele>893</ele>
        <time>2022-02-15T10:32:12.000Z</time>
      </trkpt>
      <trkpt lat="43.53165" lon="5.57751">
        <ele>892</ele>
        <time>2022-02-15T10:32:13.000Z</time>
      </trkpt>
      <trkpt lat="43.53165" lon="5.57753">
        <ele>892</ele>
        <time>2022-02-15T10:32:14.000Z</time>
      </trkpt>
      <trkpt lat="43.53166" lon="5.57753">
        <ele>892</ele>
        <time>2022-02-15T10:32:15.000Z</time>
      </trkpt>
      <trkpt lat="43.53166" lon="5.57754">
        <ele>892</ele>
        <time>2022-02-15T10:32:16.000Z</time>
      </trkpt>
      <trkpt lat="43.53165" lon="5.57755">
        <ele>892</ele>
        <time>2022-02-15T10:32:17.000Z</time>
      </trkpt>
      <trkpt lat="43.53165" lon="5.57755">
        <ele>892</ele>
        <time>2022-02-15T10:32:18.000Z</time>
      </trkpt>
      <trkpt lat="43.53165" lon="5.57755">
        <ele>892</ele>
        <time>2022-02-15T10:32:19.000Z</time>
      </trkpt>
      <trkpt lat="43.53165" lon="5.57755">
        <ele>892</ele>
        <time>2022-02-15T10:32:20.000Z</time>
      </trkpt>
      <trkpt lat="43.53165" lon="5.57755">
        <ele>892</ele>
        <time>2022-02-15T10:32:21.000Z</time>
      </trkpt>
      <trkpt lat="43.53165" lon="5.57755">
        <ele>892</ele>
        <time>2022-02-15T10:32:22.000Z</time>
      </trkpt>
      <trkpt lat="43.53166" lon="5.57755">
        <ele>892</ele>
        <time>2022-02-15T10:32:23.000Z</time>
      </trkpt>
      <trkpt lat="43.53166" lon="5.57756">
        <ele>892</ele>
        <time>2022-02-15T10:32:24.000Z</time>
      </trkpt>
      <trkpt lat="43.53166" lon="5.57757">
        <ele>892</ele>
        <time>2022-02-15T10:32:25.000Z</time>
      </trkpt>
      <trkpt lat="43.53166" lon="5.57758">
        <ele>892</ele>
        <time>2022-02-15T10:32:26.000Z</time>
      </trkpt>
      <trkpt lat="43.53166" lon="5.57758">
        <ele>892</ele>
        <time>2022-02-15T10:32:27.000Z</time>
      </trkpt>
      <trkpt lat="43.53166" lon="5.57758">
        <ele>892</ele>
        <time>2022-02-15T10:32:28.000Z</time>
      </trkpt>
      <trkpt lat="43.53166" lon="5.57758">
        <ele>892</ele>
        <time>2022-02-15T10:32:29.000Z</time>
      </trkpt>
      <trkpt lat="43.53166" lon="5.57758">
        <ele>892</ele>
        <time>2022-02-15T10:32:30.000Z</time>
      </trkpt>
      <trkpt lat="43.53166" lon="5.57758">
        <ele>892</ele>
        <time>2022-02-15T10:32:31.000Z</time>
      </trkpt>
      <trkpt lat="43.53166" lon="5.57758">
        <ele>892</ele>
        <time>2022-02-15T10:32:32.000Z</time>
      </trkpt>
      <trkpt lat="43.53166" lon="5.57758">
        <ele>892</ele>
        <time>2022-02-15T10:32:33.000Z</time>
      </trkpt>
      <trkpt lat="43.53166" lon="5.57758">
        <ele>892</ele>
        <time>2022-02-15T10:32:34.000Z</time>
      </trkpt>
      <trkpt lat="43.53166" lon="5.57758">
        <ele>892</ele>
        <time>2022-02-15T10:32:35.000Z</time>
      </trkpt>
      <trkpt lat="43.53166" lon="5.57758">
        <ele>893</ele>
        <time>2022-02-15T10:32:36.000Z</time>
      </trkpt>
      <trkpt lat="43.53166" lon="5.57758">
        <ele>893</ele>
        <time>2022-02-15T10:32:37.000Z</time>
      </trkpt>
      <trkpt lat="43.53166" lon="5.57758">
        <ele>892</ele>
        <time>2022-02-15T10:32:38.000Z</time>
      </trkpt>
      <trkpt lat="43.53166" lon="5.57758">
        <ele>892</ele>
        <time>2022-02-15T10:32:39.000Z</time>
      </trkpt>
      <trkpt lat="43.53166" lon="5.57758">
        <ele>892</ele>
        <time>2022-02-15T10:32:40.000Z</time>
      </trkpt>
      <trkpt lat="43.53166" lon="5.57758">
        <ele>892</ele>
        <time>2022-02-15T10:32:41.000Z</time>
      </trkpt>
      <trkpt lat="43.53166" lon="5.57759">
        <ele>892</ele>
        <time>2022-02-15T10:32:42.000Z</time>
      </trkpt>
      <trkpt lat="43.53166" lon="5.5776">
        <ele>892</ele>
        <time>2022-02-15T10:32:43.000Z</time>
      </trkpt>
      <trkpt lat="43.53167" lon="5.57762">
        <ele>892</ele>
        <time>2022-02-15T10:32:44.000Z</time>
      </trkpt>
      <trkpt lat="43.53166" lon="5.57763">
        <ele>892</ele>
        <time>2022-02-15T10:32:45.000Z</time>
      </trkpt>
      <trkpt lat="43.53166" lon="5.57763">
        <ele>893</ele>
        <time>2022-02-15T10:32:46.000Z</time>
      </trkpt>
      <trkpt lat="43.53166" lon="5.57765">
        <ele>893</ele>
        <time>2022-02-15T10:32:47.000Z</time>
      </trkpt>
      <trkpt lat="43.53166" lon="5.57765">
        <ele>893</ele>
        <time>2022-02-15T10:32:48.000Z</time>
      </trkpt>
      <trkpt lat="43.53166" lon="5.57766">
        <ele>893</ele>
        <time>2022-02-15T10:32:49.000Z</time>
      </trkpt>
      <trkpt lat="43.53166" lon="5.57767">
        <ele>893</ele>
        <time>2022-02-15T10:32:50.000Z</time>
      </trkpt>
      <trkpt lat="43.53166" lon="5.57767">
        <ele>893</ele>
        <time>2022-02-15T10:32:51.000Z</time>
      </trkpt>
      <trkpt lat="43.53166" lon="5.57767">
        <ele>893</ele>
        <time>2022-02-15T10:32:52.000Z</time>
      </trkpt>
      <trkpt lat="43.53166" lon="5.57767">
        <ele>893</ele>
        <time>2022-02-15T10:32:53.000Z</time>
      </trkpt>
      <trkpt lat="43.53166" lon="5.57767">
        <ele>893</ele>
        <time>2022-02-15T10:32:54.000Z</time>
      </trkpt>
      <trkpt lat="43.53166" lon="5.57767">
        <ele>894</ele>
        <time>2022-02-15T10:32:55.000Z</time>
      </trkpt>
      <trkpt lat="43.53166" lon="5.57767">
        <ele>894</ele>
        <time>2022-02-15T10:32:56.000Z</time>
      </trkpt>
      <trkpt lat="43.53166" lon="5.57767">
        <ele>894</ele>
        <time>2022-02-15T10:32:57.000Z</time>
      </trkpt>
      <trkpt lat="43.53167" lon="5.57768">
        <ele>894</ele>
        <time>2022-02-15T10:32:58.000Z</time>
      </trkpt>
      <trkpt lat="43.53167" lon="5.57768">
        <ele>894</ele>
        <time>2022-02-15T10:32:59.000Z</time>
      </trkpt>
      <trkpt lat="43.53168" lon="5.57769">
        <ele>894</ele>
        <time>2022-02-15T10:33:00.000Z</time>
      </trkpt>
      <trkpt lat="43.53168" lon="5.57769">
        <ele>894</ele>
        <time>2022-02-15T10:33:01.000Z</time>
      </trkpt>
      <trkpt lat="43.53169" lon="5.57769">
        <ele>893</ele>
        <time>2022-02-15T10:33:02.000Z</time>
      </trkpt>
      <trkpt lat="43.53169" lon="5.5777">
        <ele>893</ele>
        <time>2022-02-15T10:33:03.000Z</time>
      </trkpt>
      <trkpt lat="43.5317" lon="5.57771">
        <ele>893</ele>
        <time>2022-02-15T10:33:04.000Z</time>
      </trkpt>
      <trkpt lat="43.53171" lon="5.57772">
        <ele>893</ele>
        <time>2022-02-15T10:33:05.000Z</time>
      </trkpt>
      <trkpt lat="43.53171" lon="5.57773">
        <ele>893</ele>
        <time>2022-02-15T10:33:06.000Z</time>
      </trkpt>
      <trkpt lat="43.53171" lon="5.57774">
        <ele>893</ele>
        <time>2022-02-15T10:33:07.000Z</time>
      </trkpt>
      <trkpt lat="43.53172" lon="5.57774">
        <ele>893</ele>
        <time>2022-02-15T10:33:08.000Z</time>
      </trkpt>
      <trkpt lat="43.53172" lon="5.57774">
        <ele>893</ele>
        <time>2022-02-15T10:33:09.000Z</time>
      </trkpt>
      <trkpt lat="43.53173" lon="5.57775">
        <ele>893</ele>
        <time>2022-02-15T10:33:10.000Z</time>
      </trkpt>
      <trkpt lat="43.53173" lon="5.57775">
        <ele>893</ele>
        <time>2022-02-15T10:33:11.000Z</time>
      </trkpt>
      <trkpt lat="43.53173" lon="5.57775">
        <ele>893</ele>
        <time>2022-02-15T10:33:12.000Z</time>
      </trkpt>
      <trkpt lat="43.53173" lon="5.57775">
        <ele>893</ele>
        <time>2022-02-15T10:33:13.000Z</time>
      </trkpt>
      <trkpt lat="43.53173" lon="5.57775">
        <ele>893</ele>
        <time>2022-02-15T10:33:14.000Z</time>
      </trkpt>
      <trkpt lat="43.53174" lon="5.57776">
        <ele>893</ele>
        <time>2022-02-15T10:33:15.000Z</time>
      </trkpt>
      <trkpt lat="43.53175" lon="5.57776">
        <ele>893</ele>
        <time>2022-02-15T10:33:16.000Z</time>
      </trkpt>
      <trkpt lat="43.53175" lon="5.57776">
        <ele>893</ele>
        <time>2022-02-15T10:33:17.000Z</time>
      </trkpt>
      <trkpt lat="43.53175" lon="5.57776">
        <ele>893</ele>
        <time>2022-02-15T10:33:18.000Z</time>
      </trkpt>
      <trkpt lat="43.53175" lon="5.57775">
        <ele>893</ele>
        <time>2022-02-15T10:33:19.000Z</time>
      </trkpt>
      <trkpt lat="43.53175" lon="5.57775">
        <ele>893</ele>
        <time>2022-02-15T10:33:20.000Z</time>
      </trkpt>
      <trkpt lat="43.53176" lon="5.57776">
        <ele>893</ele>
        <time>2022-02-15T10:33:21.000Z</time>
      </trkpt>
      <trkpt lat="43.53176" lon="5.57776">
        <ele>892</ele>
        <time>2022-02-15T10:33:22.000Z</time>
      </trkpt>
      <trkpt lat="43.53176" lon="5.57776">
        <ele>892</ele>
        <time>2022-02-15T10:33:23.000Z</time>
      </trkpt>
      <trkpt lat="43.53176" lon="5.57776">
        <ele>892</ele>
        <time>2022-02-15T10:33:24.000Z</time>
      </trkpt>
      <trkpt lat="43.53176" lon="5.57776">
        <ele>892</ele>
        <time>2022-02-15T10:33:25.000Z</time>
      </trkpt>
      <trkpt lat="43.53176" lon="5.57776">
        <ele>892</ele>
        <time>2022-02-15T10:33:26.000Z</time>
      </trkpt>
      <trkpt lat="43.53176" lon="5.57776">
        <ele>892</ele>
        <time>2022-02-15T10:33:27.000Z</time>
      </trkpt>
      <trkpt lat="43.53176" lon="5.57776">
        <ele>892</ele>
        <time>2022-02-15T10:33:28.000Z</time>
      </trkpt>
      <trkpt lat="43.53176" lon="5.57776">
        <ele>892</ele>
        <time>2022-02-15T10:33:29.000Z</time>
      </trkpt>
      <trkpt lat="43.53176" lon="5.57776">
        <ele>892</ele>
        <time>2022-02-15T10:33:30.000Z</time>
      </trkpt>
      <trkpt lat="43.53177" lon="5.57776">
        <ele>892</ele>
        <time>2022-02-15T10:33:31.000Z</time>
      </trkpt>
      <trkpt lat="43.53177" lon="5.57776">
        <ele>892</ele>
        <time>2022-02-15T10:33:32.000Z</time>
      </trkpt>
      <trkpt lat="43.53177" lon="5.57777">
        <ele>891</ele>
        <time>2022-02-15T10:33:33.000Z</time>
      </trkpt>
      <trkpt lat="43.53178" lon="5.57777">
        <ele>891</ele>
        <time>2022-02-15T10:33:34.000Z</time>
      </trkpt>
      <trkpt lat="43.53178" lon="5.57777">
        <ele>891</ele>
        <time>2022-02-15T10:33:35.000Z</time>
      </trkpt>
      <trkpt lat="43.53178" lon="5.57776">
        <ele>891</ele>
        <time>2022-02-15T10:33:36.000Z</time>
      </trkpt>
      <trkpt lat="43.53178" lon="5.57776">
        <ele>891</ele>
        <time>2022-02-15T10:33:37.000Z</time>
      </trkpt>
      <trkpt lat="43.53178" lon="5.57776">
        <ele>891</ele>
        <time>2022-02-15T10:33:38.000Z</time>
      </trkpt>
      <trkpt lat="43.53179" lon="5.57776">
        <ele>891</ele>
        <time>2022-02-15T10:33:39.000Z</time>
      </trkpt>
      <trkpt lat="43.53179" lon="5.57775">
        <ele>890</ele>
        <time>2022-02-15T10:33:40.000Z</time>
      </trkpt>
      <trkpt lat="43.53179" lon="5.57775">
        <ele>890</ele>
        <time>2022-02-15T10:33:41.000Z</time>
      </trkpt>
      <trkpt lat="43.5318" lon="5.57775">
        <ele>890</ele>
        <time>2022-02-15T10:33:42.000Z</time>
      </trkpt>
      <trkpt lat="43.5318" lon="5.57775">
        <ele>890</ele>
        <time>2022-02-15T10:33:43.000Z</time>
      </trkpt>
      <trkpt lat="43.5318" lon="5.57775">
        <ele>890</ele>
        <time>2022-02-15T10:33:44.000Z</time>
      </trkpt>
      <trkpt lat="43.5318" lon="5.57775">
        <ele>890</ele>
        <time>2022-02-15T10:33:45.000Z</time>
      </trkpt>
      <trkpt lat="43.5318" lon="5.57775">
        <ele>890</ele>
        <time>2022-02-15T10:33:46.000Z</time>
      </trkpt>
      <trkpt lat="43.5318" lon="5.57774">
        <ele>889</ele>
        <time>2022-02-15T10:33:47.000Z</time>
      </trkpt>
      <trkpt lat="43.53181" lon="5.57774">
        <ele>889</ele>
        <time>2022-02-15T10:33:48.000Z</time>
      </trkpt>
      <trkpt lat="43.53181" lon="5.57774">
        <ele>889</ele>
        <time>2022-02-15T10:33:49.000Z</time>
      </trkpt>
      <trkpt lat="43.53181" lon="5.57773">
        <ele>889</ele>
        <time>2022-02-15T10:33:50.000Z</time>
      </trkpt>
      <trkpt lat="43.53181" lon="5.57773">
        <ele>889</ele>
        <time>2022-02-15T10:33:51.000Z</time>
      </trkpt>
      <trkpt lat="43.53182" lon="5.57772">
        <ele>889</ele>
        <time>2022-02-15T10:33:52.000Z</time>
      </trkpt>
      <trkpt lat="43.53182" lon="5.57771">
        <ele>889</ele>
        <time>2022-02-15T10:33:53.000Z</time>
      </trkpt>
      <trkpt lat="43.53183" lon="5.57771">
        <ele>889</ele>
        <time>2022-02-15T10:33:54.000Z</time>
      </trkpt>
      <trkpt lat="43.53184" lon="5.57771">
        <ele>889</ele>
        <time>2022-02-15T10:33:55.000Z</time>
      </trkpt>
      <trkpt lat="43.53184" lon="5.57772">
        <ele>889</ele>
        <time>2022-02-15T10:33:56.000Z</time>
      </trkpt>
      <trkpt lat="43.53184" lon="5.57773">
        <ele>889</ele>
        <time>2022-02-15T10:33:57.000Z</time>
      </trkpt>
      <trkpt lat="43.53185" lon="5.57773">
        <ele>888</ele>
        <time>2022-02-15T10:33:58.000Z</time>
      </trkpt>
      <trkpt lat="43.53185" lon="5.57773">
        <ele>888</ele>
        <time>2022-02-15T10:33:59.000Z</time>
      </trkpt>
      <trkpt lat="43.53186" lon="5.57774">
        <ele>888</ele>
        <time>2022-02-15T10:34:00.000Z</time>
      </trkpt>
      <trkpt lat="43.53186" lon="5.57775">
        <ele>888</ele>
        <time>2022-02-15T10:34:01.000Z</time>
      </trkpt>
      <trkpt lat="43.53187" lon="5.57777">
        <ele>887</ele>
        <time>2022-02-15T10:34:02.000Z</time>
      </trkpt>
      <trkpt lat="43.53187" lon="5.57779">
        <ele>887</ele>
        <time>2022-02-15T10:34:03.000Z</time>
      </trkpt>
      <trkpt lat="43.53187" lon="5.5778">
        <ele>887</ele>
        <time>2022-02-15T10:34:04.000Z</time>
      </trkpt>
      <trkpt lat="43.53187" lon="5.57781">
        <ele>887</ele>
        <time>2022-02-15T10:34:05.000Z</time>
      </trkpt>
      <trkpt lat="43.53187" lon="5.57783">
        <ele>887</ele>
        <time>2022-02-15T10:34:06.000Z</time>
      </trkpt>
      <trkpt lat="43.53187" lon="5.57784">
        <ele>887</ele>
        <time>2022-02-15T10:34:07.000Z</time>
      </trkpt>
      <trkpt lat="43.53187" lon="5.57785">
        <ele>887</ele>
        <time>2022-02-15T10:34:08.000Z</time>
      </trkpt>
      <trkpt lat="43.53186" lon="5.57786">
        <ele>887</ele>
        <time>2022-02-15T10:34:09.000Z</time>
      </trkpt>
      <trkpt lat="43.53186" lon="5.57787">
        <ele>887</ele>
        <time>2022-02-15T10:34:10.000Z</time>
      </trkpt>
      <trkpt lat="43.53186" lon="5.57788">
        <ele>887</ele>
        <time>2022-02-15T10:34:11.000Z</time>
      </trkpt>
      <trkpt lat="43.53185" lon="5.57789">
        <ele>886</ele>
        <time>2022-02-15T10:34:12.000Z</time>
      </trkpt>
      <trkpt lat="43.53185" lon="5.57791">
        <ele>886</ele>
        <time>2022-02-15T10:34:13.000Z</time>
      </trkpt>
      <trkpt lat="43.53185" lon="5.57792">
        <ele>886</ele>
        <time>2022-02-15T10:34:14.000Z</time>
      </trkpt>
      <trkpt lat="43.53185" lon="5.57793">
        <ele>886</ele>
        <time>2022-02-15T10:34:15.000Z</time>
      </trkpt>
      <trkpt lat="43.53184" lon="5.57794">
        <ele>886</ele>
        <time>2022-02-15T10:34:16.000Z</time>
      </trkpt>
      <trkpt lat="43.53184" lon="5.57796">
        <ele>886</ele>
        <time>2022-02-15T10:34:17.000Z</time>
      </trkpt>
      <trkpt lat="43.53184" lon="5.57797">
        <ele>886</ele>
        <time>2022-02-15T10:34:18.000Z</time>
      </trkpt>
      <trkpt lat="43.53183" lon="5.57798">
        <ele>886</ele>
        <time>2022-02-15T10:34:19.000Z</time>
      </trkpt>
      <trkpt lat="43.53183" lon="5.57799">
        <ele>886</ele>
        <time>2022-02-15T10:34:20.000Z</time>
      </trkpt>
      <trkpt lat="43.53182" lon="5.57799">
        <ele>886</ele>
        <time>2022-02-15T10:34:21.000Z</time>
      </trkpt>
      <trkpt lat="43.53182" lon="5.578">
        <ele>886</ele>
        <time>2022-02-15T10:34:22.000Z</time>
      </trkpt>
      <trkpt lat="43.53181" lon="5.578">
        <ele>886</ele>
        <time>2022-02-15T10:34:23.000Z</time>
      </trkpt>
      <trkpt lat="43.53181" lon="5.578">
        <ele>886</ele>
        <time>2022-02-15T10:34:24.000Z</time>
      </trkpt>
      <trkpt lat="43.53181" lon="5.578">
        <ele>886</ele>
        <time>2022-02-15T10:34:25.000Z</time>
      </trkpt>
      <trkpt lat="43.53181" lon="5.578">
        <ele>886</ele>
        <time>2022-02-15T10:34:26.000Z</time>
      </trkpt>
      <trkpt lat="43.53181" lon="5.578">
        <ele>886</ele>
        <time>2022-02-15T10:34:27.000Z</time>
      </trkpt>
      <trkpt lat="43.53181" lon="5.578">
        <ele>886</ele>
        <time>2022-02-15T10:34:28.000Z</time>
      </trkpt>
      <trkpt lat="43.53181" lon="5.578">
        <ele>886</ele>
        <time>2022-02-15T10:34:29.000Z</time>
      </trkpt>
      <trkpt lat="43.53181" lon="5.578">
        <ele>886</ele>
        <time>2022-02-15T10:34:30.000Z</time>
      </trkpt>
      <trkpt lat="43.53181" lon="5.578">
        <ele>886</ele>
        <time>2022-02-15T10:34:31.000Z</time>
      </trkpt>
      <trkpt lat="43.53181" lon="5.578">
        <ele>886</ele>
        <time>2022-02-15T10:34:32.000Z</time>
      </trkpt>
      <trkpt lat="43.53181" lon="5.578">
        <ele>886</ele>
        <time>2022-02-15T10:34:33.000Z</time>
      </trkpt>
      <trkpt lat="43.53181" lon="5.578">
        <ele>886</ele>
        <time>2022-02-15T10:34:34.000Z</time>
      </trkpt>
      <trkpt lat="43.53181" lon="5.578">
        <ele>886</ele>
        <time>2022-02-15T10:34:35.000Z</time>
      </trkpt>
      <trkpt lat="43.53181" lon="5.578">
        <ele>886</ele>
        <time>2022-02-15T10:34:36.000Z</time>
      </trkpt>
      <trkpt lat="43.53181" lon="5.578">
        <ele>886</ele>
        <time>2022-02-15T10:34:37.000Z</time>
      </trkpt>
      <trkpt lat="43.53181" lon="5.578">
        <ele>886</ele>
        <time>2022-02-15T10:34:38.000Z</time>
      </trkpt>
      <trkpt lat="43.53181" lon="5.578">
        <ele>886</ele>
        <time>2022-02-15T10:34:39.000Z</time>
      </trkpt>
      <trkpt lat="43.53181" lon="5.578">
        <ele>886</ele>
        <time>2022-02-15T10:34:40.000Z</time>
      </trkpt>
      <trkpt lat="43.53181" lon="5.578">
        <ele>886</ele>
        <time>2022-02-15T10:34:41.000Z</time>
      </trkpt>
      <trkpt lat="43.53181" lon="5.578">
        <ele>886</ele>
        <time>2022-02-15T10:34:42.000Z</time>
      </trkpt>
      <trkpt lat="43.53181" lon="5.578">
        <ele>886</ele>
        <time>2022-02-15T10:34:43.000Z</time>
      </trkpt>
      <trkpt lat="43.53181" lon="5.578">
        <ele>886</ele>
        <time>2022-02-15T10:34:44.000Z</time>
      </trkpt>
      <trkpt lat="43.53181" lon="5.578">
        <ele>886</ele>
        <time>2022-02-15T10:34:45.000Z</time>
      </trkpt>
      <trkpt lat="43.53181" lon="5.578">
        <ele>886</ele>
        <time>2022-02-15T10:34:46.000Z</time>
      </trkpt>
      <trkpt lat="43.5318" lon="5.578">
        <ele>886</ele>
        <time>2022-02-15T10:34:47.000Z</time>
      </trkpt>
      <trkpt lat="43.5318" lon="5.578">
        <ele>886</ele>
        <time>2022-02-15T10:34:48.000Z</time>
      </trkpt>
      <trkpt lat="43.5318" lon="5.578">
        <ele>886</ele>
        <time>2022-02-15T10:34:49.000Z</time>
      </trkpt>
      <trkpt lat="43.5318" lon="5.578">
        <ele>886</ele>
        <time>2022-02-15T10:34:50.000Z</time>
      </trkpt>
      <trkpt lat="43.5318" lon="5.578">
        <ele>886</ele>
        <time>2022-02-15T10:34:51.000Z</time>
      </trkpt>
      <trkpt lat="43.5318" lon="5.57801">
        <ele>886</ele>
        <time>2022-02-15T10:34:52.000Z</time>
      </trkpt>
      <trkpt lat="43.5318" lon="5.57801">
        <ele>886</ele>
        <time>2022-02-15T10:34:53.000Z</time>
      </trkpt>
      <trkpt lat="43.5318" lon="5.57801">
        <ele>887</ele>
        <time>2022-02-15T10:34:54.000Z</time>
      </trkpt>
      <trkpt lat="43.5318" lon="5.57801">
        <ele>887</ele>
        <time>2022-02-15T10:34:55.000Z</time>
      </trkpt>
      <trkpt lat="43.5318" lon="5.57801">
        <ele>887</ele>
        <time>2022-02-15T10:34:56.000Z</time>
      </trkpt>
      <trkpt lat="43.5318" lon="5.57801">
        <ele>887</ele>
        <time>2022-02-15T10:34:57.000Z</time>
      </trkpt>
      <trkpt lat="43.5318" lon="5.57801">
        <ele>887</ele>
        <time>2022-02-15T10:34:58.000Z</time>
      </trkpt>
      <trkpt lat="43.5318" lon="5.57801">
        <ele>887</ele>
        <time>2022-02-15T10:34:59.000Z</time>
      </trkpt>
      <trkpt lat="43.5318" lon="5.57801">
        <ele>887</ele>
        <time>2022-02-15T10:35:00.000Z</time>
      </trkpt>
      <trkpt lat="43.5318" lon="5.57801">
        <ele>887</ele>
        <time>2022-02-15T10:35:01.000Z</time>
      </trkpt>
      <trkpt lat="43.5318" lon="5.57801">
        <ele>887</ele>
        <time>2022-02-15T10:35:02.000Z</time>
      </trkpt>
      <trkpt lat="43.53181" lon="5.57801">
        <ele>887</ele>
        <time>2022-02-15T10:35:03.000Z</time>
      </trkpt>
      <trkpt lat="43.5318" lon="5.57802">
        <ele>887</ele>
        <time>2022-02-15T10:35:04.000Z</time>
      </trkpt>
      <trkpt lat="43.5318" lon="5.57803">
        <ele>887</ele>
        <time>2022-02-15T10:35:05.000Z</time>
      </trkpt>
      <trkpt lat="43.5318" lon="5.57804">
        <ele>887</ele>
        <time>2022-02-15T10:35:06.000Z</time>
      </trkpt>
      <trkpt lat="43.53179" lon="5.57805">
        <ele>887</ele>
        <time>2022-02-15T10:35:07.000Z</time>
      </trkpt>
      <trkpt lat="43.53179" lon="5.57806">
        <ele>887</ele>
        <time>2022-02-15T10:35:08.000Z</time>
      </trkpt>
      <trkpt lat="43.53178" lon="5.57807">
        <ele>887</ele>
        <time>2022-02-15T10:35:09.000Z</time>
      </trkpt>
      <trkpt lat="43.53178" lon="5.57807">
        <ele>887</ele>
        <time>2022-02-15T10:35:10.000Z</time>
      </trkpt>
      <trkpt lat="43.53177" lon="5.57808">
        <ele>887</ele>
        <time>2022-02-15T10:35:11.000Z</time>
      </trkpt>
      <trkpt lat="43.53177" lon="5.57809">
        <ele>887</ele>
        <time>2022-02-15T10:35:12.000Z</time>
      </trkpt>
      <trkpt lat="43.53176" lon="5.57809">
        <ele>887</ele>
        <time>2022-02-15T10:35:13.000Z</time>
      </trkpt>
      <trkpt lat="43.53176" lon="5.5781">
        <ele>887</ele>
        <time>2022-02-15T10:35:14.000Z</time>
      </trkpt>
      <trkpt lat="43.53176" lon="5.57811">
        <ele>887</ele>
        <time>2022-02-15T10:35:15.000Z</time>
      </trkpt>
      <trkpt lat="43.53176" lon="5.57812">
        <ele>888</ele>
        <time>2022-02-15T10:35:16.000Z</time>
      </trkpt>
      <trkpt lat="43.53175" lon="5.57812">
        <ele>888</ele>
        <time>2022-02-15T10:35:17.000Z</time>
      </trkpt>
      <trkpt lat="43.53175" lon="5.57814">
        <ele>888</ele>
        <time>2022-02-15T10:35:18.000Z</time>
      </trkpt>
      <trkpt lat="43.53174" lon="5.57815">
        <ele>888</ele>
        <time>2022-02-15T10:35:19.000Z</time>
      </trkpt>
      <trkpt lat="43.53174" lon="5.57816">
        <ele>888</ele>
        <time>2022-02-15T10:35:20.000Z</time>
      </trkpt>
      <trkpt lat="43.53173" lon="5.57817">
        <ele>888</ele>
        <time>2022-02-15T10:35:21.000Z</time>
      </trkpt>
      <trkpt lat="43.53173" lon="5.57818">
        <ele>888</ele>
        <time>2022-02-15T10:35:22.000Z</time>
      </trkpt>
      <trkpt lat="43.53172" lon="5.57818">
        <ele>888</ele>
        <time>2022-02-15T10:35:23.000Z</time>
      </trkpt>
      <trkpt lat="43.53172" lon="5.57819">
        <ele>888</ele>
        <time>2022-02-15T10:35:24.000Z</time>
      </trkpt>
      <trkpt lat="43.53171" lon="5.5782">
        <ele>888</ele>
        <time>2022-02-15T10:35:25.000Z</time>
      </trkpt>
      <trkpt lat="43.53171" lon="5.57821">
        <ele>888</ele>
        <time>2022-02-15T10:35:26.000Z</time>
      </trkpt>
      <trkpt lat="43.5317" lon="5.57822">
        <ele>888</ele>
        <time>2022-02-15T10:35:27.000Z</time>
      </trkpt>
      <trkpt lat="43.5317" lon="5.57823">
        <ele>888</ele>
        <time>2022-02-15T10:35:28.000Z</time>
      </trkpt>
      <trkpt lat="43.5317" lon="5.57824">
        <ele>888</ele>
        <time>2022-02-15T10:35:29.000Z</time>
      </trkpt>
      <trkpt lat="43.5317" lon="5.57825">
        <ele>888</ele>
        <time>2022-02-15T10:35:30.000Z</time>
      </trkpt>
      <trkpt lat="43.5317" lon="5.57826">
        <ele>889</ele>
        <time>2022-02-15T10:35:31.000Z</time>
      </trkpt>
      <trkpt lat="43.53169" lon="5.57826">
        <ele>889</ele>
        <time>2022-02-15T10:35:32.000Z</time>
      </trkpt>
      <trkpt lat="43.53169" lon="5.57827">
        <ele>889</ele>
        <time>2022-02-15T10:35:33.000Z</time>
      </trkpt>
      <trkpt lat="43.53169" lon="5.57828">
        <ele>889</ele>
        <time>2022-02-15T10:35:34.000Z</time>
      </trkpt>
      <trkpt lat="43.53169" lon="5.57828">
        <ele>889</ele>
        <time>2022-02-15T10:35:35.000Z</time>
      </trkpt>
      <trkpt lat="43.5317" lon="5.57828">
        <ele>889</ele>
        <time>2022-02-15T10:35:36.000Z</time>
      </trkpt>
      <trkpt lat="43.53169" lon="5.57829">
        <ele>889</ele>
        <time>2022-02-15T10:35:37.000Z</time>
      </trkpt>
      <trkpt lat="43.53169" lon="5.5783">
        <ele>889</ele>
        <time>2022-02-15T10:35:38.000Z</time>
      </trkpt>
      <trkpt lat="43.53168" lon="5.5783">
        <ele>890</ele>
        <time>2022-02-15T10:35:39.000Z</time>
      </trkpt>
      <trkpt lat="43.53167" lon="5.57831">
        <ele>890</ele>
        <time>2022-02-15T10:35:40.000Z</time>
      </trkpt>
      <trkpt lat="43.53166" lon="5.57831">
        <ele>890</ele>
        <time>2022-02-15T10:35:41.000Z</time>
      </trkpt>
      <trkpt lat="43.53166" lon="5.5783">
        <ele>890</ele>
        <time>2022-02-15T10:35:42.000Z</time>
      </trkpt>
      <trkpt lat="43.53166" lon="5.57829">
        <ele>890</ele>
        <time>2022-02-15T10:35:43.000Z</time>
      </trkpt>
      <trkpt lat="43.53165" lon="5.57829">
        <ele>890</ele>
        <time>2022-02-15T10:35:44.000Z</time>
      </trkpt>
      <trkpt lat="43.53165" lon="5.57829">
        <ele>890</ele>
        <time>2022-02-15T10:35:45.000Z</time>
      </trkpt>
      <trkpt lat="43.53165" lon="5.57829">
        <ele>890</ele>
        <time>2022-02-15T10:35:46.000Z</time>
      </trkpt>
      <trkpt lat="43.53165" lon="5.57828">
        <ele>889</ele>
        <time>2022-02-15T10:35:47.000Z</time>
      </trkpt>
      <trkpt lat="43.53165" lon="5.57828">
        <ele>889</ele>
        <time>2022-02-15T10:35:48.000Z</time>
      </trkpt>
      <trkpt lat="43.53165" lon="5.57828">
        <ele>889</ele>
        <time>2022-02-15T10:35:49.000Z</time>
      </trkpt>
      <trkpt lat="43.53165" lon="5.57828">
        <ele>889</ele>
        <time>2022-02-15T10:35:50.000Z</time>
      </trkpt>
      <trkpt lat="43.53164" lon="5.57828">
        <ele>889</ele>
        <time>2022-02-15T10:35:51.000Z</time>
      </trkpt>
      <trkpt lat="43.53164" lon="5.57829">
        <ele>889</ele>
        <time>2022-02-15T10:35:52.000Z</time>
      </trkpt>
      <trkpt lat="43.53163" lon="5.57829">
        <ele>889</ele>
        <time>2022-02-15T10:35:53.000Z</time>
      </trkpt>
      <trkpt lat="43.53163" lon="5.5783">
        <ele>889</ele>
        <time>2022-02-15T10:35:54.000Z</time>
      </trkpt>
      <trkpt lat="43.53163" lon="5.5783">
        <ele>889</ele>
        <time>2022-02-15T10:35:55.000Z</time>
      </trkpt>
      <trkpt lat="43.53162" lon="5.5783">
        <ele>889</ele>
        <time>2022-02-15T10:35:56.000Z</time>
      </trkpt>
      <trkpt lat="43.53162" lon="5.57831">
        <ele>889</ele>
        <time>2022-02-15T10:35:57.000Z</time>
      </trkpt>
      <trkpt lat="43.53162" lon="5.57831">
        <ele>889</ele>
        <time>2022-02-15T10:35:58.000Z</time>
      </trkpt>
      <trkpt lat="43.53161" lon="5.57831">
        <ele>889</ele>
        <time>2022-02-15T10:35:59.000Z</time>
      </trkpt>
      <trkpt lat="43.53161" lon="5.57831">
        <ele>889</ele>
        <time>2022-02-15T10:36:00.000Z</time>
      </trkpt>
      <trkpt lat="43.53161" lon="5.57831">
        <ele>889</ele>
        <time>2022-02-15T10:36:01.000Z</time>
      </trkpt>
      <trkpt lat="43.53161" lon="5.57832">
        <ele>889</ele>
        <time>2022-02-15T10:36:02.000Z</time>
      </trkpt>
      <trkpt lat="43.53161" lon="5.57832">
        <ele>889</ele>
        <time>2022-02-15T10:36:03.000Z</time>
      </trkpt>
      <trkpt lat="43.53161" lon="5.57833">
        <ele>890</ele>
        <time>2022-02-15T10:36:04.000Z</time>
      </trkpt>
      <trkpt lat="43.53161" lon="5.57833">
        <ele>890</ele>
        <time>2022-02-15T10:36:05.000Z</time>
      </trkpt>
      <trkpt lat="43.53161" lon="5.57833">
        <ele>890</ele>
        <time>2022-02-15T10:36:06.000Z</time>
      </trkpt>
      <trkpt lat="43.5316" lon="5.57834">
        <ele>889</ele>
        <time>2022-02-15T10:36:07.000Z</time>
      </trkpt>
      <trkpt lat="43.5316" lon="5.57834">
        <ele>889</ele>
        <time>2022-02-15T10:36:08.000Z</time>
      </trkpt>
      <trkpt lat="43.53159" lon="5.57834">
        <ele>889</ele>
        <time>2022-02-15T10:36:09.000Z</time>
      </trkpt>
      <trkpt lat="43.53159" lon="5.57835">
        <ele>889</ele>
        <time>2022-02-15T10:36:10.000Z</time>
      </trkpt>
      <trkpt lat="43.53158" lon="5.57835">
        <ele>889</ele>
        <time>2022-02-15T10:36:11.000Z</time>
      </trkpt>
      <trkpt lat="43.53158" lon="5.57836">
        <ele>889</ele>
        <time>2022-02-15T10:36:12.000Z</time>
      </trkpt>
      <trkpt lat="43.53158" lon="5.57837">
        <ele>889</ele>
        <time>2022-02-15T10:36:13.000Z</time>
      </trkpt>
      <trkpt lat="43.53157" lon="5.57837">
        <ele>889</ele>
        <time>2022-02-15T10:36:14.000Z</time>
      </trkpt>
      <trkpt lat="43.53157" lon="5.57838">
        <ele>889</ele>
        <time>2022-02-15T10:36:15.000Z</time>
      </trkpt>
      <trkpt lat="43.53156" lon="5.57838">
        <ele>889</ele>
        <time>2022-02-15T10:36:16.000Z</time>
      </trkpt>
      <trkpt lat="43.53155" lon="5.57839">
        <ele>889</ele>
        <time>2022-02-15T10:36:17.000Z</time>
      </trkpt>
      <trkpt lat="43.53155" lon="5.57839">
        <ele>889</ele>
        <time>2022-02-15T10:36:18.000Z</time>
      </trkpt>
      <trkpt lat="43.53154" lon="5.5784">
        <ele>889</ele>
        <time>2022-02-15T10:36:19.000Z</time>
      </trkpt>
      <trkpt lat="43.53153" lon="5.57841">
        <ele>889</ele>
        <time>2022-02-15T10:36:20.000Z</time>
      </trkpt>
      <trkpt lat="43.53152" lon="5.57841">
        <ele>889</ele>
        <time>2022-02-15T10:36:21.000Z</time>
      </trkpt>
      <trkpt lat="43.53152" lon="5.57842">
        <ele>889</ele>
        <time>2022-02-15T10:36:22.000Z</time>
      </trkpt>
      <trkpt lat="43.53151" lon="5.57843">
        <ele>889</ele>
        <time>2022-02-15T10:36:23.000Z</time>
      </trkpt>
      <trkpt lat="43.5315" lon="5.57844">
        <ele>889</ele>
        <time>2022-02-15T10:36:24.000Z</time>
      </trkpt>
      <trkpt lat="43.53149" lon="5.57845">
        <ele>889</ele>
        <time>2022-02-15T10:36:25.000Z</time>
      </trkpt>
      <trkpt lat="43.53149" lon="5.57846">
        <ele>889</ele>
        <time>2022-02-15T10:36:26.000Z</time>
      </trkpt>
      <trkpt lat="43.53148" lon="5.57846">
        <ele>889</ele>
        <time>2022-02-15T10:36:27.000Z</time>
      </trkpt>
      <trkpt lat="43.53148" lon="5.57847">
        <ele>889</ele>
        <time>2022-02-15T10:36:28.000Z</time>
      </trkpt>
      <trkpt lat="43.53148" lon="5.57847">
        <ele>889</ele>
        <time>2022-02-15T10:36:29.000Z</time>
      </trkpt>
      <trkpt lat="43.53148" lon="5.57847">
        <ele>889</ele>
        <time>2022-02-15T10:36:30.000Z</time>
      </trkpt>
      <trkpt lat="43.53148" lon="5.57847">
        <ele>890</ele>
        <time>2022-02-15T10:36:31.000Z</time>
      </trkpt>
      <trkpt lat="43.53148" lon="5.57848">
        <ele>890</ele>
        <time>2022-02-15T10:36:32.000Z</time>
      </trkpt>
      <trkpt lat="43.53148" lon="5.57848">
        <ele>890</ele>
        <time>2022-02-15T10:36:33.000Z</time>
      </trkpt>
      <trkpt lat="43.53148" lon="5.57848">
        <ele>890</ele>
        <time>2022-02-15T10:36:34.000Z</time>
      </trkpt>
      <trkpt lat="43.53147" lon="5.57849">
        <ele>890</ele>
        <time>2022-02-15T10:36:35.000Z</time>
      </trkpt>
      <trkpt lat="43.53147" lon="5.57849">
        <ele>890</ele>
        <time>2022-02-15T10:36:36.000Z</time>
      </trkpt>
      <trkpt lat="43.53147" lon="5.57849">
        <ele>890</ele>
        <time>2022-02-15T10:36:37.000Z</time>
      </trkpt>
      <trkpt lat="43.53147" lon="5.57849">
        <ele>890</ele>
        <time>2022-02-15T10:36:38.000Z</time>
      </trkpt>
      <trkpt lat="43.53147" lon="5.5785">
        <ele>890</ele>
        <time>2022-02-15T10:36:39.000Z</time>
      </trkpt>
      <trkpt lat="43.53146" lon="5.5785">
        <ele>891</ele>
        <time>2022-02-15T10:36:40.000Z</time>
      </trkpt>
      <trkpt lat="43.53146" lon="5.5785">
        <ele>891</ele>
        <time>2022-02-15T10:36:41.000Z</time>
      </trkpt>
      <trkpt lat="43.53146" lon="5.57851">
        <ele>891</ele>
        <time>2022-02-15T10:36:42.000Z</time>
      </trkpt>
      <trkpt lat="43.53145" lon="5.57851">
        <ele>891</ele>
        <time>2022-02-15T10:36:43.000Z</time>
      </trkpt>
      <trkpt lat="43.53145" lon="5.57852">
        <ele>891</ele>
        <time>2022-02-15T10:36:44.000Z</time>
      </trkpt>
      <trkpt lat="43.53144" lon="5.57853">
        <ele>892</ele>
        <time>2022-02-15T10:36:45.000Z</time>
      </trkpt>
      <trkpt lat="43.53143" lon="5.57853">
        <ele>892</ele>
        <time>2022-02-15T10:36:46.000Z</time>
      </trkpt>
      <trkpt lat="43.53143" lon="5.57854">
        <ele>892</ele>
        <time>2022-02-15T10:36:47.000Z</time>
      </trkpt>
      <trkpt lat="43.53142" lon="5.57854">
        <ele>892</ele>
        <time>2022-02-15T10:36:48.000Z</time>
      </trkpt>
      <trkpt lat="43.53142" lon="5.57855">
        <ele>892</ele>
        <time>2022-02-15T10:36:49.000Z</time>
      </trkpt>
      <trkpt lat="43.53141" lon="5.57855">
        <ele>892</ele>
        <time>2022-02-15T10:36:50.000Z</time>
      </trkpt>
      <trkpt lat="43.53141" lon="5.57856">
        <ele>892</ele>
        <time>2022-02-15T10:36:51.000Z</time>
      </trkpt>
      <trkpt lat="43.53141" lon="5.57856">
        <ele>892</ele>
        <time>2022-02-15T10:36:52.000Z</time>
      </trkpt>
      <trkpt lat="43.53141" lon="5.57856">
        <ele>892</ele>
        <time>2022-02-15T10:36:53.000Z</time>
      </trkpt>
      <trkpt lat="43.53141" lon="5.57857">
        <ele>892</ele>
        <time>2022-02-15T10:36:54.000Z</time>
      </trkpt>
      <trkpt lat="43.53141" lon="5.57857">
        <ele>892</ele>
        <time>2022-02-15T10:36:55.000Z</time>
      </trkpt>
      <trkpt lat="43.53141" lon="5.57857">
        <ele>892</ele>
        <time>2022-02-15T10:36:56.000Z</time>
      </trkpt>
      <trkpt lat="43.5314" lon="5.57858">
        <ele>892</ele>
        <time>2022-02-15T10:36:57.000Z</time>
      </trkpt>
      <trkpt lat="43.5314" lon="5.57858">
        <ele>892</ele>
        <time>2022-02-15T10:36:58.000Z</time>
      </trkpt>
      <trkpt lat="43.5314" lon="5.57859">
        <ele>892</ele>
        <time>2022-02-15T10:36:59.000Z</time>
      </trkpt>
      <trkpt lat="43.5314" lon="5.57859">
        <ele>892</ele>
        <time>2022-02-15T10:37:00.000Z</time>
      </trkpt>
      <trkpt lat="43.5314" lon="5.57859">
        <ele>892</ele>
        <time>2022-02-15T10:37:01.000Z</time>
      </trkpt>
      <trkpt lat="43.53139" lon="5.57858">
        <ele>892</ele>
        <time>2022-02-15T10:37:02.000Z</time>
      </trkpt>
      <trkpt lat="43.53139" lon="5.57858">
        <ele>892</ele>
        <time>2022-02-15T10:37:03.000Z</time>
      </trkpt>
      <trkpt lat="43.53139" lon="5.57858">
        <ele>892</ele>
        <time>2022-02-15T10:37:04.000Z</time>
      </trkpt>
      <trkpt lat="43.53139" lon="5.57858">
        <ele>891</ele>
        <time>2022-02-15T10:37:05.000Z</time>
      </trkpt>
      <trkpt lat="43.53139" lon="5.57858">
        <ele>891</ele>
        <time>2022-02-15T10:37:06.000Z</time>
      </trkpt>
      <trkpt lat="43.53139" lon="5.57858">
        <ele>891</ele>
        <time>2022-02-15T10:37:07.000Z</time>
      </trkpt>
      <trkpt lat="43.53139" lon="5.57858">
        <ele>891</ele>
        <time>2022-02-15T10:37:08.000Z</time>
      </trkpt>
      <trkpt lat="43.53139" lon="5.57858">
        <ele>891</ele>
        <time>2022-02-15T10:37:09.000Z</time>
      </trkpt>
      <trkpt lat="43.53139" lon="5.57858">
        <ele>891</ele>
        <time>2022-02-15T10:37:10.000Z</time>
      </trkpt>
      <trkpt lat="43.53139" lon="5.57857">
        <ele>891</ele>
        <time>2022-02-15T10:37:11.000Z</time>
      </trkpt>
      <trkpt lat="43.53139" lon="5.57857">
        <ele>891</ele>
        <time>2022-02-15T10:37:12.000Z</time>
      </trkpt>
      <trkpt lat="43.53139" lon="5.57857">
        <ele>891</ele>
        <time>2022-02-15T10:37:13.000Z</time>
      </trkpt>
      <trkpt lat="43.53139" lon="5.57857">
        <ele>891</ele>
        <time>2022-02-15T10:37:14.000Z</time>
      </trkpt>
      <trkpt lat="43.53139" lon="5.57857">
        <ele>891</ele>
        <time>2022-02-15T10:37:15.000Z</time>
      </trkpt>
      <trkpt lat="43.53139" lon="5.57857">
        <ele>891</ele>
        <time>2022-02-15T10:37:16.000Z</time>
      </trkpt>
      <trkpt lat="43.53139" lon="5.57857">
        <ele>890</ele>
        <time>2022-02-15T10:37:17.000Z</time>
      </trkpt>
      <trkpt lat="43.53139" lon="5.57857">
        <ele>890</ele>
        <time>2022-02-15T10:37:18.000Z</time>
      </trkpt>
      <trkpt lat="43.53139" lon="5.57858">
        <ele>890</ele>
        <time>2022-02-15T10:37:19.000Z</time>
      </trkpt>
      <trkpt lat="43.53139" lon="5.57858">
        <ele>890</ele>
        <time>2022-02-15T10:37:20.000Z</time>
      </trkpt>
      <trkpt lat="43.53139" lon="5.57858">
        <ele>890</ele>
        <time>2022-02-15T10:37:21.000Z</time>
      </trkpt>
      <trkpt lat="43.53139" lon="5.57857">
        <ele>890</ele>
        <time>2022-02-15T10:37:22.000Z</time>
      </trkpt>
      <trkpt lat="43.53139" lon="5.57857">
        <ele>890</ele>
        <time>2022-02-15T10:37:23.000Z</time>
      </trkpt>
      <trkpt lat="43.53139" lon="5.57857">
        <ele>890</ele>
        <time>2022-02-15T10:37:24.000Z</time>
      </trkpt>
      <trkpt lat="43.53139" lon="5.57857">
        <ele>890</ele>
        <time>2022-02-15T10:37:25.000Z</time>
      </trkpt>
      <trkpt lat="43.53139" lon="5.57857">
        <ele>890</ele>
        <time>2022-02-15T10:37:26.000Z</time>
      </trkpt>
      <trkpt lat="43.53139" lon="5.57857">
        <ele>890</ele>
        <time>2022-02-15T10:37:27.000Z</time>
      </trkpt>
      <trkpt lat="43.53139" lon="5.57857">
        <ele>890</ele>
        <time>2022-02-15T10:37:28.000Z</time>
      </trkpt>
      <trkpt lat="43.53138" lon="5.57857">
        <ele>890</ele>
        <time>2022-02-15T10:37:29.000Z</time>
      </trkpt>
      <trkpt lat="43.53138" lon="5.57857">
        <ele>890</ele>
        <time>2022-02-15T10:37:30.000Z</time>
      </trkpt>
      <trkpt lat="43.53138" lon="5.57857">
        <ele>890</ele>
        <time>2022-02-15T10:37:31.000Z</time>
      </trkpt>
      <trkpt lat="43.53138" lon="5.57857">
        <ele>890</ele>
        <time>2022-02-15T10:37:32.000Z</time>
      </trkpt>
      <trkpt lat="43.53138" lon="5.57857">
        <ele>890</ele>
        <time>2022-02-15T10:37:33.000Z</time>
      </trkpt>
      <trkpt lat="43.53138" lon="5.57857">
        <ele>890</ele>
        <time>2022-02-15T10:37:34.000Z</time>
      </trkpt>
      <trkpt lat="43.53138" lon="5.57857">
        <ele>890</ele>
        <time>2022-02-15T10:37:35.000Z</time>
      </trkpt>
      <trkpt lat="43.53138" lon="5.57857">
        <ele>890</ele>
        <time>2022-02-15T10:37:36.000Z</time>
      </trkpt>
      <trkpt lat="43.53138" lon="5.57857">
        <ele>890</ele>
        <time>2022-02-15T10:37:37.000Z</time>
      </trkpt>
      <trkpt lat="43.53138" lon="5.57857">
        <ele>890</ele>
        <time>2022-02-15T10:37:38.000Z</time>
      </trkpt>
      <trkpt lat="43.53138" lon="5.57857">
        <ele>890</ele>
        <time>2022-02-15T10:37:39.000Z</time>
      </trkpt>
      <trkpt lat="43.53138" lon="5.57857">
        <ele>890</ele>
        <time>2022-02-15T10:37:40.000Z</time>
      </trkpt>
      <trkpt lat="43.53138" lon="5.57857">
        <ele>890</ele>
        <time>2022-02-15T10:37:41.000Z</time>
      </trkpt>
      <trkpt lat="43.53138" lon="5.57857">
        <ele>890</ele>
        <time>2022-02-15T10:37:42.000Z</time>
      </trkpt>
      <trkpt lat="43.53139" lon="5.57858">
        <ele>889</ele>
        <time>2022-02-15T10:37:43.000Z</time>
      </trkpt>
      <trkpt lat="43.53139" lon="5.57858">
        <ele>889</ele>
        <time>2022-02-15T10:37:44.000Z</time>
      </trkpt>
      <trkpt lat="43.53138" lon="5.57858">
        <ele>889</ele>
        <time>2022-02-15T10:37:45.000Z</time>
      </trkpt>
      <trkpt lat="43.53138" lon="5.57858">
        <ele>889</ele>
        <time>2022-02-15T10:37:46.000Z</time>
      </trkpt>
      <trkpt lat="43.53138" lon="5.57858">
        <ele>889</ele>
        <time>2022-02-15T10:37:47.000Z</time>
      </trkpt>
      <trkpt lat="43.53138" lon="5.57858">
        <ele>889</ele>
        <time>2022-02-15T10:37:48.000Z</time>
      </trkpt>
      <trkpt lat="43.53138" lon="5.57858">
        <ele>889</ele>
        <time>2022-02-15T10:37:49.000Z</time>
      </trkpt>
      <trkpt lat="43.53138" lon="5.57858">
        <ele>889</ele>
        <time>2022-02-15T10:37:50.000Z</time>
      </trkpt>
      <trkpt lat="43.53138" lon="5.57858">
        <ele>889</ele>
        <time>2022-02-15T10:37:51.000Z</time>
      </trkpt>
      <trkpt lat="43.53138" lon="5.57858">
        <ele>889</ele>
        <time>2022-02-15T10:37:52.000Z</time>
      </trkpt>
      <trkpt lat="43.53138" lon="5.57858">
        <ele>889</ele>
        <time>2022-02-15T10:37:53.000Z</time>
      </trkpt>
      <trkpt lat="43.53138" lon="5.57858">
        <ele>889</ele>
        <time>2022-02-15T10:37:54.000Z</time>
      </trkpt>
      <trkpt lat="43.53138" lon="5.57858">
        <ele>889</ele>
        <time>2022-02-15T10:37:55.000Z</time>
      </trkpt>
      <trkpt lat="43.53138" lon="5.57858">
        <ele>889</ele>
        <time>2022-02-15T10:37:56.000Z</time>
      </trkpt>
      <trkpt lat="43.53138" lon="5.57858">
        <ele>889</ele>
        <time>2022-02-15T10:37:57.000Z</time>
      </trkpt>
      <trkpt lat="43.53138" lon="5.57858">
        <ele>889</ele>
        <time>2022-02-15T10:37:58.000Z</time>
      </trkpt>
      <trkpt lat="43.53138" lon="5.57858">
        <ele>889</ele>
        <time>2022-02-15T10:37:59.000Z</time>
      </trkpt>
      <trkpt lat="43.53138" lon="5.57858">
        <ele>889</ele>
        <time>2022-02-15T10:38:00.000Z</time>
      </trkpt>
      <trkpt lat="43.53138" lon="5.57858">
        <ele>889</ele>
        <time>2022-02-15T10:38:01.000Z</time>
      </trkpt>
      <trkpt lat="43.53138" lon="5.57858">
        <ele>889</ele>
        <time>2022-02-15T10:38:02.000Z</time>
      </trkpt>
      <trkpt lat="43.53138" lon="5.57858">
        <ele>889</ele>
        <time>2022-02-15T10:38:03.000Z</time>
      </trkpt>
      <trkpt lat="43.53138" lon="5.57858">
        <ele>889</ele>
        <time>2022-02-15T10:38:04.000Z</time>
      </trkpt>
      <trkpt lat="43.53138" lon="5.57858">
        <ele>889</ele>
        <time>2022-02-15T10:38:05.000Z</time>
      </trkpt>
      <trkpt lat="43.53138" lon="5.57858">
        <ele>889</ele>
        <time>2022-02-15T10:38:06.000Z</time>
      </trkpt>
      <trkpt lat="43.53138" lon="5.57858">
        <ele>889</ele>
        <time>2022-02-15T10:38:07.000Z</time>
      </trkpt>
      <trkpt lat="43.53138" lon="5.57858">
        <ele>889</ele>
        <time>2022-02-15T10:38:08.000Z</time>
      </trkpt>
      <trkpt lat="43.53138" lon="5.57858">
        <ele>889</ele>
        <time>2022-02-15T10:38:09.000Z</time>
      </trkpt>
      <trkpt lat="43.53138" lon="5.57858">
        <ele>889</ele>
        <time>2022-02-15T10:38:10.000Z</time>
      </trkpt>
      <trkpt lat="43.53138" lon="5.57858">
        <ele>889</ele>
        <time>2022-02-15T10:38:11.000Z</time>
      </trkpt>
      <trkpt lat="43.53138" lon="5.57858">
        <ele>889</ele>
        <time>2022-02-15T10:38:12.000Z</time>
      </trkpt>
      <trkpt lat="43.53138" lon="5.57858">
        <ele>889</ele>
        <time>2022-02-15T10:38:13.000Z</time>
      </trkpt>
      <trkpt lat="43.53138" lon="5.57858">
        <ele>889</ele>
        <time>2022-02-15T10:38:14.000Z</time>
      </trkpt>
      <trkpt lat="43.53138" lon="5.57858">
        <ele>889</ele>
        <time>2022-02-15T10:38:15.000Z</time>
      </trkpt>
      <trkpt lat="43.53138" lon="5.57858">
        <ele>889</ele>
        <time>2022-02-15T10:38:16.000Z</time>
      </trkpt>
      <trkpt lat="43.53138" lon="5.57858">
        <ele>889</ele>
        <time>2022-02-15T10:38:17.000Z</time>
      </trkpt>
      <trkpt lat="43.53138" lon="5.57858">
        <ele>889</ele>
        <time>2022-02-15T10:38:18.000Z</time>
      </trkpt>
      <trkpt lat="43.53138" lon="5.57858">
        <ele>889</ele>
        <time>2022-02-15T10:38:19.000Z</time>
      </trkpt>
      <trkpt lat="43.53138" lon="5.57858">
        <ele>889</ele>
        <time>2022-02-15T10:38:20.000Z</time>
      </trkpt>
      <trkpt lat="43.53138" lon="5.57858">
        <ele>889</ele>
        <time>2022-02-15T10:38:21.000Z</time>
      </trkpt>
      <trkpt lat="43.53138" lon="5.57858">
        <ele>889</ele>
        <time>2022-02-15T10:38:22.000Z</time>
      </trkpt>
      <trkpt lat="43.53138" lon="5.57858">
        <ele>889</ele>
        <time>2022-02-15T10:38:23.000Z</time>
      </trkpt>
      <trkpt lat="43.53138" lon="5.57858">
        <ele>889</ele>
        <time>2022-02-15T10:38:24.000Z</time>
      </trkpt>
      <trkpt lat="43.53138" lon="5.57858">
        <ele>889</ele>
        <time>2022-02-15T10:38:25.000Z</time>
      </trkpt>
      <trkpt lat="43.53138" lon="5.57858">
        <ele>889</ele>
        <time>2022-02-15T10:38:26.000Z</time>
      </trkpt>
      <trkpt lat="43.53138" lon="5.57858">
        <ele>889</ele>
        <time>2022-02-15T10:38:27.000Z</time>
      </trkpt>
      <trkpt lat="43.53138" lon="5.57858">
        <ele>889</ele>
        <time>2022-02-15T10:38:28.000Z</time>
      </trkpt>
      <trkpt lat="43.53138" lon="5.57858">
        <ele>889</ele>
        <time>2022-02-15T10:38:29.000Z</time>
      </trkpt>
      <trkpt lat="43.53138" lon="5.57858">
        <ele>889</ele>
        <time>2022-02-15T10:38:30.000Z</time>
      </trkpt>
      <trkpt lat="43.53138" lon="5.57858">
        <ele>889</ele>
        <time>2022-02-15T10:38:31.000Z</time>
      </trkpt>
      <trkpt lat="43.53138" lon="5.57858">
        <ele>889</ele>
        <time>2022-02-15T10:38:32.000Z</time>
      </trkpt>
      <trkpt lat="43.53139" lon="5.57858">
        <ele>889</ele>
        <time>2022-02-15T10:38:33.000Z</time>
      </trkpt>
      <trkpt lat="43.53139" lon="5.57858">
        <ele>889</ele>
        <time>2022-02-15T10:38:34.000Z</time>
      </trkpt>
      <trkpt lat="43.53139" lon="5.57858">
        <ele>889</ele>
        <time>2022-02-15T10:38:35.000Z</time>
      </trkpt>
      <trkpt lat="43.53139" lon="5.57858">
        <ele>889</ele>
        <time>2022-02-15T10:38:36.000Z</time>
      </trkpt>
      <trkpt lat="43.53139" lon="5.57858">
        <ele>889</ele>
        <time>2022-02-15T10:38:37.000Z</time>
      </trkpt>
      <trkpt lat="43.53139" lon="5.57858">
        <ele>889</ele>
        <time>2022-02-15T10:38:38.000Z</time>
      </trkpt>
      <trkpt lat="43.53139" lon="5.57858">
        <ele>889</ele>
        <time>2022-02-15T10:38:39.000Z</time>
      </trkpt>
      <trkpt lat="43.53139" lon="5.57858">
        <ele>889</ele>
        <time>2022-02-15T10:38:40.000Z</time>
      </trkpt>
      <trkpt lat="43.53139" lon="5.57858">
        <ele>889</ele>
        <time>2022-02-15T10:38:41.000Z</time>
      </trkpt>
      <trkpt lat="43.53139" lon="5.57858">
        <ele>889</ele>
        <time>2022-02-15T10:38:42.000Z</time>
      </trkpt>
      <trkpt lat="43.53139" lon="5.57858">
        <ele>889</ele>
        <time>2022-02-15T10:38:43.000Z</time>
      </trkpt>
      <trkpt lat="43.53139" lon="5.57858">
        <ele>889</ele>
        <time>2022-02-15T10:38:44.000Z</time>
      </trkpt>
      <trkpt lat="43.53139" lon="5.57858">
        <ele>889</ele>
        <time>2022-02-15T10:38:45.000Z</time>
      </trkpt>
      <trkpt lat="43.53139" lon="5.57858">
        <ele>889</ele>
        <time>2022-02-15T10:38:46.000Z</time>
      </trkpt>
      <trkpt lat="43.53139" lon="5.57858">
        <ele>889</ele>
        <time>2022-02-15T10:38:47.000Z</time>
      </trkpt>
      <trkpt lat="43.53139" lon="5.57858">
        <ele>889</ele>
        <time>2022-02-15T10:38:48.000Z</time>
      </trkpt>
      <trkpt lat="43.53138" lon="5.57858">
        <ele>889</ele>
        <time>2022-02-15T10:38:49.000Z</time>
      </trkpt>
      <trkpt lat="43.53138" lon="5.57858">
        <ele>889</ele>
        <time>2022-02-15T10:38:50.000Z</time>
      </trkpt>
      <trkpt lat="43.53138" lon="5.57858">
        <ele>889</ele>
        <time>2022-02-15T10:38:51.000Z</time>
      </trkpt>
      <trkpt lat="43.53138" lon="5.57858">
        <ele>889</ele>
        <time>2022-02-15T10:38:52.000Z</time>
      </trkpt>
      <trkpt lat="43.53138" lon="5.57858">
        <ele>889</ele>
        <time>2022-02-15T10:38:53.000Z</time>
      </trkpt>
      <trkpt lat="43.53138" lon="5.57858">
        <ele>889</ele>
        <time>2022-02-15T10:38:54.000Z</time>
      </trkpt>
      <trkpt lat="43.53138" lon="5.57858">
        <ele>889</ele>
        <time>2022-02-15T10:38:55.000Z</time>
      </trkpt>
      <trkpt lat="43.53138" lon="5.57858">
        <ele>889</ele>
        <time>2022-02-15T10:38:56.000Z</time>
      </trkpt>
      <trkpt lat="43.53138" lon="5.57858">
        <ele>889</ele>
        <time>2022-02-15T10:38:57.000Z</time>
      </trkpt>
      <trkpt lat="43.53138" lon="5.57858">
        <ele>889</ele>
        <time>2022-02-15T10:38:58.000Z</time>
      </trkpt>
      <trkpt lat="43.53138" lon="5.57858">
        <ele>889</ele>
        <time>2022-02-15T10:38:59.000Z</time>
      </trkpt>
      <trkpt lat="43.53138" lon="5.57858">
        <ele>889</ele>
        <time>2022-02-15T10:39:00.000Z</time>
      </trkpt>
      <trkpt lat="43.53138" lon="5.57858">
        <ele>888</ele>
        <time>2022-02-15T10:39:01.000Z</time>
      </trkpt>
      <trkpt lat="43.53138" lon="5.57858">
        <ele>888</ele>
        <time>2022-02-15T10:39:02.000Z</time>
      </trkpt>
      <trkpt lat="43.53138" lon="5.57858">
        <ele>888</ele>
        <time>2022-02-15T10:39:03.000Z</time>
      </trkpt>
      <trkpt lat="43.53138" lon="5.57858">
        <ele>888</ele>
        <time>2022-02-15T10:39:04.000Z</time>
      </trkpt>
      <trkpt lat="43.53138" lon="5.57858">
        <ele>888</ele>
        <time>2022-02-15T10:39:05.000Z</time>
      </trkpt>
      <trkpt lat="43.53138" lon="5.57858">
        <ele>888</ele>
        <time>2022-02-15T10:39:06.000Z</time>
      </trkpt>
      <trkpt lat="43.53138" lon="5.57858">
        <ele>888</ele>
        <time>2022-02-15T10:39:07.000Z</time>
      </trkpt>
      <trkpt lat="43.53138" lon="5.57858">
        <ele>888</ele>
        <time>2022-02-15T10:39:08.000Z</time>
      </trkpt>
      <trkpt lat="43.53139" lon="5.57858">
        <ele>888</ele>
        <time>2022-02-15T10:39:09.000Z</time>
      </trkpt>
      <trkpt lat="43.53139" lon="5.57858">
        <ele>888</ele>
        <time>2022-02-15T10:39:10.000Z</time>
      </trkpt>
      <trkpt lat="43.53139" lon="5.57859">
        <ele>888</ele>
        <time>2022-02-15T10:39:11.000Z</time>
      </trkpt>
      <trkpt lat="43.53139" lon="5.57859">
        <ele>888</ele>
        <time>2022-02-15T10:39:12.000Z</time>
      </trkpt>
      <trkpt lat="43.53138" lon="5.57859">
        <ele>888</ele>
        <time>2022-02-15T10:39:13.000Z</time>
      </trkpt>
      <trkpt lat="43.53138" lon="5.57859">
        <ele>888</ele>
        <time>2022-02-15T10:39:14.000Z</time>
      </trkpt>
      <trkpt lat="43.53138" lon="5.57859">
        <ele>888</ele>
        <time>2022-02-15T10:39:15.000Z</time>
      </trkpt>
      <trkpt lat="43.53138" lon="5.57859">
        <ele>888</ele>
        <time>2022-02-15T10:39:16.000Z</time>
      </trkpt>
      <trkpt lat="43.53138" lon="5.57859">
        <ele>888</ele>
        <time>2022-02-15T10:39:17.000Z</time>
      </trkpt>
      <trkpt lat="43.53138" lon="5.57859">
        <ele>888</ele>
        <time>2022-02-15T10:39:18.000Z</time>
      </trkpt>
      <trkpt lat="43.53138" lon="5.57859">
        <ele>888</ele>
        <time>2022-02-15T10:39:19.000Z</time>
      </trkpt>
      <trkpt lat="43.53138" lon="5.57859">
        <ele>888</ele>
        <time>2022-02-15T10:39:20.000Z</time>
      </trkpt>
      <trkpt lat="43.53137" lon="5.57858">
        <ele>889</ele>
        <time>2022-02-15T10:39:21.000Z</time>
      </trkpt>
      <trkpt lat="43.53137" lon="5.57858">
        <ele>889</ele>
        <time>2022-02-15T10:39:22.000Z</time>
      </trkpt>
      <trkpt lat="43.53137" lon="5.57858">
        <ele>889</ele>
        <time>2022-02-15T10:39:23.000Z</time>
      </trkpt>
      <trkpt lat="43.53137" lon="5.57858">
        <ele>889</ele>
        <time>2022-02-15T10:39:24.000Z</time>
      </trkpt>
      <trkpt lat="43.53137" lon="5.57858">
        <ele>889</ele>
        <time>2022-02-15T10:39:25.000Z</time>
      </trkpt>
      <trkpt lat="43.53137" lon="5.57858">
        <ele>889</ele>
        <time>2022-02-15T10:39:26.000Z</time>
      </trkpt>
      <trkpt lat="43.53137" lon="5.57859">
        <ele>888</ele>
        <time>2022-02-15T10:39:27.000Z</time>
      </trkpt>
      <trkpt lat="43.53137" lon="5.57859">
        <ele>888</ele>
        <time>2022-02-15T10:39:28.000Z</time>
      </trkpt>
      <trkpt lat="43.53137" lon="5.57859">
        <ele>888</ele>
        <time>2022-02-15T10:39:29.000Z</time>
      </trkpt>
      <trkpt lat="43.53137" lon="5.57859">
        <ele>888</ele>
        <time>2022-02-15T10:39:30.000Z</time>
      </trkpt>
      <trkpt lat="43.53137" lon="5.57858">
        <ele>888</ele>
        <time>2022-02-15T10:39:31.000Z</time>
      </trkpt>
      <trkpt lat="43.53137" lon="5.57858">
        <ele>888</ele>
        <time>2022-02-15T10:39:32.000Z</time>
      </trkpt>
      <trkpt lat="43.53138" lon="5.57858">
        <ele>888</ele>
        <time>2022-02-15T10:39:33.000Z</time>
      </trkpt>
      <trkpt lat="43.53138" lon="5.57858">
        <ele>888</ele>
        <time>2022-02-15T10:39:34.000Z</time>
      </trkpt>
      <trkpt lat="43.53138" lon="5.57858">
        <ele>888</ele>
        <time>2022-02-15T10:39:35.000Z</time>
      </trkpt>
      <trkpt lat="43.53138" lon="5.57858">
        <ele>888</ele>
        <time>2022-02-15T10:39:36.000Z</time>
      </trkpt>
      <trkpt lat="43.53138" lon="5.57858">
        <ele>888</ele>
        <time>2022-02-15T10:39:37.000Z</time>
      </trkpt>
      <trkpt lat="43.53138" lon="5.57858">
        <ele>888</ele>
        <time>2022-02-15T10:39:38.000Z</time>
      </trkpt>
      <trkpt lat="43.53138" lon="5.57858">
        <ele>888</ele>
        <time>2022-02-15T10:39:39.000Z</time>
      </trkpt>
      <trkpt lat="43.53138" lon="5.57858">
        <ele>888</ele>
        <time>2022-02-15T10:39:40.000Z</time>
      </trkpt>
      <trkpt lat="43.53138" lon="5.57858">
        <ele>888</ele>
        <time>2022-02-15T10:39:41.000Z</time>
      </trkpt>
      <trkpt lat="43.53138" lon="5.57858">
        <ele>889</ele>
        <time>2022-02-15T10:39:42.000Z</time>
      </trkpt>
      <trkpt lat="43.53138" lon="5.57858">
        <ele>889</ele>
        <time>2022-02-15T10:39:43.000Z</time>
      </trkpt>
      <trkpt lat="43.53138" lon="5.57858">
        <ele>889</ele>
        <time>2022-02-15T10:39:44.000Z</time>
      </trkpt>
      <trkpt lat="43.53137" lon="5.57858">
        <ele>889</ele>
        <time>2022-02-15T10:39:45.000Z</time>
      </trkpt>
      <trkpt lat="43.53137" lon="5.57858">
        <ele>889</ele>
        <time>2022-02-15T10:39:46.000Z</time>
      </trkpt>
      <trkpt lat="43.53137" lon="5.57858">
        <ele>889</ele>
        <time>2022-02-15T10:39:47.000Z</time>
      </trkpt>
      <trkpt lat="43.53137" lon="5.57858">
        <ele>889</ele>
        <time>2022-02-15T10:39:48.000Z</time>
      </trkpt>
      <trkpt lat="43.53137" lon="5.57857">
        <ele>889</ele>
        <time>2022-02-15T10:39:49.000Z</time>
      </trkpt>
      <trkpt lat="43.53137" lon="5.57857">
        <ele>889</ele>
        <time>2022-02-15T10:39:50.000Z</time>
      </trkpt>
      <trkpt lat="43.53137" lon="5.57857">
        <ele>889</ele>
        <time>2022-02-15T10:39:51.000Z</time>
      </trkpt>
      <trkpt lat="43.53137" lon="5.57857">
        <ele>889</ele>
        <time>2022-02-15T10:39:52.000Z</time>
      </trkpt>
      <trkpt lat="43.53137" lon="5.57857">
        <ele>889</ele>
        <time>2022-02-15T10:39:53.000Z</time>
      </trkpt>
      <trkpt lat="43.53137" lon="5.57857">
        <ele>889</ele>
        <time>2022-02-15T10:39:54.000Z</time>
      </trkpt>
      <trkpt lat="43.53137" lon="5.57857">
        <ele>889</ele>
        <time>2022-02-15T10:39:55.000Z</time>
      </trkpt>
      <trkpt lat="43.53137" lon="5.57857">
        <ele>889</ele>
        <time>2022-02-15T10:39:56.000Z</time>
      </trkpt>
      <trkpt lat="43.53137" lon="5.57857">
        <ele>889</ele>
        <time>2022-02-15T10:39:57.000Z</time>
      </trkpt>
      <trkpt lat="43.53137" lon="5.57857">
        <ele>889</ele>
        <time>2022-02-15T10:39:58.000Z</time>
      </trkpt>
      <trkpt lat="43.53137" lon="5.57857">
        <ele>889</ele>
        <time>2022-02-15T10:39:59.000Z</time>
      </trkpt>
      <trkpt lat="43.53137" lon="5.57857">
        <ele>889</ele>
        <time>2022-02-15T10:40:00.000Z</time>
      </trkpt>
      <trkpt lat="43.53137" lon="5.57857">
        <ele>889</ele>
        <time>2022-02-15T10:40:01.000Z</time>
      </trkpt>
      <trkpt lat="43.53137" lon="5.57857">
        <ele>889</ele>
        <time>2022-02-15T10:40:02.000Z</time>
      </trkpt>
      <trkpt lat="43.53137" lon="5.57857">
        <ele>889</ele>
        <time>2022-02-15T10:40:03.000Z</time>
      </trkpt>
      <trkpt lat="43.53137" lon="5.57857">
        <ele>889</ele>
        <time>2022-02-15T10:40:04.000Z</time>
      </trkpt>
      <trkpt lat="43.53137" lon="5.57857">
        <ele>889</ele>
        <time>2022-02-15T10:40:05.000Z</time>
      </trkpt>
      <trkpt lat="43.53137" lon="5.57857">
        <ele>889</ele>
        <time>2022-02-15T10:40:06.000Z</time>
      </trkpt>
      <trkpt lat="43.53137" lon="5.57857">
        <ele>889</ele>
        <time>2022-02-15T10:40:07.000Z</time>
      </trkpt>
      <trkpt lat="43.53137" lon="5.57857">
        <ele>889</ele>
        <time>2022-02-15T10:40:08.000Z</time>
      </trkpt>
      <trkpt lat="43.53137" lon="5.57857">
        <ele>889</ele>
        <time>2022-02-15T10:40:09.000Z</time>
      </trkpt>
      <trkpt lat="43.53137" lon="5.57857">
        <ele>889</ele>
        <time>2022-02-15T10:40:10.000Z</time>
      </trkpt>
      <trkpt lat="43.53137" lon="5.57857">
        <ele>889</ele>
        <time>2022-02-15T10:40:11.000Z</time>
      </trkpt>
      <trkpt lat="43.53137" lon="5.57857">
        <ele>889</ele>
        <time>2022-02-15T10:40:12.000Z</time>
      </trkpt>
      <trkpt lat="43.53137" lon="5.57857">
        <ele>889</ele>
        <time>2022-02-15T10:40:13.000Z</time>
      </trkpt>
      <trkpt lat="43.53137" lon="5.57857">
        <ele>889</ele>
        <time>2022-02-15T10:40:14.000Z</time>
      </trkpt>
      <trkpt lat="43.53137" lon="5.57857">
        <ele>889</ele>
        <time>2022-02-15T10:40:15.000Z</time>
      </trkpt>
      <trkpt lat="43.53137" lon="5.57857">
        <ele>889</ele>
        <time>2022-02-15T10:40:16.000Z</time>
      </trkpt>
      <trkpt lat="43.53137" lon="5.57857">
        <ele>889</ele>
        <time>2022-02-15T10:40:17.000Z</time>
      </trkpt>
      <trkpt lat="43.53137" lon="5.57857">
        <ele>889</ele>
        <time>2022-02-15T10:40:18.000Z</time>
      </trkpt>
      <trkpt lat="43.53137" lon="5.57856">
        <ele>889</ele>
        <time>2022-02-15T10:40:19.000Z</time>
      </trkpt>
      <trkpt lat="43.53137" lon="5.57856">
        <ele>889</ele>
        <time>2022-02-15T10:40:20.000Z</time>
      </trkpt>
      <trkpt lat="43.53137" lon="5.57856">
        <ele>889</ele>
        <time>2022-02-15T10:40:21.000Z</time>
      </trkpt>
      <trkpt lat="43.53137" lon="5.57856">
        <ele>889</ele>
        <time>2022-02-15T10:40:22.000Z</time>
      </trkpt>
      <trkpt lat="43.53137" lon="5.57856">
        <ele>889</ele>
        <time>2022-02-15T10:40:23.000Z</time>
      </trkpt>
      <trkpt lat="43.53137" lon="5.57856">
        <ele>889</ele>
        <time>2022-02-15T10:40:24.000Z</time>
      </trkpt>
      <trkpt lat="43.53137" lon="5.57856">
        <ele>889</ele>
        <time>2022-02-15T10:40:25.000Z</time>
      </trkpt>
      <trkpt lat="43.53137" lon="5.57856">
        <ele>889</ele>
        <time>2022-02-15T10:40:26.000Z</time>
      </trkpt>
      <trkpt lat="43.53137" lon="5.57856">
        <ele>889</ele>
        <time>2022-02-15T10:40:27.000Z</time>
      </trkpt>
      <trkpt lat="43.53137" lon="5.57856">
        <ele>889</ele>
        <time>2022-02-15T10:40:28.000Z</time>
      </trkpt>
      <trkpt lat="43.53137" lon="5.57856">
        <ele>889</ele>
        <time>2022-02-15T10:40:29.000Z</time>
      </trkpt>
      <trkpt lat="43.53137" lon="5.57856">
        <ele>889</ele>
        <time>2022-02-15T10:40:30.000Z</time>
      </trkpt>
      <trkpt lat="43.53138" lon="5.57856">
        <ele>889</ele>
        <time>2022-02-15T10:40:31.000Z</time>
      </trkpt>
      <trkpt lat="43.53138" lon="5.57856">
        <ele>889</ele>
        <time>2022-02-15T10:40:32.000Z</time>
      </trkpt>
      <trkpt lat="43.53138" lon="5.57855">
        <ele>889</ele>
        <time>2022-02-15T10:40:33.000Z</time>
      </trkpt>
      <trkpt lat="43.53138" lon="5.57856">
        <ele>889</ele>
        <time>2022-02-15T10:40:34.000Z</time>
      </trkpt>
      <trkpt lat="43.53138" lon="5.57856">
        <ele>889</ele>
        <time>2022-02-15T10:40:35.000Z</time>
      </trkpt>
      <trkpt lat="43.53138" lon="5.57856">
        <ele>889</ele>
        <time>2022-02-15T10:40:36.000Z</time>
      </trkpt>
      <trkpt lat="43.53138" lon="5.57856">
        <ele>889</ele>
        <time>2022-02-15T10:40:37.000Z</time>
      </trkpt>
      <trkpt lat="43.53138" lon="5.57856">
        <ele>889</ele>
        <time>2022-02-15T10:40:38.000Z</time>
      </trkpt>
      <trkpt lat="43.53138" lon="5.57856">
        <ele>889</ele>
        <time>2022-02-15T10:40:39.000Z</time>
      </trkpt>
      <trkpt lat="43.53138" lon="5.57856">
        <ele>889</ele>
        <time>2022-02-15T10:40:40.000Z</time>
      </trkpt>
      <trkpt lat="43.53138" lon="5.57856">
        <ele>889</ele>
        <time>2022-02-15T10:40:41.000Z</time>
      </trkpt>
      <trkpt lat="43.53138" lon="5.57857">
        <ele>889</ele>
        <time>2022-02-15T10:40:42.000Z</time>
      </trkpt>
      <trkpt lat="43.53138" lon="5.57857">
        <ele>889</ele>
        <time>2022-02-15T10:40:43.000Z</time>
      </trkpt>
      <trkpt lat="43.53138" lon="5.57857">
        <ele>889</ele>
        <time>2022-02-15T10:40:44.000Z</time>
      </trkpt>
      <trkpt lat="43.53138" lon="5.57857">
        <ele>889</ele>
        <time>2022-02-15T10:40:45.000Z</time>
      </trkpt>
      <trkpt lat="43.53138" lon="5.57857">
        <ele>889</ele>
        <time>2022-02-15T10:40:46.000Z</time>
      </trkpt>
      <trkpt lat="43.53138" lon="5.57857">
        <ele>889</ele>
        <time>2022-02-15T10:40:47.000Z</time>
      </trkpt>
      <trkpt lat="43.53138" lon="5.57857">
        <ele>889</ele>
        <time>2022-02-15T10:40:48.000Z</time>
      </trkpt>
      <trkpt lat="43.53138" lon="5.57857">
        <ele>889</ele>
        <time>2022-02-15T10:40:49.000Z</time>
      </trkpt>
      <trkpt lat="43.53138" lon="5.57857">
        <ele>889</ele>
        <time>2022-02-15T10:40:50.000Z</time>
      </trkpt>
      <trkpt lat="43.53138" lon="5.57857">
        <ele>889</ele>
        <time>2022-02-15T10:40:51.000Z</time>
      </trkpt>
      <trkpt lat="43.53138" lon="5.57856">
        <ele>889</ele>
        <time>2022-02-15T10:40:52.000Z</time>
      </trkpt>
      <trkpt lat="43.53138" lon="5.57856">
        <ele>889</ele>
        <time>2022-02-15T10:40:53.000Z</time>
      </trkpt>
      <trkpt lat="43.53138" lon="5.57855">
        <ele>889</ele>
        <time>2022-02-15T10:40:54.000Z</time>
      </trkpt>
      <trkpt lat="43.53138" lon="5.57854">
        <ele>889</ele>
        <time>2022-02-15T10:40:55.000Z</time>
      </trkpt>
      <trkpt lat="43.53139" lon="5.57853">
        <ele>889</ele>
        <time>2022-02-15T10:40:56.000Z</time>
      </trkpt>
      <trkpt lat="43.53139" lon="5.57852">
        <ele>889</ele>
        <time>2022-02-15T10:40:57.000Z</time>
      </trkpt>
      <trkpt lat="43.5314" lon="5.57851">
        <ele>889</ele>
        <time>2022-02-15T10:40:58.000Z</time>
      </trkpt>
      <trkpt lat="43.53141" lon="5.5785">
        <ele>889</ele>
        <time>2022-02-15T10:40:59.000Z</time>
      </trkpt>
      <trkpt lat="43.53141" lon="5.57849">
        <ele>889</ele>
        <time>2022-02-15T10:41:00.000Z</time>
      </trkpt>
      <trkpt lat="43.53142" lon="5.57848">
        <ele>889</ele>
        <time>2022-02-15T10:41:01.000Z</time>
      </trkpt>
      <trkpt lat="43.53143" lon="5.57848">
        <ele>889</ele>
        <time>2022-02-15T10:41:02.000Z</time>
      </trkpt>
      <trkpt lat="43.53144" lon="5.57847">
        <ele>889</ele>
        <time>2022-02-15T10:41:03.000Z</time>
      </trkpt>
      <trkpt lat="43.53145" lon="5.57847">
        <ele>889</ele>
        <time>2022-02-15T10:41:04.000Z</time>
      </trkpt>
      <trkpt lat="43.53146" lon="5.57847">
        <ele>889</ele>
        <time>2022-02-15T10:41:05.000Z</time>
      </trkpt>
      <trkpt lat="43.53147" lon="5.57846">
        <ele>889</ele>
        <time>2022-02-15T10:41:06.000Z</time>
      </trkpt>
      <trkpt lat="43.53147" lon="5.57846">
        <ele>890</ele>
        <time>2022-02-15T10:41:07.000Z</time>
      </trkpt>
      <trkpt lat="43.53148" lon="5.57846">
        <ele>890</ele>
        <time>2022-02-15T10:41:08.000Z</time>
      </trkpt>
      <trkpt lat="43.53149" lon="5.57845">
        <ele>890</ele>
        <time>2022-02-15T10:41:09.000Z</time>
      </trkpt>
      <trkpt lat="43.5315" lon="5.57845">
        <ele>890</ele>
        <time>2022-02-15T10:41:10.000Z</time>
      </trkpt>
      <trkpt lat="43.53151" lon="5.57845">
        <ele>890</ele>
        <time>2022-02-15T10:41:11.000Z</time>
      </trkpt>
      <trkpt lat="43.53151" lon="5.57845">
        <ele>890</ele>
        <time>2022-02-15T10:41:12.000Z</time>
      </trkpt>
      <trkpt lat="43.53152" lon="5.57844">
        <ele>890</ele>
        <time>2022-02-15T10:41:13.000Z</time>
      </trkpt>
      <trkpt lat="43.53152" lon="5.57844">
        <ele>891</ele>
        <time>2022-02-15T10:41:14.000Z</time>
      </trkpt>
      <trkpt lat="43.53152" lon="5.57843">
        <ele>891</ele>
        <time>2022-02-15T10:41:15.000Z</time>
      </trkpt>
      <trkpt lat="43.53152" lon="5.57843">
        <ele>891</ele>
        <time>2022-02-15T10:41:16.000Z</time>
      </trkpt>
      <trkpt lat="43.53152" lon="5.57842">
        <ele>891</ele>
        <time>2022-02-15T10:41:17.000Z</time>
      </trkpt>
      <trkpt lat="43.53152" lon="5.57842">
        <ele>891</ele>
        <time>2022-02-15T10:41:18.000Z</time>
      </trkpt>
      <trkpt lat="43.53152" lon="5.57842">
        <ele>891</ele>
        <time>2022-02-15T10:41:19.000Z</time>
      </trkpt>
      <trkpt lat="43.53152" lon="5.57841">
        <ele>891</ele>
        <time>2022-02-15T10:41:20.000Z</time>
      </trkpt>
      <trkpt lat="43.53152" lon="5.57841">
        <ele>891</ele>
        <time>2022-02-15T10:41:21.000Z</time>
      </trkpt>
      <trkpt lat="43.53152" lon="5.57841">
        <ele>891</ele>
        <time>2022-02-15T10:41:22.000Z</time>
      </trkpt>
      <trkpt lat="43.53153" lon="5.57841">
        <ele>891</ele>
        <time>2022-02-15T10:41:23.000Z</time>
      </trkpt>
      <trkpt lat="43.53153" lon="5.5784">
        <ele>891</ele>
        <time>2022-02-15T10:41:24.000Z</time>
      </trkpt>
      <trkpt lat="43.53153" lon="5.5784">
        <ele>891</ele>
        <time>2022-02-15T10:41:25.000Z</time>
      </trkpt>
      <trkpt lat="43.53154" lon="5.57839">
        <ele>891</ele>
        <time>2022-02-15T10:41:26.000Z</time>
      </trkpt>
      <trkpt lat="43.53155" lon="5.57838">
        <ele>891</ele>
        <time>2022-02-15T10:41:27.000Z</time>
      </trkpt>
      <trkpt lat="43.53155" lon="5.57838">
        <ele>891</ele>
        <time>2022-02-15T10:41:28.000Z</time>
      </trkpt>
      <trkpt lat="43.53155" lon="5.57837">
        <ele>891</ele>
        <time>2022-02-15T10:41:29.000Z</time>
      </trkpt>
      <trkpt lat="43.53156" lon="5.57837">
        <ele>891</ele>
        <time>2022-02-15T10:41:30.000Z</time>
      </trkpt>
      <trkpt lat="43.53156" lon="5.57837">
        <ele>891</ele>
        <time>2022-02-15T10:41:31.000Z</time>
      </trkpt>
      <trkpt lat="43.53156" lon="5.57837">
        <ele>891</ele>
        <time>2022-02-15T10:41:32.000Z</time>
      </trkpt>
      <trkpt lat="43.53157" lon="5.57837">
        <ele>891</ele>
        <time>2022-02-15T10:41:33.000Z</time>
      </trkpt>
      <trkpt lat="43.53158" lon="5.57838">
        <ele>891</ele>
        <time>2022-02-15T10:41:34.000Z</time>
      </trkpt>
      <trkpt lat="43.53158" lon="5.57838">
        <ele>891</ele>
        <time>2022-02-15T10:41:35.000Z</time>
      </trkpt>
      <trkpt lat="43.53159" lon="5.57839">
        <ele>891</ele>
        <time>2022-02-15T10:41:36.000Z</time>
      </trkpt>
      <trkpt lat="43.53159" lon="5.5784">
        <ele>891</ele>
        <time>2022-02-15T10:41:37.000Z</time>
      </trkpt>
      <trkpt lat="43.5316" lon="5.5784">
        <ele>891</ele>
        <time>2022-02-15T10:41:38.000Z</time>
      </trkpt>
      <trkpt lat="43.5316" lon="5.57841">
        <ele>891</ele>
        <time>2022-02-15T10:41:39.000Z</time>
      </trkpt>
      <trkpt lat="43.5316" lon="5.57841">
        <ele>891</ele>
        <time>2022-02-15T10:41:40.000Z</time>
      </trkpt>
      <trkpt lat="43.53161" lon="5.57841">
        <ele>891</ele>
        <time>2022-02-15T10:41:41.000Z</time>
      </trkpt>
      <trkpt lat="43.53161" lon="5.57841">
        <ele>892</ele>
        <time>2022-02-15T10:41:42.000Z</time>
      </trkpt>
      <trkpt lat="43.53161" lon="5.57841">
        <ele>892</ele>
        <time>2022-02-15T10:41:43.000Z</time>
      </trkpt>
      <trkpt lat="43.53161" lon="5.57841">
        <ele>892</ele>
        <time>2022-02-15T10:41:44.000Z</time>
      </trkpt>
      <trkpt lat="43.53161" lon="5.57841">
        <ele>892</ele>
        <time>2022-02-15T10:41:45.000Z</time>
      </trkpt>
      <trkpt lat="43.53161" lon="5.57841">
        <ele>892</ele>
        <time>2022-02-15T10:41:46.000Z</time>
      </trkpt>
      <trkpt lat="43.53161" lon="5.5784">
        <ele>892</ele>
        <time>2022-02-15T10:41:47.000Z</time>
      </trkpt>
      <trkpt lat="43.53161" lon="5.5784">
        <ele>892</ele>
        <time>2022-02-15T10:41:48.000Z</time>
      </trkpt>
      <trkpt lat="43.53161" lon="5.5784">
        <ele>892</ele>
        <time>2022-02-15T10:41:49.000Z</time>
      </trkpt>
      <trkpt lat="43.53161" lon="5.5784">
        <ele>893</ele>
        <time>2022-02-15T10:41:50.000Z</time>
      </trkpt>
      <trkpt lat="43.53161" lon="5.5784">
        <ele>893</ele>
        <time>2022-02-15T10:41:51.000Z</time>
      </trkpt>
      <trkpt lat="43.53161" lon="5.57839">
        <ele>893</ele>
        <time>2022-02-15T10:41:52.000Z</time>
      </trkpt>
      <trkpt lat="43.53161" lon="5.57839">
        <ele>893</ele>
        <time>2022-02-15T10:41:53.000Z</time>
      </trkpt>
      <trkpt lat="43.53161" lon="5.57839">
        <ele>893</ele>
        <time>2022-02-15T10:41:54.000Z</time>
      </trkpt>
      <trkpt lat="43.53161" lon="5.57839">
        <ele>893</ele>
        <time>2022-02-15T10:41:55.000Z</time>
      </trkpt>
      <trkpt lat="43.53161" lon="5.57839">
        <ele>893</ele>
        <time>2022-02-15T10:41:56.000Z</time>
      </trkpt>
      <trkpt lat="43.53161" lon="5.57839">
        <ele>893</ele>
        <time>2022-02-15T10:41:57.000Z</time>
      </trkpt>
      <trkpt lat="43.53162" lon="5.5784">
        <ele>893</ele>
        <time>2022-02-15T10:41:58.000Z</time>
      </trkpt>
      <trkpt lat="43.53163" lon="5.5784">
        <ele>893</ele>
        <time>2022-02-15T10:41:59.000Z</time>
      </trkpt>
      <trkpt lat="43.53163" lon="5.5784">
        <ele>893</ele>
        <time>2022-02-15T10:42:00.000Z</time>
      </trkpt>
      <trkpt lat="43.53164" lon="5.57841">
        <ele>893</ele>
        <time>2022-02-15T10:42:01.000Z</time>
      </trkpt>
      <trkpt lat="43.53164" lon="5.57841">
        <ele>893</ele>
        <time>2022-02-15T10:42:02.000Z</time>
      </trkpt>
      <trkpt lat="43.53165" lon="5.57841">
        <ele>894</ele>
        <time>2022-02-15T10:42:03.000Z</time>
      </trkpt>
      <trkpt lat="43.53165" lon="5.57841">
        <ele>894</ele>
        <time>2022-02-15T10:42:04.000Z</time>
      </trkpt>
      <trkpt lat="43.53166" lon="5.57841">
        <ele>894</ele>
        <time>2022-02-15T10:42:05.000Z</time>
      </trkpt>
      <trkpt lat="43.53167" lon="5.57842">
        <ele>894</ele>
        <time>2022-02-15T10:42:06.000Z</time>
      </trkpt>
      <trkpt lat="43.53167" lon="5.57842">
        <ele>894</ele>
        <time>2022-02-15T10:42:07.000Z</time>
      </trkpt>
      <trkpt lat="43.53168" lon="5.57843">
        <ele>894</ele>
        <time>2022-02-15T10:42:08.000Z</time>
      </trkpt>
      <trkpt lat="43.53168" lon="5.57843">
        <ele>894</ele>
        <time>2022-02-15T10:42:09.000Z</time>
      </trkpt>
      <trkpt lat="43.53168" lon="5.57843">
        <ele>894</ele>
        <time>2022-02-15T10:42:10.000Z</time>
      </trkpt>
      <trkpt lat="43.53168" lon="5.57843">
        <ele>894</ele>
        <time>2022-02-15T10:42:11.000Z</time>
      </trkpt>
      <trkpt lat="43.53168" lon="5.57843">
        <ele>894</ele>
        <time>2022-02-15T10:42:12.000Z</time>
      </trkpt>
      <trkpt lat="43.53168" lon="5.57844">
        <ele>894</ele>
        <time>2022-02-15T10:42:13.000Z</time>
      </trkpt>
      <trkpt lat="43.53168" lon="5.57844">
        <ele>894</ele>
        <time>2022-02-15T10:42:14.000Z</time>
      </trkpt>
      <trkpt lat="43.53168" lon="5.57844">
        <ele>894</ele>
        <time>2022-02-15T10:42:15.000Z</time>
      </trkpt>
      <trkpt lat="43.53167" lon="5.57844">
        <ele>894</ele>
        <time>2022-02-15T10:42:16.000Z</time>
      </trkpt>
      <trkpt lat="43.53167" lon="5.57845">
        <ele>893</ele>
        <time>2022-02-15T10:42:17.000Z</time>
      </trkpt>
      <trkpt lat="43.53167" lon="5.57845">
        <ele>893</ele>
        <time>2022-02-15T10:42:18.000Z</time>
      </trkpt>
      <trkpt lat="43.53166" lon="5.57845">
        <ele>893</ele>
        <time>2022-02-15T10:42:19.000Z</time>
      </trkpt>
      <trkpt lat="43.53166" lon="5.57846">
        <ele>893</ele>
        <time>2022-02-15T10:42:20.000Z</time>
      </trkpt>
      <trkpt lat="43.53166" lon="5.57846">
        <ele>893</ele>
        <time>2022-02-15T10:42:21.000Z</time>
      </trkpt>
      <trkpt lat="43.53166" lon="5.57846">
        <ele>893</ele>
        <time>2022-02-15T10:42:22.000Z</time>
      </trkpt>
      <trkpt lat="43.53166" lon="5.57846">
        <ele>893</ele>
        <time>2022-02-15T10:42:23.000Z</time>
      </trkpt>
      <trkpt lat="43.53166" lon="5.57846">
        <ele>893</ele>
        <time>2022-02-15T10:42:24.000Z</time>
      </trkpt>
      <trkpt lat="43.53166" lon="5.57846">
        <ele>893</ele>
        <time>2022-02-15T10:42:25.000Z</time>
      </trkpt>
      <trkpt lat="43.53166" lon="5.57847">
        <ele>893</ele>
        <time>2022-02-15T10:42:26.000Z</time>
      </trkpt>
      <trkpt lat="43.53166" lon="5.57847">
        <ele>893</ele>
        <time>2022-02-15T10:42:27.000Z</time>
      </trkpt>
      <trkpt lat="43.53166" lon="5.57847">
        <ele>893</ele>
        <time>2022-02-15T10:42:28.000Z</time>
      </trkpt>
      <trkpt lat="43.53166" lon="5.57847">
        <ele>893</ele>
        <time>2022-02-15T10:42:29.000Z</time>
      </trkpt>
      <trkpt lat="43.53166" lon="5.57847">
        <ele>893</ele>
        <time>2022-02-15T10:42:30.000Z</time>
      </trkpt>
      <trkpt lat="43.53166" lon="5.57847">
        <ele>893</ele>
        <time>2022-02-15T10:42:31.000Z</time>
      </trkpt>
      <trkpt lat="43.53166" lon="5.57847">
        <ele>893</ele>
        <time>2022-02-15T10:42:32.000Z</time>
      </trkpt>
      <trkpt lat="43.53166" lon="5.57847">
        <ele>893</ele>
        <time>2022-02-15T10:42:33.000Z</time>
      </trkpt>
      <trkpt lat="43.53166" lon="5.57848">
        <ele>893</ele>
        <time>2022-02-15T10:42:34.000Z</time>
      </trkpt>
      <trkpt lat="43.53166" lon="5.57848">
        <ele>893</ele>
        <time>2022-02-15T10:42:35.000Z</time>
      </trkpt>
      <trkpt lat="43.53166" lon="5.57849">
        <ele>893</ele>
        <time>2022-02-15T10:42:36.000Z</time>
      </trkpt>
      <trkpt lat="43.53166" lon="5.57849">
        <ele>893</ele>
        <time>2022-02-15T10:42:37.000Z</time>
      </trkpt>
      <trkpt lat="43.53166" lon="5.57849">
        <ele>893</ele>
        <time>2022-02-15T10:42:38.000Z</time>
      </trkpt>
      <trkpt lat="43.53166" lon="5.57849">
        <ele>893</ele>
        <time>2022-02-15T10:42:39.000Z</time>
      </trkpt>
      <trkpt lat="43.53166" lon="5.57849">
        <ele>893</ele>
        <time>2022-02-15T10:42:40.000Z</time>
      </trkpt>
      <trkpt lat="43.53166" lon="5.57849">
        <ele>893</ele>
        <time>2022-02-15T10:42:41.000Z</time>
      </trkpt>
      <trkpt lat="43.53166" lon="5.57849">
        <ele>893</ele>
        <time>2022-02-15T10:42:42.000Z</time>
      </trkpt>
      <trkpt lat="43.53166" lon="5.57849">
        <ele>893</ele>
        <time>2022-02-15T10:42:43.000Z</time>
      </trkpt>
      <trkpt lat="43.53166" lon="5.57849">
        <ele>894</ele>
        <time>2022-02-15T10:42:44.000Z</time>
      </trkpt>
      <trkpt lat="43.53167" lon="5.57849">
        <ele>894</ele>
        <time>2022-02-15T10:42:45.000Z</time>
      </trkpt>
      <trkpt lat="43.53167" lon="5.57849">
        <ele>894</ele>
        <time>2022-02-15T10:42:46.000Z</time>
      </trkpt>
      <trkpt lat="43.53167" lon="5.57849">
        <ele>894</ele>
        <time>2022-02-15T10:42:47.000Z</time>
      </trkpt>
      <trkpt lat="43.53167" lon="5.57849">
        <ele>894</ele>
        <time>2022-02-15T10:42:48.000Z</time>
      </trkpt>
      <trkpt lat="43.53167" lon="5.57849">
        <ele>894</ele>
        <time>2022-02-15T10:42:49.000Z</time>
      </trkpt>
      <trkpt lat="43.53168" lon="5.57849">
        <ele>894</ele>
        <time>2022-02-15T10:42:50.000Z</time>
      </trkpt>
      <trkpt lat="43.53168" lon="5.57849">
        <ele>894</ele>
        <time>2022-02-15T10:42:51.000Z</time>
      </trkpt>
      <trkpt lat="43.53168" lon="5.57849">
        <ele>894</ele>
        <time>2022-02-15T10:42:52.000Z</time>
      </trkpt>
      <trkpt lat="43.53168" lon="5.57849">
        <ele>894</ele>
        <time>2022-02-15T10:42:53.000Z</time>
      </trkpt>
      <trkpt lat="43.53168" lon="5.57849">
        <ele>894</ele>
        <time>2022-02-15T10:42:54.000Z</time>
      </trkpt>
      <trkpt lat="43.53168" lon="5.57849">
        <ele>894</ele>
        <time>2022-02-15T10:42:55.000Z</time>
      </trkpt>
      <trkpt lat="43.53168" lon="5.57849">
        <ele>894</ele>
        <time>2022-02-15T10:42:56.000Z</time>
      </trkpt>
      <trkpt lat="43.53168" lon="5.5785">
        <ele>894</ele>
        <time>2022-02-15T10:42:57.000Z</time>
      </trkpt>
      <trkpt lat="43.53168" lon="5.5785">
        <ele>894</ele>
        <time>2022-02-15T10:42:58.000Z</time>
      </trkpt>
      <trkpt lat="43.53168" lon="5.57851">
        <ele>894</ele>
        <time>2022-02-15T10:42:59.000Z</time>
      </trkpt>
      <trkpt lat="43.53168" lon="5.57852">
        <ele>894</ele>
        <time>2022-02-15T10:43:00.000Z</time>
      </trkpt>
      <trkpt lat="43.53168" lon="5.57853">
        <ele>894</ele>
        <time>2022-02-15T10:43:01.000Z</time>
      </trkpt>
      <trkpt lat="43.53168" lon="5.57853">
        <ele>894</ele>
        <time>2022-02-15T10:43:02.000Z</time>
      </trkpt>
      <trkpt lat="43.53167" lon="5.57854">
        <ele>894</ele>
        <time>2022-02-15T10:43:03.000Z</time>
      </trkpt>
      <trkpt lat="43.53167" lon="5.57855">
        <ele>894</ele>
        <time>2022-02-15T10:43:04.000Z</time>
      </trkpt>
      <trkpt lat="43.53167" lon="5.57855">
        <ele>894</ele>
        <time>2022-02-15T10:43:05.000Z</time>
      </trkpt>
      <trkpt lat="43.53167" lon="5.57856">
        <ele>893</ele>
        <time>2022-02-15T10:43:06.000Z</time>
      </trkpt>
      <trkpt lat="43.53167" lon="5.57857">
        <ele>893</ele>
        <time>2022-02-15T10:43:07.000Z</time>
      </trkpt>
      <trkpt lat="43.53168" lon="5.57857">
        <ele>893</ele>
        <time>2022-02-15T10:43:08.000Z</time>
      </trkpt>
      <trkpt lat="43.53168" lon="5.57858">
        <ele>893</ele>
        <time>2022-02-15T10:43:09.000Z</time>
      </trkpt>
      <trkpt lat="43.53168" lon="5.57858">
        <ele>893</ele>
        <time>2022-02-15T10:43:10.000Z</time>
      </trkpt>
      <trkpt lat="43.53168" lon="5.57858">
        <ele>893</ele>
        <time>2022-02-15T10:43:11.000Z</time>
      </trkpt>
      <trkpt lat="43.53168" lon="5.57858">
        <ele>893</ele>
        <time>2022-02-15T10:43:12.000Z</time>
      </trkpt>
      <trkpt lat="43.53168" lon="5.57858">
        <ele>893</ele>
        <time>2022-02-15T10:43:13.000Z</time>
      </trkpt>
      <trkpt lat="43.53168" lon="5.57858">
        <ele>892</ele>
        <time>2022-02-15T10:43:14.000Z</time>
      </trkpt>
      <trkpt lat="43.53168" lon="5.57859">
        <ele>892</ele>
        <time>2022-02-15T10:43:15.000Z</time>
      </trkpt>
      <trkpt lat="43.53168" lon="5.57859">
        <ele>892</ele>
        <time>2022-02-15T10:43:16.000Z</time>
      </trkpt>
      <trkpt lat="43.53168" lon="5.57859">
        <ele>892</ele>
        <time>2022-02-15T10:43:17.000Z</time>
      </trkpt>
      <trkpt lat="43.53168" lon="5.57859">
        <ele>892</ele>
        <time>2022-02-15T10:43:18.000Z</time>
      </trkpt>
      <trkpt lat="43.53168" lon="5.5786">
        <ele>892</ele>
        <time>2022-02-15T10:43:19.000Z</time>
      </trkpt>
      <trkpt lat="43.53168" lon="5.5786">
        <ele>892</ele>
        <time>2022-02-15T10:43:20.000Z</time>
      </trkpt>
      <trkpt lat="43.53168" lon="5.57861">
        <ele>892</ele>
        <time>2022-02-15T10:43:21.000Z</time>
      </trkpt>
      <trkpt lat="43.53168" lon="5.57862">
        <ele>892</ele>
        <time>2022-02-15T10:43:22.000Z</time>
      </trkpt>
      <trkpt lat="43.53168" lon="5.57862">
        <ele>892</ele>
        <time>2022-02-15T10:43:23.000Z</time>
      </trkpt>
      <trkpt lat="43.53168" lon="5.57863">
        <ele>892</ele>
        <time>2022-02-15T10:43:24.000Z</time>
      </trkpt>
      <trkpt lat="43.53168" lon="5.57864">
        <ele>892</ele>
        <time>2022-02-15T10:43:25.000Z</time>
      </trkpt>
      <trkpt lat="43.53168" lon="5.57865">
        <ele>892</ele>
        <time>2022-02-15T10:43:26.000Z</time>
      </trkpt>
      <trkpt lat="43.53168" lon="5.57865">
        <ele>892</ele>
        <time>2022-02-15T10:43:27.000Z</time>
      </trkpt>
      <trkpt lat="43.53169" lon="5.57866">
        <ele>892</ele>
        <time>2022-02-15T10:43:28.000Z</time>
      </trkpt>
      <trkpt lat="43.53168" lon="5.57866">
        <ele>892</ele>
        <time>2022-02-15T10:43:29.000Z</time>
      </trkpt>
      <trkpt lat="43.53168" lon="5.57866">
        <ele>892</ele>
        <time>2022-02-15T10:43:30.000Z</time>
      </trkpt>
      <trkpt lat="43.53168" lon="5.57867">
        <ele>892</ele>
        <time>2022-02-15T10:43:31.000Z</time>
      </trkpt>
      <trkpt lat="43.53168" lon="5.57867">
        <ele>892</ele>
        <time>2022-02-15T10:43:32.000Z</time>
      </trkpt>
      <trkpt lat="43.53167" lon="5.57867">
        <ele>892</ele>
        <time>2022-02-15T10:43:33.000Z</time>
      </trkpt>
      <trkpt lat="43.53167" lon="5.57868">
        <ele>892</ele>
        <time>2022-02-15T10:43:34.000Z</time>
      </trkpt>
      <trkpt lat="43.53167" lon="5.57869">
        <ele>892</ele>
        <time>2022-02-15T10:43:35.000Z</time>
      </trkpt>
      <trkpt lat="43.53167" lon="5.5787">
        <ele>892</ele>
        <time>2022-02-15T10:43:36.000Z</time>
      </trkpt>
      <trkpt lat="43.53167" lon="5.5787">
        <ele>892</ele>
        <time>2022-02-15T10:43:37.000Z</time>
      </trkpt>
      <trkpt lat="43.53167" lon="5.57871">
        <ele>892</ele>
        <time>2022-02-15T10:43:38.000Z</time>
      </trkpt>
      <trkpt lat="43.53168" lon="5.57872">
        <ele>892</ele>
        <time>2022-02-15T10:43:39.000Z</time>
      </trkpt>
      <trkpt lat="43.53168" lon="5.57873">
        <ele>892</ele>
        <time>2022-02-15T10:43:40.000Z</time>
      </trkpt>
      <trkpt lat="43.53168" lon="5.57873">
        <ele>892</ele>
        <time>2022-02-15T10:43:41.000Z</time>
      </trkpt>
      <trkpt lat="43.53168" lon="5.57873">
        <ele>892</ele>
        <time>2022-02-15T10:43:42.000Z</time>
      </trkpt>
      <trkpt lat="43.53168" lon="5.57873">
        <ele>892</ele>
        <time>2022-02-15T10:43:43.000Z</time>
      </trkpt>
      <trkpt lat="43.53168" lon="5.57873">
        <ele>892</ele>
        <time>2022-02-15T10:43:44.000Z</time>
      </trkpt>
      <trkpt lat="43.53168" lon="5.57873">
        <ele>892</ele>
        <time>2022-02-15T10:43:45.000Z</time>
      </trkpt>
      <trkpt lat="43.53168" lon="5.57873">
        <ele>892</ele>
        <time>2022-02-15T10:43:46.000Z</time>
      </trkpt>
      <trkpt lat="43.53168" lon="5.57874">
        <ele>892</ele>
        <time>2022-02-15T10:43:47.000Z</time>
      </trkpt>
      <trkpt lat="43.53168" lon="5.57874">
        <ele>892</ele>
        <time>2022-02-15T10:43:48.000Z</time>
      </trkpt>
      <trkpt lat="43.53168" lon="5.57874">
        <ele>892</ele>
        <time>2022-02-15T10:43:49.000Z</time>
      </trkpt>
      <trkpt lat="43.53168" lon="5.57874">
        <ele>892</ele>
        <time>2022-02-15T10:43:50.000Z</time>
      </trkpt>
      <trkpt lat="43.53168" lon="5.57874">
        <ele>892</ele>
        <time>2022-02-15T10:43:51.000Z</time>
      </trkpt>
      <trkpt lat="43.53168" lon="5.57874">
        <ele>892</ele>
        <time>2022-02-15T10:43:52.000Z</time>
      </trkpt>
      <trkpt lat="43.53168" lon="5.57874">
        <ele>892</ele>
        <time>2022-02-15T10:43:53.000Z</time>
      </trkpt>
      <trkpt lat="43.53168" lon="5.57874">
        <ele>892</ele>
        <time>2022-02-15T10:43:54.000Z</time>
      </trkpt>
      <trkpt lat="43.53168" lon="5.57875">
        <ele>892</ele>
        <time>2022-02-15T10:43:55.000Z</time>
      </trkpt>
      <trkpt lat="43.53167" lon="5.57876">
        <ele>892</ele>
        <time>2022-02-15T10:43:56.000Z</time>
      </trkpt>
      <trkpt lat="43.53167" lon="5.57877">
        <ele>892</ele>
        <time>2022-02-15T10:43:57.000Z</time>
      </trkpt>
      <trkpt lat="43.53167" lon="5.57877">
        <ele>892</ele>
        <time>2022-02-15T10:43:58.000Z</time>
      </trkpt>
      <trkpt lat="43.53167" lon="5.57878">
        <ele>892</ele>
        <time>2022-02-15T10:43:59.000Z</time>
      </trkpt>
      <trkpt lat="43.53167" lon="5.57879">
        <ele>892</ele>
        <time>2022-02-15T10:44:00.000Z</time>
      </trkpt>
      <trkpt lat="43.53167" lon="5.57879">
        <ele>892</ele>
        <time>2022-02-15T10:44:01.000Z</time>
      </trkpt>
      <trkpt lat="43.53167" lon="5.57879">
        <ele>892</ele>
        <time>2022-02-15T10:44:02.000Z</time>
      </trkpt>
      <trkpt lat="43.53167" lon="5.57879">
        <ele>892</ele>
        <time>2022-02-15T10:44:03.000Z</time>
      </trkpt>
      <trkpt lat="43.53167" lon="5.57879">
        <ele>892</ele>
        <time>2022-02-15T10:44:04.000Z</time>
      </trkpt>
      <trkpt lat="43.53167" lon="5.57879">
        <ele>892</ele>
        <time>2022-02-15T10:44:05.000Z</time>
      </trkpt>
      <trkpt lat="43.53167" lon="5.5788">
        <ele>892</ele>
        <time>2022-02-15T10:44:06.000Z</time>
      </trkpt>
      <trkpt lat="43.53167" lon="5.5788">
        <ele>892</ele>
        <time>2022-02-15T10:44:07.000Z</time>
      </trkpt>
      <trkpt lat="43.53166" lon="5.57881">
        <ele>892</ele>
        <time>2022-02-15T10:44:08.000Z</time>
      </trkpt>
      <trkpt lat="43.53166" lon="5.57881">
        <ele>892</ele>
        <time>2022-02-15T10:44:09.000Z</time>
      </trkpt>
      <trkpt lat="43.53165" lon="5.57881">
        <ele>892</ele>
        <time>2022-02-15T10:44:10.000Z</time>
      </trkpt>
      <trkpt lat="43.53165" lon="5.57881">
        <ele>892</ele>
        <time>2022-02-15T10:44:11.000Z</time>
      </trkpt>
      <trkpt lat="43.53165" lon="5.57881">
        <ele>892</ele>
        <time>2022-02-15T10:44:12.000Z</time>
      </trkpt>
      <trkpt lat="43.53164" lon="5.5788">
        <ele>892</ele>
        <time>2022-02-15T10:44:13.000Z</time>
      </trkpt>
      <trkpt lat="43.53164" lon="5.57881">
        <ele>892</ele>
        <time>2022-02-15T10:44:14.000Z</time>
      </trkpt>
      <trkpt lat="43.53164" lon="5.5788">
        <ele>893</ele>
        <time>2022-02-15T10:44:15.000Z</time>
      </trkpt>
      <trkpt lat="43.53164" lon="5.57881">
        <ele>893</ele>
        <time>2022-02-15T10:44:16.000Z</time>
      </trkpt>
      <trkpt lat="43.53164" lon="5.57881">
        <ele>893</ele>
        <time>2022-02-15T10:44:17.000Z</time>
      </trkpt>
      <trkpt lat="43.53164" lon="5.57881">
        <ele>893</ele>
        <time>2022-02-15T10:44:18.000Z</time>
      </trkpt>
      <trkpt lat="43.53164" lon="5.57881">
        <ele>893</ele>
        <time>2022-02-15T10:44:19.000Z</time>
      </trkpt>
      <trkpt lat="43.53164" lon="5.57881">
        <ele>893</ele>
        <time>2022-02-15T10:44:20.000Z</time>
      </trkpt>
      <trkpt lat="43.53164" lon="5.57881">
        <ele>893</ele>
        <time>2022-02-15T10:44:21.000Z</time>
      </trkpt>
      <trkpt lat="43.53163" lon="5.5788">
        <ele>893</ele>
        <time>2022-02-15T10:44:22.000Z</time>
      </trkpt>
      <trkpt lat="43.53163" lon="5.5788">
        <ele>893</ele>
        <time>2022-02-15T10:44:23.000Z</time>
      </trkpt>
      <trkpt lat="43.53163" lon="5.5788">
        <ele>894</ele>
        <time>2022-02-15T10:44:24.000Z</time>
      </trkpt>
      <trkpt lat="43.53162" lon="5.5788">
        <ele>894</ele>
        <time>2022-02-15T10:44:25.000Z</time>
      </trkpt>
      <trkpt lat="43.53162" lon="5.5788">
        <ele>894</ele>
        <time>2022-02-15T10:44:26.000Z</time>
      </trkpt>
      <trkpt lat="43.53162" lon="5.5788">
        <ele>894</ele>
        <time>2022-02-15T10:44:27.000Z</time>
      </trkpt>
      <trkpt lat="43.53162" lon="5.5788">
        <ele>894</ele>
        <time>2022-02-15T10:44:28.000Z</time>
      </trkpt>
      <trkpt lat="43.53162" lon="5.57881">
        <ele>894</ele>
        <time>2022-02-15T10:44:29.000Z</time>
      </trkpt>
      <trkpt lat="43.53162" lon="5.57881">
        <ele>894</ele>
        <time>2022-02-15T10:44:30.000Z</time>
      </trkpt>
      <trkpt lat="43.53162" lon="5.57882">
        <ele>894</ele>
        <time>2022-02-15T10:44:31.000Z</time>
      </trkpt>
      <trkpt lat="43.53162" lon="5.57882">
        <ele>894</ele>
        <time>2022-02-15T10:44:32.000Z</time>
      </trkpt>
      <trkpt lat="43.53162" lon="5.57882">
        <ele>894</ele>
        <time>2022-02-15T10:44:33.000Z</time>
      </trkpt>
      <trkpt lat="43.53162" lon="5.57882">
        <ele>894</ele>
        <time>2022-02-15T10:44:34.000Z</time>
      </trkpt>
      <trkpt lat="43.53162" lon="5.57882">
        <ele>894</ele>
        <time>2022-02-15T10:44:35.000Z</time>
      </trkpt>
      <trkpt lat="43.53162" lon="5.57882">
        <ele>894</ele>
        <time>2022-02-15T10:44:36.000Z</time>
      </trkpt>
      <trkpt lat="43.53162" lon="5.57882">
        <ele>894</ele>
        <time>2022-02-15T10:44:37.000Z</time>
      </trkpt>
      <trkpt lat="43.53162" lon="5.57882">
        <ele>894</ele>
        <time>2022-02-15T10:44:38.000Z</time>
      </trkpt>
      <trkpt lat="43.53162" lon="5.57882">
        <ele>894</ele>
        <time>2022-02-15T10:44:39.000Z</time>
      </trkpt>
      <trkpt lat="43.53162" lon="5.57882">
        <ele>894</ele>
        <time>2022-02-15T10:44:40.000Z</time>
      </trkpt>
      <trkpt lat="43.53162" lon="5.57883">
        <ele>894</ele>
        <time>2022-02-15T10:44:41.000Z</time>
      </trkpt>
      <trkpt lat="43.53162" lon="5.57883">
        <ele>895</ele>
        <time>2022-02-15T10:44:42.000Z</time>
      </trkpt>
      <trkpt lat="43.53161" lon="5.57883">
        <ele>895</ele>
        <time>2022-02-15T10:44:43.000Z</time>
      </trkpt>
      <trkpt lat="43.53161" lon="5.57883">
        <ele>895</ele>
        <time>2022-02-15T10:44:44.000Z</time>
      </trkpt>
      <trkpt lat="43.53161" lon="5.57883">
        <ele>895</ele>
        <time>2022-02-15T10:44:45.000Z</time>
      </trkpt>
      <trkpt lat="43.53161" lon="5.57883">
        <ele>895</ele>
        <time>2022-02-15T10:44:46.000Z</time>
      </trkpt>
      <trkpt lat="43.53161" lon="5.57884">
        <ele>895</ele>
        <time>2022-02-15T10:44:47.000Z</time>
      </trkpt>
      <trkpt lat="43.53161" lon="5.57885">
        <ele>896</ele>
        <time>2022-02-15T10:44:48.000Z</time>
      </trkpt>
      <trkpt lat="43.53161" lon="5.57885">
        <ele>896</ele>
        <time>2022-02-15T10:44:49.000Z</time>
      </trkpt>
      <trkpt lat="43.53161" lon="5.57885">
        <ele>896</ele>
        <time>2022-02-15T10:44:50.000Z</time>
      </trkpt>
      <trkpt lat="43.53161" lon="5.57885">
        <ele>896</ele>
        <time>2022-02-15T10:44:51.000Z</time>
      </trkpt>
      <trkpt lat="43.53161" lon="5.57885">
        <ele>896</ele>
        <time>2022-02-15T10:44:52.000Z</time>
      </trkpt>
      <trkpt lat="43.5316" lon="5.57885">
        <ele>896</ele>
        <time>2022-02-15T10:44:53.000Z</time>
      </trkpt>
      <trkpt lat="43.5316" lon="5.57885">
        <ele>896</ele>
        <time>2022-02-15T10:44:54.000Z</time>
      </trkpt>
      <trkpt lat="43.5316" lon="5.57885">
        <ele>896</ele>
        <time>2022-02-15T10:44:55.000Z</time>
      </trkpt>
      <trkpt lat="43.5316" lon="5.57886">
        <ele>896</ele>
        <time>2022-02-15T10:44:56.000Z</time>
      </trkpt>
      <trkpt lat="43.5316" lon="5.57886">
        <ele>897</ele>
        <time>2022-02-15T10:44:57.000Z</time>
      </trkpt>
      <trkpt lat="43.5316" lon="5.57886">
        <ele>897</ele>
        <time>2022-02-15T10:44:58.000Z</time>
      </trkpt>
      <trkpt lat="43.5316" lon="5.57886">
        <ele>897</ele>
        <time>2022-02-15T10:44:59.000Z</time>
      </trkpt>
      <trkpt lat="43.5316" lon="5.57886">
        <ele>897</ele>
        <time>2022-02-15T10:45:00.000Z</time>
      </trkpt>
      <trkpt lat="43.5316" lon="5.57886">
        <ele>897</ele>
        <time>2022-02-15T10:45:01.000Z</time>
      </trkpt>
      <trkpt lat="43.5316" lon="5.57886">
        <ele>897</ele>
        <time>2022-02-15T10:45:02.000Z</time>
      </trkpt>
      <trkpt lat="43.53159" lon="5.57886">
        <ele>897</ele>
        <time>2022-02-15T10:45:03.000Z</time>
      </trkpt>
      <trkpt lat="43.53159" lon="5.57886">
        <ele>897</ele>
        <time>2022-02-15T10:45:04.000Z</time>
      </trkpt>
      <trkpt lat="43.53159" lon="5.57886">
        <ele>897</ele>
        <time>2022-02-15T10:45:05.000Z</time>
      </trkpt>
      <trkpt lat="43.53159" lon="5.57886">
        <ele>897</ele>
        <time>2022-02-15T10:45:06.000Z</time>
      </trkpt>
      <trkpt lat="43.53159" lon="5.57886">
        <ele>897</ele>
        <time>2022-02-15T10:45:07.000Z</time>
      </trkpt>
      <trkpt lat="43.53159" lon="5.57886">
        <ele>897</ele>
        <time>2022-02-15T10:45:08.000Z</time>
      </trkpt>
      <trkpt lat="43.53158" lon="5.57886">
        <ele>898</ele>
        <time>2022-02-15T10:45:09.000Z</time>
      </trkpt>
      <trkpt lat="43.53158" lon="5.57886">
        <ele>898</ele>
        <time>2022-02-15T10:45:10.000Z</time>
      </trkpt>
      <trkpt lat="43.53158" lon="5.57886">
        <ele>898</ele>
        <time>2022-02-15T10:45:11.000Z</time>
      </trkpt>
      <trkpt lat="43.53157" lon="5.57886">
        <ele>898</ele>
        <time>2022-02-15T10:45:12.000Z</time>
      </trkpt>
      <trkpt lat="43.53157" lon="5.57886">
        <ele>898</ele>
        <time>2022-02-15T10:45:13.000Z</time>
      </trkpt>
      <trkpt lat="43.53157" lon="5.57886">
        <ele>898</ele>
        <time>2022-02-15T10:45:14.000Z</time>
      </trkpt>
      <trkpt lat="43.53157" lon="5.57886">
        <ele>898</ele>
        <time>2022-02-15T10:45:15.000Z</time>
      </trkpt>
      <trkpt lat="43.53157" lon="5.57886">
        <ele>899</ele>
        <time>2022-02-15T10:45:16.000Z</time>
      </trkpt>
      <trkpt lat="43.53157" lon="5.57885">
        <ele>899</ele>
        <time>2022-02-15T10:45:17.000Z</time>
      </trkpt>
      <trkpt lat="43.53157" lon="5.57885">
        <ele>899</ele>
        <time>2022-02-15T10:45:18.000Z</time>
      </trkpt>
      <trkpt lat="43.53156" lon="5.57885">
        <ele>899</ele>
        <time>2022-02-15T10:45:19.000Z</time>
      </trkpt>
      <trkpt lat="43.53156" lon="5.57885">
        <ele>899</ele>
        <time>2022-02-15T10:45:20.000Z</time>
      </trkpt>
      <trkpt lat="43.53156" lon="5.57885">
        <ele>899</ele>
        <time>2022-02-15T10:45:21.000Z</time>
      </trkpt>
      <trkpt lat="43.53156" lon="5.57885">
        <ele>899</ele>
        <time>2022-02-15T10:45:22.000Z</time>
      </trkpt>
      <trkpt lat="43.53156" lon="5.57885">
        <ele>899</ele>
        <time>2022-02-15T10:45:23.000Z</time>
      </trkpt>
      <trkpt lat="43.53156" lon="5.57885">
        <ele>899</ele>
        <time>2022-02-15T10:45:24.000Z</time>
      </trkpt>
      <trkpt lat="43.53156" lon="5.57885">
        <ele>899</ele>
        <time>2022-02-15T10:45:25.000Z</time>
      </trkpt>
      <trkpt lat="43.53156" lon="5.57885">
        <ele>899</ele>
        <time>2022-02-15T10:45:26.000Z</time>
      </trkpt>
      <trkpt lat="43.53156" lon="5.57885">
        <ele>899</ele>
        <time>2022-02-15T10:45:27.000Z</time>
      </trkpt>
      <trkpt lat="43.53156" lon="5.57885">
        <ele>900</ele>
        <time>2022-02-15T10:45:28.000Z</time>
      </trkpt>
      <trkpt lat="43.53156" lon="5.57886">
        <ele>900</ele>
        <time>2022-02-15T10:45:29.000Z</time>
      </trkpt>
      <trkpt lat="43.53155" lon="5.57886">
        <ele>900</ele>
        <time>2022-02-15T10:45:30.000Z</time>
      </trkpt>
      <trkpt lat="43.53155" lon="5.57886">
        <ele>900</ele>
        <time>2022-02-15T10:45:31.000Z</time>
      </trkpt>
      <trkpt lat="43.53155" lon="5.57886">
        <ele>900</ele>
        <time>2022-02-15T10:45:32.000Z</time>
      </trkpt>
      <trkpt lat="43.53155" lon="5.57885">
        <ele>900</ele>
        <time>2022-02-15T10:45:33.000Z</time>
      </trkpt>
      <trkpt lat="43.53155" lon="5.57885">
        <ele>900</ele>
        <time>2022-02-15T10:45:34.000Z</time>
      </trkpt>
      <trkpt lat="43.53155" lon="5.57885">
        <ele>900</ele>
        <time>2022-02-15T10:45:35.000Z</time>
      </trkpt>
      <trkpt lat="43.53155" lon="5.57885">
        <ele>900</ele>
        <time>2022-02-15T10:45:36.000Z</time>
      </trkpt>
      <trkpt lat="43.53155" lon="5.57885">
        <ele>900</ele>
        <time>2022-02-15T10:45:37.000Z</time>
      </trkpt>
      <trkpt lat="43.53155" lon="5.57885">
        <ele>900</ele>
        <time>2022-02-15T10:45:38.000Z</time>
      </trkpt>
      <trkpt lat="43.53155" lon="5.57885">
        <ele>900</ele>
        <time>2022-02-15T10:45:39.000Z</time>
      </trkpt>
      <trkpt lat="43.53155" lon="5.57885">
        <ele>900</ele>
        <time>2022-02-15T10:45:40.000Z</time>
      </trkpt>
      <trkpt lat="43.53155" lon="5.57885">
        <ele>901</ele>
        <time>2022-02-15T10:45:41.000Z</time>
      </trkpt>
      <trkpt lat="43.53154" lon="5.57885">
        <ele>901</ele>
        <time>2022-02-15T10:45:42.000Z</time>
      </trkpt>
      <trkpt lat="43.53155" lon="5.57885">
        <ele>901</ele>
        <time>2022-02-15T10:45:43.000Z</time>
      </trkpt>
      <trkpt lat="43.53155" lon="5.57885">
        <ele>901</ele>
        <time>2022-02-15T10:45:44.000Z</time>
      </trkpt>
      <trkpt lat="43.53154" lon="5.57885">
        <ele>901</ele>
        <time>2022-02-15T10:45:45.000Z</time>
      </trkpt>
      <trkpt lat="43.53154" lon="5.57885">
        <ele>901</ele>
        <time>2022-02-15T10:45:46.000Z</time>
      </trkpt>
      <trkpt lat="43.53154" lon="5.57884">
        <ele>901</ele>
        <time>2022-02-15T10:45:47.000Z</time>
      </trkpt>
      <trkpt lat="43.53154" lon="5.57885">
        <ele>901</ele>
        <time>2022-02-15T10:45:48.000Z</time>
      </trkpt>
      <trkpt lat="43.53153" lon="5.57885">
        <ele>901</ele>
        <time>2022-02-15T10:45:49.000Z</time>
      </trkpt>
      <trkpt lat="43.53153" lon="5.57885">
        <ele>902</ele>
        <time>2022-02-15T10:45:50.000Z</time>
      </trkpt>
      <trkpt lat="43.53152" lon="5.57885">
        <ele>902</ele>
        <time>2022-02-15T10:45:51.000Z</time>
      </trkpt>
      <trkpt lat="43.53152" lon="5.57885">
        <ele>902</ele>
        <time>2022-02-15T10:45:52.000Z</time>
      </trkpt>
      <trkpt lat="43.53151" lon="5.57884">
        <ele>902</ele>
        <time>2022-02-15T10:45:53.000Z</time>
      </trkpt>
      <trkpt lat="43.53151" lon="5.57884">
        <ele>902</ele>
        <time>2022-02-15T10:45:54.000Z</time>
      </trkpt>
      <trkpt lat="43.53151" lon="5.57883">
        <ele>902</ele>
        <time>2022-02-15T10:45:55.000Z</time>
      </trkpt>
      <trkpt lat="43.53151" lon="5.57882">
        <ele>902</ele>
        <time>2022-02-15T10:45:56.000Z</time>
      </trkpt>
      <trkpt lat="43.53151" lon="5.57881">
        <ele>902</ele>
        <time>2022-02-15T10:45:57.000Z</time>
      </trkpt>
      <trkpt lat="43.53151" lon="5.5788">
        <ele>902</ele>
        <time>2022-02-15T10:45:58.000Z</time>
      </trkpt>
      <trkpt lat="43.5315" lon="5.5788">
        <ele>902</ele>
        <time>2022-02-15T10:45:59.000Z</time>
      </trkpt>
      <trkpt lat="43.5315" lon="5.57879">
        <ele>902</ele>
        <time>2022-02-15T10:46:00.000Z</time>
      </trkpt>
      <trkpt lat="43.5315" lon="5.57879">
        <ele>902</ele>
        <time>2022-02-15T10:46:01.000Z</time>
      </trkpt>
      <trkpt lat="43.53149" lon="5.57879">
        <ele>902</ele>
        <time>2022-02-15T10:46:02.000Z</time>
      </trkpt>
      <trkpt lat="43.53148" lon="5.57879">
        <ele>903</ele>
        <time>2022-02-15T10:46:03.000Z</time>
      </trkpt>
      <trkpt lat="43.53148" lon="5.57879">
        <ele>903</ele>
        <time>2022-02-15T10:46:04.000Z</time>
      </trkpt>
      <trkpt lat="43.53147" lon="5.57878">
        <ele>903</ele>
        <time>2022-02-15T10:46:05.000Z</time>
      </trkpt>
      <trkpt lat="43.53147" lon="5.57877">
        <ele>903</ele>
        <time>2022-02-15T10:46:06.000Z</time>
      </trkpt>
      <trkpt lat="43.53147" lon="5.57876">
        <ele>903</ele>
        <time>2022-02-15T10:46:07.000Z</time>
      </trkpt>
      <trkpt lat="43.53147" lon="5.57875">
        <ele>903</ele>
        <time>2022-02-15T10:46:08.000Z</time>
      </trkpt>
      <trkpt lat="43.53147" lon="5.57875">
        <ele>903</ele>
        <time>2022-02-15T10:46:09.000Z</time>
      </trkpt>
      <trkpt lat="43.53147" lon="5.57875">
        <ele>904</ele>
        <time>2022-02-15T10:46:10.000Z</time>
      </trkpt>
      <trkpt lat="43.53147" lon="5.57875">
        <ele>904</ele>
        <time>2022-02-15T10:46:11.000Z</time>
      </trkpt>
      <trkpt lat="43.53147" lon="5.57875">
        <ele>904</ele>
        <time>2022-02-15T10:46:12.000Z</time>
      </trkpt>
      <trkpt lat="43.53147" lon="5.57875">
        <ele>904</ele>
        <time>2022-02-15T10:46:13.000Z</time>
      </trkpt>
      <trkpt lat="43.53147" lon="5.57875">
        <ele>904</ele>
        <time>2022-02-15T10:46:14.000Z</time>
      </trkpt>
      <trkpt lat="43.53147" lon="5.57875">
        <ele>904</ele>
        <time>2022-02-15T10:46:15.000Z</time>
      </trkpt>
      <trkpt lat="43.53146" lon="5.57875">
        <ele>904</ele>
        <time>2022-02-15T10:46:16.000Z</time>
      </trkpt>
      <trkpt lat="43.53146" lon="5.57875">
        <ele>904</ele>
        <time>2022-02-15T10:46:17.000Z</time>
      </trkpt>
      <trkpt lat="43.53146" lon="5.57875">
        <ele>904</ele>
        <time>2022-02-15T10:46:18.000Z</time>
      </trkpt>
      <trkpt lat="43.53146" lon="5.57875">
        <ele>904</ele>
        <time>2022-02-15T10:46:19.000Z</time>
      </trkpt>
      <trkpt lat="43.53146" lon="5.57875">
        <ele>904</ele>
        <time>2022-02-15T10:46:20.000Z</time>
      </trkpt>
      <trkpt lat="43.53146" lon="5.57875">
        <ele>904</ele>
        <time>2022-02-15T10:46:21.000Z</time>
      </trkpt>
      <trkpt lat="43.53145" lon="5.57876">
        <ele>904</ele>
        <time>2022-02-15T10:46:22.000Z</time>
      </trkpt>
      <trkpt lat="43.53145" lon="5.57876">
        <ele>904</ele>
        <time>2022-02-15T10:46:23.000Z</time>
      </trkpt>
      <trkpt lat="43.53145" lon="5.57876">
        <ele>904</ele>
        <time>2022-02-15T10:46:24.000Z</time>
      </trkpt>
      <trkpt lat="43.53145" lon="5.57876">
        <ele>904</ele>
        <time>2022-02-15T10:46:25.000Z</time>
      </trkpt>
      <trkpt lat="43.53145" lon="5.57876">
        <ele>904</ele>
        <time>2022-02-15T10:46:26.000Z</time>
      </trkpt>
      <trkpt lat="43.53145" lon="5.57877">
        <ele>904</ele>
        <time>2022-02-15T10:46:27.000Z</time>
      </trkpt>
      <trkpt lat="43.53145" lon="5.57877">
        <ele>905</ele>
        <time>2022-02-15T10:46:28.000Z</time>
      </trkpt>
      <trkpt lat="43.53145" lon="5.57877">
        <ele>905</ele>
        <time>2022-02-15T10:46:29.000Z</time>
      </trkpt>
      <trkpt lat="43.53145" lon="5.57878">
        <ele>905</ele>
        <time>2022-02-15T10:46:30.000Z</time>
      </trkpt>
      <trkpt lat="43.53145" lon="5.57878">
        <ele>905</ele>
        <time>2022-02-15T10:46:31.000Z</time>
      </trkpt>
      <trkpt lat="43.53145" lon="5.57878">
        <ele>905</ele>
        <time>2022-02-15T10:46:32.000Z</time>
      </trkpt>
      <trkpt lat="43.53145" lon="5.57878">
        <ele>905</ele>
        <time>2022-02-15T10:46:33.000Z</time>
      </trkpt>
      <trkpt lat="43.53145" lon="5.57878">
        <ele>905</ele>
        <time>2022-02-15T10:46:34.000Z</time>
      </trkpt>
      <trkpt lat="43.53145" lon="5.57878">
        <ele>905</ele>
        <time>2022-02-15T10:46:35.000Z</time>
      </trkpt>
      <trkpt lat="43.53145" lon="5.57878">
        <ele>905</ele>
        <time>2022-02-15T10:46:36.000Z</time>
      </trkpt>
      <trkpt lat="43.53145" lon="5.57878">
        <ele>905</ele>
        <time>2022-02-15T10:46:37.000Z</time>
      </trkpt>
      <trkpt lat="43.53145" lon="5.57878">
        <ele>905</ele>
        <time>2022-02-15T10:46:38.000Z</time>
      </trkpt>
      <trkpt lat="43.53145" lon="5.57878">
        <ele>905</ele>
        <time>2022-02-15T10:46:39.000Z</time>
      </trkpt>
      <trkpt lat="43.53145" lon="5.57878">
        <ele>905</ele>
        <time>2022-02-15T10:46:40.000Z</time>
      </trkpt>
      <trkpt lat="43.53145" lon="5.57878">
        <ele>905</ele>
        <time>2022-02-15T10:46:41.000Z</time>
      </trkpt>
      <trkpt lat="43.53145" lon="5.57878">
        <ele>905</ele>
        <time>2022-02-15T10:46:42.000Z</time>
      </trkpt>
      <trkpt lat="43.53145" lon="5.57878">
        <ele>905</ele>
        <time>2022-02-15T10:46:43.000Z</time>
      </trkpt>
      <trkpt lat="43.53145" lon="5.57878">
        <ele>905</ele>
        <time>2022-02-15T10:46:44.000Z</time>
      </trkpt>
      <trkpt lat="43.53146" lon="5.57878">
        <ele>905</ele>
        <time>2022-02-15T10:46:45.000Z</time>
      </trkpt>
      <trkpt lat="43.53145" lon="5.57878">
        <ele>905</ele>
        <time>2022-02-15T10:46:46.000Z</time>
      </trkpt>
      <trkpt lat="43.53145" lon="5.57878">
        <ele>905</ele>
        <time>2022-02-15T10:46:47.000Z</time>
      </trkpt>
      <trkpt lat="43.53145" lon="5.57878">
        <ele>905</ele>
        <time>2022-02-15T10:46:48.000Z</time>
      </trkpt>
      <trkpt lat="43.53145" lon="5.57878">
        <ele>905</ele>
        <time>2022-02-15T10:46:49.000Z</time>
      </trkpt>
      <trkpt lat="43.53146" lon="5.57878">
        <ele>905</ele>
        <time>2022-02-15T10:46:50.000Z</time>
      </trkpt>
      <trkpt lat="43.53146" lon="5.57878">
        <ele>905</ele>
        <time>2022-02-15T10:46:51.000Z</time>
      </trkpt>
      <trkpt lat="43.53146" lon="5.57878">
        <ele>905</ele>
        <time>2022-02-15T10:46:52.000Z</time>
      </trkpt>
      <trkpt lat="43.53146" lon="5.57878">
        <ele>905</ele>
        <time>2022-02-15T10:46:53.000Z</time>
      </trkpt>
      <trkpt lat="43.53146" lon="5.57878">
        <ele>905</ele>
        <time>2022-02-15T10:46:54.000Z</time>
      </trkpt>
      <trkpt lat="43.53146" lon="5.57878">
        <ele>905</ele>
        <time>2022-02-15T10:46:55.000Z</time>
      </trkpt>
      <trkpt lat="43.53146" lon="5.57878">
        <ele>905</ele>
        <time>2022-02-15T10:46:56.000Z</time>
      </trkpt>
      <trkpt lat="43.53146" lon="5.57879">
        <ele>905</ele>
        <time>2022-02-15T10:46:57.000Z</time>
      </trkpt>
      <trkpt lat="43.53146" lon="5.57879">
        <ele>905</ele>
        <time>2022-02-15T10:46:58.000Z</time>
      </trkpt>
      <trkpt lat="43.53146" lon="5.5788">
        <ele>905</ele>
        <time>2022-02-15T10:46:59.000Z</time>
      </trkpt>
      <trkpt lat="43.53146" lon="5.57881">
        <ele>905</ele>
        <time>2022-02-15T10:47:00.000Z</time>
      </trkpt>
      <trkpt lat="43.53146" lon="5.57881">
        <ele>905</ele>
        <time>2022-02-15T10:47:01.000Z</time>
      </trkpt>
      <trkpt lat="43.53146" lon="5.57882">
        <ele>905</ele>
        <time>2022-02-15T10:47:02.000Z</time>
      </trkpt>
      <trkpt lat="43.53145" lon="5.57882">
        <ele>905</ele>
        <time>2022-02-15T10:47:03.000Z</time>
      </trkpt>
      <trkpt lat="43.53145" lon="5.57883">
        <ele>905</ele>
        <time>2022-02-15T10:47:04.000Z</time>
      </trkpt>
      <trkpt lat="43.53145" lon="5.57883">
        <ele>906</ele>
        <time>2022-02-15T10:47:05.000Z</time>
      </trkpt>
      <trkpt lat="43.53145" lon="5.57883">
        <ele>906</ele>
        <time>2022-02-15T10:47:06.000Z</time>
      </trkpt>
      <trkpt lat="43.53145" lon="5.57884">
        <ele>906</ele>
        <time>2022-02-15T10:47:07.000Z</time>
      </trkpt>
      <trkpt lat="43.53145" lon="5.57885">
        <ele>906</ele>
        <time>2022-02-15T10:47:08.000Z</time>
      </trkpt>
      <trkpt lat="43.53145" lon="5.57885">
        <ele>906</ele>
        <time>2022-02-15T10:47:09.000Z</time>
      </trkpt>
      <trkpt lat="43.53145" lon="5.57886">
        <ele>906</ele>
        <time>2022-02-15T10:47:10.000Z</time>
      </trkpt>
      <trkpt lat="43.53145" lon="5.57887">
        <ele>906</ele>
        <time>2022-02-15T10:47:11.000Z</time>
      </trkpt>
      <trkpt lat="43.53145" lon="5.57888">
        <ele>906</ele>
        <time>2022-02-15T10:47:12.000Z</time>
      </trkpt>
      <trkpt lat="43.53145" lon="5.57889">
        <ele>906</ele>
        <time>2022-02-15T10:47:13.000Z</time>
      </trkpt>
      <trkpt lat="43.53145" lon="5.5789">
        <ele>906</ele>
        <time>2022-02-15T10:47:14.000Z</time>
      </trkpt>
      <trkpt lat="43.53145" lon="5.57891">
        <ele>906</ele>
        <time>2022-02-15T10:47:15.000Z</time>
      </trkpt>
      <trkpt lat="43.53145" lon="5.57891">
        <ele>906</ele>
        <time>2022-02-15T10:47:16.000Z</time>
      </trkpt>
      <trkpt lat="43.53145" lon="5.57892">
        <ele>906</ele>
        <time>2022-02-15T10:47:17.000Z</time>
      </trkpt>
      <trkpt lat="43.53145" lon="5.57892">
        <ele>906</ele>
        <time>2022-02-15T10:47:18.000Z</time>
      </trkpt>
      <trkpt lat="43.53145" lon="5.57892">
        <ele>907</ele>
        <time>2022-02-15T10:47:19.000Z</time>
      </trkpt>
      <trkpt lat="43.53145" lon="5.57893">
        <ele>907</ele>
        <time>2022-02-15T10:47:20.000Z</time>
      </trkpt>
      <trkpt lat="43.53145" lon="5.57894">
        <ele>907</ele>
        <time>2022-02-15T10:47:21.000Z</time>
      </trkpt>
      <trkpt lat="43.53145" lon="5.57895">
        <ele>907</ele>
        <time>2022-02-15T10:47:22.000Z</time>
      </trkpt>
      <trkpt lat="43.53145" lon="5.57896">
        <ele>907</ele>
        <time>2022-02-15T10:47:23.000Z</time>
      </trkpt>
      <trkpt lat="43.53146" lon="5.57897">
        <ele>907</ele>
        <time>2022-02-15T10:47:24.000Z</time>
      </trkpt>
      <trkpt lat="43.53146" lon="5.57897">
        <ele>907</ele>
        <time>2022-02-15T10:47:25.000Z</time>
      </trkpt>
      <trkpt lat="43.53146" lon="5.57897">
        <ele>908</ele>
        <time>2022-02-15T10:47:26.000Z</time>
      </trkpt>
      <trkpt lat="43.53146" lon="5.57897">
        <ele>908</ele>
        <time>2022-02-15T10:47:27.000Z</time>
      </trkpt>
      <trkpt lat="43.53146" lon="5.57897">
        <ele>908</ele>
        <time>2022-02-15T10:47:28.000Z</time>
      </trkpt>
      <trkpt lat="43.53146" lon="5.57897">
        <ele>908</ele>
        <time>2022-02-15T10:47:29.000Z</time>
      </trkpt>
      <trkpt lat="43.53146" lon="5.57898">
        <ele>908</ele>
        <time>2022-02-15T10:47:30.000Z</time>
      </trkpt>
      <trkpt lat="43.53146" lon="5.57898">
        <ele>908</ele>
        <time>2022-02-15T10:47:31.000Z</time>
      </trkpt>
      <trkpt lat="43.53145" lon="5.57899">
        <ele>908</ele>
        <time>2022-02-15T10:47:32.000Z</time>
      </trkpt>
      <trkpt lat="43.53145" lon="5.579">
        <ele>908</ele>
        <time>2022-02-15T10:47:33.000Z</time>
      </trkpt>
      <trkpt lat="43.53145" lon="5.57901">
        <ele>908</ele>
        <time>2022-02-15T10:47:34.000Z</time>
      </trkpt>
      <trkpt lat="43.53145" lon="5.57901">
        <ele>908</ele>
        <time>2022-02-15T10:47:35.000Z</time>
      </trkpt>
      <trkpt lat="43.53145" lon="5.57901">
        <ele>908</ele>
        <time>2022-02-15T10:47:36.000Z</time>
      </trkpt>
      <trkpt lat="43.53145" lon="5.57901">
        <ele>908</ele>
        <time>2022-02-15T10:47:37.000Z</time>
      </trkpt>
      <trkpt lat="43.53145" lon="5.57901">
        <ele>908</ele>
        <time>2022-02-15T10:47:38.000Z</time>
      </trkpt>
      <trkpt lat="43.53145" lon="5.57901">
        <ele>909</ele>
        <time>2022-02-15T10:47:39.000Z</time>
      </trkpt>
      <trkpt lat="43.53145" lon="5.57901">
        <ele>909</ele>
        <time>2022-02-15T10:47:40.000Z</time>
      </trkpt>
      <trkpt lat="43.53145" lon="5.57901">
        <ele>909</ele>
        <time>2022-02-15T10:47:41.000Z</time>
      </trkpt>
      <trkpt lat="43.53145" lon="5.57901">
        <ele>909</ele>
        <time>2022-02-15T10:47:42.000Z</time>
      </trkpt>
      <trkpt lat="43.53145" lon="5.57901">
        <ele>909</ele>
        <time>2022-02-15T10:47:43.000Z</time>
      </trkpt>
      <trkpt lat="43.53145" lon="5.57901">
        <ele>909</ele>
        <time>2022-02-15T10:47:44.000Z</time>
      </trkpt>
      <trkpt lat="43.53144" lon="5.57902">
        <ele>909</ele>
        <time>2022-02-15T10:47:45.000Z</time>
      </trkpt>
      <trkpt lat="43.53144" lon="5.57902">
        <ele>909</ele>
        <time>2022-02-15T10:47:46.000Z</time>
      </trkpt>
      <trkpt lat="43.53144" lon="5.57903">
        <ele>909</ele>
        <time>2022-02-15T10:47:47.000Z</time>
      </trkpt>
      <trkpt lat="43.53144" lon="5.57903">
        <ele>909</ele>
        <time>2022-02-15T10:47:48.000Z</time>
      </trkpt>
      <trkpt lat="43.53144" lon="5.57904">
        <ele>909</ele>
        <time>2022-02-15T10:47:49.000Z</time>
      </trkpt>
      <trkpt lat="43.53144" lon="5.57905">
        <ele>909</ele>
        <time>2022-02-15T10:47:50.000Z</time>
      </trkpt>
      <trkpt lat="43.53143" lon="5.57905">
        <ele>909</ele>
        <time>2022-02-15T10:47:51.000Z</time>
      </trkpt>
      <trkpt lat="43.53143" lon="5.57905">
        <ele>909</ele>
        <time>2022-02-15T10:47:52.000Z</time>
      </trkpt>
      <trkpt lat="43.53143" lon="5.57905">
        <ele>910</ele>
        <time>2022-02-15T10:47:53.000Z</time>
      </trkpt>
      <trkpt lat="43.53143" lon="5.57906">
        <ele>910</ele>
        <time>2022-02-15T10:47:54.000Z</time>
      </trkpt>
      <trkpt lat="43.53143" lon="5.57906">
        <ele>910</ele>
        <time>2022-02-15T10:47:55.000Z</time>
      </trkpt>
      <trkpt lat="43.53143" lon="5.57906">
        <ele>910</ele>
        <time>2022-02-15T10:47:56.000Z</time>
      </trkpt>
      <trkpt lat="43.53143" lon="5.57906">
        <ele>910</ele>
        <time>2022-02-15T10:47:57.000Z</time>
      </trkpt>
      <trkpt lat="43.53143" lon="5.57906">
        <ele>910</ele>
        <time>2022-02-15T10:47:58.000Z</time>
      </trkpt>
      <trkpt lat="43.53143" lon="5.57906">
        <ele>910</ele>
        <time>2022-02-15T10:47:59.000Z</time>
      </trkpt>
      <trkpt lat="43.53143" lon="5.57906">
        <ele>910</ele>
        <time>2022-02-15T10:48:00.000Z</time>
      </trkpt>
      <trkpt lat="43.53143" lon="5.57906">
        <ele>910</ele>
        <time>2022-02-15T10:48:01.000Z</time>
      </trkpt>
      <trkpt lat="43.53143" lon="5.57907">
        <ele>910</ele>
        <time>2022-02-15T10:48:02.000Z</time>
      </trkpt>
      <trkpt lat="43.53143" lon="5.57907">
        <ele>911</ele>
        <time>2022-02-15T10:48:03.000Z</time>
      </trkpt>
      <trkpt lat="43.53143" lon="5.57908">
        <ele>911</ele>
        <time>2022-02-15T10:48:04.000Z</time>
      </trkpt>
      <trkpt lat="43.53143" lon="5.57908">
        <ele>911</ele>
        <time>2022-02-15T10:48:05.000Z</time>
      </trkpt>
      <trkpt lat="43.53143" lon="5.57908">
        <ele>911</ele>
        <time>2022-02-15T10:48:06.000Z</time>
      </trkpt>
      <trkpt lat="43.53143" lon="5.57908">
        <ele>911</ele>
        <time>2022-02-15T10:48:07.000Z</time>
      </trkpt>
      <trkpt lat="43.53143" lon="5.57908">
        <ele>911</ele>
        <time>2022-02-15T10:48:08.000Z</time>
      </trkpt>
      <trkpt lat="43.53143" lon="5.57909">
        <ele>911</ele>
        <time>2022-02-15T10:48:09.000Z</time>
      </trkpt>
      <trkpt lat="43.53142" lon="5.57909">
        <ele>911</ele>
        <time>2022-02-15T10:48:10.000Z</time>
      </trkpt>
      <trkpt lat="43.53142" lon="5.5791">
        <ele>911</ele>
        <time>2022-02-15T10:48:11.000Z</time>
      </trkpt>
      <trkpt lat="43.53142" lon="5.5791">
        <ele>911</ele>
        <time>2022-02-15T10:48:12.000Z</time>
      </trkpt>
      <trkpt lat="43.53141" lon="5.57911">
        <ele>911</ele>
        <time>2022-02-15T10:48:13.000Z</time>
      </trkpt>
      <trkpt lat="43.53141" lon="5.57911">
        <ele>911</ele>
        <time>2022-02-15T10:48:14.000Z</time>
      </trkpt>
      <trkpt lat="43.53141" lon="5.57911">
        <ele>911</ele>
        <time>2022-02-15T10:48:15.000Z</time>
      </trkpt>
      <trkpt lat="43.53141" lon="5.57912">
        <ele>912</ele>
        <time>2022-02-15T10:48:16.000Z</time>
      </trkpt>
      <trkpt lat="43.53141" lon="5.57913">
        <ele>912</ele>
        <time>2022-02-15T10:48:17.000Z</time>
      </trkpt>
      <trkpt lat="43.5314" lon="5.57914">
        <ele>912</ele>
        <time>2022-02-15T10:48:18.000Z</time>
      </trkpt>
      <trkpt lat="43.5314" lon="5.57914">
        <ele>912</ele>
        <time>2022-02-15T10:48:19.000Z</time>
      </trkpt>
      <trkpt lat="43.5314" lon="5.57914">
        <ele>912</ele>
        <time>2022-02-15T10:48:20.000Z</time>
      </trkpt>
      <trkpt lat="43.53139" lon="5.57914">
        <ele>912</ele>
        <time>2022-02-15T10:48:21.000Z</time>
      </trkpt>
      <trkpt lat="43.53139" lon="5.57915">
        <ele>913</ele>
        <time>2022-02-15T10:48:22.000Z</time>
      </trkpt>
      <trkpt lat="43.53139" lon="5.57915">
        <ele>913</ele>
        <time>2022-02-15T10:48:23.000Z</time>
      </trkpt>
      <trkpt lat="43.53139" lon="5.57915">
        <ele>913</ele>
        <time>2022-02-15T10:48:24.000Z</time>
      </trkpt>
      <trkpt lat="43.53139" lon="5.57916">
        <ele>913</ele>
        <time>2022-02-15T10:48:25.000Z</time>
      </trkpt>
      <trkpt lat="43.53139" lon="5.57916">
        <ele>913</ele>
        <time>2022-02-15T10:48:26.000Z</time>
      </trkpt>
      <trkpt lat="43.53139" lon="5.57917">
        <ele>913</ele>
        <time>2022-02-15T10:48:27.000Z</time>
      </trkpt>
      <trkpt lat="43.53139" lon="5.57917">
        <ele>913</ele>
        <time>2022-02-15T10:48:28.000Z</time>
      </trkpt>
      <trkpt lat="43.53138" lon="5.57917">
        <ele>913</ele>
        <time>2022-02-15T10:48:29.000Z</time>
      </trkpt>
      <trkpt lat="43.53138" lon="5.57917">
        <ele>913</ele>
        <time>2022-02-15T10:48:30.000Z</time>
      </trkpt>
      <trkpt lat="43.53137" lon="5.57918">
        <ele>914</ele>
        <time>2022-02-15T10:48:31.000Z</time>
      </trkpt>
      <trkpt lat="43.53137" lon="5.57918">
        <ele>914</ele>
        <time>2022-02-15T10:48:32.000Z</time>
      </trkpt>
      <trkpt lat="43.53137" lon="5.57918">
        <ele>914</ele>
        <time>2022-02-15T10:48:33.000Z</time>
      </trkpt>
      <trkpt lat="43.53137" lon="5.57918">
        <ele>914</ele>
        <time>2022-02-15T10:48:34.000Z</time>
      </trkpt>
      <trkpt lat="43.53137" lon="5.57919">
        <ele>914</ele>
        <time>2022-02-15T10:48:35.000Z</time>
      </trkpt>
      <trkpt lat="43.53137" lon="5.57919">
        <ele>914</ele>
        <time>2022-02-15T10:48:36.000Z</time>
      </trkpt>
      <trkpt lat="43.53137" lon="5.57919">
        <ele>914</ele>
        <time>2022-02-15T10:48:37.000Z</time>
      </trkpt>
      <trkpt lat="43.53137" lon="5.5792">
        <ele>914</ele>
        <time>2022-02-15T10:48:38.000Z</time>
      </trkpt>
      <trkpt lat="43.53137" lon="5.57921">
        <ele>915</ele>
        <time>2022-02-15T10:48:39.000Z</time>
      </trkpt>
      <trkpt lat="43.53137" lon="5.57922">
        <ele>915</ele>
        <time>2022-02-15T10:48:40.000Z</time>
      </trkpt>
      <trkpt lat="43.53137" lon="5.57922">
        <ele>915</ele>
        <time>2022-02-15T10:48:41.000Z</time>
      </trkpt>
      <trkpt lat="43.53137" lon="5.57922">
        <ele>915</ele>
        <time>2022-02-15T10:48:42.000Z</time>
      </trkpt>
      <trkpt lat="43.53136" lon="5.57922">
        <ele>915</ele>
        <time>2022-02-15T10:48:43.000Z</time>
      </trkpt>
      <trkpt lat="43.53136" lon="5.57922">
        <ele>915</ele>
        <time>2022-02-15T10:48:44.000Z</time>
      </trkpt>
      <trkpt lat="43.53136" lon="5.57923">
        <ele>915</ele>
        <time>2022-02-15T10:48:45.000Z</time>
      </trkpt>
      <trkpt lat="43.53136" lon="5.57923">
        <ele>915</ele>
        <time>2022-02-15T10:48:46.000Z</time>
      </trkpt>
      <trkpt lat="43.53137" lon="5.57923">
        <ele>915</ele>
        <time>2022-02-15T10:48:47.000Z</time>
      </trkpt>
      <trkpt lat="43.53137" lon="5.57923">
        <ele>915</ele>
        <time>2022-02-15T10:48:48.000Z</time>
      </trkpt>
      <trkpt lat="43.53137" lon="5.57923">
        <ele>915</ele>
        <time>2022-02-15T10:48:49.000Z</time>
      </trkpt>
      <trkpt lat="43.53137" lon="5.57923">
        <ele>915</ele>
        <time>2022-02-15T10:48:50.000Z</time>
      </trkpt>
      <trkpt lat="43.53137" lon="5.57923">
        <ele>916</ele>
        <time>2022-02-15T10:48:51.000Z</time>
      </trkpt>
      <trkpt lat="43.53136" lon="5.57923">
        <ele>916</ele>
        <time>2022-02-15T10:48:52.000Z</time>
      </trkpt>
      <trkpt lat="43.53136" lon="5.57923">
        <ele>916</ele>
        <time>2022-02-15T10:48:53.000Z</time>
      </trkpt>
      <trkpt lat="43.53136" lon="5.57923">
        <ele>916</ele>
        <time>2022-02-15T10:48:54.000Z</time>
      </trkpt>
      <trkpt lat="43.53136" lon="5.57923">
        <ele>916</ele>
        <time>2022-02-15T10:48:55.000Z</time>
      </trkpt>
      <trkpt lat="43.53136" lon="5.57923">
        <ele>916</ele>
        <time>2022-02-15T10:48:56.000Z</time>
      </trkpt>
      <trkpt lat="43.53136" lon="5.57923">
        <ele>916</ele>
        <time>2022-02-15T10:48:57.000Z</time>
      </trkpt>
      <trkpt lat="43.53136" lon="5.57923">
        <ele>916</ele>
        <time>2022-02-15T10:48:58.000Z</time>
      </trkpt>
      <trkpt lat="43.53136" lon="5.57923">
        <ele>916</ele>
        <time>2022-02-15T10:48:59.000Z</time>
      </trkpt>
      <trkpt lat="43.53136" lon="5.57923">
        <ele>916</ele>
        <time>2022-02-15T10:49:00.000Z</time>
      </trkpt>
      <trkpt lat="43.53136" lon="5.57923">
        <ele>916</ele>
        <time>2022-02-15T10:49:01.000Z</time>
      </trkpt>
      <trkpt lat="43.53136" lon="5.57923">
        <ele>916</ele>
        <time>2022-02-15T10:49:02.000Z</time>
      </trkpt>
      <trkpt lat="43.53136" lon="5.57923">
        <ele>916</ele>
        <time>2022-02-15T10:49:03.000Z</time>
      </trkpt>
      <trkpt lat="43.53136" lon="5.57923">
        <ele>916</ele>
        <time>2022-02-15T10:49:04.000Z</time>
      </trkpt>
      <trkpt lat="43.53136" lon="5.57924">
        <ele>916</ele>
        <time>2022-02-15T10:49:05.000Z</time>
      </trkpt>
      <trkpt lat="43.53136" lon="5.57924">
        <ele>916</ele>
        <time>2022-02-15T10:49:06.000Z</time>
      </trkpt>
      <trkpt lat="43.53136" lon="5.57924">
        <ele>917</ele>
        <time>2022-02-15T10:49:07.000Z</time>
      </trkpt>
      <trkpt lat="43.53136" lon="5.57924">
        <ele>917</ele>
        <time>2022-02-15T10:49:08.000Z</time>
      </trkpt>
      <trkpt lat="43.53136" lon="5.57924">
        <ele>917</ele>
        <time>2022-02-15T10:49:09.000Z</time>
      </trkpt>
      <trkpt lat="43.53136" lon="5.57924">
        <ele>917</ele>
        <time>2022-02-15T10:49:10.000Z</time>
      </trkpt>
      <trkpt lat="43.53136" lon="5.57924">
        <ele>917</ele>
        <time>2022-02-15T10:49:11.000Z</time>
      </trkpt>
      <trkpt lat="43.53136" lon="5.57924">
        <ele>918</ele>
        <time>2022-02-15T10:49:12.000Z</time>
      </trkpt>
      <trkpt lat="43.53136" lon="5.57924">
        <ele>918</ele>
        <time>2022-02-15T10:49:13.000Z</time>
      </trkpt>
      <trkpt lat="43.53136" lon="5.57924">
        <ele>918</ele>
        <time>2022-02-15T10:49:14.000Z</time>
      </trkpt>
      <trkpt lat="43.53136" lon="5.57924">
        <ele>918</ele>
        <time>2022-02-15T10:49:15.000Z</time>
      </trkpt>
      <trkpt lat="43.53136" lon="5.57924">
        <ele>918</ele>
        <time>2022-02-15T10:49:16.000Z</time>
      </trkpt>
      <trkpt lat="43.53136" lon="5.57924">
        <ele>918</ele>
        <time>2022-02-15T10:49:17.000Z</time>
      </trkpt>
      <trkpt lat="43.53136" lon="5.57924">
        <ele>919</ele>
        <time>2022-02-15T10:49:18.000Z</time>
      </trkpt>
      <trkpt lat="43.53137" lon="5.57924">
        <ele>919</ele>
        <time>2022-02-15T10:49:19.000Z</time>
      </trkpt>
      <trkpt lat="43.53137" lon="5.57924">
        <ele>919</ele>
        <time>2022-02-15T10:49:20.000Z</time>
      </trkpt>
      <trkpt lat="43.53137" lon="5.57924">
        <ele>919</ele>
        <time>2022-02-15T10:49:21.000Z</time>
      </trkpt>
      <trkpt lat="43.53137" lon="5.57924">
        <ele>919</ele>
        <time>2022-02-15T10:49:22.000Z</time>
      </trkpt>
      <trkpt lat="43.53136" lon="5.57924">
        <ele>919</ele>
        <time>2022-02-15T10:49:23.000Z</time>
      </trkpt>
      <trkpt lat="43.53136" lon="5.57924">
        <ele>919</ele>
        <time>2022-02-15T10:49:24.000Z</time>
      </trkpt>
      <trkpt lat="43.53136" lon="5.57924">
        <ele>920</ele>
        <time>2022-02-15T10:49:25.000Z</time>
      </trkpt>
      <trkpt lat="43.53136" lon="5.57924">
        <ele>920</ele>
        <time>2022-02-15T10:49:26.000Z</time>
      </trkpt>
      <trkpt lat="43.53136" lon="5.57924">
        <ele>920</ele>
        <time>2022-02-15T10:49:27.000Z</time>
      </trkpt>
      <trkpt lat="43.53136" lon="5.57924">
        <ele>920</ele>
        <time>2022-02-15T10:49:28.000Z</time>
      </trkpt>
      <trkpt lat="43.53137" lon="5.57924">
        <ele>920</ele>
        <time>2022-02-15T10:49:29.000Z</time>
      </trkpt>
      <trkpt lat="43.53136" lon="5.57924">
        <ele>920</ele>
        <time>2022-02-15T10:49:30.000Z</time>
      </trkpt>
      <trkpt lat="43.53136" lon="5.57924">
        <ele>920</ele>
        <time>2022-02-15T10:49:31.000Z</time>
      </trkpt>
      <trkpt lat="43.53136" lon="5.57924">
        <ele>920</ele>
        <time>2022-02-15T10:49:32.000Z</time>
      </trkpt>
      <trkpt lat="43.53136" lon="5.57924">
        <ele>920</ele>
        <time>2022-02-15T10:49:33.000Z</time>
      </trkpt>
      <trkpt lat="43.53136" lon="5.57924">
        <ele>920</ele>
        <time>2022-02-15T10:49:34.000Z</time>
      </trkpt>
      <trkpt lat="43.53136" lon="5.57924">
        <ele>920</ele>
        <time>2022-02-15T10:49:35.000Z</time>
      </trkpt>
      <trkpt lat="43.53136" lon="5.57924">
        <ele>920</ele>
        <time>2022-02-15T10:49:36.000Z</time>
      </trkpt>
      <trkpt lat="43.53136" lon="5.57924">
        <ele>920</ele>
        <time>2022-02-15T10:49:37.000Z</time>
      </trkpt>
      <trkpt lat="43.53136" lon="5.57924">
        <ele>920</ele>
        <time>2022-02-15T10:49:38.000Z</time>
      </trkpt>
      <trkpt lat="43.53136" lon="5.57924">
        <ele>920</ele>
        <time>2022-02-15T10:49:39.000Z</time>
      </trkpt>
      <trkpt lat="43.53136" lon="5.57924">
        <ele>920</ele>
        <time>2022-02-15T10:49:40.000Z</time>
      </trkpt>
      <trkpt lat="43.53136" lon="5.57924">
        <ele>920</ele>
        <time>2022-02-15T10:49:41.000Z</time>
      </trkpt>
      <trkpt lat="43.53137" lon="5.57924">
        <ele>920</ele>
        <time>2022-02-15T10:49:42.000Z</time>
      </trkpt>
      <trkpt lat="43.53136" lon="5.57924">
        <ele>920</ele>
        <time>2022-02-15T10:49:43.000Z</time>
      </trkpt>
      <trkpt lat="43.53137" lon="5.57924">
        <ele>920</ele>
        <time>2022-02-15T10:49:44.000Z</time>
      </trkpt>
      <trkpt lat="43.53137" lon="5.57924">
        <ele>920</ele>
        <time>2022-02-15T10:49:45.000Z</time>
      </trkpt>
      <trkpt lat="43.53137" lon="5.57924">
        <ele>920</ele>
        <time>2022-02-15T10:49:46.000Z</time>
      </trkpt>
      <trkpt lat="43.53137" lon="5.57924">
        <ele>920</ele>
        <time>2022-02-15T10:49:47.000Z</time>
      </trkpt>
      <trkpt lat="43.53137" lon="5.57924">
        <ele>920</ele>
        <time>2022-02-15T10:49:48.000Z</time>
      </trkpt>
      <trkpt lat="43.53137" lon="5.57924">
        <ele>920</ele>
        <time>2022-02-15T10:49:49.000Z</time>
      </trkpt>
      <trkpt lat="43.53137" lon="5.57924">
        <ele>920</ele>
        <time>2022-02-15T10:49:50.000Z</time>
      </trkpt>
      <trkpt lat="43.53137" lon="5.57924">
        <ele>920</ele>
        <time>2022-02-15T10:49:51.000Z</time>
      </trkpt>
      <trkpt lat="43.53137" lon="5.57924">
        <ele>920</ele>
        <time>2022-02-15T10:49:52.000Z</time>
      </trkpt>
      <trkpt lat="43.53137" lon="5.57924">
        <ele>920</ele>
        <time>2022-02-15T10:49:53.000Z</time>
      </trkpt>
      <trkpt lat="43.53137" lon="5.57924">
        <ele>920</ele>
        <time>2022-02-15T10:49:54.000Z</time>
      </trkpt>
      <trkpt lat="43.53137" lon="5.57924">
        <ele>920</ele>
        <time>2022-02-15T10:49:55.000Z</time>
      </trkpt>
      <trkpt lat="43.53137" lon="5.57924">
        <ele>920</ele>
        <time>2022-02-15T10:49:56.000Z</time>
      </trkpt>
      <trkpt lat="43.53137" lon="5.57924">
        <ele>920</ele>
        <time>2022-02-15T10:49:57.000Z</time>
      </trkpt>
      <trkpt lat="43.53137" lon="5.57924">
        <ele>921</ele>
        <time>2022-02-15T10:49:58.000Z</time>
      </trkpt>
      <trkpt lat="43.53137" lon="5.57924">
        <ele>921</ele>
        <time>2022-02-15T10:49:59.000Z</time>
      </trkpt>
      <trkpt lat="43.53137" lon="5.57924">
        <ele>921</ele>
        <time>2022-02-15T10:50:00.000Z</time>
      </trkpt>
      <trkpt lat="43.53137" lon="5.57924">
        <ele>921</ele>
        <time>2022-02-15T10:50:01.000Z</time>
      </trkpt>
      <trkpt lat="43.53137" lon="5.57924">
        <ele>921</ele>
        <time>2022-02-15T10:50:02.000Z</time>
      </trkpt>
      <trkpt lat="43.53137" lon="5.57924">
        <ele>921</ele>
        <time>2022-02-15T10:50:03.000Z</time>
      </trkpt>
      <trkpt lat="43.53137" lon="5.57924">
        <ele>921</ele>
        <time>2022-02-15T10:50:04.000Z</time>
      </trkpt>
      <trkpt lat="43.53137" lon="5.57924">
        <ele>921</ele>
        <time>2022-02-15T10:50:05.000Z</time>
      </trkpt>
      <trkpt lat="43.53137" lon="5.57924">
        <ele>921</ele>
        <time>2022-02-15T10:50:06.000Z</time>
      </trkpt>
      <trkpt lat="43.53137" lon="5.57924">
        <ele>921</ele>
        <time>2022-02-15T10:50:07.000Z</time>
      </trkpt>
      <trkpt lat="43.53137" lon="5.57924">
        <ele>921</ele>
        <time>2022-02-15T10:50:08.000Z</time>
      </trkpt>
      <trkpt lat="43.53137" lon="5.57924">
        <ele>921</ele>
        <time>2022-02-15T10:50:09.000Z</time>
      </trkpt>
      <trkpt lat="43.53137" lon="5.57924">
        <ele>920</ele>
        <time>2022-02-15T10:50:10.000Z</time>
      </trkpt>
      <trkpt lat="43.53137" lon="5.57924">
        <ele>920</ele>
        <time>2022-02-15T10:50:11.000Z</time>
      </trkpt>
      <trkpt lat="43.53137" lon="5.57924">
        <ele>921</ele>
        <time>2022-02-15T10:50:12.000Z</time>
      </trkpt>
      <trkpt lat="43.53137" lon="5.57924">
        <ele>921</ele>
        <time>2022-02-15T10:50:13.000Z</time>
      </trkpt>
      <trkpt lat="43.53137" lon="5.57924">
        <ele>921</ele>
        <time>2022-02-15T10:50:14.000Z</time>
      </trkpt>
      <trkpt lat="43.53137" lon="5.57924">
        <ele>921</ele>
        <time>2022-02-15T10:50:15.000Z</time>
      </trkpt>
      <trkpt lat="43.53137" lon="5.57924">
        <ele>921</ele>
        <time>2022-02-15T10:50:16.000Z</time>
      </trkpt>
      <trkpt lat="43.53137" lon="5.57924">
        <ele>921</ele>
        <time>2022-02-15T10:50:17.000Z</time>
      </trkpt>
      <trkpt lat="43.53137" lon="5.57924">
        <ele>921</ele>
        <time>2022-02-15T10:50:18.000Z</time>
      </trkpt>
      <trkpt lat="43.53137" lon="5.57924">
        <ele>921</ele>
        <time>2022-02-15T10:50:19.000Z</time>
      </trkpt>
      <trkpt lat="43.53137" lon="5.57924">
        <ele>921</ele>
        <time>2022-02-15T10:50:20.000Z</time>
      </trkpt>
      <trkpt lat="43.53137" lon="5.57924">
        <ele>921</ele>
        <time>2022-02-15T10:50:21.000Z</time>
      </trkpt>
      <trkpt lat="43.53136" lon="5.57924">
        <ele>920</ele>
        <time>2022-02-15T10:50:22.000Z</time>
      </trkpt>
      <trkpt lat="43.53136" lon="5.57924">
        <ele>921</ele>
        <time>2022-02-15T10:50:23.000Z</time>
      </trkpt>
      <trkpt lat="43.53136" lon="5.57924">
        <ele>921</ele>
        <time>2022-02-15T10:50:24.000Z</time>
      </trkpt>
      <trkpt lat="43.53136" lon="5.57924">
        <ele>921</ele>
        <time>2022-02-15T10:50:25.000Z</time>
      </trkpt>
      <trkpt lat="43.53136" lon="5.57924">
        <ele>921</ele>
        <time>2022-02-15T10:50:26.000Z</time>
      </trkpt>
      <trkpt lat="43.53136" lon="5.57924">
        <ele>921</ele>
        <time>2022-02-15T10:50:27.000Z</time>
      </trkpt>
      <trkpt lat="43.53136" lon="5.57924">
        <ele>921</ele>
        <time>2022-02-15T10:50:28.000Z</time>
      </trkpt>
      <trkpt lat="43.53136" lon="5.57924">
        <ele>921</ele>
        <time>2022-02-15T10:50:29.000Z</time>
      </trkpt>
      <trkpt lat="43.53136" lon="5.57924">
        <ele>921</ele>
        <time>2022-02-15T10:50:30.000Z</time>
      </trkpt>
      <trkpt lat="43.53136" lon="5.57924">
        <ele>921</ele>
        <time>2022-02-15T10:50:31.000Z</time>
      </trkpt>
      <trkpt lat="43.53136" lon="5.57923">
        <ele>921</ele>
        <time>2022-02-15T10:50:32.000Z</time>
      </trkpt>
      <trkpt lat="43.53136" lon="5.57923">
        <ele>921</ele>
        <time>2022-02-15T10:50:33.000Z</time>
      </trkpt>
      <trkpt lat="43.53136" lon="5.57923">
        <ele>921</ele>
        <time>2022-02-15T10:50:34.000Z</time>
      </trkpt>
      <trkpt lat="43.53136" lon="5.57923">
        <ele>921</ele>
        <time>2022-02-15T10:50:35.000Z</time>
      </trkpt>
      <trkpt lat="43.53136" lon="5.57923">
        <ele>921</ele>
        <time>2022-02-15T10:50:36.000Z</time>
      </trkpt>
      <trkpt lat="43.53136" lon="5.57923">
        <ele>921</ele>
        <time>2022-02-15T10:50:37.000Z</time>
      </trkpt>
      <trkpt lat="43.53136" lon="5.57923">
        <ele>921</ele>
        <time>2022-02-15T10:50:38.000Z</time>
      </trkpt>
      <trkpt lat="43.53136" lon="5.57924">
        <ele>921</ele>
        <time>2022-02-15T10:50:39.000Z</time>
      </trkpt>
      <trkpt lat="43.53136" lon="5.57924">
        <ele>921</ele>
        <time>2022-02-15T10:50:40.000Z</time>
      </trkpt>
      <trkpt lat="43.53136" lon="5.57924">
        <ele>921</ele>
        <time>2022-02-15T10:50:41.000Z</time>
      </trkpt>
      <trkpt lat="43.53136" lon="5.57924">
        <ele>921</ele>
        <time>2022-02-15T10:50:42.000Z</time>
      </trkpt>
      <trkpt lat="43.53136" lon="5.57924">
        <ele>921</ele>
        <time>2022-02-15T10:50:43.000Z</time>
      </trkpt>
      <trkpt lat="43.53136" lon="5.57924">
        <ele>921</ele>
        <time>2022-02-15T10:50:44.000Z</time>
      </trkpt>
      <trkpt lat="43.53136" lon="5.57924">
        <ele>921</ele>
        <time>2022-02-15T10:50:45.000Z</time>
      </trkpt>
      <trkpt lat="43.53136" lon="5.57924">
        <ele>921</ele>
        <time>2022-02-15T10:50:46.000Z</time>
      </trkpt>
      <trkpt lat="43.53136" lon="5.57924">
        <ele>921</ele>
        <time>2022-02-15T10:50:47.000Z</time>
      </trkpt>
      <trkpt lat="43.53136" lon="5.57924">
        <ele>921</ele>
        <time>2022-02-15T10:50:48.000Z</time>
      </trkpt>
      <trkpt lat="43.53136" lon="5.57924">
        <ele>921</ele>
        <time>2022-02-15T10:50:49.000Z</time>
      </trkpt>
      <trkpt lat="43.53136" lon="5.57924">
        <ele>921</ele>
        <time>2022-02-15T10:50:50.000Z</time>
      </trkpt>
      <trkpt lat="43.53136" lon="5.57924">
        <ele>921</ele>
        <time>2022-02-15T10:50:51.000Z</time>
      </trkpt>
      <trkpt lat="43.53136" lon="5.57924">
        <ele>921</ele>
        <time>2022-02-15T10:50:52.000Z</time>
      </trkpt>
      <trkpt lat="43.53136" lon="5.57924">
        <ele>920</ele>
        <time>2022-02-15T10:50:53.000Z</time>
      </trkpt>
      <trkpt lat="43.53136" lon="5.57925">
        <ele>920</ele>
        <time>2022-02-15T10:50:54.000Z</time>
      </trkpt>
      <trkpt lat="43.53136" lon="5.57925">
        <ele>920</ele>
        <time>2022-02-15T10:50:55.000Z</time>
      </trkpt>
      <trkpt lat="43.53136" lon="5.57925">
        <ele>920</ele>
        <time>2022-02-15T10:50:56.000Z</time>
      </trkpt>
      <trkpt lat="43.53136" lon="5.57925">
        <ele>920</ele>
        <time>2022-02-15T10:50:57.000Z</time>
      </trkpt>
      <trkpt lat="43.53136" lon="5.57924">
        <ele>920</ele>
        <time>2022-02-15T10:50:58.000Z</time>
      </trkpt>
      <trkpt lat="43.53136" lon="5.57924">
        <ele>920</ele>
        <time>2022-02-15T10:50:59.000Z</time>
      </trkpt>
      <trkpt lat="43.53136" lon="5.57924">
        <ele>920</ele>
        <time>2022-02-15T10:51:00.000Z</time>
      </trkpt>
      <trkpt lat="43.53136" lon="5.57924">
        <ele>920</ele>
        <time>2022-02-15T10:51:01.000Z</time>
      </trkpt>
      <trkpt lat="43.53136" lon="5.57924">
        <ele>920</ele>
        <time>2022-02-15T10:51:02.000Z</time>
      </trkpt>
      <trkpt lat="43.53136" lon="5.57924">
        <ele>920</ele>
        <time>2022-02-15T10:51:03.000Z</time>
      </trkpt>
      <trkpt lat="43.53136" lon="5.57924">
        <ele>920</ele>
        <time>2022-02-15T10:51:04.000Z</time>
      </trkpt>
      <trkpt lat="43.53136" lon="5.57924">
        <ele>920</ele>
        <time>2022-02-15T10:51:05.000Z</time>
      </trkpt>
      <trkpt lat="43.53136" lon="5.57924">
        <ele>920</ele>
        <time>2022-02-15T10:51:06.000Z</time>
      </trkpt>
      <trkpt lat="43.53136" lon="5.57924">
        <ele>920</ele>
        <time>2022-02-15T10:51:07.000Z</time>
      </trkpt>
      <trkpt lat="43.53136" lon="5.57924">
        <ele>920</ele>
        <time>2022-02-15T10:51:08.000Z</time>
      </trkpt>
      <trkpt lat="43.53136" lon="5.57924">
        <ele>920</ele>
        <time>2022-02-15T10:51:09.000Z</time>
      </trkpt>
      <trkpt lat="43.53136" lon="5.57924">
        <ele>920</ele>
        <time>2022-02-15T10:51:10.000Z</time>
      </trkpt>
      <trkpt lat="43.53136" lon="5.57924">
        <ele>920</ele>
        <time>2022-02-15T10:51:11.000Z</time>
      </trkpt>
      <trkpt lat="43.53136" lon="5.57924">
        <ele>920</ele>
        <time>2022-02-15T10:51:12.000Z</time>
      </trkpt>
      <trkpt lat="43.53136" lon="5.57924">
        <ele>920</ele>
        <time>2022-02-15T10:51:13.000Z</time>
      </trkpt>
      <trkpt lat="43.53136" lon="5.57924">
        <ele>920</ele>
        <time>2022-02-15T10:51:14.000Z</time>
      </trkpt>
      <trkpt lat="43.53136" lon="5.57924">
        <ele>920</ele>
        <time>2022-02-15T10:51:15.000Z</time>
      </trkpt>
      <trkpt lat="43.53135" lon="5.57924">
        <ele>920</ele>
        <time>2022-02-15T10:51:16.000Z</time>
      </trkpt>
      <trkpt lat="43.53136" lon="5.57924">
        <ele>920</ele>
        <time>2022-02-15T10:51:17.000Z</time>
      </trkpt>
      <trkpt lat="43.53136" lon="5.57924">
        <ele>920</ele>
        <time>2022-02-15T10:51:18.000Z</time>
      </trkpt>
      <trkpt lat="43.53136" lon="5.57924">
        <ele>920</ele>
        <time>2022-02-15T10:51:19.000Z</time>
      </trkpt>
      <trkpt lat="43.53136" lon="5.57925">
        <ele>920</ele>
        <time>2022-02-15T10:51:20.000Z</time>
      </trkpt>
      <trkpt lat="43.53136" lon="5.57925">
        <ele>920</ele>
        <time>2022-02-15T10:51:21.000Z</time>
      </trkpt>
      <trkpt lat="43.53136" lon="5.57925">
        <ele>920</ele>
        <time>2022-02-15T10:51:22.000Z</time>
      </trkpt>
      <trkpt lat="43.53136" lon="5.57925">
        <ele>920</ele>
        <time>2022-02-15T10:51:23.000Z</time>
      </trkpt>
      <trkpt lat="43.53136" lon="5.57925">
        <ele>920</ele>
        <time>2022-02-15T10:51:24.000Z</time>
      </trkpt>
      <trkpt lat="43.53136" lon="5.57924">
        <ele>920</ele>
        <time>2022-02-15T10:51:25.000Z</time>
      </trkpt>
      <trkpt lat="43.53136" lon="5.57924">
        <ele>920</ele>
        <time>2022-02-15T10:51:26.000Z</time>
      </trkpt>
      <trkpt lat="43.53136" lon="5.57925">
        <ele>920</ele>
        <time>2022-02-15T10:51:27.000Z</time>
      </trkpt>
      <trkpt lat="43.53136" lon="5.57925">
        <ele>920</ele>
        <time>2022-02-15T10:51:28.000Z</time>
      </trkpt>
      <trkpt lat="43.53136" lon="5.57925">
        <ele>920</ele>
        <time>2022-02-15T10:51:29.000Z</time>
      </trkpt>
      <trkpt lat="43.53136" lon="5.57926">
        <ele>920</ele>
        <time>2022-02-15T10:51:30.000Z</time>
      </trkpt>
      <trkpt lat="43.53136" lon="5.57926">
        <ele>920</ele>
        <time>2022-02-15T10:51:31.000Z</time>
      </trkpt>
      <trkpt lat="43.53136" lon="5.57926">
        <ele>920</ele>
        <time>2022-02-15T10:51:32.000Z</time>
      </trkpt>
      <trkpt lat="43.53136" lon="5.57926">
        <ele>920</ele>
        <time>2022-02-15T10:51:33.000Z</time>
      </trkpt>
      <trkpt lat="43.53136" lon="5.57926">
        <ele>920</ele>
        <time>2022-02-15T10:51:34.000Z</time>
      </trkpt>
      <trkpt lat="43.53136" lon="5.57926">
        <ele>920</ele>
        <time>2022-02-15T10:51:35.000Z</time>
      </trkpt>
      <trkpt lat="43.53136" lon="5.57927">
        <ele>920</ele>
        <time>2022-02-15T10:51:36.000Z</time>
      </trkpt>
      <trkpt lat="43.53136" lon="5.57927">
        <ele>920</ele>
        <time>2022-02-15T10:51:37.000Z</time>
      </trkpt>
      <trkpt lat="43.53136" lon="5.57927">
        <ele>920</ele>
        <time>2022-02-15T10:51:38.000Z</time>
      </trkpt>
      <trkpt lat="43.53136" lon="5.57928">
        <ele>920</ele>
        <time>2022-02-15T10:51:39.000Z</time>
      </trkpt>
      <trkpt lat="43.53136" lon="5.57929">
        <ele>920</ele>
        <time>2022-02-15T10:51:40.000Z</time>
      </trkpt>
      <trkpt lat="43.53135" lon="5.57929">
        <ele>920</ele>
        <time>2022-02-15T10:51:41.000Z</time>
      </trkpt>
      <trkpt lat="43.53135" lon="5.5793">
        <ele>921</ele>
        <time>2022-02-15T10:51:42.000Z</time>
      </trkpt>
      <trkpt lat="43.53134" lon="5.57931">
        <ele>921</ele>
        <time>2022-02-15T10:51:43.000Z</time>
      </trkpt>
      <trkpt lat="43.53134" lon="5.57932">
        <ele>921</ele>
        <time>2022-02-15T10:51:44.000Z</time>
      </trkpt>
      <trkpt lat="43.53133" lon="5.57932">
        <ele>921</ele>
        <time>2022-02-15T10:51:45.000Z</time>
      </trkpt>
      <trkpt lat="43.53133" lon="5.57933">
        <ele>921</ele>
        <time>2022-02-15T10:51:46.000Z</time>
      </trkpt>
      <trkpt lat="43.53133" lon="5.57934">
        <ele>921</ele>
        <time>2022-02-15T10:51:47.000Z</time>
      </trkpt>
      <trkpt lat="43.53132" lon="5.57934">
        <ele>921</ele>
        <time>2022-02-15T10:51:48.000Z</time>
      </trkpt>
      <trkpt lat="43.53132" lon="5.57935">
        <ele>921</ele>
        <time>2022-02-15T10:51:49.000Z</time>
      </trkpt>
      <trkpt lat="43.53132" lon="5.57936">
        <ele>922</ele>
        <time>2022-02-15T10:51:50.000Z</time>
      </trkpt>
      <trkpt lat="43.53131" lon="5.57937">
        <ele>922</ele>
        <time>2022-02-15T10:51:51.000Z</time>
      </trkpt>
      <trkpt lat="43.53131" lon="5.57937">
        <ele>922</ele>
        <time>2022-02-15T10:51:52.000Z</time>
      </trkpt>
      <trkpt lat="43.53131" lon="5.57939">
        <ele>922</ele>
        <time>2022-02-15T10:51:53.000Z</time>
      </trkpt>
      <trkpt lat="43.5313" lon="5.5794">
        <ele>922</ele>
        <time>2022-02-15T10:51:54.000Z</time>
      </trkpt>
      <trkpt lat="43.5313" lon="5.57941">
        <ele>922</ele>
        <time>2022-02-15T10:51:55.000Z</time>
      </trkpt>
      <trkpt lat="43.5313" lon="5.57942">
        <ele>923</ele>
        <time>2022-02-15T10:51:56.000Z</time>
      </trkpt>
      <trkpt lat="43.5313" lon="5.57943">
        <ele>923</ele>
        <time>2022-02-15T10:51:57.000Z</time>
      </trkpt>
      <trkpt lat="43.5313" lon="5.57944">
        <ele>923</ele>
        <time>2022-02-15T10:51:58.000Z</time>
      </trkpt>
      <trkpt lat="43.5313" lon="5.57945">
        <ele>923</ele>
        <time>2022-02-15T10:51:59.000Z</time>
      </trkpt>
      <trkpt lat="43.53129" lon="5.57946">
        <ele>923</ele>
        <time>2022-02-15T10:52:00.000Z</time>
      </trkpt>
      <trkpt lat="43.53129" lon="5.57946">
        <ele>923</ele>
        <time>2022-02-15T10:52:01.000Z</time>
      </trkpt>
      <trkpt lat="43.53129" lon="5.57947">
        <ele>923</ele>
        <time>2022-02-15T10:52:02.000Z</time>
      </trkpt>
      <trkpt lat="43.53129" lon="5.57948">
        <ele>923</ele>
        <time>2022-02-15T10:52:03.000Z</time>
      </trkpt>
      <trkpt lat="43.53129" lon="5.5795">
        <ele>924</ele>
        <time>2022-02-15T10:52:04.000Z</time>
      </trkpt>
      <trkpt lat="43.53128" lon="5.57951">
        <ele>924</ele>
        <time>2022-02-15T10:52:05.000Z</time>
      </trkpt>
      <trkpt lat="43.53128" lon="5.57951">
        <ele>924</ele>
        <time>2022-02-15T10:52:06.000Z</time>
      </trkpt>
      <trkpt lat="43.53128" lon="5.57951">
        <ele>924</ele>
        <time>2022-02-15T10:52:07.000Z</time>
      </trkpt>
      <trkpt lat="43.53127" lon="5.57952">
        <ele>924</ele>
        <time>2022-02-15T10:52:08.000Z</time>
      </trkpt>
      <trkpt lat="43.53127" lon="5.57953">
        <ele>924</ele>
        <time>2022-02-15T10:52:09.000Z</time>
      </trkpt>
      <trkpt lat="43.53127" lon="5.57954">
        <ele>924</ele>
        <time>2022-02-15T10:52:10.000Z</time>
      </trkpt>
      <trkpt lat="43.53127" lon="5.57955">
        <ele>924</ele>
        <time>2022-02-15T10:52:11.000Z</time>
      </trkpt>
      <trkpt lat="43.53126" lon="5.57956">
        <ele>924</ele>
        <time>2022-02-15T10:52:12.000Z</time>
      </trkpt>
      <trkpt lat="43.53126" lon="5.57958">
        <ele>924</ele>
        <time>2022-02-15T10:52:13.000Z</time>
      </trkpt>
      <trkpt lat="43.53125" lon="5.57959">
        <ele>924</ele>
        <time>2022-02-15T10:52:14.000Z</time>
      </trkpt>
      <trkpt lat="43.53125" lon="5.5796">
        <ele>924</ele>
        <time>2022-02-15T10:52:15.000Z</time>
      </trkpt>
      <trkpt lat="43.53125" lon="5.57961">
        <ele>924</ele>
        <time>2022-02-15T10:52:16.000Z</time>
      </trkpt>
      <trkpt lat="43.53124" lon="5.57962">
        <ele>924</ele>
        <time>2022-02-15T10:52:17.000Z</time>
      </trkpt>
      <trkpt lat="43.53124" lon="5.57963">
        <ele>924</ele>
        <time>2022-02-15T10:52:18.000Z</time>
      </trkpt>
      <trkpt lat="43.53124" lon="5.57963">
        <ele>924</ele>
        <time>2022-02-15T10:52:19.000Z</time>
      </trkpt>
      <trkpt lat="43.53123" lon="5.57964">
        <ele>924</ele>
        <time>2022-02-15T10:52:20.000Z</time>
      </trkpt>
      <trkpt lat="43.53123" lon="5.57964">
        <ele>924</ele>
        <time>2022-02-15T10:52:21.000Z</time>
      </trkpt>
      <trkpt lat="43.53122" lon="5.57964">
        <ele>924</ele>
        <time>2022-02-15T10:52:22.000Z</time>
      </trkpt>
      <trkpt lat="43.53122" lon="5.57965">
        <ele>924</ele>
        <time>2022-02-15T10:52:23.000Z</time>
      </trkpt>
      <trkpt lat="43.53122" lon="5.57965">
        <ele>924</ele>
        <time>2022-02-15T10:52:24.000Z</time>
      </trkpt>
      <trkpt lat="43.53122" lon="5.57965">
        <ele>924</ele>
        <time>2022-02-15T10:52:25.000Z</time>
      </trkpt>
      <trkpt lat="43.53122" lon="5.57966">
        <ele>924</ele>
        <time>2022-02-15T10:52:26.000Z</time>
      </trkpt>
      <trkpt lat="43.53122" lon="5.57966">
        <ele>924</ele>
        <time>2022-02-15T10:52:27.000Z</time>
      </trkpt>
      <trkpt lat="43.53121" lon="5.57967">
        <ele>924</ele>
        <time>2022-02-15T10:52:28.000Z</time>
      </trkpt>
      <trkpt lat="43.53121" lon="5.57968">
        <ele>924</ele>
        <time>2022-02-15T10:52:29.000Z</time>
      </trkpt>
      <trkpt lat="43.5312" lon="5.57969">
        <ele>925</ele>
        <time>2022-02-15T10:52:30.000Z</time>
      </trkpt>
      <trkpt lat="43.5312" lon="5.57969">
        <ele>925</ele>
        <time>2022-02-15T10:52:31.000Z</time>
      </trkpt>
      <trkpt lat="43.53119" lon="5.5797">
        <ele>925</ele>
        <time>2022-02-15T10:52:32.000Z</time>
      </trkpt>
      <trkpt lat="43.53119" lon="5.5797">
        <ele>925</ele>
        <time>2022-02-15T10:52:33.000Z</time>
      </trkpt>
      <trkpt lat="43.53118" lon="5.57971">
        <ele>925</ele>
        <time>2022-02-15T10:52:34.000Z</time>
      </trkpt>
      <trkpt lat="43.53118" lon="5.57971">
        <ele>925</ele>
        <time>2022-02-15T10:52:35.000Z</time>
      </trkpt>
      <trkpt lat="43.53118" lon="5.57972">
        <ele>925</ele>
        <time>2022-02-15T10:52:36.000Z</time>
      </trkpt>
      <trkpt lat="43.53118" lon="5.57972">
        <ele>925</ele>
        <time>2022-02-15T10:52:37.000Z</time>
      </trkpt>
      <trkpt lat="43.53118" lon="5.57972">
        <ele>925</ele>
        <time>2022-02-15T10:52:38.000Z</time>
      </trkpt>
      <trkpt lat="43.53117" lon="5.57972">
        <ele>925</ele>
        <time>2022-02-15T10:52:39.000Z</time>
      </trkpt>
      <trkpt lat="43.53116" lon="5.57973">
        <ele>925</ele>
        <time>2022-02-15T10:52:40.000Z</time>
      </trkpt>
      <trkpt lat="43.53116" lon="5.57973">
        <ele>925</ele>
        <time>2022-02-15T10:52:41.000Z</time>
      </trkpt>
      <trkpt lat="43.53116" lon="5.57974">
        <ele>925</ele>
        <time>2022-02-15T10:52:42.000Z</time>
      </trkpt>
      <trkpt lat="43.53116" lon="5.57974">
        <ele>926</ele>
        <time>2022-02-15T10:52:43.000Z</time>
      </trkpt>
      <trkpt lat="43.53115" lon="5.57975">
        <ele>926</ele>
        <time>2022-02-15T10:52:44.000Z</time>
      </trkpt>
      <trkpt lat="43.53115" lon="5.57975">
        <ele>926</ele>
        <time>2022-02-15T10:52:45.000Z</time>
      </trkpt>
      <trkpt lat="43.53115" lon="5.57975">
        <ele>926</ele>
        <time>2022-02-15T10:52:46.000Z</time>
      </trkpt>
      <trkpt lat="43.53115" lon="5.57975">
        <ele>926</ele>
        <time>2022-02-15T10:52:47.000Z</time>
      </trkpt>
      <trkpt lat="43.53115" lon="5.57975">
        <ele>926</ele>
        <time>2022-02-15T10:52:48.000Z</time>
      </trkpt>
      <trkpt lat="43.53115" lon="5.57975">
        <ele>926</ele>
        <time>2022-02-15T10:52:49.000Z</time>
      </trkpt>
      <trkpt lat="43.53115" lon="5.57975">
        <ele>926</ele>
        <time>2022-02-15T10:52:50.000Z</time>
      </trkpt>
      <trkpt lat="43.53114" lon="5.57975">
        <ele>926</ele>
        <time>2022-02-15T10:52:51.000Z</time>
      </trkpt>
      <trkpt lat="43.53114" lon="5.57975">
        <ele>926</ele>
        <time>2022-02-15T10:52:52.000Z</time>
      </trkpt>
      <trkpt lat="43.53115" lon="5.57975">
        <ele>926</ele>
        <time>2022-02-15T10:52:53.000Z</time>
      </trkpt>
      <trkpt lat="43.53115" lon="5.57975">
        <ele>926</ele>
        <time>2022-02-15T10:52:54.000Z</time>
      </trkpt>
      <trkpt lat="43.53115" lon="5.57975">
        <ele>926</ele>
        <time>2022-02-15T10:52:55.000Z</time>
      </trkpt>
      <trkpt lat="43.53115" lon="5.57975">
        <ele>926</ele>
        <time>2022-02-15T10:52:56.000Z</time>
      </trkpt>
      <trkpt lat="43.53115" lon="5.57975">
        <ele>926</ele>
        <time>2022-02-15T10:52:57.000Z</time>
      </trkpt>
      <trkpt lat="43.53115" lon="5.57975">
        <ele>926</ele>
        <time>2022-02-15T10:52:58.000Z</time>
      </trkpt>
      <trkpt lat="43.53115" lon="5.57975">
        <ele>926</ele>
        <time>2022-02-15T10:52:59.000Z</time>
      </trkpt>
      <trkpt lat="43.53115" lon="5.57976">
        <ele>926</ele>
        <time>2022-02-15T10:53:00.000Z</time>
      </trkpt>
      <trkpt lat="43.53115" lon="5.57976">
        <ele>927</ele>
        <time>2022-02-15T10:53:01.000Z</time>
      </trkpt>
      <trkpt lat="43.53114" lon="5.57977">
        <ele>927</ele>
        <time>2022-02-15T10:53:02.000Z</time>
      </trkpt>
      <trkpt lat="43.53114" lon="5.57977">
        <ele>927</ele>
        <time>2022-02-15T10:53:03.000Z</time>
      </trkpt>
      <trkpt lat="43.53114" lon="5.57978">
        <ele>927</ele>
        <time>2022-02-15T10:53:04.000Z</time>
      </trkpt>
      <trkpt lat="43.53113" lon="5.57978">
        <ele>927</ele>
        <time>2022-02-15T10:53:05.000Z</time>
      </trkpt>
      <trkpt lat="43.53113" lon="5.57979">
        <ele>927</ele>
        <time>2022-02-15T10:53:06.000Z</time>
      </trkpt>
      <trkpt lat="43.53113" lon="5.57979">
        <ele>927</ele>
        <time>2022-02-15T10:53:07.000Z</time>
      </trkpt>
      <trkpt lat="43.53113" lon="5.5798">
        <ele>927</ele>
        <time>2022-02-15T10:53:08.000Z</time>
      </trkpt>
      <trkpt lat="43.53113" lon="5.5798">
        <ele>927</ele>
        <time>2022-02-15T10:53:09.000Z</time>
      </trkpt>
      <trkpt lat="43.53112" lon="5.57981">
        <ele>927</ele>
        <time>2022-02-15T10:53:10.000Z</time>
      </trkpt>
      <trkpt lat="43.53112" lon="5.57981">
        <ele>927</ele>
        <time>2022-02-15T10:53:11.000Z</time>
      </trkpt>
      <trkpt lat="43.53112" lon="5.57982">
        <ele>927</ele>
        <time>2022-02-15T10:53:12.000Z</time>
      </trkpt>
      <trkpt lat="43.53112" lon="5.57982">
        <ele>927</ele>
        <time>2022-02-15T10:53:13.000Z</time>
      </trkpt>
      <trkpt lat="43.53111" lon="5.57983">
        <ele>928</ele>
        <time>2022-02-15T10:53:14.000Z</time>
      </trkpt>
      <trkpt lat="43.53111" lon="5.57984">
        <ele>928</ele>
        <time>2022-02-15T10:53:15.000Z</time>
      </trkpt>
      <trkpt lat="43.53111" lon="5.57984">
        <ele>928</ele>
        <time>2022-02-15T10:53:16.000Z</time>
      </trkpt>
      <trkpt lat="43.53111" lon="5.57985">
        <ele>928</ele>
        <time>2022-02-15T10:53:17.000Z</time>
      </trkpt>
      <trkpt lat="43.53111" lon="5.57985">
        <ele>928</ele>
        <time>2022-02-15T10:53:18.000Z</time>
      </trkpt>
      <trkpt lat="43.53111" lon="5.57985">
        <ele>929</ele>
        <time>2022-02-15T10:53:19.000Z</time>
      </trkpt>
      <trkpt lat="43.53111" lon="5.57985">
        <ele>929</ele>
        <time>2022-02-15T10:53:20.000Z</time>
      </trkpt>
      <trkpt lat="43.53111" lon="5.57985">
        <ele>929</ele>
        <time>2022-02-15T10:53:21.000Z</time>
      </trkpt>
      <trkpt lat="43.53111" lon="5.57985">
        <ele>929</ele>
        <time>2022-02-15T10:53:22.000Z</time>
      </trkpt>
      <trkpt lat="43.53111" lon="5.57985">
        <ele>929</ele>
        <time>2022-02-15T10:53:23.000Z</time>
      </trkpt>
      <trkpt lat="43.53111" lon="5.57986">
        <ele>929</ele>
        <time>2022-02-15T10:53:24.000Z</time>
      </trkpt>
      <trkpt lat="43.53111" lon="5.57986">
        <ele>929</ele>
        <time>2022-02-15T10:53:25.000Z</time>
      </trkpt>
      <trkpt lat="43.53111" lon="5.57986">
        <ele>929</ele>
        <time>2022-02-15T10:53:26.000Z</time>
      </trkpt>
      <trkpt lat="43.53111" lon="5.57986">
        <ele>929</ele>
        <time>2022-02-15T10:53:27.000Z</time>
      </trkpt>
      <trkpt lat="43.53111" lon="5.57986">
        <ele>929</ele>
        <time>2022-02-15T10:53:28.000Z</time>
      </trkpt>
      <trkpt lat="43.53111" lon="5.57986">
        <ele>929</ele>
        <time>2022-02-15T10:53:29.000Z</time>
      </trkpt>
      <trkpt lat="43.53111" lon="5.57986">
        <ele>930</ele>
        <time>2022-02-15T10:53:30.000Z</time>
      </trkpt>
      <trkpt lat="43.53111" lon="5.57986">
        <ele>930</ele>
        <time>2022-02-15T10:53:31.000Z</time>
      </trkpt>
      <trkpt lat="43.53111" lon="5.57986">
        <ele>930</ele>
        <time>2022-02-15T10:53:32.000Z</time>
      </trkpt>
      <trkpt lat="43.53111" lon="5.57986">
        <ele>930</ele>
        <time>2022-02-15T10:53:33.000Z</time>
      </trkpt>
      <trkpt lat="43.53111" lon="5.57986">
        <ele>930</ele>
        <time>2022-02-15T10:53:34.000Z</time>
      </trkpt>
      <trkpt lat="43.53111" lon="5.57986">
        <ele>930</ele>
        <time>2022-02-15T10:53:35.000Z</time>
      </trkpt>
      <trkpt lat="43.53111" lon="5.57986">
        <ele>930</ele>
        <time>2022-02-15T10:53:36.000Z</time>
      </trkpt>
      <trkpt lat="43.53111" lon="5.57986">
        <ele>930</ele>
        <time>2022-02-15T10:53:37.000Z</time>
      </trkpt>
      <trkpt lat="43.53111" lon="5.57987">
        <ele>930</ele>
        <time>2022-02-15T10:53:38.000Z</time>
      </trkpt>
      <trkpt lat="43.53111" lon="5.57987">
        <ele>930</ele>
        <time>2022-02-15T10:53:39.000Z</time>
      </trkpt>
      <trkpt lat="43.53111" lon="5.57988">
        <ele>931</ele>
        <time>2022-02-15T10:53:40.000Z</time>
      </trkpt>
      <trkpt lat="43.53111" lon="5.57988">
        <ele>931</ele>
        <time>2022-02-15T10:53:41.000Z</time>
      </trkpt>
      <trkpt lat="43.53111" lon="5.57989">
        <ele>931</ele>
        <time>2022-02-15T10:53:42.000Z</time>
      </trkpt>
      <trkpt lat="43.5311" lon="5.5799">
        <ele>931</ele>
        <time>2022-02-15T10:53:43.000Z</time>
      </trkpt>
      <trkpt lat="43.5311" lon="5.57991">
        <ele>931</ele>
        <time>2022-02-15T10:53:44.000Z</time>
      </trkpt>
      <trkpt lat="43.5311" lon="5.57992">
        <ele>932</ele>
        <time>2022-02-15T10:53:45.000Z</time>
      </trkpt>
      <trkpt lat="43.5311" lon="5.57993">
        <ele>932</ele>
        <time>2022-02-15T10:53:46.000Z</time>
      </trkpt>
      <trkpt lat="43.5311" lon="5.57993">
        <ele>932</ele>
        <time>2022-02-15T10:53:47.000Z</time>
      </trkpt>
      <trkpt lat="43.53109" lon="5.57994">
        <ele>932</ele>
        <time>2022-02-15T10:53:48.000Z</time>
      </trkpt>
      <trkpt lat="43.53109" lon="5.57994">
        <ele>932</ele>
        <time>2022-02-15T10:53:49.000Z</time>
      </trkpt>
      <trkpt lat="43.53109" lon="5.57995">
        <ele>932</ele>
        <time>2022-02-15T10:53:50.000Z</time>
      </trkpt>
      <trkpt lat="43.53109" lon="5.57995">
        <ele>932</ele>
        <time>2022-02-15T10:53:51.000Z</time>
      </trkpt>
      <trkpt lat="43.53109" lon="5.57996">
        <ele>932</ele>
        <time>2022-02-15T10:53:52.000Z</time>
      </trkpt>
      <trkpt lat="43.53109" lon="5.57996">
        <ele>932</ele>
        <time>2022-02-15T10:53:53.000Z</time>
      </trkpt>
      <trkpt lat="43.53109" lon="5.57996">
        <ele>933</ele>
        <time>2022-02-15T10:53:54.000Z</time>
      </trkpt>
      <trkpt lat="43.53109" lon="5.57996">
        <ele>933</ele>
        <time>2022-02-15T10:53:55.000Z</time>
      </trkpt>
      <trkpt lat="43.53109" lon="5.57996">
        <ele>933</ele>
        <time>2022-02-15T10:53:56.000Z</time>
      </trkpt>
      <trkpt lat="43.53109" lon="5.57996">
        <ele>933</ele>
        <time>2022-02-15T10:53:57.000Z</time>
      </trkpt>
      <trkpt lat="43.53109" lon="5.57996">
        <ele>933</ele>
        <time>2022-02-15T10:53:58.000Z</time>
      </trkpt>
      <trkpt lat="43.53109" lon="5.57996">
        <ele>933</ele>
        <time>2022-02-15T10:53:59.000Z</time>
      </trkpt>
      <trkpt lat="43.53108" lon="5.57996">
        <ele>933</ele>
        <time>2022-02-15T10:54:00.000Z</time>
      </trkpt>
      <trkpt lat="43.53108" lon="5.57996">
        <ele>933</ele>
        <time>2022-02-15T10:54:01.000Z</time>
      </trkpt>
      <trkpt lat="43.53108" lon="5.57996">
        <ele>933</ele>
        <time>2022-02-15T10:54:02.000Z</time>
      </trkpt>
      <trkpt lat="43.53108" lon="5.57997">
        <ele>933</ele>
        <time>2022-02-15T10:54:03.000Z</time>
      </trkpt>
      <trkpt lat="43.53108" lon="5.57998">
        <ele>933</ele>
        <time>2022-02-15T10:54:04.000Z</time>
      </trkpt>
      <trkpt lat="43.53108" lon="5.57998">
        <ele>933</ele>
        <time>2022-02-15T10:54:05.000Z</time>
      </trkpt>
      <trkpt lat="43.53108" lon="5.57999">
        <ele>933</ele>
        <time>2022-02-15T10:54:06.000Z</time>
      </trkpt>
      <trkpt lat="43.53108" lon="5.57999">
        <ele>933</ele>
        <time>2022-02-15T10:54:07.000Z</time>
      </trkpt>
      <trkpt lat="43.53108" lon="5.57999">
        <ele>933</ele>
        <time>2022-02-15T10:54:08.000Z</time>
      </trkpt>
      <trkpt lat="43.53108" lon="5.57999">
        <ele>933</ele>
        <time>2022-02-15T10:54:09.000Z</time>
      </trkpt>
      <trkpt lat="43.53108" lon="5.57999">
        <ele>933</ele>
        <time>2022-02-15T10:54:10.000Z</time>
      </trkpt>
      <trkpt lat="43.53108" lon="5.57999">
        <ele>933</ele>
        <time>2022-02-15T10:54:11.000Z</time>
      </trkpt>
      <trkpt lat="43.53108" lon="5.57999">
        <ele>933</ele>
        <time>2022-02-15T10:54:12.000Z</time>
      </trkpt>
      <trkpt lat="43.53108" lon="5.57999">
        <ele>933</ele>
        <time>2022-02-15T10:54:13.000Z</time>
      </trkpt>
      <trkpt lat="43.53108" lon="5.57999">
        <ele>933</ele>
        <time>2022-02-15T10:54:14.000Z</time>
      </trkpt>
      <trkpt lat="43.53108" lon="5.57999">
        <ele>933</ele>
        <time>2022-02-15T10:54:15.000Z</time>
      </trkpt>
      <trkpt lat="43.53108" lon="5.57999">
        <ele>933</ele>
        <time>2022-02-15T10:54:16.000Z</time>
      </trkpt>
      <trkpt lat="43.53108" lon="5.57999">
        <ele>933</ele>
        <time>2022-02-15T10:54:17.000Z</time>
      </trkpt>
      <trkpt lat="43.53108" lon="5.57999">
        <ele>933</ele>
        <time>2022-02-15T10:54:18.000Z</time>
      </trkpt>
      <trkpt lat="43.53108" lon="5.57999">
        <ele>933</ele>
        <time>2022-02-15T10:54:19.000Z</time>
      </trkpt>
      <trkpt lat="43.53108" lon="5.58">
        <ele>933</ele>
        <time>2022-02-15T10:54:20.000Z</time>
      </trkpt>
      <trkpt lat="43.53107" lon="5.58001">
        <ele>933</ele>
        <time>2022-02-15T10:54:21.000Z</time>
      </trkpt>
      <trkpt lat="43.53107" lon="5.58001">
        <ele>933</ele>
        <time>2022-02-15T10:54:22.000Z</time>
      </trkpt>
      <trkpt lat="43.53107" lon="5.58002">
        <ele>934</ele>
        <time>2022-02-15T10:54:23.000Z</time>
      </trkpt>
      <trkpt lat="43.53106" lon="5.58003">
        <ele>934</ele>
        <time>2022-02-15T10:54:24.000Z</time>
      </trkpt>
      <trkpt lat="43.53106" lon="5.58003">
        <ele>934</ele>
        <time>2022-02-15T10:54:25.000Z</time>
      </trkpt>
      <trkpt lat="43.53106" lon="5.58005">
        <ele>934</ele>
        <time>2022-02-15T10:54:26.000Z</time>
      </trkpt>
      <trkpt lat="43.53106" lon="5.58006">
        <ele>934</ele>
        <time>2022-02-15T10:54:27.000Z</time>
      </trkpt>
      <trkpt lat="43.53105" lon="5.58007">
        <ele>934</ele>
        <time>2022-02-15T10:54:28.000Z</time>
      </trkpt>
      <trkpt lat="43.53105" lon="5.58008">
        <ele>934</ele>
        <time>2022-02-15T10:54:29.000Z</time>
      </trkpt>
      <trkpt lat="43.53105" lon="5.58009">
        <ele>934</ele>
        <time>2022-02-15T10:54:30.000Z</time>
      </trkpt>
      <trkpt lat="43.53105" lon="5.5801">
        <ele>934</ele>
        <time>2022-02-15T10:54:31.000Z</time>
      </trkpt>
      <trkpt lat="43.53104" lon="5.58011">
        <ele>934</ele>
        <time>2022-02-15T10:54:32.000Z</time>
      </trkpt>
      <trkpt lat="43.53104" lon="5.58012">
        <ele>934</ele>
        <time>2022-02-15T10:54:33.000Z</time>
      </trkpt>
      <trkpt lat="43.53104" lon="5.58013">
        <ele>934</ele>
        <time>2022-02-15T10:54:34.000Z</time>
      </trkpt>
      <trkpt lat="43.53103" lon="5.58014">
        <ele>934</ele>
        <time>2022-02-15T10:54:35.000Z</time>
      </trkpt>
      <trkpt lat="43.53103" lon="5.58015">
        <ele>934</ele>
        <time>2022-02-15T10:54:36.000Z</time>
      </trkpt>
      <trkpt lat="43.53103" lon="5.58016">
        <ele>934</ele>
        <time>2022-02-15T10:54:37.000Z</time>
      </trkpt>
      <trkpt lat="43.53103" lon="5.58017">
        <ele>934</ele>
        <time>2022-02-15T10:54:38.000Z</time>
      </trkpt>
      <trkpt lat="43.53103" lon="5.58018">
        <ele>934</ele>
        <time>2022-02-15T10:54:39.000Z</time>
      </trkpt>
      <trkpt lat="43.53103" lon="5.58018">
        <ele>934</ele>
        <time>2022-02-15T10:54:40.000Z</time>
      </trkpt>
      <trkpt lat="43.53102" lon="5.58018">
        <ele>934</ele>
        <time>2022-02-15T10:54:41.000Z</time>
      </trkpt>
      <trkpt lat="43.53102" lon="5.58019">
        <ele>934</ele>
        <time>2022-02-15T10:54:42.000Z</time>
      </trkpt>
      <trkpt lat="43.53102" lon="5.58019">
        <ele>934</ele>
        <time>2022-02-15T10:54:43.000Z</time>
      </trkpt>
      <trkpt lat="43.53102" lon="5.58019">
        <ele>934</ele>
        <time>2022-02-15T10:54:44.000Z</time>
      </trkpt>
      <trkpt lat="43.53101" lon="5.5802">
        <ele>934</ele>
        <time>2022-02-15T10:54:45.000Z</time>
      </trkpt>
      <trkpt lat="43.53101" lon="5.58019">
        <ele>934</ele>
        <time>2022-02-15T10:54:46.000Z</time>
      </trkpt>
      <trkpt lat="43.53101" lon="5.58018">
        <ele>934</ele>
        <time>2022-02-15T10:54:47.000Z</time>
      </trkpt>
      <trkpt lat="43.531" lon="5.58018">
        <ele>934</ele>
        <time>2022-02-15T10:54:48.000Z</time>
      </trkpt>
      <trkpt lat="43.531" lon="5.58017">
        <ele>935</ele>
        <time>2022-02-15T10:54:49.000Z</time>
      </trkpt>
      <trkpt lat="43.531" lon="5.58016">
        <ele>935</ele>
        <time>2022-02-15T10:54:50.000Z</time>
      </trkpt>
      <trkpt lat="43.531" lon="5.58016">
        <ele>935</ele>
        <time>2022-02-15T10:54:51.000Z</time>
      </trkpt>
      <trkpt lat="43.531" lon="5.58015">
        <ele>935</ele>
        <time>2022-02-15T10:54:52.000Z</time>
      </trkpt>
      <trkpt lat="43.531" lon="5.58015">
        <ele>935</ele>
        <time>2022-02-15T10:54:53.000Z</time>
      </trkpt>
      <trkpt lat="43.53099" lon="5.58015">
        <ele>935</ele>
        <time>2022-02-15T10:54:54.000Z</time>
      </trkpt>
      <trkpt lat="43.53099" lon="5.58014">
        <ele>935</ele>
        <time>2022-02-15T10:54:55.000Z</time>
      </trkpt>
      <trkpt lat="43.53099" lon="5.58014">
        <ele>935</ele>
        <time>2022-02-15T10:54:56.000Z</time>
      </trkpt>
      <trkpt lat="43.53099" lon="5.58014">
        <ele>935</ele>
        <time>2022-02-15T10:54:57.000Z</time>
      </trkpt>
      <trkpt lat="43.53099" lon="5.58014">
        <ele>935</ele>
        <time>2022-02-15T10:54:58.000Z</time>
      </trkpt>
      <trkpt lat="43.53099" lon="5.58015">
        <ele>935</ele>
        <time>2022-02-15T10:54:59.000Z</time>
      </trkpt>
      <trkpt lat="43.53098" lon="5.58015">
        <ele>935</ele>
        <time>2022-02-15T10:55:00.000Z</time>
      </trkpt>
      <trkpt lat="43.53098" lon="5.58015">
        <ele>935</ele>
        <time>2022-02-15T10:55:01.000Z</time>
      </trkpt>
      <trkpt lat="43.53097" lon="5.58015">
        <ele>936</ele>
        <time>2022-02-15T10:55:02.000Z</time>
      </trkpt>
      <trkpt lat="43.53097" lon="5.58016">
        <ele>936</ele>
        <time>2022-02-15T10:55:03.000Z</time>
      </trkpt>
      <trkpt lat="43.53097" lon="5.58016">
        <ele>936</ele>
        <time>2022-02-15T10:55:04.000Z</time>
      </trkpt>
      <trkpt lat="43.53096" lon="5.58017">
        <ele>936</ele>
        <time>2022-02-15T10:55:05.000Z</time>
      </trkpt>
      <trkpt lat="43.53096" lon="5.58017">
        <ele>936</ele>
        <time>2022-02-15T10:55:06.000Z</time>
      </trkpt>
      <trkpt lat="43.53095" lon="5.58017">
        <ele>936</ele>
        <time>2022-02-15T10:55:07.000Z</time>
      </trkpt>
      <trkpt lat="43.53095" lon="5.58017">
        <ele>936</ele>
        <time>2022-02-15T10:55:08.000Z</time>
      </trkpt>
      <trkpt lat="43.53094" lon="5.58017">
        <ele>937</ele>
        <time>2022-02-15T10:55:09.000Z</time>
      </trkpt>
      <trkpt lat="43.53094" lon="5.58017">
        <ele>937</ele>
        <time>2022-02-15T10:55:10.000Z</time>
      </trkpt>
      <trkpt lat="43.53094" lon="5.58017">
        <ele>937</ele>
        <time>2022-02-15T10:55:11.000Z</time>
      </trkpt>
      <trkpt lat="43.53094" lon="5.58018">
        <ele>937</ele>
        <time>2022-02-15T10:55:12.000Z</time>
      </trkpt>
      <trkpt lat="43.53093" lon="5.58018">
        <ele>937</ele>
        <time>2022-02-15T10:55:13.000Z</time>
      </trkpt>
      <trkpt lat="43.53093" lon="5.58019">
        <ele>937</ele>
        <time>2022-02-15T10:55:14.000Z</time>
      </trkpt>
      <trkpt lat="43.53092" lon="5.58019">
        <ele>937</ele>
        <time>2022-02-15T10:55:15.000Z</time>
      </trkpt>
      <trkpt lat="43.53091" lon="5.5802">
        <ele>937</ele>
        <time>2022-02-15T10:55:16.000Z</time>
      </trkpt>
      <trkpt lat="43.53091" lon="5.5802">
        <ele>938</ele>
        <time>2022-02-15T10:55:17.000Z</time>
      </trkpt>
      <trkpt lat="43.5309" lon="5.5802">
        <ele>938</ele>
        <time>2022-02-15T10:55:18.000Z</time>
      </trkpt>
      <trkpt lat="43.5309" lon="5.5802">
        <ele>938</ele>
        <time>2022-02-15T10:55:19.000Z</time>
      </trkpt>
      <trkpt lat="43.53089" lon="5.5802">
        <ele>938</ele>
        <time>2022-02-15T10:55:20.000Z</time>
      </trkpt>
      <trkpt lat="43.53089" lon="5.5802">
        <ele>938</ele>
        <time>2022-02-15T10:55:21.000Z</time>
      </trkpt>
      <trkpt lat="43.53089" lon="5.5802">
        <ele>938</ele>
        <time>2022-02-15T10:55:22.000Z</time>
      </trkpt>
      <trkpt lat="43.53089" lon="5.5802">
        <ele>938</ele>
        <time>2022-02-15T10:55:23.000Z</time>
      </trkpt>
      <trkpt lat="43.53089" lon="5.58019">
        <ele>938</ele>
        <time>2022-02-15T10:55:24.000Z</time>
      </trkpt>
      <trkpt lat="43.53089" lon="5.58019">
        <ele>939</ele>
        <time>2022-02-15T10:55:25.000Z</time>
      </trkpt>
      <trkpt lat="43.53089" lon="5.58018">
        <ele>939</ele>
        <time>2022-02-15T10:55:26.000Z</time>
      </trkpt>
      <trkpt lat="43.53089" lon="5.58018">
        <ele>939</ele>
        <time>2022-02-15T10:55:27.000Z</time>
      </trkpt>
      <trkpt lat="43.53089" lon="5.58018">
        <ele>939</ele>
        <time>2022-02-15T10:55:28.000Z</time>
      </trkpt>
      <trkpt lat="43.53089" lon="5.58018">
        <ele>939</ele>
        <time>2022-02-15T10:55:29.000Z</time>
      </trkpt>
      <trkpt lat="43.53089" lon="5.58018">
        <ele>939</ele>
        <time>2022-02-15T10:55:30.000Z</time>
      </trkpt>
      <trkpt lat="43.53089" lon="5.58018">
        <ele>939</ele>
        <time>2022-02-15T10:55:31.000Z</time>
      </trkpt>
      <trkpt lat="43.53089" lon="5.58018">
        <ele>940</ele>
        <time>2022-02-15T10:55:32.000Z</time>
      </trkpt>
      <trkpt lat="43.53089" lon="5.58018">
        <ele>940</ele>
        <time>2022-02-15T10:55:33.000Z</time>
      </trkpt>
      <trkpt lat="43.53089" lon="5.58018">
        <ele>940</ele>
        <time>2022-02-15T10:55:34.000Z</time>
      </trkpt>
      <trkpt lat="43.53089" lon="5.58018">
        <ele>940</ele>
        <time>2022-02-15T10:55:35.000Z</time>
      </trkpt>
      <trkpt lat="43.53089" lon="5.58017">
        <ele>940</ele>
        <time>2022-02-15T10:55:36.000Z</time>
      </trkpt>
      <trkpt lat="43.53088" lon="5.58017">
        <ele>941</ele>
        <time>2022-02-15T10:55:37.000Z</time>
      </trkpt>
      <trkpt lat="43.53088" lon="5.58017">
        <ele>941</ele>
        <time>2022-02-15T10:55:38.000Z</time>
      </trkpt>
      <trkpt lat="43.53087" lon="5.58017">
        <ele>941</ele>
        <time>2022-02-15T10:55:39.000Z</time>
      </trkpt>
      <trkpt lat="43.53087" lon="5.58017">
        <ele>941</ele>
        <time>2022-02-15T10:55:40.000Z</time>
      </trkpt>
      <trkpt lat="43.53087" lon="5.58017">
        <ele>941</ele>
        <time>2022-02-15T10:55:41.000Z</time>
      </trkpt>
      <trkpt lat="43.53087" lon="5.58016">
        <ele>942</ele>
        <time>2022-02-15T10:55:42.000Z</time>
      </trkpt>
      <trkpt lat="43.53087" lon="5.58016">
        <ele>942</ele>
        <time>2022-02-15T10:55:43.000Z</time>
      </trkpt>
      <trkpt lat="43.53088" lon="5.58015">
        <ele>942</ele>
        <time>2022-02-15T10:55:44.000Z</time>
      </trkpt>
      <trkpt lat="43.53088" lon="5.58015">
        <ele>942</ele>
        <time>2022-02-15T10:55:45.000Z</time>
      </trkpt>
      <trkpt lat="43.53087" lon="5.58013">
        <ele>942</ele>
        <time>2022-02-15T10:55:46.000Z</time>
      </trkpt>
      <trkpt lat="43.53087" lon="5.58013">
        <ele>942</ele>
        <time>2022-02-15T10:55:47.000Z</time>
      </trkpt>
      <trkpt lat="43.53087" lon="5.58013">
        <ele>942</ele>
        <time>2022-02-15T10:55:48.000Z</time>
      </trkpt>
      <trkpt lat="43.53087" lon="5.58012">
        <ele>943</ele>
        <time>2022-02-15T10:55:49.000Z</time>
      </trkpt>
      <trkpt lat="43.53087" lon="5.58011">
        <ele>943</ele>
        <time>2022-02-15T10:55:50.000Z</time>
      </trkpt>
      <trkpt lat="43.53087" lon="5.58011">
        <ele>943</ele>
        <time>2022-02-15T10:55:51.000Z</time>
      </trkpt>
      <trkpt lat="43.53087" lon="5.58011">
        <ele>943</ele>
        <time>2022-02-15T10:55:52.000Z</time>
      </trkpt>
      <trkpt lat="43.53087" lon="5.58011">
        <ele>943</ele>
        <time>2022-02-15T10:55:53.000Z</time>
      </trkpt>
      <trkpt lat="43.53087" lon="5.58011">
        <ele>943</ele>
        <time>2022-02-15T10:55:54.000Z</time>
      </trkpt>
      <trkpt lat="43.53087" lon="5.58011">
        <ele>943</ele>
        <time>2022-02-15T10:55:55.000Z</time>
      </trkpt>
      <trkpt lat="43.53087" lon="5.58011">
        <ele>943</ele>
        <time>2022-02-15T10:55:56.000Z</time>
      </trkpt>
      <trkpt lat="43.53087" lon="5.58011">
        <ele>943</ele>
        <time>2022-02-15T10:55:57.000Z</time>
      </trkpt>
      <trkpt lat="43.53087" lon="5.58011">
        <ele>943</ele>
        <time>2022-02-15T10:55:58.000Z</time>
      </trkpt>
      <trkpt lat="43.53086" lon="5.58011">
        <ele>943</ele>
        <time>2022-02-15T10:55:59.000Z</time>
      </trkpt>
      <trkpt lat="43.53086" lon="5.5801">
        <ele>943</ele>
        <time>2022-02-15T10:56:00.000Z</time>
      </trkpt>
      <trkpt lat="43.53086" lon="5.5801">
        <ele>943</ele>
        <time>2022-02-15T10:56:01.000Z</time>
      </trkpt>
      <trkpt lat="43.53086" lon="5.5801">
        <ele>943</ele>
        <time>2022-02-15T10:56:02.000Z</time>
      </trkpt>
      <trkpt lat="43.53086" lon="5.5801">
        <ele>944</ele>
        <time>2022-02-15T10:56:03.000Z</time>
      </trkpt>
      <trkpt lat="43.53087" lon="5.5801">
        <ele>944</ele>
        <time>2022-02-15T10:56:04.000Z</time>
      </trkpt>
      <trkpt lat="43.53087" lon="5.5801">
        <ele>944</ele>
        <time>2022-02-15T10:56:05.000Z</time>
      </trkpt>
      <trkpt lat="43.53087" lon="5.5801">
        <ele>944</ele>
        <time>2022-02-15T10:56:06.000Z</time>
      </trkpt>
      <trkpt lat="43.53087" lon="5.5801">
        <ele>944</ele>
        <time>2022-02-15T10:56:07.000Z</time>
      </trkpt>
      <trkpt lat="43.53087" lon="5.5801">
        <ele>944</ele>
        <time>2022-02-15T10:56:08.000Z</time>
      </trkpt>
      <trkpt lat="43.53087" lon="5.5801">
        <ele>944</ele>
        <time>2022-02-15T10:56:09.000Z</time>
      </trkpt>
      <trkpt lat="43.53087" lon="5.5801">
        <ele>944</ele>
        <time>2022-02-15T10:56:10.000Z</time>
      </trkpt>
      <trkpt lat="43.53087" lon="5.5801">
        <ele>944</ele>
        <time>2022-02-15T10:56:11.000Z</time>
      </trkpt>
      <trkpt lat="43.53087" lon="5.5801">
        <ele>944</ele>
        <time>2022-02-15T10:56:12.000Z</time>
      </trkpt>
      <trkpt lat="43.53087" lon="5.5801">
        <ele>944</ele>
        <time>2022-02-15T10:56:13.000Z</time>
      </trkpt>
      <trkpt lat="43.53087" lon="5.5801">
        <ele>944</ele>
        <time>2022-02-15T10:56:14.000Z</time>
      </trkpt>
      <trkpt lat="43.53087" lon="5.5801">
        <ele>944</ele>
        <time>2022-02-15T10:56:15.000Z</time>
      </trkpt>
      <trkpt lat="43.53087" lon="5.5801">
        <ele>944</ele>
        <time>2022-02-15T10:56:16.000Z</time>
      </trkpt>
      <trkpt lat="43.53086" lon="5.5801">
        <ele>944</ele>
        <time>2022-02-15T10:56:17.000Z</time>
      </trkpt>
      <trkpt lat="43.53086" lon="5.58009">
        <ele>944</ele>
        <time>2022-02-15T10:56:18.000Z</time>
      </trkpt>
      <trkpt lat="43.53086" lon="5.58009">
        <ele>944</ele>
        <time>2022-02-15T10:56:19.000Z</time>
      </trkpt>
      <trkpt lat="43.53086" lon="5.58009">
        <ele>944</ele>
        <time>2022-02-15T10:56:20.000Z</time>
      </trkpt>
      <trkpt lat="43.53086" lon="5.58009">
        <ele>944</ele>
        <time>2022-02-15T10:56:21.000Z</time>
      </trkpt>
      <trkpt lat="43.53086" lon="5.58009">
        <ele>944</ele>
        <time>2022-02-15T10:56:22.000Z</time>
      </trkpt>
      <trkpt lat="43.53086" lon="5.5801">
        <ele>944</ele>
        <time>2022-02-15T10:56:23.000Z</time>
      </trkpt>
      <trkpt lat="43.53086" lon="5.5801">
        <ele>944</ele>
        <time>2022-02-15T10:56:24.000Z</time>
      </trkpt>
      <trkpt lat="43.53086" lon="5.5801">
        <ele>944</ele>
        <time>2022-02-15T10:56:25.000Z</time>
      </trkpt>
      <trkpt lat="43.53086" lon="5.5801">
        <ele>944</ele>
        <time>2022-02-15T10:56:26.000Z</time>
      </trkpt>
      <trkpt lat="43.53086" lon="5.5801">
        <ele>944</ele>
        <time>2022-02-15T10:56:27.000Z</time>
      </trkpt>
      <trkpt lat="43.53086" lon="5.58009">
        <ele>944</ele>
        <time>2022-02-15T10:56:28.000Z</time>
      </trkpt>
      <trkpt lat="43.53086" lon="5.58009">
        <ele>944</ele>
        <time>2022-02-15T10:56:29.000Z</time>
      </trkpt>
      <trkpt lat="43.53087" lon="5.58009">
        <ele>944</ele>
        <time>2022-02-15T10:56:30.000Z</time>
      </trkpt>
      <trkpt lat="43.53087" lon="5.58008">
        <ele>944</ele>
        <time>2022-02-15T10:56:31.000Z</time>
      </trkpt>
      <trkpt lat="43.53087" lon="5.58008">
        <ele>944</ele>
        <time>2022-02-15T10:56:32.000Z</time>
      </trkpt>
      <trkpt lat="43.53087" lon="5.58008">
        <ele>945</ele>
        <time>2022-02-15T10:56:33.000Z</time>
      </trkpt>
      <trkpt lat="43.53087" lon="5.58008">
        <ele>945</ele>
        <time>2022-02-15T10:56:34.000Z</time>
      </trkpt>
      <trkpt lat="43.53087" lon="5.58008">
        <ele>945</ele>
        <time>2022-02-15T10:56:35.000Z</time>
      </trkpt>
      <trkpt lat="43.53087" lon="5.58008">
        <ele>945</ele>
        <time>2022-02-15T10:56:36.000Z</time>
      </trkpt>
      <trkpt lat="43.53087" lon="5.58008">
        <ele>945</ele>
        <time>2022-02-15T10:56:37.000Z</time>
      </trkpt>
      <trkpt lat="43.53087" lon="5.58008">
        <ele>945</ele>
        <time>2022-02-15T10:56:38.000Z</time>
      </trkpt>
      <trkpt lat="43.53087" lon="5.58008">
        <ele>945</ele>
        <time>2022-02-15T10:56:39.000Z</time>
      </trkpt>
      <trkpt lat="43.53087" lon="5.58008">
        <ele>945</ele>
        <time>2022-02-15T10:56:40.000Z</time>
      </trkpt>
      <trkpt lat="43.53087" lon="5.58008">
        <ele>945</ele>
        <time>2022-02-15T10:56:41.000Z</time>
      </trkpt>
      <trkpt lat="43.53087" lon="5.58008">
        <ele>945</ele>
        <time>2022-02-15T10:56:42.000Z</time>
      </trkpt>
      <trkpt lat="43.53087" lon="5.58008">
        <ele>945</ele>
        <time>2022-02-15T10:56:43.000Z</time>
      </trkpt>
      <trkpt lat="43.53087" lon="5.58008">
        <ele>945</ele>
        <time>2022-02-15T10:56:44.000Z</time>
      </trkpt>
      <trkpt lat="43.53087" lon="5.58008">
        <ele>945</ele>
        <time>2022-02-15T10:56:45.000Z</time>
      </trkpt>
      <trkpt lat="43.53087" lon="5.58008">
        <ele>945</ele>
        <time>2022-02-15T10:56:46.000Z</time>
      </trkpt>
      <trkpt lat="43.53087" lon="5.58008">
        <ele>945</ele>
        <time>2022-02-15T10:56:47.000Z</time>
      </trkpt>
      <trkpt lat="43.53087" lon="5.58008">
        <ele>945</ele>
        <time>2022-02-15T10:56:48.000Z</time>
      </trkpt>
      <trkpt lat="43.53087" lon="5.58008">
        <ele>945</ele>
        <time>2022-02-15T10:56:49.000Z</time>
      </trkpt>
      <trkpt lat="43.53087" lon="5.58008">
        <ele>945</ele>
        <time>2022-02-15T10:56:50.000Z</time>
      </trkpt>
      <trkpt lat="43.53087" lon="5.58008">
        <ele>945</ele>
        <time>2022-02-15T10:56:51.000Z</time>
      </trkpt>
      <trkpt lat="43.53087" lon="5.58008">
        <ele>945</ele>
        <time>2022-02-15T10:56:52.000Z</time>
      </trkpt>
      <trkpt lat="43.53087" lon="5.58008">
        <ele>945</ele>
        <time>2022-02-15T10:56:53.000Z</time>
      </trkpt>
      <trkpt lat="43.53087" lon="5.58008">
        <ele>945</ele>
        <time>2022-02-15T10:56:54.000Z</time>
      </trkpt>
      <trkpt lat="43.53087" lon="5.58008">
        <ele>945</ele>
        <time>2022-02-15T10:56:55.000Z</time>
      </trkpt>
      <trkpt lat="43.53087" lon="5.58008">
        <ele>945</ele>
        <time>2022-02-15T10:56:56.000Z</time>
      </trkpt>
      <trkpt lat="43.53087" lon="5.58008">
        <ele>945</ele>
        <time>2022-02-15T10:56:57.000Z</time>
      </trkpt>
      <trkpt lat="43.53087" lon="5.58008">
        <ele>945</ele>
        <time>2022-02-15T10:56:58.000Z</time>
      </trkpt>
      <trkpt lat="43.53087" lon="5.58008">
        <ele>945</ele>
        <time>2022-02-15T10:56:59.000Z</time>
      </trkpt>
      <trkpt lat="43.53088" lon="5.58008">
        <ele>945</ele>
        <time>2022-02-15T10:57:00.000Z</time>
      </trkpt>
      <trkpt lat="43.53088" lon="5.58008">
        <ele>945</ele>
        <time>2022-02-15T10:57:01.000Z</time>
      </trkpt>
      <trkpt lat="43.53088" lon="5.58008">
        <ele>945</ele>
        <time>2022-02-15T10:57:02.000Z</time>
      </trkpt>
      <trkpt lat="43.53088" lon="5.58008">
        <ele>945</ele>
        <time>2022-02-15T10:57:03.000Z</time>
      </trkpt>
      <trkpt lat="43.53088" lon="5.58008">
        <ele>945</ele>
        <time>2022-02-15T10:57:04.000Z</time>
      </trkpt>
      <trkpt lat="43.53088" lon="5.58008">
        <ele>945</ele>
        <time>2022-02-15T10:57:05.000Z</time>
      </trkpt>
      <trkpt lat="43.53088" lon="5.58008">
        <ele>945</ele>
        <time>2022-02-15T10:57:06.000Z</time>
      </trkpt>
      <trkpt lat="43.53088" lon="5.58008">
        <ele>945</ele>
        <time>2022-02-15T10:57:07.000Z</time>
      </trkpt>
      <trkpt lat="43.53088" lon="5.58008">
        <ele>945</ele>
        <time>2022-02-15T10:57:08.000Z</time>
      </trkpt>
      <trkpt lat="43.53088" lon="5.58008">
        <ele>945</ele>
        <time>2022-02-15T10:57:09.000Z</time>
      </trkpt>
      <trkpt lat="43.53088" lon="5.58008">
        <ele>945</ele>
        <time>2022-02-15T10:57:10.000Z</time>
      </trkpt>
      <trkpt lat="43.53088" lon="5.58008">
        <ele>945</ele>
        <time>2022-02-15T10:57:11.000Z</time>
      </trkpt>
      <trkpt lat="43.53088" lon="5.58008">
        <ele>945</ele>
        <time>2022-02-15T10:57:12.000Z</time>
      </trkpt>
      <trkpt lat="43.53088" lon="5.58008">
        <ele>945</ele>
        <time>2022-02-15T10:57:13.000Z</time>
      </trkpt>
      <trkpt lat="43.53088" lon="5.58008">
        <ele>945</ele>
        <time>2022-02-15T10:57:14.000Z</time>
      </trkpt>
      <trkpt lat="43.53088" lon="5.58008">
        <ele>945</ele>
        <time>2022-02-15T10:57:15.000Z</time>
      </trkpt>
      <trkpt lat="43.53088" lon="5.58008">
        <ele>945</ele>
        <time>2022-02-15T10:57:16.000Z</time>
      </trkpt>
      <trkpt lat="43.53088" lon="5.58008">
        <ele>945</ele>
        <time>2022-02-15T10:57:17.000Z</time>
      </trkpt>
      <trkpt lat="43.53088" lon="5.58008">
        <ele>945</ele>
        <time>2022-02-15T10:57:18.000Z</time>
      </trkpt>
      <trkpt lat="43.53088" lon="5.58008">
        <ele>945</ele>
        <time>2022-02-15T10:57:19.000Z</time>
      </trkpt>
      <trkpt lat="43.53088" lon="5.58008">
        <ele>945</ele>
        <time>2022-02-15T10:57:20.000Z</time>
      </trkpt>
      <trkpt lat="43.53088" lon="5.58008">
        <ele>945</ele>
        <time>2022-02-15T10:57:21.000Z</time>
      </trkpt>
      <trkpt lat="43.53088" lon="5.58009">
        <ele>945</ele>
        <time>2022-02-15T10:57:22.000Z</time>
      </trkpt>
      <trkpt lat="43.53088" lon="5.58009">
        <ele>945</ele>
        <time>2022-02-15T10:57:23.000Z</time>
      </trkpt>
      <trkpt lat="43.53088" lon="5.58009">
        <ele>945</ele>
        <time>2022-02-15T10:57:24.000Z</time>
      </trkpt>
      <trkpt lat="43.53088" lon="5.58009">
        <ele>945</ele>
        <time>2022-02-15T10:57:25.000Z</time>
      </trkpt>
      <trkpt lat="43.53088" lon="5.58009">
        <ele>945</ele>
        <time>2022-02-15T10:57:26.000Z</time>
      </trkpt>
      <trkpt lat="43.53088" lon="5.58009">
        <ele>945</ele>
        <time>2022-02-15T10:57:27.000Z</time>
      </trkpt>
      <trkpt lat="43.53088" lon="5.58009">
        <ele>945</ele>
        <time>2022-02-15T10:57:28.000Z</time>
      </trkpt>
      <trkpt lat="43.53088" lon="5.58009">
        <ele>945</ele>
        <time>2022-02-15T10:57:29.000Z</time>
      </trkpt>
      <trkpt lat="43.53088" lon="5.58009">
        <ele>945</ele>
        <time>2022-02-15T10:57:30.000Z</time>
      </trkpt>
      <trkpt lat="43.53088" lon="5.58009">
        <ele>945</ele>
        <time>2022-02-15T10:57:31.000Z</time>
      </trkpt>
      <trkpt lat="43.53088" lon="5.58008">
        <ele>945</ele>
        <time>2022-02-15T10:57:32.000Z</time>
      </trkpt>
      <trkpt lat="43.53088" lon="5.58008">
        <ele>945</ele>
        <time>2022-02-15T10:57:33.000Z</time>
      </trkpt>
      <trkpt lat="43.53088" lon="5.58008">
        <ele>945</ele>
        <time>2022-02-15T10:57:34.000Z</time>
      </trkpt>
      <trkpt lat="43.53088" lon="5.58008">
        <ele>945</ele>
        <time>2022-02-15T10:57:35.000Z</time>
      </trkpt>
      <trkpt lat="43.53088" lon="5.58008">
        <ele>945</ele>
        <time>2022-02-15T10:57:36.000Z</time>
      </trkpt>
      <trkpt lat="43.53088" lon="5.58008">
        <ele>945</ele>
        <time>2022-02-15T10:57:37.000Z</time>
      </trkpt>
      <trkpt lat="43.53088" lon="5.58008">
        <ele>945</ele>
        <time>2022-02-15T10:57:38.000Z</time>
      </trkpt>
      <trkpt lat="43.53088" lon="5.58008">
        <ele>945</ele>
        <time>2022-02-15T10:57:39.000Z</time>
      </trkpt>
      <trkpt lat="43.53088" lon="5.58008">
        <ele>945</ele>
        <time>2022-02-15T10:57:40.000Z</time>
      </trkpt>
      <trkpt lat="43.53088" lon="5.58008">
        <ele>945</ele>
        <time>2022-02-15T10:57:41.000Z</time>
      </trkpt>
      <trkpt lat="43.53088" lon="5.58008">
        <ele>945</ele>
        <time>2022-02-15T10:57:42.000Z</time>
      </trkpt>
      <trkpt lat="43.53088" lon="5.58008">
        <ele>945</ele>
        <time>2022-02-15T10:57:43.000Z</time>
      </trkpt>
      <trkpt lat="43.53088" lon="5.58008">
        <ele>945</ele>
        <time>2022-02-15T10:57:44.000Z</time>
      </trkpt>
      <trkpt lat="43.53088" lon="5.58008">
        <ele>945</ele>
        <time>2022-02-15T10:57:45.000Z</time>
      </trkpt>
      <trkpt lat="43.53088" lon="5.58008">
        <ele>945</ele>
        <time>2022-02-15T10:57:46.000Z</time>
      </trkpt>
      <trkpt lat="43.53088" lon="5.58008">
        <ele>945</ele>
        <time>2022-02-15T10:57:47.000Z</time>
      </trkpt>
      <trkpt lat="43.53088" lon="5.58007">
        <ele>945</ele>
        <time>2022-02-15T10:57:48.000Z</time>
      </trkpt>
      <trkpt lat="43.53088" lon="5.58006">
        <ele>945</ele>
        <time>2022-02-15T10:57:49.000Z</time>
      </trkpt>
      <trkpt lat="43.53088" lon="5.58006">
        <ele>945</ele>
        <time>2022-02-15T10:57:50.000Z</time>
      </trkpt>
      <trkpt lat="43.53089" lon="5.58005">
        <ele>945</ele>
        <time>2022-02-15T10:57:51.000Z</time>
      </trkpt>
      <trkpt lat="43.53089" lon="5.58004">
        <ele>945</ele>
        <time>2022-02-15T10:57:52.000Z</time>
      </trkpt>
      <trkpt lat="43.53089" lon="5.58004">
        <ele>945</ele>
        <time>2022-02-15T10:57:53.000Z</time>
      </trkpt>
      <trkpt lat="43.5309" lon="5.58003">
        <ele>945</ele>
        <time>2022-02-15T10:57:54.000Z</time>
      </trkpt>
      <trkpt lat="43.53091" lon="5.58002">
        <ele>945</ele>
        <time>2022-02-15T10:57:55.000Z</time>
      </trkpt>
      <trkpt lat="43.53091" lon="5.58001">
        <ele>945</ele>
        <time>2022-02-15T10:57:56.000Z</time>
      </trkpt>
      <trkpt lat="43.53092" lon="5.58001">
        <ele>945</ele>
        <time>2022-02-15T10:57:57.000Z</time>
      </trkpt>
      <trkpt lat="43.53092" lon="5.58">
        <ele>945</ele>
        <time>2022-02-15T10:57:58.000Z</time>
      </trkpt>
      <trkpt lat="43.53093" lon="5.57999">
        <ele>945</ele>
        <time>2022-02-15T10:57:59.000Z</time>
      </trkpt>
      <trkpt lat="43.53093" lon="5.57998">
        <ele>945</ele>
        <time>2022-02-15T10:58:00.000Z</time>
      </trkpt>
      <trkpt lat="43.53094" lon="5.57998">
        <ele>945</ele>
        <time>2022-02-15T10:58:01.000Z</time>
      </trkpt>
      <trkpt lat="43.53094" lon="5.57997">
        <ele>945</ele>
        <time>2022-02-15T10:58:02.000Z</time>
      </trkpt>
      <trkpt lat="43.53094" lon="5.57996">
        <ele>945</ele>
        <time>2022-02-15T10:58:03.000Z</time>
      </trkpt>
      <trkpt lat="43.53094" lon="5.57996">
        <ele>944</ele>
        <time>2022-02-15T10:58:04.000Z</time>
      </trkpt>
      <trkpt lat="43.53093" lon="5.57996">
        <ele>944</ele>
        <time>2022-02-15T10:58:05.000Z</time>
      </trkpt>
      <trkpt lat="43.53093" lon="5.57996">
        <ele>944</ele>
        <time>2022-02-15T10:58:06.000Z</time>
      </trkpt>
      <trkpt lat="43.53093" lon="5.57996">
        <ele>944</ele>
        <time>2022-02-15T10:58:07.000Z</time>
      </trkpt>
      <trkpt lat="43.53093" lon="5.57995">
        <ele>944</ele>
        <time>2022-02-15T10:58:08.000Z</time>
      </trkpt>
      <trkpt lat="43.53093" lon="5.57995">
        <ele>944</ele>
        <time>2022-02-15T10:58:09.000Z</time>
      </trkpt>
      <trkpt lat="43.53093" lon="5.57995">
        <ele>944</ele>
        <time>2022-02-15T10:58:10.000Z</time>
      </trkpt>
      <trkpt lat="43.53093" lon="5.57996">
        <ele>944</ele>
        <time>2022-02-15T10:58:11.000Z</time>
      </trkpt>
      <trkpt lat="43.53093" lon="5.57996">
        <ele>943</ele>
        <time>2022-02-15T10:58:12.000Z</time>
      </trkpt>
      <trkpt lat="43.53093" lon="5.57996">
        <ele>943</ele>
        <time>2022-02-15T10:58:13.000Z</time>
      </trkpt>
      <trkpt lat="43.53093" lon="5.57996">
        <ele>943</ele>
        <time>2022-02-15T10:58:14.000Z</time>
      </trkpt>
      <trkpt lat="43.53093" lon="5.57996">
        <ele>943</ele>
        <time>2022-02-15T10:58:15.000Z</time>
      </trkpt>
      <trkpt lat="43.53093" lon="5.57995">
        <ele>943</ele>
        <time>2022-02-15T10:58:16.000Z</time>
      </trkpt>
      <trkpt lat="43.53093" lon="5.57995">
        <ele>943</ele>
        <time>2022-02-15T10:58:17.000Z</time>
      </trkpt>
      <trkpt lat="43.53093" lon="5.57995">
        <ele>943</ele>
        <time>2022-02-15T10:58:18.000Z</time>
      </trkpt>
      <trkpt lat="43.53093" lon="5.57995">
        <ele>943</ele>
        <time>2022-02-15T10:58:19.000Z</time>
      </trkpt>
      <trkpt lat="43.53093" lon="5.57995">
        <ele>943</ele>
        <time>2022-02-15T10:58:20.000Z</time>
      </trkpt>
      <trkpt lat="43.53093" lon="5.57995">
        <ele>943</ele>
        <time>2022-02-15T10:58:21.000Z</time>
      </trkpt>
      <trkpt lat="43.53092" lon="5.57995">
        <ele>943</ele>
        <time>2022-02-15T10:58:22.000Z</time>
      </trkpt>
      <trkpt lat="43.53092" lon="5.57995">
        <ele>943</ele>
        <time>2022-02-15T10:58:23.000Z</time>
      </trkpt>
      <trkpt lat="43.53092" lon="5.57995">
        <ele>943</ele>
        <time>2022-02-15T10:58:24.000Z</time>
      </trkpt>
      <trkpt lat="43.53092" lon="5.57995">
        <ele>943</ele>
        <time>2022-02-15T10:58:25.000Z</time>
      </trkpt>
      <trkpt lat="43.53092" lon="5.57995">
        <ele>943</ele>
        <time>2022-02-15T10:58:26.000Z</time>
      </trkpt>
      <trkpt lat="43.53092" lon="5.57995">
        <ele>943</ele>
        <time>2022-02-15T10:58:27.000Z</time>
      </trkpt>
      <trkpt lat="43.53092" lon="5.57995">
        <ele>943</ele>
        <time>2022-02-15T10:58:28.000Z</time>
      </trkpt>
      <trkpt lat="43.53092" lon="5.57995">
        <ele>943</ele>
        <time>2022-02-15T10:58:29.000Z</time>
      </trkpt>
      <trkpt lat="43.53092" lon="5.57995">
        <ele>943</ele>
        <time>2022-02-15T10:58:30.000Z</time>
      </trkpt>
      <trkpt lat="43.53092" lon="5.57995">
        <ele>943</ele>
        <time>2022-02-15T10:58:31.000Z</time>
      </trkpt>
      <trkpt lat="43.53092" lon="5.57995">
        <ele>943</ele>
        <time>2022-02-15T10:58:32.000Z</time>
      </trkpt>
      <trkpt lat="43.53092" lon="5.57995">
        <ele>943</ele>
        <time>2022-02-15T10:58:33.000Z</time>
      </trkpt>
      <trkpt lat="43.53092" lon="5.57995">
        <ele>943</ele>
        <time>2022-02-15T10:58:34.000Z</time>
      </trkpt>
      <trkpt lat="43.53092" lon="5.57995">
        <ele>943</ele>
        <time>2022-02-15T10:58:35.000Z</time>
      </trkpt>
      <trkpt lat="43.53092" lon="5.57995">
        <ele>943</ele>
        <time>2022-02-15T10:58:36.000Z</time>
      </trkpt>
      <trkpt lat="43.53092" lon="5.57995">
        <ele>943</ele>
        <time>2022-02-15T10:58:37.000Z</time>
      </trkpt>
      <trkpt lat="43.53092" lon="5.57995">
        <ele>943</ele>
        <time>2022-02-15T10:58:38.000Z</time>
      </trkpt>
      <trkpt lat="43.53093" lon="5.57995">
        <ele>943</ele>
        <time>2022-02-15T10:58:39.000Z</time>
      </trkpt>
      <trkpt lat="43.53093" lon="5.57994">
        <ele>943</ele>
        <time>2022-02-15T10:58:40.000Z</time>
      </trkpt>
      <trkpt lat="43.53093" lon="5.57994">
        <ele>943</ele>
        <time>2022-02-15T10:58:41.000Z</time>
      </trkpt>
      <trkpt lat="43.53093" lon="5.57994">
        <ele>943</ele>
        <time>2022-02-15T10:58:42.000Z</time>
      </trkpt>
      <trkpt lat="43.53093" lon="5.57994">
        <ele>943</ele>
        <time>2022-02-15T10:58:43.000Z</time>
      </trkpt>
      <trkpt lat="43.53093" lon="5.57994">
        <ele>943</ele>
        <time>2022-02-15T10:58:44.000Z</time>
      </trkpt>
      <trkpt lat="43.53093" lon="5.57994">
        <ele>944</ele>
        <time>2022-02-15T10:58:45.000Z</time>
      </trkpt>
      <trkpt lat="43.53093" lon="5.57993">
        <ele>944</ele>
        <time>2022-02-15T10:58:46.000Z</time>
      </trkpt>
      <trkpt lat="43.53093" lon="5.57993">
        <ele>944</ele>
        <time>2022-02-15T10:58:47.000Z</time>
      </trkpt>
      <trkpt lat="43.53093" lon="5.57993">
        <ele>944</ele>
        <time>2022-02-15T10:58:48.000Z</time>
      </trkpt>
      <trkpt lat="43.53093" lon="5.57993">
        <ele>944</ele>
        <time>2022-02-15T10:58:49.000Z</time>
      </trkpt>
      <trkpt lat="43.53093" lon="5.57993">
        <ele>944</ele>
        <time>2022-02-15T10:58:50.000Z</time>
      </trkpt>
      <trkpt lat="43.53093" lon="5.57993">
        <ele>944</ele>
        <time>2022-02-15T10:58:51.000Z</time>
      </trkpt>
      <trkpt lat="43.53093" lon="5.57993">
        <ele>944</ele>
        <time>2022-02-15T10:58:52.000Z</time>
      </trkpt>
      <trkpt lat="43.53093" lon="5.57993">
        <ele>943</ele>
        <time>2022-02-15T10:58:53.000Z</time>
      </trkpt>
      <trkpt lat="43.53093" lon="5.57993">
        <ele>943</ele>
        <time>2022-02-15T10:58:54.000Z</time>
      </trkpt>
      <trkpt lat="43.53093" lon="5.57993">
        <ele>943</ele>
        <time>2022-02-15T10:58:55.000Z</time>
      </trkpt>
      <trkpt lat="43.53093" lon="5.57993">
        <ele>943</ele>
        <time>2022-02-15T10:58:56.000Z</time>
      </trkpt>
      <trkpt lat="43.53093" lon="5.57993">
        <ele>944</ele>
        <time>2022-02-15T10:58:57.000Z</time>
      </trkpt>
      <trkpt lat="43.53093" lon="5.57993">
        <ele>944</ele>
        <time>2022-02-15T10:58:58.000Z</time>
      </trkpt>
      <trkpt lat="43.53093" lon="5.57994">
        <ele>944</ele>
        <time>2022-02-15T10:58:59.000Z</time>
      </trkpt>
      <trkpt lat="43.53093" lon="5.57994">
        <ele>943</ele>
        <time>2022-02-15T10:59:00.000Z</time>
      </trkpt>
      <trkpt lat="43.53093" lon="5.57994">
        <ele>943</ele>
        <time>2022-02-15T10:59:01.000Z</time>
      </trkpt>
      <trkpt lat="43.53093" lon="5.57994">
        <ele>943</ele>
        <time>2022-02-15T10:59:02.000Z</time>
      </trkpt>
      <trkpt lat="43.53093" lon="5.57994">
        <ele>943</ele>
        <time>2022-02-15T10:59:03.000Z</time>
      </trkpt>
      <trkpt lat="43.53093" lon="5.57994">
        <ele>943</ele>
        <time>2022-02-15T10:59:04.000Z</time>
      </trkpt>
      <trkpt lat="43.53093" lon="5.57994">
        <ele>943</ele>
        <time>2022-02-15T10:59:05.000Z</time>
      </trkpt>
      <trkpt lat="43.53093" lon="5.57994">
        <ele>943</ele>
        <time>2022-02-15T10:59:06.000Z</time>
      </trkpt>
      <trkpt lat="43.53093" lon="5.57994">
        <ele>943</ele>
        <time>2022-02-15T10:59:07.000Z</time>
      </trkpt>
      <trkpt lat="43.53093" lon="5.57994">
        <ele>943</ele>
        <time>2022-02-15T10:59:08.000Z</time>
      </trkpt>
      <trkpt lat="43.53092" lon="5.57994">
        <ele>943</ele>
        <time>2022-02-15T10:59:09.000Z</time>
      </trkpt>
      <trkpt lat="43.53092" lon="5.57994">
        <ele>943</ele>
        <time>2022-02-15T10:59:10.000Z</time>
      </trkpt>
      <trkpt lat="43.53092" lon="5.57994">
        <ele>943</ele>
        <time>2022-02-15T10:59:11.000Z</time>
      </trkpt>
      <trkpt lat="43.53093" lon="5.57994">
        <ele>943</ele>
        <time>2022-02-15T10:59:12.000Z</time>
      </trkpt>
      <trkpt lat="43.53093" lon="5.57994">
        <ele>943</ele>
        <time>2022-02-15T10:59:13.000Z</time>
      </trkpt>
      <trkpt lat="43.53093" lon="5.57994">
        <ele>943</ele>
        <time>2022-02-15T10:59:14.000Z</time>
      </trkpt>
      <trkpt lat="43.53093" lon="5.57994">
        <ele>943</ele>
        <time>2022-02-15T10:59:15.000Z</time>
      </trkpt>
      <trkpt lat="43.53093" lon="5.57994">
        <ele>943</ele>
        <time>2022-02-15T10:59:16.000Z</time>
      </trkpt>
      <trkpt lat="43.53093" lon="5.57994">
        <ele>943</ele>
        <time>2022-02-15T10:59:17.000Z</time>
      </trkpt>
      <trkpt lat="43.53093" lon="5.57994">
        <ele>943</ele>
        <time>2022-02-15T10:59:18.000Z</time>
      </trkpt>
      <trkpt lat="43.53093" lon="5.57994">
        <ele>943</ele>
        <time>2022-02-15T10:59:19.000Z</time>
      </trkpt>
      <trkpt lat="43.53093" lon="5.57994">
        <ele>943</ele>
        <time>2022-02-15T10:59:20.000Z</time>
      </trkpt>
      <trkpt lat="43.53093" lon="5.57994">
        <ele>943</ele>
        <time>2022-02-15T10:59:21.000Z</time>
      </trkpt>
      <trkpt lat="43.53093" lon="5.57994">
        <ele>943</ele>
        <time>2022-02-15T10:59:22.000Z</time>
      </trkpt>
      <trkpt lat="43.53093" lon="5.57994">
        <ele>943</ele>
        <time>2022-02-15T10:59:23.000Z</time>
      </trkpt>
      <trkpt lat="43.53093" lon="5.57994">
        <ele>943</ele>
        <time>2022-02-15T10:59:24.000Z</time>
      </trkpt>
      <trkpt lat="43.53093" lon="5.57994">
        <ele>943</ele>
        <time>2022-02-15T10:59:25.000Z</time>
      </trkpt>
      <trkpt lat="43.53093" lon="5.57994">
        <ele>943</ele>
        <time>2022-02-15T10:59:26.000Z</time>
      </trkpt>
      <trkpt lat="43.53093" lon="5.57994">
        <ele>943</ele>
        <time>2022-02-15T10:59:27.000Z</time>
      </trkpt>
      <trkpt lat="43.53093" lon="5.57994">
        <ele>943</ele>
        <time>2022-02-15T10:59:28.000Z</time>
      </trkpt>
      <trkpt lat="43.53093" lon="5.57994">
        <ele>943</ele>
        <time>2022-02-15T10:59:29.000Z</time>
      </trkpt>
      <trkpt lat="43.53093" lon="5.57994">
        <ele>943</ele>
        <time>2022-02-15T10:59:30.000Z</time>
      </trkpt>
      <trkpt lat="43.53093" lon="5.57994">
        <ele>943</ele>
        <time>2022-02-15T10:59:31.000Z</time>
      </trkpt>
      <trkpt lat="43.53093" lon="5.57994">
        <ele>942</ele>
        <time>2022-02-15T10:59:32.000Z</time>
      </trkpt>
      <trkpt lat="43.53093" lon="5.57994">
        <ele>942</ele>
        <time>2022-02-15T10:59:33.000Z</time>
      </trkpt>
      <trkpt lat="43.53093" lon="5.57994">
        <ele>942</ele>
        <time>2022-02-15T10:59:34.000Z</time>
      </trkpt>
      <trkpt lat="43.53093" lon="5.57994">
        <ele>942</ele>
        <time>2022-02-15T10:59:35.000Z</time>
      </trkpt>
      <trkpt lat="43.53093" lon="5.57994">
        <ele>942</ele>
        <time>2022-02-15T10:59:36.000Z</time>
      </trkpt>
      <trkpt lat="43.53093" lon="5.57994">
        <ele>943</ele>
        <time>2022-02-15T10:59:37.000Z</time>
      </trkpt>
      <trkpt lat="43.53093" lon="5.57994">
        <ele>942</ele>
        <time>2022-02-15T10:59:38.000Z</time>
      </trkpt>
      <trkpt lat="43.53093" lon="5.57994">
        <ele>942</ele>
        <time>2022-02-15T10:59:39.000Z</time>
      </trkpt>
      <trkpt lat="43.53093" lon="5.57994">
        <ele>942</ele>
        <time>2022-02-15T10:59:40.000Z</time>
      </trkpt>
      <trkpt lat="43.53093" lon="5.57994">
        <ele>942</ele>
        <time>2022-02-15T10:59:41.000Z</time>
      </trkpt>
      <trkpt lat="43.53093" lon="5.57994">
        <ele>942</ele>
        <time>2022-02-15T10:59:42.000Z</time>
      </trkpt>
      <trkpt lat="43.53093" lon="5.57994">
        <ele>942</ele>
        <time>2022-02-15T10:59:43.000Z</time>
      </trkpt>
      <trkpt lat="43.53093" lon="5.57995">
        <ele>942</ele>
        <time>2022-02-15T10:59:44.000Z</time>
      </trkpt>
      <trkpt lat="43.53093" lon="5.57995">
        <ele>942</ele>
        <time>2022-02-15T10:59:45.000Z</time>
      </trkpt>
      <trkpt lat="43.53093" lon="5.57995">
        <ele>942</ele>
        <time>2022-02-15T10:59:46.000Z</time>
      </trkpt>
      <trkpt lat="43.53094" lon="5.57995">
        <ele>942</ele>
        <time>2022-02-15T10:59:47.000Z</time>
      </trkpt>
      <trkpt lat="43.53094" lon="5.57995">
        <ele>942</ele>
        <time>2022-02-15T10:59:48.000Z</time>
      </trkpt>
      <trkpt lat="43.53094" lon="5.57995">
        <ele>942</ele>
        <time>2022-02-15T10:59:49.000Z</time>
      </trkpt>
      <trkpt lat="43.53094" lon="5.57995">
        <ele>942</ele>
        <time>2022-02-15T10:59:50.000Z</time>
      </trkpt>
      <trkpt lat="43.53094" lon="5.57995">
        <ele>942</ele>
        <time>2022-02-15T10:59:51.000Z</time>
      </trkpt>
      <trkpt lat="43.53094" lon="5.57996">
        <ele>942</ele>
        <time>2022-02-15T10:59:52.000Z</time>
      </trkpt>
      <trkpt lat="43.53094" lon="5.57996">
        <ele>942</ele>
        <time>2022-02-15T10:59:53.000Z</time>
      </trkpt>
      <trkpt lat="43.53094" lon="5.57996">
        <ele>942</ele>
        <time>2022-02-15T10:59:54.000Z</time>
      </trkpt>
      <trkpt lat="43.53094" lon="5.57996">
        <ele>943</ele>
        <time>2022-02-15T10:59:55.000Z</time>
      </trkpt>
      <trkpt lat="43.53094" lon="5.57996">
        <ele>943</ele>
        <time>2022-02-15T10:59:56.000Z</time>
      </trkpt>
      <trkpt lat="43.53094" lon="5.57996">
        <ele>943</ele>
        <time>2022-02-15T10:59:57.000Z</time>
      </trkpt>
      <trkpt lat="43.53094" lon="5.57996">
        <ele>943</ele>
        <time>2022-02-15T10:59:58.000Z</time>
      </trkpt>
      <trkpt lat="43.53094" lon="5.57997">
        <ele>943</ele>
        <time>2022-02-15T10:59:59.000Z</time>
      </trkpt>
      <trkpt lat="43.53094" lon="5.57997">
        <ele>943</ele>
        <time>2022-02-15T11:00:00.000Z</time>
      </trkpt>
      <trkpt lat="43.53094" lon="5.57997">
        <ele>943</ele>
        <time>2022-02-15T11:00:01.000Z</time>
      </trkpt>
      <trkpt lat="43.53094" lon="5.57997">
        <ele>943</ele>
        <time>2022-02-15T11:00:02.000Z</time>
      </trkpt>
      <trkpt lat="43.53094" lon="5.57998">
        <ele>943</ele>
        <time>2022-02-15T11:00:03.000Z</time>
      </trkpt>
      <trkpt lat="43.53094" lon="5.57998">
        <ele>943</ele>
        <time>2022-02-15T11:00:04.000Z</time>
      </trkpt>
      <trkpt lat="43.53094" lon="5.57999">
        <ele>943</ele>
        <time>2022-02-15T11:00:05.000Z</time>
      </trkpt>
      <trkpt lat="43.53094" lon="5.57999">
        <ele>943</ele>
        <time>2022-02-15T11:00:06.000Z</time>
      </trkpt>
      <trkpt lat="43.53095" lon="5.57999">
        <ele>943</ele>
        <time>2022-02-15T11:00:07.000Z</time>
      </trkpt>
      <trkpt lat="43.53095" lon="5.57999">
        <ele>943</ele>
        <time>2022-02-15T11:00:08.000Z</time>
      </trkpt>
      <trkpt lat="43.53095" lon="5.58">
        <ele>942</ele>
        <time>2022-02-15T11:00:09.000Z</time>
      </trkpt>
      <trkpt lat="43.53095" lon="5.58">
        <ele>942</ele>
        <time>2022-02-15T11:00:10.000Z</time>
      </trkpt>
      <trkpt lat="43.53095" lon="5.58001">
        <ele>942</ele>
        <time>2022-02-15T11:00:11.000Z</time>
      </trkpt>
      <trkpt lat="43.53095" lon="5.58001">
        <ele>942</ele>
        <time>2022-02-15T11:00:12.000Z</time>
      </trkpt>
      <trkpt lat="43.53096" lon="5.58001">
        <ele>942</ele>
        <time>2022-02-15T11:00:13.000Z</time>
      </trkpt>
      <trkpt lat="43.53096" lon="5.58002">
        <ele>942</ele>
        <time>2022-02-15T11:00:14.000Z</time>
      </trkpt>
      <trkpt lat="43.53096" lon="5.58002">
        <ele>942</ele>
        <time>2022-02-15T11:00:15.000Z</time>
      </trkpt>
      <trkpt lat="43.53096" lon="5.58002">
        <ele>942</ele>
        <time>2022-02-15T11:00:16.000Z</time>
      </trkpt>
      <trkpt lat="43.53096" lon="5.58002">
        <ele>942</ele>
        <time>2022-02-15T11:00:17.000Z</time>
      </trkpt>
      <trkpt lat="43.53096" lon="5.58002">
        <ele>942</ele>
        <time>2022-02-15T11:00:18.000Z</time>
      </trkpt>
      <trkpt lat="43.53096" lon="5.58002">
        <ele>942</ele>
        <time>2022-02-15T11:00:19.000Z</time>
      </trkpt>
      <trkpt lat="43.53096" lon="5.58002">
        <ele>942</ele>
        <time>2022-02-15T11:00:20.000Z</time>
      </trkpt>
      <trkpt lat="43.53096" lon="5.58002">
        <ele>942</ele>
        <time>2022-02-15T11:00:21.000Z</time>
      </trkpt>
      <trkpt lat="43.53096" lon="5.58002">
        <ele>942</ele>
        <time>2022-02-15T11:00:22.000Z</time>
      </trkpt>
      <trkpt lat="43.53096" lon="5.58002">
        <ele>942</ele>
        <time>2022-02-15T11:00:23.000Z</time>
      </trkpt>
      <trkpt lat="43.53096" lon="5.58002">
        <ele>942</ele>
        <time>2022-02-15T11:00:24.000Z</time>
      </trkpt>
      <trkpt lat="43.53096" lon="5.58002">
        <ele>942</ele>
        <time>2022-02-15T11:00:25.000Z</time>
      </trkpt>
      <trkpt lat="43.53096" lon="5.58002">
        <ele>942</ele>
        <time>2022-02-15T11:00:26.000Z</time>
      </trkpt>
      <trkpt lat="43.53096" lon="5.58002">
        <ele>942</ele>
        <time>2022-02-15T11:00:27.000Z</time>
      </trkpt>
      <trkpt lat="43.53096" lon="5.58002">
        <ele>942</ele>
        <time>2022-02-15T11:00:28.000Z</time>
      </trkpt>
      <trkpt lat="43.53096" lon="5.58002">
        <ele>942</ele>
        <time>2022-02-15T11:00:29.000Z</time>
      </trkpt>
      <trkpt lat="43.53096" lon="5.58002">
        <ele>942</ele>
        <time>2022-02-15T11:00:30.000Z</time>
      </trkpt>
      <trkpt lat="43.53096" lon="5.58002">
        <ele>942</ele>
        <time>2022-02-15T11:00:31.000Z</time>
      </trkpt>
      <trkpt lat="43.53096" lon="5.58002">
        <ele>942</ele>
        <time>2022-02-15T11:00:32.000Z</time>
      </trkpt>
      <trkpt lat="43.53096" lon="5.58002">
        <ele>942</ele>
        <time>2022-02-15T11:00:33.000Z</time>
      </trkpt>
      <trkpt lat="43.53096" lon="5.58002">
        <ele>942</ele>
        <time>2022-02-15T11:00:34.000Z</time>
      </trkpt>
      <trkpt lat="43.53096" lon="5.58002">
        <ele>942</ele>
        <time>2022-02-15T11:00:35.000Z</time>
      </trkpt>
      <trkpt lat="43.53096" lon="5.58002">
        <ele>942</ele>
        <time>2022-02-15T11:00:36.000Z</time>
      </trkpt>
      <trkpt lat="43.53096" lon="5.58003">
        <ele>942</ele>
        <time>2022-02-15T11:00:37.000Z</time>
      </trkpt>
      <trkpt lat="43.53096" lon="5.58003">
        <ele>942</ele>
        <time>2022-02-15T11:00:38.000Z</time>
      </trkpt>
      <trkpt lat="43.53096" lon="5.58002">
        <ele>943</ele>
        <time>2022-02-15T11:00:39.000Z</time>
      </trkpt>
      <trkpt lat="43.53096" lon="5.58002">
        <ele>943</ele>
        <time>2022-02-15T11:00:40.000Z</time>
      </trkpt>
      <trkpt lat="43.53096" lon="5.58002">
        <ele>943</ele>
        <time>2022-02-15T11:00:41.000Z</time>
      </trkpt>
      <trkpt lat="43.53096" lon="5.58002">
        <ele>943</ele>
        <time>2022-02-15T11:00:42.000Z</time>
      </trkpt>
      <trkpt lat="43.53097" lon="5.58002">
        <ele>943</ele>
        <time>2022-02-15T11:00:43.000Z</time>
      </trkpt>
      <trkpt lat="43.53097" lon="5.58002">
        <ele>943</ele>
        <time>2022-02-15T11:00:44.000Z</time>
      </trkpt>
      <trkpt lat="43.53097" lon="5.58002">
        <ele>943</ele>
        <time>2022-02-15T11:00:45.000Z</time>
      </trkpt>
      <trkpt lat="43.53097" lon="5.58002">
        <ele>943</ele>
        <time>2022-02-15T11:00:46.000Z</time>
      </trkpt>
      <trkpt lat="43.53097" lon="5.58003">
        <ele>943</ele>
        <time>2022-02-15T11:00:47.000Z</time>
      </trkpt>
      <trkpt lat="43.53097" lon="5.58003">
        <ele>943</ele>
        <time>2022-02-15T11:00:48.000Z</time>
      </trkpt>
      <trkpt lat="43.53097" lon="5.58003">
        <ele>943</ele>
        <time>2022-02-15T11:00:49.000Z</time>
      </trkpt>
      <trkpt lat="43.53097" lon="5.58003">
        <ele>943</ele>
        <time>2022-02-15T11:00:50.000Z</time>
      </trkpt>
      <trkpt lat="43.53097" lon="5.58003">
        <ele>943</ele>
        <time>2022-02-15T11:00:51.000Z</time>
      </trkpt>
      <trkpt lat="43.53097" lon="5.58003">
        <ele>943</ele>
        <time>2022-02-15T11:00:52.000Z</time>
      </trkpt>
      <trkpt lat="43.53097" lon="5.58003">
        <ele>943</ele>
        <time>2022-02-15T11:00:53.000Z</time>
      </trkpt>
      <trkpt lat="43.53097" lon="5.58003">
        <ele>943</ele>
        <time>2022-02-15T11:00:54.000Z</time>
      </trkpt>
      <trkpt lat="43.53097" lon="5.58003">
        <ele>943</ele>
        <time>2022-02-15T11:00:55.000Z</time>
      </trkpt>
      <trkpt lat="43.53097" lon="5.58003">
        <ele>943</ele>
        <time>2022-02-15T11:00:56.000Z</time>
      </trkpt>
      <trkpt lat="43.53097" lon="5.58003">
        <ele>943</ele>
        <time>2022-02-15T11:00:57.000Z</time>
      </trkpt>
      <trkpt lat="43.53097" lon="5.58003">
        <ele>943</ele>
        <time>2022-02-15T11:00:58.000Z</time>
      </trkpt>
      <trkpt lat="43.53097" lon="5.58003">
        <ele>943</ele>
        <time>2022-02-15T11:00:59.000Z</time>
      </trkpt>
      <trkpt lat="43.53097" lon="5.58003">
        <ele>943</ele>
        <time>2022-02-15T11:01:00.000Z</time>
      </trkpt>
      <trkpt lat="43.53097" lon="5.58003">
        <ele>943</ele>
        <time>2022-02-15T11:01:01.000Z</time>
      </trkpt>
      <trkpt lat="43.53097" lon="5.58003">
        <ele>943</ele>
        <time>2022-02-15T11:01:02.000Z</time>
      </trkpt>
      <trkpt lat="43.53098" lon="5.58003">
        <ele>943</ele>
        <time>2022-02-15T11:01:03.000Z</time>
      </trkpt>
      <trkpt lat="43.53098" lon="5.58003">
        <ele>943</ele>
        <time>2022-02-15T11:01:04.000Z</time>
      </trkpt>
      <trkpt lat="43.53098" lon="5.58003">
        <ele>943</ele>
        <time>2022-02-15T11:01:05.000Z</time>
      </trkpt>
      <trkpt lat="43.53098" lon="5.58003">
        <ele>943</ele>
        <time>2022-02-15T11:01:06.000Z</time>
      </trkpt>
      <trkpt lat="43.53098" lon="5.58003">
        <ele>943</ele>
        <time>2022-02-15T11:01:07.000Z</time>
      </trkpt>
      <trkpt lat="43.53098" lon="5.58003">
        <ele>943</ele>
        <time>2022-02-15T11:01:08.000Z</time>
      </trkpt>
      <trkpt lat="43.53098" lon="5.58002">
        <ele>942</ele>
        <time>2022-02-15T11:01:09.000Z</time>
      </trkpt>
      <trkpt lat="43.53098" lon="5.58002">
        <ele>942</ele>
        <time>2022-02-15T11:01:10.000Z</time>
      </trkpt>
      <trkpt lat="43.53098" lon="5.58002">
        <ele>942</ele>
        <time>2022-02-15T11:01:11.000Z</time>
      </trkpt>
      <trkpt lat="43.53098" lon="5.58002">
        <ele>942</ele>
        <time>2022-02-15T11:01:12.000Z</time>
      </trkpt>
      <trkpt lat="43.53098" lon="5.58002">
        <ele>942</ele>
        <time>2022-02-15T11:01:13.000Z</time>
      </trkpt>
      <trkpt lat="43.53098" lon="5.58002">
        <ele>942</ele>
        <time>2022-02-15T11:01:14.000Z</time>
      </trkpt>
      <trkpt lat="43.53098" lon="5.58002">
        <ele>942</ele>
        <time>2022-02-15T11:01:15.000Z</time>
      </trkpt>
      <trkpt lat="43.53098" lon="5.58002">
        <ele>942</ele>
        <time>2022-02-15T11:01:16.000Z</time>
      </trkpt>
      <trkpt lat="43.53098" lon="5.58002">
        <ele>942</ele>
        <time>2022-02-15T11:01:17.000Z</time>
      </trkpt>
      <trkpt lat="43.53098" lon="5.58002">
        <ele>942</ele>
        <time>2022-02-15T11:01:18.000Z</time>
      </trkpt>
      <trkpt lat="43.53098" lon="5.58002">
        <ele>942</ele>
        <time>2022-02-15T11:01:19.000Z</time>
      </trkpt>
      <trkpt lat="43.53098" lon="5.58002">
        <ele>942</ele>
        <time>2022-02-15T11:01:20.000Z</time>
      </trkpt>
      <trkpt lat="43.53098" lon="5.58002">
        <ele>942</ele>
        <time>2022-02-15T11:01:21.000Z</time>
      </trkpt>
      <trkpt lat="43.53098" lon="5.58002">
        <ele>942</ele>
        <time>2022-02-15T11:01:22.000Z</time>
      </trkpt>
      <trkpt lat="43.53098" lon="5.58002">
        <ele>942</ele>
        <time>2022-02-15T11:01:23.000Z</time>
      </trkpt>
      <trkpt lat="43.53098" lon="5.58001">
        <ele>942</ele>
        <time>2022-02-15T11:01:24.000Z</time>
      </trkpt>
      <trkpt lat="43.53098" lon="5.58002">
        <ele>942</ele>
        <time>2022-02-15T11:01:25.000Z</time>
      </trkpt>
      <trkpt lat="43.53098" lon="5.58002">
        <ele>942</ele>
        <time>2022-02-15T11:01:26.000Z</time>
      </trkpt>
      <trkpt lat="43.53098" lon="5.58002">
        <ele>942</ele>
        <time>2022-02-15T11:01:27.000Z</time>
      </trkpt>
      <trkpt lat="43.53098" lon="5.58002">
        <ele>942</ele>
        <time>2022-02-15T11:01:28.000Z</time>
      </trkpt>
      <trkpt lat="43.53098" lon="5.58002">
        <ele>942</ele>
        <time>2022-02-15T11:01:29.000Z</time>
      </trkpt>
      <trkpt lat="43.53098" lon="5.58002">
        <ele>942</ele>
        <time>2022-02-15T11:01:30.000Z</time>
      </trkpt>
      <trkpt lat="43.53098" lon="5.58002">
        <ele>942</ele>
        <time>2022-02-15T11:01:31.000Z</time>
      </trkpt>
      <trkpt lat="43.53099" lon="5.58002">
        <ele>942</ele>
        <time>2022-02-15T11:01:32.000Z</time>
      </trkpt>
      <trkpt lat="43.53099" lon="5.58002">
        <ele>942</ele>
        <time>2022-02-15T11:01:33.000Z</time>
      </trkpt>
      <trkpt lat="43.53099" lon="5.58002">
        <ele>942</ele>
        <time>2022-02-15T11:01:34.000Z</time>
      </trkpt>
      <trkpt lat="43.53099" lon="5.58002">
        <ele>942</ele>
        <time>2022-02-15T11:01:35.000Z</time>
      </trkpt>
      <trkpt lat="43.53099" lon="5.58003">
        <ele>942</ele>
        <time>2022-02-15T11:01:36.000Z</time>
      </trkpt>
      <trkpt lat="43.531" lon="5.58003">
        <ele>942</ele>
        <time>2022-02-15T11:01:37.000Z</time>
      </trkpt>
      <trkpt lat="43.531" lon="5.58003">
        <ele>941</ele>
        <time>2022-02-15T11:01:38.000Z</time>
      </trkpt>
      <trkpt lat="43.531" lon="5.58004">
        <ele>941</ele>
        <time>2022-02-15T11:01:39.000Z</time>
      </trkpt>
      <trkpt lat="43.531" lon="5.58005">
        <ele>941</ele>
        <time>2022-02-15T11:01:40.000Z</time>
      </trkpt>
      <trkpt lat="43.531" lon="5.58006">
        <ele>941</ele>
        <time>2022-02-15T11:01:41.000Z</time>
      </trkpt>
      <trkpt lat="43.53101" lon="5.58006">
        <ele>941</ele>
        <time>2022-02-15T11:01:42.000Z</time>
      </trkpt>
      <trkpt lat="43.53101" lon="5.58007">
        <ele>941</ele>
        <time>2022-02-15T11:01:43.000Z</time>
      </trkpt>
      <trkpt lat="43.53101" lon="5.58008">
        <ele>941</ele>
        <time>2022-02-15T11:01:44.000Z</time>
      </trkpt>
      <trkpt lat="43.53101" lon="5.58008">
        <ele>940</ele>
        <time>2022-02-15T11:01:45.000Z</time>
      </trkpt>
      <trkpt lat="43.53101" lon="5.58009">
        <ele>940</ele>
        <time>2022-02-15T11:01:46.000Z</time>
      </trkpt>
      <trkpt lat="43.53101" lon="5.58009">
        <ele>940</ele>
        <time>2022-02-15T11:01:47.000Z</time>
      </trkpt>
      <trkpt lat="43.531" lon="5.5801">
        <ele>940</ele>
        <time>2022-02-15T11:01:48.000Z</time>
      </trkpt>
      <trkpt lat="43.531" lon="5.58011">
        <ele>940</ele>
        <time>2022-02-15T11:01:49.000Z</time>
      </trkpt>
      <trkpt lat="43.531" lon="5.58012">
        <ele>940</ele>
        <time>2022-02-15T11:01:50.000Z</time>
      </trkpt>
      <trkpt lat="43.531" lon="5.58012">
        <ele>940</ele>
        <time>2022-02-15T11:01:51.000Z</time>
      </trkpt>
      <trkpt lat="43.531" lon="5.58012">
        <ele>940</ele>
        <time>2022-02-15T11:01:52.000Z</time>
      </trkpt>
      <trkpt lat="43.531" lon="5.58013">
        <ele>940</ele>
        <time>2022-02-15T11:01:53.000Z</time>
      </trkpt>
      <trkpt lat="43.53101" lon="5.58013">
        <ele>939</ele>
        <time>2022-02-15T11:01:54.000Z</time>
      </trkpt>
      <trkpt lat="43.53101" lon="5.58014">
        <ele>939</ele>
        <time>2022-02-15T11:01:55.000Z</time>
      </trkpt>
      <trkpt lat="43.53101" lon="5.58014">
        <ele>939</ele>
        <time>2022-02-15T11:01:56.000Z</time>
      </trkpt>
      <trkpt lat="43.53101" lon="5.58014">
        <ele>939</ele>
        <time>2022-02-15T11:01:57.000Z</time>
      </trkpt>
      <trkpt lat="43.53101" lon="5.58014">
        <ele>939</ele>
        <time>2022-02-15T11:01:58.000Z</time>
      </trkpt>
      <trkpt lat="43.53101" lon="5.58014">
        <ele>939</ele>
        <time>2022-02-15T11:01:59.000Z</time>
      </trkpt>
      <trkpt lat="43.53102" lon="5.58014">
        <ele>939</ele>
        <time>2022-02-15T11:02:00.000Z</time>
      </trkpt>
      <trkpt lat="43.53102" lon="5.58015">
        <ele>939</ele>
        <time>2022-02-15T11:02:01.000Z</time>
      </trkpt>
      <trkpt lat="43.53102" lon="5.58015">
        <ele>939</ele>
        <time>2022-02-15T11:02:02.000Z</time>
      </trkpt>
      <trkpt lat="43.53102" lon="5.58015">
        <ele>939</ele>
        <time>2022-02-15T11:02:03.000Z</time>
      </trkpt>
      <trkpt lat="43.53102" lon="5.58015">
        <ele>938</ele>
        <time>2022-02-15T11:02:04.000Z</time>
      </trkpt>
      <trkpt lat="43.53103" lon="5.58016">
        <ele>938</ele>
        <time>2022-02-15T11:02:05.000Z</time>
      </trkpt>
      <trkpt lat="43.53103" lon="5.58016">
        <ele>938</ele>
        <time>2022-02-15T11:02:06.000Z</time>
      </trkpt>
      <trkpt lat="43.53103" lon="5.58016">
        <ele>938</ele>
        <time>2022-02-15T11:02:07.000Z</time>
      </trkpt>
      <trkpt lat="43.53103" lon="5.58016">
        <ele>938</ele>
        <time>2022-02-15T11:02:08.000Z</time>
      </trkpt>
      <trkpt lat="43.53103" lon="5.58016">
        <ele>938</ele>
        <time>2022-02-15T11:02:09.000Z</time>
      </trkpt>
      <trkpt lat="43.53103" lon="5.58016">
        <ele>938</ele>
        <time>2022-02-15T11:02:10.000Z</time>
      </trkpt>
      <trkpt lat="43.53103" lon="5.58016">
        <ele>938</ele>
        <time>2022-02-15T11:02:11.000Z</time>
      </trkpt>
      <trkpt lat="43.53103" lon="5.58016">
        <ele>938</ele>
        <time>2022-02-15T11:02:12.000Z</time>
      </trkpt>
      <trkpt lat="43.53103" lon="5.58017">
        <ele>938</ele>
        <time>2022-02-15T11:02:13.000Z</time>
      </trkpt>
      <trkpt lat="43.53103" lon="5.58017">
        <ele>938</ele>
        <time>2022-02-15T11:02:14.000Z</time>
      </trkpt>
      <trkpt lat="43.53103" lon="5.58018">
        <ele>938</ele>
        <time>2022-02-15T11:02:15.000Z</time>
      </trkpt>
      <trkpt lat="43.53103" lon="5.58018">
        <ele>938</ele>
        <time>2022-02-15T11:02:16.000Z</time>
      </trkpt>
      <trkpt lat="43.53103" lon="5.58019">
        <ele>938</ele>
        <time>2022-02-15T11:02:17.000Z</time>
      </trkpt>
      <trkpt lat="43.53102" lon="5.5802">
        <ele>938</ele>
        <time>2022-02-15T11:02:18.000Z</time>
      </trkpt>
      <trkpt lat="43.53102" lon="5.58021">
        <ele>938</ele>
        <time>2022-02-15T11:02:19.000Z</time>
      </trkpt>
      <trkpt lat="43.53102" lon="5.58023">
        <ele>938</ele>
        <time>2022-02-15T11:02:20.000Z</time>
      </trkpt>
      <trkpt lat="43.53102" lon="5.58024">
        <ele>938</ele>
        <time>2022-02-15T11:02:21.000Z</time>
      </trkpt>
      <trkpt lat="43.53102" lon="5.58024">
        <ele>938</ele>
        <time>2022-02-15T11:02:22.000Z</time>
      </trkpt>
      <trkpt lat="43.53101" lon="5.58024">
        <ele>938</ele>
        <time>2022-02-15T11:02:23.000Z</time>
      </trkpt>
      <trkpt lat="43.53102" lon="5.58024">
        <ele>938</ele>
        <time>2022-02-15T11:02:24.000Z</time>
      </trkpt>
      <trkpt lat="43.53102" lon="5.58025">
        <ele>938</ele>
        <time>2022-02-15T11:02:25.000Z</time>
      </trkpt>
      <trkpt lat="43.53102" lon="5.58025">
        <ele>937</ele>
        <time>2022-02-15T11:02:26.000Z</time>
      </trkpt>
      <trkpt lat="43.53102" lon="5.58026">
        <ele>937</ele>
        <time>2022-02-15T11:02:27.000Z</time>
      </trkpt>
      <trkpt lat="43.53102" lon="5.58027">
        <ele>937</ele>
        <time>2022-02-15T11:02:28.000Z</time>
      </trkpt>
      <trkpt lat="43.53101" lon="5.58027">
        <ele>937</ele>
        <time>2022-02-15T11:02:29.000Z</time>
      </trkpt>
      <trkpt lat="43.53101" lon="5.58028">
        <ele>937</ele>
        <time>2022-02-15T11:02:30.000Z</time>
      </trkpt>
      <trkpt lat="43.53101" lon="5.58029">
        <ele>937</ele>
        <time>2022-02-15T11:02:31.000Z</time>
      </trkpt>
      <trkpt lat="43.53101" lon="5.5803">
        <ele>937</ele>
        <time>2022-02-15T11:02:32.000Z</time>
      </trkpt>
      <trkpt lat="43.53101" lon="5.58031">
        <ele>936</ele>
        <time>2022-02-15T11:02:33.000Z</time>
      </trkpt>
      <trkpt lat="43.53101" lon="5.58032">
        <ele>936</ele>
        <time>2022-02-15T11:02:34.000Z</time>
      </trkpt>
      <trkpt lat="43.531" lon="5.58033">
        <ele>936</ele>
        <time>2022-02-15T11:02:35.000Z</time>
      </trkpt>
      <trkpt lat="43.531" lon="5.58034">
        <ele>936</ele>
        <time>2022-02-15T11:02:36.000Z</time>
      </trkpt>
      <trkpt lat="43.531" lon="5.58035">
        <ele>936</ele>
        <time>2022-02-15T11:02:37.000Z</time>
      </trkpt>
      <trkpt lat="43.531" lon="5.58036">
        <ele>936</ele>
        <time>2022-02-15T11:02:38.000Z</time>
      </trkpt>
      <trkpt lat="43.531" lon="5.58037">
        <ele>936</ele>
        <time>2022-02-15T11:02:39.000Z</time>
      </trkpt>
      <trkpt lat="43.531" lon="5.58037">
        <ele>936</ele>
        <time>2022-02-15T11:02:40.000Z</time>
      </trkpt>
      <trkpt lat="43.531" lon="5.58038">
        <ele>935</ele>
        <time>2022-02-15T11:02:41.000Z</time>
      </trkpt>
      <trkpt lat="43.531" lon="5.58039">
        <ele>935</ele>
        <time>2022-02-15T11:02:42.000Z</time>
      </trkpt>
      <trkpt lat="43.531" lon="5.58039">
        <ele>935</ele>
        <time>2022-02-15T11:02:43.000Z</time>
      </trkpt>
      <trkpt lat="43.531" lon="5.5804">
        <ele>935</ele>
        <time>2022-02-15T11:02:44.000Z</time>
      </trkpt>
      <trkpt lat="43.53101" lon="5.5804">
        <ele>935</ele>
        <time>2022-02-15T11:02:45.000Z</time>
      </trkpt>
      <trkpt lat="43.53101" lon="5.5804">
        <ele>935</ele>
        <time>2022-02-15T11:02:46.000Z</time>
      </trkpt>
      <trkpt lat="43.53101" lon="5.5804">
        <ele>935</ele>
        <time>2022-02-15T11:02:47.000Z</time>
      </trkpt>
      <trkpt lat="43.53101" lon="5.5804">
        <ele>934</ele>
        <time>2022-02-15T11:02:48.000Z</time>
      </trkpt>
      <trkpt lat="43.53102" lon="5.5804">
        <ele>934</ele>
        <time>2022-02-15T11:02:49.000Z</time>
      </trkpt>
      <trkpt lat="43.53102" lon="5.5804">
        <ele>934</ele>
        <time>2022-02-15T11:02:50.000Z</time>
      </trkpt>
      <trkpt lat="43.53103" lon="5.58041">
        <ele>934</ele>
        <time>2022-02-15T11:02:51.000Z</time>
      </trkpt>
      <trkpt lat="43.53102" lon="5.58041">
        <ele>934</ele>
        <time>2022-02-15T11:02:52.000Z</time>
      </trkpt>
      <trkpt lat="43.53102" lon="5.58041">
        <ele>934</ele>
        <time>2022-02-15T11:02:53.000Z</time>
      </trkpt>
      <trkpt lat="43.53103" lon="5.58041">
        <ele>934</ele>
        <time>2022-02-15T11:02:54.000Z</time>
      </trkpt>
      <trkpt lat="43.53103" lon="5.5804">
        <ele>934</ele>
        <time>2022-02-15T11:02:55.000Z</time>
      </trkpt>
      <trkpt lat="43.53103" lon="5.5804">
        <ele>934</ele>
        <time>2022-02-15T11:02:56.000Z</time>
      </trkpt>
      <trkpt lat="43.53103" lon="5.5804">
        <ele>933</ele>
        <time>2022-02-15T11:02:57.000Z</time>
      </trkpt>
      <trkpt lat="43.53104" lon="5.5804">
        <ele>933</ele>
        <time>2022-02-15T11:02:58.000Z</time>
      </trkpt>
      <trkpt lat="43.53104" lon="5.5804">
        <ele>933</ele>
        <time>2022-02-15T11:02:59.000Z</time>
      </trkpt>
      <trkpt lat="43.53105" lon="5.58039">
        <ele>933</ele>
        <time>2022-02-15T11:03:00.000Z</time>
      </trkpt>
      <trkpt lat="43.53105" lon="5.58038">
        <ele>933</ele>
        <time>2022-02-15T11:03:01.000Z</time>
      </trkpt>
      <trkpt lat="43.53106" lon="5.58038">
        <ele>933</ele>
        <time>2022-02-15T11:03:02.000Z</time>
      </trkpt>
      <trkpt lat="43.53106" lon="5.58039">
        <ele>933</ele>
        <time>2022-02-15T11:03:03.000Z</time>
      </trkpt>
      <trkpt lat="43.53106" lon="5.58039">
        <ele>932</ele>
        <time>2022-02-15T11:03:04.000Z</time>
      </trkpt>
      <trkpt lat="43.53106" lon="5.58039">
        <ele>932</ele>
        <time>2022-02-15T11:03:05.000Z</time>
      </trkpt>
      <trkpt lat="43.53107" lon="5.58039">
        <ele>932</ele>
        <time>2022-02-15T11:03:06.000Z</time>
      </trkpt>
      <trkpt lat="43.53107" lon="5.5804">
        <ele>932</ele>
        <time>2022-02-15T11:03:07.000Z</time>
      </trkpt>
      <trkpt lat="43.53107" lon="5.5804">
        <ele>932</ele>
        <time>2022-02-15T11:03:08.000Z</time>
      </trkpt>
      <trkpt lat="43.53108" lon="5.5804">
        <ele>932</ele>
        <time>2022-02-15T11:03:09.000Z</time>
      </trkpt>
      <trkpt lat="43.53108" lon="5.58041">
        <ele>931</ele>
        <time>2022-02-15T11:03:10.000Z</time>
      </trkpt>
      <trkpt lat="43.53108" lon="5.58041">
        <ele>931</ele>
        <time>2022-02-15T11:03:11.000Z</time>
      </trkpt>
      <trkpt lat="43.53108" lon="5.58041">
        <ele>931</ele>
        <time>2022-02-15T11:03:12.000Z</time>
      </trkpt>
      <trkpt lat="43.53108" lon="5.58042">
        <ele>931</ele>
        <time>2022-02-15T11:03:13.000Z</time>
      </trkpt>
      <trkpt lat="43.53109" lon="5.58042">
        <ele>931</ele>
        <time>2022-02-15T11:03:14.000Z</time>
      </trkpt>
      <trkpt lat="43.53109" lon="5.58042">
        <ele>931</ele>
        <time>2022-02-15T11:03:15.000Z</time>
      </trkpt>
      <trkpt lat="43.5311" lon="5.58043">
        <ele>931</ele>
        <time>2022-02-15T11:03:16.000Z</time>
      </trkpt>
      <trkpt lat="43.5311" lon="5.58044">
        <ele>930</ele>
        <time>2022-02-15T11:03:17.000Z</time>
      </trkpt>
      <trkpt lat="43.5311" lon="5.58044">
        <ele>930</ele>
        <time>2022-02-15T11:03:18.000Z</time>
      </trkpt>
      <trkpt lat="43.53111" lon="5.58045">
        <ele>930</ele>
        <time>2022-02-15T11:03:19.000Z</time>
      </trkpt>
      <trkpt lat="43.53111" lon="5.58046">
        <ele>930</ele>
        <time>2022-02-15T11:03:20.000Z</time>
      </trkpt>
      <trkpt lat="43.53111" lon="5.58047">
        <ele>930</ele>
        <time>2022-02-15T11:03:21.000Z</time>
      </trkpt>
      <trkpt lat="43.53111" lon="5.58047">
        <ele>929</ele>
        <time>2022-02-15T11:03:22.000Z</time>
      </trkpt>
      <trkpt lat="43.53112" lon="5.58048">
        <ele>929</ele>
        <time>2022-02-15T11:03:23.000Z</time>
      </trkpt>
      <trkpt lat="43.53112" lon="5.58048">
        <ele>929</ele>
        <time>2022-02-15T11:03:24.000Z</time>
      </trkpt>
      <trkpt lat="43.53112" lon="5.58049">
        <ele>929</ele>
        <time>2022-02-15T11:03:25.000Z</time>
      </trkpt>
      <trkpt lat="43.53113" lon="5.5805">
        <ele>928</ele>
        <time>2022-02-15T11:03:26.000Z</time>
      </trkpt>
      <trkpt lat="43.53113" lon="5.58051">
        <ele>928</ele>
        <time>2022-02-15T11:03:27.000Z</time>
      </trkpt>
      <trkpt lat="43.53113" lon="5.58052">
        <ele>928</ele>
        <time>2022-02-15T11:03:28.000Z</time>
      </trkpt>
      <trkpt lat="43.53113" lon="5.58053">
        <ele>928</ele>
        <time>2022-02-15T11:03:29.000Z</time>
      </trkpt>
      <trkpt lat="43.53113" lon="5.58053">
        <ele>928</ele>
        <time>2022-02-15T11:03:30.000Z</time>
      </trkpt>
      <trkpt lat="43.53113" lon="5.58053">
        <ele>927</ele>
        <time>2022-02-15T11:03:31.000Z</time>
      </trkpt>
      <trkpt lat="43.53114" lon="5.58053">
        <ele>927</ele>
        <time>2022-02-15T11:03:32.000Z</time>
      </trkpt>
      <trkpt lat="43.53115" lon="5.58053">
        <ele>927</ele>
        <time>2022-02-15T11:03:33.000Z</time>
      </trkpt>
      <trkpt lat="43.53116" lon="5.58054">
        <ele>926</ele>
        <time>2022-02-15T11:03:34.000Z</time>
      </trkpt>
      <trkpt lat="43.53117" lon="5.58055">
        <ele>926</ele>
        <time>2022-02-15T11:03:35.000Z</time>
      </trkpt>
      <trkpt lat="43.53117" lon="5.58056">
        <ele>926</ele>
        <time>2022-02-15T11:03:36.000Z</time>
      </trkpt>
      <trkpt lat="43.53117" lon="5.58056">
        <ele>926</ele>
        <time>2022-02-15T11:03:37.000Z</time>
      </trkpt>
      <trkpt lat="43.53117" lon="5.58056">
        <ele>926</ele>
        <time>2022-02-15T11:03:38.000Z</time>
      </trkpt>
      <trkpt lat="43.53117" lon="5.58056">
        <ele>926</ele>
        <time>2022-02-15T11:03:39.000Z</time>
      </trkpt>
      <trkpt lat="43.53118" lon="5.58057">
        <ele>925</ele>
        <time>2022-02-15T11:03:40.000Z</time>
      </trkpt>
      <trkpt lat="43.53118" lon="5.58058">
        <ele>925</ele>
        <time>2022-02-15T11:03:41.000Z</time>
      </trkpt>
      <trkpt lat="43.53118" lon="5.58058">
        <ele>925</ele>
        <time>2022-02-15T11:03:42.000Z</time>
      </trkpt>
      <trkpt lat="43.53119" lon="5.58058">
        <ele>925</ele>
        <time>2022-02-15T11:03:43.000Z</time>
      </trkpt>
      <trkpt lat="43.53119" lon="5.58059">
        <ele>925</ele>
        <time>2022-02-15T11:03:44.000Z</time>
      </trkpt>
      <trkpt lat="43.5312" lon="5.58059">
        <ele>925</ele>
        <time>2022-02-15T11:03:45.000Z</time>
      </trkpt>
      <trkpt lat="43.5312" lon="5.58059">
        <ele>924</ele>
        <time>2022-02-15T11:03:46.000Z</time>
      </trkpt>
      <trkpt lat="43.53121" lon="5.5806">
        <ele>924</ele>
        <time>2022-02-15T11:03:47.000Z</time>
      </trkpt>
      <trkpt lat="43.53121" lon="5.58061">
        <ele>924</ele>
        <time>2022-02-15T11:03:48.000Z</time>
      </trkpt>
      <trkpt lat="43.53121" lon="5.58062">
        <ele>924</ele>
        <time>2022-02-15T11:03:49.000Z</time>
      </trkpt>
      <trkpt lat="43.53122" lon="5.58062">
        <ele>924</ele>
        <time>2022-02-15T11:03:50.000Z</time>
      </trkpt>
      <trkpt lat="43.53122" lon="5.58063">
        <ele>924</ele>
        <time>2022-02-15T11:03:51.000Z</time>
      </trkpt>
      <trkpt lat="43.53122" lon="5.58063">
        <ele>924</ele>
        <time>2022-02-15T11:03:52.000Z</time>
      </trkpt>
      <trkpt lat="43.53122" lon="5.58064">
        <ele>923</ele>
        <time>2022-02-15T11:03:53.000Z</time>
      </trkpt>
      <trkpt lat="43.53122" lon="5.58064">
        <ele>923</ele>
        <time>2022-02-15T11:03:54.000Z</time>
      </trkpt>
      <trkpt lat="43.53122" lon="5.58065">
        <ele>923</ele>
        <time>2022-02-15T11:03:55.000Z</time>
      </trkpt>
      <trkpt lat="43.53123" lon="5.58065">
        <ele>923</ele>
        <time>2022-02-15T11:03:56.000Z</time>
      </trkpt>
      <trkpt lat="43.53123" lon="5.58066">
        <ele>923</ele>
        <time>2022-02-15T11:03:57.000Z</time>
      </trkpt>
      <trkpt lat="43.53123" lon="5.58067">
        <ele>923</ele>
        <time>2022-02-15T11:03:58.000Z</time>
      </trkpt>
      <trkpt lat="43.53123" lon="5.58068">
        <ele>923</ele>
        <time>2022-02-15T11:03:59.000Z</time>
      </trkpt>
      <trkpt lat="43.53123" lon="5.58069">
        <ele>923</ele>
        <time>2022-02-15T11:04:00.000Z</time>
      </trkpt>
      <trkpt lat="43.53123" lon="5.58069">
        <ele>923</ele>
        <time>2022-02-15T11:04:01.000Z</time>
      </trkpt>
      <trkpt lat="43.53123" lon="5.5807">
        <ele>923</ele>
        <time>2022-02-15T11:04:02.000Z</time>
      </trkpt>
      <trkpt lat="43.53123" lon="5.5807">
        <ele>923</ele>
        <time>2022-02-15T11:04:03.000Z</time>
      </trkpt>
      <trkpt lat="43.53123" lon="5.58071">
        <ele>923</ele>
        <time>2022-02-15T11:04:04.000Z</time>
      </trkpt>
      <trkpt lat="43.53123" lon="5.58072">
        <ele>923</ele>
        <time>2022-02-15T11:04:05.000Z</time>
      </trkpt>
      <trkpt lat="43.53123" lon="5.58072">
        <ele>923</ele>
        <time>2022-02-15T11:04:06.000Z</time>
      </trkpt>
      <trkpt lat="43.53124" lon="5.58073">
        <ele>923</ele>
        <time>2022-02-15T11:04:07.000Z</time>
      </trkpt>
      <trkpt lat="43.53124" lon="5.58073">
        <ele>923</ele>
        <time>2022-02-15T11:04:08.000Z</time>
      </trkpt>
      <trkpt lat="43.53123" lon="5.58074">
        <ele>922</ele>
        <time>2022-02-15T11:04:09.000Z</time>
      </trkpt>
      <trkpt lat="43.53123" lon="5.58074">
        <ele>922</ele>
        <time>2022-02-15T11:04:10.000Z</time>
      </trkpt>
      <trkpt lat="43.53123" lon="5.58074">
        <ele>922</ele>
        <time>2022-02-15T11:04:11.000Z</time>
      </trkpt>
      <trkpt lat="43.53123" lon="5.58075">
        <ele>922</ele>
        <time>2022-02-15T11:04:12.000Z</time>
      </trkpt>
      <trkpt lat="43.53123" lon="5.58076">
        <ele>922</ele>
        <time>2022-02-15T11:04:13.000Z</time>
      </trkpt>
      <trkpt lat="43.53124" lon="5.58077">
        <ele>922</ele>
        <time>2022-02-15T11:04:14.000Z</time>
      </trkpt>
      <trkpt lat="43.53124" lon="5.58078">
        <ele>922</ele>
        <time>2022-02-15T11:04:15.000Z</time>
      </trkpt>
      <trkpt lat="43.53124" lon="5.58078">
        <ele>922</ele>
        <time>2022-02-15T11:04:16.000Z</time>
      </trkpt>
      <trkpt lat="43.53124" lon="5.58079">
        <ele>922</ele>
        <time>2022-02-15T11:04:17.000Z</time>
      </trkpt>
      <trkpt lat="43.53124" lon="5.58081">
        <ele>922</ele>
        <time>2022-02-15T11:04:18.000Z</time>
      </trkpt>
      <trkpt lat="43.53124" lon="5.58082">
        <ele>922</ele>
        <time>2022-02-15T11:04:19.000Z</time>
      </trkpt>
      <trkpt lat="43.53124" lon="5.58082">
        <ele>922</ele>
        <time>2022-02-15T11:04:20.000Z</time>
      </trkpt>
      <trkpt lat="43.53124" lon="5.58082">
        <ele>921</ele>
        <time>2022-02-15T11:04:21.000Z</time>
      </trkpt>
      <trkpt lat="43.53124" lon="5.58082">
        <ele>921</ele>
        <time>2022-02-15T11:04:22.000Z</time>
      </trkpt>
      <trkpt lat="43.53124" lon="5.58082">
        <ele>921</ele>
        <time>2022-02-15T11:04:23.000Z</time>
      </trkpt>
      <trkpt lat="43.53124" lon="5.58083">
        <ele>921</ele>
        <time>2022-02-15T11:04:24.000Z</time>
      </trkpt>
      <trkpt lat="43.53124" lon="5.58083">
        <ele>921</ele>
        <time>2022-02-15T11:04:25.000Z</time>
      </trkpt>
      <trkpt lat="43.53125" lon="5.58083">
        <ele>921</ele>
        <time>2022-02-15T11:04:26.000Z</time>
      </trkpt>
      <trkpt lat="43.53125" lon="5.58084">
        <ele>921</ele>
        <time>2022-02-15T11:04:27.000Z</time>
      </trkpt>
      <trkpt lat="43.53125" lon="5.58084">
        <ele>921</ele>
        <time>2022-02-15T11:04:28.000Z</time>
      </trkpt>
      <trkpt lat="43.53125" lon="5.58085">
        <ele>921</ele>
        <time>2022-02-15T11:04:29.000Z</time>
      </trkpt>
      <trkpt lat="43.53125" lon="5.58085">
        <ele>921</ele>
        <time>2022-02-15T11:04:30.000Z</time>
      </trkpt>
      <trkpt lat="43.53126" lon="5.58085">
        <ele>921</ele>
        <time>2022-02-15T11:04:31.000Z</time>
      </trkpt>
      <trkpt lat="43.53126" lon="5.58086">
        <ele>921</ele>
        <time>2022-02-15T11:04:32.000Z</time>
      </trkpt>
      <trkpt lat="43.53126" lon="5.58087">
        <ele>921</ele>
        <time>2022-02-15T11:04:33.000Z</time>
      </trkpt>
      <trkpt lat="43.53126" lon="5.58088">
        <ele>921</ele>
        <time>2022-02-15T11:04:34.000Z</time>
      </trkpt>
      <trkpt lat="43.53126" lon="5.58088">
        <ele>921</ele>
        <time>2022-02-15T11:04:35.000Z</time>
      </trkpt>
      <trkpt lat="43.53126" lon="5.58089">
        <ele>921</ele>
        <time>2022-02-15T11:04:36.000Z</time>
      </trkpt>
      <trkpt lat="43.53126" lon="5.5809">
        <ele>921</ele>
        <time>2022-02-15T11:04:37.000Z</time>
      </trkpt>
      <trkpt lat="43.53126" lon="5.5809">
        <ele>921</ele>
        <time>2022-02-15T11:04:38.000Z</time>
      </trkpt>
      <trkpt lat="43.53127" lon="5.58091">
        <ele>921</ele>
        <time>2022-02-15T11:04:39.000Z</time>
      </trkpt>
      <trkpt lat="43.53127" lon="5.58091">
        <ele>922</ele>
        <time>2022-02-15T11:04:40.000Z</time>
      </trkpt>
      <trkpt lat="43.53127" lon="5.58091">
        <ele>922</ele>
        <time>2022-02-15T11:04:41.000Z</time>
      </trkpt>
      <trkpt lat="43.53127" lon="5.58091">
        <ele>922</ele>
        <time>2022-02-15T11:04:42.000Z</time>
      </trkpt>
      <trkpt lat="43.53127" lon="5.58091">
        <ele>922</ele>
        <time>2022-02-15T11:04:43.000Z</time>
      </trkpt>
      <trkpt lat="43.53127" lon="5.58091">
        <ele>922</ele>
        <time>2022-02-15T11:04:44.000Z</time>
      </trkpt>
      <trkpt lat="43.53127" lon="5.58092">
        <ele>922</ele>
        <time>2022-02-15T11:04:45.000Z</time>
      </trkpt>
      <trkpt lat="43.53128" lon="5.58093">
        <ele>922</ele>
        <time>2022-02-15T11:04:46.000Z</time>
      </trkpt>
      <trkpt lat="43.53128" lon="5.58094">
        <ele>922</ele>
        <time>2022-02-15T11:04:47.000Z</time>
      </trkpt>
      <trkpt lat="43.53128" lon="5.58094">
        <ele>922</ele>
        <time>2022-02-15T11:04:48.000Z</time>
      </trkpt>
      <trkpt lat="43.53128" lon="5.58094">
        <ele>922</ele>
        <time>2022-02-15T11:04:49.000Z</time>
      </trkpt>
      <trkpt lat="43.53128" lon="5.58095">
        <ele>922</ele>
        <time>2022-02-15T11:04:50.000Z</time>
      </trkpt>
      <trkpt lat="43.53128" lon="5.58096">
        <ele>922</ele>
        <time>2022-02-15T11:04:51.000Z</time>
      </trkpt>
      <trkpt lat="43.53128" lon="5.58096">
        <ele>922</ele>
        <time>2022-02-15T11:04:52.000Z</time>
      </trkpt>
      <trkpt lat="43.53129" lon="5.58098">
        <ele>922</ele>
        <time>2022-02-15T11:04:53.000Z</time>
      </trkpt>
      <trkpt lat="43.53128" lon="5.58098">
        <ele>922</ele>
        <time>2022-02-15T11:04:54.000Z</time>
      </trkpt>
      <trkpt lat="43.53128" lon="5.58099">
        <ele>922</ele>
        <time>2022-02-15T11:04:55.000Z</time>
      </trkpt>
      <trkpt lat="43.53128" lon="5.58101">
        <ele>922</ele>
        <time>2022-02-15T11:04:56.000Z</time>
      </trkpt>
      <trkpt lat="43.53128" lon="5.58102">
        <ele>923</ele>
        <time>2022-02-15T11:04:57.000Z</time>
      </trkpt>
      <trkpt lat="43.53129" lon="5.58103">
        <ele>923</ele>
        <time>2022-02-15T11:04:58.000Z</time>
      </trkpt>
      <trkpt lat="43.53129" lon="5.58104">
        <ele>923</ele>
        <time>2022-02-15T11:04:59.000Z</time>
      </trkpt>
      <trkpt lat="43.53129" lon="5.58104">
        <ele>923</ele>
        <time>2022-02-15T11:05:00.000Z</time>
      </trkpt>
      <trkpt lat="43.53129" lon="5.58104">
        <ele>923</ele>
        <time>2022-02-15T11:05:01.000Z</time>
      </trkpt>
      <trkpt lat="43.53129" lon="5.58104">
        <ele>923</ele>
        <time>2022-02-15T11:05:02.000Z</time>
      </trkpt>
      <trkpt lat="43.53129" lon="5.58104">
        <ele>923</ele>
        <time>2022-02-15T11:05:03.000Z</time>
      </trkpt>
      <trkpt lat="43.53128" lon="5.58105">
        <ele>923</ele>
        <time>2022-02-15T11:05:04.000Z</time>
      </trkpt>
      <trkpt lat="43.53128" lon="5.58105">
        <ele>923</ele>
        <time>2022-02-15T11:05:05.000Z</time>
      </trkpt>
      <trkpt lat="43.53128" lon="5.58106">
        <ele>923</ele>
        <time>2022-02-15T11:05:06.000Z</time>
      </trkpt>
      <trkpt lat="43.53128" lon="5.58107">
        <ele>923</ele>
        <time>2022-02-15T11:05:07.000Z</time>
      </trkpt>
      <trkpt lat="43.53128" lon="5.58107">
        <ele>924</ele>
        <time>2022-02-15T11:05:08.000Z</time>
      </trkpt>
      <trkpt lat="43.53128" lon="5.58107">
        <ele>924</ele>
        <time>2022-02-15T11:05:09.000Z</time>
      </trkpt>
      <trkpt lat="43.53128" lon="5.58107">
        <ele>924</ele>
        <time>2022-02-15T11:05:10.000Z</time>
      </trkpt>
      <trkpt lat="43.53128" lon="5.58107">
        <ele>924</ele>
        <time>2022-02-15T11:05:11.000Z</time>
      </trkpt>
      <trkpt lat="43.53128" lon="5.58107">
        <ele>924</ele>
        <time>2022-02-15T11:05:12.000Z</time>
      </trkpt>
      <trkpt lat="43.53128" lon="5.58107">
        <ele>924</ele>
        <time>2022-02-15T11:05:13.000Z</time>
      </trkpt>
      <trkpt lat="43.53128" lon="5.58108">
        <ele>924</ele>
        <time>2022-02-15T11:05:14.000Z</time>
      </trkpt>
      <trkpt lat="43.53128" lon="5.58109">
        <ele>924</ele>
        <time>2022-02-15T11:05:15.000Z</time>
      </trkpt>
      <trkpt lat="43.53128" lon="5.5811">
        <ele>924</ele>
        <time>2022-02-15T11:05:16.000Z</time>
      </trkpt>
      <trkpt lat="43.53128" lon="5.5811">
        <ele>924</ele>
        <time>2022-02-15T11:05:17.000Z</time>
      </trkpt>
      <trkpt lat="43.53128" lon="5.5811">
        <ele>924</ele>
        <time>2022-02-15T11:05:18.000Z</time>
      </trkpt>
      <trkpt lat="43.53128" lon="5.5811">
        <ele>924</ele>
        <time>2022-02-15T11:05:19.000Z</time>
      </trkpt>
      <trkpt lat="43.53128" lon="5.5811">
        <ele>924</ele>
        <time>2022-02-15T11:05:20.000Z</time>
      </trkpt>
      <trkpt lat="43.53128" lon="5.5811">
        <ele>924</ele>
        <time>2022-02-15T11:05:21.000Z</time>
      </trkpt>
      <trkpt lat="43.53128" lon="5.5811">
        <ele>924</ele>
        <time>2022-02-15T11:05:22.000Z</time>
      </trkpt>
      <trkpt lat="43.53128" lon="5.5811">
        <ele>924</ele>
        <time>2022-02-15T11:05:23.000Z</time>
      </trkpt>
      <trkpt lat="43.53128" lon="5.5811">
        <ele>924</ele>
        <time>2022-02-15T11:05:24.000Z</time>
      </trkpt>
      <trkpt lat="43.53128" lon="5.5811">
        <ele>924</ele>
        <time>2022-02-15T11:05:25.000Z</time>
      </trkpt>
      <trkpt lat="43.53128" lon="5.5811">
        <ele>924</ele>
        <time>2022-02-15T11:05:26.000Z</time>
      </trkpt>
      <trkpt lat="43.53128" lon="5.5811">
        <ele>924</ele>
        <time>2022-02-15T11:05:27.000Z</time>
      </trkpt>
      <trkpt lat="43.53128" lon="5.5811">
        <ele>924</ele>
        <time>2022-02-15T11:05:28.000Z</time>
      </trkpt>
      <trkpt lat="43.53128" lon="5.5811">
        <ele>924</ele>
        <time>2022-02-15T11:05:29.000Z</time>
      </trkpt>
      <trkpt lat="43.53128" lon="5.5811">
        <ele>924</ele>
        <time>2022-02-15T11:05:30.000Z</time>
      </trkpt>
      <trkpt lat="43.53128" lon="5.58111">
        <ele>924</ele>
        <time>2022-02-15T11:05:31.000Z</time>
      </trkpt>
      <trkpt lat="43.53127" lon="5.58111">
        <ele>924</ele>
        <time>2022-02-15T11:05:32.000Z</time>
      </trkpt>
      <trkpt lat="43.53127" lon="5.58112">
        <ele>925</ele>
        <time>2022-02-15T11:05:33.000Z</time>
      </trkpt>
      <trkpt lat="43.53127" lon="5.58112">
        <ele>925</ele>
        <time>2022-02-15T11:05:34.000Z</time>
      </trkpt>
      <trkpt lat="43.53127" lon="5.58113">
        <ele>925</ele>
        <time>2022-02-15T11:05:35.000Z</time>
      </trkpt>
      <trkpt lat="43.53127" lon="5.58114">
        <ele>925</ele>
        <time>2022-02-15T11:05:36.000Z</time>
      </trkpt>
      <trkpt lat="43.53127" lon="5.58114">
        <ele>925</ele>
        <time>2022-02-15T11:05:37.000Z</time>
      </trkpt>
      <trkpt lat="43.53127" lon="5.58114">
        <ele>925</ele>
        <time>2022-02-15T11:05:38.000Z</time>
      </trkpt>
      <trkpt lat="43.53126" lon="5.58115">
        <ele>925</ele>
        <time>2022-02-15T11:05:39.000Z</time>
      </trkpt>
      <trkpt lat="43.53126" lon="5.58115">
        <ele>925</ele>
        <time>2022-02-15T11:05:40.000Z</time>
      </trkpt>
      <trkpt lat="43.53126" lon="5.58115">
        <ele>925</ele>
        <time>2022-02-15T11:05:41.000Z</time>
      </trkpt>
      <trkpt lat="43.53126" lon="5.58115">
        <ele>925</ele>
        <time>2022-02-15T11:05:42.000Z</time>
      </trkpt>
      <trkpt lat="43.53126" lon="5.58115">
        <ele>925</ele>
        <time>2022-02-15T11:05:43.000Z</time>
      </trkpt>
      <trkpt lat="43.53126" lon="5.58115">
        <ele>926</ele>
        <time>2022-02-15T11:05:44.000Z</time>
      </trkpt>
      <trkpt lat="43.53126" lon="5.58115">
        <ele>926</ele>
        <time>2022-02-15T11:05:45.000Z</time>
      </trkpt>
      <trkpt lat="43.53126" lon="5.58115">
        <ele>926</ele>
        <time>2022-02-15T11:05:46.000Z</time>
      </trkpt>
      <trkpt lat="43.53126" lon="5.58115">
        <ele>926</ele>
        <time>2022-02-15T11:05:47.000Z</time>
      </trkpt>
      <trkpt lat="43.53126" lon="5.58115">
        <ele>926</ele>
        <time>2022-02-15T11:05:48.000Z</time>
      </trkpt>
      <trkpt lat="43.53126" lon="5.58115">
        <ele>926</ele>
        <time>2022-02-15T11:05:49.000Z</time>
      </trkpt>
      <trkpt lat="43.53126" lon="5.58115">
        <ele>926</ele>
        <time>2022-02-15T11:05:50.000Z</time>
      </trkpt>
      <trkpt lat="43.53126" lon="5.58115">
        <ele>926</ele>
        <time>2022-02-15T11:05:51.000Z</time>
      </trkpt>
      <trkpt lat="43.53126" lon="5.58115">
        <ele>926</ele>
        <time>2022-02-15T11:05:52.000Z</time>
      </trkpt>
      <trkpt lat="43.53126" lon="5.58115">
        <ele>926</ele>
        <time>2022-02-15T11:05:53.000Z</time>
      </trkpt>
      <trkpt lat="43.53127" lon="5.58115">
        <ele>926</ele>
        <time>2022-02-15T11:05:54.000Z</time>
      </trkpt>
      <trkpt lat="43.53127" lon="5.58116">
        <ele>926</ele>
        <time>2022-02-15T11:05:55.000Z</time>
      </trkpt>
      <trkpt lat="43.53127" lon="5.58117">
        <ele>926</ele>
        <time>2022-02-15T11:05:56.000Z</time>
      </trkpt>
      <trkpt lat="43.53127" lon="5.58118">
        <ele>926</ele>
        <time>2022-02-15T11:05:57.000Z</time>
      </trkpt>
      <trkpt lat="43.53127" lon="5.58119">
        <ele>926</ele>
        <time>2022-02-15T11:05:58.000Z</time>
      </trkpt>
      <trkpt lat="43.53127" lon="5.58119">
        <ele>926</ele>
        <time>2022-02-15T11:05:59.000Z</time>
      </trkpt>
      <trkpt lat="43.53127" lon="5.5812">
        <ele>926</ele>
        <time>2022-02-15T11:06:00.000Z</time>
      </trkpt>
      <trkpt lat="43.53127" lon="5.58121">
        <ele>926</ele>
        <time>2022-02-15T11:06:01.000Z</time>
      </trkpt>
      <trkpt lat="43.53127" lon="5.58121">
        <ele>926</ele>
        <time>2022-02-15T11:06:02.000Z</time>
      </trkpt>
      <trkpt lat="43.53127" lon="5.58122">
        <ele>926</ele>
        <time>2022-02-15T11:06:03.000Z</time>
      </trkpt>
      <trkpt lat="43.53127" lon="5.58122">
        <ele>927</ele>
        <time>2022-02-15T11:06:04.000Z</time>
      </trkpt>
      <trkpt lat="43.53127" lon="5.58123">
        <ele>927</ele>
        <time>2022-02-15T11:06:05.000Z</time>
      </trkpt>
      <trkpt lat="43.53127" lon="5.58123">
        <ele>927</ele>
        <time>2022-02-15T11:06:06.000Z</time>
      </trkpt>
      <trkpt lat="43.53127" lon="5.58124">
        <ele>927</ele>
        <time>2022-02-15T11:06:07.000Z</time>
      </trkpt>
      <trkpt lat="43.53127" lon="5.58124">
        <ele>927</ele>
        <time>2022-02-15T11:06:08.000Z</time>
      </trkpt>
      <trkpt lat="43.53127" lon="5.58124">
        <ele>927</ele>
        <time>2022-02-15T11:06:09.000Z</time>
      </trkpt>
      <trkpt lat="43.53127" lon="5.58124">
        <ele>927</ele>
        <time>2022-02-15T11:06:10.000Z</time>
      </trkpt>
      <trkpt lat="43.53127" lon="5.58124">
        <ele>927</ele>
        <time>2022-02-15T11:06:11.000Z</time>
      </trkpt>
      <trkpt lat="43.53127" lon="5.58124">
        <ele>927</ele>
        <time>2022-02-15T11:06:12.000Z</time>
      </trkpt>
      <trkpt lat="43.53127" lon="5.58124">
        <ele>927</ele>
        <time>2022-02-15T11:06:13.000Z</time>
      </trkpt>
      <trkpt lat="43.53127" lon="5.58125">
        <ele>927</ele>
        <time>2022-02-15T11:06:14.000Z</time>
      </trkpt>
      <trkpt lat="43.53128" lon="5.58125">
        <ele>927</ele>
        <time>2022-02-15T11:06:15.000Z</time>
      </trkpt>
      <trkpt lat="43.53128" lon="5.58125">
        <ele>927</ele>
        <time>2022-02-15T11:06:16.000Z</time>
      </trkpt>
      <trkpt lat="43.53128" lon="5.58125">
        <ele>927</ele>
        <time>2022-02-15T11:06:17.000Z</time>
      </trkpt>
      <trkpt lat="43.53128" lon="5.58125">
        <ele>927</ele>
        <time>2022-02-15T11:06:18.000Z</time>
      </trkpt>
      <trkpt lat="43.53128" lon="5.58125">
        <ele>927</ele>
        <time>2022-02-15T11:06:19.000Z</time>
      </trkpt>
      <trkpt lat="43.53128" lon="5.58125">
        <ele>927</ele>
        <time>2022-02-15T11:06:20.000Z</time>
      </trkpt>
      <trkpt lat="43.53128" lon="5.58126">
        <ele>927</ele>
        <time>2022-02-15T11:06:21.000Z</time>
      </trkpt>
      <trkpt lat="43.53128" lon="5.58126">
        <ele>927</ele>
        <time>2022-02-15T11:06:22.000Z</time>
      </trkpt>
      <trkpt lat="43.53128" lon="5.58126">
        <ele>927</ele>
        <time>2022-02-15T11:06:23.000Z</time>
      </trkpt>
      <trkpt lat="43.53128" lon="5.58126">
        <ele>927</ele>
        <time>2022-02-15T11:06:24.000Z</time>
      </trkpt>
      <trkpt lat="43.53128" lon="5.58126">
        <ele>927</ele>
        <time>2022-02-15T11:06:25.000Z</time>
      </trkpt>
      <trkpt lat="43.53128" lon="5.58127">
        <ele>926</ele>
        <time>2022-02-15T11:06:26.000Z</time>
      </trkpt>
      <trkpt lat="43.53128" lon="5.58127">
        <ele>926</ele>
        <time>2022-02-15T11:06:27.000Z</time>
      </trkpt>
      <trkpt lat="43.53129" lon="5.58127">
        <ele>926</ele>
        <time>2022-02-15T11:06:28.000Z</time>
      </trkpt>
      <trkpt lat="43.53129" lon="5.58127">
        <ele>926</ele>
        <time>2022-02-15T11:06:29.000Z</time>
      </trkpt>
      <trkpt lat="43.53129" lon="5.58127">
        <ele>926</ele>
        <time>2022-02-15T11:06:30.000Z</time>
      </trkpt>
      <trkpt lat="43.53129" lon="5.58127">
        <ele>926</ele>
        <time>2022-02-15T11:06:31.000Z</time>
      </trkpt>
      <trkpt lat="43.53129" lon="5.58128">
        <ele>926</ele>
        <time>2022-02-15T11:06:32.000Z</time>
      </trkpt>
      <trkpt lat="43.53128" lon="5.58128">
        <ele>927</ele>
        <time>2022-02-15T11:06:33.000Z</time>
      </trkpt>
      <trkpt lat="43.53128" lon="5.58128">
        <ele>927</ele>
        <time>2022-02-15T11:06:34.000Z</time>
      </trkpt>
      <trkpt lat="43.53128" lon="5.58127">
        <ele>927</ele>
        <time>2022-02-15T11:06:35.000Z</time>
      </trkpt>
      <trkpt lat="43.53128" lon="5.58127">
        <ele>927</ele>
        <time>2022-02-15T11:06:36.000Z</time>
      </trkpt>
      <trkpt lat="43.53128" lon="5.58127">
        <ele>927</ele>
        <time>2022-02-15T11:06:37.000Z</time>
      </trkpt>
      <trkpt lat="43.53128" lon="5.58128">
        <ele>927</ele>
        <time>2022-02-15T11:06:38.000Z</time>
      </trkpt>
      <trkpt lat="43.53129" lon="5.58128">
        <ele>927</ele>
        <time>2022-02-15T11:06:39.000Z</time>
      </trkpt>
      <trkpt lat="43.53129" lon="5.58129">
        <ele>927</ele>
        <time>2022-02-15T11:06:40.000Z</time>
      </trkpt>
      <trkpt lat="43.53128" lon="5.5813">
        <ele>927</ele>
        <time>2022-02-15T11:06:41.000Z</time>
      </trkpt>
      <trkpt lat="43.53128" lon="5.58131">
        <ele>927</ele>
        <time>2022-02-15T11:06:42.000Z</time>
      </trkpt>
      <trkpt lat="43.53128" lon="5.58131">
        <ele>927</ele>
        <time>2022-02-15T11:06:43.000Z</time>
      </trkpt>
      <trkpt lat="43.53127" lon="5.58132">
        <ele>927</ele>
        <time>2022-02-15T11:06:44.000Z</time>
      </trkpt>
      <trkpt lat="43.53127" lon="5.58132">
        <ele>927</ele>
        <time>2022-02-15T11:06:45.000Z</time>
      </trkpt>
      <trkpt lat="43.53126" lon="5.58132">
        <ele>927</ele>
        <time>2022-02-15T11:06:46.000Z</time>
      </trkpt>
      <trkpt lat="43.53126" lon="5.58132">
        <ele>927</ele>
        <time>2022-02-15T11:06:47.000Z</time>
      </trkpt>
      <trkpt lat="43.53126" lon="5.58132">
        <ele>927</ele>
        <time>2022-02-15T11:06:48.000Z</time>
      </trkpt>
      <trkpt lat="43.53126" lon="5.58133">
        <ele>927</ele>
        <time>2022-02-15T11:06:49.000Z</time>
      </trkpt>
      <trkpt lat="43.53126" lon="5.58133">
        <ele>927</ele>
        <time>2022-02-15T11:06:50.000Z</time>
      </trkpt>
      <trkpt lat="43.53126" lon="5.58134">
        <ele>927</ele>
        <time>2022-02-15T11:06:51.000Z</time>
      </trkpt>
      <trkpt lat="43.53126" lon="5.58134">
        <ele>927</ele>
        <time>2022-02-15T11:06:52.000Z</time>
      </trkpt>
      <trkpt lat="43.53125" lon="5.58134">
        <ele>927</ele>
        <time>2022-02-15T11:06:53.000Z</time>
      </trkpt>
      <trkpt lat="43.53125" lon="5.58135">
        <ele>927</ele>
        <time>2022-02-15T11:06:54.000Z</time>
      </trkpt>
      <trkpt lat="43.53125" lon="5.58135">
        <ele>927</ele>
        <time>2022-02-15T11:06:55.000Z</time>
      </trkpt>
      <trkpt lat="43.53125" lon="5.58135">
        <ele>926</ele>
        <time>2022-02-15T11:06:56.000Z</time>
      </trkpt>
      <trkpt lat="43.53125" lon="5.58135">
        <ele>926</ele>
        <time>2022-02-15T11:06:57.000Z</time>
      </trkpt>
      <trkpt lat="43.53125" lon="5.58135">
        <ele>927</ele>
        <time>2022-02-15T11:06:58.000Z</time>
      </trkpt>
      <trkpt lat="43.53125" lon="5.58136">
        <ele>927</ele>
        <time>2022-02-15T11:06:59.000Z</time>
      </trkpt>
      <trkpt lat="43.53125" lon="5.58136">
        <ele>926</ele>
        <time>2022-02-15T11:07:00.000Z</time>
      </trkpt>
      <trkpt lat="43.53124" lon="5.58137">
        <ele>926</ele>
        <time>2022-02-15T11:07:01.000Z</time>
      </trkpt>
      <trkpt lat="43.53124" lon="5.58137">
        <ele>926</ele>
        <time>2022-02-15T11:07:02.000Z</time>
      </trkpt>
      <trkpt lat="43.53124" lon="5.58137">
        <ele>926</ele>
        <time>2022-02-15T11:07:03.000Z</time>
      </trkpt>
      <trkpt lat="43.53124" lon="5.58138">
        <ele>926</ele>
        <time>2022-02-15T11:07:04.000Z</time>
      </trkpt>
      <trkpt lat="43.53124" lon="5.58138">
        <ele>926</ele>
        <time>2022-02-15T11:07:05.000Z</time>
      </trkpt>
      <trkpt lat="43.53125" lon="5.58138">
        <ele>926</ele>
        <time>2022-02-15T11:07:06.000Z</time>
      </trkpt>
      <trkpt lat="43.53125" lon="5.58138">
        <ele>926</ele>
        <time>2022-02-15T11:07:07.000Z</time>
      </trkpt>
      <trkpt lat="43.53125" lon="5.58138">
        <ele>926</ele>
        <time>2022-02-15T11:07:08.000Z</time>
      </trkpt>
      <trkpt lat="43.53125" lon="5.58138">
        <ele>926</ele>
        <time>2022-02-15T11:07:09.000Z</time>
      </trkpt>
      <trkpt lat="43.53125" lon="5.58138">
        <ele>926</ele>
        <time>2022-02-15T11:07:10.000Z</time>
      </trkpt>
      <trkpt lat="43.53125" lon="5.58138">
        <ele>926</ele>
        <time>2022-02-15T11:07:11.000Z</time>
      </trkpt>
      <trkpt lat="43.53125" lon="5.58138">
        <ele>926</ele>
        <time>2022-02-15T11:07:12.000Z</time>
      </trkpt>
      <trkpt lat="43.53125" lon="5.58138">
        <ele>926</ele>
        <time>2022-02-15T11:07:13.000Z</time>
      </trkpt>
      <trkpt lat="43.53125" lon="5.58138">
        <ele>926</ele>
        <time>2022-02-15T11:07:14.000Z</time>
      </trkpt>
      <trkpt lat="43.53125" lon="5.58138">
        <ele>926</ele>
        <time>2022-02-15T11:07:15.000Z</time>
      </trkpt>
      <trkpt lat="43.53125" lon="5.58138">
        <ele>926</ele>
        <time>2022-02-15T11:07:16.000Z</time>
      </trkpt>
      <trkpt lat="43.53125" lon="5.58138">
        <ele>926</ele>
        <time>2022-02-15T11:07:17.000Z</time>
      </trkpt>
      <trkpt lat="43.53125" lon="5.58138">
        <ele>926</ele>
        <time>2022-02-15T11:07:18.000Z</time>
      </trkpt>
      <trkpt lat="43.53126" lon="5.58138">
        <ele>926</ele>
        <time>2022-02-15T11:07:19.000Z</time>
      </trkpt>
      <trkpt lat="43.53126" lon="5.58138">
        <ele>926</ele>
        <time>2022-02-15T11:07:20.000Z</time>
      </trkpt>
      <trkpt lat="43.53126" lon="5.58137">
        <ele>926</ele>
        <time>2022-02-15T11:07:21.000Z</time>
      </trkpt>
      <trkpt lat="43.53127" lon="5.58137">
        <ele>926</ele>
        <time>2022-02-15T11:07:22.000Z</time>
      </trkpt>
      <trkpt lat="43.53128" lon="5.58137">
        <ele>926</ele>
        <time>2022-02-15T11:07:23.000Z</time>
      </trkpt>
      <trkpt lat="43.53128" lon="5.58138">
        <ele>926</ele>
        <time>2022-02-15T11:07:24.000Z</time>
      </trkpt>
      <trkpt lat="43.53128" lon="5.58138">
        <ele>926</ele>
        <time>2022-02-15T11:07:25.000Z</time>
      </trkpt>
      <trkpt lat="43.53128" lon="5.58139">
        <ele>926</ele>
        <time>2022-02-15T11:07:26.000Z</time>
      </trkpt>
      <trkpt lat="43.53127" lon="5.5814">
        <ele>926</ele>
        <time>2022-02-15T11:07:27.000Z</time>
      </trkpt>
      <trkpt lat="43.53127" lon="5.58141">
        <ele>926</ele>
        <time>2022-02-15T11:07:28.000Z</time>
      </trkpt>
      <trkpt lat="43.53127" lon="5.58141">
        <ele>925</ele>
        <time>2022-02-15T11:07:29.000Z</time>
      </trkpt>
      <trkpt lat="43.53126" lon="5.58142">
        <ele>925</ele>
        <time>2022-02-15T11:07:30.000Z</time>
      </trkpt>
      <trkpt lat="43.53126" lon="5.58142">
        <ele>925</ele>
        <time>2022-02-15T11:07:31.000Z</time>
      </trkpt>
      <trkpt lat="43.53126" lon="5.58143">
        <ele>925</ele>
        <time>2022-02-15T11:07:32.000Z</time>
      </trkpt>
      <trkpt lat="43.53125" lon="5.58143">
        <ele>925</ele>
        <time>2022-02-15T11:07:33.000Z</time>
      </trkpt>
      <trkpt lat="43.53125" lon="5.58144">
        <ele>925</ele>
        <time>2022-02-15T11:07:34.000Z</time>
      </trkpt>
      <trkpt lat="43.53125" lon="5.58145">
        <ele>924</ele>
        <time>2022-02-15T11:07:35.000Z</time>
      </trkpt>
      <trkpt lat="43.53125" lon="5.58145">
        <ele>924</ele>
        <time>2022-02-15T11:07:36.000Z</time>
      </trkpt>
      <trkpt lat="43.53125" lon="5.58146">
        <ele>924</ele>
        <time>2022-02-15T11:07:37.000Z</time>
      </trkpt>
      <trkpt lat="43.53125" lon="5.58146">
        <ele>924</ele>
        <time>2022-02-15T11:07:38.000Z</time>
      </trkpt>
      <trkpt lat="43.53124" lon="5.58146">
        <ele>924</ele>
        <time>2022-02-15T11:07:39.000Z</time>
      </trkpt>
      <trkpt lat="43.53124" lon="5.58147">
        <ele>924</ele>
        <time>2022-02-15T11:07:40.000Z</time>
      </trkpt>
      <trkpt lat="43.53124" lon="5.58147">
        <ele>924</ele>
        <time>2022-02-15T11:07:41.000Z</time>
      </trkpt>
      <trkpt lat="43.53124" lon="5.58147">
        <ele>923</ele>
        <time>2022-02-15T11:07:42.000Z</time>
      </trkpt>
      <trkpt lat="43.53123" lon="5.58148">
        <ele>923</ele>
        <time>2022-02-15T11:07:43.000Z</time>
      </trkpt>
      <trkpt lat="43.53123" lon="5.58149">
        <ele>923</ele>
        <time>2022-02-15T11:07:44.000Z</time>
      </trkpt>
      <trkpt lat="43.53123" lon="5.58149">
        <ele>923</ele>
        <time>2022-02-15T11:07:45.000Z</time>
      </trkpt>
      <trkpt lat="43.53123" lon="5.58149">
        <ele>923</ele>
        <time>2022-02-15T11:07:46.000Z</time>
      </trkpt>
      <trkpt lat="43.53122" lon="5.5815">
        <ele>923</ele>
        <time>2022-02-15T11:07:47.000Z</time>
      </trkpt>
      <trkpt lat="43.53122" lon="5.5815">
        <ele>923</ele>
        <time>2022-02-15T11:07:48.000Z</time>
      </trkpt>
      <trkpt lat="43.53122" lon="5.5815">
        <ele>923</ele>
        <time>2022-02-15T11:07:49.000Z</time>
      </trkpt>
      <trkpt lat="43.53122" lon="5.58151">
        <ele>922</ele>
        <time>2022-02-15T11:07:50.000Z</time>
      </trkpt>
      <trkpt lat="43.53122" lon="5.58151">
        <ele>922</ele>
        <time>2022-02-15T11:07:51.000Z</time>
      </trkpt>
      <trkpt lat="43.53122" lon="5.58151">
        <ele>922</ele>
        <time>2022-02-15T11:07:52.000Z</time>
      </trkpt>
      <trkpt lat="43.53121" lon="5.58152">
        <ele>922</ele>
        <time>2022-02-15T11:07:53.000Z</time>
      </trkpt>
      <trkpt lat="43.53121" lon="5.58152">
        <ele>922</ele>
        <time>2022-02-15T11:07:54.000Z</time>
      </trkpt>
      <trkpt lat="43.53121" lon="5.58152">
        <ele>922</ele>
        <time>2022-02-15T11:07:55.000Z</time>
      </trkpt>
      <trkpt lat="43.53121" lon="5.58153">
        <ele>922</ele>
        <time>2022-02-15T11:07:56.000Z</time>
      </trkpt>
      <trkpt lat="43.53121" lon="5.58153">
        <ele>922</ele>
        <time>2022-02-15T11:07:57.000Z</time>
      </trkpt>
      <trkpt lat="43.53121" lon="5.58153">
        <ele>922</ele>
        <time>2022-02-15T11:07:58.000Z</time>
      </trkpt>
      <trkpt lat="43.53121" lon="5.58153">
        <ele>922</ele>
        <time>2022-02-15T11:07:59.000Z</time>
      </trkpt>
      <trkpt lat="43.53121" lon="5.58153">
        <ele>922</ele>
        <time>2022-02-15T11:08:00.000Z</time>
      </trkpt>
      <trkpt lat="43.53121" lon="5.58153">
        <ele>922</ele>
        <time>2022-02-15T11:08:01.000Z</time>
      </trkpt>
      <trkpt lat="43.53121" lon="5.58153">
        <ele>922</ele>
        <time>2022-02-15T11:08:02.000Z</time>
      </trkpt>
      <trkpt lat="43.53121" lon="5.58153">
        <ele>922</ele>
        <time>2022-02-15T11:08:03.000Z</time>
      </trkpt>
      <trkpt lat="43.53121" lon="5.58153">
        <ele>922</ele>
        <time>2022-02-15T11:08:04.000Z</time>
      </trkpt>
      <trkpt lat="43.53121" lon="5.58153">
        <ele>922</ele>
        <time>2022-02-15T11:08:05.000Z</time>
      </trkpt>
      <trkpt lat="43.53121" lon="5.58153">
        <ele>922</ele>
        <time>2022-02-15T11:08:06.000Z</time>
      </trkpt>
      <trkpt lat="43.53121" lon="5.58153">
        <ele>922</ele>
        <time>2022-02-15T11:08:07.000Z</time>
      </trkpt>
      <trkpt lat="43.53121" lon="5.58153">
        <ele>922</ele>
        <time>2022-02-15T11:08:08.000Z</time>
      </trkpt>
      <trkpt lat="43.53121" lon="5.58153">
        <ele>922</ele>
        <time>2022-02-15T11:08:09.000Z</time>
      </trkpt>
      <trkpt lat="43.53121" lon="5.58153">
        <ele>922</ele>
        <time>2022-02-15T11:08:10.000Z</time>
      </trkpt>
      <trkpt lat="43.53121" lon="5.58153">
        <ele>922</ele>
        <time>2022-02-15T11:08:11.000Z</time>
      </trkpt>
      <trkpt lat="43.53121" lon="5.58153">
        <ele>922</ele>
        <time>2022-02-15T11:08:12.000Z</time>
      </trkpt>
      <trkpt lat="43.53121" lon="5.58153">
        <ele>922</ele>
        <time>2022-02-15T11:08:13.000Z</time>
      </trkpt>
      <trkpt lat="43.53121" lon="5.58153">
        <ele>922</ele>
        <time>2022-02-15T11:08:14.000Z</time>
      </trkpt>
      <trkpt lat="43.53121" lon="5.58153">
        <ele>922</ele>
        <time>2022-02-15T11:08:15.000Z</time>
      </trkpt>
      <trkpt lat="43.53121" lon="5.58153">
        <ele>922</ele>
        <time>2022-02-15T11:08:16.000Z</time>
      </trkpt>
      <trkpt lat="43.53121" lon="5.58153">
        <ele>922</ele>
        <time>2022-02-15T11:08:17.000Z</time>
      </trkpt>
      <trkpt lat="43.53121" lon="5.58153">
        <ele>922</ele>
        <time>2022-02-15T11:08:18.000Z</time>
      </trkpt>
      <trkpt lat="43.53121" lon="5.58153">
        <ele>922</ele>
        <time>2022-02-15T11:08:19.000Z</time>
      </trkpt>
      <trkpt lat="43.53121" lon="5.58153">
        <ele>922</ele>
        <time>2022-02-15T11:08:20.000Z</time>
      </trkpt>
      <trkpt lat="43.53121" lon="5.58153">
        <ele>922</ele>
        <time>2022-02-15T11:08:21.000Z</time>
      </trkpt>
      <trkpt lat="43.53121" lon="5.58153">
        <ele>922</ele>
        <time>2022-02-15T11:08:22.000Z</time>
      </trkpt>
      <trkpt lat="43.53121" lon="5.58153">
        <ele>922</ele>
        <time>2022-02-15T11:08:23.000Z</time>
      </trkpt>
      <trkpt lat="43.53121" lon="5.58153">
        <ele>922</ele>
        <time>2022-02-15T11:08:24.000Z</time>
      </trkpt>
      <trkpt lat="43.53121" lon="5.58153">
        <ele>922</ele>
        <time>2022-02-15T11:08:25.000Z</time>
      </trkpt>
      <trkpt lat="43.53121" lon="5.58153">
        <ele>922</ele>
        <time>2022-02-15T11:08:26.000Z</time>
      </trkpt>
      <trkpt lat="43.53121" lon="5.58153">
        <ele>922</ele>
        <time>2022-02-15T11:08:27.000Z</time>
      </trkpt>
      <trkpt lat="43.53121" lon="5.58153">
        <ele>922</ele>
        <time>2022-02-15T11:08:28.000Z</time>
      </trkpt>
      <trkpt lat="43.53121" lon="5.58153">
        <ele>922</ele>
        <time>2022-02-15T11:08:29.000Z</time>
      </trkpt>
      <trkpt lat="43.53121" lon="5.58153">
        <ele>922</ele>
        <time>2022-02-15T11:08:30.000Z</time>
      </trkpt>
      <trkpt lat="43.53121" lon="5.58153">
        <ele>922</ele>
        <time>2022-02-15T11:08:31.000Z</time>
      </trkpt>
      <trkpt lat="43.53121" lon="5.58153">
        <ele>922</ele>
        <time>2022-02-15T11:08:32.000Z</time>
      </trkpt>
      <trkpt lat="43.53121" lon="5.58153">
        <ele>922</ele>
        <time>2022-02-15T11:08:33.000Z</time>
      </trkpt>
      <trkpt lat="43.53121" lon="5.58153">
        <ele>922</ele>
        <time>2022-02-15T11:08:34.000Z</time>
      </trkpt>
      <trkpt lat="43.53121" lon="5.58153">
        <ele>922</ele>
        <time>2022-02-15T11:08:35.000Z</time>
      </trkpt>
      <trkpt lat="43.53121" lon="5.58153">
        <ele>922</ele>
        <time>2022-02-15T11:08:36.000Z</time>
      </trkpt>
      <trkpt lat="43.53121" lon="5.58153">
        <ele>921</ele>
        <time>2022-02-15T11:08:37.000Z</time>
      </trkpt>
      <trkpt lat="43.53121" lon="5.58153">
        <ele>921</ele>
        <time>2022-02-15T11:08:38.000Z</time>
      </trkpt>
      <trkpt lat="43.53121" lon="5.58153">
        <ele>921</ele>
        <time>2022-02-15T11:08:39.000Z</time>
      </trkpt>
      <trkpt lat="43.53121" lon="5.58153">
        <ele>921</ele>
        <time>2022-02-15T11:08:40.000Z</time>
      </trkpt>
      <trkpt lat="43.53121" lon="5.58153">
        <ele>921</ele>
        <time>2022-02-15T11:08:41.000Z</time>
      </trkpt>
      <trkpt lat="43.53121" lon="5.58153">
        <ele>921</ele>
        <time>2022-02-15T11:08:42.000Z</time>
      </trkpt>
      <trkpt lat="43.53121" lon="5.58153">
        <ele>921</ele>
        <time>2022-02-15T11:08:43.000Z</time>
      </trkpt>
      <trkpt lat="43.53121" lon="5.58153">
        <ele>921</ele>
        <time>2022-02-15T11:08:44.000Z</time>
      </trkpt>
      <trkpt lat="43.53121" lon="5.58153">
        <ele>921</ele>
        <time>2022-02-15T11:08:45.000Z</time>
      </trkpt>
      <trkpt lat="43.53121" lon="5.58153">
        <ele>921</ele>
        <time>2022-02-15T11:08:46.000Z</time>
      </trkpt>
      <trkpt lat="43.53121" lon="5.58153">
        <ele>921</ele>
        <time>2022-02-15T11:08:47.000Z</time>
      </trkpt>
      <trkpt lat="43.53121" lon="5.58153">
        <ele>921</ele>
        <time>2022-02-15T11:08:48.000Z</time>
      </trkpt>
      <trkpt lat="43.53121" lon="5.58153">
        <ele>921</ele>
        <time>2022-02-15T11:08:49.000Z</time>
      </trkpt>
      <trkpt lat="43.53121" lon="5.58153">
        <ele>921</ele>
        <time>2022-02-15T11:08:50.000Z</time>
      </trkpt>
      <trkpt lat="43.53121" lon="5.58153">
        <ele>921</ele>
        <time>2022-02-15T11:08:51.000Z</time>
      </trkpt>
      <trkpt lat="43.53121" lon="5.58153">
        <ele>921</ele>
        <time>2022-02-15T11:08:52.000Z</time>
      </trkpt>
      <trkpt lat="43.53121" lon="5.58153">
        <ele>921</ele>
        <time>2022-02-15T11:08:53.000Z</time>
      </trkpt>
      <trkpt lat="43.53121" lon="5.58153">
        <ele>921</ele>
        <time>2022-02-15T11:08:54.000Z</time>
      </trkpt>
      <trkpt lat="43.53121" lon="5.58153">
        <ele>921</ele>
        <time>2022-02-15T11:08:55.000Z</time>
      </trkpt>
      <trkpt lat="43.53121" lon="5.58153">
        <ele>921</ele>
        <time>2022-02-15T11:08:56.000Z</time>
      </trkpt>
      <trkpt lat="43.53121" lon="5.58153">
        <ele>921</ele>
        <time>2022-02-15T11:08:57.000Z</time>
      </trkpt>
      <trkpt lat="43.53121" lon="5.58153">
        <ele>921</ele>
        <time>2022-02-15T11:08:58.000Z</time>
      </trkpt>
      <trkpt lat="43.53121" lon="5.58153">
        <ele>921</ele>
        <time>2022-02-15T11:08:59.000Z</time>
      </trkpt>
      <trkpt lat="43.53121" lon="5.58153">
        <ele>921</ele>
        <time>2022-02-15T11:09:00.000Z</time>
      </trkpt>
      <trkpt lat="43.53121" lon="5.58153">
        <ele>921</ele>
        <time>2022-02-15T11:09:01.000Z</time>
      </trkpt>
      <trkpt lat="43.53121" lon="5.58153">
        <ele>921</ele>
        <time>2022-02-15T11:09:02.000Z</time>
      </trkpt>
      <trkpt lat="43.53121" lon="5.58153">
        <ele>921</ele>
        <time>2022-02-15T11:09:03.000Z</time>
      </trkpt>
      <trkpt lat="43.53121" lon="5.58153">
        <ele>921</ele>
        <time>2022-02-15T11:09:04.000Z</time>
      </trkpt>
      <trkpt lat="43.53121" lon="5.58153">
        <ele>921</ele>
        <time>2022-02-15T11:09:05.000Z</time>
      </trkpt>
      <trkpt lat="43.53121" lon="5.58153">
        <ele>921</ele>
        <time>2022-02-15T11:09:06.000Z</time>
      </trkpt>
      <trkpt lat="43.53121" lon="5.58153">
        <ele>921</ele>
        <time>2022-02-15T11:09:07.000Z</time>
      </trkpt>
      <trkpt lat="43.53121" lon="5.58153">
        <ele>921</ele>
        <time>2022-02-15T11:09:08.000Z</time>
      </trkpt>
      <trkpt lat="43.53121" lon="5.58153">
        <ele>921</ele>
        <time>2022-02-15T11:09:09.000Z</time>
      </trkpt>
      <trkpt lat="43.53121" lon="5.58153">
        <ele>921</ele>
        <time>2022-02-15T11:09:10.000Z</time>
      </trkpt>
      <trkpt lat="43.53121" lon="5.58153">
        <ele>921</ele>
        <time>2022-02-15T11:09:11.000Z</time>
      </trkpt>
      <trkpt lat="43.53121" lon="5.58153">
        <ele>921</ele>
        <time>2022-02-15T11:09:12.000Z</time>
      </trkpt>
      <trkpt lat="43.53121" lon="5.58153">
        <ele>921</ele>
        <time>2022-02-15T11:09:13.000Z</time>
      </trkpt>
      <trkpt lat="43.53121" lon="5.58153">
        <ele>921</ele>
        <time>2022-02-15T11:09:14.000Z</time>
      </trkpt>
      <trkpt lat="43.53121" lon="5.58153">
        <ele>921</ele>
        <time>2022-02-15T11:09:15.000Z</time>
      </trkpt>
      <trkpt lat="43.53121" lon="5.58153">
        <ele>921</ele>
        <time>2022-02-15T11:09:16.000Z</time>
      </trkpt>
      <trkpt lat="43.53121" lon="5.58153">
        <ele>921</ele>
        <time>2022-02-15T11:09:17.000Z</time>
      </trkpt>
      <trkpt lat="43.53121" lon="5.58153">
        <ele>921</ele>
        <time>2022-02-15T11:09:18.000Z</time>
      </trkpt>
      <trkpt lat="43.53121" lon="5.58153">
        <ele>921</ele>
        <time>2022-02-15T11:09:19.000Z</time>
      </trkpt>
      <trkpt lat="43.53121" lon="5.58153">
        <ele>921</ele>
        <time>2022-02-15T11:09:20.000Z</time>
      </trkpt>
      <trkpt lat="43.53121" lon="5.58153">
        <ele>921</ele>
        <time>2022-02-15T11:09:21.000Z</time>
      </trkpt>
      <trkpt lat="43.53121" lon="5.58153">
        <ele>921</ele>
        <time>2022-02-15T11:09:22.000Z</time>
      </trkpt>
      <trkpt lat="43.53121" lon="5.58153">
        <ele>921</ele>
        <time>2022-02-15T11:09:23.000Z</time>
      </trkpt>
      <trkpt lat="43.53121" lon="5.58153">
        <ele>921</ele>
        <time>2022-02-15T11:09:24.000Z</time>
      </trkpt>
      <trkpt lat="43.53121" lon="5.58153">
        <ele>921</ele>
        <time>2022-02-15T11:09:25.000Z</time>
      </trkpt>
      <trkpt lat="43.53121" lon="5.58153">
        <ele>921</ele>
        <time>2022-02-15T11:09:26.000Z</time>
      </trkpt>
      <trkpt lat="43.53121" lon="5.58153">
        <ele>921</ele>
        <time>2022-02-15T11:09:27.000Z</time>
      </trkpt>
      <trkpt lat="43.53121" lon="5.58153">
        <ele>921</ele>
        <time>2022-02-15T11:09:28.000Z</time>
      </trkpt>
      <trkpt lat="43.53121" lon="5.58153">
        <ele>921</ele>
        <time>2022-02-15T11:09:29.000Z</time>
      </trkpt>
      <trkpt lat="43.53121" lon="5.58153">
        <ele>921</ele>
        <time>2022-02-15T11:09:30.000Z</time>
      </trkpt>
      <trkpt lat="43.53121" lon="5.58154">
        <ele>921</ele>
        <time>2022-02-15T11:09:31.000Z</time>
      </trkpt>
      <trkpt lat="43.53121" lon="5.58154">
        <ele>921</ele>
        <time>2022-02-15T11:09:32.000Z</time>
      </trkpt>
      <trkpt lat="43.53121" lon="5.58154">
        <ele>921</ele>
        <time>2022-02-15T11:09:33.000Z</time>
      </trkpt>
      <trkpt lat="43.53121" lon="5.58154">
        <ele>921</ele>
        <time>2022-02-15T11:09:34.000Z</time>
      </trkpt>
      <trkpt lat="43.53121" lon="5.58154">
        <ele>921</ele>
        <time>2022-02-15T11:09:35.000Z</time>
      </trkpt>
      <trkpt lat="43.53121" lon="5.58154">
        <ele>921</ele>
        <time>2022-02-15T11:09:36.000Z</time>
      </trkpt>
      <trkpt lat="43.53121" lon="5.58154">
        <ele>921</ele>
        <time>2022-02-15T11:09:37.000Z</time>
      </trkpt>
      <trkpt lat="43.53121" lon="5.58154">
        <ele>921</ele>
        <time>2022-02-15T11:09:38.000Z</time>
      </trkpt>
      <trkpt lat="43.53121" lon="5.58154">
        <ele>921</ele>
        <time>2022-02-15T11:09:39.000Z</time>
      </trkpt>
      <trkpt lat="43.53121" lon="5.58154">
        <ele>921</ele>
        <time>2022-02-15T11:09:40.000Z</time>
      </trkpt>
      <trkpt lat="43.53121" lon="5.58154">
        <ele>921</ele>
        <time>2022-02-15T11:09:41.000Z</time>
      </trkpt>
      <trkpt lat="43.53121" lon="5.58154">
        <ele>921</ele>
        <time>2022-02-15T11:09:42.000Z</time>
      </trkpt>
      <trkpt lat="43.53121" lon="5.58154">
        <ele>921</ele>
        <time>2022-02-15T11:09:43.000Z</time>
      </trkpt>
      <trkpt lat="43.53121" lon="5.58154">
        <ele>921</ele>
        <time>2022-02-15T11:09:44.000Z</time>
      </trkpt>
      <trkpt lat="43.53121" lon="5.58154">
        <ele>921</ele>
        <time>2022-02-15T11:09:45.000Z</time>
      </trkpt>
      <trkpt lat="43.53121" lon="5.58154">
        <ele>921</ele>
        <time>2022-02-15T11:09:46.000Z</time>
      </trkpt>
      <trkpt lat="43.53121" lon="5.58154">
        <ele>921</ele>
        <time>2022-02-15T11:09:47.000Z</time>
      </trkpt>
      <trkpt lat="43.53121" lon="5.58154">
        <ele>921</ele>
        <time>2022-02-15T11:09:48.000Z</time>
      </trkpt>
      <trkpt lat="43.53121" lon="5.58154">
        <ele>921</ele>
        <time>2022-02-15T11:09:49.000Z</time>
      </trkpt>
      <trkpt lat="43.53121" lon="5.58154">
        <ele>921</ele>
        <time>2022-02-15T11:09:50.000Z</time>
      </trkpt>
      <trkpt lat="43.53121" lon="5.58154">
        <ele>921</ele>
        <time>2022-02-15T11:09:51.000Z</time>
      </trkpt>
      <trkpt lat="43.53121" lon="5.58154">
        <ele>921</ele>
        <time>2022-02-15T11:09:52.000Z</time>
      </trkpt>
      <trkpt lat="43.53121" lon="5.58154">
        <ele>921</ele>
        <time>2022-02-15T11:09:53.000Z</time>
      </trkpt>
      <trkpt lat="43.53121" lon="5.58154">
        <ele>921</ele>
        <time>2022-02-15T11:09:54.000Z</time>
      </trkpt>
      <trkpt lat="43.53121" lon="5.58154">
        <ele>921</ele>
        <time>2022-02-15T11:09:55.000Z</time>
      </trkpt>
      <trkpt lat="43.53121" lon="5.58154">
        <ele>921</ele>
        <time>2022-02-15T11:09:56.000Z</time>
      </trkpt>
      <trkpt lat="43.53121" lon="5.58154">
        <ele>921</ele>
        <time>2022-02-15T11:09:57.000Z</time>
      </trkpt>
      <trkpt lat="43.53121" lon="5.58154">
        <ele>921</ele>
        <time>2022-02-15T11:09:58.000Z</time>
      </trkpt>
      <trkpt lat="43.53121" lon="5.58154">
        <ele>921</ele>
        <time>2022-02-15T11:09:59.000Z</time>
      </trkpt>
      <trkpt lat="43.53121" lon="5.58154">
        <ele>921</ele>
        <time>2022-02-15T11:10:00.000Z</time>
      </trkpt>
      <trkpt lat="43.53121" lon="5.58154">
        <ele>921</ele>
        <time>2022-02-15T11:10:01.000Z</time>
      </trkpt>
      <trkpt lat="43.53121" lon="5.58154">
        <ele>921</ele>
        <time>2022-02-15T11:10:02.000Z</time>
      </trkpt>
      <trkpt lat="43.53121" lon="5.58154">
        <ele>921</ele>
        <time>2022-02-15T11:10:03.000Z</time>
      </trkpt>
      <trkpt lat="43.53121" lon="5.58154">
        <ele>921</ele>
        <time>2022-02-15T11:10:04.000Z</time>
      </trkpt>
      <trkpt lat="43.5312" lon="5.58154">
        <ele>921</ele>
        <time>2022-02-15T11:10:05.000Z</time>
      </trkpt>
      <trkpt lat="43.5312" lon="5.58154">
        <ele>921</ele>
        <time>2022-02-15T11:10:06.000Z</time>
      </trkpt>
      <trkpt lat="43.5312" lon="5.58154">
        <ele>921</ele>
        <time>2022-02-15T11:10:07.000Z</time>
      </trkpt>
      <trkpt lat="43.5312" lon="5.58154">
        <ele>921</ele>
        <time>2022-02-15T11:10:08.000Z</time>
      </trkpt>
      <trkpt lat="43.5312" lon="5.58154">
        <ele>921</ele>
        <time>2022-02-15T11:10:09.000Z</time>
      </trkpt>
      <trkpt lat="43.5312" lon="5.58154">
        <ele>921</ele>
        <time>2022-02-15T11:10:10.000Z</time>
      </trkpt>
      <trkpt lat="43.5312" lon="5.58154">
        <ele>921</ele>
        <time>2022-02-15T11:10:11.000Z</time>
      </trkpt>
      <trkpt lat="43.5312" lon="5.58154">
        <ele>921</ele>
        <time>2022-02-15T11:10:12.000Z</time>
      </trkpt>
      <trkpt lat="43.5312" lon="5.58154">
        <ele>921</ele>
        <time>2022-02-15T11:10:13.000Z</time>
      </trkpt>
      <trkpt lat="43.5312" lon="5.58154">
        <ele>921</ele>
        <time>2022-02-15T11:10:14.000Z</time>
      </trkpt>
      <trkpt lat="43.5312" lon="5.58154">
        <ele>921</ele>
        <time>2022-02-15T11:10:15.000Z</time>
      </trkpt>
      <trkpt lat="43.5312" lon="5.58154">
        <ele>921</ele>
        <time>2022-02-15T11:10:16.000Z</time>
      </trkpt>
      <trkpt lat="43.5312" lon="5.58154">
        <ele>921</ele>
        <time>2022-02-15T11:10:17.000Z</time>
      </trkpt>
      <trkpt lat="43.5312" lon="5.58154">
        <ele>921</ele>
        <time>2022-02-15T11:10:18.000Z</time>
      </trkpt>
      <trkpt lat="43.5312" lon="5.58154">
        <ele>921</ele>
        <time>2022-02-15T11:10:19.000Z</time>
      </trkpt>
      <trkpt lat="43.5312" lon="5.58154">
        <ele>921</ele>
        <time>2022-02-15T11:10:20.000Z</time>
      </trkpt>
      <trkpt lat="43.5312" lon="5.58155">
        <ele>921</ele>
        <time>2022-02-15T11:10:21.000Z</time>
      </trkpt>
      <trkpt lat="43.5312" lon="5.58155">
        <ele>921</ele>
        <time>2022-02-15T11:10:22.000Z</time>
      </trkpt>
      <trkpt lat="43.5312" lon="5.58155">
        <ele>921</ele>
        <time>2022-02-15T11:10:23.000Z</time>
      </trkpt>
      <trkpt lat="43.5312" lon="5.58155">
        <ele>921</ele>
        <time>2022-02-15T11:10:24.000Z</time>
      </trkpt>
      <trkpt lat="43.5312" lon="5.58155">
        <ele>920</ele>
        <time>2022-02-15T11:10:25.000Z</time>
      </trkpt>
      <trkpt lat="43.5312" lon="5.58154">
        <ele>920</ele>
        <time>2022-02-15T11:10:26.000Z</time>
      </trkpt>
      <trkpt lat="43.5312" lon="5.58154">
        <ele>920</ele>
        <time>2022-02-15T11:10:27.000Z</time>
      </trkpt>
      <trkpt lat="43.5312" lon="5.58154">
        <ele>920</ele>
        <time>2022-02-15T11:10:28.000Z</time>
      </trkpt>
      <trkpt lat="43.5312" lon="5.58154">
        <ele>920</ele>
        <time>2022-02-15T11:10:29.000Z</time>
      </trkpt>
      <trkpt lat="43.5312" lon="5.58154">
        <ele>920</ele>
        <time>2022-02-15T11:10:30.000Z</time>
      </trkpt>
      <trkpt lat="43.5312" lon="5.58154">
        <ele>920</ele>
        <time>2022-02-15T11:10:31.000Z</time>
      </trkpt>
      <trkpt lat="43.5312" lon="5.58154">
        <ele>920</ele>
        <time>2022-02-15T11:10:32.000Z</time>
      </trkpt>
      <trkpt lat="43.5312" lon="5.58154">
        <ele>920</ele>
        <time>2022-02-15T11:10:33.000Z</time>
      </trkpt>
      <trkpt lat="43.5312" lon="5.58154">
        <ele>920</ele>
        <time>2022-02-15T11:10:34.000Z</time>
      </trkpt>
      <trkpt lat="43.5312" lon="5.58154">
        <ele>920</ele>
        <time>2022-02-15T11:10:35.000Z</time>
      </trkpt>
      <trkpt lat="43.5312" lon="5.58154">
        <ele>920</ele>
        <time>2022-02-15T11:10:36.000Z</time>
      </trkpt>
      <trkpt lat="43.5312" lon="5.58154">
        <ele>920</ele>
        <time>2022-02-15T11:10:37.000Z</time>
      </trkpt>
      <trkpt lat="43.5312" lon="5.58154">
        <ele>920</ele>
        <time>2022-02-15T11:10:38.000Z</time>
      </trkpt>
      <trkpt lat="43.5312" lon="5.58154">
        <ele>920</ele>
        <time>2022-02-15T11:10:39.000Z</time>
      </trkpt>
      <trkpt lat="43.5312" lon="5.58154">
        <ele>920</ele>
        <time>2022-02-15T11:10:40.000Z</time>
      </trkpt>
      <trkpt lat="43.5312" lon="5.58154">
        <ele>920</ele>
        <time>2022-02-15T11:10:41.000Z</time>
      </trkpt>
      <trkpt lat="43.5312" lon="5.58154">
        <ele>920</ele>
        <time>2022-02-15T11:10:42.000Z</time>
      </trkpt>
      <trkpt lat="43.5312" lon="5.58154">
        <ele>920</ele>
        <time>2022-02-15T11:10:43.000Z</time>
      </trkpt>
      <trkpt lat="43.5312" lon="5.58154">
        <ele>920</ele>
        <time>2022-02-15T11:10:44.000Z</time>
      </trkpt>
      <trkpt lat="43.5312" lon="5.58154">
        <ele>920</ele>
        <time>2022-02-15T11:10:45.000Z</time>
      </trkpt>
      <trkpt lat="43.5312" lon="5.58154">
        <ele>920</ele>
        <time>2022-02-15T11:10:46.000Z</time>
      </trkpt>
      <trkpt lat="43.5312" lon="5.58154">
        <ele>920</ele>
        <time>2022-02-15T11:10:47.000Z</time>
      </trkpt>
      <trkpt lat="43.5312" lon="5.58154">
        <ele>920</ele>
        <time>2022-02-15T11:10:48.000Z</time>
      </trkpt>
      <trkpt lat="43.5312" lon="5.58154">
        <ele>920</ele>
        <time>2022-02-15T11:10:49.000Z</time>
      </trkpt>
      <trkpt lat="43.5312" lon="5.58154">
        <ele>920</ele>
        <time>2022-02-15T11:10:50.000Z</time>
      </trkpt>
      <trkpt lat="43.5312" lon="5.58154">
        <ele>920</ele>
        <time>2022-02-15T11:10:51.000Z</time>
      </trkpt>
      <trkpt lat="43.5312" lon="5.58155">
        <ele>920</ele>
        <time>2022-02-15T11:10:52.000Z</time>
      </trkpt>
      <trkpt lat="43.5312" lon="5.58155">
        <ele>920</ele>
        <time>2022-02-15T11:10:53.000Z</time>
      </trkpt>
      <trkpt lat="43.5312" lon="5.58154">
        <ele>920</ele>
        <time>2022-02-15T11:10:54.000Z</time>
      </trkpt>
      <trkpt lat="43.5312" lon="5.58154">
        <ele>920</ele>
        <time>2022-02-15T11:10:55.000Z</time>
      </trkpt>
      <trkpt lat="43.5312" lon="5.58154">
        <ele>920</ele>
        <time>2022-02-15T11:10:56.000Z</time>
      </trkpt>
      <trkpt lat="43.5312" lon="5.58154">
        <ele>920</ele>
        <time>2022-02-15T11:10:57.000Z</time>
      </trkpt>
      <trkpt lat="43.5312" lon="5.58154">
        <ele>920</ele>
        <time>2022-02-15T11:10:58.000Z</time>
      </trkpt>
      <trkpt lat="43.5312" lon="5.58154">
        <ele>920</ele>
        <time>2022-02-15T11:10:59.000Z</time>
      </trkpt>
      <trkpt lat="43.5312" lon="5.58154">
        <ele>920</ele>
        <time>2022-02-15T11:11:00.000Z</time>
      </trkpt>
      <trkpt lat="43.5312" lon="5.58154">
        <ele>920</ele>
        <time>2022-02-15T11:11:01.000Z</time>
      </trkpt>
      <trkpt lat="43.5312" lon="5.58154">
        <ele>920</ele>
        <time>2022-02-15T11:11:02.000Z</time>
      </trkpt>
      <trkpt lat="43.5312" lon="5.58154">
        <ele>920</ele>
        <time>2022-02-15T11:11:03.000Z</time>
      </trkpt>
      <trkpt lat="43.5312" lon="5.58154">
        <ele>920</ele>
        <time>2022-02-15T11:11:04.000Z</time>
      </trkpt>
      <trkpt lat="43.5312" lon="5.58154">
        <ele>920</ele>
        <time>2022-02-15T11:11:05.000Z</time>
      </trkpt>
      <trkpt lat="43.5312" lon="5.58154">
        <ele>920</ele>
        <time>2022-02-15T11:11:06.000Z</time>
      </trkpt>
      <trkpt lat="43.5312" lon="5.58154">
        <ele>920</ele>
        <time>2022-02-15T11:11:07.000Z</time>
      </trkpt>
      <trkpt lat="43.5312" lon="5.58154">
        <ele>920</ele>
        <time>2022-02-15T11:11:08.000Z</time>
      </trkpt>
      <trkpt lat="43.5312" lon="5.58154">
        <ele>920</ele>
        <time>2022-02-15T11:11:09.000Z</time>
      </trkpt>
      <trkpt lat="43.5312" lon="5.58154">
        <ele>920</ele>
        <time>2022-02-15T11:11:10.000Z</time>
      </trkpt>
      <trkpt lat="43.5312" lon="5.58154">
        <ele>920</ele>
        <time>2022-02-15T11:11:11.000Z</time>
      </trkpt>
      <trkpt lat="43.5312" lon="5.58154">
        <ele>920</ele>
        <time>2022-02-15T11:11:12.000Z</time>
      </trkpt>
      <trkpt lat="43.5312" lon="5.58154">
        <ele>920</ele>
        <time>2022-02-15T11:11:13.000Z</time>
      </trkpt>
      <trkpt lat="43.5312" lon="5.58154">
        <ele>920</ele>
        <time>2022-02-15T11:11:14.000Z</time>
      </trkpt>
      <trkpt lat="43.5312" lon="5.58154">
        <ele>920</ele>
        <time>2022-02-15T11:11:15.000Z</time>
      </trkpt>
      <trkpt lat="43.5312" lon="5.58154">
        <ele>920</ele>
        <time>2022-02-15T11:11:16.000Z</time>
      </trkpt>
      <trkpt lat="43.5312" lon="5.58155">
        <ele>920</ele>
        <time>2022-02-15T11:11:17.000Z</time>
      </trkpt>
      <trkpt lat="43.5312" lon="5.58155">
        <ele>920</ele>
        <time>2022-02-15T11:11:18.000Z</time>
      </trkpt>
      <trkpt lat="43.5312" lon="5.58155">
        <ele>920</ele>
        <time>2022-02-15T11:11:19.000Z</time>
      </trkpt>
      <trkpt lat="43.5312" lon="5.58154">
        <ele>920</ele>
        <time>2022-02-15T11:11:20.000Z</time>
      </trkpt>
      <trkpt lat="43.5312" lon="5.58154">
        <ele>920</ele>
        <time>2022-02-15T11:11:21.000Z</time>
      </trkpt>
      <trkpt lat="43.5312" lon="5.58154">
        <ele>920</ele>
        <time>2022-02-15T11:11:22.000Z</time>
      </trkpt>
      <trkpt lat="43.5312" lon="5.58154">
        <ele>920</ele>
        <time>2022-02-15T11:11:23.000Z</time>
      </trkpt>
      <trkpt lat="43.5312" lon="5.58154">
        <ele>920</ele>
        <time>2022-02-15T11:11:24.000Z</time>
      </trkpt>
      <trkpt lat="43.5312" lon="5.58154">
        <ele>920</ele>
        <time>2022-02-15T11:11:25.000Z</time>
      </trkpt>
      <trkpt lat="43.5312" lon="5.58154">
        <ele>920</ele>
        <time>2022-02-15T11:11:26.000Z</time>
      </trkpt>
      <trkpt lat="43.5312" lon="5.58155">
        <ele>920</ele>
        <time>2022-02-15T11:11:27.000Z</time>
      </trkpt>
      <trkpt lat="43.5312" lon="5.58155">
        <ele>920</ele>
        <time>2022-02-15T11:11:28.000Z</time>
      </trkpt>
      <trkpt lat="43.5312" lon="5.58154">
        <ele>920</ele>
        <time>2022-02-15T11:11:29.000Z</time>
      </trkpt>
      <trkpt lat="43.5312" lon="5.58155">
        <ele>920</ele>
        <time>2022-02-15T11:11:30.000Z</time>
      </trkpt>
      <trkpt lat="43.5312" lon="5.58155">
        <ele>920</ele>
        <time>2022-02-15T11:11:31.000Z</time>
      </trkpt>
      <trkpt lat="43.5312" lon="5.58155">
        <ele>920</ele>
        <time>2022-02-15T11:11:32.000Z</time>
      </trkpt>
      <trkpt lat="43.5312" lon="5.58155">
        <ele>920</ele>
        <time>2022-02-15T11:11:33.000Z</time>
      </trkpt>
      <trkpt lat="43.5312" lon="5.58155">
        <ele>920</ele>
        <time>2022-02-15T11:11:34.000Z</time>
      </trkpt>
      <trkpt lat="43.5312" lon="5.58154">
        <ele>920</ele>
        <time>2022-02-15T11:11:35.000Z</time>
      </trkpt>
      <trkpt lat="43.5312" lon="5.58154">
        <ele>920</ele>
        <time>2022-02-15T11:11:36.000Z</time>
      </trkpt>
      <trkpt lat="43.5312" lon="5.58154">
        <ele>920</ele>
        <time>2022-02-15T11:11:37.000Z</time>
      </trkpt>
      <trkpt lat="43.53121" lon="5.58154">
        <ele>920</ele>
        <time>2022-02-15T11:11:38.000Z</time>
      </trkpt>
      <trkpt lat="43.53121" lon="5.58154">
        <ele>920</ele>
        <time>2022-02-15T11:11:39.000Z</time>
      </trkpt>
      <trkpt lat="43.53121" lon="5.58154">
        <ele>920</ele>
        <time>2022-02-15T11:11:40.000Z</time>
      </trkpt>
      <trkpt lat="43.53121" lon="5.58154">
        <ele>920</ele>
        <time>2022-02-15T11:11:41.000Z</time>
      </trkpt>
      <trkpt lat="43.53121" lon="5.58154">
        <ele>920</ele>
        <time>2022-02-15T11:11:42.000Z</time>
      </trkpt>
      <trkpt lat="43.53121" lon="5.58154">
        <ele>920</ele>
        <time>2022-02-15T11:11:43.000Z</time>
      </trkpt>
      <trkpt lat="43.53121" lon="5.58154">
        <ele>920</ele>
        <time>2022-02-15T11:11:44.000Z</time>
      </trkpt>
      <trkpt lat="43.53121" lon="5.58154">
        <ele>920</ele>
        <time>2022-02-15T11:11:45.000Z</time>
      </trkpt>
      <trkpt lat="43.53121" lon="5.58154">
        <ele>920</ele>
        <time>2022-02-15T11:11:46.000Z</time>
      </trkpt>
      <trkpt lat="43.53121" lon="5.58154">
        <ele>920</ele>
        <time>2022-02-15T11:11:47.000Z</time>
      </trkpt>
      <trkpt lat="43.53121" lon="5.58154">
        <ele>920</ele>
        <time>2022-02-15T11:11:48.000Z</time>
      </trkpt>
      <trkpt lat="43.53121" lon="5.58154">
        <ele>920</ele>
        <time>2022-02-15T11:11:49.000Z</time>
      </trkpt>
      <trkpt lat="43.53121" lon="5.58154">
        <ele>920</ele>
        <time>2022-02-15T11:11:50.000Z</time>
      </trkpt>
      <trkpt lat="43.53121" lon="5.58154">
        <ele>920</ele>
        <time>2022-02-15T11:11:51.000Z</time>
      </trkpt>
      <trkpt lat="43.53121" lon="5.58154">
        <ele>920</ele>
        <time>2022-02-15T11:11:52.000Z</time>
      </trkpt>
      <trkpt lat="43.53121" lon="5.58154">
        <ele>920</ele>
        <time>2022-02-15T11:11:53.000Z</time>
      </trkpt>
      <trkpt lat="43.53121" lon="5.58154">
        <ele>920</ele>
        <time>2022-02-15T11:11:54.000Z</time>
      </trkpt>
      <trkpt lat="43.53121" lon="5.58154">
        <ele>920</ele>
        <time>2022-02-15T11:11:55.000Z</time>
      </trkpt>
      <trkpt lat="43.53121" lon="5.58154">
        <ele>920</ele>
        <time>2022-02-15T11:11:56.000Z</time>
      </trkpt>
      <trkpt lat="43.53121" lon="5.58154">
        <ele>920</ele>
        <time>2022-02-15T11:11:57.000Z</time>
      </trkpt>
      <trkpt lat="43.53121" lon="5.58154">
        <ele>920</ele>
        <time>2022-02-15T11:11:58.000Z</time>
      </trkpt>
      <trkpt lat="43.53121" lon="5.58154">
        <ele>920</ele>
        <time>2022-02-15T11:11:59.000Z</time>
      </trkpt>
      <trkpt lat="43.53121" lon="5.58155">
        <ele>920</ele>
        <time>2022-02-15T11:12:00.000Z</time>
      </trkpt>
      <trkpt lat="43.53121" lon="5.58155">
        <ele>920</ele>
        <time>2022-02-15T11:12:01.000Z</time>
      </trkpt>
      <trkpt lat="43.53121" lon="5.58154">
        <ele>920</ele>
        <time>2022-02-15T11:12:02.000Z</time>
      </trkpt>
      <trkpt lat="43.53121" lon="5.58155">
        <ele>920</ele>
        <time>2022-02-15T11:12:03.000Z</time>
      </trkpt>
      <trkpt lat="43.53121" lon="5.58155">
        <ele>920</ele>
        <time>2022-02-15T11:12:04.000Z</time>
      </trkpt>
      <trkpt lat="43.53121" lon="5.58155">
        <ele>920</ele>
        <time>2022-02-15T11:12:05.000Z</time>
      </trkpt>
      <trkpt lat="43.53121" lon="5.58155">
        <ele>920</ele>
        <time>2022-02-15T11:12:06.000Z</time>
      </trkpt>
      <trkpt lat="43.53121" lon="5.58155">
        <ele>920</ele>
        <time>2022-02-15T11:12:07.000Z</time>
      </trkpt>
      <trkpt lat="43.53121" lon="5.58155">
        <ele>920</ele>
        <time>2022-02-15T11:12:08.000Z</time>
      </trkpt>
      <trkpt lat="43.53121" lon="5.58155">
        <ele>920</ele>
        <time>2022-02-15T11:12:09.000Z</time>
      </trkpt>
      <trkpt lat="43.53121" lon="5.58155">
        <ele>920</ele>
        <time>2022-02-15T11:12:10.000Z</time>
      </trkpt>
      <trkpt lat="43.53121" lon="5.58155">
        <ele>920</ele>
        <time>2022-02-15T11:12:11.000Z</time>
      </trkpt>
      <trkpt lat="43.53121" lon="5.58155">
        <ele>920</ele>
        <time>2022-02-15T11:12:12.000Z</time>
      </trkpt>
      <trkpt lat="43.53121" lon="5.58155">
        <ele>920</ele>
        <time>2022-02-15T11:12:13.000Z</time>
      </trkpt>
      <trkpt lat="43.53121" lon="5.58155">
        <ele>920</ele>
        <time>2022-02-15T11:12:14.000Z</time>
      </trkpt>
      <trkpt lat="43.53121" lon="5.58155">
        <ele>920</ele>
        <time>2022-02-15T11:12:15.000Z</time>
      </trkpt>
      <trkpt lat="43.53121" lon="5.58155">
        <ele>920</ele>
        <time>2022-02-15T11:12:16.000Z</time>
      </trkpt>
      <trkpt lat="43.53121" lon="5.58155">
        <ele>920</ele>
        <time>2022-02-15T11:12:17.000Z</time>
      </trkpt>
      <trkpt lat="43.53121" lon="5.58155">
        <ele>920</ele>
        <time>2022-02-15T11:12:18.000Z</time>
      </trkpt>
      <trkpt lat="43.53121" lon="5.58155">
        <ele>920</ele>
        <time>2022-02-15T11:12:19.000Z</time>
      </trkpt>
      <trkpt lat="43.53121" lon="5.58155">
        <ele>920</ele>
        <time>2022-02-15T11:12:20.000Z</time>
      </trkpt>
      <trkpt lat="43.53121" lon="5.58155">
        <ele>920</ele>
        <time>2022-02-15T11:12:21.000Z</time>
      </trkpt>
      <trkpt lat="43.53121" lon="5.58155">
        <ele>920</ele>
        <time>2022-02-15T11:12:22.000Z</time>
      </trkpt>
      <trkpt lat="43.53121" lon="5.58155">
        <ele>920</ele>
        <time>2022-02-15T11:12:23.000Z</time>
      </trkpt>
      <trkpt lat="43.53121" lon="5.58155">
        <ele>920</ele>
        <time>2022-02-15T11:12:24.000Z</time>
      </trkpt>
      <trkpt lat="43.53121" lon="5.58155">
        <ele>920</ele>
        <time>2022-02-15T11:12:25.000Z</time>
      </trkpt>
      <trkpt lat="43.53121" lon="5.58155">
        <ele>920</ele>
        <time>2022-02-15T11:12:26.000Z</time>
      </trkpt>
      <trkpt lat="43.53121" lon="5.58155">
        <ele>920</ele>
        <time>2022-02-15T11:12:27.000Z</time>
      </trkpt>
      <trkpt lat="43.53121" lon="5.58155">
        <ele>920</ele>
        <time>2022-02-15T11:12:28.000Z</time>
      </trkpt>
      <trkpt lat="43.53121" lon="5.58155">
        <ele>920</ele>
        <time>2022-02-15T11:12:29.000Z</time>
      </trkpt>
      <trkpt lat="43.53121" lon="5.58155">
        <ele>920</ele>
        <time>2022-02-15T11:12:30.000Z</time>
      </trkpt>
      <trkpt lat="43.53121" lon="5.58155">
        <ele>920</ele>
        <time>2022-02-15T11:12:31.000Z</time>
      </trkpt>
      <trkpt lat="43.53121" lon="5.58155">
        <ele>920</ele>
        <time>2022-02-15T11:12:32.000Z</time>
      </trkpt>
      <trkpt lat="43.53121" lon="5.58155">
        <ele>920</ele>
        <time>2022-02-15T11:12:33.000Z</time>
      </trkpt>
      <trkpt lat="43.53121" lon="5.58155">
        <ele>920</ele>
        <time>2022-02-15T11:12:34.000Z</time>
      </trkpt>
      <trkpt lat="43.53121" lon="5.58155">
        <ele>920</ele>
        <time>2022-02-15T11:12:35.000Z</time>
      </trkpt>
      <trkpt lat="43.53121" lon="5.58155">
        <ele>920</ele>
        <time>2022-02-15T11:12:36.000Z</time>
      </trkpt>
      <trkpt lat="43.53121" lon="5.58156">
        <ele>920</ele>
        <time>2022-02-15T11:12:37.000Z</time>
      </trkpt>
      <trkpt lat="43.53121" lon="5.58156">
        <ele>920</ele>
        <time>2022-02-15T11:12:38.000Z</time>
      </trkpt>
      <trkpt lat="43.53121" lon="5.58156">
        <ele>920</ele>
        <time>2022-02-15T11:12:39.000Z</time>
      </trkpt>
      <trkpt lat="43.53121" lon="5.58155">
        <ele>920</ele>
        <time>2022-02-15T11:12:40.000Z</time>
      </trkpt>
      <trkpt lat="43.53121" lon="5.58155">
        <ele>920</ele>
        <time>2022-02-15T11:12:41.000Z</time>
      </trkpt>
      <trkpt lat="43.53121" lon="5.58155">
        <ele>920</ele>
        <time>2022-02-15T11:12:42.000Z</time>
      </trkpt>
      <trkpt lat="43.53121" lon="5.58156">
        <ele>920</ele>
        <time>2022-02-15T11:12:43.000Z</time>
      </trkpt>
      <trkpt lat="43.53121" lon="5.58155">
        <ele>920</ele>
        <time>2022-02-15T11:12:44.000Z</time>
      </trkpt>
      <trkpt lat="43.53121" lon="5.58155">
        <ele>920</ele>
        <time>2022-02-15T11:12:45.000Z</time>
      </trkpt>
      <trkpt lat="43.53121" lon="5.58156">
        <ele>920</ele>
        <time>2022-02-15T11:12:46.000Z</time>
      </trkpt>
      <trkpt lat="43.53121" lon="5.58156">
        <ele>920</ele>
        <time>2022-02-15T11:12:47.000Z</time>
      </trkpt>
      <trkpt lat="43.53121" lon="5.58156">
        <ele>920</ele>
        <time>2022-02-15T11:12:48.000Z</time>
      </trkpt>
      <trkpt lat="43.53121" lon="5.58155">
        <ele>920</ele>
        <time>2022-02-15T11:12:49.000Z</time>
      </trkpt>
      <trkpt lat="43.53121" lon="5.58155">
        <ele>920</ele>
        <time>2022-02-15T11:12:50.000Z</time>
      </trkpt>
      <trkpt lat="43.53121" lon="5.58155">
        <ele>920</ele>
        <time>2022-02-15T11:12:51.000Z</time>
      </trkpt>
      <trkpt lat="43.53121" lon="5.58155">
        <ele>920</ele>
        <time>2022-02-15T11:12:52.000Z</time>
      </trkpt>
      <trkpt lat="43.53121" lon="5.58155">
        <ele>920</ele>
        <time>2022-02-15T11:12:53.000Z</time>
      </trkpt>
      <trkpt lat="43.53121" lon="5.58155">
        <ele>920</ele>
        <time>2022-02-15T11:12:54.000Z</time>
      </trkpt>
      <trkpt lat="43.53121" lon="5.58155">
        <ele>920</ele>
        <time>2022-02-15T11:12:55.000Z</time>
      </trkpt>
      <trkpt lat="43.53121" lon="5.58155">
        <ele>920</ele>
        <time>2022-02-15T11:12:56.000Z</time>
      </trkpt>
      <trkpt lat="43.53121" lon="5.58155">
        <ele>920</ele>
        <time>2022-02-15T11:12:57.000Z</time>
      </trkpt>
      <trkpt lat="43.53121" lon="5.58155">
        <ele>920</ele>
        <time>2022-02-15T11:12:58.000Z</time>
      </trkpt>
      <trkpt lat="43.53121" lon="5.58155">
        <ele>920</ele>
        <time>2022-02-15T11:12:59.000Z</time>
      </trkpt>
      <trkpt lat="43.53121" lon="5.58155">
        <ele>920</ele>
        <time>2022-02-15T11:13:00.000Z</time>
      </trkpt>
      <trkpt lat="43.53121" lon="5.58155">
        <ele>920</ele>
        <time>2022-02-15T11:13:01.000Z</time>
      </trkpt>
      <trkpt lat="43.53121" lon="5.58155">
        <ele>920</ele>
        <time>2022-02-15T11:13:02.000Z</time>
      </trkpt>
      <trkpt lat="43.53121" lon="5.58155">
        <ele>920</ele>
        <time>2022-02-15T11:13:03.000Z</time>
      </trkpt>
      <trkpt lat="43.53121" lon="5.58155">
        <ele>920</ele>
        <time>2022-02-15T11:13:04.000Z</time>
      </trkpt>
      <trkpt lat="43.53121" lon="5.58155">
        <ele>920</ele>
        <time>2022-02-15T11:13:05.000Z</time>
      </trkpt>
      <trkpt lat="43.53121" lon="5.58155">
        <ele>920</ele>
        <time>2022-02-15T11:13:06.000Z</time>
      </trkpt>
      <trkpt lat="43.53121" lon="5.58155">
        <ele>920</ele>
        <time>2022-02-15T11:13:07.000Z</time>
      </trkpt>
      <trkpt lat="43.53121" lon="5.58155">
        <ele>920</ele>
        <time>2022-02-15T11:13:08.000Z</time>
      </trkpt>
      <trkpt lat="43.53121" lon="5.58155">
        <ele>920</ele>
        <time>2022-02-15T11:13:09.000Z</time>
      </trkpt>
      <trkpt lat="43.53121" lon="5.58155">
        <ele>920</ele>
        <time>2022-02-15T11:13:10.000Z</time>
      </trkpt>
      <trkpt lat="43.53121" lon="5.58156">
        <ele>920</ele>
        <time>2022-02-15T11:13:11.000Z</time>
      </trkpt>
      <trkpt lat="43.53121" lon="5.58156">
        <ele>920</ele>
        <time>2022-02-15T11:13:12.000Z</time>
      </trkpt>
      <trkpt lat="43.53121" lon="5.58155">
        <ele>920</ele>
        <time>2022-02-15T11:13:13.000Z</time>
      </trkpt>
      <trkpt lat="43.53121" lon="5.58155">
        <ele>920</ele>
        <time>2022-02-15T11:13:14.000Z</time>
      </trkpt>
      <trkpt lat="43.53121" lon="5.58155">
        <ele>920</ele>
        <time>2022-02-15T11:13:15.000Z</time>
      </trkpt>
      <trkpt lat="43.53121" lon="5.58155">
        <ele>920</ele>
        <time>2022-02-15T11:13:16.000Z</time>
      </trkpt>
      <trkpt lat="43.53121" lon="5.58155">
        <ele>920</ele>
        <time>2022-02-15T11:13:17.000Z</time>
      </trkpt>
      <trkpt lat="43.53121" lon="5.58155">
        <ele>920</ele>
        <time>2022-02-15T11:13:18.000Z</time>
      </trkpt>
      <trkpt lat="43.53121" lon="5.58155">
        <ele>920</ele>
        <time>2022-02-15T11:13:19.000Z</time>
      </trkpt>
      <trkpt lat="43.53121" lon="5.58156">
        <ele>920</ele>
        <time>2022-02-15T11:13:20.000Z</time>
      </trkpt>
      <trkpt lat="43.53121" lon="5.58156">
        <ele>920</ele>
        <time>2022-02-15T11:13:21.000Z</time>
      </trkpt>
      <trkpt lat="43.53121" lon="5.58156">
        <ele>920</ele>
        <time>2022-02-15T11:13:22.000Z</time>
      </trkpt>
      <trkpt lat="43.53121" lon="5.58156">
        <ele>920</ele>
        <time>2022-02-15T11:13:23.000Z</time>
      </trkpt>
      <trkpt lat="43.53121" lon="5.58155">
        <ele>920</ele>
        <time>2022-02-15T11:13:24.000Z</time>
      </trkpt>
      <trkpt lat="43.53121" lon="5.58155">
        <ele>920</ele>
        <time>2022-02-15T11:13:25.000Z</time>
      </trkpt>
      <trkpt lat="43.53121" lon="5.58155">
        <ele>920</ele>
        <time>2022-02-15T11:13:26.000Z</time>
      </trkpt>
      <trkpt lat="43.53121" lon="5.58155">
        <ele>920</ele>
        <time>2022-02-15T11:13:27.000Z</time>
      </trkpt>
      <trkpt lat="43.53121" lon="5.58155">
        <ele>920</ele>
        <time>2022-02-15T11:13:28.000Z</time>
      </trkpt>
      <trkpt lat="43.53121" lon="5.58155">
        <ele>920</ele>
        <time>2022-02-15T11:13:29.000Z</time>
      </trkpt>
      <trkpt lat="43.5312" lon="5.58155">
        <ele>920</ele>
        <time>2022-02-15T11:13:30.000Z</time>
      </trkpt>
      <trkpt lat="43.53121" lon="5.58155">
        <ele>920</ele>
        <time>2022-02-15T11:13:31.000Z</time>
      </trkpt>
      <trkpt lat="43.53121" lon="5.58156">
        <ele>919</ele>
        <time>2022-02-15T11:13:32.000Z</time>
      </trkpt>
      <trkpt lat="43.5312" lon="5.58155">
        <ele>919</ele>
        <time>2022-02-15T11:13:33.000Z</time>
      </trkpt>
      <trkpt lat="43.5312" lon="5.58155">
        <ele>919</ele>
        <time>2022-02-15T11:13:34.000Z</time>
      </trkpt>
      <trkpt lat="43.5312" lon="5.58155">
        <ele>919</ele>
        <time>2022-02-15T11:13:35.000Z</time>
      </trkpt>
      <trkpt lat="43.5312" lon="5.58155">
        <ele>919</ele>
        <time>2022-02-15T11:13:36.000Z</time>
      </trkpt>
      <trkpt lat="43.5312" lon="5.58155">
        <ele>919</ele>
        <time>2022-02-15T11:13:37.000Z</time>
      </trkpt>
      <trkpt lat="43.5312" lon="5.58154">
        <ele>920</ele>
        <time>2022-02-15T11:13:38.000Z</time>
      </trkpt>
      <trkpt lat="43.5312" lon="5.58154">
        <ele>919</ele>
        <time>2022-02-15T11:13:39.000Z</time>
      </trkpt>
      <trkpt lat="43.5312" lon="5.58154">
        <ele>919</ele>
        <time>2022-02-15T11:13:40.000Z</time>
      </trkpt>
      <trkpt lat="43.5312" lon="5.58154">
        <ele>919</ele>
        <time>2022-02-15T11:13:41.000Z</time>
      </trkpt>
      <trkpt lat="43.5312" lon="5.58154">
        <ele>919</ele>
        <time>2022-02-15T11:13:42.000Z</time>
      </trkpt>
      <trkpt lat="43.5312" lon="5.58154">
        <ele>919</ele>
        <time>2022-02-15T11:13:43.000Z</time>
      </trkpt>
      <trkpt lat="43.5312" lon="5.58154">
        <ele>919</ele>
        <time>2022-02-15T11:13:44.000Z</time>
      </trkpt>
      <trkpt lat="43.5312" lon="5.58154">
        <ele>919</ele>
        <time>2022-02-15T11:13:45.000Z</time>
      </trkpt>
      <trkpt lat="43.5312" lon="5.58154">
        <ele>919</ele>
        <time>2022-02-15T11:13:46.000Z</time>
      </trkpt>
      <trkpt lat="43.5312" lon="5.58154">
        <ele>919</ele>
        <time>2022-02-15T11:13:47.000Z</time>
      </trkpt>
      <trkpt lat="43.5312" lon="5.58154">
        <ele>919</ele>
        <time>2022-02-15T11:13:48.000Z</time>
      </trkpt>
      <trkpt lat="43.5312" lon="5.58154">
        <ele>919</ele>
        <time>2022-02-15T11:13:49.000Z</time>
      </trkpt>
      <trkpt lat="43.5312" lon="5.58154">
        <ele>919</ele>
        <time>2022-02-15T11:13:50.000Z</time>
      </trkpt>
      <trkpt lat="43.5312" lon="5.58154">
        <ele>919</ele>
        <time>2022-02-15T11:13:51.000Z</time>
      </trkpt>
      <trkpt lat="43.5312" lon="5.58154">
        <ele>919</ele>
        <time>2022-02-15T11:13:52.000Z</time>
      </trkpt>
      <trkpt lat="43.5312" lon="5.58154">
        <ele>919</ele>
        <time>2022-02-15T11:13:53.000Z</time>
      </trkpt>
      <trkpt lat="43.5312" lon="5.58154">
        <ele>919</ele>
        <time>2022-02-15T11:13:54.000Z</time>
      </trkpt>
      <trkpt lat="43.5312" lon="5.58154">
        <ele>919</ele>
        <time>2022-02-15T11:13:55.000Z</time>
      </trkpt>
      <trkpt lat="43.5312" lon="5.58154">
        <ele>919</ele>
        <time>2022-02-15T11:13:56.000Z</time>
      </trkpt>
      <trkpt lat="43.5312" lon="5.58154">
        <ele>920</ele>
        <time>2022-02-15T11:13:57.000Z</time>
      </trkpt>
      <trkpt lat="43.5312" lon="5.58154">
        <ele>920</ele>
        <time>2022-02-15T11:13:58.000Z</time>
      </trkpt>
      <trkpt lat="43.5312" lon="5.58154">
        <ele>920</ele>
        <time>2022-02-15T11:13:59.000Z</time>
      </trkpt>
      <trkpt lat="43.5312" lon="5.58154">
        <ele>920</ele>
        <time>2022-02-15T11:14:00.000Z</time>
      </trkpt>
      <trkpt lat="43.5312" lon="5.58154">
        <ele>920</ele>
        <time>2022-02-15T11:14:01.000Z</time>
      </trkpt>
      <trkpt lat="43.5312" lon="5.58154">
        <ele>920</ele>
        <time>2022-02-15T11:14:02.000Z</time>
      </trkpt>
      <trkpt lat="43.5312" lon="5.58154">
        <ele>920</ele>
        <time>2022-02-15T11:14:03.000Z</time>
      </trkpt>
      <trkpt lat="43.53119" lon="5.58155">
        <ele>920</ele>
        <time>2022-02-15T11:14:04.000Z</time>
      </trkpt>
      <trkpt lat="43.53119" lon="5.58155">
        <ele>920</ele>
        <time>2022-02-15T11:14:05.000Z</time>
      </trkpt>
      <trkpt lat="43.53119" lon="5.58155">
        <ele>920</ele>
        <time>2022-02-15T11:14:06.000Z</time>
      </trkpt>
      <trkpt lat="43.53119" lon="5.58155">
        <ele>920</ele>
        <time>2022-02-15T11:14:07.000Z</time>
      </trkpt>
      <trkpt lat="43.53119" lon="5.58155">
        <ele>920</ele>
        <time>2022-02-15T11:14:08.000Z</time>
      </trkpt>
      <trkpt lat="43.53119" lon="5.58155">
        <ele>920</ele>
        <time>2022-02-15T11:14:09.000Z</time>
      </trkpt>
      <trkpt lat="43.53119" lon="5.58155">
        <ele>920</ele>
        <time>2022-02-15T11:14:10.000Z</time>
      </trkpt>
      <trkpt lat="43.53119" lon="5.58155">
        <ele>920</ele>
        <time>2022-02-15T11:14:11.000Z</time>
      </trkpt>
      <trkpt lat="43.53118" lon="5.58155">
        <ele>920</ele>
        <time>2022-02-15T11:14:12.000Z</time>
      </trkpt>
      <trkpt lat="43.53118" lon="5.58155">
        <ele>920</ele>
        <time>2022-02-15T11:14:13.000Z</time>
      </trkpt>
      <trkpt lat="43.53117" lon="5.58155">
        <ele>920</ele>
        <time>2022-02-15T11:14:14.000Z</time>
      </trkpt>
      <trkpt lat="43.53117" lon="5.58155">
        <ele>920</ele>
        <time>2022-02-15T11:14:15.000Z</time>
      </trkpt>
      <trkpt lat="43.53116" lon="5.58156">
        <ele>920</ele>
        <time>2022-02-15T11:14:16.000Z</time>
      </trkpt>
      <trkpt lat="43.53115" lon="5.58157">
        <ele>920</ele>
        <time>2022-02-15T11:14:17.000Z</time>
      </trkpt>
      <trkpt lat="43.53115" lon="5.58159">
        <ele>920</ele>
        <time>2022-02-15T11:14:18.000Z</time>
      </trkpt>
      <trkpt lat="43.53114" lon="5.5816">
        <ele>920</ele>
        <time>2022-02-15T11:14:19.000Z</time>
      </trkpt>
      <trkpt lat="43.53114" lon="5.58161">
        <ele>920</ele>
        <time>2022-02-15T11:14:20.000Z</time>
      </trkpt>
      <trkpt lat="43.53114" lon="5.58161">
        <ele>920</ele>
        <time>2022-02-15T11:14:21.000Z</time>
      </trkpt>
      <trkpt lat="43.53113" lon="5.58162">
        <ele>920</ele>
        <time>2022-02-15T11:14:22.000Z</time>
      </trkpt>
      <trkpt lat="43.53113" lon="5.58162">
        <ele>920</ele>
        <time>2022-02-15T11:14:23.000Z</time>
      </trkpt>
      <trkpt lat="43.53113" lon="5.58162">
        <ele>920</ele>
        <time>2022-02-15T11:14:24.000Z</time>
      </trkpt>
      <trkpt lat="43.53113" lon="5.58162">
        <ele>920</ele>
        <time>2022-02-15T11:14:25.000Z</time>
      </trkpt>
      <trkpt lat="43.53113" lon="5.58163">
        <ele>920</ele>
        <time>2022-02-15T11:14:26.000Z</time>
      </trkpt>
      <trkpt lat="43.53113" lon="5.58163">
        <ele>920</ele>
        <time>2022-02-15T11:14:27.000Z</time>
      </trkpt>
      <trkpt lat="43.53113" lon="5.58163">
        <ele>920</ele>
        <time>2022-02-15T11:14:28.000Z</time>
      </trkpt>
      <trkpt lat="43.53112" lon="5.58163">
        <ele>920</ele>
        <time>2022-02-15T11:14:29.000Z</time>
      </trkpt>
      <trkpt lat="43.53112" lon="5.58162">
        <ele>920</ele>
        <time>2022-02-15T11:14:30.000Z</time>
      </trkpt>
      <trkpt lat="43.53111" lon="5.58163">
        <ele>920</ele>
        <time>2022-02-15T11:14:31.000Z</time>
      </trkpt>
      <trkpt lat="43.53111" lon="5.58163">
        <ele>920</ele>
        <time>2022-02-15T11:14:32.000Z</time>
      </trkpt>
      <trkpt lat="43.5311" lon="5.58164">
        <ele>920</ele>
        <time>2022-02-15T11:14:33.000Z</time>
      </trkpt>
      <trkpt lat="43.5311" lon="5.58164">
        <ele>920</ele>
        <time>2022-02-15T11:14:34.000Z</time>
      </trkpt>
      <trkpt lat="43.53109" lon="5.58165">
        <ele>920</ele>
        <time>2022-02-15T11:14:35.000Z</time>
      </trkpt>
      <trkpt lat="43.53109" lon="5.58166">
        <ele>920</ele>
        <time>2022-02-15T11:14:36.000Z</time>
      </trkpt>
      <trkpt lat="43.53109" lon="5.58167">
        <ele>920</ele>
        <time>2022-02-15T11:14:37.000Z</time>
      </trkpt>
      <trkpt lat="43.53108" lon="5.58167">
        <ele>920</ele>
        <time>2022-02-15T11:14:38.000Z</time>
      </trkpt>
      <trkpt lat="43.53107" lon="5.58168">
        <ele>920</ele>
        <time>2022-02-15T11:14:39.000Z</time>
      </trkpt>
      <trkpt lat="43.53107" lon="5.58168">
        <ele>920</ele>
        <time>2022-02-15T11:14:40.000Z</time>
      </trkpt>
      <trkpt lat="43.53106" lon="5.58169">
        <ele>920</ele>
        <time>2022-02-15T11:14:41.000Z</time>
      </trkpt>
      <trkpt lat="43.53106" lon="5.5817">
        <ele>920</ele>
        <time>2022-02-15T11:14:42.000Z</time>
      </trkpt>
      <trkpt lat="43.53105" lon="5.5817">
        <ele>920</ele>
        <time>2022-02-15T11:14:43.000Z</time>
      </trkpt>
      <trkpt lat="43.53105" lon="5.5817">
        <ele>920</ele>
        <time>2022-02-15T11:14:44.000Z</time>
      </trkpt>
      <trkpt lat="43.53104" lon="5.58171">
        <ele>920</ele>
        <time>2022-02-15T11:14:45.000Z</time>
      </trkpt>
      <trkpt lat="43.53104" lon="5.58171">
        <ele>920</ele>
        <time>2022-02-15T11:14:46.000Z</time>
      </trkpt>
      <trkpt lat="43.53103" lon="5.58172">
        <ele>920</ele>
        <time>2022-02-15T11:14:47.000Z</time>
      </trkpt>
      <trkpt lat="43.53103" lon="5.58172">
        <ele>920</ele>
        <time>2022-02-15T11:14:48.000Z</time>
      </trkpt>
      <trkpt lat="43.53103" lon="5.58173">
        <ele>920</ele>
        <time>2022-02-15T11:14:49.000Z</time>
      </trkpt>
      <trkpt lat="43.53102" lon="5.58173">
        <ele>920</ele>
        <time>2022-02-15T11:14:50.000Z</time>
      </trkpt>
      <trkpt lat="43.53102" lon="5.58174">
        <ele>920</ele>
        <time>2022-02-15T11:14:51.000Z</time>
      </trkpt>
      <trkpt lat="43.53101" lon="5.58175">
        <ele>921</ele>
        <time>2022-02-15T11:14:52.000Z</time>
      </trkpt>
      <trkpt lat="43.53101" lon="5.58176">
        <ele>920</ele>
        <time>2022-02-15T11:14:53.000Z</time>
      </trkpt>
      <trkpt lat="43.531" lon="5.58176">
        <ele>920</ele>
        <time>2022-02-15T11:14:54.000Z</time>
      </trkpt>
      <trkpt lat="43.531" lon="5.58177">
        <ele>920</ele>
        <time>2022-02-15T11:14:55.000Z</time>
      </trkpt>
      <trkpt lat="43.531" lon="5.58177">
        <ele>921</ele>
        <time>2022-02-15T11:14:56.000Z</time>
      </trkpt>
      <trkpt lat="43.53099" lon="5.58177">
        <ele>921</ele>
        <time>2022-02-15T11:14:57.000Z</time>
      </trkpt>
      <trkpt lat="43.53099" lon="5.58178">
        <ele>921</ele>
        <time>2022-02-15T11:14:58.000Z</time>
      </trkpt>
      <trkpt lat="43.53099" lon="5.58178">
        <ele>921</ele>
        <time>2022-02-15T11:14:59.000Z</time>
      </trkpt>
      <trkpt lat="43.53099" lon="5.58178">
        <ele>921</ele>
        <time>2022-02-15T11:15:00.000Z</time>
      </trkpt>
      <trkpt lat="43.53099" lon="5.58178">
        <ele>921</ele>
        <time>2022-02-15T11:15:01.000Z</time>
      </trkpt>
      <trkpt lat="43.53099" lon="5.58178">
        <ele>921</ele>
        <time>2022-02-15T11:15:02.000Z</time>
      </trkpt>
      <trkpt lat="43.53098" lon="5.58179">
        <ele>921</ele>
        <time>2022-02-15T11:15:03.000Z</time>
      </trkpt>
      <trkpt lat="43.53098" lon="5.58179">
        <ele>921</ele>
        <time>2022-02-15T11:15:04.000Z</time>
      </trkpt>
      <trkpt lat="43.53098" lon="5.58179">
        <ele>921</ele>
        <time>2022-02-15T11:15:05.000Z</time>
      </trkpt>
      <trkpt lat="43.53098" lon="5.58179">
        <ele>921</ele>
        <time>2022-02-15T11:15:06.000Z</time>
      </trkpt>
      <trkpt lat="43.53097" lon="5.58179">
        <ele>921</ele>
        <time>2022-02-15T11:15:07.000Z</time>
      </trkpt>
      <trkpt lat="43.53097" lon="5.58179">
        <ele>921</ele>
        <time>2022-02-15T11:15:08.000Z</time>
      </trkpt>
      <trkpt lat="43.53097" lon="5.58179">
        <ele>921</ele>
        <time>2022-02-15T11:15:09.000Z</time>
      </trkpt>
      <trkpt lat="43.53097" lon="5.5818">
        <ele>921</ele>
        <time>2022-02-15T11:15:10.000Z</time>
      </trkpt>
      <trkpt lat="43.53097" lon="5.5818">
        <ele>921</ele>
        <time>2022-02-15T11:15:11.000Z</time>
      </trkpt>
      <trkpt lat="43.53096" lon="5.58181">
        <ele>921</ele>
        <time>2022-02-15T11:15:12.000Z</time>
      </trkpt>
      <trkpt lat="43.53096" lon="5.58181">
        <ele>921</ele>
        <time>2022-02-15T11:15:13.000Z</time>
      </trkpt>
      <trkpt lat="43.53095" lon="5.58182">
        <ele>921</ele>
        <time>2022-02-15T11:15:14.000Z</time>
      </trkpt>
      <trkpt lat="43.53094" lon="5.58183">
        <ele>921</ele>
        <time>2022-02-15T11:15:15.000Z</time>
      </trkpt>
      <trkpt lat="43.53093" lon="5.58183">
        <ele>921</ele>
        <time>2022-02-15T11:15:16.000Z</time>
      </trkpt>
      <trkpt lat="43.53093" lon="5.58184">
        <ele>921</ele>
        <time>2022-02-15T11:15:17.000Z</time>
      </trkpt>
      <trkpt lat="43.53093" lon="5.58184">
        <ele>921</ele>
        <time>2022-02-15T11:15:18.000Z</time>
      </trkpt>
      <trkpt lat="43.53092" lon="5.58185">
        <ele>921</ele>
        <time>2022-02-15T11:15:19.000Z</time>
      </trkpt>
      <trkpt lat="43.53092" lon="5.58185">
        <ele>921</ele>
        <time>2022-02-15T11:15:20.000Z</time>
      </trkpt>
      <trkpt lat="43.53091" lon="5.58185">
        <ele>921</ele>
        <time>2022-02-15T11:15:21.000Z</time>
      </trkpt>
      <trkpt lat="43.53091" lon="5.58186">
        <ele>921</ele>
        <time>2022-02-15T11:15:22.000Z</time>
      </trkpt>
      <trkpt lat="43.5309" lon="5.58186">
        <ele>921</ele>
        <time>2022-02-15T11:15:23.000Z</time>
      </trkpt>
      <trkpt lat="43.53089" lon="5.58187">
        <ele>921</ele>
        <time>2022-02-15T11:15:24.000Z</time>
      </trkpt>
      <trkpt lat="43.53089" lon="5.58187">
        <ele>921</ele>
        <time>2022-02-15T11:15:25.000Z</time>
      </trkpt>
      <trkpt lat="43.53089" lon="5.58187">
        <ele>921</ele>
        <time>2022-02-15T11:15:26.000Z</time>
      </trkpt>
      <trkpt lat="43.53089" lon="5.58187">
        <ele>921</ele>
        <time>2022-02-15T11:15:27.000Z</time>
      </trkpt>
      <trkpt lat="43.53089" lon="5.58187">
        <ele>921</ele>
        <time>2022-02-15T11:15:28.000Z</time>
      </trkpt>
      <trkpt lat="43.53089" lon="5.58187">
        <ele>921</ele>
        <time>2022-02-15T11:15:29.000Z</time>
      </trkpt>
      <trkpt lat="43.53089" lon="5.58187">
        <ele>921</ele>
        <time>2022-02-15T11:15:30.000Z</time>
      </trkpt>
      <trkpt lat="43.53089" lon="5.58187">
        <ele>921</ele>
        <time>2022-02-15T11:15:31.000Z</time>
      </trkpt>
      <trkpt lat="43.53089" lon="5.58187">
        <ele>921</ele>
        <time>2022-02-15T11:15:32.000Z</time>
      </trkpt>
      <trkpt lat="43.53089" lon="5.58187">
        <ele>921</ele>
        <time>2022-02-15T11:15:33.000Z</time>
      </trkpt>
      <trkpt lat="43.53089" lon="5.58187">
        <ele>921</ele>
        <time>2022-02-15T11:15:34.000Z</time>
      </trkpt>
      <trkpt lat="43.53089" lon="5.58187">
        <ele>921</ele>
        <time>2022-02-15T11:15:35.000Z</time>
      </trkpt>
      <trkpt lat="43.53089" lon="5.58187">
        <ele>921</ele>
        <time>2022-02-15T11:15:36.000Z</time>
      </trkpt>
      <trkpt lat="43.53089" lon="5.58187">
        <ele>921</ele>
        <time>2022-02-15T11:15:37.000Z</time>
      </trkpt>
      <trkpt lat="43.53089" lon="5.58187">
        <ele>921</ele>
        <time>2022-02-15T11:15:38.000Z</time>
      </trkpt>
      <trkpt lat="43.53089" lon="5.58187">
        <ele>921</ele>
        <time>2022-02-15T11:15:39.000Z</time>
      </trkpt>
      <trkpt lat="43.53089" lon="5.58187">
        <ele>921</ele>
        <time>2022-02-15T11:15:40.000Z</time>
      </trkpt>
      <trkpt lat="43.53089" lon="5.58187">
        <ele>921</ele>
        <time>2022-02-15T11:15:41.000Z</time>
      </trkpt>
      <trkpt lat="43.53089" lon="5.58187">
        <ele>921</ele>
        <time>2022-02-15T11:15:42.000Z</time>
      </trkpt>
      <trkpt lat="43.53089" lon="5.58187">
        <ele>921</ele>
        <time>2022-02-15T11:15:43.000Z</time>
      </trkpt>
      <trkpt lat="43.53089" lon="5.58187">
        <ele>921</ele>
        <time>2022-02-15T11:15:44.000Z</time>
      </trkpt>
      <trkpt lat="43.53089" lon="5.58187">
        <ele>921</ele>
        <time>2022-02-15T11:15:45.000Z</time>
      </trkpt>
      <trkpt lat="43.53089" lon="5.58187">
        <ele>921</ele>
        <time>2022-02-15T11:15:46.000Z</time>
      </trkpt>
      <trkpt lat="43.53089" lon="5.58187">
        <ele>921</ele>
        <time>2022-02-15T11:15:47.000Z</time>
      </trkpt>
      <trkpt lat="43.53089" lon="5.58187">
        <ele>921</ele>
        <time>2022-02-15T11:15:48.000Z</time>
      </trkpt>
      <trkpt lat="43.53089" lon="5.58188">
        <ele>921</ele>
        <time>2022-02-15T11:15:49.000Z</time>
      </trkpt>
      <trkpt lat="43.53089" lon="5.58188">
        <ele>921</ele>
        <time>2022-02-15T11:15:50.000Z</time>
      </trkpt>
      <trkpt lat="43.53089" lon="5.58188">
        <ele>921</ele>
        <time>2022-02-15T11:15:51.000Z</time>
      </trkpt>
      <trkpt lat="43.53088" lon="5.58188">
        <ele>921</ele>
        <time>2022-02-15T11:15:52.000Z</time>
      </trkpt>
      <trkpt lat="43.53088" lon="5.58188">
        <ele>921</ele>
        <time>2022-02-15T11:15:53.000Z</time>
      </trkpt>
      <trkpt lat="43.53088" lon="5.58188">
        <ele>921</ele>
        <time>2022-02-15T11:15:54.000Z</time>
      </trkpt>
      <trkpt lat="43.53088" lon="5.58188">
        <ele>921</ele>
        <time>2022-02-15T11:15:55.000Z</time>
      </trkpt>
      <trkpt lat="43.53088" lon="5.58188">
        <ele>921</ele>
        <time>2022-02-15T11:15:56.000Z</time>
      </trkpt>
      <trkpt lat="43.53088" lon="5.58188">
        <ele>921</ele>
        <time>2022-02-15T11:15:57.000Z</time>
      </trkpt>
      <trkpt lat="43.53089" lon="5.58187">
        <ele>921</ele>
        <time>2022-02-15T11:15:58.000Z</time>
      </trkpt>
      <trkpt lat="43.53089" lon="5.58187">
        <ele>921</ele>
        <time>2022-02-15T11:15:59.000Z</time>
      </trkpt>
      <trkpt lat="43.53089" lon="5.58186">
        <ele>921</ele>
        <time>2022-02-15T11:16:00.000Z</time>
      </trkpt>
      <trkpt lat="43.53089" lon="5.58186">
        <ele>921</ele>
        <time>2022-02-15T11:16:01.000Z</time>
      </trkpt>
      <trkpt lat="43.53089" lon="5.58186">
        <ele>921</ele>
        <time>2022-02-15T11:16:02.000Z</time>
      </trkpt>
      <trkpt lat="43.53089" lon="5.58186">
        <ele>921</ele>
        <time>2022-02-15T11:16:03.000Z</time>
      </trkpt>
      <trkpt lat="43.53089" lon="5.58186">
        <ele>921</ele>
        <time>2022-02-15T11:16:04.000Z</time>
      </trkpt>
      <trkpt lat="43.53089" lon="5.58186">
        <ele>921</ele>
        <time>2022-02-15T11:16:05.000Z</time>
      </trkpt>
      <trkpt lat="43.53089" lon="5.58186">
        <ele>921</ele>
        <time>2022-02-15T11:16:06.000Z</time>
      </trkpt>
      <trkpt lat="43.53089" lon="5.58186">
        <ele>921</ele>
        <time>2022-02-15T11:16:07.000Z</time>
      </trkpt>
      <trkpt lat="43.53089" lon="5.58186">
        <ele>921</ele>
        <time>2022-02-15T11:16:08.000Z</time>
      </trkpt>
      <trkpt lat="43.53089" lon="5.58187">
        <ele>921</ele>
        <time>2022-02-15T11:16:09.000Z</time>
      </trkpt>
      <trkpt lat="43.53088" lon="5.58187">
        <ele>922</ele>
        <time>2022-02-15T11:16:10.000Z</time>
      </trkpt>
      <trkpt lat="43.53088" lon="5.58187">
        <ele>922</ele>
        <time>2022-02-15T11:16:11.000Z</time>
      </trkpt>
      <trkpt lat="43.53088" lon="5.58187">
        <ele>922</ele>
        <time>2022-02-15T11:16:12.000Z</time>
      </trkpt>
      <trkpt lat="43.53088" lon="5.58187">
        <ele>922</ele>
        <time>2022-02-15T11:16:13.000Z</time>
      </trkpt>
      <trkpt lat="43.53088" lon="5.58187">
        <ele>922</ele>
        <time>2022-02-15T11:16:14.000Z</time>
      </trkpt>
      <trkpt lat="43.53088" lon="5.58187">
        <ele>922</ele>
        <time>2022-02-15T11:16:15.000Z</time>
      </trkpt>
      <trkpt lat="43.53088" lon="5.58187">
        <ele>922</ele>
        <time>2022-02-15T11:16:16.000Z</time>
      </trkpt>
      <trkpt lat="43.53088" lon="5.58187">
        <ele>922</ele>
        <time>2022-02-15T11:16:17.000Z</time>
      </trkpt>
      <trkpt lat="43.53088" lon="5.58186">
        <ele>922</ele>
        <time>2022-02-15T11:16:18.000Z</time>
      </trkpt>
      <trkpt lat="43.53088" lon="5.58187">
        <ele>922</ele>
        <time>2022-02-15T11:16:19.000Z</time>
      </trkpt>
      <trkpt lat="43.53088" lon="5.58187">
        <ele>922</ele>
        <time>2022-02-15T11:16:20.000Z</time>
      </trkpt>
      <trkpt lat="43.53087" lon="5.58187">
        <ele>922</ele>
        <time>2022-02-15T11:16:21.000Z</time>
      </trkpt>
      <trkpt lat="43.53087" lon="5.58187">
        <ele>922</ele>
        <time>2022-02-15T11:16:22.000Z</time>
      </trkpt>
      <trkpt lat="43.53087" lon="5.58186">
        <ele>922</ele>
        <time>2022-02-15T11:16:23.000Z</time>
      </trkpt>
      <trkpt lat="43.53087" lon="5.58186">
        <ele>922</ele>
        <time>2022-02-15T11:16:24.000Z</time>
      </trkpt>
      <trkpt lat="43.53087" lon="5.58186">
        <ele>922</ele>
        <time>2022-02-15T11:16:25.000Z</time>
      </trkpt>
      <trkpt lat="43.53087" lon="5.58186">
        <ele>922</ele>
        <time>2022-02-15T11:16:26.000Z</time>
      </trkpt>
      <trkpt lat="43.53087" lon="5.58186">
        <ele>922</ele>
        <time>2022-02-15T11:16:27.000Z</time>
      </trkpt>
      <trkpt lat="43.53088" lon="5.58186">
        <ele>922</ele>
        <time>2022-02-15T11:16:28.000Z</time>
      </trkpt>
      <trkpt lat="43.53088" lon="5.58186">
        <ele>922</ele>
        <time>2022-02-15T11:16:29.000Z</time>
      </trkpt>
      <trkpt lat="43.53088" lon="5.58186">
        <ele>922</ele>
        <time>2022-02-15T11:16:30.000Z</time>
      </trkpt>
      <trkpt lat="43.53088" lon="5.58185">
        <ele>922</ele>
        <time>2022-02-15T11:16:31.000Z</time>
      </trkpt>
      <trkpt lat="43.53088" lon="5.58186">
        <ele>922</ele>
        <time>2022-02-15T11:16:32.000Z</time>
      </trkpt>
      <trkpt lat="43.53088" lon="5.58186">
        <ele>922</ele>
        <time>2022-02-15T11:16:33.000Z</time>
      </trkpt>
      <trkpt lat="43.53088" lon="5.58186">
        <ele>922</ele>
        <time>2022-02-15T11:16:34.000Z</time>
      </trkpt>
      <trkpt lat="43.53088" lon="5.58186">
        <ele>922</ele>
        <time>2022-02-15T11:16:35.000Z</time>
      </trkpt>
      <trkpt lat="43.53088" lon="5.58186">
        <ele>922</ele>
        <time>2022-02-15T11:16:36.000Z</time>
      </trkpt>
      <trkpt lat="43.53088" lon="5.58186">
        <ele>922</ele>
        <time>2022-02-15T11:16:37.000Z</time>
      </trkpt>
      <trkpt lat="43.53088" lon="5.58186">
        <ele>922</ele>
        <time>2022-02-15T11:16:38.000Z</time>
      </trkpt>
      <trkpt lat="43.53087" lon="5.58186">
        <ele>923</ele>
        <time>2022-02-15T11:16:39.000Z</time>
      </trkpt>
      <trkpt lat="43.53088" lon="5.58186">
        <ele>923</ele>
        <time>2022-02-15T11:16:40.000Z</time>
      </trkpt>
      <trkpt lat="43.53088" lon="5.58186">
        <ele>923</ele>
        <time>2022-02-15T11:16:41.000Z</time>
      </trkpt>
      <trkpt lat="43.53087" lon="5.58186">
        <ele>923</ele>
        <time>2022-02-15T11:16:42.000Z</time>
      </trkpt>
      <trkpt lat="43.53087" lon="5.58186">
        <ele>923</ele>
        <time>2022-02-15T11:16:43.000Z</time>
      </trkpt>
      <trkpt lat="43.53087" lon="5.58186">
        <ele>923</ele>
        <time>2022-02-15T11:16:44.000Z</time>
      </trkpt>
      <trkpt lat="43.53087" lon="5.58186">
        <ele>923</ele>
        <time>2022-02-15T11:16:45.000Z</time>
      </trkpt>
      <trkpt lat="43.53087" lon="5.58187">
        <ele>923</ele>
        <time>2022-02-15T11:16:46.000Z</time>
      </trkpt>
      <trkpt lat="43.53087" lon="5.58186">
        <ele>923</ele>
        <time>2022-02-15T11:16:47.000Z</time>
      </trkpt>
      <trkpt lat="43.53087" lon="5.58186">
        <ele>923</ele>
        <time>2022-02-15T11:16:48.000Z</time>
      </trkpt>
      <trkpt lat="43.53087" lon="5.58186">
        <ele>923</ele>
        <time>2022-02-15T11:16:49.000Z</time>
      </trkpt>
      <trkpt lat="43.53087" lon="5.58186">
        <ele>923</ele>
        <time>2022-02-15T11:16:50.000Z</time>
      </trkpt>
      <trkpt lat="43.53087" lon="5.58186">
        <ele>923</ele>
        <time>2022-02-15T11:16:51.000Z</time>
      </trkpt>
      <trkpt lat="43.53087" lon="5.58186">
        <ele>923</ele>
        <time>2022-02-15T11:16:52.000Z</time>
      </trkpt>
      <trkpt lat="43.53087" lon="5.58186">
        <ele>923</ele>
        <time>2022-02-15T11:16:53.000Z</time>
      </trkpt>
      <trkpt lat="43.53087" lon="5.58186">
        <ele>923</ele>
        <time>2022-02-15T11:16:54.000Z</time>
      </trkpt>
      <trkpt lat="43.53087" lon="5.58186">
        <ele>923</ele>
        <time>2022-02-15T11:16:55.000Z</time>
      </trkpt>
      <trkpt lat="43.53087" lon="5.58186">
        <ele>923</ele>
        <time>2022-02-15T11:16:56.000Z</time>
      </trkpt>
      <trkpt lat="43.53087" lon="5.58186">
        <ele>923</ele>
        <time>2022-02-15T11:16:57.000Z</time>
      </trkpt>
      <trkpt lat="43.53087" lon="5.58186">
        <ele>923</ele>
        <time>2022-02-15T11:16:58.000Z</time>
      </trkpt>
      <trkpt lat="43.53087" lon="5.58186">
        <ele>923</ele>
        <time>2022-02-15T11:16:59.000Z</time>
      </trkpt>
      <trkpt lat="43.53087" lon="5.58186">
        <ele>923</ele>
        <time>2022-02-15T11:17:00.000Z</time>
      </trkpt>
      <trkpt lat="43.53087" lon="5.58186">
        <ele>923</ele>
        <time>2022-02-15T11:17:01.000Z</time>
      </trkpt>
      <trkpt lat="43.53087" lon="5.58186">
        <ele>923</ele>
        <time>2022-02-15T11:17:02.000Z</time>
      </trkpt>
      <trkpt lat="43.53087" lon="5.58186">
        <ele>923</ele>
        <time>2022-02-15T11:17:03.000Z</time>
      </trkpt>
      <trkpt lat="43.53087" lon="5.58186">
        <ele>923</ele>
        <time>2022-02-15T11:17:04.000Z</time>
      </trkpt>
      <trkpt lat="43.53087" lon="5.58186">
        <ele>923</ele>
        <time>2022-02-15T11:17:05.000Z</time>
      </trkpt>
      <trkpt lat="43.53087" lon="5.58186">
        <ele>923</ele>
        <time>2022-02-15T11:17:06.000Z</time>
      </trkpt>
      <trkpt lat="43.53087" lon="5.58186">
        <ele>923</ele>
        <time>2022-02-15T11:17:07.000Z</time>
      </trkpt>
      <trkpt lat="43.53087" lon="5.58186">
        <ele>923</ele>
        <time>2022-02-15T11:17:08.000Z</time>
      </trkpt>
      <trkpt lat="43.53087" lon="5.58186">
        <ele>923</ele>
        <time>2022-02-15T11:17:09.000Z</time>
      </trkpt>
      <trkpt lat="43.53087" lon="5.58186">
        <ele>923</ele>
        <time>2022-02-15T11:17:10.000Z</time>
      </trkpt>
      <trkpt lat="43.53087" lon="5.58186">
        <ele>923</ele>
        <time>2022-02-15T11:17:11.000Z</time>
      </trkpt>
      <trkpt lat="43.53087" lon="5.58186">
        <ele>923</ele>
        <time>2022-02-15T11:17:12.000Z</time>
      </trkpt>
      <trkpt lat="43.53087" lon="5.58187">
        <ele>923</ele>
        <time>2022-02-15T11:17:13.000Z</time>
      </trkpt>
      <trkpt lat="43.53087" lon="5.58187">
        <ele>923</ele>
        <time>2022-02-15T11:17:14.000Z</time>
      </trkpt>
      <trkpt lat="43.53087" lon="5.58187">
        <ele>923</ele>
        <time>2022-02-15T11:17:15.000Z</time>
      </trkpt>
      <trkpt lat="43.53087" lon="5.58186">
        <ele>923</ele>
        <time>2022-02-15T11:17:16.000Z</time>
      </trkpt>
      <trkpt lat="43.53087" lon="5.58186">
        <ele>923</ele>
        <time>2022-02-15T11:17:17.000Z</time>
      </trkpt>
      <trkpt lat="43.53087" lon="5.58186">
        <ele>923</ele>
        <time>2022-02-15T11:17:18.000Z</time>
      </trkpt>
      <trkpt lat="43.53087" lon="5.58186">
        <ele>923</ele>
        <time>2022-02-15T11:17:19.000Z</time>
      </trkpt>
      <trkpt lat="43.53087" lon="5.58186">
        <ele>923</ele>
        <time>2022-02-15T11:17:20.000Z</time>
      </trkpt>
      <trkpt lat="43.53087" lon="5.58186">
        <ele>923</ele>
        <time>2022-02-15T11:17:21.000Z</time>
      </trkpt>
      <trkpt lat="43.53087" lon="5.58186">
        <ele>923</ele>
        <time>2022-02-15T11:17:22.000Z</time>
      </trkpt>
      <trkpt lat="43.53087" lon="5.58186">
        <ele>923</ele>
        <time>2022-02-15T11:17:23.000Z</time>
      </trkpt>
      <trkpt lat="43.53087" lon="5.58186">
        <ele>923</ele>
        <time>2022-02-15T11:17:24.000Z</time>
      </trkpt>
      <trkpt lat="43.53087" lon="5.58186">
        <ele>923</ele>
        <time>2022-02-15T11:17:25.000Z</time>
      </trkpt>
      <trkpt lat="43.53087" lon="5.58186">
        <ele>923</ele>
        <time>2022-02-15T11:17:26.000Z</time>
      </trkpt>
      <trkpt lat="43.53087" lon="5.58186">
        <ele>923</ele>
        <time>2022-02-15T11:17:27.000Z</time>
      </trkpt>
      <trkpt lat="43.53087" lon="5.58186">
        <ele>923</ele>
        <time>2022-02-15T11:17:28.000Z</time>
      </trkpt>
      <trkpt lat="43.53087" lon="5.58186">
        <ele>923</ele>
        <time>2022-02-15T11:17:29.000Z</time>
      </trkpt>
      <trkpt lat="43.53087" lon="5.58186">
        <ele>923</ele>
        <time>2022-02-15T11:17:30.000Z</time>
      </trkpt>
      <trkpt lat="43.53087" lon="5.58186">
        <ele>923</ele>
        <time>2022-02-15T11:17:31.000Z</time>
      </trkpt>
      <trkpt lat="43.53087" lon="5.58186">
        <ele>923</ele>
        <time>2022-02-15T11:17:32.000Z</time>
      </trkpt>
      <trkpt lat="43.53087" lon="5.58186">
        <ele>923</ele>
        <time>2022-02-15T11:17:33.000Z</time>
      </trkpt>
      <trkpt lat="43.53087" lon="5.58186">
        <ele>923</ele>
        <time>2022-02-15T11:17:34.000Z</time>
      </trkpt>
      <trkpt lat="43.53087" lon="5.58186">
        <ele>923</ele>
        <time>2022-02-15T11:17:35.000Z</time>
      </trkpt>
      <trkpt lat="43.53087" lon="5.58186">
        <ele>923</ele>
        <time>2022-02-15T11:17:36.000Z</time>
      </trkpt>
      <trkpt lat="43.53087" lon="5.58186">
        <ele>923</ele>
        <time>2022-02-15T11:17:37.000Z</time>
      </trkpt>
      <trkpt lat="43.53087" lon="5.58186">
        <ele>923</ele>
        <time>2022-02-15T11:17:38.000Z</time>
      </trkpt>
      <trkpt lat="43.53087" lon="5.58186">
        <ele>923</ele>
        <time>2022-02-15T11:17:39.000Z</time>
      </trkpt>
      <trkpt lat="43.53087" lon="5.58186">
        <ele>923</ele>
        <time>2022-02-15T11:17:40.000Z</time>
      </trkpt>
      <trkpt lat="43.53087" lon="5.58186">
        <ele>923</ele>
        <time>2022-02-15T11:17:41.000Z</time>
      </trkpt>
      <trkpt lat="43.53087" lon="5.58186">
        <ele>923</ele>
        <time>2022-02-15T11:17:42.000Z</time>
      </trkpt>
      <trkpt lat="43.53087" lon="5.58186">
        <ele>923</ele>
        <time>2022-02-15T11:17:43.000Z</time>
      </trkpt>
      <trkpt lat="43.53087" lon="5.58186">
        <ele>923</ele>
        <time>2022-02-15T11:17:44.000Z</time>
      </trkpt>
      <trkpt lat="43.53087" lon="5.58186">
        <ele>923</ele>
        <time>2022-02-15T11:17:45.000Z</time>
      </trkpt>
      <trkpt lat="43.53087" lon="5.58186">
        <ele>923</ele>
        <time>2022-02-15T11:17:46.000Z</time>
      </trkpt>
      <trkpt lat="43.53087" lon="5.58186">
        <ele>923</ele>
        <time>2022-02-15T11:17:47.000Z</time>
      </trkpt>
      <trkpt lat="43.53087" lon="5.58186">
        <ele>923</ele>
        <time>2022-02-15T11:17:48.000Z</time>
      </trkpt>
      <trkpt lat="43.53087" lon="5.58186">
        <ele>922</ele>
        <time>2022-02-15T11:17:49.000Z</time>
      </trkpt>
      <trkpt lat="43.53087" lon="5.58186">
        <ele>922</ele>
        <time>2022-02-15T11:17:50.000Z</time>
      </trkpt>
      <trkpt lat="43.53087" lon="5.58186">
        <ele>922</ele>
        <time>2022-02-15T11:17:51.000Z</time>
      </trkpt>
      <trkpt lat="43.53087" lon="5.58186">
        <ele>922</ele>
        <time>2022-02-15T11:17:52.000Z</time>
      </trkpt>
      <trkpt lat="43.53087" lon="5.58186">
        <ele>922</ele>
        <time>2022-02-15T11:17:53.000Z</time>
      </trkpt>
      <trkpt lat="43.53087" lon="5.58186">
        <ele>922</ele>
        <time>2022-02-15T11:17:54.000Z</time>
      </trkpt>
      <trkpt lat="43.53087" lon="5.58186">
        <ele>922</ele>
        <time>2022-02-15T11:17:55.000Z</time>
      </trkpt>
      <trkpt lat="43.53087" lon="5.58186">
        <ele>922</ele>
        <time>2022-02-15T11:17:56.000Z</time>
      </trkpt>
      <trkpt lat="43.53087" lon="5.58186">
        <ele>922</ele>
        <time>2022-02-15T11:17:57.000Z</time>
      </trkpt>
      <trkpt lat="43.53087" lon="5.58186">
        <ele>922</ele>
        <time>2022-02-15T11:17:58.000Z</time>
      </trkpt>
      <trkpt lat="43.53087" lon="5.58186">
        <ele>922</ele>
        <time>2022-02-15T11:17:59.000Z</time>
      </trkpt>
      <trkpt lat="43.53087" lon="5.58186">
        <ele>922</ele>
        <time>2022-02-15T11:18:00.000Z</time>
      </trkpt>
      <trkpt lat="43.53087" lon="5.58186">
        <ele>922</ele>
        <time>2022-02-15T11:18:01.000Z</time>
      </trkpt>
      <trkpt lat="43.53087" lon="5.58186">
        <ele>922</ele>
        <time>2022-02-15T11:18:02.000Z</time>
      </trkpt>
      <trkpt lat="43.53087" lon="5.58186">
        <ele>922</ele>
        <time>2022-02-15T11:18:03.000Z</time>
      </trkpt>
      <trkpt lat="43.53087" lon="5.58186">
        <ele>922</ele>
        <time>2022-02-15T11:18:04.000Z</time>
      </trkpt>
      <trkpt lat="43.53087" lon="5.58186">
        <ele>922</ele>
        <time>2022-02-15T11:18:05.000Z</time>
      </trkpt>
      <trkpt lat="43.53087" lon="5.58186">
        <ele>922</ele>
        <time>2022-02-15T11:18:06.000Z</time>
      </trkpt>
      <trkpt lat="43.53087" lon="5.58186">
        <ele>922</ele>
        <time>2022-02-15T11:18:07.000Z</time>
      </trkpt>
      <trkpt lat="43.53087" lon="5.58186">
        <ele>922</ele>
        <time>2022-02-15T11:18:08.000Z</time>
      </trkpt>
      <trkpt lat="43.53087" lon="5.58186">
        <ele>922</ele>
        <time>2022-02-15T11:18:09.000Z</time>
      </trkpt>
      <trkpt lat="43.53087" lon="5.58186">
        <ele>922</ele>
        <time>2022-02-15T11:18:10.000Z</time>
      </trkpt>
      <trkpt lat="43.53087" lon="5.58186">
        <ele>922</ele>
        <time>2022-02-15T11:18:11.000Z</time>
      </trkpt>
      <trkpt lat="43.53087" lon="5.58186">
        <ele>922</ele>
        <time>2022-02-15T11:18:12.000Z</time>
      </trkpt>
      <trkpt lat="43.53087" lon="5.58186">
        <ele>922</ele>
        <time>2022-02-15T11:18:13.000Z</time>
      </trkpt>
      <trkpt lat="43.53087" lon="5.58186">
        <ele>922</ele>
        <time>2022-02-15T11:18:14.000Z</time>
      </trkpt>
      <trkpt lat="43.53087" lon="5.58186">
        <ele>922</ele>
        <time>2022-02-15T11:18:15.000Z</time>
      </trkpt>
      <trkpt lat="43.53087" lon="5.58186">
        <ele>922</ele>
        <time>2022-02-15T11:18:16.000Z</time>
      </trkpt>
      <trkpt lat="43.53087" lon="5.58186">
        <ele>922</ele>
        <time>2022-02-15T11:18:17.000Z</time>
      </trkpt>
      <trkpt lat="43.53087" lon="5.58186">
        <ele>922</ele>
        <time>2022-02-15T11:18:18.000Z</time>
      </trkpt>
      <trkpt lat="43.53087" lon="5.58186">
        <ele>922</ele>
        <time>2022-02-15T11:18:19.000Z</time>
      </trkpt>
      <trkpt lat="43.53088" lon="5.58186">
        <ele>922</ele>
        <time>2022-02-15T11:18:20.000Z</time>
      </trkpt>
      <trkpt lat="43.53088" lon="5.58186">
        <ele>922</ele>
        <time>2022-02-15T11:18:21.000Z</time>
      </trkpt>
      <trkpt lat="43.53088" lon="5.58186">
        <ele>922</ele>
        <time>2022-02-15T11:18:22.000Z</time>
      </trkpt>
      <trkpt lat="43.53088" lon="5.58186">
        <ele>922</ele>
        <time>2022-02-15T11:18:23.000Z</time>
      </trkpt>
      <trkpt lat="43.53087" lon="5.58186">
        <ele>922</ele>
        <time>2022-02-15T11:18:24.000Z</time>
      </trkpt>
      <trkpt lat="43.53087" lon="5.58186">
        <ele>922</ele>
        <time>2022-02-15T11:18:25.000Z</time>
      </trkpt>
      <trkpt lat="43.53087" lon="5.58186">
        <ele>922</ele>
        <time>2022-02-15T11:18:26.000Z</time>
      </trkpt>
      <trkpt lat="43.53088" lon="5.58186">
        <ele>922</ele>
        <time>2022-02-15T11:18:27.000Z</time>
      </trkpt>
      <trkpt lat="43.53088" lon="5.58186">
        <ele>922</ele>
        <time>2022-02-15T11:18:28.000Z</time>
      </trkpt>
      <trkpt lat="43.53088" lon="5.58186">
        <ele>922</ele>
        <time>2022-02-15T11:18:29.000Z</time>
      </trkpt>
      <trkpt lat="43.53088" lon="5.58186">
        <ele>922</ele>
        <time>2022-02-15T11:18:30.000Z</time>
      </trkpt>
      <trkpt lat="43.53088" lon="5.58186">
        <ele>922</ele>
        <time>2022-02-15T11:18:31.000Z</time>
      </trkpt>
      <trkpt lat="43.53088" lon="5.58186">
        <ele>922</ele>
        <time>2022-02-15T11:18:32.000Z</time>
      </trkpt>
      <trkpt lat="43.53088" lon="5.58186">
        <ele>922</ele>
        <time>2022-02-15T11:18:33.000Z</time>
      </trkpt>
      <trkpt lat="43.53088" lon="5.58186">
        <ele>922</ele>
        <time>2022-02-15T11:18:34.000Z</time>
      </trkpt>
      <trkpt lat="43.53088" lon="5.58186">
        <ele>922</ele>
        <time>2022-02-15T11:18:35.000Z</time>
      </trkpt>
      <trkpt lat="43.53088" lon="5.58186">
        <ele>922</ele>
        <time>2022-02-15T11:18:36.000Z</time>
      </trkpt>
      <trkpt lat="43.53088" lon="5.58186">
        <ele>922</ele>
        <time>2022-02-15T11:18:37.000Z</time>
      </trkpt>
      <trkpt lat="43.53088" lon="5.58186">
        <ele>922</ele>
        <time>2022-02-15T11:18:38.000Z</time>
      </trkpt>
      <trkpt lat="43.53088" lon="5.58186">
        <ele>922</ele>
        <time>2022-02-15T11:18:39.000Z</time>
      </trkpt>
      <trkpt lat="43.53088" lon="5.58186">
        <ele>922</ele>
        <time>2022-02-15T11:18:40.000Z</time>
      </trkpt>
      <trkpt lat="43.53088" lon="5.58186">
        <ele>922</ele>
        <time>2022-02-15T11:18:41.000Z</time>
      </trkpt>
      <trkpt lat="43.53088" lon="5.58186">
        <ele>922</ele>
        <time>2022-02-15T11:18:42.000Z</time>
      </trkpt>
      <trkpt lat="43.53088" lon="5.58186">
        <ele>922</ele>
        <time>2022-02-15T11:18:43.000Z</time>
      </trkpt>
      <trkpt lat="43.53088" lon="5.58186">
        <ele>922</ele>
        <time>2022-02-15T11:18:44.000Z</time>
      </trkpt>
      <trkpt lat="43.53088" lon="5.58186">
        <ele>922</ele>
        <time>2022-02-15T11:18:45.000Z</time>
      </trkpt>
      <trkpt lat="43.53088" lon="5.58186">
        <ele>922</ele>
        <time>2022-02-15T11:18:46.000Z</time>
      </trkpt>
      <trkpt lat="43.53088" lon="5.58186">
        <ele>922</ele>
        <time>2022-02-15T11:18:47.000Z</time>
      </trkpt>
      <trkpt lat="43.53088" lon="5.58186">
        <ele>922</ele>
        <time>2022-02-15T11:18:48.000Z</time>
      </trkpt>
      <trkpt lat="43.53088" lon="5.58186">
        <ele>922</ele>
        <time>2022-02-15T11:18:49.000Z</time>
      </trkpt>
      <trkpt lat="43.53088" lon="5.58186">
        <ele>922</ele>
        <time>2022-02-15T11:18:50.000Z</time>
      </trkpt>
      <trkpt lat="43.53088" lon="5.58186">
        <ele>922</ele>
        <time>2022-02-15T11:18:51.000Z</time>
      </trkpt>
      <trkpt lat="43.53088" lon="5.58186">
        <ele>922</ele>
        <time>2022-02-15T11:18:52.000Z</time>
      </trkpt>
      <trkpt lat="43.53088" lon="5.58186">
        <ele>922</ele>
        <time>2022-02-15T11:18:53.000Z</time>
      </trkpt>
      <trkpt lat="43.53088" lon="5.58186">
        <ele>922</ele>
        <time>2022-02-15T11:18:54.000Z</time>
      </trkpt>
      <trkpt lat="43.53088" lon="5.58186">
        <ele>922</ele>
        <time>2022-02-15T11:18:55.000Z</time>
      </trkpt>
      <trkpt lat="43.53088" lon="5.58186">
        <ele>922</ele>
        <time>2022-02-15T11:18:56.000Z</time>
      </trkpt>
      <trkpt lat="43.53088" lon="5.58186">
        <ele>922</ele>
        <time>2022-02-15T11:18:57.000Z</time>
      </trkpt>
      <trkpt lat="43.53088" lon="5.58186">
        <ele>922</ele>
        <time>2022-02-15T11:18:58.000Z</time>
      </trkpt>
      <trkpt lat="43.53088" lon="5.58186">
        <ele>922</ele>
        <time>2022-02-15T11:18:59.000Z</time>
      </trkpt>
      <trkpt lat="43.53088" lon="5.58186">
        <ele>922</ele>
        <time>2022-02-15T11:19:00.000Z</time>
      </trkpt>
      <trkpt lat="43.53088" lon="5.58186">
        <ele>922</ele>
        <time>2022-02-15T11:19:01.000Z</time>
      </trkpt>
      <trkpt lat="43.53088" lon="5.58186">
        <ele>922</ele>
        <time>2022-02-15T11:19:02.000Z</time>
      </trkpt>
      <trkpt lat="43.53088" lon="5.58186">
        <ele>922</ele>
        <time>2022-02-15T11:19:03.000Z</time>
      </trkpt>
      <trkpt lat="43.53088" lon="5.58186">
        <ele>922</ele>
        <time>2022-02-15T11:19:04.000Z</time>
      </trkpt>
      <trkpt lat="43.53088" lon="5.58186">
        <ele>922</ele>
        <time>2022-02-15T11:19:05.000Z</time>
      </trkpt>
      <trkpt lat="43.53088" lon="5.58186">
        <ele>922</ele>
        <time>2022-02-15T11:19:06.000Z</time>
      </trkpt>
      <trkpt lat="43.53088" lon="5.58186">
        <ele>922</ele>
        <time>2022-02-15T11:19:07.000Z</time>
      </trkpt>
      <trkpt lat="43.53088" lon="5.58186">
        <ele>922</ele>
        <time>2022-02-15T11:19:08.000Z</time>
      </trkpt>
      <trkpt lat="43.53088" lon="5.58186">
        <ele>922</ele>
        <time>2022-02-15T11:19:09.000Z</time>
      </trkpt>
      <trkpt lat="43.53088" lon="5.58186">
        <ele>922</ele>
        <time>2022-02-15T11:19:10.000Z</time>
      </trkpt>
      <trkpt lat="43.53088" lon="5.58186">
        <ele>922</ele>
        <time>2022-02-15T11:19:11.000Z</time>
      </trkpt>
      <trkpt lat="43.53088" lon="5.58186">
        <ele>922</ele>
        <time>2022-02-15T11:19:12.000Z</time>
      </trkpt>
      <trkpt lat="43.53088" lon="5.58186">
        <ele>922</ele>
        <time>2022-02-15T11:19:13.000Z</time>
      </trkpt>
      <trkpt lat="43.53088" lon="5.58186">
        <ele>922</ele>
        <time>2022-02-15T11:19:14.000Z</time>
      </trkpt>
      <trkpt lat="43.53088" lon="5.58186">
        <ele>922</ele>
        <time>2022-02-15T11:19:15.000Z</time>
      </trkpt>
      <trkpt lat="43.53088" lon="5.58186">
        <ele>922</ele>
        <time>2022-02-15T11:19:16.000Z</time>
      </trkpt>
      <trkpt lat="43.53088" lon="5.58186">
        <ele>922</ele>
        <time>2022-02-15T11:19:17.000Z</time>
      </trkpt>
      <trkpt lat="43.53088" lon="5.58186">
        <ele>922</ele>
        <time>2022-02-15T11:19:18.000Z</time>
      </trkpt>
      <trkpt lat="43.53088" lon="5.58186">
        <ele>922</ele>
        <time>2022-02-15T11:19:19.000Z</time>
      </trkpt>
      <trkpt lat="43.53088" lon="5.58187">
        <ele>921</ele>
        <time>2022-02-15T11:19:20.000Z</time>
      </trkpt>
      <trkpt lat="43.53087" lon="5.58187">
        <ele>921</ele>
        <time>2022-02-15T11:19:21.000Z</time>
      </trkpt>
      <trkpt lat="43.53087" lon="5.58187">
        <ele>921</ele>
        <time>2022-02-15T11:19:22.000Z</time>
      </trkpt>
      <trkpt lat="43.53087" lon="5.58187">
        <ele>921</ele>
        <time>2022-02-15T11:19:23.000Z</time>
      </trkpt>
      <trkpt lat="43.53087" lon="5.58187">
        <ele>921</ele>
        <time>2022-02-15T11:19:24.000Z</time>
      </trkpt>
      <trkpt lat="43.53087" lon="5.58187">
        <ele>921</ele>
        <time>2022-02-15T11:19:25.000Z</time>
      </trkpt>
      <trkpt lat="43.53087" lon="5.58187">
        <ele>921</ele>
        <time>2022-02-15T11:19:26.000Z</time>
      </trkpt>
      <trkpt lat="43.53087" lon="5.58187">
        <ele>921</ele>
        <time>2022-02-15T11:19:27.000Z</time>
      </trkpt>
      <trkpt lat="43.53087" lon="5.58187">
        <ele>921</ele>
        <time>2022-02-15T11:19:28.000Z</time>
      </trkpt>
      <trkpt lat="43.53087" lon="5.58187">
        <ele>921</ele>
        <time>2022-02-15T11:19:29.000Z</time>
      </trkpt>
      <trkpt lat="43.53087" lon="5.58187">
        <ele>922</ele>
        <time>2022-02-15T11:19:30.000Z</time>
      </trkpt>
      <trkpt lat="43.53087" lon="5.58187">
        <ele>922</ele>
        <time>2022-02-15T11:19:31.000Z</time>
      </trkpt>
      <trkpt lat="43.53087" lon="5.58187">
        <ele>922</ele>
        <time>2022-02-15T11:19:32.000Z</time>
      </trkpt>
      <trkpt lat="43.53087" lon="5.58187">
        <ele>922</ele>
        <time>2022-02-15T11:19:33.000Z</time>
      </trkpt>
      <trkpt lat="43.53087" lon="5.58187">
        <ele>922</ele>
        <time>2022-02-15T11:19:34.000Z</time>
      </trkpt>
      <trkpt lat="43.53087" lon="5.58187">
        <ele>922</ele>
        <time>2022-02-15T11:19:35.000Z</time>
      </trkpt>
      <trkpt lat="43.53087" lon="5.58187">
        <ele>922</ele>
        <time>2022-02-15T11:19:36.000Z</time>
      </trkpt>
      <trkpt lat="43.53087" lon="5.58188">
        <ele>922</ele>
        <time>2022-02-15T11:19:37.000Z</time>
      </trkpt>
      <trkpt lat="43.53087" lon="5.58188">
        <ele>922</ele>
        <time>2022-02-15T11:19:38.000Z</time>
      </trkpt>
      <trkpt lat="43.53087" lon="5.58188">
        <ele>922</ele>
        <time>2022-02-15T11:19:39.000Z</time>
      </trkpt>
      <trkpt lat="43.53087" lon="5.58188">
        <ele>922</ele>
        <time>2022-02-15T11:19:40.000Z</time>
      </trkpt>
      <trkpt lat="43.53087" lon="5.58188">
        <ele>922</ele>
        <time>2022-02-15T11:19:41.000Z</time>
      </trkpt>
      <trkpt lat="43.53087" lon="5.58188">
        <ele>922</ele>
        <time>2022-02-15T11:19:42.000Z</time>
      </trkpt>
      <trkpt lat="43.53087" lon="5.58188">
        <ele>922</ele>
        <time>2022-02-15T11:19:43.000Z</time>
      </trkpt>
      <trkpt lat="43.53087" lon="5.58188">
        <ele>922</ele>
        <time>2022-02-15T11:19:44.000Z</time>
      </trkpt>
      <trkpt lat="43.53087" lon="5.58188">
        <ele>922</ele>
        <time>2022-02-15T11:19:45.000Z</time>
      </trkpt>
      <trkpt lat="43.53087" lon="5.58188">
        <ele>922</ele>
        <time>2022-02-15T11:19:46.000Z</time>
      </trkpt>
      <trkpt lat="43.53087" lon="5.58188">
        <ele>922</ele>
        <time>2022-02-15T11:19:47.000Z</time>
      </trkpt>
      <trkpt lat="43.53087" lon="5.58188">
        <ele>922</ele>
        <time>2022-02-15T11:19:48.000Z</time>
      </trkpt>
      <trkpt lat="43.53087" lon="5.58188">
        <ele>922</ele>
        <time>2022-02-15T11:19:49.000Z</time>
      </trkpt>
      <trkpt lat="43.53087" lon="5.58188">
        <ele>922</ele>
        <time>2022-02-15T11:19:50.000Z</time>
      </trkpt>
      <trkpt lat="43.53087" lon="5.58188">
        <ele>922</ele>
        <time>2022-02-15T11:19:51.000Z</time>
      </trkpt>
      <trkpt lat="43.53087" lon="5.58188">
        <ele>922</ele>
        <time>2022-02-15T11:19:52.000Z</time>
      </trkpt>
      <trkpt lat="43.53087" lon="5.58188">
        <ele>922</ele>
        <time>2022-02-15T11:19:53.000Z</time>
      </trkpt>
      <trkpt lat="43.53087" lon="5.58188">
        <ele>922</ele>
        <time>2022-02-15T11:19:54.000Z</time>
      </trkpt>
      <trkpt lat="43.53087" lon="5.58188">
        <ele>922</ele>
        <time>2022-02-15T11:19:55.000Z</time>
      </trkpt>
      <trkpt lat="43.53087" lon="5.58188">
        <ele>922</ele>
        <time>2022-02-15T11:19:56.000Z</time>
      </trkpt>
      <trkpt lat="43.53087" lon="5.58188">
        <ele>922</ele>
        <time>2022-02-15T11:19:57.000Z</time>
      </trkpt>
      <trkpt lat="43.53087" lon="5.58188">
        <ele>922</ele>
        <time>2022-02-15T11:19:58.000Z</time>
      </trkpt>
      <trkpt lat="43.53087" lon="5.58188">
        <ele>922</ele>
        <time>2022-02-15T11:19:59.000Z</time>
      </trkpt>
      <trkpt lat="43.53087" lon="5.58188">
        <ele>922</ele>
        <time>2022-02-15T11:20:00.000Z</time>
      </trkpt>
      <trkpt lat="43.53087" lon="5.58188">
        <ele>922</ele>
        <time>2022-02-15T11:20:01.000Z</time>
      </trkpt>
      <trkpt lat="43.53087" lon="5.58188">
        <ele>922</ele>
        <time>2022-02-15T11:20:02.000Z</time>
      </trkpt>
      <trkpt lat="43.53087" lon="5.58188">
        <ele>922</ele>
        <time>2022-02-15T11:20:03.000Z</time>
      </trkpt>
      <trkpt lat="43.53087" lon="5.58188">
        <ele>922</ele>
        <time>2022-02-15T11:20:04.000Z</time>
      </trkpt>
      <trkpt lat="43.53087" lon="5.58188">
        <ele>922</ele>
        <time>2022-02-15T11:20:05.000Z</time>
      </trkpt>
      <trkpt lat="43.53087" lon="5.58188">
        <ele>922</ele>
        <time>2022-02-15T11:20:06.000Z</time>
      </trkpt>
      <trkpt lat="43.53087" lon="5.58188">
        <ele>922</ele>
        <time>2022-02-15T11:20:07.000Z</time>
      </trkpt>
      <trkpt lat="43.53087" lon="5.58188">
        <ele>922</ele>
        <time>2022-02-15T11:20:08.000Z</time>
      </trkpt>
      <trkpt lat="43.53087" lon="5.58188">
        <ele>922</ele>
        <time>2022-02-15T11:20:09.000Z</time>
      </trkpt>
      <trkpt lat="43.53087" lon="5.58188">
        <ele>922</ele>
        <time>2022-02-15T11:20:10.000Z</time>
      </trkpt>
      <trkpt lat="43.53087" lon="5.58188">
        <ele>922</ele>
        <time>2022-02-15T11:20:11.000Z</time>
      </trkpt>
      <trkpt lat="43.53087" lon="5.58188">
        <ele>922</ele>
        <time>2022-02-15T11:20:12.000Z</time>
      </trkpt>
      <trkpt lat="43.53087" lon="5.58188">
        <ele>922</ele>
        <time>2022-02-15T11:20:13.000Z</time>
      </trkpt>
      <trkpt lat="43.53087" lon="5.58188">
        <ele>922</ele>
        <time>2022-02-15T11:20:14.000Z</time>
      </trkpt>
      <trkpt lat="43.53087" lon="5.58188">
        <ele>922</ele>
        <time>2022-02-15T11:20:15.000Z</time>
      </trkpt>
      <trkpt lat="43.53087" lon="5.58188">
        <ele>922</ele>
        <time>2022-02-15T11:20:16.000Z</time>
      </trkpt>
      <trkpt lat="43.53087" lon="5.58188">
        <ele>922</ele>
        <time>2022-02-15T11:20:17.000Z</time>
      </trkpt>
      <trkpt lat="43.53087" lon="5.58188">
        <ele>922</ele>
        <time>2022-02-15T11:20:18.000Z</time>
      </trkpt>
      <trkpt lat="43.53087" lon="5.58188">
        <ele>922</ele>
        <time>2022-02-15T11:20:19.000Z</time>
      </trkpt>
      <trkpt lat="43.53087" lon="5.58188">
        <ele>922</ele>
        <time>2022-02-15T11:20:20.000Z</time>
      </trkpt>
      <trkpt lat="43.53087" lon="5.58188">
        <ele>922</ele>
        <time>2022-02-15T11:20:21.000Z</time>
      </trkpt>
      <trkpt lat="43.53087" lon="5.58188">
        <ele>922</ele>
        <time>2022-02-15T11:20:22.000Z</time>
      </trkpt>
      <trkpt lat="43.53087" lon="5.58188">
        <ele>922</ele>
        <time>2022-02-15T11:20:23.000Z</time>
      </trkpt>
      <trkpt lat="43.53087" lon="5.58188">
        <ele>922</ele>
        <time>2022-02-15T11:20:24.000Z</time>
      </trkpt>
      <trkpt lat="43.53087" lon="5.58188">
        <ele>922</ele>
        <time>2022-02-15T11:20:25.000Z</time>
      </trkpt>
      <trkpt lat="43.53087" lon="5.58188">
        <ele>922</ele>
        <time>2022-02-15T11:20:26.000Z</time>
      </trkpt>
      <trkpt lat="43.53087" lon="5.58188">
        <ele>922</ele>
        <time>2022-02-15T11:20:27.000Z</time>
      </trkpt>
      <trkpt lat="43.53087" lon="5.58188">
        <ele>922</ele>
        <time>2022-02-15T11:20:28.000Z</time>
      </trkpt>
      <trkpt lat="43.53087" lon="5.58188">
        <ele>922</ele>
        <time>2022-02-15T11:20:29.000Z</time>
      </trkpt>
      <trkpt lat="43.53087" lon="5.58188">
        <ele>922</ele>
        <time>2022-02-15T11:20:30.000Z</time>
      </trkpt>
      <trkpt lat="43.53087" lon="5.58188">
        <ele>922</ele>
        <time>2022-02-15T11:20:31.000Z</time>
      </trkpt>
      <trkpt lat="43.53087" lon="5.58188">
        <ele>922</ele>
        <time>2022-02-15T11:20:32.000Z</time>
      </trkpt>
      <trkpt lat="43.53087" lon="5.58188">
        <ele>922</ele>
        <time>2022-02-15T11:20:33.000Z</time>
      </trkpt>
      <trkpt lat="43.53087" lon="5.58188">
        <ele>922</ele>
        <time>2022-02-15T11:20:34.000Z</time>
      </trkpt>
      <trkpt lat="43.53087" lon="5.58188">
        <ele>922</ele>
        <time>2022-02-15T11:20:35.000Z</time>
      </trkpt>
      <trkpt lat="43.53087" lon="5.58188">
        <ele>922</ele>
        <time>2022-02-15T11:20:36.000Z</time>
      </trkpt>
      <trkpt lat="43.53087" lon="5.58188">
        <ele>922</ele>
        <time>2022-02-15T11:20:37.000Z</time>
      </trkpt>
      <trkpt lat="43.53087" lon="5.58188">
        <ele>922</ele>
        <time>2022-02-15T11:20:38.000Z</time>
      </trkpt>
      <trkpt lat="43.53087" lon="5.58188">
        <ele>922</ele>
        <time>2022-02-15T11:20:39.000Z</time>
      </trkpt>
      <trkpt lat="43.53087" lon="5.58188">
        <ele>922</ele>
        <time>2022-02-15T11:20:40.000Z</time>
      </trkpt>
      <trkpt lat="43.53087" lon="5.58188">
        <ele>922</ele>
        <time>2022-02-15T11:20:41.000Z</time>
      </trkpt>
      <trkpt lat="43.53087" lon="5.58188">
        <ele>922</ele>
        <time>2022-02-15T11:20:42.000Z</time>
      </trkpt>
      <trkpt lat="43.53087" lon="5.58188">
        <ele>922</ele>
        <time>2022-02-15T11:20:43.000Z</time>
      </trkpt>
      <trkpt lat="43.53087" lon="5.58188">
        <ele>922</ele>
        <time>2022-02-15T11:20:44.000Z</time>
      </trkpt>
      <trkpt lat="43.53087" lon="5.58188">
        <ele>922</ele>
        <time>2022-02-15T11:20:45.000Z</time>
      </trkpt>
      <trkpt lat="43.53087" lon="5.58188">
        <ele>922</ele>
        <time>2022-02-15T11:20:46.000Z</time>
      </trkpt>
      <trkpt lat="43.53087" lon="5.58188">
        <ele>922</ele>
        <time>2022-02-15T11:20:47.000Z</time>
      </trkpt>
      <trkpt lat="43.53087" lon="5.58188">
        <ele>922</ele>
        <time>2022-02-15T11:20:48.000Z</time>
      </trkpt>
      <trkpt lat="43.53087" lon="5.58188">
        <ele>922</ele>
        <time>2022-02-15T11:20:49.000Z</time>
      </trkpt>
      <trkpt lat="43.53087" lon="5.58188">
        <ele>923</ele>
        <time>2022-02-15T11:20:50.000Z</time>
      </trkpt>
      <trkpt lat="43.53087" lon="5.58188">
        <ele>923</ele>
        <time>2022-02-15T11:20:51.000Z</time>
      </trkpt>
      <trkpt lat="43.53087" lon="5.58188">
        <ele>923</ele>
        <time>2022-02-15T11:20:52.000Z</time>
      </trkpt>
      <trkpt lat="43.53087" lon="5.58188">
        <ele>923</ele>
        <time>2022-02-15T11:20:53.000Z</time>
      </trkpt>
      <trkpt lat="43.53087" lon="5.58188">
        <ele>923</ele>
        <time>2022-02-15T11:20:54.000Z</time>
      </trkpt>
      <trkpt lat="43.53087" lon="5.58188">
        <ele>923</ele>
        <time>2022-02-15T11:20:55.000Z</time>
      </trkpt>
      <trkpt lat="43.53087" lon="5.58188">
        <ele>922</ele>
        <time>2022-02-15T11:20:56.000Z</time>
      </trkpt>
      <trkpt lat="43.53087" lon="5.58188">
        <ele>922</ele>
        <time>2022-02-15T11:20:57.000Z</time>
      </trkpt>
      <trkpt lat="43.53087" lon="5.58188">
        <ele>922</ele>
        <time>2022-02-15T11:20:58.000Z</time>
      </trkpt>
      <trkpt lat="43.53087" lon="5.58188">
        <ele>922</ele>
        <time>2022-02-15T11:20:59.000Z</time>
      </trkpt>
      <trkpt lat="43.53087" lon="5.58188">
        <ele>922</ele>
        <time>2022-02-15T11:21:00.000Z</time>
      </trkpt>
      <trkpt lat="43.53087" lon="5.58188">
        <ele>922</ele>
        <time>2022-02-15T11:21:01.000Z</time>
      </trkpt>
      <trkpt lat="43.53087" lon="5.58188">
        <ele>922</ele>
        <time>2022-02-15T11:21:02.000Z</time>
      </trkpt>
      <trkpt lat="43.53087" lon="5.58188">
        <ele>922</ele>
        <time>2022-02-15T11:21:03.000Z</time>
      </trkpt>
      <trkpt lat="43.53087" lon="5.58188">
        <ele>922</ele>
        <time>2022-02-15T11:21:04.000Z</time>
      </trkpt>
      <trkpt lat="43.53087" lon="5.58187">
        <ele>922</ele>
        <time>2022-02-15T11:21:05.000Z</time>
      </trkpt>
      <trkpt lat="43.53087" lon="5.58187">
        <ele>922</ele>
        <time>2022-02-15T11:21:06.000Z</time>
      </trkpt>
      <trkpt lat="43.53087" lon="5.58187">
        <ele>922</ele>
        <time>2022-02-15T11:21:07.000Z</time>
      </trkpt>
      <trkpt lat="43.53087" lon="5.58187">
        <ele>922</ele>
        <time>2022-02-15T11:21:08.000Z</time>
      </trkpt>
      <trkpt lat="43.53087" lon="5.58187">
        <ele>922</ele>
        <time>2022-02-15T11:21:09.000Z</time>
      </trkpt>
      <trkpt lat="43.53087" lon="5.58187">
        <ele>922</ele>
        <time>2022-02-15T11:21:10.000Z</time>
      </trkpt>
      <trkpt lat="43.53087" lon="5.58187">
        <ele>922</ele>
        <time>2022-02-15T11:21:11.000Z</time>
      </trkpt>
      <trkpt lat="43.53087" lon="5.58187">
        <ele>922</ele>
        <time>2022-02-15T11:21:12.000Z</time>
      </trkpt>
      <trkpt lat="43.53087" lon="5.58187">
        <ele>922</ele>
        <time>2022-02-15T11:21:13.000Z</time>
      </trkpt>
      <trkpt lat="43.53087" lon="5.58187">
        <ele>922</ele>
        <time>2022-02-15T11:21:14.000Z</time>
      </trkpt>
      <trkpt lat="43.53087" lon="5.58187">
        <ele>922</ele>
        <time>2022-02-15T11:21:15.000Z</time>
      </trkpt>
      <trkpt lat="43.53087" lon="5.58187">
        <ele>922</ele>
        <time>2022-02-15T11:21:16.000Z</time>
      </trkpt>
      <trkpt lat="43.53087" lon="5.58187">
        <ele>922</ele>
        <time>2022-02-15T11:21:17.000Z</time>
      </trkpt>
      <trkpt lat="43.53087" lon="5.58187">
        <ele>922</ele>
        <time>2022-02-15T11:21:18.000Z</time>
      </trkpt>
      <trkpt lat="43.53087" lon="5.58187">
        <ele>922</ele>
        <time>2022-02-15T11:21:19.000Z</time>
      </trkpt>
      <trkpt lat="43.53087" lon="5.58187">
        <ele>922</ele>
        <time>2022-02-15T11:21:20.000Z</time>
      </trkpt>
      <trkpt lat="43.53087" lon="5.58186">
        <ele>922</ele>
        <time>2022-02-15T11:21:21.000Z</time>
      </trkpt>
      <trkpt lat="43.53088" lon="5.58186">
        <ele>922</ele>
        <time>2022-02-15T11:21:22.000Z</time>
      </trkpt>
      <trkpt lat="43.53088" lon="5.58186">
        <ele>922</ele>
        <time>2022-02-15T11:21:23.000Z</time>
      </trkpt>
      <trkpt lat="43.53088" lon="5.58186">
        <ele>922</ele>
        <time>2022-02-15T11:21:24.000Z</time>
      </trkpt>
      <trkpt lat="43.53088" lon="5.58186">
        <ele>922</ele>
        <time>2022-02-15T11:21:25.000Z</time>
      </trkpt>
      <trkpt lat="43.53088" lon="5.58186">
        <ele>922</ele>
        <time>2022-02-15T11:21:26.000Z</time>
      </trkpt>
      <trkpt lat="43.53088" lon="5.58186">
        <ele>922</ele>
        <time>2022-02-15T11:21:27.000Z</time>
      </trkpt>
      <trkpt lat="43.53089" lon="5.58185">
        <ele>922</ele>
        <time>2022-02-15T11:21:28.000Z</time>
      </trkpt>
      <trkpt lat="43.53089" lon="5.58185">
        <ele>921</ele>
        <time>2022-02-15T11:21:29.000Z</time>
      </trkpt>
      <trkpt lat="43.53089" lon="5.58185">
        <ele>921</ele>
        <time>2022-02-15T11:21:30.000Z</time>
      </trkpt>
      <trkpt lat="43.53089" lon="5.58184">
        <ele>921</ele>
        <time>2022-02-15T11:21:31.000Z</time>
      </trkpt>
      <trkpt lat="43.53089" lon="5.58184">
        <ele>921</ele>
        <time>2022-02-15T11:21:32.000Z</time>
      </trkpt>
      <trkpt lat="43.5309" lon="5.58184">
        <ele>921</ele>
        <time>2022-02-15T11:21:33.000Z</time>
      </trkpt>
      <trkpt lat="43.5309" lon="5.58184">
        <ele>921</ele>
        <time>2022-02-15T11:21:34.000Z</time>
      </trkpt>
      <trkpt lat="43.5309" lon="5.58184">
        <ele>921</ele>
        <time>2022-02-15T11:21:35.000Z</time>
      </trkpt>
      <trkpt lat="43.5309" lon="5.58184">
        <ele>921</ele>
        <time>2022-02-15T11:21:36.000Z</time>
      </trkpt>
      <trkpt lat="43.5309" lon="5.58184">
        <ele>921</ele>
        <time>2022-02-15T11:21:37.000Z</time>
      </trkpt>
      <trkpt lat="43.5309" lon="5.58184">
        <ele>921</ele>
        <time>2022-02-15T11:21:38.000Z</time>
      </trkpt>
      <trkpt lat="43.5309" lon="5.58184">
        <ele>921</ele>
        <time>2022-02-15T11:21:39.000Z</time>
      </trkpt>
      <trkpt lat="43.5309" lon="5.58184">
        <ele>921</ele>
        <time>2022-02-15T11:21:40.000Z</time>
      </trkpt>
      <trkpt lat="43.53091" lon="5.58184">
        <ele>921</ele>
        <time>2022-02-15T11:21:41.000Z</time>
      </trkpt>
      <trkpt lat="43.53091" lon="5.58184">
        <ele>921</ele>
        <time>2022-02-15T11:21:42.000Z</time>
      </trkpt>
      <trkpt lat="43.53091" lon="5.58184">
        <ele>921</ele>
        <time>2022-02-15T11:21:43.000Z</time>
      </trkpt>
      <trkpt lat="43.53091" lon="5.58185">
        <ele>921</ele>
        <time>2022-02-15T11:21:44.000Z</time>
      </trkpt>
      <trkpt lat="43.53091" lon="5.58184">
        <ele>921</ele>
        <time>2022-02-15T11:21:45.000Z</time>
      </trkpt>
      <trkpt lat="43.53091" lon="5.58185">
        <ele>921</ele>
        <time>2022-02-15T11:21:46.000Z</time>
      </trkpt>
      <trkpt lat="43.53092" lon="5.58184">
        <ele>921</ele>
        <time>2022-02-15T11:21:47.000Z</time>
      </trkpt>
      <trkpt lat="43.53092" lon="5.58184">
        <ele>921</ele>
        <time>2022-02-15T11:21:48.000Z</time>
      </trkpt>
      <trkpt lat="43.53092" lon="5.58184">
        <ele>921</ele>
        <time>2022-02-15T11:21:49.000Z</time>
      </trkpt>
      <trkpt lat="43.53093" lon="5.58184">
        <ele>921</ele>
        <time>2022-02-15T11:21:50.000Z</time>
      </trkpt>
      <trkpt lat="43.53093" lon="5.58183">
        <ele>920</ele>
        <time>2022-02-15T11:21:51.000Z</time>
      </trkpt>
      <trkpt lat="43.53094" lon="5.58183">
        <ele>920</ele>
        <time>2022-02-15T11:21:52.000Z</time>
      </trkpt>
      <trkpt lat="43.53094" lon="5.58183">
        <ele>920</ele>
        <time>2022-02-15T11:21:53.000Z</time>
      </trkpt>
      <trkpt lat="43.53094" lon="5.58182">
        <ele>920</ele>
        <time>2022-02-15T11:21:54.000Z</time>
      </trkpt>
      <trkpt lat="43.53095" lon="5.58182">
        <ele>920</ele>
        <time>2022-02-15T11:21:55.000Z</time>
      </trkpt>
      <trkpt lat="43.53096" lon="5.58181">
        <ele>920</ele>
        <time>2022-02-15T11:21:56.000Z</time>
      </trkpt>
      <trkpt lat="43.53096" lon="5.58181">
        <ele>920</ele>
        <time>2022-02-15T11:21:57.000Z</time>
      </trkpt>
      <trkpt lat="43.53097" lon="5.58181">
        <ele>920</ele>
        <time>2022-02-15T11:21:58.000Z</time>
      </trkpt>
      <trkpt lat="43.53097" lon="5.58181">
        <ele>920</ele>
        <time>2022-02-15T11:21:59.000Z</time>
      </trkpt>
      <trkpt lat="43.53097" lon="5.58181">
        <ele>920</ele>
        <time>2022-02-15T11:22:00.000Z</time>
      </trkpt>
      <trkpt lat="43.53097" lon="5.58181">
        <ele>920</ele>
        <time>2022-02-15T11:22:01.000Z</time>
      </trkpt>
      <trkpt lat="43.53097" lon="5.58181">
        <ele>920</ele>
        <time>2022-02-15T11:22:02.000Z</time>
      </trkpt>
      <trkpt lat="43.53097" lon="5.58181">
        <ele>920</ele>
        <time>2022-02-15T11:22:03.000Z</time>
      </trkpt>
      <trkpt lat="43.53097" lon="5.58181">
        <ele>920</ele>
        <time>2022-02-15T11:22:04.000Z</time>
      </trkpt>
      <trkpt lat="43.53097" lon="5.58181">
        <ele>920</ele>
        <time>2022-02-15T11:22:05.000Z</time>
      </trkpt>
      <trkpt lat="43.53097" lon="5.58181">
        <ele>920</ele>
        <time>2022-02-15T11:22:06.000Z</time>
      </trkpt>
      <trkpt lat="43.53097" lon="5.58181">
        <ele>920</ele>
        <time>2022-02-15T11:22:07.000Z</time>
      </trkpt>
      <trkpt lat="43.53097" lon="5.58181">
        <ele>920</ele>
        <time>2022-02-15T11:22:08.000Z</time>
      </trkpt>
      <trkpt lat="43.53097" lon="5.58181">
        <ele>920</ele>
        <time>2022-02-15T11:22:09.000Z</time>
      </trkpt>
      <trkpt lat="43.53097" lon="5.58181">
        <ele>920</ele>
        <time>2022-02-15T11:22:10.000Z</time>
      </trkpt>
      <trkpt lat="43.53096" lon="5.58181">
        <ele>920</ele>
        <time>2022-02-15T11:22:11.000Z</time>
      </trkpt>
      <trkpt lat="43.53096" lon="5.58181">
        <ele>920</ele>
        <time>2022-02-15T11:22:12.000Z</time>
      </trkpt>
      <trkpt lat="43.53096" lon="5.5818">
        <ele>920</ele>
        <time>2022-02-15T11:22:13.000Z</time>
      </trkpt>
      <trkpt lat="43.53096" lon="5.5818">
        <ele>920</ele>
        <time>2022-02-15T11:22:14.000Z</time>
      </trkpt>
      <trkpt lat="43.53096" lon="5.58179">
        <ele>920</ele>
        <time>2022-02-15T11:22:15.000Z</time>
      </trkpt>
      <trkpt lat="43.53097" lon="5.58179">
        <ele>920</ele>
        <time>2022-02-15T11:22:16.000Z</time>
      </trkpt>
      <trkpt lat="43.53097" lon="5.58178">
        <ele>920</ele>
        <time>2022-02-15T11:22:17.000Z</time>
      </trkpt>
      <trkpt lat="43.53097" lon="5.58178">
        <ele>921</ele>
        <time>2022-02-15T11:22:18.000Z</time>
      </trkpt>
      <trkpt lat="43.53098" lon="5.58177">
        <ele>921</ele>
        <time>2022-02-15T11:22:19.000Z</time>
      </trkpt>
      <trkpt lat="43.53098" lon="5.58176">
        <ele>921</ele>
        <time>2022-02-15T11:22:20.000Z</time>
      </trkpt>
      <trkpt lat="43.53099" lon="5.58176">
        <ele>921</ele>
        <time>2022-02-15T11:22:21.000Z</time>
      </trkpt>
      <trkpt lat="43.53099" lon="5.58175">
        <ele>921</ele>
        <time>2022-02-15T11:22:22.000Z</time>
      </trkpt>
      <trkpt lat="43.531" lon="5.58174">
        <ele>921</ele>
        <time>2022-02-15T11:22:23.000Z</time>
      </trkpt>
      <trkpt lat="43.531" lon="5.58174">
        <ele>921</ele>
        <time>2022-02-15T11:22:24.000Z</time>
      </trkpt>
      <trkpt lat="43.53101" lon="5.58173">
        <ele>922</ele>
        <time>2022-02-15T11:22:25.000Z</time>
      </trkpt>
      <trkpt lat="43.53101" lon="5.58172">
        <ele>922</ele>
        <time>2022-02-15T11:22:26.000Z</time>
      </trkpt>
      <trkpt lat="43.53102" lon="5.58172">
        <ele>922</ele>
        <time>2022-02-15T11:22:27.000Z</time>
      </trkpt>
      <trkpt lat="43.53102" lon="5.58171">
        <ele>922</ele>
        <time>2022-02-15T11:22:28.000Z</time>
      </trkpt>
      <trkpt lat="43.53103" lon="5.58171">
        <ele>922</ele>
        <time>2022-02-15T11:22:29.000Z</time>
      </trkpt>
      <trkpt lat="43.53103" lon="5.58171">
        <ele>922</ele>
        <time>2022-02-15T11:22:30.000Z</time>
      </trkpt>
      <trkpt lat="43.53104" lon="5.5817">
        <ele>922</ele>
        <time>2022-02-15T11:22:31.000Z</time>
      </trkpt>
      <trkpt lat="43.53104" lon="5.5817">
        <ele>922</ele>
        <time>2022-02-15T11:22:32.000Z</time>
      </trkpt>
      <trkpt lat="43.53105" lon="5.58169">
        <ele>921</ele>
        <time>2022-02-15T11:22:33.000Z</time>
      </trkpt>
      <trkpt lat="43.53106" lon="5.58169">
        <ele>921</ele>
        <time>2022-02-15T11:22:34.000Z</time>
      </trkpt>
      <trkpt lat="43.53106" lon="5.58168">
        <ele>921</ele>
        <time>2022-02-15T11:22:35.000Z</time>
      </trkpt>
      <trkpt lat="43.53107" lon="5.58168">
        <ele>921</ele>
        <time>2022-02-15T11:22:36.000Z</time>
      </trkpt>
      <trkpt lat="43.53108" lon="5.58167">
        <ele>921</ele>
        <time>2022-02-15T11:22:37.000Z</time>
      </trkpt>
      <trkpt lat="43.53108" lon="5.58167">
        <ele>921</ele>
        <time>2022-02-15T11:22:38.000Z</time>
      </trkpt>
      <trkpt lat="43.53108" lon="5.58166">
        <ele>921</ele>
        <time>2022-02-15T11:22:39.000Z</time>
      </trkpt>
      <trkpt lat="43.53109" lon="5.58165">
        <ele>921</ele>
        <time>2022-02-15T11:22:40.000Z</time>
      </trkpt>
      <trkpt lat="43.53109" lon="5.58165">
        <ele>922</ele>
        <time>2022-02-15T11:22:41.000Z</time>
      </trkpt>
      <trkpt lat="43.5311" lon="5.58164">
        <ele>922</ele>
        <time>2022-02-15T11:22:42.000Z</time>
      </trkpt>
      <trkpt lat="43.5311" lon="5.58164">
        <ele>922</ele>
        <time>2022-02-15T11:22:43.000Z</time>
      </trkpt>
      <trkpt lat="43.53111" lon="5.58164">
        <ele>922</ele>
        <time>2022-02-15T11:22:44.000Z</time>
      </trkpt>
      <trkpt lat="43.53111" lon="5.58163">
        <ele>922</ele>
        <time>2022-02-15T11:22:45.000Z</time>
      </trkpt>
      <trkpt lat="43.53112" lon="5.58163">
        <ele>921</ele>
        <time>2022-02-15T11:22:46.000Z</time>
      </trkpt>
      <trkpt lat="43.53112" lon="5.58163">
        <ele>921</ele>
        <time>2022-02-15T11:22:47.000Z</time>
      </trkpt>
      <trkpt lat="43.53113" lon="5.58162">
        <ele>921</ele>
        <time>2022-02-15T11:22:48.000Z</time>
      </trkpt>
      <trkpt lat="43.53113" lon="5.58162">
        <ele>921</ele>
        <time>2022-02-15T11:22:49.000Z</time>
      </trkpt>
      <trkpt lat="43.53114" lon="5.58161">
        <ele>921</ele>
        <time>2022-02-15T11:22:50.000Z</time>
      </trkpt>
      <trkpt lat="43.53114" lon="5.5816">
        <ele>921</ele>
        <time>2022-02-15T11:22:51.000Z</time>
      </trkpt>
      <trkpt lat="43.53115" lon="5.58159">
        <ele>921</ele>
        <time>2022-02-15T11:22:52.000Z</time>
      </trkpt>
      <trkpt lat="43.53115" lon="5.58158">
        <ele>921</ele>
        <time>2022-02-15T11:22:53.000Z</time>
      </trkpt>
      <trkpt lat="43.53115" lon="5.58158">
        <ele>921</ele>
        <time>2022-02-15T11:22:54.000Z</time>
      </trkpt>
      <trkpt lat="43.53116" lon="5.58158">
        <ele>921</ele>
        <time>2022-02-15T11:22:55.000Z</time>
      </trkpt>
      <trkpt lat="43.53116" lon="5.58157">
        <ele>921</ele>
        <time>2022-02-15T11:22:56.000Z</time>
      </trkpt>
      <trkpt lat="43.53116" lon="5.58157">
        <ele>921</ele>
        <time>2022-02-15T11:22:57.000Z</time>
      </trkpt>
      <trkpt lat="43.53116" lon="5.58157">
        <ele>921</ele>
        <time>2022-02-15T11:22:58.000Z</time>
      </trkpt>
      <trkpt lat="43.53117" lon="5.58156">
        <ele>920</ele>
        <time>2022-02-15T11:22:59.000Z</time>
      </trkpt>
      <trkpt lat="43.53117" lon="5.58156">
        <ele>920</ele>
        <time>2022-02-15T11:23:00.000Z</time>
      </trkpt>
      <trkpt lat="43.53118" lon="5.58156">
        <ele>920</ele>
        <time>2022-02-15T11:23:01.000Z</time>
      </trkpt>
      <trkpt lat="43.53118" lon="5.58156">
        <ele>920</ele>
        <time>2022-02-15T11:23:02.000Z</time>
      </trkpt>
      <trkpt lat="43.53119" lon="5.58156">
        <ele>920</ele>
        <time>2022-02-15T11:23:03.000Z</time>
      </trkpt>
      <trkpt lat="43.53119" lon="5.58155">
        <ele>920</ele>
        <time>2022-02-15T11:23:04.000Z</time>
      </trkpt>
      <trkpt lat="43.5312" lon="5.58155">
        <ele>920</ele>
        <time>2022-02-15T11:23:05.000Z</time>
      </trkpt>
      <trkpt lat="43.5312" lon="5.58155">
        <ele>920</ele>
        <time>2022-02-15T11:23:06.000Z</time>
      </trkpt>
      <trkpt lat="43.5312" lon="5.58155">
        <ele>920</ele>
        <time>2022-02-15T11:23:07.000Z</time>
      </trkpt>
      <trkpt lat="43.5312" lon="5.58155">
        <ele>920</ele>
        <time>2022-02-15T11:23:08.000Z</time>
      </trkpt>
      <trkpt lat="43.5312" lon="5.58155">
        <ele>920</ele>
        <time>2022-02-15T11:23:09.000Z</time>
      </trkpt>
      <trkpt lat="43.5312" lon="5.58155">
        <ele>920</ele>
        <time>2022-02-15T11:23:10.000Z</time>
      </trkpt>
      <trkpt lat="43.5312" lon="5.58154">
        <ele>920</ele>
        <time>2022-02-15T11:23:11.000Z</time>
      </trkpt>
      <trkpt lat="43.53121" lon="5.58154">
        <ele>920</ele>
        <time>2022-02-15T11:23:12.000Z</time>
      </trkpt>
      <trkpt lat="43.53121" lon="5.58154">
        <ele>920</ele>
        <time>2022-02-15T11:23:13.000Z</time>
      </trkpt>
      <trkpt lat="43.53121" lon="5.58153">
        <ele>920</ele>
        <time>2022-02-15T11:23:14.000Z</time>
      </trkpt>
      <trkpt lat="43.53121" lon="5.58152">
        <ele>920</ele>
        <time>2022-02-15T11:23:15.000Z</time>
      </trkpt>
      <trkpt lat="43.53122" lon="5.58152">
        <ele>920</ele>
        <time>2022-02-15T11:23:16.000Z</time>
      </trkpt>
      <trkpt lat="43.53122" lon="5.58151">
        <ele>920</ele>
        <time>2022-02-15T11:23:17.000Z</time>
      </trkpt>
      <trkpt lat="43.53123" lon="5.58151">
        <ele>920</ele>
        <time>2022-02-15T11:23:18.000Z</time>
      </trkpt>
      <trkpt lat="43.53123" lon="5.5815">
        <ele>920</ele>
        <time>2022-02-15T11:23:19.000Z</time>
      </trkpt>
      <trkpt lat="43.53123" lon="5.58149">
        <ele>920</ele>
        <time>2022-02-15T11:23:20.000Z</time>
      </trkpt>
      <trkpt lat="43.53123" lon="5.58149">
        <ele>921</ele>
        <time>2022-02-15T11:23:21.000Z</time>
      </trkpt>
      <trkpt lat="43.53124" lon="5.58148">
        <ele>921</ele>
        <time>2022-02-15T11:23:22.000Z</time>
      </trkpt>
      <trkpt lat="43.53124" lon="5.58148">
        <ele>921</ele>
        <time>2022-02-15T11:23:23.000Z</time>
      </trkpt>
      <trkpt lat="43.53124" lon="5.58147">
        <ele>921</ele>
        <time>2022-02-15T11:23:24.000Z</time>
      </trkpt>
      <trkpt lat="43.53124" lon="5.58147">
        <ele>921</ele>
        <time>2022-02-15T11:23:25.000Z</time>
      </trkpt>
      <trkpt lat="43.53125" lon="5.58147">
        <ele>921</ele>
        <time>2022-02-15T11:23:26.000Z</time>
      </trkpt>
      <trkpt lat="43.53125" lon="5.58146">
        <ele>921</ele>
        <time>2022-02-15T11:23:27.000Z</time>
      </trkpt>
      <trkpt lat="43.53125" lon="5.58146">
        <ele>921</ele>
        <time>2022-02-15T11:23:28.000Z</time>
      </trkpt>
      <trkpt lat="43.53126" lon="5.58146">
        <ele>921</ele>
        <time>2022-02-15T11:23:29.000Z</time>
      </trkpt>
      <trkpt lat="43.53126" lon="5.58145">
        <ele>921</ele>
        <time>2022-02-15T11:23:30.000Z</time>
      </trkpt>
      <trkpt lat="43.53126" lon="5.58144">
        <ele>921</ele>
        <time>2022-02-15T11:23:31.000Z</time>
      </trkpt>
      <trkpt lat="43.53126" lon="5.58143">
        <ele>922</ele>
        <time>2022-02-15T11:23:32.000Z</time>
      </trkpt>
      <trkpt lat="43.53127" lon="5.58142">
        <ele>922</ele>
        <time>2022-02-15T11:23:33.000Z</time>
      </trkpt>
      <trkpt lat="43.53127" lon="5.58141">
        <ele>922</ele>
        <time>2022-02-15T11:23:34.000Z</time>
      </trkpt>
      <trkpt lat="43.53128" lon="5.58141">
        <ele>922</ele>
        <time>2022-02-15T11:23:35.000Z</time>
      </trkpt>
      <trkpt lat="43.53128" lon="5.5814">
        <ele>922</ele>
        <time>2022-02-15T11:23:36.000Z</time>
      </trkpt>
      <trkpt lat="43.53128" lon="5.5814">
        <ele>922</ele>
        <time>2022-02-15T11:23:37.000Z</time>
      </trkpt>
      <trkpt lat="43.53128" lon="5.58139">
        <ele>922</ele>
        <time>2022-02-15T11:23:38.000Z</time>
      </trkpt>
      <trkpt lat="43.53128" lon="5.58139">
        <ele>922</ele>
        <time>2022-02-15T11:23:39.000Z</time>
      </trkpt>
      <trkpt lat="43.53128" lon="5.58139">
        <ele>923</ele>
        <time>2022-02-15T11:23:40.000Z</time>
      </trkpt>
      <trkpt lat="43.53129" lon="5.58138">
        <ele>923</ele>
        <time>2022-02-15T11:23:41.000Z</time>
      </trkpt>
      <trkpt lat="43.53129" lon="5.58138">
        <ele>923</ele>
        <time>2022-02-15T11:23:42.000Z</time>
      </trkpt>
      <trkpt lat="43.53129" lon="5.58138">
        <ele>923</ele>
        <time>2022-02-15T11:23:43.000Z</time>
      </trkpt>
      <trkpt lat="43.53129" lon="5.58138">
        <ele>923</ele>
        <time>2022-02-15T11:23:44.000Z</time>
      </trkpt>
      <trkpt lat="43.53129" lon="5.58137">
        <ele>923</ele>
        <time>2022-02-15T11:23:45.000Z</time>
      </trkpt>
      <trkpt lat="43.5313" lon="5.58137">
        <ele>923</ele>
        <time>2022-02-15T11:23:46.000Z</time>
      </trkpt>
      <trkpt lat="43.5313" lon="5.58136">
        <ele>923</ele>
        <time>2022-02-15T11:23:47.000Z</time>
      </trkpt>
      <trkpt lat="43.5313" lon="5.58136">
        <ele>923</ele>
        <time>2022-02-15T11:23:48.000Z</time>
      </trkpt>
      <trkpt lat="43.5313" lon="5.58135">
        <ele>923</ele>
        <time>2022-02-15T11:23:49.000Z</time>
      </trkpt>
      <trkpt lat="43.5313" lon="5.58134">
        <ele>923</ele>
        <time>2022-02-15T11:23:50.000Z</time>
      </trkpt>
      <trkpt lat="43.53131" lon="5.58133">
        <ele>923</ele>
        <time>2022-02-15T11:23:51.000Z</time>
      </trkpt>
      <trkpt lat="43.53131" lon="5.58133">
        <ele>923</ele>
        <time>2022-02-15T11:23:52.000Z</time>
      </trkpt>
      <trkpt lat="43.53131" lon="5.58132">
        <ele>924</ele>
        <time>2022-02-15T11:23:53.000Z</time>
      </trkpt>
      <trkpt lat="43.53131" lon="5.58132">
        <ele>924</ele>
        <time>2022-02-15T11:23:54.000Z</time>
      </trkpt>
      <trkpt lat="43.53131" lon="5.58131">
        <ele>924</ele>
        <time>2022-02-15T11:23:55.000Z</time>
      </trkpt>
      <trkpt lat="43.53131" lon="5.58131">
        <ele>924</ele>
        <time>2022-02-15T11:23:56.000Z</time>
      </trkpt>
      <trkpt lat="43.53131" lon="5.58131">
        <ele>924</ele>
        <time>2022-02-15T11:23:57.000Z</time>
      </trkpt>
      <trkpt lat="43.53131" lon="5.58131">
        <ele>924</ele>
        <time>2022-02-15T11:23:58.000Z</time>
      </trkpt>
      <trkpt lat="43.53131" lon="5.58131">
        <ele>924</ele>
        <time>2022-02-15T11:23:59.000Z</time>
      </trkpt>
      <trkpt lat="43.5313" lon="5.5813">
        <ele>924</ele>
        <time>2022-02-15T11:24:00.000Z</time>
      </trkpt>
      <trkpt lat="43.5313" lon="5.5813">
        <ele>924</ele>
        <time>2022-02-15T11:24:01.000Z</time>
      </trkpt>
      <trkpt lat="43.5313" lon="5.5813">
        <ele>924</ele>
        <time>2022-02-15T11:24:02.000Z</time>
      </trkpt>
      <trkpt lat="43.5313" lon="5.5813">
        <ele>924</ele>
        <time>2022-02-15T11:24:03.000Z</time>
      </trkpt>
      <trkpt lat="43.5313" lon="5.5813">
        <ele>924</ele>
        <time>2022-02-15T11:24:04.000Z</time>
      </trkpt>
      <trkpt lat="43.5313" lon="5.5813">
        <ele>924</ele>
        <time>2022-02-15T11:24:05.000Z</time>
      </trkpt>
      <trkpt lat="43.5313" lon="5.5813">
        <ele>924</ele>
        <time>2022-02-15T11:24:06.000Z</time>
      </trkpt>
      <trkpt lat="43.5313" lon="5.5813">
        <ele>924</ele>
        <time>2022-02-15T11:24:07.000Z</time>
      </trkpt>
      <trkpt lat="43.5313" lon="5.58129">
        <ele>924</ele>
        <time>2022-02-15T11:24:08.000Z</time>
      </trkpt>
      <trkpt lat="43.5313" lon="5.58129">
        <ele>924</ele>
        <time>2022-02-15T11:24:09.000Z</time>
      </trkpt>
      <trkpt lat="43.5313" lon="5.58129">
        <ele>924</ele>
        <time>2022-02-15T11:24:10.000Z</time>
      </trkpt>
      <trkpt lat="43.5313" lon="5.58129">
        <ele>924</ele>
        <time>2022-02-15T11:24:11.000Z</time>
      </trkpt>
      <trkpt lat="43.5313" lon="5.58129">
        <ele>924</ele>
        <time>2022-02-15T11:24:12.000Z</time>
      </trkpt>
      <trkpt lat="43.5313" lon="5.58129">
        <ele>925</ele>
        <time>2022-02-15T11:24:13.000Z</time>
      </trkpt>
      <trkpt lat="43.5313" lon="5.58129">
        <ele>925</ele>
        <time>2022-02-15T11:24:14.000Z</time>
      </trkpt>
      <trkpt lat="43.5313" lon="5.58129">
        <ele>925</ele>
        <time>2022-02-15T11:24:15.000Z</time>
      </trkpt>
      <trkpt lat="43.5313" lon="5.58129">
        <ele>925</ele>
        <time>2022-02-15T11:24:16.000Z</time>
      </trkpt>
      <trkpt lat="43.5313" lon="5.58129">
        <ele>925</ele>
        <time>2022-02-15T11:24:17.000Z</time>
      </trkpt>
      <trkpt lat="43.5313" lon="5.58129">
        <ele>925</ele>
        <time>2022-02-15T11:24:18.000Z</time>
      </trkpt>
      <trkpt lat="43.5313" lon="5.58129">
        <ele>925</ele>
        <time>2022-02-15T11:24:19.000Z</time>
      </trkpt>
      <trkpt lat="43.5313" lon="5.58129">
        <ele>925</ele>
        <time>2022-02-15T11:24:20.000Z</time>
      </trkpt>
      <trkpt lat="43.5313" lon="5.58129">
        <ele>925</ele>
        <time>2022-02-15T11:24:21.000Z</time>
      </trkpt>
      <trkpt lat="43.5313" lon="5.58129">
        <ele>925</ele>
        <time>2022-02-15T11:24:22.000Z</time>
      </trkpt>
      <trkpt lat="43.5313" lon="5.58129">
        <ele>925</ele>
        <time>2022-02-15T11:24:23.000Z</time>
      </trkpt>
      <trkpt lat="43.5313" lon="5.5813">
        <ele>925</ele>
        <time>2022-02-15T11:24:24.000Z</time>
      </trkpt>
      <trkpt lat="43.53129" lon="5.5813">
        <ele>925</ele>
        <time>2022-02-15T11:24:25.000Z</time>
      </trkpt>
      <trkpt lat="43.53129" lon="5.58129">
        <ele>925</ele>
        <time>2022-02-15T11:24:26.000Z</time>
      </trkpt>
      <trkpt lat="43.53128" lon="5.58129">
        <ele>925</ele>
        <time>2022-02-15T11:24:27.000Z</time>
      </trkpt>
      <trkpt lat="43.53128" lon="5.58128">
        <ele>925</ele>
        <time>2022-02-15T11:24:28.000Z</time>
      </trkpt>
      <trkpt lat="43.53128" lon="5.58128">
        <ele>925</ele>
        <time>2022-02-15T11:24:29.000Z</time>
      </trkpt>
      <trkpt lat="43.53128" lon="5.58127">
        <ele>925</ele>
        <time>2022-02-15T11:24:30.000Z</time>
      </trkpt>
      <trkpt lat="43.53127" lon="5.58127">
        <ele>925</ele>
        <time>2022-02-15T11:24:31.000Z</time>
      </trkpt>
      <trkpt lat="43.53127" lon="5.58126">
        <ele>925</ele>
        <time>2022-02-15T11:24:32.000Z</time>
      </trkpt>
      <trkpt lat="43.53127" lon="5.58126">
        <ele>926</ele>
        <time>2022-02-15T11:24:33.000Z</time>
      </trkpt>
      <trkpt lat="43.53127" lon="5.58126">
        <ele>926</ele>
        <time>2022-02-15T11:24:34.000Z</time>
      </trkpt>
      <trkpt lat="43.53127" lon="5.58125">
        <ele>926</ele>
        <time>2022-02-15T11:24:35.000Z</time>
      </trkpt>
      <trkpt lat="43.53127" lon="5.58125">
        <ele>926</ele>
        <time>2022-02-15T11:24:36.000Z</time>
      </trkpt>
      <trkpt lat="43.53127" lon="5.58125">
        <ele>926</ele>
        <time>2022-02-15T11:24:37.000Z</time>
      </trkpt>
      <trkpt lat="43.53127" lon="5.58124">
        <ele>926</ele>
        <time>2022-02-15T11:24:38.000Z</time>
      </trkpt>
      <trkpt lat="43.53127" lon="5.58124">
        <ele>926</ele>
        <time>2022-02-15T11:24:39.000Z</time>
      </trkpt>
      <trkpt lat="43.53127" lon="5.58123">
        <ele>926</ele>
        <time>2022-02-15T11:24:40.000Z</time>
      </trkpt>
      <trkpt lat="43.53127" lon="5.58122">
        <ele>926</ele>
        <time>2022-02-15T11:24:41.000Z</time>
      </trkpt>
      <trkpt lat="43.53127" lon="5.58121">
        <ele>926</ele>
        <time>2022-02-15T11:24:42.000Z</time>
      </trkpt>
      <trkpt lat="43.53127" lon="5.58121">
        <ele>926</ele>
        <time>2022-02-15T11:24:43.000Z</time>
      </trkpt>
      <trkpt lat="43.53127" lon="5.58121">
        <ele>926</ele>
        <time>2022-02-15T11:24:44.000Z</time>
      </trkpt>
      <trkpt lat="43.53127" lon="5.5812">
        <ele>926</ele>
        <time>2022-02-15T11:24:45.000Z</time>
      </trkpt>
      <trkpt lat="43.53127" lon="5.5812">
        <ele>927</ele>
        <time>2022-02-15T11:24:46.000Z</time>
      </trkpt>
      <trkpt lat="43.53127" lon="5.5812">
        <ele>927</ele>
        <time>2022-02-15T11:24:47.000Z</time>
      </trkpt>
      <trkpt lat="43.53127" lon="5.58119">
        <ele>927</ele>
        <time>2022-02-15T11:24:48.000Z</time>
      </trkpt>
      <trkpt lat="43.53126" lon="5.58119">
        <ele>927</ele>
        <time>2022-02-15T11:24:49.000Z</time>
      </trkpt>
      <trkpt lat="43.53126" lon="5.58119">
        <ele>927</ele>
        <time>2022-02-15T11:24:50.000Z</time>
      </trkpt>
      <trkpt lat="43.53126" lon="5.58119">
        <ele>927</ele>
        <time>2022-02-15T11:24:51.000Z</time>
      </trkpt>
      <trkpt lat="43.53126" lon="5.58118">
        <ele>927</ele>
        <time>2022-02-15T11:24:52.000Z</time>
      </trkpt>
      <trkpt lat="43.53126" lon="5.58117">
        <ele>927</ele>
        <time>2022-02-15T11:24:53.000Z</time>
      </trkpt>
      <trkpt lat="43.53126" lon="5.58117">
        <ele>927</ele>
        <time>2022-02-15T11:24:54.000Z</time>
      </trkpt>
      <trkpt lat="43.53126" lon="5.58117">
        <ele>927</ele>
        <time>2022-02-15T11:24:55.000Z</time>
      </trkpt>
      <trkpt lat="43.53126" lon="5.58116">
        <ele>927</ele>
        <time>2022-02-15T11:24:56.000Z</time>
      </trkpt>
      <trkpt lat="43.53126" lon="5.58116">
        <ele>927</ele>
        <time>2022-02-15T11:24:57.000Z</time>
      </trkpt>
      <trkpt lat="43.53127" lon="5.58115">
        <ele>927</ele>
        <time>2022-02-15T11:24:58.000Z</time>
      </trkpt>
      <trkpt lat="43.53127" lon="5.58115">
        <ele>927</ele>
        <time>2022-02-15T11:24:59.000Z</time>
      </trkpt>
      <trkpt lat="43.53127" lon="5.58115">
        <ele>927</ele>
        <time>2022-02-15T11:25:00.000Z</time>
      </trkpt>
      <trkpt lat="43.53127" lon="5.58114">
        <ele>927</ele>
        <time>2022-02-15T11:25:01.000Z</time>
      </trkpt>
      <trkpt lat="43.53127" lon="5.58114">
        <ele>927</ele>
        <time>2022-02-15T11:25:02.000Z</time>
      </trkpt>
      <trkpt lat="43.53127" lon="5.58113">
        <ele>927</ele>
        <time>2022-02-15T11:25:03.000Z</time>
      </trkpt>
      <trkpt lat="43.53127" lon="5.58113">
        <ele>927</ele>
        <time>2022-02-15T11:25:04.000Z</time>
      </trkpt>
      <trkpt lat="43.53127" lon="5.58112">
        <ele>927</ele>
        <time>2022-02-15T11:25:05.000Z</time>
      </trkpt>
      <trkpt lat="43.53127" lon="5.58111">
        <ele>927</ele>
        <time>2022-02-15T11:25:06.000Z</time>
      </trkpt>
      <trkpt lat="43.53127" lon="5.58111">
        <ele>927</ele>
        <time>2022-02-15T11:25:07.000Z</time>
      </trkpt>
      <trkpt lat="43.53127" lon="5.58111">
        <ele>927</ele>
        <time>2022-02-15T11:25:08.000Z</time>
      </trkpt>
      <trkpt lat="43.53127" lon="5.58111">
        <ele>927</ele>
        <time>2022-02-15T11:25:09.000Z</time>
      </trkpt>
      <trkpt lat="43.53128" lon="5.5811">
        <ele>927</ele>
        <time>2022-02-15T11:25:10.000Z</time>
      </trkpt>
      <trkpt lat="43.53129" lon="5.5811">
        <ele>927</ele>
        <time>2022-02-15T11:25:11.000Z</time>
      </trkpt>
      <trkpt lat="43.53129" lon="5.58109">
        <ele>927</ele>
        <time>2022-02-15T11:25:12.000Z</time>
      </trkpt>
      <trkpt lat="43.53129" lon="5.58108">
        <ele>927</ele>
        <time>2022-02-15T11:25:13.000Z</time>
      </trkpt>
      <trkpt lat="43.53129" lon="5.58108">
        <ele>926</ele>
        <time>2022-02-15T11:25:14.000Z</time>
      </trkpt>
      <trkpt lat="43.53129" lon="5.58107">
        <ele>926</ele>
        <time>2022-02-15T11:25:15.000Z</time>
      </trkpt>
      <trkpt lat="43.53129" lon="5.58106">
        <ele>926</ele>
        <time>2022-02-15T11:25:16.000Z</time>
      </trkpt>
      <trkpt lat="43.53129" lon="5.58106">
        <ele>926</ele>
        <time>2022-02-15T11:25:17.000Z</time>
      </trkpt>
      <trkpt lat="43.53129" lon="5.58105">
        <ele>926</ele>
        <time>2022-02-15T11:25:18.000Z</time>
      </trkpt>
      <trkpt lat="43.53129" lon="5.58104">
        <ele>926</ele>
        <time>2022-02-15T11:25:19.000Z</time>
      </trkpt>
      <trkpt lat="43.53129" lon="5.58104">
        <ele>925</ele>
        <time>2022-02-15T11:25:20.000Z</time>
      </trkpt>
      <trkpt lat="43.53129" lon="5.58104">
        <ele>925</ele>
        <time>2022-02-15T11:25:21.000Z</time>
      </trkpt>
      <trkpt lat="43.53129" lon="5.58103">
        <ele>925</ele>
        <time>2022-02-15T11:25:22.000Z</time>
      </trkpt>
      <trkpt lat="43.53129" lon="5.58103">
        <ele>925</ele>
        <time>2022-02-15T11:25:23.000Z</time>
      </trkpt>
      <trkpt lat="43.53129" lon="5.58103">
        <ele>926</ele>
        <time>2022-02-15T11:25:24.000Z</time>
      </trkpt>
      <trkpt lat="43.53129" lon="5.58103">
        <ele>926</ele>
        <time>2022-02-15T11:25:25.000Z</time>
      </trkpt>
      <trkpt lat="43.53129" lon="5.58102">
        <ele>925</ele>
        <time>2022-02-15T11:25:26.000Z</time>
      </trkpt>
      <trkpt lat="43.53129" lon="5.58101">
        <ele>925</ele>
        <time>2022-02-15T11:25:27.000Z</time>
      </trkpt>
      <trkpt lat="43.53129" lon="5.581">
        <ele>925</ele>
        <time>2022-02-15T11:25:28.000Z</time>
      </trkpt>
      <trkpt lat="43.53129" lon="5.581">
        <ele>925</ele>
        <time>2022-02-15T11:25:29.000Z</time>
      </trkpt>
      <trkpt lat="43.53129" lon="5.58099">
        <ele>925</ele>
        <time>2022-02-15T11:25:30.000Z</time>
      </trkpt>
      <trkpt lat="43.53129" lon="5.58098">
        <ele>925</ele>
        <time>2022-02-15T11:25:31.000Z</time>
      </trkpt>
      <trkpt lat="43.53129" lon="5.58097">
        <ele>925</ele>
        <time>2022-02-15T11:25:32.000Z</time>
      </trkpt>
      <trkpt lat="43.53128" lon="5.58096">
        <ele>925</ele>
        <time>2022-02-15T11:25:33.000Z</time>
      </trkpt>
      <trkpt lat="43.53128" lon="5.58096">
        <ele>925</ele>
        <time>2022-02-15T11:25:34.000Z</time>
      </trkpt>
      <trkpt lat="43.53128" lon="5.58095">
        <ele>925</ele>
        <time>2022-02-15T11:25:35.000Z</time>
      </trkpt>
      <trkpt lat="43.53128" lon="5.58094">
        <ele>924</ele>
        <time>2022-02-15T11:25:36.000Z</time>
      </trkpt>
      <trkpt lat="43.53128" lon="5.58094">
        <ele>924</ele>
        <time>2022-02-15T11:25:37.000Z</time>
      </trkpt>
      <trkpt lat="43.53128" lon="5.58093">
        <ele>924</ele>
        <time>2022-02-15T11:25:38.000Z</time>
      </trkpt>
      <trkpt lat="43.53129" lon="5.58092">
        <ele>924</ele>
        <time>2022-02-15T11:25:39.000Z</time>
      </trkpt>
      <trkpt lat="43.53129" lon="5.58092">
        <ele>924</ele>
        <time>2022-02-15T11:25:40.000Z</time>
      </trkpt>
      <trkpt lat="43.53129" lon="5.58091">
        <ele>923</ele>
        <time>2022-02-15T11:25:41.000Z</time>
      </trkpt>
      <trkpt lat="43.53128" lon="5.5809">
        <ele>923</ele>
        <time>2022-02-15T11:25:42.000Z</time>
      </trkpt>
      <trkpt lat="43.53128" lon="5.58089">
        <ele>923</ele>
        <time>2022-02-15T11:25:43.000Z</time>
      </trkpt>
      <trkpt lat="43.53127" lon="5.58087">
        <ele>923</ele>
        <time>2022-02-15T11:25:44.000Z</time>
      </trkpt>
      <trkpt lat="43.53127" lon="5.58086">
        <ele>923</ele>
        <time>2022-02-15T11:25:45.000Z</time>
      </trkpt>
      <trkpt lat="43.53127" lon="5.58085">
        <ele>922</ele>
        <time>2022-02-15T11:25:46.000Z</time>
      </trkpt>
      <trkpt lat="43.53127" lon="5.58084">
        <ele>922</ele>
        <time>2022-02-15T11:25:47.000Z</time>
      </trkpt>
      <trkpt lat="43.53126" lon="5.58083">
        <ele>922</ele>
        <time>2022-02-15T11:25:48.000Z</time>
      </trkpt>
      <trkpt lat="43.53126" lon="5.58082">
        <ele>922</ele>
        <time>2022-02-15T11:25:49.000Z</time>
      </trkpt>
      <trkpt lat="43.53126" lon="5.58081">
        <ele>922</ele>
        <time>2022-02-15T11:25:50.000Z</time>
      </trkpt>
      <trkpt lat="43.53126" lon="5.5808">
        <ele>922</ele>
        <time>2022-02-15T11:25:51.000Z</time>
      </trkpt>
      <trkpt lat="43.53125" lon="5.5808">
        <ele>922</ele>
        <time>2022-02-15T11:25:52.000Z</time>
      </trkpt>
      <trkpt lat="43.53125" lon="5.58079">
        <ele>922</ele>
        <time>2022-02-15T11:25:53.000Z</time>
      </trkpt>
      <trkpt lat="43.53124" lon="5.58078">
        <ele>922</ele>
        <time>2022-02-15T11:25:54.000Z</time>
      </trkpt>
      <trkpt lat="43.53124" lon="5.58077">
        <ele>922</ele>
        <time>2022-02-15T11:25:55.000Z</time>
      </trkpt>
      <trkpt lat="43.53124" lon="5.58076">
        <ele>922</ele>
        <time>2022-02-15T11:25:56.000Z</time>
      </trkpt>
      <trkpt lat="43.53123" lon="5.58075">
        <ele>922</ele>
        <time>2022-02-15T11:25:57.000Z</time>
      </trkpt>
      <trkpt lat="43.53123" lon="5.58075">
        <ele>922</ele>
        <time>2022-02-15T11:25:58.000Z</time>
      </trkpt>
      <trkpt lat="43.53123" lon="5.58074">
        <ele>922</ele>
        <time>2022-02-15T11:25:59.000Z</time>
      </trkpt>
      <trkpt lat="43.53123" lon="5.58073">
        <ele>922</ele>
        <time>2022-02-15T11:26:00.000Z</time>
      </trkpt>
      <trkpt lat="43.53122" lon="5.58073">
        <ele>922</ele>
        <time>2022-02-15T11:26:01.000Z</time>
      </trkpt>
      <trkpt lat="43.53122" lon="5.58072">
        <ele>922</ele>
        <time>2022-02-15T11:26:02.000Z</time>
      </trkpt>
      <trkpt lat="43.53122" lon="5.5807">
        <ele>922</ele>
        <time>2022-02-15T11:26:03.000Z</time>
      </trkpt>
      <trkpt lat="43.53121" lon="5.58069">
        <ele>922</ele>
        <time>2022-02-15T11:26:04.000Z</time>
      </trkpt>
      <trkpt lat="43.53121" lon="5.58069">
        <ele>922</ele>
        <time>2022-02-15T11:26:05.000Z</time>
      </trkpt>
      <trkpt lat="43.53121" lon="5.58068">
        <ele>922</ele>
        <time>2022-02-15T11:26:06.000Z</time>
      </trkpt>
      <trkpt lat="43.53121" lon="5.58067">
        <ele>922</ele>
        <time>2022-02-15T11:26:07.000Z</time>
      </trkpt>
      <trkpt lat="43.53121" lon="5.58066">
        <ele>922</ele>
        <time>2022-02-15T11:26:08.000Z</time>
      </trkpt>
      <trkpt lat="43.53121" lon="5.58064">
        <ele>922</ele>
        <time>2022-02-15T11:26:09.000Z</time>
      </trkpt>
      <trkpt lat="43.53121" lon="5.58063">
        <ele>922</ele>
        <time>2022-02-15T11:26:10.000Z</time>
      </trkpt>
      <trkpt lat="43.5312" lon="5.58062">
        <ele>922</ele>
        <time>2022-02-15T11:26:11.000Z</time>
      </trkpt>
      <trkpt lat="43.5312" lon="5.58061">
        <ele>922</ele>
        <time>2022-02-15T11:26:12.000Z</time>
      </trkpt>
      <trkpt lat="43.5312" lon="5.5806">
        <ele>922</ele>
        <time>2022-02-15T11:26:13.000Z</time>
      </trkpt>
      <trkpt lat="43.53119" lon="5.5806">
        <ele>922</ele>
        <time>2022-02-15T11:26:14.000Z</time>
      </trkpt>
      <trkpt lat="43.53119" lon="5.58059">
        <ele>922</ele>
        <time>2022-02-15T11:26:15.000Z</time>
      </trkpt>
      <trkpt lat="43.53118" lon="5.58058">
        <ele>922</ele>
        <time>2022-02-15T11:26:16.000Z</time>
      </trkpt>
      <trkpt lat="43.53118" lon="5.58057">
        <ele>923</ele>
        <time>2022-02-15T11:26:17.000Z</time>
      </trkpt>
      <trkpt lat="43.53118" lon="5.58056">
        <ele>923</ele>
        <time>2022-02-15T11:26:18.000Z</time>
      </trkpt>
      <trkpt lat="43.53118" lon="5.58055">
        <ele>923</ele>
        <time>2022-02-15T11:26:19.000Z</time>
      </trkpt>
      <trkpt lat="43.53118" lon="5.58054">
        <ele>923</ele>
        <time>2022-02-15T11:26:20.000Z</time>
      </trkpt>
      <trkpt lat="43.53118" lon="5.58053">
        <ele>922</ele>
        <time>2022-02-15T11:26:21.000Z</time>
      </trkpt>
      <trkpt lat="43.53119" lon="5.58053">
        <ele>922</ele>
        <time>2022-02-15T11:26:22.000Z</time>
      </trkpt>
      <trkpt lat="43.53119" lon="5.58052">
        <ele>922</ele>
        <time>2022-02-15T11:26:23.000Z</time>
      </trkpt>
      <trkpt lat="43.53119" lon="5.58051">
        <ele>922</ele>
        <time>2022-02-15T11:26:24.000Z</time>
      </trkpt>
      <trkpt lat="43.5312" lon="5.58049">
        <ele>922</ele>
        <time>2022-02-15T11:26:25.000Z</time>
      </trkpt>
      <trkpt lat="43.5312" lon="5.58048">
        <ele>922</ele>
        <time>2022-02-15T11:26:26.000Z</time>
      </trkpt>
      <trkpt lat="43.5312" lon="5.58046">
        <ele>922</ele>
        <time>2022-02-15T11:26:27.000Z</time>
      </trkpt>
      <trkpt lat="43.5312" lon="5.58045">
        <ele>922</ele>
        <time>2022-02-15T11:26:28.000Z</time>
      </trkpt>
      <trkpt lat="43.53121" lon="5.58043">
        <ele>922</ele>
        <time>2022-02-15T11:26:29.000Z</time>
      </trkpt>
      <trkpt lat="43.53121" lon="5.58042">
        <ele>921</ele>
        <time>2022-02-15T11:26:30.000Z</time>
      </trkpt>
      <trkpt lat="43.53122" lon="5.58041">
        <ele>921</ele>
        <time>2022-02-15T11:26:31.000Z</time>
      </trkpt>
      <trkpt lat="43.53122" lon="5.58039">
        <ele>921</ele>
        <time>2022-02-15T11:26:32.000Z</time>
      </trkpt>
      <trkpt lat="43.53122" lon="5.58038">
        <ele>922</ele>
        <time>2022-02-15T11:26:33.000Z</time>
      </trkpt>
      <trkpt lat="43.53122" lon="5.58037">
        <ele>922</ele>
        <time>2022-02-15T11:26:34.000Z</time>
      </trkpt>
      <trkpt lat="43.53122" lon="5.58036">
        <ele>921</ele>
        <time>2022-02-15T11:26:35.000Z</time>
      </trkpt>
      <trkpt lat="43.53123" lon="5.58034">
        <ele>921</ele>
        <time>2022-02-15T11:26:36.000Z</time>
      </trkpt>
      <trkpt lat="43.53123" lon="5.58033">
        <ele>921</ele>
        <time>2022-02-15T11:26:37.000Z</time>
      </trkpt>
      <trkpt lat="43.53123" lon="5.58032">
        <ele>921</ele>
        <time>2022-02-15T11:26:38.000Z</time>
      </trkpt>
      <trkpt lat="43.53122" lon="5.5803">
        <ele>921</ele>
        <time>2022-02-15T11:26:39.000Z</time>
      </trkpt>
      <trkpt lat="43.53122" lon="5.58029">
        <ele>921</ele>
        <time>2022-02-15T11:26:40.000Z</time>
      </trkpt>
      <trkpt lat="43.53122" lon="5.58027">
        <ele>921</ele>
        <time>2022-02-15T11:26:41.000Z</time>
      </trkpt>
      <trkpt lat="43.53122" lon="5.58026">
        <ele>921</ele>
        <time>2022-02-15T11:26:42.000Z</time>
      </trkpt>
      <trkpt lat="43.53122" lon="5.58025">
        <ele>922</ele>
        <time>2022-02-15T11:26:43.000Z</time>
      </trkpt>
      <trkpt lat="43.53122" lon="5.58023">
        <ele>922</ele>
        <time>2022-02-15T11:26:44.000Z</time>
      </trkpt>
      <trkpt lat="43.53122" lon="5.58022">
        <ele>922</ele>
        <time>2022-02-15T11:26:45.000Z</time>
      </trkpt>
      <trkpt lat="43.53123" lon="5.5802">
        <ele>921</ele>
        <time>2022-02-15T11:26:46.000Z</time>
      </trkpt>
      <trkpt lat="43.53123" lon="5.58019">
        <ele>922</ele>
        <time>2022-02-15T11:26:47.000Z</time>
      </trkpt>
      <trkpt lat="43.53123" lon="5.58018">
        <ele>922</ele>
        <time>2022-02-15T11:26:48.000Z</time>
      </trkpt>
      <trkpt lat="43.53123" lon="5.58016">
        <ele>922</ele>
        <time>2022-02-15T11:26:49.000Z</time>
      </trkpt>
      <trkpt lat="43.53123" lon="5.58015">
        <ele>922</ele>
        <time>2022-02-15T11:26:50.000Z</time>
      </trkpt>
      <trkpt lat="43.53123" lon="5.58014">
        <ele>922</ele>
        <time>2022-02-15T11:26:51.000Z</time>
      </trkpt>
      <trkpt lat="43.53123" lon="5.58013">
        <ele>922</ele>
        <time>2022-02-15T11:26:52.000Z</time>
      </trkpt>
      <trkpt lat="43.53124" lon="5.58012">
        <ele>922</ele>
        <time>2022-02-15T11:26:53.000Z</time>
      </trkpt>
      <trkpt lat="43.53124" lon="5.58011">
        <ele>922</ele>
        <time>2022-02-15T11:26:54.000Z</time>
      </trkpt>
      <trkpt lat="43.53124" lon="5.5801">
        <ele>922</ele>
        <time>2022-02-15T11:26:55.000Z</time>
      </trkpt>
      <trkpt lat="43.53124" lon="5.58009">
        <ele>922</ele>
        <time>2022-02-15T11:26:56.000Z</time>
      </trkpt>
      <trkpt lat="43.53124" lon="5.58008">
        <ele>922</ele>
        <time>2022-02-15T11:26:57.000Z</time>
      </trkpt>
      <trkpt lat="43.53124" lon="5.58007">
        <ele>922</ele>
        <time>2022-02-15T11:26:58.000Z</time>
      </trkpt>
      <trkpt lat="43.53125" lon="5.58005">
        <ele>922</ele>
        <time>2022-02-15T11:26:59.000Z</time>
      </trkpt>
      <trkpt lat="43.53125" lon="5.58004">
        <ele>922</ele>
        <time>2022-02-15T11:27:00.000Z</time>
      </trkpt>
      <trkpt lat="43.53126" lon="5.58003">
        <ele>922</ele>
        <time>2022-02-15T11:27:01.000Z</time>
      </trkpt>
      <trkpt lat="43.53126" lon="5.58002">
        <ele>922</ele>
        <time>2022-02-15T11:27:02.000Z</time>
      </trkpt>
      <trkpt lat="43.53126" lon="5.58001">
        <ele>922</ele>
        <time>2022-02-15T11:27:03.000Z</time>
      </trkpt>
      <trkpt lat="43.53126" lon="5.58">
        <ele>922</ele>
        <time>2022-02-15T11:27:04.000Z</time>
      </trkpt>
      <trkpt lat="43.53126" lon="5.57999">
        <ele>922</ele>
        <time>2022-02-15T11:27:05.000Z</time>
      </trkpt>
      <trkpt lat="43.53126" lon="5.57998">
        <ele>922</ele>
        <time>2022-02-15T11:27:06.000Z</time>
      </trkpt>
      <trkpt lat="43.53126" lon="5.57997">
        <ele>922</ele>
        <time>2022-02-15T11:27:07.000Z</time>
      </trkpt>
      <trkpt lat="43.53126" lon="5.57997">
        <ele>922</ele>
        <time>2022-02-15T11:27:08.000Z</time>
      </trkpt>
      <trkpt lat="43.53126" lon="5.57996">
        <ele>922</ele>
        <time>2022-02-15T11:27:09.000Z</time>
      </trkpt>
      <trkpt lat="43.53126" lon="5.57995">
        <ele>922</ele>
        <time>2022-02-15T11:27:10.000Z</time>
      </trkpt>
      <trkpt lat="43.53126" lon="5.57994">
        <ele>922</ele>
        <time>2022-02-15T11:27:11.000Z</time>
      </trkpt>
      <trkpt lat="43.53126" lon="5.57993">
        <ele>922</ele>
        <time>2022-02-15T11:27:12.000Z</time>
      </trkpt>
      <trkpt lat="43.53125" lon="5.57992">
        <ele>923</ele>
        <time>2022-02-15T11:27:13.000Z</time>
      </trkpt>
      <trkpt lat="43.53125" lon="5.57991">
        <ele>923</ele>
        <time>2022-02-15T11:27:14.000Z</time>
      </trkpt>
      <trkpt lat="43.53125" lon="5.57991">
        <ele>923</ele>
        <time>2022-02-15T11:27:15.000Z</time>
      </trkpt>
      <trkpt lat="43.53125" lon="5.57991">
        <ele>923</ele>
        <time>2022-02-15T11:27:16.000Z</time>
      </trkpt>
      <trkpt lat="43.53125" lon="5.57991">
        <ele>923</ele>
        <time>2022-02-15T11:27:17.000Z</time>
      </trkpt>
      <trkpt lat="43.53125" lon="5.57991">
        <ele>923</ele>
        <time>2022-02-15T11:27:18.000Z</time>
      </trkpt>
      <trkpt lat="43.53125" lon="5.57991">
        <ele>923</ele>
        <time>2022-02-15T11:27:19.000Z</time>
      </trkpt>
      <trkpt lat="43.53125" lon="5.57991">
        <ele>923</ele>
        <time>2022-02-15T11:27:20.000Z</time>
      </trkpt>
      <trkpt lat="43.53125" lon="5.57991">
        <ele>923</ele>
        <time>2022-02-15T11:27:21.000Z</time>
      </trkpt>
      <trkpt lat="43.53125" lon="5.57991">
        <ele>923</ele>
        <time>2022-02-15T11:27:22.000Z</time>
      </trkpt>
      <trkpt lat="43.53125" lon="5.5799">
        <ele>923</ele>
        <time>2022-02-15T11:27:23.000Z</time>
      </trkpt>
      <trkpt lat="43.53126" lon="5.57989">
        <ele>922</ele>
        <time>2022-02-15T11:27:24.000Z</time>
      </trkpt>
      <trkpt lat="43.53125" lon="5.57988">
        <ele>922</ele>
        <time>2022-02-15T11:27:25.000Z</time>
      </trkpt>
      <trkpt lat="43.53125" lon="5.57987">
        <ele>923</ele>
        <time>2022-02-15T11:27:26.000Z</time>
      </trkpt>
      <trkpt lat="43.53125" lon="5.57986">
        <ele>923</ele>
        <time>2022-02-15T11:27:27.000Z</time>
      </trkpt>
      <trkpt lat="43.53124" lon="5.57986">
        <ele>923</ele>
        <time>2022-02-15T11:27:28.000Z</time>
      </trkpt>
      <trkpt lat="43.53124" lon="5.57985">
        <ele>923</ele>
        <time>2022-02-15T11:27:29.000Z</time>
      </trkpt>
      <trkpt lat="43.53123" lon="5.57984">
        <ele>923</ele>
        <time>2022-02-15T11:27:30.000Z</time>
      </trkpt>
      <trkpt lat="43.53123" lon="5.57983">
        <ele>923</ele>
        <time>2022-02-15T11:27:31.000Z</time>
      </trkpt>
      <trkpt lat="43.53123" lon="5.57982">
        <ele>923</ele>
        <time>2022-02-15T11:27:32.000Z</time>
      </trkpt>
      <trkpt lat="43.53122" lon="5.57981">
        <ele>923</ele>
        <time>2022-02-15T11:27:33.000Z</time>
      </trkpt>
      <trkpt lat="43.53122" lon="5.5798">
        <ele>923</ele>
        <time>2022-02-15T11:27:34.000Z</time>
      </trkpt>
      <trkpt lat="43.53122" lon="5.57979">
        <ele>923</ele>
        <time>2022-02-15T11:27:35.000Z</time>
      </trkpt>
      <trkpt lat="43.53121" lon="5.57979">
        <ele>923</ele>
        <time>2022-02-15T11:27:36.000Z</time>
      </trkpt>
      <trkpt lat="43.53121" lon="5.57978">
        <ele>924</ele>
        <time>2022-02-15T11:27:37.000Z</time>
      </trkpt>
      <trkpt lat="43.53121" lon="5.57977">
        <ele>924</ele>
        <time>2022-02-15T11:27:38.000Z</time>
      </trkpt>
      <trkpt lat="43.53121" lon="5.57976">
        <ele>924</ele>
        <time>2022-02-15T11:27:39.000Z</time>
      </trkpt>
      <trkpt lat="43.53121" lon="5.57975">
        <ele>924</ele>
        <time>2022-02-15T11:27:40.000Z</time>
      </trkpt>
      <trkpt lat="43.53121" lon="5.57973">
        <ele>924</ele>
        <time>2022-02-15T11:27:41.000Z</time>
      </trkpt>
      <trkpt lat="43.53121" lon="5.57972">
        <ele>924</ele>
        <time>2022-02-15T11:27:42.000Z</time>
      </trkpt>
      <trkpt lat="43.53121" lon="5.57971">
        <ele>924</ele>
        <time>2022-02-15T11:27:43.000Z</time>
      </trkpt>
      <trkpt lat="43.53121" lon="5.57971">
        <ele>924</ele>
        <time>2022-02-15T11:27:44.000Z</time>
      </trkpt>
      <trkpt lat="43.53121" lon="5.57971">
        <ele>924</ele>
        <time>2022-02-15T11:27:45.000Z</time>
      </trkpt>
      <trkpt lat="43.53121" lon="5.57971">
        <ele>924</ele>
        <time>2022-02-15T11:27:46.000Z</time>
      </trkpt>
      <trkpt lat="43.53121" lon="5.57971">
        <ele>924</ele>
        <time>2022-02-15T11:27:47.000Z</time>
      </trkpt>
      <trkpt lat="43.53121" lon="5.57971">
        <ele>924</ele>
        <time>2022-02-15T11:27:48.000Z</time>
      </trkpt>
      <trkpt lat="43.53121" lon="5.5797">
        <ele>924</ele>
        <time>2022-02-15T11:27:49.000Z</time>
      </trkpt>
      <trkpt lat="43.53121" lon="5.5797">
        <ele>924</ele>
        <time>2022-02-15T11:27:50.000Z</time>
      </trkpt>
      <trkpt lat="43.53121" lon="5.5797">
        <ele>924</ele>
        <time>2022-02-15T11:27:51.000Z</time>
      </trkpt>
      <trkpt lat="43.53122" lon="5.5797">
        <ele>924</ele>
        <time>2022-02-15T11:27:52.000Z</time>
      </trkpt>
      <trkpt lat="43.53122" lon="5.5797">
        <ele>925</ele>
        <time>2022-02-15T11:27:53.000Z</time>
      </trkpt>
      <trkpt lat="43.53122" lon="5.5797">
        <ele>925</ele>
        <time>2022-02-15T11:27:54.000Z</time>
      </trkpt>
      <trkpt lat="43.53122" lon="5.5797">
        <ele>925</ele>
        <time>2022-02-15T11:27:55.000Z</time>
      </trkpt>
      <trkpt lat="43.53122" lon="5.5797">
        <ele>925</ele>
        <time>2022-02-15T11:27:56.000Z</time>
      </trkpt>
      <trkpt lat="43.53122" lon="5.5797">
        <ele>925</ele>
        <time>2022-02-15T11:27:57.000Z</time>
      </trkpt>
      <trkpt lat="43.53122" lon="5.5797">
        <ele>925</ele>
        <time>2022-02-15T11:27:58.000Z</time>
      </trkpt>
      <trkpt lat="43.53122" lon="5.5797">
        <ele>925</ele>
        <time>2022-02-15T11:27:59.000Z</time>
      </trkpt>
      <trkpt lat="43.53122" lon="5.5797">
        <ele>925</ele>
        <time>2022-02-15T11:28:00.000Z</time>
      </trkpt>
      <trkpt lat="43.53122" lon="5.57969">
        <ele>925</ele>
        <time>2022-02-15T11:28:01.000Z</time>
      </trkpt>
      <trkpt lat="43.53122" lon="5.57968">
        <ele>925</ele>
        <time>2022-02-15T11:28:02.000Z</time>
      </trkpt>
      <trkpt lat="43.53123" lon="5.57967">
        <ele>925</ele>
        <time>2022-02-15T11:28:03.000Z</time>
      </trkpt>
      <trkpt lat="43.53123" lon="5.57967">
        <ele>925</ele>
        <time>2022-02-15T11:28:04.000Z</time>
      </trkpt>
      <trkpt lat="43.53123" lon="5.57966">
        <ele>925</ele>
        <time>2022-02-15T11:28:05.000Z</time>
      </trkpt>
      <trkpt lat="43.53122" lon="5.57966">
        <ele>925</ele>
        <time>2022-02-15T11:28:06.000Z</time>
      </trkpt>
      <trkpt lat="43.53122" lon="5.57965">
        <ele>925</ele>
        <time>2022-02-15T11:28:07.000Z</time>
      </trkpt>
      <trkpt lat="43.53122" lon="5.57964">
        <ele>925</ele>
        <time>2022-02-15T11:28:08.000Z</time>
      </trkpt>
      <trkpt lat="43.53123" lon="5.57963">
        <ele>925</ele>
        <time>2022-02-15T11:28:09.000Z</time>
      </trkpt>
      <trkpt lat="43.53123" lon="5.57962">
        <ele>925</ele>
        <time>2022-02-15T11:28:10.000Z</time>
      </trkpt>
      <trkpt lat="43.53123" lon="5.57961">
        <ele>925</ele>
        <time>2022-02-15T11:28:11.000Z</time>
      </trkpt>
      <trkpt lat="43.53124" lon="5.5796">
        <ele>925</ele>
        <time>2022-02-15T11:28:12.000Z</time>
      </trkpt>
      <trkpt lat="43.53124" lon="5.57959">
        <ele>925</ele>
        <time>2022-02-15T11:28:13.000Z</time>
      </trkpt>
      <trkpt lat="43.53124" lon="5.57958">
        <ele>925</ele>
        <time>2022-02-15T11:28:14.000Z</time>
      </trkpt>
      <trkpt lat="43.53124" lon="5.57957">
        <ele>925</ele>
        <time>2022-02-15T11:28:15.000Z</time>
      </trkpt>
      <trkpt lat="43.53124" lon="5.57956">
        <ele>925</ele>
        <time>2022-02-15T11:28:16.000Z</time>
      </trkpt>
      <trkpt lat="43.53125" lon="5.57955">
        <ele>925</ele>
        <time>2022-02-15T11:28:17.000Z</time>
      </trkpt>
      <trkpt lat="43.53125" lon="5.57954">
        <ele>925</ele>
        <time>2022-02-15T11:28:18.000Z</time>
      </trkpt>
      <trkpt lat="43.53125" lon="5.57953">
        <ele>925</ele>
        <time>2022-02-15T11:28:19.000Z</time>
      </trkpt>
      <trkpt lat="43.53126" lon="5.57952">
        <ele>925</ele>
        <time>2022-02-15T11:28:20.000Z</time>
      </trkpt>
      <trkpt lat="43.53126" lon="5.57951">
        <ele>925</ele>
        <time>2022-02-15T11:28:21.000Z</time>
      </trkpt>
      <trkpt lat="43.53126" lon="5.5795">
        <ele>925</ele>
        <time>2022-02-15T11:28:22.000Z</time>
      </trkpt>
      <trkpt lat="43.53126" lon="5.57949">
        <ele>925</ele>
        <time>2022-02-15T11:28:23.000Z</time>
      </trkpt>
      <trkpt lat="43.53127" lon="5.57948">
        <ele>924</ele>
        <time>2022-02-15T11:28:24.000Z</time>
      </trkpt>
      <trkpt lat="43.53127" lon="5.57946">
        <ele>924</ele>
        <time>2022-02-15T11:28:25.000Z</time>
      </trkpt>
      <trkpt lat="43.53127" lon="5.57946">
        <ele>924</ele>
        <time>2022-02-15T11:28:26.000Z</time>
      </trkpt>
      <trkpt lat="43.53127" lon="5.57945">
        <ele>924</ele>
        <time>2022-02-15T11:28:27.000Z</time>
      </trkpt>
      <trkpt lat="43.53127" lon="5.57944">
        <ele>924</ele>
        <time>2022-02-15T11:28:28.000Z</time>
      </trkpt>
      <trkpt lat="43.53127" lon="5.57943">
        <ele>924</ele>
        <time>2022-02-15T11:28:29.000Z</time>
      </trkpt>
      <trkpt lat="43.53128" lon="5.57943">
        <ele>924</ele>
        <time>2022-02-15T11:28:30.000Z</time>
      </trkpt>
      <trkpt lat="43.53128" lon="5.57942">
        <ele>924</ele>
        <time>2022-02-15T11:28:31.000Z</time>
      </trkpt>
      <trkpt lat="43.53128" lon="5.57941">
        <ele>924</ele>
        <time>2022-02-15T11:28:32.000Z</time>
      </trkpt>
      <trkpt lat="43.53128" lon="5.57941">
        <ele>924</ele>
        <time>2022-02-15T11:28:33.000Z</time>
      </trkpt>
      <trkpt lat="43.53128" lon="5.5794">
        <ele>924</ele>
        <time>2022-02-15T11:28:34.000Z</time>
      </trkpt>
      <trkpt lat="43.53129" lon="5.57939">
        <ele>924</ele>
        <time>2022-02-15T11:28:35.000Z</time>
      </trkpt>
      <trkpt lat="43.53129" lon="5.57938">
        <ele>924</ele>
        <time>2022-02-15T11:28:36.000Z</time>
      </trkpt>
      <trkpt lat="43.53129" lon="5.57938">
        <ele>924</ele>
        <time>2022-02-15T11:28:37.000Z</time>
      </trkpt>
      <trkpt lat="43.5313" lon="5.57937">
        <ele>924</ele>
        <time>2022-02-15T11:28:38.000Z</time>
      </trkpt>
      <trkpt lat="43.5313" lon="5.57937">
        <ele>924</ele>
        <time>2022-02-15T11:28:39.000Z</time>
      </trkpt>
      <trkpt lat="43.5313" lon="5.57937">
        <ele>924</ele>
        <time>2022-02-15T11:28:40.000Z</time>
      </trkpt>
      <trkpt lat="43.5313" lon="5.57936">
        <ele>924</ele>
        <time>2022-02-15T11:28:41.000Z</time>
      </trkpt>
      <trkpt lat="43.5313" lon="5.57936">
        <ele>924</ele>
        <time>2022-02-15T11:28:42.000Z</time>
      </trkpt>
      <trkpt lat="43.53131" lon="5.57935">
        <ele>924</ele>
        <time>2022-02-15T11:28:43.000Z</time>
      </trkpt>
      <trkpt lat="43.53131" lon="5.57934">
        <ele>924</ele>
        <time>2022-02-15T11:28:44.000Z</time>
      </trkpt>
      <trkpt lat="43.53132" lon="5.57933">
        <ele>924</ele>
        <time>2022-02-15T11:28:45.000Z</time>
      </trkpt>
      <trkpt lat="43.53132" lon="5.57933">
        <ele>924</ele>
        <time>2022-02-15T11:28:46.000Z</time>
      </trkpt>
      <trkpt lat="43.53132" lon="5.57932">
        <ele>923</ele>
        <time>2022-02-15T11:28:47.000Z</time>
      </trkpt>
      <trkpt lat="43.53132" lon="5.57932">
        <ele>923</ele>
        <time>2022-02-15T11:28:48.000Z</time>
      </trkpt>
      <trkpt lat="43.53133" lon="5.57932">
        <ele>923</ele>
        <time>2022-02-15T11:28:49.000Z</time>
      </trkpt>
      <trkpt lat="43.53133" lon="5.57931">
        <ele>923</ele>
        <time>2022-02-15T11:28:50.000Z</time>
      </trkpt>
      <trkpt lat="43.53134" lon="5.57931">
        <ele>923</ele>
        <time>2022-02-15T11:28:51.000Z</time>
      </trkpt>
      <trkpt lat="43.53134" lon="5.57931">
        <ele>923</ele>
        <time>2022-02-15T11:28:52.000Z</time>
      </trkpt>
      <trkpt lat="43.53134" lon="5.5793">
        <ele>923</ele>
        <time>2022-02-15T11:28:53.000Z</time>
      </trkpt>
      <trkpt lat="43.53134" lon="5.57929">
        <ele>923</ele>
        <time>2022-02-15T11:28:54.000Z</time>
      </trkpt>
      <trkpt lat="43.53134" lon="5.57928">
        <ele>922</ele>
        <time>2022-02-15T11:28:55.000Z</time>
      </trkpt>
      <trkpt lat="43.53135" lon="5.57928">
        <ele>922</ele>
        <time>2022-02-15T11:28:56.000Z</time>
      </trkpt>
      <trkpt lat="43.53135" lon="5.57928">
        <ele>922</ele>
        <time>2022-02-15T11:28:57.000Z</time>
      </trkpt>
      <trkpt lat="43.53135" lon="5.57928">
        <ele>922</ele>
        <time>2022-02-15T11:28:58.000Z</time>
      </trkpt>
      <trkpt lat="43.53135" lon="5.57927">
        <ele>922</ele>
        <time>2022-02-15T11:28:59.000Z</time>
      </trkpt>
      <trkpt lat="43.53135" lon="5.57926">
        <ele>922</ele>
        <time>2022-02-15T11:29:00.000Z</time>
      </trkpt>
      <trkpt lat="43.53135" lon="5.57926">
        <ele>922</ele>
        <time>2022-02-15T11:29:01.000Z</time>
      </trkpt>
      <trkpt lat="43.53136" lon="5.57926">
        <ele>922</ele>
        <time>2022-02-15T11:29:02.000Z</time>
      </trkpt>
      <trkpt lat="43.53136" lon="5.57925">
        <ele>921</ele>
        <time>2022-02-15T11:29:03.000Z</time>
      </trkpt>
      <trkpt lat="43.53136" lon="5.57924">
        <ele>921</ele>
        <time>2022-02-15T11:29:04.000Z</time>
      </trkpt>
      <trkpt lat="43.53136" lon="5.57923">
        <ele>921</ele>
        <time>2022-02-15T11:29:05.000Z</time>
      </trkpt>
      <trkpt lat="43.53136" lon="5.57923">
        <ele>921</ele>
        <time>2022-02-15T11:29:06.000Z</time>
      </trkpt>
      <trkpt lat="43.53136" lon="5.57923">
        <ele>921</ele>
        <time>2022-02-15T11:29:07.000Z</time>
      </trkpt>
      <trkpt lat="43.53137" lon="5.57923">
        <ele>921</ele>
        <time>2022-02-15T11:29:08.000Z</time>
      </trkpt>
      <trkpt lat="43.53137" lon="5.57922">
        <ele>921</ele>
        <time>2022-02-15T11:29:09.000Z</time>
      </trkpt>
      <trkpt lat="43.53137" lon="5.57922">
        <ele>921</ele>
        <time>2022-02-15T11:29:10.000Z</time>
      </trkpt>
      <trkpt lat="43.53138" lon="5.57922">
        <ele>921</ele>
        <time>2022-02-15T11:29:11.000Z</time>
      </trkpt>
      <trkpt lat="43.53138" lon="5.57921">
        <ele>921</ele>
        <time>2022-02-15T11:29:12.000Z</time>
      </trkpt>
      <trkpt lat="43.53138" lon="5.57922">
        <ele>920</ele>
        <time>2022-02-15T11:29:13.000Z</time>
      </trkpt>
      <trkpt lat="43.53139" lon="5.57922">
        <ele>920</ele>
        <time>2022-02-15T11:29:14.000Z</time>
      </trkpt>
      <trkpt lat="43.53139" lon="5.57921">
        <ele>920</ele>
        <time>2022-02-15T11:29:15.000Z</time>
      </trkpt>
      <trkpt lat="43.5314" lon="5.57921">
        <ele>920</ele>
        <time>2022-02-15T11:29:16.000Z</time>
      </trkpt>
      <trkpt lat="43.5314" lon="5.5792">
        <ele>920</ele>
        <time>2022-02-15T11:29:17.000Z</time>
      </trkpt>
      <trkpt lat="43.5314" lon="5.5792">
        <ele>920</ele>
        <time>2022-02-15T11:29:18.000Z</time>
      </trkpt>
      <trkpt lat="43.5314" lon="5.5792">
        <ele>920</ele>
        <time>2022-02-15T11:29:19.000Z</time>
      </trkpt>
      <trkpt lat="43.5314" lon="5.5792">
        <ele>920</ele>
        <time>2022-02-15T11:29:20.000Z</time>
      </trkpt>
      <trkpt lat="43.5314" lon="5.5792">
        <ele>920</ele>
        <time>2022-02-15T11:29:21.000Z</time>
      </trkpt>
      <trkpt lat="43.5314" lon="5.5792">
        <ele>920</ele>
        <time>2022-02-15T11:29:22.000Z</time>
      </trkpt>
      <trkpt lat="43.5314" lon="5.5792">
        <ele>920</ele>
        <time>2022-02-15T11:29:23.000Z</time>
      </trkpt>
      <trkpt lat="43.5314" lon="5.5792">
        <ele>920</ele>
        <time>2022-02-15T11:29:24.000Z</time>
      </trkpt>
      <trkpt lat="43.5314" lon="5.5792">
        <ele>920</ele>
        <time>2022-02-15T11:29:25.000Z</time>
      </trkpt>
      <trkpt lat="43.5314" lon="5.57919">
        <ele>920</ele>
        <time>2022-02-15T11:29:26.000Z</time>
      </trkpt>
      <trkpt lat="43.5314" lon="5.57919">
        <ele>920</ele>
        <time>2022-02-15T11:29:27.000Z</time>
      </trkpt>
      <trkpt lat="43.5314" lon="5.57919">
        <ele>920</ele>
        <time>2022-02-15T11:29:28.000Z</time>
      </trkpt>
      <trkpt lat="43.5314" lon="5.57919">
        <ele>920</ele>
        <time>2022-02-15T11:29:29.000Z</time>
      </trkpt>
      <trkpt lat="43.5314" lon="5.57919">
        <ele>920</ele>
        <time>2022-02-15T11:29:30.000Z</time>
      </trkpt>
      <trkpt lat="43.5314" lon="5.57919">
        <ele>920</ele>
        <time>2022-02-15T11:29:31.000Z</time>
      </trkpt>
      <trkpt lat="43.5314" lon="5.57919">
        <ele>920</ele>
        <time>2022-02-15T11:29:32.000Z</time>
      </trkpt>
      <trkpt lat="43.53139" lon="5.57919">
        <ele>920</ele>
        <time>2022-02-15T11:29:33.000Z</time>
      </trkpt>
      <trkpt lat="43.53139" lon="5.57918">
        <ele>920</ele>
        <time>2022-02-15T11:29:34.000Z</time>
      </trkpt>
      <trkpt lat="43.53139" lon="5.57918">
        <ele>920</ele>
        <time>2022-02-15T11:29:35.000Z</time>
      </trkpt>
      <trkpt lat="43.5314" lon="5.57917">
        <ele>920</ele>
        <time>2022-02-15T11:29:36.000Z</time>
      </trkpt>
      <trkpt lat="43.5314" lon="5.57916">
        <ele>920</ele>
        <time>2022-02-15T11:29:37.000Z</time>
      </trkpt>
      <trkpt lat="43.53141" lon="5.57916">
        <ele>920</ele>
        <time>2022-02-15T11:29:38.000Z</time>
      </trkpt>
      <trkpt lat="43.53141" lon="5.57916">
        <ele>920</ele>
        <time>2022-02-15T11:29:39.000Z</time>
      </trkpt>
      <trkpt lat="43.53141" lon="5.57916">
        <ele>920</ele>
        <time>2022-02-15T11:29:40.000Z</time>
      </trkpt>
      <trkpt lat="43.53141" lon="5.57916">
        <ele>920</ele>
        <time>2022-02-15T11:29:41.000Z</time>
      </trkpt>
      <trkpt lat="43.53141" lon="5.57915">
        <ele>920</ele>
        <time>2022-02-15T11:29:42.000Z</time>
      </trkpt>
      <trkpt lat="43.53141" lon="5.57915">
        <ele>920</ele>
        <time>2022-02-15T11:29:43.000Z</time>
      </trkpt>
      <trkpt lat="43.53142" lon="5.57915">
        <ele>920</ele>
        <time>2022-02-15T11:29:44.000Z</time>
      </trkpt>
      <trkpt lat="43.53142" lon="5.57914">
        <ele>920</ele>
        <time>2022-02-15T11:29:45.000Z</time>
      </trkpt>
      <trkpt lat="43.53142" lon="5.57913">
        <ele>919</ele>
        <time>2022-02-15T11:29:46.000Z</time>
      </trkpt>
      <trkpt lat="43.53142" lon="5.57913">
        <ele>919</ele>
        <time>2022-02-15T11:29:47.000Z</time>
      </trkpt>
      <trkpt lat="43.53143" lon="5.57913">
        <ele>919</ele>
        <time>2022-02-15T11:29:48.000Z</time>
      </trkpt>
      <trkpt lat="43.53143" lon="5.57912">
        <ele>919</ele>
        <time>2022-02-15T11:29:49.000Z</time>
      </trkpt>
      <trkpt lat="43.53144" lon="5.57912">
        <ele>919</ele>
        <time>2022-02-15T11:29:50.000Z</time>
      </trkpt>
      <trkpt lat="43.53144" lon="5.57911">
        <ele>919</ele>
        <time>2022-02-15T11:29:51.000Z</time>
      </trkpt>
      <trkpt lat="43.53144" lon="5.57911">
        <ele>919</ele>
        <time>2022-02-15T11:29:52.000Z</time>
      </trkpt>
      <trkpt lat="43.53145" lon="5.5791">
        <ele>919</ele>
        <time>2022-02-15T11:29:53.000Z</time>
      </trkpt>
      <trkpt lat="43.53145" lon="5.5791">
        <ele>919</ele>
        <time>2022-02-15T11:29:54.000Z</time>
      </trkpt>
      <trkpt lat="43.53146" lon="5.57909">
        <ele>919</ele>
        <time>2022-02-15T11:29:55.000Z</time>
      </trkpt>
      <trkpt lat="43.53147" lon="5.57909">
        <ele>919</ele>
        <time>2022-02-15T11:29:56.000Z</time>
      </trkpt>
      <trkpt lat="43.53147" lon="5.57908">
        <ele>918</ele>
        <time>2022-02-15T11:29:57.000Z</time>
      </trkpt>
      <trkpt lat="43.53147" lon="5.57907">
        <ele>918</ele>
        <time>2022-02-15T11:29:58.000Z</time>
      </trkpt>
      <trkpt lat="43.53147" lon="5.57906">
        <ele>918</ele>
        <time>2022-02-15T11:29:59.000Z</time>
      </trkpt>
      <trkpt lat="43.53147" lon="5.57905">
        <ele>918</ele>
        <time>2022-02-15T11:30:00.000Z</time>
      </trkpt>
      <trkpt lat="43.53147" lon="5.57904">
        <ele>918</ele>
        <time>2022-02-15T11:30:01.000Z</time>
      </trkpt>
      <trkpt lat="43.53147" lon="5.57903">
        <ele>917</ele>
        <time>2022-02-15T11:30:02.000Z</time>
      </trkpt>
      <trkpt lat="43.53147" lon="5.57903">
        <ele>917</ele>
        <time>2022-02-15T11:30:03.000Z</time>
      </trkpt>
      <trkpt lat="43.53147" lon="5.57903">
        <ele>917</ele>
        <time>2022-02-15T11:30:04.000Z</time>
      </trkpt>
      <trkpt lat="43.53147" lon="5.57903">
        <ele>917</ele>
        <time>2022-02-15T11:30:05.000Z</time>
      </trkpt>
      <trkpt lat="43.53147" lon="5.57903">
        <ele>917</ele>
        <time>2022-02-15T11:30:06.000Z</time>
      </trkpt>
      <trkpt lat="43.53147" lon="5.57902">
        <ele>917</ele>
        <time>2022-02-15T11:30:07.000Z</time>
      </trkpt>
      <trkpt lat="43.53147" lon="5.57901">
        <ele>916</ele>
        <time>2022-02-15T11:30:08.000Z</time>
      </trkpt>
      <trkpt lat="43.53148" lon="5.57901">
        <ele>916</ele>
        <time>2022-02-15T11:30:09.000Z</time>
      </trkpt>
      <trkpt lat="43.53148" lon="5.57901">
        <ele>916</ele>
        <time>2022-02-15T11:30:10.000Z</time>
      </trkpt>
      <trkpt lat="43.53148" lon="5.57901">
        <ele>916</ele>
        <time>2022-02-15T11:30:11.000Z</time>
      </trkpt>
      <trkpt lat="43.53148" lon="5.57901">
        <ele>916</ele>
        <time>2022-02-15T11:30:12.000Z</time>
      </trkpt>
      <trkpt lat="43.53148" lon="5.579">
        <ele>916</ele>
        <time>2022-02-15T11:30:13.000Z</time>
      </trkpt>
      <trkpt lat="43.53147" lon="5.579">
        <ele>915</ele>
        <time>2022-02-15T11:30:14.000Z</time>
      </trkpt>
      <trkpt lat="43.53147" lon="5.57899">
        <ele>915</ele>
        <time>2022-02-15T11:30:15.000Z</time>
      </trkpt>
      <trkpt lat="43.53147" lon="5.57899">
        <ele>915</ele>
        <time>2022-02-15T11:30:16.000Z</time>
      </trkpt>
      <trkpt lat="43.53147" lon="5.57898">
        <ele>915</ele>
        <time>2022-02-15T11:30:17.000Z</time>
      </trkpt>
      <trkpt lat="43.53146" lon="5.57897">
        <ele>915</ele>
        <time>2022-02-15T11:30:18.000Z</time>
      </trkpt>
      <trkpt lat="43.53146" lon="5.57896">
        <ele>915</ele>
        <time>2022-02-15T11:30:19.000Z</time>
      </trkpt>
      <trkpt lat="43.53146" lon="5.57896">
        <ele>915</ele>
        <time>2022-02-15T11:30:20.000Z</time>
      </trkpt>
      <trkpt lat="43.53146" lon="5.57895">
        <ele>914</ele>
        <time>2022-02-15T11:30:21.000Z</time>
      </trkpt>
      <trkpt lat="43.53146" lon="5.57894">
        <ele>914</ele>
        <time>2022-02-15T11:30:22.000Z</time>
      </trkpt>
      <trkpt lat="43.53146" lon="5.57894">
        <ele>914</ele>
        <time>2022-02-15T11:30:23.000Z</time>
      </trkpt>
      <trkpt lat="43.53146" lon="5.57893">
        <ele>914</ele>
        <time>2022-02-15T11:30:24.000Z</time>
      </trkpt>
      <trkpt lat="43.53147" lon="5.57891">
        <ele>913</ele>
        <time>2022-02-15T11:30:25.000Z</time>
      </trkpt>
      <trkpt lat="43.53147" lon="5.57891">
        <ele>913</ele>
        <time>2022-02-15T11:30:26.000Z</time>
      </trkpt>
      <trkpt lat="43.53147" lon="5.5789">
        <ele>913</ele>
        <time>2022-02-15T11:30:27.000Z</time>
      </trkpt>
      <trkpt lat="43.53147" lon="5.57889">
        <ele>913</ele>
        <time>2022-02-15T11:30:28.000Z</time>
      </trkpt>
      <trkpt lat="43.53147" lon="5.57888">
        <ele>912</ele>
        <time>2022-02-15T11:30:29.000Z</time>
      </trkpt>
      <trkpt lat="43.53147" lon="5.57887">
        <ele>912</ele>
        <time>2022-02-15T11:30:30.000Z</time>
      </trkpt>
      <trkpt lat="43.53147" lon="5.57886">
        <ele>912</ele>
        <time>2022-02-15T11:30:31.000Z</time>
      </trkpt>
      <trkpt lat="43.53147" lon="5.57885">
        <ele>912</ele>
        <time>2022-02-15T11:30:32.000Z</time>
      </trkpt>
      <trkpt lat="43.53147" lon="5.57885">
        <ele>912</ele>
        <time>2022-02-15T11:30:33.000Z</time>
      </trkpt>
      <trkpt lat="43.53147" lon="5.57884">
        <ele>912</ele>
        <time>2022-02-15T11:30:34.000Z</time>
      </trkpt>
      <trkpt lat="43.53148" lon="5.57883">
        <ele>911</ele>
        <time>2022-02-15T11:30:35.000Z</time>
      </trkpt>
      <trkpt lat="43.53148" lon="5.57883">
        <ele>911</ele>
        <time>2022-02-15T11:30:36.000Z</time>
      </trkpt>
      <trkpt lat="43.53148" lon="5.57882">
        <ele>911</ele>
        <time>2022-02-15T11:30:37.000Z</time>
      </trkpt>
      <trkpt lat="43.53147" lon="5.57882">
        <ele>911</ele>
        <time>2022-02-15T11:30:38.000Z</time>
      </trkpt>
      <trkpt lat="43.53147" lon="5.57881">
        <ele>910</ele>
        <time>2022-02-15T11:30:39.000Z</time>
      </trkpt>
      <trkpt lat="43.53147" lon="5.5788">
        <ele>910</ele>
        <time>2022-02-15T11:30:40.000Z</time>
      </trkpt>
      <trkpt lat="43.53148" lon="5.5788">
        <ele>910</ele>
        <time>2022-02-15T11:30:41.000Z</time>
      </trkpt>
      <trkpt lat="43.53148" lon="5.57879">
        <ele>910</ele>
        <time>2022-02-15T11:30:42.000Z</time>
      </trkpt>
      <trkpt lat="43.53148" lon="5.57879">
        <ele>910</ele>
        <time>2022-02-15T11:30:43.000Z</time>
      </trkpt>
      <trkpt lat="43.53148" lon="5.57878">
        <ele>910</ele>
        <time>2022-02-15T11:30:44.000Z</time>
      </trkpt>
      <trkpt lat="43.53148" lon="5.57877">
        <ele>910</ele>
        <time>2022-02-15T11:30:45.000Z</time>
      </trkpt>
      <trkpt lat="43.53148" lon="5.57876">
        <ele>910</ele>
        <time>2022-02-15T11:30:46.000Z</time>
      </trkpt>
      <trkpt lat="43.53149" lon="5.57876">
        <ele>910</ele>
        <time>2022-02-15T11:30:47.000Z</time>
      </trkpt>
      <trkpt lat="43.53149" lon="5.57875">
        <ele>909</ele>
        <time>2022-02-15T11:30:48.000Z</time>
      </trkpt>
      <trkpt lat="43.53149" lon="5.57874">
        <ele>909</ele>
        <time>2022-02-15T11:30:49.000Z</time>
      </trkpt>
      <trkpt lat="43.5315" lon="5.57874">
        <ele>909</ele>
        <time>2022-02-15T11:30:50.000Z</time>
      </trkpt>
      <trkpt lat="43.5315" lon="5.57873">
        <ele>909</ele>
        <time>2022-02-15T11:30:51.000Z</time>
      </trkpt>
      <trkpt lat="43.53151" lon="5.57873">
        <ele>909</ele>
        <time>2022-02-15T11:30:52.000Z</time>
      </trkpt>
      <trkpt lat="43.53152" lon="5.57874">
        <ele>908</ele>
        <time>2022-02-15T11:30:53.000Z</time>
      </trkpt>
      <trkpt lat="43.53152" lon="5.57875">
        <ele>908</ele>
        <time>2022-02-15T11:30:54.000Z</time>
      </trkpt>
      <trkpt lat="43.53152" lon="5.57876">
        <ele>908</ele>
        <time>2022-02-15T11:30:55.000Z</time>
      </trkpt>
      <trkpt lat="43.53152" lon="5.57877">
        <ele>908</ele>
        <time>2022-02-15T11:30:56.000Z</time>
      </trkpt>
      <trkpt lat="43.53152" lon="5.57877">
        <ele>908</ele>
        <time>2022-02-15T11:30:57.000Z</time>
      </trkpt>
      <trkpt lat="43.53153" lon="5.57878">
        <ele>908</ele>
        <time>2022-02-15T11:30:58.000Z</time>
      </trkpt>
      <trkpt lat="43.53153" lon="5.57878">
        <ele>908</ele>
        <time>2022-02-15T11:30:59.000Z</time>
      </trkpt>
      <trkpt lat="43.53154" lon="5.57879">
        <ele>908</ele>
        <time>2022-02-15T11:31:00.000Z</time>
      </trkpt>
      <trkpt lat="43.53154" lon="5.57879">
        <ele>907</ele>
        <time>2022-02-15T11:31:01.000Z</time>
      </trkpt>
      <trkpt lat="43.53154" lon="5.57879">
        <ele>907</ele>
        <time>2022-02-15T11:31:02.000Z</time>
      </trkpt>
      <trkpt lat="43.53154" lon="5.57879">
        <ele>907</ele>
        <time>2022-02-15T11:31:03.000Z</time>
      </trkpt>
      <trkpt lat="43.53154" lon="5.57879">
        <ele>907</ele>
        <time>2022-02-15T11:31:04.000Z</time>
      </trkpt>
      <trkpt lat="43.53155" lon="5.57879">
        <ele>907</ele>
        <time>2022-02-15T11:31:05.000Z</time>
      </trkpt>
      <trkpt lat="43.53155" lon="5.57879">
        <ele>907</ele>
        <time>2022-02-15T11:31:06.000Z</time>
      </trkpt>
      <trkpt lat="43.53155" lon="5.57879">
        <ele>907</ele>
        <time>2022-02-15T11:31:07.000Z</time>
      </trkpt>
      <trkpt lat="43.53155" lon="5.57879">
        <ele>907</ele>
        <time>2022-02-15T11:31:08.000Z</time>
      </trkpt>
      <trkpt lat="43.53155" lon="5.57879">
        <ele>907</ele>
        <time>2022-02-15T11:31:09.000Z</time>
      </trkpt>
      <trkpt lat="43.53155" lon="5.5788">
        <ele>907</ele>
        <time>2022-02-15T11:31:10.000Z</time>
      </trkpt>
      <trkpt lat="43.53155" lon="5.5788">
        <ele>907</ele>
        <time>2022-02-15T11:31:11.000Z</time>
      </trkpt>
      <trkpt lat="43.53155" lon="5.57881">
        <ele>907</ele>
        <time>2022-02-15T11:31:12.000Z</time>
      </trkpt>
      <trkpt lat="43.53155" lon="5.57881">
        <ele>907</ele>
        <time>2022-02-15T11:31:13.000Z</time>
      </trkpt>
      <trkpt lat="43.53155" lon="5.57882">
        <ele>906</ele>
        <time>2022-02-15T11:31:14.000Z</time>
      </trkpt>
      <trkpt lat="43.53155" lon="5.57882">
        <ele>906</ele>
        <time>2022-02-15T11:31:15.000Z</time>
      </trkpt>
      <trkpt lat="43.53155" lon="5.57883">
        <ele>906</ele>
        <time>2022-02-15T11:31:16.000Z</time>
      </trkpt>
      <trkpt lat="43.53155" lon="5.57883">
        <ele>906</ele>
        <time>2022-02-15T11:31:17.000Z</time>
      </trkpt>
      <trkpt lat="43.53155" lon="5.57883">
        <ele>906</ele>
        <time>2022-02-15T11:31:18.000Z</time>
      </trkpt>
      <trkpt lat="43.53155" lon="5.57883">
        <ele>906</ele>
        <time>2022-02-15T11:31:19.000Z</time>
      </trkpt>
      <trkpt lat="43.53155" lon="5.57882">
        <ele>906</ele>
        <time>2022-02-15T11:31:20.000Z</time>
      </trkpt>
      <trkpt lat="43.53155" lon="5.57882">
        <ele>906</ele>
        <time>2022-02-15T11:31:21.000Z</time>
      </trkpt>
      <trkpt lat="43.53156" lon="5.57882">
        <ele>906</ele>
        <time>2022-02-15T11:31:22.000Z</time>
      </trkpt>
      <trkpt lat="43.53156" lon="5.57881">
        <ele>906</ele>
        <time>2022-02-15T11:31:23.000Z</time>
      </trkpt>
      <trkpt lat="43.53157" lon="5.57882">
        <ele>906</ele>
        <time>2022-02-15T11:31:24.000Z</time>
      </trkpt>
      <trkpt lat="43.53157" lon="5.57883">
        <ele>906</ele>
        <time>2022-02-15T11:31:25.000Z</time>
      </trkpt>
      <trkpt lat="43.53157" lon="5.57883">
        <ele>905</ele>
        <time>2022-02-15T11:31:26.000Z</time>
      </trkpt>
      <trkpt lat="43.53157" lon="5.57884">
        <ele>905</ele>
        <time>2022-02-15T11:31:27.000Z</time>
      </trkpt>
      <trkpt lat="43.53157" lon="5.57884">
        <ele>905</ele>
        <time>2022-02-15T11:31:28.000Z</time>
      </trkpt>
      <trkpt lat="43.53157" lon="5.57885">
        <ele>905</ele>
        <time>2022-02-15T11:31:29.000Z</time>
      </trkpt>
      <trkpt lat="43.53157" lon="5.57885">
        <ele>905</ele>
        <time>2022-02-15T11:31:30.000Z</time>
      </trkpt>
      <trkpt lat="43.53157" lon="5.57885">
        <ele>905</ele>
        <time>2022-02-15T11:31:31.000Z</time>
      </trkpt>
      <trkpt lat="43.53157" lon="5.57885">
        <ele>905</ele>
        <time>2022-02-15T11:31:32.000Z</time>
      </trkpt>
      <trkpt lat="43.53157" lon="5.57885">
        <ele>905</ele>
        <time>2022-02-15T11:31:33.000Z</time>
      </trkpt>
      <trkpt lat="43.53157" lon="5.57885">
        <ele>904</ele>
        <time>2022-02-15T11:31:34.000Z</time>
      </trkpt>
      <trkpt lat="43.53157" lon="5.57885">
        <ele>904</ele>
        <time>2022-02-15T11:31:35.000Z</time>
      </trkpt>
      <trkpt lat="43.53157" lon="5.57885">
        <ele>904</ele>
        <time>2022-02-15T11:31:36.000Z</time>
      </trkpt>
      <trkpt lat="43.53157" lon="5.57885">
        <ele>904</ele>
        <time>2022-02-15T11:31:37.000Z</time>
      </trkpt>
      <trkpt lat="43.53157" lon="5.57885">
        <ele>904</ele>
        <time>2022-02-15T11:31:38.000Z</time>
      </trkpt>
      <trkpt lat="43.53157" lon="5.57885">
        <ele>904</ele>
        <time>2022-02-15T11:31:39.000Z</time>
      </trkpt>
      <trkpt lat="43.53157" lon="5.57885">
        <ele>904</ele>
        <time>2022-02-15T11:31:40.000Z</time>
      </trkpt>
      <trkpt lat="43.53158" lon="5.57885">
        <ele>904</ele>
        <time>2022-02-15T11:31:41.000Z</time>
      </trkpt>
      <trkpt lat="43.53158" lon="5.57884">
        <ele>904</ele>
        <time>2022-02-15T11:31:42.000Z</time>
      </trkpt>
      <trkpt lat="43.53158" lon="5.57884">
        <ele>904</ele>
        <time>2022-02-15T11:31:43.000Z</time>
      </trkpt>
      <trkpt lat="43.53158" lon="5.57884">
        <ele>904</ele>
        <time>2022-02-15T11:31:44.000Z</time>
      </trkpt>
      <trkpt lat="43.53158" lon="5.57884">
        <ele>904</ele>
        <time>2022-02-15T11:31:45.000Z</time>
      </trkpt>
      <trkpt lat="43.53158" lon="5.57884">
        <ele>904</ele>
        <time>2022-02-15T11:31:46.000Z</time>
      </trkpt>
      <trkpt lat="43.53158" lon="5.57884">
        <ele>904</ele>
        <time>2022-02-15T11:31:47.000Z</time>
      </trkpt>
      <trkpt lat="43.53158" lon="5.57884">
        <ele>904</ele>
        <time>2022-02-15T11:31:48.000Z</time>
      </trkpt>
      <trkpt lat="43.53158" lon="5.57884">
        <ele>903</ele>
        <time>2022-02-15T11:31:49.000Z</time>
      </trkpt>
      <trkpt lat="43.53158" lon="5.57884">
        <ele>903</ele>
        <time>2022-02-15T11:31:50.000Z</time>
      </trkpt>
      <trkpt lat="43.53158" lon="5.57884">
        <ele>903</ele>
        <time>2022-02-15T11:31:51.000Z</time>
      </trkpt>
      <trkpt lat="43.53159" lon="5.57884">
        <ele>903</ele>
        <time>2022-02-15T11:31:52.000Z</time>
      </trkpt>
      <trkpt lat="43.53159" lon="5.57884">
        <ele>903</ele>
        <time>2022-02-15T11:31:53.000Z</time>
      </trkpt>
      <trkpt lat="43.53159" lon="5.57884">
        <ele>903</ele>
        <time>2022-02-15T11:31:54.000Z</time>
      </trkpt>
      <trkpt lat="43.53159" lon="5.57884">
        <ele>903</ele>
        <time>2022-02-15T11:31:55.000Z</time>
      </trkpt>
      <trkpt lat="43.53159" lon="5.57884">
        <ele>903</ele>
        <time>2022-02-15T11:31:56.000Z</time>
      </trkpt>
      <trkpt lat="43.53159" lon="5.57884">
        <ele>903</ele>
        <time>2022-02-15T11:31:57.000Z</time>
      </trkpt>
      <trkpt lat="43.5316" lon="5.57884">
        <ele>903</ele>
        <time>2022-02-15T11:31:58.000Z</time>
      </trkpt>
      <trkpt lat="43.5316" lon="5.57884">
        <ele>903</ele>
        <time>2022-02-15T11:31:59.000Z</time>
      </trkpt>
      <trkpt lat="43.5316" lon="5.57884">
        <ele>903</ele>
        <time>2022-02-15T11:32:00.000Z</time>
      </trkpt>
      <trkpt lat="43.5316" lon="5.57884">
        <ele>903</ele>
        <time>2022-02-15T11:32:01.000Z</time>
      </trkpt>
      <trkpt lat="43.5316" lon="5.57884">
        <ele>902</ele>
        <time>2022-02-15T11:32:02.000Z</time>
      </trkpt>
      <trkpt lat="43.5316" lon="5.57884">
        <ele>902</ele>
        <time>2022-02-15T11:32:03.000Z</time>
      </trkpt>
      <trkpt lat="43.53161" lon="5.57884">
        <ele>902</ele>
        <time>2022-02-15T11:32:04.000Z</time>
      </trkpt>
      <trkpt lat="43.53161" lon="5.57884">
        <ele>902</ele>
        <time>2022-02-15T11:32:05.000Z</time>
      </trkpt>
      <trkpt lat="43.53161" lon="5.57884">
        <ele>902</ele>
        <time>2022-02-15T11:32:06.000Z</time>
      </trkpt>
      <trkpt lat="43.53161" lon="5.57883">
        <ele>902</ele>
        <time>2022-02-15T11:32:07.000Z</time>
      </trkpt>
      <trkpt lat="43.53161" lon="5.57883">
        <ele>902</ele>
        <time>2022-02-15T11:32:08.000Z</time>
      </trkpt>
      <trkpt lat="43.53161" lon="5.57882">
        <ele>902</ele>
        <time>2022-02-15T11:32:09.000Z</time>
      </trkpt>
      <trkpt lat="43.53161" lon="5.57882">
        <ele>902</ele>
        <time>2022-02-15T11:32:10.000Z</time>
      </trkpt>
      <trkpt lat="43.53161" lon="5.57882">
        <ele>902</ele>
        <time>2022-02-15T11:32:11.000Z</time>
      </trkpt>
      <trkpt lat="43.53161" lon="5.57882">
        <ele>902</ele>
        <time>2022-02-15T11:32:12.000Z</time>
      </trkpt>
      <trkpt lat="43.53161" lon="5.57881">
        <ele>902</ele>
        <time>2022-02-15T11:32:13.000Z</time>
      </trkpt>
      <trkpt lat="43.53162" lon="5.57881">
        <ele>902</ele>
        <time>2022-02-15T11:32:14.000Z</time>
      </trkpt>
      <trkpt lat="43.53162" lon="5.57881">
        <ele>902</ele>
        <time>2022-02-15T11:32:15.000Z</time>
      </trkpt>
      <trkpt lat="43.53163" lon="5.57881">
        <ele>902</ele>
        <time>2022-02-15T11:32:16.000Z</time>
      </trkpt>
      <trkpt lat="43.53163" lon="5.57881">
        <ele>902</ele>
        <time>2022-02-15T11:32:17.000Z</time>
      </trkpt>
      <trkpt lat="43.53163" lon="5.57881">
        <ele>902</ele>
        <time>2022-02-15T11:32:18.000Z</time>
      </trkpt>
      <trkpt lat="43.53164" lon="5.57881">
        <ele>902</ele>
        <time>2022-02-15T11:32:19.000Z</time>
      </trkpt>
      <trkpt lat="43.53164" lon="5.57882">
        <ele>902</ele>
        <time>2022-02-15T11:32:20.000Z</time>
      </trkpt>
      <trkpt lat="43.53164" lon="5.57882">
        <ele>902</ele>
        <time>2022-02-15T11:32:21.000Z</time>
      </trkpt>
      <trkpt lat="43.53164" lon="5.57881">
        <ele>902</ele>
        <time>2022-02-15T11:32:22.000Z</time>
      </trkpt>
      <trkpt lat="43.53164" lon="5.57881">
        <ele>901</ele>
        <time>2022-02-15T11:32:23.000Z</time>
      </trkpt>
      <trkpt lat="43.53165" lon="5.5788">
        <ele>901</ele>
        <time>2022-02-15T11:32:24.000Z</time>
      </trkpt>
      <trkpt lat="43.53164" lon="5.57881">
        <ele>901</ele>
        <time>2022-02-15T11:32:25.000Z</time>
      </trkpt>
      <trkpt lat="43.53164" lon="5.57881">
        <ele>901</ele>
        <time>2022-02-15T11:32:26.000Z</time>
      </trkpt>
      <trkpt lat="43.53164" lon="5.5788">
        <ele>901</ele>
        <time>2022-02-15T11:32:27.000Z</time>
      </trkpt>
      <trkpt lat="43.53164" lon="5.5788">
        <ele>901</ele>
        <time>2022-02-15T11:32:28.000Z</time>
      </trkpt>
      <trkpt lat="43.53165" lon="5.5788">
        <ele>901</ele>
        <time>2022-02-15T11:32:29.000Z</time>
      </trkpt>
      <trkpt lat="43.53165" lon="5.57879">
        <ele>901</ele>
        <time>2022-02-15T11:32:30.000Z</time>
      </trkpt>
      <trkpt lat="43.53164" lon="5.57878">
        <ele>901</ele>
        <time>2022-02-15T11:32:31.000Z</time>
      </trkpt>
      <trkpt lat="43.53164" lon="5.57877">
        <ele>900</ele>
        <time>2022-02-15T11:32:32.000Z</time>
      </trkpt>
      <trkpt lat="43.53164" lon="5.57877">
        <ele>900</ele>
        <time>2022-02-15T11:32:33.000Z</time>
      </trkpt>
      <trkpt lat="43.53164" lon="5.57876">
        <ele>900</ele>
        <time>2022-02-15T11:32:34.000Z</time>
      </trkpt>
      <trkpt lat="43.53164" lon="5.57875">
        <ele>900</ele>
        <time>2022-02-15T11:32:35.000Z</time>
      </trkpt>
      <trkpt lat="43.53164" lon="5.57873">
        <ele>900</ele>
        <time>2022-02-15T11:32:36.000Z</time>
      </trkpt>
      <trkpt lat="43.53164" lon="5.57872">
        <ele>900</ele>
        <time>2022-02-15T11:32:37.000Z</time>
      </trkpt>
      <trkpt lat="43.53164" lon="5.57871">
        <ele>900</ele>
        <time>2022-02-15T11:32:38.000Z</time>
      </trkpt>
      <trkpt lat="43.53163" lon="5.5787">
        <ele>900</ele>
        <time>2022-02-15T11:32:39.000Z</time>
      </trkpt>
      <trkpt lat="43.53163" lon="5.5787">
        <ele>900</ele>
        <time>2022-02-15T11:32:40.000Z</time>
      </trkpt>
      <trkpt lat="43.53163" lon="5.57868">
        <ele>900</ele>
        <time>2022-02-15T11:32:41.000Z</time>
      </trkpt>
      <trkpt lat="43.53164" lon="5.57868">
        <ele>900</ele>
        <time>2022-02-15T11:32:42.000Z</time>
      </trkpt>
      <trkpt lat="43.53164" lon="5.57868">
        <ele>899</ele>
        <time>2022-02-15T11:32:43.000Z</time>
      </trkpt>
      <trkpt lat="43.53165" lon="5.57868">
        <ele>899</ele>
        <time>2022-02-15T11:32:44.000Z</time>
      </trkpt>
      <trkpt lat="43.53165" lon="5.57868">
        <ele>899</ele>
        <time>2022-02-15T11:32:45.000Z</time>
      </trkpt>
      <trkpt lat="43.53166" lon="5.57868">
        <ele>899</ele>
        <time>2022-02-15T11:32:46.000Z</time>
      </trkpt>
      <trkpt lat="43.53166" lon="5.57867">
        <ele>899</ele>
        <time>2022-02-15T11:32:47.000Z</time>
      </trkpt>
      <trkpt lat="43.53167" lon="5.57867">
        <ele>898</ele>
        <time>2022-02-15T11:32:48.000Z</time>
      </trkpt>
      <trkpt lat="43.53167" lon="5.57867">
        <ele>898</ele>
        <time>2022-02-15T11:32:49.000Z</time>
      </trkpt>
      <trkpt lat="43.53168" lon="5.57867">
        <ele>898</ele>
        <time>2022-02-15T11:32:50.000Z</time>
      </trkpt>
      <trkpt lat="43.53168" lon="5.57867">
        <ele>898</ele>
        <time>2022-02-15T11:32:51.000Z</time>
      </trkpt>
      <trkpt lat="43.53168" lon="5.57867">
        <ele>898</ele>
        <time>2022-02-15T11:32:52.000Z</time>
      </trkpt>
      <trkpt lat="43.53168" lon="5.57867">
        <ele>898</ele>
        <time>2022-02-15T11:32:53.000Z</time>
      </trkpt>
      <trkpt lat="43.53168" lon="5.57866">
        <ele>898</ele>
        <time>2022-02-15T11:32:54.000Z</time>
      </trkpt>
      <trkpt lat="43.53168" lon="5.57866">
        <ele>898</ele>
        <time>2022-02-15T11:32:55.000Z</time>
      </trkpt>
      <trkpt lat="43.53169" lon="5.57866">
        <ele>898</ele>
        <time>2022-02-15T11:32:56.000Z</time>
      </trkpt>
      <trkpt lat="43.53169" lon="5.57865">
        <ele>897</ele>
        <time>2022-02-15T11:32:57.000Z</time>
      </trkpt>
      <trkpt lat="43.5317" lon="5.57865">
        <ele>897</ele>
        <time>2022-02-15T11:32:58.000Z</time>
      </trkpt>
      <trkpt lat="43.5317" lon="5.57865">
        <ele>897</ele>
        <time>2022-02-15T11:32:59.000Z</time>
      </trkpt>
      <trkpt lat="43.5317" lon="5.57865">
        <ele>897</ele>
        <time>2022-02-15T11:33:00.000Z</time>
      </trkpt>
      <trkpt lat="43.53171" lon="5.57865">
        <ele>897</ele>
        <time>2022-02-15T11:33:01.000Z</time>
      </trkpt>
      <trkpt lat="43.53171" lon="5.57866">
        <ele>896</ele>
        <time>2022-02-15T11:33:02.000Z</time>
      </trkpt>
      <trkpt lat="43.53171" lon="5.57866">
        <ele>896</ele>
        <time>2022-02-15T11:33:03.000Z</time>
      </trkpt>
      <trkpt lat="43.53171" lon="5.57866">
        <ele>896</ele>
        <time>2022-02-15T11:33:04.000Z</time>
      </trkpt>
      <trkpt lat="43.53172" lon="5.57866">
        <ele>896</ele>
        <time>2022-02-15T11:33:05.000Z</time>
      </trkpt>
      <trkpt lat="43.53172" lon="5.57866">
        <ele>896</ele>
        <time>2022-02-15T11:33:06.000Z</time>
      </trkpt>
      <trkpt lat="43.53172" lon="5.57865">
        <ele>895</ele>
        <time>2022-02-15T11:33:07.000Z</time>
      </trkpt>
      <trkpt lat="43.53173" lon="5.57865">
        <ele>895</ele>
        <time>2022-02-15T11:33:08.000Z</time>
      </trkpt>
      <trkpt lat="43.53173" lon="5.57865">
        <ele>895</ele>
        <time>2022-02-15T11:33:09.000Z</time>
      </trkpt>
      <trkpt lat="43.53174" lon="5.57865">
        <ele>895</ele>
        <time>2022-02-15T11:33:10.000Z</time>
      </trkpt>
      <trkpt lat="43.53174" lon="5.57865">
        <ele>895</ele>
        <time>2022-02-15T11:33:11.000Z</time>
      </trkpt>
      <trkpt lat="43.53175" lon="5.57864">
        <ele>895</ele>
        <time>2022-02-15T11:33:12.000Z</time>
      </trkpt>
      <trkpt lat="43.53175" lon="5.57863">
        <ele>895</ele>
        <time>2022-02-15T11:33:13.000Z</time>
      </trkpt>
      <trkpt lat="43.53176" lon="5.57862">
        <ele>894</ele>
        <time>2022-02-15T11:33:14.000Z</time>
      </trkpt>
      <trkpt lat="43.53176" lon="5.57862">
        <ele>894</ele>
        <time>2022-02-15T11:33:15.000Z</time>
      </trkpt>
      <trkpt lat="43.53176" lon="5.57861">
        <ele>894</ele>
        <time>2022-02-15T11:33:16.000Z</time>
      </trkpt>
      <trkpt lat="43.53177" lon="5.57859">
        <ele>894</ele>
        <time>2022-02-15T11:33:17.000Z</time>
      </trkpt>
      <trkpt lat="43.53177" lon="5.57858">
        <ele>894</ele>
        <time>2022-02-15T11:33:18.000Z</time>
      </trkpt>
      <trkpt lat="43.53178" lon="5.57857">
        <ele>894</ele>
        <time>2022-02-15T11:33:19.000Z</time>
      </trkpt>
      <trkpt lat="43.53179" lon="5.57856">
        <ele>894</ele>
        <time>2022-02-15T11:33:20.000Z</time>
      </trkpt>
      <trkpt lat="43.53179" lon="5.57855">
        <ele>894</ele>
        <time>2022-02-15T11:33:21.000Z</time>
      </trkpt>
      <trkpt lat="43.53179" lon="5.57854">
        <ele>894</ele>
        <time>2022-02-15T11:33:22.000Z</time>
      </trkpt>
      <trkpt lat="43.5318" lon="5.57853">
        <ele>894</ele>
        <time>2022-02-15T11:33:23.000Z</time>
      </trkpt>
      <trkpt lat="43.5318" lon="5.57852">
        <ele>893</ele>
        <time>2022-02-15T11:33:24.000Z</time>
      </trkpt>
      <trkpt lat="43.5318" lon="5.5785">
        <ele>893</ele>
        <time>2022-02-15T11:33:25.000Z</time>
      </trkpt>
      <trkpt lat="43.53179" lon="5.57849">
        <ele>893</ele>
        <time>2022-02-15T11:33:26.000Z</time>
      </trkpt>
      <trkpt lat="43.53179" lon="5.57848">
        <ele>893</ele>
        <time>2022-02-15T11:33:27.000Z</time>
      </trkpt>
      <trkpt lat="43.5318" lon="5.57847">
        <ele>893</ele>
        <time>2022-02-15T11:33:28.000Z</time>
      </trkpt>
      <trkpt lat="43.5318" lon="5.57846">
        <ele>893</ele>
        <time>2022-02-15T11:33:29.000Z</time>
      </trkpt>
      <trkpt lat="43.53179" lon="5.57845">
        <ele>893</ele>
        <time>2022-02-15T11:33:30.000Z</time>
      </trkpt>
      <trkpt lat="43.53179" lon="5.57845">
        <ele>892</ele>
        <time>2022-02-15T11:33:31.000Z</time>
      </trkpt>
      <trkpt lat="43.53179" lon="5.57845">
        <ele>892</ele>
        <time>2022-02-15T11:33:32.000Z</time>
      </trkpt>
      <trkpt lat="43.53179" lon="5.57845">
        <ele>892</ele>
        <time>2022-02-15T11:33:33.000Z</time>
      </trkpt>
      <trkpt lat="43.53179" lon="5.57845">
        <ele>892</ele>
        <time>2022-02-15T11:33:34.000Z</time>
      </trkpt>
      <trkpt lat="43.53179" lon="5.57845">
        <ele>892</ele>
        <time>2022-02-15T11:33:35.000Z</time>
      </trkpt>
      <trkpt lat="43.53179" lon="5.57845">
        <ele>892</ele>
        <time>2022-02-15T11:33:36.000Z</time>
      </trkpt>
      <trkpt lat="43.53179" lon="5.57844">
        <ele>892</ele>
        <time>2022-02-15T11:33:37.000Z</time>
      </trkpt>
      <trkpt lat="43.53179" lon="5.57844">
        <ele>892</ele>
        <time>2022-02-15T11:33:38.000Z</time>
      </trkpt>
      <trkpt lat="43.53179" lon="5.57844">
        <ele>892</ele>
        <time>2022-02-15T11:33:39.000Z</time>
      </trkpt>
      <trkpt lat="43.53179" lon="5.57844">
        <ele>892</ele>
        <time>2022-02-15T11:33:40.000Z</time>
      </trkpt>
      <trkpt lat="43.53179" lon="5.57844">
        <ele>891</ele>
        <time>2022-02-15T11:33:41.000Z</time>
      </trkpt>
      <trkpt lat="43.53179" lon="5.57843">
        <ele>891</ele>
        <time>2022-02-15T11:33:42.000Z</time>
      </trkpt>
      <trkpt lat="43.53179" lon="5.57842">
        <ele>891</ele>
        <time>2022-02-15T11:33:43.000Z</time>
      </trkpt>
      <trkpt lat="43.53179" lon="5.57841">
        <ele>891</ele>
        <time>2022-02-15T11:33:44.000Z</time>
      </trkpt>
      <trkpt lat="43.53179" lon="5.5784">
        <ele>891</ele>
        <time>2022-02-15T11:33:45.000Z</time>
      </trkpt>
      <trkpt lat="43.53179" lon="5.57839">
        <ele>891</ele>
        <time>2022-02-15T11:33:46.000Z</time>
      </trkpt>
      <trkpt lat="43.53179" lon="5.57838">
        <ele>891</ele>
        <time>2022-02-15T11:33:47.000Z</time>
      </trkpt>
      <trkpt lat="43.53179" lon="5.57837">
        <ele>891</ele>
        <time>2022-02-15T11:33:48.000Z</time>
      </trkpt>
      <trkpt lat="43.53179" lon="5.57836">
        <ele>890</ele>
        <time>2022-02-15T11:33:49.000Z</time>
      </trkpt>
      <trkpt lat="43.53179" lon="5.57835">
        <ele>890</ele>
        <time>2022-02-15T11:33:50.000Z</time>
      </trkpt>
      <trkpt lat="43.5318" lon="5.57834">
        <ele>890</ele>
        <time>2022-02-15T11:33:51.000Z</time>
      </trkpt>
      <trkpt lat="43.5318" lon="5.57833">
        <ele>890</ele>
        <time>2022-02-15T11:33:52.000Z</time>
      </trkpt>
      <trkpt lat="43.5318" lon="5.57833">
        <ele>890</ele>
        <time>2022-02-15T11:33:53.000Z</time>
      </trkpt>
      <trkpt lat="43.5318" lon="5.57832">
        <ele>890</ele>
        <time>2022-02-15T11:33:54.000Z</time>
      </trkpt>
      <trkpt lat="43.5318" lon="5.57832">
        <ele>890</ele>
        <time>2022-02-15T11:33:55.000Z</time>
      </trkpt>
      <trkpt lat="43.5318" lon="5.57831">
        <ele>890</ele>
        <time>2022-02-15T11:33:56.000Z</time>
      </trkpt>
      <trkpt lat="43.5318" lon="5.5783">
        <ele>890</ele>
        <time>2022-02-15T11:33:57.000Z</time>
      </trkpt>
      <trkpt lat="43.5318" lon="5.57829">
        <ele>890</ele>
        <time>2022-02-15T11:33:58.000Z</time>
      </trkpt>
      <trkpt lat="43.5318" lon="5.57829">
        <ele>890</ele>
        <time>2022-02-15T11:33:59.000Z</time>
      </trkpt>
      <trkpt lat="43.5318" lon="5.57827">
        <ele>890</ele>
        <time>2022-02-15T11:34:00.000Z</time>
      </trkpt>
      <trkpt lat="43.5318" lon="5.57826">
        <ele>890</ele>
        <time>2022-02-15T11:34:01.000Z</time>
      </trkpt>
      <trkpt lat="43.5318" lon="5.57825">
        <ele>890</ele>
        <time>2022-02-15T11:34:02.000Z</time>
      </trkpt>
      <trkpt lat="43.5318" lon="5.57824">
        <ele>890</ele>
        <time>2022-02-15T11:34:03.000Z</time>
      </trkpt>
      <trkpt lat="43.5318" lon="5.57823">
        <ele>890</ele>
        <time>2022-02-15T11:34:04.000Z</time>
      </trkpt>
      <trkpt lat="43.5318" lon="5.57822">
        <ele>890</ele>
        <time>2022-02-15T11:34:05.000Z</time>
      </trkpt>
      <trkpt lat="43.5318" lon="5.57821">
        <ele>890</ele>
        <time>2022-02-15T11:34:06.000Z</time>
      </trkpt>
      <trkpt lat="43.5318" lon="5.57819">
        <ele>889</ele>
        <time>2022-02-15T11:34:07.000Z</time>
      </trkpt>
      <trkpt lat="43.53181" lon="5.57818">
        <ele>889</ele>
        <time>2022-02-15T11:34:08.000Z</time>
      </trkpt>
      <trkpt lat="43.53181" lon="5.57817">
        <ele>889</ele>
        <time>2022-02-15T11:34:09.000Z</time>
      </trkpt>
      <trkpt lat="43.53181" lon="5.57816">
        <ele>889</ele>
        <time>2022-02-15T11:34:10.000Z</time>
      </trkpt>
      <trkpt lat="43.53182" lon="5.57815">
        <ele>889</ele>
        <time>2022-02-15T11:34:11.000Z</time>
      </trkpt>
      <trkpt lat="43.53182" lon="5.57814">
        <ele>889</ele>
        <time>2022-02-15T11:34:12.000Z</time>
      </trkpt>
      <trkpt lat="43.53182" lon="5.57812">
        <ele>889</ele>
        <time>2022-02-15T11:34:13.000Z</time>
      </trkpt>
      <trkpt lat="43.53182" lon="5.57812">
        <ele>889</ele>
        <time>2022-02-15T11:34:14.000Z</time>
      </trkpt>
      <trkpt lat="43.53182" lon="5.57811">
        <ele>889</ele>
        <time>2022-02-15T11:34:15.000Z</time>
      </trkpt>
      <trkpt lat="43.53182" lon="5.5781">
        <ele>889</ele>
        <time>2022-02-15T11:34:16.000Z</time>
      </trkpt>
      <trkpt lat="43.53182" lon="5.57809">
        <ele>889</ele>
        <time>2022-02-15T11:34:17.000Z</time>
      </trkpt>
      <trkpt lat="43.53181" lon="5.57809">
        <ele>889</ele>
        <time>2022-02-15T11:34:18.000Z</time>
      </trkpt>
      <trkpt lat="43.53181" lon="5.57808">
        <ele>889</ele>
        <time>2022-02-15T11:34:19.000Z</time>
      </trkpt>
      <trkpt lat="43.53181" lon="5.57808">
        <ele>889</ele>
        <time>2022-02-15T11:34:20.000Z</time>
      </trkpt>
      <trkpt lat="43.53181" lon="5.57807">
        <ele>889</ele>
        <time>2022-02-15T11:34:21.000Z</time>
      </trkpt>
      <trkpt lat="43.53181" lon="5.57807">
        <ele>889</ele>
        <time>2022-02-15T11:34:22.000Z</time>
      </trkpt>
      <trkpt lat="43.53181" lon="5.57807">
        <ele>889</ele>
        <time>2022-02-15T11:34:23.000Z</time>
      </trkpt>
      <trkpt lat="43.53181" lon="5.57807">
        <ele>888</ele>
        <time>2022-02-15T11:34:24.000Z</time>
      </trkpt>
      <trkpt lat="43.53181" lon="5.57807">
        <ele>888</ele>
        <time>2022-02-15T11:34:25.000Z</time>
      </trkpt>
      <trkpt lat="43.5318" lon="5.57807">
        <ele>888</ele>
        <time>2022-02-15T11:34:26.000Z</time>
      </trkpt>
      <trkpt lat="43.5318" lon="5.57806">
        <ele>888</ele>
        <time>2022-02-15T11:34:27.000Z</time>
      </trkpt>
      <trkpt lat="43.5318" lon="5.57806">
        <ele>888</ele>
        <time>2022-02-15T11:34:28.000Z</time>
      </trkpt>
      <trkpt lat="43.5318" lon="5.57806">
        <ele>888</ele>
        <time>2022-02-15T11:34:29.000Z</time>
      </trkpt>
      <trkpt lat="43.5318" lon="5.57807">
        <ele>888</ele>
        <time>2022-02-15T11:34:30.000Z</time>
      </trkpt>
      <trkpt lat="43.5318" lon="5.57807">
        <ele>888</ele>
        <time>2022-02-15T11:34:31.000Z</time>
      </trkpt>
      <trkpt lat="43.5318" lon="5.57807">
        <ele>888</ele>
        <time>2022-02-15T11:34:32.000Z</time>
      </trkpt>
      <trkpt lat="43.5318" lon="5.57807">
        <ele>888</ele>
        <time>2022-02-15T11:34:33.000Z</time>
      </trkpt>
      <trkpt lat="43.5318" lon="5.57807">
        <ele>888</ele>
        <time>2022-02-15T11:34:34.000Z</time>
      </trkpt>
      <trkpt lat="43.5318" lon="5.57806">
        <ele>888</ele>
        <time>2022-02-15T11:34:35.000Z</time>
      </trkpt>
      <trkpt lat="43.5318" lon="5.57806">
        <ele>888</ele>
        <time>2022-02-15T11:34:36.000Z</time>
      </trkpt>
      <trkpt lat="43.5318" lon="5.57806">
        <ele>888</ele>
        <time>2022-02-15T11:34:37.000Z</time>
      </trkpt>
      <trkpt lat="43.5318" lon="5.57806">
        <ele>888</ele>
        <time>2022-02-15T11:34:38.000Z</time>
      </trkpt>
      <trkpt lat="43.5318" lon="5.57807">
        <ele>888</ele>
        <time>2022-02-15T11:34:39.000Z</time>
      </trkpt>
      <trkpt lat="43.5318" lon="5.57807">
        <ele>888</ele>
        <time>2022-02-15T11:34:40.000Z</time>
      </trkpt>
      <trkpt lat="43.5318" lon="5.57806">
        <ele>888</ele>
        <time>2022-02-15T11:34:41.000Z</time>
      </trkpt>
      <trkpt lat="43.53179" lon="5.57806">
        <ele>888</ele>
        <time>2022-02-15T11:34:42.000Z</time>
      </trkpt>
      <trkpt lat="43.53179" lon="5.57806">
        <ele>888</ele>
        <time>2022-02-15T11:34:43.000Z</time>
      </trkpt>
      <trkpt lat="43.53179" lon="5.57806">
        <ele>888</ele>
        <time>2022-02-15T11:34:44.000Z</time>
      </trkpt>
      <trkpt lat="43.53179" lon="5.57806">
        <ele>888</ele>
        <time>2022-02-15T11:34:45.000Z</time>
      </trkpt>
      <trkpt lat="43.53179" lon="5.57806">
        <ele>888</ele>
        <time>2022-02-15T11:34:46.000Z</time>
      </trkpt>
      <trkpt lat="43.53179" lon="5.57806">
        <ele>888</ele>
        <time>2022-02-15T11:34:47.000Z</time>
      </trkpt>
      <trkpt lat="43.53179" lon="5.57806">
        <ele>888</ele>
        <time>2022-02-15T11:34:48.000Z</time>
      </trkpt>
      <trkpt lat="43.53179" lon="5.57806">
        <ele>888</ele>
        <time>2022-02-15T11:34:49.000Z</time>
      </trkpt>
      <trkpt lat="43.5318" lon="5.57806">
        <ele>888</ele>
        <time>2022-02-15T11:34:50.000Z</time>
      </trkpt>
      <trkpt lat="43.5318" lon="5.57806">
        <ele>888</ele>
        <time>2022-02-15T11:34:51.000Z</time>
      </trkpt>
      <trkpt lat="43.5318" lon="5.57806">
        <ele>888</ele>
        <time>2022-02-15T11:34:52.000Z</time>
      </trkpt>
      <trkpt lat="43.5318" lon="5.57806">
        <ele>888</ele>
        <time>2022-02-15T11:34:53.000Z</time>
      </trkpt>
      <trkpt lat="43.5318" lon="5.57805">
        <ele>888</ele>
        <time>2022-02-15T11:34:54.000Z</time>
      </trkpt>
      <trkpt lat="43.5318" lon="5.57805">
        <ele>888</ele>
        <time>2022-02-15T11:34:55.000Z</time>
      </trkpt>
      <trkpt lat="43.5318" lon="5.57805">
        <ele>888</ele>
        <time>2022-02-15T11:34:56.000Z</time>
      </trkpt>
      <trkpt lat="43.5318" lon="5.57805">
        <ele>888</ele>
        <time>2022-02-15T11:34:57.000Z</time>
      </trkpt>
      <trkpt lat="43.5318" lon="5.57804">
        <ele>888</ele>
        <time>2022-02-15T11:34:58.000Z</time>
      </trkpt>
      <trkpt lat="43.53181" lon="5.57803">
        <ele>888</ele>
        <time>2022-02-15T11:34:59.000Z</time>
      </trkpt>
      <trkpt lat="43.53181" lon="5.57802">
        <ele>888</ele>
        <time>2022-02-15T11:35:00.000Z</time>
      </trkpt>
      <trkpt lat="43.53181" lon="5.57802">
        <ele>887</ele>
        <time>2022-02-15T11:35:01.000Z</time>
      </trkpt>
      <trkpt lat="43.53182" lon="5.578">
        <ele>887</ele>
        <time>2022-02-15T11:35:02.000Z</time>
      </trkpt>
      <trkpt lat="43.53182" lon="5.578">
        <ele>887</ele>
        <time>2022-02-15T11:35:03.000Z</time>
      </trkpt>
      <trkpt lat="43.53182" lon="5.57799">
        <ele>887</ele>
        <time>2022-02-15T11:35:04.000Z</time>
      </trkpt>
      <trkpt lat="43.53182" lon="5.57798">
        <ele>887</ele>
        <time>2022-02-15T11:35:05.000Z</time>
      </trkpt>
      <trkpt lat="43.53182" lon="5.57797">
        <ele>887</ele>
        <time>2022-02-15T11:35:06.000Z</time>
      </trkpt>
      <trkpt lat="43.53182" lon="5.57797">
        <ele>887</ele>
        <time>2022-02-15T11:35:07.000Z</time>
      </trkpt>
      <trkpt lat="43.53182" lon="5.57796">
        <ele>887</ele>
        <time>2022-02-15T11:35:08.000Z</time>
      </trkpt>
      <trkpt lat="43.53182" lon="5.57796">
        <ele>887</ele>
        <time>2022-02-15T11:35:09.000Z</time>
      </trkpt>
      <trkpt lat="43.53182" lon="5.57796">
        <ele>887</ele>
        <time>2022-02-15T11:35:10.000Z</time>
      </trkpt>
      <trkpt lat="43.53182" lon="5.57796">
        <ele>887</ele>
        <time>2022-02-15T11:35:11.000Z</time>
      </trkpt>
      <trkpt lat="43.53182" lon="5.57796">
        <ele>886</ele>
        <time>2022-02-15T11:35:12.000Z</time>
      </trkpt>
      <trkpt lat="43.53182" lon="5.57796">
        <ele>886</ele>
        <time>2022-02-15T11:35:13.000Z</time>
      </trkpt>
      <trkpt lat="43.53182" lon="5.57796">
        <ele>886</ele>
        <time>2022-02-15T11:35:14.000Z</time>
      </trkpt>
      <trkpt lat="43.53182" lon="5.57796">
        <ele>886</ele>
        <time>2022-02-15T11:35:15.000Z</time>
      </trkpt>
      <trkpt lat="43.53182" lon="5.57796">
        <ele>886</ele>
        <time>2022-02-15T11:35:16.000Z</time>
      </trkpt>
      <trkpt lat="43.53182" lon="5.57795">
        <ele>886</ele>
        <time>2022-02-15T11:35:17.000Z</time>
      </trkpt>
      <trkpt lat="43.53182" lon="5.57795">
        <ele>886</ele>
        <time>2022-02-15T11:35:18.000Z</time>
      </trkpt>
      <trkpt lat="43.53182" lon="5.57795">
        <ele>886</ele>
        <time>2022-02-15T11:35:19.000Z</time>
      </trkpt>
      <trkpt lat="43.53182" lon="5.57795">
        <ele>886</ele>
        <time>2022-02-15T11:35:20.000Z</time>
      </trkpt>
      <trkpt lat="43.53182" lon="5.57795">
        <ele>886</ele>
        <time>2022-02-15T11:35:21.000Z</time>
      </trkpt>
      <trkpt lat="43.53182" lon="5.57795">
        <ele>886</ele>
        <time>2022-02-15T11:35:22.000Z</time>
      </trkpt>
      <trkpt lat="43.53182" lon="5.57795">
        <ele>886</ele>
        <time>2022-02-15T11:35:23.000Z</time>
      </trkpt>
      <trkpt lat="43.53182" lon="5.57795">
        <ele>886</ele>
        <time>2022-02-15T11:35:24.000Z</time>
      </trkpt>
      <trkpt lat="43.53182" lon="5.57794">
        <ele>886</ele>
        <time>2022-02-15T11:35:25.000Z</time>
      </trkpt>
      <trkpt lat="43.53183" lon="5.57794">
        <ele>886</ele>
        <time>2022-02-15T11:35:26.000Z</time>
      </trkpt>
      <trkpt lat="43.53183" lon="5.57793">
        <ele>885</ele>
        <time>2022-02-15T11:35:27.000Z</time>
      </trkpt>
      <trkpt lat="43.53183" lon="5.57792">
        <ele>885</ele>
        <time>2022-02-15T11:35:28.000Z</time>
      </trkpt>
      <trkpt lat="43.53183" lon="5.57792">
        <ele>885</ele>
        <time>2022-02-15T11:35:29.000Z</time>
      </trkpt>
      <trkpt lat="43.53183" lon="5.57792">
        <ele>885</ele>
        <time>2022-02-15T11:35:30.000Z</time>
      </trkpt>
      <trkpt lat="43.53183" lon="5.57792">
        <ele>885</ele>
        <time>2022-02-15T11:35:31.000Z</time>
      </trkpt>
      <trkpt lat="43.53183" lon="5.57792">
        <ele>884</ele>
        <time>2022-02-15T11:35:32.000Z</time>
      </trkpt>
      <trkpt lat="43.53183" lon="5.57791">
        <ele>884</ele>
        <time>2022-02-15T11:35:33.000Z</time>
      </trkpt>
      <trkpt lat="43.53183" lon="5.57791">
        <ele>884</ele>
        <time>2022-02-15T11:35:34.000Z</time>
      </trkpt>
      <trkpt lat="43.53183" lon="5.57791">
        <ele>884</ele>
        <time>2022-02-15T11:35:35.000Z</time>
      </trkpt>
      <trkpt lat="43.53183" lon="5.57791">
        <ele>884</ele>
        <time>2022-02-15T11:35:36.000Z</time>
      </trkpt>
      <trkpt lat="43.53183" lon="5.57791">
        <ele>884</ele>
        <time>2022-02-15T11:35:37.000Z</time>
      </trkpt>
      <trkpt lat="43.53183" lon="5.57791">
        <ele>884</ele>
        <time>2022-02-15T11:35:38.000Z</time>
      </trkpt>
      <trkpt lat="43.53183" lon="5.57791">
        <ele>884</ele>
        <time>2022-02-15T11:35:39.000Z</time>
      </trkpt>
      <trkpt lat="43.53183" lon="5.57791">
        <ele>884</ele>
        <time>2022-02-15T11:35:40.000Z</time>
      </trkpt>
      <trkpt lat="43.53183" lon="5.57791">
        <ele>884</ele>
        <time>2022-02-15T11:35:41.000Z</time>
      </trkpt>
      <trkpt lat="43.53183" lon="5.57791">
        <ele>884</ele>
        <time>2022-02-15T11:35:42.000Z</time>
      </trkpt>
      <trkpt lat="43.53183" lon="5.5779">
        <ele>884</ele>
        <time>2022-02-15T11:35:43.000Z</time>
      </trkpt>
      <trkpt lat="43.53183" lon="5.5779">
        <ele>884</ele>
        <time>2022-02-15T11:35:44.000Z</time>
      </trkpt>
      <trkpt lat="43.53183" lon="5.5779">
        <ele>884</ele>
        <time>2022-02-15T11:35:45.000Z</time>
      </trkpt>
      <trkpt lat="43.53183" lon="5.5779">
        <ele>884</ele>
        <time>2022-02-15T11:35:46.000Z</time>
      </trkpt>
      <trkpt lat="43.53183" lon="5.5779">
        <ele>884</ele>
        <time>2022-02-15T11:35:47.000Z</time>
      </trkpt>
      <trkpt lat="43.53183" lon="5.5779">
        <ele>883</ele>
        <time>2022-02-15T11:35:48.000Z</time>
      </trkpt>
      <trkpt lat="43.53183" lon="5.5779">
        <ele>883</ele>
        <time>2022-02-15T11:35:49.000Z</time>
      </trkpt>
      <trkpt lat="43.53183" lon="5.5779">
        <ele>883</ele>
        <time>2022-02-15T11:35:50.000Z</time>
      </trkpt>
      <trkpt lat="43.53183" lon="5.5779">
        <ele>883</ele>
        <time>2022-02-15T11:35:51.000Z</time>
      </trkpt>
      <trkpt lat="43.53183" lon="5.5779">
        <ele>883</ele>
        <time>2022-02-15T11:35:52.000Z</time>
      </trkpt>
      <trkpt lat="43.53183" lon="5.5779">
        <ele>883</ele>
        <time>2022-02-15T11:35:53.000Z</time>
      </trkpt>
      <trkpt lat="43.53183" lon="5.5779">
        <ele>883</ele>
        <time>2022-02-15T11:35:54.000Z</time>
      </trkpt>
      <trkpt lat="43.53183" lon="5.5779">
        <ele>883</ele>
        <time>2022-02-15T11:35:55.000Z</time>
      </trkpt>
      <trkpt lat="43.53183" lon="5.5779">
        <ele>883</ele>
        <time>2022-02-15T11:35:56.000Z</time>
      </trkpt>
      <trkpt lat="43.53183" lon="5.5779">
        <ele>883</ele>
        <time>2022-02-15T11:35:57.000Z</time>
      </trkpt>
      <trkpt lat="43.53183" lon="5.5779">
        <ele>883</ele>
        <time>2022-02-15T11:35:58.000Z</time>
      </trkpt>
      <trkpt lat="43.53183" lon="5.57789">
        <ele>883</ele>
        <time>2022-02-15T11:35:59.000Z</time>
      </trkpt>
      <trkpt lat="43.53183" lon="5.57789">
        <ele>883</ele>
        <time>2022-02-15T11:36:00.000Z</time>
      </trkpt>
      <trkpt lat="43.53183" lon="5.57788">
        <ele>883</ele>
        <time>2022-02-15T11:36:01.000Z</time>
      </trkpt>
      <trkpt lat="43.53183" lon="5.57787">
        <ele>883</ele>
        <time>2022-02-15T11:36:02.000Z</time>
      </trkpt>
      <trkpt lat="43.53184" lon="5.57787">
        <ele>883</ele>
        <time>2022-02-15T11:36:03.000Z</time>
      </trkpt>
      <trkpt lat="43.53184" lon="5.57786">
        <ele>883</ele>
        <time>2022-02-15T11:36:04.000Z</time>
      </trkpt>
      <trkpt lat="43.53184" lon="5.57785">
        <ele>883</ele>
        <time>2022-02-15T11:36:05.000Z</time>
      </trkpt>
      <trkpt lat="43.53184" lon="5.57784">
        <ele>883</ele>
        <time>2022-02-15T11:36:06.000Z</time>
      </trkpt>
      <trkpt lat="43.53184" lon="5.57783">
        <ele>883</ele>
        <time>2022-02-15T11:36:07.000Z</time>
      </trkpt>
      <trkpt lat="43.53184" lon="5.57782">
        <ele>883</ele>
        <time>2022-02-15T11:36:08.000Z</time>
      </trkpt>
      <trkpt lat="43.53184" lon="5.57781">
        <ele>883</ele>
        <time>2022-02-15T11:36:09.000Z</time>
      </trkpt>
      <trkpt lat="43.53184" lon="5.5778">
        <ele>883</ele>
        <time>2022-02-15T11:36:10.000Z</time>
      </trkpt>
      <trkpt lat="43.53184" lon="5.57779">
        <ele>883</ele>
        <time>2022-02-15T11:36:11.000Z</time>
      </trkpt>
      <trkpt lat="43.53185" lon="5.57778">
        <ele>882</ele>
        <time>2022-02-15T11:36:12.000Z</time>
      </trkpt>
      <trkpt lat="43.53185" lon="5.57778">
        <ele>882</ele>
        <time>2022-02-15T11:36:13.000Z</time>
      </trkpt>
      <trkpt lat="43.53184" lon="5.57777">
        <ele>882</ele>
        <time>2022-02-15T11:36:14.000Z</time>
      </trkpt>
      <trkpt lat="43.53184" lon="5.57776">
        <ele>882</ele>
        <time>2022-02-15T11:36:15.000Z</time>
      </trkpt>
      <trkpt lat="43.53184" lon="5.57776">
        <ele>882</ele>
        <time>2022-02-15T11:36:16.000Z</time>
      </trkpt>
      <trkpt lat="43.53184" lon="5.57775">
        <ele>882</ele>
        <time>2022-02-15T11:36:17.000Z</time>
      </trkpt>
      <trkpt lat="43.53184" lon="5.57775">
        <ele>882</ele>
        <time>2022-02-15T11:36:18.000Z</time>
      </trkpt>
      <trkpt lat="43.53184" lon="5.57775">
        <ele>882</ele>
        <time>2022-02-15T11:36:19.000Z</time>
      </trkpt>
      <trkpt lat="43.53185" lon="5.57774">
        <ele>882</ele>
        <time>2022-02-15T11:36:20.000Z</time>
      </trkpt>
      <trkpt lat="43.53185" lon="5.57774">
        <ele>882</ele>
        <time>2022-02-15T11:36:21.000Z</time>
      </trkpt>
      <trkpt lat="43.53185" lon="5.57773">
        <ele>882</ele>
        <time>2022-02-15T11:36:22.000Z</time>
      </trkpt>
      <trkpt lat="43.53185" lon="5.57772">
        <ele>882</ele>
        <time>2022-02-15T11:36:23.000Z</time>
      </trkpt>
      <trkpt lat="43.53185" lon="5.5777">
        <ele>882</ele>
        <time>2022-02-15T11:36:24.000Z</time>
      </trkpt>
      <trkpt lat="43.53186" lon="5.57769">
        <ele>882</ele>
        <time>2022-02-15T11:36:25.000Z</time>
      </trkpt>
      <trkpt lat="43.53186" lon="5.57767">
        <ele>882</ele>
        <time>2022-02-15T11:36:26.000Z</time>
      </trkpt>
      <trkpt lat="43.53186" lon="5.57766">
        <ele>882</ele>
        <time>2022-02-15T11:36:27.000Z</time>
      </trkpt>
      <trkpt lat="43.53186" lon="5.57765">
        <ele>882</ele>
        <time>2022-02-15T11:36:28.000Z</time>
      </trkpt>
      <trkpt lat="43.53186" lon="5.57764">
        <ele>882</ele>
        <time>2022-02-15T11:36:29.000Z</time>
      </trkpt>
      <trkpt lat="43.53186" lon="5.57763">
        <ele>882</ele>
        <time>2022-02-15T11:36:30.000Z</time>
      </trkpt>
      <trkpt lat="43.53186" lon="5.57762">
        <ele>882</ele>
        <time>2022-02-15T11:36:31.000Z</time>
      </trkpt>
      <trkpt lat="43.53186" lon="5.57761">
        <ele>882</ele>
        <time>2022-02-15T11:36:32.000Z</time>
      </trkpt>
      <trkpt lat="43.53186" lon="5.5776">
        <ele>882</ele>
        <time>2022-02-15T11:36:33.000Z</time>
      </trkpt>
      <trkpt lat="43.53186" lon="5.57759">
        <ele>882</ele>
        <time>2022-02-15T11:36:34.000Z</time>
      </trkpt>
      <trkpt lat="43.53187" lon="5.57759">
        <ele>882</ele>
        <time>2022-02-15T11:36:35.000Z</time>
      </trkpt>
      <trkpt lat="43.53187" lon="5.57758">
        <ele>882</ele>
        <time>2022-02-15T11:36:36.000Z</time>
      </trkpt>
      <trkpt lat="43.53187" lon="5.57758">
        <ele>882</ele>
        <time>2022-02-15T11:36:37.000Z</time>
      </trkpt>
      <trkpt lat="43.53187" lon="5.57757">
        <ele>882</ele>
        <time>2022-02-15T11:36:38.000Z</time>
      </trkpt>
      <trkpt lat="43.53187" lon="5.57756">
        <ele>882</ele>
        <time>2022-02-15T11:36:39.000Z</time>
      </trkpt>
      <trkpt lat="43.53187" lon="5.57755">
        <ele>881</ele>
        <time>2022-02-15T11:36:40.000Z</time>
      </trkpt>
      <trkpt lat="43.53188" lon="5.57754">
        <ele>881</ele>
        <time>2022-02-15T11:36:41.000Z</time>
      </trkpt>
      <trkpt lat="43.53187" lon="5.57753">
        <ele>881</ele>
        <time>2022-02-15T11:36:42.000Z</time>
      </trkpt>
      <trkpt lat="43.53187" lon="5.57753">
        <ele>881</ele>
        <time>2022-02-15T11:36:43.000Z</time>
      </trkpt>
      <trkpt lat="43.53187" lon="5.57752">
        <ele>881</ele>
        <time>2022-02-15T11:36:44.000Z</time>
      </trkpt>
      <trkpt lat="43.53187" lon="5.57752">
        <ele>881</ele>
        <time>2022-02-15T11:36:45.000Z</time>
      </trkpt>
      <trkpt lat="43.53188" lon="5.57751">
        <ele>881</ele>
        <time>2022-02-15T11:36:46.000Z</time>
      </trkpt>
      <trkpt lat="43.53188" lon="5.5775">
        <ele>881</ele>
        <time>2022-02-15T11:36:47.000Z</time>
      </trkpt>
      <trkpt lat="43.53188" lon="5.57749">
        <ele>881</ele>
        <time>2022-02-15T11:36:48.000Z</time>
      </trkpt>
      <trkpt lat="43.53188" lon="5.57748">
        <ele>881</ele>
        <time>2022-02-15T11:36:49.000Z</time>
      </trkpt>
      <trkpt lat="43.53187" lon="5.57747">
        <ele>880</ele>
        <time>2022-02-15T11:36:50.000Z</time>
      </trkpt>
      <trkpt lat="43.53187" lon="5.57746">
        <ele>880</ele>
        <time>2022-02-15T11:36:51.000Z</time>
      </trkpt>
      <trkpt lat="43.53187" lon="5.57745">
        <ele>880</ele>
        <time>2022-02-15T11:36:52.000Z</time>
      </trkpt>
      <trkpt lat="43.53186" lon="5.57744">
        <ele>880</ele>
        <time>2022-02-15T11:36:53.000Z</time>
      </trkpt>
      <trkpt lat="43.53186" lon="5.57743">
        <ele>880</ele>
        <time>2022-02-15T11:36:54.000Z</time>
      </trkpt>
      <trkpt lat="43.53186" lon="5.57742">
        <ele>880</ele>
        <time>2022-02-15T11:36:55.000Z</time>
      </trkpt>
      <trkpt lat="43.53186" lon="5.5774">
        <ele>880</ele>
        <time>2022-02-15T11:36:56.000Z</time>
      </trkpt>
      <trkpt lat="43.53186" lon="5.57739">
        <ele>880</ele>
        <time>2022-02-15T11:36:57.000Z</time>
      </trkpt>
      <trkpt lat="43.53186" lon="5.57738">
        <ele>880</ele>
        <time>2022-02-15T11:36:58.000Z</time>
      </trkpt>
      <trkpt lat="43.53186" lon="5.57736">
        <ele>880</ele>
        <time>2022-02-15T11:36:59.000Z</time>
      </trkpt>
      <trkpt lat="43.53186" lon="5.57735">
        <ele>880</ele>
        <time>2022-02-15T11:37:00.000Z</time>
      </trkpt>
      <trkpt lat="43.53186" lon="5.57734">
        <ele>880</ele>
        <time>2022-02-15T11:37:01.000Z</time>
      </trkpt>
      <trkpt lat="43.53186" lon="5.57733">
        <ele>880</ele>
        <time>2022-02-15T11:37:02.000Z</time>
      </trkpt>
      <trkpt lat="43.53186" lon="5.57732">
        <ele>880</ele>
        <time>2022-02-15T11:37:03.000Z</time>
      </trkpt>
      <trkpt lat="43.53186" lon="5.57731">
        <ele>879</ele>
        <time>2022-02-15T11:37:04.000Z</time>
      </trkpt>
      <trkpt lat="43.53186" lon="5.5773">
        <ele>879</ele>
        <time>2022-02-15T11:37:05.000Z</time>
      </trkpt>
      <trkpt lat="43.53187" lon="5.5773">
        <ele>879</ele>
        <time>2022-02-15T11:37:06.000Z</time>
      </trkpt>
      <trkpt lat="43.53187" lon="5.57729">
        <ele>879</ele>
        <time>2022-02-15T11:37:07.000Z</time>
      </trkpt>
      <trkpt lat="43.53187" lon="5.57728">
        <ele>879</ele>
        <time>2022-02-15T11:37:08.000Z</time>
      </trkpt>
      <trkpt lat="43.53187" lon="5.57728">
        <ele>879</ele>
        <time>2022-02-15T11:37:09.000Z</time>
      </trkpt>
      <trkpt lat="43.53187" lon="5.57727">
        <ele>879</ele>
        <time>2022-02-15T11:37:10.000Z</time>
      </trkpt>
      <trkpt lat="43.53187" lon="5.57726">
        <ele>879</ele>
        <time>2022-02-15T11:37:11.000Z</time>
      </trkpt>
      <trkpt lat="43.53188" lon="5.57726">
        <ele>879</ele>
        <time>2022-02-15T11:37:12.000Z</time>
      </trkpt>
      <trkpt lat="43.53187" lon="5.57725">
        <ele>878</ele>
        <time>2022-02-15T11:37:13.000Z</time>
      </trkpt>
      <trkpt lat="43.53188" lon="5.57723">
        <ele>878</ele>
        <time>2022-02-15T11:37:14.000Z</time>
      </trkpt>
      <trkpt lat="43.53188" lon="5.57723">
        <ele>878</ele>
        <time>2022-02-15T11:37:15.000Z</time>
      </trkpt>
      <trkpt lat="43.53188" lon="5.57722">
        <ele>878</ele>
        <time>2022-02-15T11:37:16.000Z</time>
      </trkpt>
      <trkpt lat="43.53189" lon="5.57721">
        <ele>878</ele>
        <time>2022-02-15T11:37:17.000Z</time>
      </trkpt>
      <trkpt lat="43.53189" lon="5.5772">
        <ele>878</ele>
        <time>2022-02-15T11:37:18.000Z</time>
      </trkpt>
      <trkpt lat="43.5319" lon="5.57719">
        <ele>877</ele>
        <time>2022-02-15T11:37:19.000Z</time>
      </trkpt>
      <trkpt lat="43.5319" lon="5.57718">
        <ele>877</ele>
        <time>2022-02-15T11:37:20.000Z</time>
      </trkpt>
      <trkpt lat="43.5319" lon="5.57717">
        <ele>877</ele>
        <time>2022-02-15T11:37:21.000Z</time>
      </trkpt>
      <trkpt lat="43.53191" lon="5.57716">
        <ele>877</ele>
        <time>2022-02-15T11:37:22.000Z</time>
      </trkpt>
      <trkpt lat="43.53191" lon="5.57715">
        <ele>877</ele>
        <time>2022-02-15T11:37:23.000Z</time>
      </trkpt>
      <trkpt lat="43.53191" lon="5.57714">
        <ele>877</ele>
        <time>2022-02-15T11:37:24.000Z</time>
      </trkpt>
      <trkpt lat="43.53191" lon="5.57713">
        <ele>877</ele>
        <time>2022-02-15T11:37:25.000Z</time>
      </trkpt>
      <trkpt lat="43.53191" lon="5.57712">
        <ele>876</ele>
        <time>2022-02-15T11:37:26.000Z</time>
      </trkpt>
      <trkpt lat="43.53192" lon="5.57711">
        <ele>876</ele>
        <time>2022-02-15T11:37:27.000Z</time>
      </trkpt>
      <trkpt lat="43.53192" lon="5.5771">
        <ele>876</ele>
        <time>2022-02-15T11:37:28.000Z</time>
      </trkpt>
      <trkpt lat="43.53193" lon="5.57709">
        <ele>876</ele>
        <time>2022-02-15T11:37:29.000Z</time>
      </trkpt>
      <trkpt lat="43.53193" lon="5.57708">
        <ele>876</ele>
        <time>2022-02-15T11:37:30.000Z</time>
      </trkpt>
      <trkpt lat="43.53194" lon="5.57707">
        <ele>876</ele>
        <time>2022-02-15T11:37:31.000Z</time>
      </trkpt>
      <trkpt lat="43.53194" lon="5.57706">
        <ele>876</ele>
        <time>2022-02-15T11:37:32.000Z</time>
      </trkpt>
      <trkpt lat="43.53194" lon="5.57704">
        <ele>876</ele>
        <time>2022-02-15T11:37:33.000Z</time>
      </trkpt>
      <trkpt lat="43.53195" lon="5.57703">
        <ele>876</ele>
        <time>2022-02-15T11:37:34.000Z</time>
      </trkpt>
      <trkpt lat="43.53195" lon="5.57701">
        <ele>876</ele>
        <time>2022-02-15T11:37:35.000Z</time>
      </trkpt>
      <trkpt lat="43.53195" lon="5.577">
        <ele>876</ele>
        <time>2022-02-15T11:37:36.000Z</time>
      </trkpt>
      <trkpt lat="43.53195" lon="5.57699">
        <ele>876</ele>
        <time>2022-02-15T11:37:37.000Z</time>
      </trkpt>
      <trkpt lat="43.53195" lon="5.57698">
        <ele>876</ele>
        <time>2022-02-15T11:37:38.000Z</time>
      </trkpt>
      <trkpt lat="43.53195" lon="5.57696">
        <ele>875</ele>
        <time>2022-02-15T11:37:39.000Z</time>
      </trkpt>
      <trkpt lat="43.53195" lon="5.57695">
        <ele>875</ele>
        <time>2022-02-15T11:37:40.000Z</time>
      </trkpt>
      <trkpt lat="43.53196" lon="5.57694">
        <ele>875</ele>
        <time>2022-02-15T11:37:41.000Z</time>
      </trkpt>
      <trkpt lat="43.53196" lon="5.57692">
        <ele>875</ele>
        <time>2022-02-15T11:37:42.000Z</time>
      </trkpt>
      <trkpt lat="43.53197" lon="5.57691">
        <ele>875</ele>
        <time>2022-02-15T11:37:43.000Z</time>
      </trkpt>
      <trkpt lat="43.53197" lon="5.5769">
        <ele>875</ele>
        <time>2022-02-15T11:37:44.000Z</time>
      </trkpt>
      <trkpt lat="43.53198" lon="5.57689">
        <ele>875</ele>
        <time>2022-02-15T11:37:45.000Z</time>
      </trkpt>
      <trkpt lat="43.53198" lon="5.57688">
        <ele>875</ele>
        <time>2022-02-15T11:37:46.000Z</time>
      </trkpt>
      <trkpt lat="43.53199" lon="5.57687">
        <ele>875</ele>
        <time>2022-02-15T11:37:47.000Z</time>
      </trkpt>
      <trkpt lat="43.53199" lon="5.57686">
        <ele>875</ele>
        <time>2022-02-15T11:37:48.000Z</time>
      </trkpt>
      <trkpt lat="43.532" lon="5.57684">
        <ele>875</ele>
        <time>2022-02-15T11:37:49.000Z</time>
      </trkpt>
      <trkpt lat="43.532" lon="5.57683">
        <ele>874</ele>
        <time>2022-02-15T11:37:50.000Z</time>
      </trkpt>
      <trkpt lat="43.53201" lon="5.57681">
        <ele>874</ele>
        <time>2022-02-15T11:37:51.000Z</time>
      </trkpt>
      <trkpt lat="43.53201" lon="5.5768">
        <ele>874</ele>
        <time>2022-02-15T11:37:52.000Z</time>
      </trkpt>
      <trkpt lat="43.53201" lon="5.57679">
        <ele>874</ele>
        <time>2022-02-15T11:37:53.000Z</time>
      </trkpt>
      <trkpt lat="43.53201" lon="5.57678">
        <ele>874</ele>
        <time>2022-02-15T11:37:54.000Z</time>
      </trkpt>
      <trkpt lat="43.53202" lon="5.57677">
        <ele>874</ele>
        <time>2022-02-15T11:37:55.000Z</time>
      </trkpt>
      <trkpt lat="43.53202" lon="5.57676">
        <ele>874</ele>
        <time>2022-02-15T11:37:56.000Z</time>
      </trkpt>
      <trkpt lat="43.53202" lon="5.57675">
        <ele>874</ele>
        <time>2022-02-15T11:37:57.000Z</time>
      </trkpt>
      <trkpt lat="43.53202" lon="5.57674">
        <ele>873</ele>
        <time>2022-02-15T11:37:58.000Z</time>
      </trkpt>
      <trkpt lat="43.53202" lon="5.57673">
        <ele>873</ele>
        <time>2022-02-15T11:37:59.000Z</time>
      </trkpt>
      <trkpt lat="43.53202" lon="5.57672">
        <ele>873</ele>
        <time>2022-02-15T11:38:00.000Z</time>
      </trkpt>
      <trkpt lat="43.53202" lon="5.57671">
        <ele>873</ele>
        <time>2022-02-15T11:38:01.000Z</time>
      </trkpt>
      <trkpt lat="43.53203" lon="5.5767">
        <ele>873</ele>
        <time>2022-02-15T11:38:02.000Z</time>
      </trkpt>
      <trkpt lat="43.53203" lon="5.57668">
        <ele>873</ele>
        <time>2022-02-15T11:38:03.000Z</time>
      </trkpt>
      <trkpt lat="43.53203" lon="5.57668">
        <ele>872</ele>
        <time>2022-02-15T11:38:04.000Z</time>
      </trkpt>
      <trkpt lat="43.53203" lon="5.57667">
        <ele>872</ele>
        <time>2022-02-15T11:38:05.000Z</time>
      </trkpt>
      <trkpt lat="43.53203" lon="5.57666">
        <ele>872</ele>
        <time>2022-02-15T11:38:06.000Z</time>
      </trkpt>
      <trkpt lat="43.53204" lon="5.57666">
        <ele>872</ele>
        <time>2022-02-15T11:38:07.000Z</time>
      </trkpt>
      <trkpt lat="43.53204" lon="5.57665">
        <ele>872</ele>
        <time>2022-02-15T11:38:08.000Z</time>
      </trkpt>
      <trkpt lat="43.53205" lon="5.57664">
        <ele>872</ele>
        <time>2022-02-15T11:38:09.000Z</time>
      </trkpt>
      <trkpt lat="43.53205" lon="5.57664">
        <ele>872</ele>
        <time>2022-02-15T11:38:10.000Z</time>
      </trkpt>
      <trkpt lat="43.53206" lon="5.57663">
        <ele>872</ele>
        <time>2022-02-15T11:38:11.000Z</time>
      </trkpt>
      <trkpt lat="43.53206" lon="5.57662">
        <ele>872</ele>
        <time>2022-02-15T11:38:12.000Z</time>
      </trkpt>
      <trkpt lat="43.53206" lon="5.57661">
        <ele>872</ele>
        <time>2022-02-15T11:38:13.000Z</time>
      </trkpt>
      <trkpt lat="43.53207" lon="5.5766">
        <ele>872</ele>
        <time>2022-02-15T11:38:14.000Z</time>
      </trkpt>
      <trkpt lat="43.53207" lon="5.57659">
        <ele>872</ele>
        <time>2022-02-15T11:38:15.000Z</time>
      </trkpt>
      <trkpt lat="43.53207" lon="5.57658">
        <ele>872</ele>
        <time>2022-02-15T11:38:16.000Z</time>
      </trkpt>
      <trkpt lat="43.53208" lon="5.57658">
        <ele>872</ele>
        <time>2022-02-15T11:38:17.000Z</time>
      </trkpt>
      <trkpt lat="43.53208" lon="5.57657">
        <ele>872</ele>
        <time>2022-02-15T11:38:18.000Z</time>
      </trkpt>
      <trkpt lat="43.53208" lon="5.57657">
        <ele>871</ele>
        <time>2022-02-15T11:38:19.000Z</time>
      </trkpt>
      <trkpt lat="43.53208" lon="5.57656">
        <ele>871</ele>
        <time>2022-02-15T11:38:20.000Z</time>
      </trkpt>
      <trkpt lat="43.53209" lon="5.57655">
        <ele>871</ele>
        <time>2022-02-15T11:38:21.000Z</time>
      </trkpt>
      <trkpt lat="43.53209" lon="5.57654">
        <ele>871</ele>
        <time>2022-02-15T11:38:22.000Z</time>
      </trkpt>
      <trkpt lat="43.53209" lon="5.57653">
        <ele>871</ele>
        <time>2022-02-15T11:38:23.000Z</time>
      </trkpt>
      <trkpt lat="43.53209" lon="5.57652">
        <ele>871</ele>
        <time>2022-02-15T11:38:24.000Z</time>
      </trkpt>
      <trkpt lat="43.5321" lon="5.57651">
        <ele>871</ele>
        <time>2022-02-15T11:38:25.000Z</time>
      </trkpt>
      <trkpt lat="43.5321" lon="5.5765">
        <ele>871</ele>
        <time>2022-02-15T11:38:26.000Z</time>
      </trkpt>
      <trkpt lat="43.5321" lon="5.57649">
        <ele>870</ele>
        <time>2022-02-15T11:38:27.000Z</time>
      </trkpt>
      <trkpt lat="43.5321" lon="5.57648">
        <ele>870</ele>
        <time>2022-02-15T11:38:28.000Z</time>
      </trkpt>
      <trkpt lat="43.5321" lon="5.57647">
        <ele>870</ele>
        <time>2022-02-15T11:38:29.000Z</time>
      </trkpt>
      <trkpt lat="43.5321" lon="5.57645">
        <ele>870</ele>
        <time>2022-02-15T11:38:30.000Z</time>
      </trkpt>
      <trkpt lat="43.5321" lon="5.57644">
        <ele>870</ele>
        <time>2022-02-15T11:38:31.000Z</time>
      </trkpt>
      <trkpt lat="43.5321" lon="5.57644">
        <ele>870</ele>
        <time>2022-02-15T11:38:32.000Z</time>
      </trkpt>
      <trkpt lat="43.5321" lon="5.57643">
        <ele>870</ele>
        <time>2022-02-15T11:38:33.000Z</time>
      </trkpt>
      <trkpt lat="43.5321" lon="5.57642">
        <ele>870</ele>
        <time>2022-02-15T11:38:34.000Z</time>
      </trkpt>
      <trkpt lat="43.53211" lon="5.57641">
        <ele>870</ele>
        <time>2022-02-15T11:38:35.000Z</time>
      </trkpt>
      <trkpt lat="43.53211" lon="5.5764">
        <ele>870</ele>
        <time>2022-02-15T11:38:36.000Z</time>
      </trkpt>
      <trkpt lat="43.53212" lon="5.57639">
        <ele>870</ele>
        <time>2022-02-15T11:38:37.000Z</time>
      </trkpt>
      <trkpt lat="43.53212" lon="5.57638">
        <ele>870</ele>
        <time>2022-02-15T11:38:38.000Z</time>
      </trkpt>
      <trkpt lat="43.53213" lon="5.57638">
        <ele>870</ele>
        <time>2022-02-15T11:38:39.000Z</time>
      </trkpt>
      <trkpt lat="43.53213" lon="5.57637">
        <ele>870</ele>
        <time>2022-02-15T11:38:40.000Z</time>
      </trkpt>
      <trkpt lat="43.53213" lon="5.57636">
        <ele>869</ele>
        <time>2022-02-15T11:38:41.000Z</time>
      </trkpt>
      <trkpt lat="43.53213" lon="5.57635">
        <ele>869</ele>
        <time>2022-02-15T11:38:42.000Z</time>
      </trkpt>
      <trkpt lat="43.53214" lon="5.57634">
        <ele>869</ele>
        <time>2022-02-15T11:38:43.000Z</time>
      </trkpt>
      <trkpt lat="43.53214" lon="5.57633">
        <ele>869</ele>
        <time>2022-02-15T11:38:44.000Z</time>
      </trkpt>
      <trkpt lat="43.53214" lon="5.57632">
        <ele>869</ele>
        <time>2022-02-15T11:38:45.000Z</time>
      </trkpt>
      <trkpt lat="43.53214" lon="5.57631">
        <ele>869</ele>
        <time>2022-02-15T11:38:46.000Z</time>
      </trkpt>
      <trkpt lat="43.53215" lon="5.5763">
        <ele>869</ele>
        <time>2022-02-15T11:38:47.000Z</time>
      </trkpt>
      <trkpt lat="43.53215" lon="5.57629">
        <ele>869</ele>
        <time>2022-02-15T11:38:48.000Z</time>
      </trkpt>
      <trkpt lat="43.53216" lon="5.57628">
        <ele>869</ele>
        <time>2022-02-15T11:38:49.000Z</time>
      </trkpt>
      <trkpt lat="43.53216" lon="5.57627">
        <ele>869</ele>
        <time>2022-02-15T11:38:50.000Z</time>
      </trkpt>
      <trkpt lat="43.53216" lon="5.57626">
        <ele>868</ele>
        <time>2022-02-15T11:38:51.000Z</time>
      </trkpt>
      <trkpt lat="43.53216" lon="5.57625">
        <ele>868</ele>
        <time>2022-02-15T11:38:52.000Z</time>
      </trkpt>
      <trkpt lat="43.53216" lon="5.57624">
        <ele>868</ele>
        <time>2022-02-15T11:38:53.000Z</time>
      </trkpt>
      <trkpt lat="43.53216" lon="5.57623">
        <ele>868</ele>
        <time>2022-02-15T11:38:54.000Z</time>
      </trkpt>
      <trkpt lat="43.53216" lon="5.57621">
        <ele>868</ele>
        <time>2022-02-15T11:38:55.000Z</time>
      </trkpt>
      <trkpt lat="43.53216" lon="5.5762">
        <ele>868</ele>
        <time>2022-02-15T11:38:56.000Z</time>
      </trkpt>
      <trkpt lat="43.53216" lon="5.57619">
        <ele>868</ele>
        <time>2022-02-15T11:38:57.000Z</time>
      </trkpt>
      <trkpt lat="43.53216" lon="5.57619">
        <ele>868</ele>
        <time>2022-02-15T11:38:58.000Z</time>
      </trkpt>
      <trkpt lat="43.53216" lon="5.57618">
        <ele>868</ele>
        <time>2022-02-15T11:38:59.000Z</time>
      </trkpt>
      <trkpt lat="43.53216" lon="5.57618">
        <ele>868</ele>
        <time>2022-02-15T11:39:00.000Z</time>
      </trkpt>
      <trkpt lat="43.53216" lon="5.57618">
        <ele>868</ele>
        <time>2022-02-15T11:39:01.000Z</time>
      </trkpt>
      <trkpt lat="43.53216" lon="5.57618">
        <ele>868</ele>
        <time>2022-02-15T11:39:02.000Z</time>
      </trkpt>
      <trkpt lat="43.53216" lon="5.57618">
        <ele>868</ele>
        <time>2022-02-15T11:39:03.000Z</time>
      </trkpt>
      <trkpt lat="43.53216" lon="5.57618">
        <ele>868</ele>
        <time>2022-02-15T11:39:04.000Z</time>
      </trkpt>
      <trkpt lat="43.53216" lon="5.57618">
        <ele>868</ele>
        <time>2022-02-15T11:39:05.000Z</time>
      </trkpt>
      <trkpt lat="43.53217" lon="5.57617">
        <ele>867</ele>
        <time>2022-02-15T11:39:06.000Z</time>
      </trkpt>
      <trkpt lat="43.53217" lon="5.57616">
        <ele>867</ele>
        <time>2022-02-15T11:39:07.000Z</time>
      </trkpt>
      <trkpt lat="43.53217" lon="5.57615">
        <ele>867</ele>
        <time>2022-02-15T11:39:08.000Z</time>
      </trkpt>
      <trkpt lat="43.53217" lon="5.57614">
        <ele>867</ele>
        <time>2022-02-15T11:39:09.000Z</time>
      </trkpt>
      <trkpt lat="43.53217" lon="5.57614">
        <ele>867</ele>
        <time>2022-02-15T11:39:10.000Z</time>
      </trkpt>
      <trkpt lat="43.53217" lon="5.57613">
        <ele>867</ele>
        <time>2022-02-15T11:39:11.000Z</time>
      </trkpt>
      <trkpt lat="43.53217" lon="5.57611">
        <ele>867</ele>
        <time>2022-02-15T11:39:12.000Z</time>
      </trkpt>
      <trkpt lat="43.53217" lon="5.57611">
        <ele>867</ele>
        <time>2022-02-15T11:39:13.000Z</time>
      </trkpt>
      <trkpt lat="43.53218" lon="5.5761">
        <ele>867</ele>
        <time>2022-02-15T11:39:14.000Z</time>
      </trkpt>
      <trkpt lat="43.53218" lon="5.57609">
        <ele>866</ele>
        <time>2022-02-15T11:39:15.000Z</time>
      </trkpt>
      <trkpt lat="43.53218" lon="5.57608">
        <ele>866</ele>
        <time>2022-02-15T11:39:16.000Z</time>
      </trkpt>
      <trkpt lat="43.53218" lon="5.57607">
        <ele>866</ele>
        <time>2022-02-15T11:39:17.000Z</time>
      </trkpt>
      <trkpt lat="43.53218" lon="5.57605">
        <ele>866</ele>
        <time>2022-02-15T11:39:18.000Z</time>
      </trkpt>
      <trkpt lat="43.53218" lon="5.57604">
        <ele>866</ele>
        <time>2022-02-15T11:39:19.000Z</time>
      </trkpt>
      <trkpt lat="43.53217" lon="5.57604">
        <ele>866</ele>
        <time>2022-02-15T11:39:20.000Z</time>
      </trkpt>
      <trkpt lat="43.53217" lon="5.57603">
        <ele>866</ele>
        <time>2022-02-15T11:39:21.000Z</time>
      </trkpt>
      <trkpt lat="43.53217" lon="5.57603">
        <ele>866</ele>
        <time>2022-02-15T11:39:22.000Z</time>
      </trkpt>
      <trkpt lat="43.53217" lon="5.57602">
        <ele>866</ele>
        <time>2022-02-15T11:39:23.000Z</time>
      </trkpt>
      <trkpt lat="43.53217" lon="5.57602">
        <ele>866</ele>
        <time>2022-02-15T11:39:24.000Z</time>
      </trkpt>
      <trkpt lat="43.53217" lon="5.57601">
        <ele>866</ele>
        <time>2022-02-15T11:39:25.000Z</time>
      </trkpt>
      <trkpt lat="43.53217" lon="5.57601">
        <ele>865</ele>
        <time>2022-02-15T11:39:26.000Z</time>
      </trkpt>
      <trkpt lat="43.53217" lon="5.576">
        <ele>865</ele>
        <time>2022-02-15T11:39:27.000Z</time>
      </trkpt>
      <trkpt lat="43.53218" lon="5.576">
        <ele>865</ele>
        <time>2022-02-15T11:39:28.000Z</time>
      </trkpt>
      <trkpt lat="43.53218" lon="5.57599">
        <ele>865</ele>
        <time>2022-02-15T11:39:29.000Z</time>
      </trkpt>
      <trkpt lat="43.53218" lon="5.57599">
        <ele>865</ele>
        <time>2022-02-15T11:39:30.000Z</time>
      </trkpt>
      <trkpt lat="43.53218" lon="5.57599">
        <ele>865</ele>
        <time>2022-02-15T11:39:31.000Z</time>
      </trkpt>
      <trkpt lat="43.53218" lon="5.57599">
        <ele>865</ele>
        <time>2022-02-15T11:39:32.000Z</time>
      </trkpt>
      <trkpt lat="43.53218" lon="5.57598">
        <ele>865</ele>
        <time>2022-02-15T11:39:33.000Z</time>
      </trkpt>
      <trkpt lat="43.53218" lon="5.57598">
        <ele>865</ele>
        <time>2022-02-15T11:39:34.000Z</time>
      </trkpt>
      <trkpt lat="43.53218" lon="5.57597">
        <ele>864</ele>
        <time>2022-02-15T11:39:35.000Z</time>
      </trkpt>
      <trkpt lat="43.53218" lon="5.57597">
        <ele>864</ele>
        <time>2022-02-15T11:39:36.000Z</time>
      </trkpt>
      <trkpt lat="43.53218" lon="5.57597">
        <ele>864</ele>
        <time>2022-02-15T11:39:37.000Z</time>
      </trkpt>
      <trkpt lat="43.53218" lon="5.57597">
        <ele>864</ele>
        <time>2022-02-15T11:39:38.000Z</time>
      </trkpt>
      <trkpt lat="43.53218" lon="5.57597">
        <ele>864</ele>
        <time>2022-02-15T11:39:39.000Z</time>
      </trkpt>
      <trkpt lat="43.53218" lon="5.57596">
        <ele>864</ele>
        <time>2022-02-15T11:39:40.000Z</time>
      </trkpt>
      <trkpt lat="43.53219" lon="5.57596">
        <ele>864</ele>
        <time>2022-02-15T11:39:41.000Z</time>
      </trkpt>
      <trkpt lat="43.53219" lon="5.57596">
        <ele>864</ele>
        <time>2022-02-15T11:39:42.000Z</time>
      </trkpt>
      <trkpt lat="43.53219" lon="5.57596">
        <ele>863</ele>
        <time>2022-02-15T11:39:43.000Z</time>
      </trkpt>
      <trkpt lat="43.53219" lon="5.57596">
        <ele>863</ele>
        <time>2022-02-15T11:39:44.000Z</time>
      </trkpt>
      <trkpt lat="43.53219" lon="5.57596">
        <ele>863</ele>
        <time>2022-02-15T11:39:45.000Z</time>
      </trkpt>
      <trkpt lat="43.53219" lon="5.57596">
        <ele>863</ele>
        <time>2022-02-15T11:39:46.000Z</time>
      </trkpt>
      <trkpt lat="43.53219" lon="5.57595">
        <ele>863</ele>
        <time>2022-02-15T11:39:47.000Z</time>
      </trkpt>
      <trkpt lat="43.53219" lon="5.57596">
        <ele>863</ele>
        <time>2022-02-15T11:39:48.000Z</time>
      </trkpt>
      <trkpt lat="43.53219" lon="5.57595">
        <ele>863</ele>
        <time>2022-02-15T11:39:49.000Z</time>
      </trkpt>
      <trkpt lat="43.53219" lon="5.57595">
        <ele>863</ele>
        <time>2022-02-15T11:39:50.000Z</time>
      </trkpt>
      <trkpt lat="43.53219" lon="5.57595">
        <ele>863</ele>
        <time>2022-02-15T11:39:51.000Z</time>
      </trkpt>
      <trkpt lat="43.53219" lon="5.57595">
        <ele>863</ele>
        <time>2022-02-15T11:39:52.000Z</time>
      </trkpt>
      <trkpt lat="43.53219" lon="5.57595">
        <ele>863</ele>
        <time>2022-02-15T11:39:53.000Z</time>
      </trkpt>
      <trkpt lat="43.53219" lon="5.57595">
        <ele>863</ele>
        <time>2022-02-15T11:39:54.000Z</time>
      </trkpt>
      <trkpt lat="43.53219" lon="5.57595">
        <ele>863</ele>
        <time>2022-02-15T11:39:55.000Z</time>
      </trkpt>
      <trkpt lat="43.53219" lon="5.57595">
        <ele>863</ele>
        <time>2022-02-15T11:39:56.000Z</time>
      </trkpt>
      <trkpt lat="43.53219" lon="5.57595">
        <ele>863</ele>
        <time>2022-02-15T11:39:57.000Z</time>
      </trkpt>
      <trkpt lat="43.53219" lon="5.57595">
        <ele>863</ele>
        <time>2022-02-15T11:39:58.000Z</time>
      </trkpt>
      <trkpt lat="43.53219" lon="5.57595">
        <ele>863</ele>
        <time>2022-02-15T11:39:59.000Z</time>
      </trkpt>
      <trkpt lat="43.53219" lon="5.57595">
        <ele>863</ele>
        <time>2022-02-15T11:40:00.000Z</time>
      </trkpt>
      <trkpt lat="43.5322" lon="5.57595">
        <ele>863</ele>
        <time>2022-02-15T11:40:01.000Z</time>
      </trkpt>
      <trkpt lat="43.5322" lon="5.57595">
        <ele>863</ele>
        <time>2022-02-15T11:40:02.000Z</time>
      </trkpt>
      <trkpt lat="43.5322" lon="5.57595">
        <ele>864</ele>
        <time>2022-02-15T11:40:03.000Z</time>
      </trkpt>
      <trkpt lat="43.53219" lon="5.57595">
        <ele>864</ele>
        <time>2022-02-15T11:40:04.000Z</time>
      </trkpt>
      <trkpt lat="43.5322" lon="5.57595">
        <ele>864</ele>
        <time>2022-02-15T11:40:05.000Z</time>
      </trkpt>
      <trkpt lat="43.5322" lon="5.57595">
        <ele>864</ele>
        <time>2022-02-15T11:40:06.000Z</time>
      </trkpt>
      <trkpt lat="43.5322" lon="5.57595">
        <ele>864</ele>
        <time>2022-02-15T11:40:07.000Z</time>
      </trkpt>
      <trkpt lat="43.53219" lon="5.57595">
        <ele>864</ele>
        <time>2022-02-15T11:40:08.000Z</time>
      </trkpt>
      <trkpt lat="43.53219" lon="5.57595">
        <ele>864</ele>
        <time>2022-02-15T11:40:09.000Z</time>
      </trkpt>
      <trkpt lat="43.53219" lon="5.57595">
        <ele>864</ele>
        <time>2022-02-15T11:40:10.000Z</time>
      </trkpt>
      <trkpt lat="43.53219" lon="5.57595">
        <ele>864</ele>
        <time>2022-02-15T11:40:11.000Z</time>
      </trkpt>
      <trkpt lat="43.53219" lon="5.57595">
        <ele>864</ele>
        <time>2022-02-15T11:40:12.000Z</time>
      </trkpt>
      <trkpt lat="43.53219" lon="5.57595">
        <ele>864</ele>
        <time>2022-02-15T11:40:13.000Z</time>
      </trkpt>
      <trkpt lat="43.53218" lon="5.57595">
        <ele>864</ele>
        <time>2022-02-15T11:40:14.000Z</time>
      </trkpt>
      <trkpt lat="43.53218" lon="5.57595">
        <ele>864</ele>
        <time>2022-02-15T11:40:15.000Z</time>
      </trkpt>
      <trkpt lat="43.53218" lon="5.57595">
        <ele>864</ele>
        <time>2022-02-15T11:40:16.000Z</time>
      </trkpt>
      <trkpt lat="43.53218" lon="5.57595">
        <ele>864</ele>
        <time>2022-02-15T11:40:17.000Z</time>
      </trkpt>
      <trkpt lat="43.53218" lon="5.57595">
        <ele>864</ele>
        <time>2022-02-15T11:40:18.000Z</time>
      </trkpt>
      <trkpt lat="43.53218" lon="5.57595">
        <ele>864</ele>
        <time>2022-02-15T11:40:19.000Z</time>
      </trkpt>
      <trkpt lat="43.53218" lon="5.57595">
        <ele>864</ele>
        <time>2022-02-15T11:40:20.000Z</time>
      </trkpt>
      <trkpt lat="43.53218" lon="5.57596">
        <ele>864</ele>
        <time>2022-02-15T11:40:21.000Z</time>
      </trkpt>
      <trkpt lat="43.53218" lon="5.57596">
        <ele>864</ele>
        <time>2022-02-15T11:40:22.000Z</time>
      </trkpt>
      <trkpt lat="43.53218" lon="5.57596">
        <ele>864</ele>
        <time>2022-02-15T11:40:23.000Z</time>
      </trkpt>
      <trkpt lat="43.53218" lon="5.57596">
        <ele>864</ele>
        <time>2022-02-15T11:40:24.000Z</time>
      </trkpt>
      <trkpt lat="43.53218" lon="5.57596">
        <ele>864</ele>
        <time>2022-02-15T11:40:25.000Z</time>
      </trkpt>
      <trkpt lat="43.53218" lon="5.57596">
        <ele>864</ele>
        <time>2022-02-15T11:40:26.000Z</time>
      </trkpt>
      <trkpt lat="43.53219" lon="5.57596">
        <ele>864</ele>
        <time>2022-02-15T11:40:27.000Z</time>
      </trkpt>
      <trkpt lat="43.53219" lon="5.57595">
        <ele>864</ele>
        <time>2022-02-15T11:40:28.000Z</time>
      </trkpt>
      <trkpt lat="43.53219" lon="5.57595">
        <ele>864</ele>
        <time>2022-02-15T11:40:29.000Z</time>
      </trkpt>
      <trkpt lat="43.53219" lon="5.57595">
        <ele>864</ele>
        <time>2022-02-15T11:40:30.000Z</time>
      </trkpt>
      <trkpt lat="43.53219" lon="5.57595">
        <ele>864</ele>
        <time>2022-02-15T11:40:31.000Z</time>
      </trkpt>
      <trkpt lat="43.53219" lon="5.57595">
        <ele>864</ele>
        <time>2022-02-15T11:40:32.000Z</time>
      </trkpt>
      <trkpt lat="43.53219" lon="5.57595">
        <ele>864</ele>
        <time>2022-02-15T11:40:33.000Z</time>
      </trkpt>
      <trkpt lat="43.53219" lon="5.57595">
        <ele>864</ele>
        <time>2022-02-15T11:40:34.000Z</time>
      </trkpt>
      <trkpt lat="43.53219" lon="5.57595">
        <ele>864</ele>
        <time>2022-02-15T11:40:35.000Z</time>
      </trkpt>
      <trkpt lat="43.53219" lon="5.57595">
        <ele>864</ele>
        <time>2022-02-15T11:40:36.000Z</time>
      </trkpt>
      <trkpt lat="43.53219" lon="5.57595">
        <ele>864</ele>
        <time>2022-02-15T11:40:37.000Z</time>
      </trkpt>
      <trkpt lat="43.53219" lon="5.57595">
        <ele>864</ele>
        <time>2022-02-15T11:40:38.000Z</time>
      </trkpt>
      <trkpt lat="43.53219" lon="5.57595">
        <ele>864</ele>
        <time>2022-02-15T11:40:39.000Z</time>
      </trkpt>
      <trkpt lat="43.53219" lon="5.57595">
        <ele>864</ele>
        <time>2022-02-15T11:40:40.000Z</time>
      </trkpt>
      <trkpt lat="43.53219" lon="5.57595">
        <ele>864</ele>
        <time>2022-02-15T11:40:41.000Z</time>
      </trkpt>
      <trkpt lat="43.5322" lon="5.57594">
        <ele>864</ele>
        <time>2022-02-15T11:40:42.000Z</time>
      </trkpt>
      <trkpt lat="43.5322" lon="5.57594">
        <ele>864</ele>
        <time>2022-02-15T11:40:43.000Z</time>
      </trkpt>
      <trkpt lat="43.5322" lon="5.57594">
        <ele>864</ele>
        <time>2022-02-15T11:40:44.000Z</time>
      </trkpt>
      <trkpt lat="43.53221" lon="5.57593">
        <ele>864</ele>
        <time>2022-02-15T11:40:45.000Z</time>
      </trkpt>
      <trkpt lat="43.53221" lon="5.57592">
        <ele>864</ele>
        <time>2022-02-15T11:40:46.000Z</time>
      </trkpt>
      <trkpt lat="43.53221" lon="5.57592">
        <ele>864</ele>
        <time>2022-02-15T11:40:47.000Z</time>
      </trkpt>
      <trkpt lat="43.53221" lon="5.57591">
        <ele>863</ele>
        <time>2022-02-15T11:40:48.000Z</time>
      </trkpt>
      <trkpt lat="43.53222" lon="5.57591">
        <ele>863</ele>
        <time>2022-02-15T11:40:49.000Z</time>
      </trkpt>
      <trkpt lat="43.53221" lon="5.57591">
        <ele>863</ele>
        <time>2022-02-15T11:40:50.000Z</time>
      </trkpt>
      <trkpt lat="43.53222" lon="5.5759">
        <ele>863</ele>
        <time>2022-02-15T11:40:51.000Z</time>
      </trkpt>
      <trkpt lat="43.53222" lon="5.5759">
        <ele>863</ele>
        <time>2022-02-15T11:40:52.000Z</time>
      </trkpt>
      <trkpt lat="43.53222" lon="5.5759">
        <ele>863</ele>
        <time>2022-02-15T11:40:53.000Z</time>
      </trkpt>
      <trkpt lat="43.53222" lon="5.57589">
        <ele>863</ele>
        <time>2022-02-15T11:40:54.000Z</time>
      </trkpt>
      <trkpt lat="43.53222" lon="5.57589">
        <ele>863</ele>
        <time>2022-02-15T11:40:55.000Z</time>
      </trkpt>
      <trkpt lat="43.53223" lon="5.57589">
        <ele>863</ele>
        <time>2022-02-15T11:40:56.000Z</time>
      </trkpt>
      <trkpt lat="43.53224" lon="5.57589">
        <ele>862</ele>
        <time>2022-02-15T11:40:57.000Z</time>
      </trkpt>
      <trkpt lat="43.53224" lon="5.57589">
        <ele>862</ele>
        <time>2022-02-15T11:40:58.000Z</time>
      </trkpt>
      <trkpt lat="43.53224" lon="5.57589">
        <ele>862</ele>
        <time>2022-02-15T11:40:59.000Z</time>
      </trkpt>
      <trkpt lat="43.53224" lon="5.57589">
        <ele>862</ele>
        <time>2022-02-15T11:41:00.000Z</time>
      </trkpt>
      <trkpt lat="43.53224" lon="5.57588">
        <ele>862</ele>
        <time>2022-02-15T11:41:01.000Z</time>
      </trkpt>
      <trkpt lat="43.53225" lon="5.57587">
        <ele>862</ele>
        <time>2022-02-15T11:41:02.000Z</time>
      </trkpt>
      <trkpt lat="43.53224" lon="5.57586">
        <ele>862</ele>
        <time>2022-02-15T11:41:03.000Z</time>
      </trkpt>
      <trkpt lat="43.53224" lon="5.57585">
        <ele>862</ele>
        <time>2022-02-15T11:41:04.000Z</time>
      </trkpt>
      <trkpt lat="43.53225" lon="5.57584">
        <ele>862</ele>
        <time>2022-02-15T11:41:05.000Z</time>
      </trkpt>
      <trkpt lat="43.53225" lon="5.57583">
        <ele>861</ele>
        <time>2022-02-15T11:41:06.000Z</time>
      </trkpt>
      <trkpt lat="43.53225" lon="5.57582">
        <ele>861</ele>
        <time>2022-02-15T11:41:07.000Z</time>
      </trkpt>
      <trkpt lat="43.53226" lon="5.57581">
        <ele>861</ele>
        <time>2022-02-15T11:41:08.000Z</time>
      </trkpt>
      <trkpt lat="43.53226" lon="5.57581">
        <ele>861</ele>
        <time>2022-02-15T11:41:09.000Z</time>
      </trkpt>
      <trkpt lat="43.53226" lon="5.5758">
        <ele>861</ele>
        <time>2022-02-15T11:41:10.000Z</time>
      </trkpt>
      <trkpt lat="43.53226" lon="5.57579">
        <ele>860</ele>
        <time>2022-02-15T11:41:11.000Z</time>
      </trkpt>
      <trkpt lat="43.53227" lon="5.57579">
        <ele>860</ele>
        <time>2022-02-15T11:41:12.000Z</time>
      </trkpt>
      <trkpt lat="43.53227" lon="5.57578">
        <ele>860</ele>
        <time>2022-02-15T11:41:13.000Z</time>
      </trkpt>
      <trkpt lat="43.53228" lon="5.57577">
        <ele>860</ele>
        <time>2022-02-15T11:41:14.000Z</time>
      </trkpt>
      <trkpt lat="43.53228" lon="5.57577">
        <ele>860</ele>
        <time>2022-02-15T11:41:15.000Z</time>
      </trkpt>
      <trkpt lat="43.53229" lon="5.57576">
        <ele>859</ele>
        <time>2022-02-15T11:41:16.000Z</time>
      </trkpt>
      <trkpt lat="43.53229" lon="5.57576">
        <ele>859</ele>
        <time>2022-02-15T11:41:17.000Z</time>
      </trkpt>
      <trkpt lat="43.53229" lon="5.57576">
        <ele>859</ele>
        <time>2022-02-15T11:41:18.000Z</time>
      </trkpt>
      <trkpt lat="43.5323" lon="5.57575">
        <ele>859</ele>
        <time>2022-02-15T11:41:19.000Z</time>
      </trkpt>
      <trkpt lat="43.5323" lon="5.57575">
        <ele>859</ele>
        <time>2022-02-15T11:41:20.000Z</time>
      </trkpt>
      <trkpt lat="43.5323" lon="5.57574">
        <ele>859</ele>
        <time>2022-02-15T11:41:21.000Z</time>
      </trkpt>
      <trkpt lat="43.5323" lon="5.57574">
        <ele>859</ele>
        <time>2022-02-15T11:41:22.000Z</time>
      </trkpt>
      <trkpt lat="43.53231" lon="5.57574">
        <ele>859</ele>
        <time>2022-02-15T11:41:23.000Z</time>
      </trkpt>
      <trkpt lat="43.53231" lon="5.57574">
        <ele>859</ele>
        <time>2022-02-15T11:41:24.000Z</time>
      </trkpt>
      <trkpt lat="43.53231" lon="5.57574">
        <ele>859</ele>
        <time>2022-02-15T11:41:25.000Z</time>
      </trkpt>
      <trkpt lat="43.53231" lon="5.57574">
        <ele>859</ele>
        <time>2022-02-15T11:41:26.000Z</time>
      </trkpt>
      <trkpt lat="43.53232" lon="5.57575">
        <ele>858</ele>
        <time>2022-02-15T11:41:27.000Z</time>
      </trkpt>
      <trkpt lat="43.53232" lon="5.57576">
        <ele>858</ele>
        <time>2022-02-15T11:41:28.000Z</time>
      </trkpt>
      <trkpt lat="43.53233" lon="5.57576">
        <ele>858</ele>
        <time>2022-02-15T11:41:29.000Z</time>
      </trkpt>
      <trkpt lat="43.53233" lon="5.57576">
        <ele>858</ele>
        <time>2022-02-15T11:41:30.000Z</time>
      </trkpt>
      <trkpt lat="43.53233" lon="5.57576">
        <ele>858</ele>
        <time>2022-02-15T11:41:31.000Z</time>
      </trkpt>
      <trkpt lat="43.53234" lon="5.57576">
        <ele>858</ele>
        <time>2022-02-15T11:41:32.000Z</time>
      </trkpt>
      <trkpt lat="43.53235" lon="5.57576">
        <ele>858</ele>
        <time>2022-02-15T11:41:33.000Z</time>
      </trkpt>
      <trkpt lat="43.53235" lon="5.57577">
        <ele>857</ele>
        <time>2022-02-15T11:41:34.000Z</time>
      </trkpt>
      <trkpt lat="43.53235" lon="5.57577">
        <ele>857</ele>
        <time>2022-02-15T11:41:35.000Z</time>
      </trkpt>
      <trkpt lat="43.53235" lon="5.57577">
        <ele>857</ele>
        <time>2022-02-15T11:41:36.000Z</time>
      </trkpt>
      <trkpt lat="43.53235" lon="5.57577">
        <ele>857</ele>
        <time>2022-02-15T11:41:37.000Z</time>
      </trkpt>
      <trkpt lat="43.53235" lon="5.57577">
        <ele>857</ele>
        <time>2022-02-15T11:41:38.000Z</time>
      </trkpt>
      <trkpt lat="43.53236" lon="5.57577">
        <ele>857</ele>
        <time>2022-02-15T11:41:39.000Z</time>
      </trkpt>
      <trkpt lat="43.53236" lon="5.57577">
        <ele>857</ele>
        <time>2022-02-15T11:41:40.000Z</time>
      </trkpt>
      <trkpt lat="43.53236" lon="5.57577">
        <ele>857</ele>
        <time>2022-02-15T11:41:41.000Z</time>
      </trkpt>
      <trkpt lat="43.53237" lon="5.57577">
        <ele>857</ele>
        <time>2022-02-15T11:41:42.000Z</time>
      </trkpt>
      <trkpt lat="43.53237" lon="5.57577">
        <ele>856</ele>
        <time>2022-02-15T11:41:43.000Z</time>
      </trkpt>
      <trkpt lat="43.53237" lon="5.57577">
        <ele>856</ele>
        <time>2022-02-15T11:41:44.000Z</time>
      </trkpt>
      <trkpt lat="43.53237" lon="5.57577">
        <ele>856</ele>
        <time>2022-02-15T11:41:45.000Z</time>
      </trkpt>
      <trkpt lat="43.53238" lon="5.57576">
        <ele>856</ele>
        <time>2022-02-15T11:41:46.000Z</time>
      </trkpt>
      <trkpt lat="43.53238" lon="5.57576">
        <ele>856</ele>
        <time>2022-02-15T11:41:47.000Z</time>
      </trkpt>
      <trkpt lat="43.53239" lon="5.57576">
        <ele>856</ele>
        <time>2022-02-15T11:41:48.000Z</time>
      </trkpt>
      <trkpt lat="43.53239" lon="5.57575">
        <ele>855</ele>
        <time>2022-02-15T11:41:49.000Z</time>
      </trkpt>
      <trkpt lat="43.53239" lon="5.57575">
        <ele>855</ele>
        <time>2022-02-15T11:41:50.000Z</time>
      </trkpt>
      <trkpt lat="43.53239" lon="5.57574">
        <ele>855</ele>
        <time>2022-02-15T11:41:51.000Z</time>
      </trkpt>
      <trkpt lat="43.53239" lon="5.57574">
        <ele>855</ele>
        <time>2022-02-15T11:41:52.000Z</time>
      </trkpt>
      <trkpt lat="43.53239" lon="5.57573">
        <ele>855</ele>
        <time>2022-02-15T11:41:53.000Z</time>
      </trkpt>
      <trkpt lat="43.5324" lon="5.57573">
        <ele>854</ele>
        <time>2022-02-15T11:41:54.000Z</time>
      </trkpt>
      <trkpt lat="43.5324" lon="5.57572">
        <ele>854</ele>
        <time>2022-02-15T11:41:55.000Z</time>
      </trkpt>
      <trkpt lat="43.5324" lon="5.57572">
        <ele>854</ele>
        <time>2022-02-15T11:41:56.000Z</time>
      </trkpt>
      <trkpt lat="43.53241" lon="5.57572">
        <ele>854</ele>
        <time>2022-02-15T11:41:57.000Z</time>
      </trkpt>
      <trkpt lat="43.53242" lon="5.57572">
        <ele>854</ele>
        <time>2022-02-15T11:41:58.000Z</time>
      </trkpt>
      <trkpt lat="43.53242" lon="5.57571">
        <ele>853</ele>
        <time>2022-02-15T11:41:59.000Z</time>
      </trkpt>
      <trkpt lat="43.53242" lon="5.57571">
        <ele>853</ele>
        <time>2022-02-15T11:42:00.000Z</time>
      </trkpt>
      <trkpt lat="43.53242" lon="5.57571">
        <ele>853</ele>
        <time>2022-02-15T11:42:01.000Z</time>
      </trkpt>
      <trkpt lat="43.53242" lon="5.5757">
        <ele>853</ele>
        <time>2022-02-15T11:42:02.000Z</time>
      </trkpt>
      <trkpt lat="43.53242" lon="5.5757">
        <ele>853</ele>
        <time>2022-02-15T11:42:03.000Z</time>
      </trkpt>
      <trkpt lat="43.53242" lon="5.5757">
        <ele>853</ele>
        <time>2022-02-15T11:42:04.000Z</time>
      </trkpt>
      <trkpt lat="43.53242" lon="5.5757">
        <ele>853</ele>
        <time>2022-02-15T11:42:05.000Z</time>
      </trkpt>
      <trkpt lat="43.53243" lon="5.5757">
        <ele>853</ele>
        <time>2022-02-15T11:42:06.000Z</time>
      </trkpt>
      <trkpt lat="43.53243" lon="5.5757">
        <ele>853</ele>
        <time>2022-02-15T11:42:07.000Z</time>
      </trkpt>
      <trkpt lat="43.53243" lon="5.5757">
        <ele>853</ele>
        <time>2022-02-15T11:42:08.000Z</time>
      </trkpt>
      <trkpt lat="43.53242" lon="5.5757">
        <ele>853</ele>
        <time>2022-02-15T11:42:09.000Z</time>
      </trkpt>
      <trkpt lat="43.53242" lon="5.5757">
        <ele>853</ele>
        <time>2022-02-15T11:42:10.000Z</time>
      </trkpt>
      <trkpt lat="43.53242" lon="5.5757">
        <ele>853</ele>
        <time>2022-02-15T11:42:11.000Z</time>
      </trkpt>
      <trkpt lat="43.53242" lon="5.57569">
        <ele>853</ele>
        <time>2022-02-15T11:42:12.000Z</time>
      </trkpt>
      <trkpt lat="43.53242" lon="5.57569">
        <ele>853</ele>
        <time>2022-02-15T11:42:13.000Z</time>
      </trkpt>
      <trkpt lat="43.53242" lon="5.57568">
        <ele>852</ele>
        <time>2022-02-15T11:42:14.000Z</time>
      </trkpt>
      <trkpt lat="43.53242" lon="5.57567">
        <ele>852</ele>
        <time>2022-02-15T11:42:15.000Z</time>
      </trkpt>
      <trkpt lat="43.53242" lon="5.57567">
        <ele>852</ele>
        <time>2022-02-15T11:42:16.000Z</time>
      </trkpt>
      <trkpt lat="43.53242" lon="5.57566">
        <ele>851</ele>
        <time>2022-02-15T11:42:17.000Z</time>
      </trkpt>
      <trkpt lat="43.53243" lon="5.57565">
        <ele>851</ele>
        <time>2022-02-15T11:42:18.000Z</time>
      </trkpt>
      <trkpt lat="43.53243" lon="5.57564">
        <ele>851</ele>
        <time>2022-02-15T11:42:19.000Z</time>
      </trkpt>
      <trkpt lat="43.53243" lon="5.57563">
        <ele>851</ele>
        <time>2022-02-15T11:42:20.000Z</time>
      </trkpt>
      <trkpt lat="43.53243" lon="5.57563">
        <ele>851</ele>
        <time>2022-02-15T11:42:21.000Z</time>
      </trkpt>
      <trkpt lat="43.53244" lon="5.57563">
        <ele>851</ele>
        <time>2022-02-15T11:42:22.000Z</time>
      </trkpt>
      <trkpt lat="43.53244" lon="5.57562">
        <ele>851</ele>
        <time>2022-02-15T11:42:23.000Z</time>
      </trkpt>
      <trkpt lat="43.53244" lon="5.57561">
        <ele>850</ele>
        <time>2022-02-15T11:42:24.000Z</time>
      </trkpt>
      <trkpt lat="43.53244" lon="5.57561">
        <ele>850</ele>
        <time>2022-02-15T11:42:25.000Z</time>
      </trkpt>
      <trkpt lat="43.53244" lon="5.57561">
        <ele>850</ele>
        <time>2022-02-15T11:42:26.000Z</time>
      </trkpt>
      <trkpt lat="43.53245" lon="5.57561">
        <ele>850</ele>
        <time>2022-02-15T11:42:27.000Z</time>
      </trkpt>
      <trkpt lat="43.53245" lon="5.57561">
        <ele>850</ele>
        <time>2022-02-15T11:42:28.000Z</time>
      </trkpt>
      <trkpt lat="43.53245" lon="5.5756">
        <ele>850</ele>
        <time>2022-02-15T11:42:29.000Z</time>
      </trkpt>
      <trkpt lat="43.53245" lon="5.5756">
        <ele>850</ele>
        <time>2022-02-15T11:42:30.000Z</time>
      </trkpt>
      <trkpt lat="43.53245" lon="5.5756">
        <ele>849</ele>
        <time>2022-02-15T11:42:31.000Z</time>
      </trkpt>
      <trkpt lat="43.53245" lon="5.5756">
        <ele>849</ele>
        <time>2022-02-15T11:42:32.000Z</time>
      </trkpt>
      <trkpt lat="43.53245" lon="5.5756">
        <ele>849</ele>
        <time>2022-02-15T11:42:33.000Z</time>
      </trkpt>
      <trkpt lat="43.53245" lon="5.5756">
        <ele>849</ele>
        <time>2022-02-15T11:42:34.000Z</time>
      </trkpt>
      <trkpt lat="43.53245" lon="5.5756">
        <ele>849</ele>
        <time>2022-02-15T11:42:35.000Z</time>
      </trkpt>
      <trkpt lat="43.53245" lon="5.5756">
        <ele>849</ele>
        <time>2022-02-15T11:42:36.000Z</time>
      </trkpt>
      <trkpt lat="43.53245" lon="5.5756">
        <ele>849</ele>
        <time>2022-02-15T11:42:37.000Z</time>
      </trkpt>
      <trkpt lat="43.53245" lon="5.57559">
        <ele>849</ele>
        <time>2022-02-15T11:42:38.000Z</time>
      </trkpt>
      <trkpt lat="43.53245" lon="5.57559">
        <ele>849</ele>
        <time>2022-02-15T11:42:39.000Z</time>
      </trkpt>
      <trkpt lat="43.53246" lon="5.57558">
        <ele>849</ele>
        <time>2022-02-15T11:42:40.000Z</time>
      </trkpt>
      <trkpt lat="43.53246" lon="5.57558">
        <ele>849</ele>
        <time>2022-02-15T11:42:41.000Z</time>
      </trkpt>
      <trkpt lat="43.53246" lon="5.57557">
        <ele>849</ele>
        <time>2022-02-15T11:42:42.000Z</time>
      </trkpt>
      <trkpt lat="43.53247" lon="5.57557">
        <ele>849</ele>
        <time>2022-02-15T11:42:43.000Z</time>
      </trkpt>
      <trkpt lat="43.53247" lon="5.57556">
        <ele>849</ele>
        <time>2022-02-15T11:42:44.000Z</time>
      </trkpt>
      <trkpt lat="43.53248" lon="5.57555">
        <ele>849</ele>
        <time>2022-02-15T11:42:45.000Z</time>
      </trkpt>
      <trkpt lat="43.53248" lon="5.57555">
        <ele>848</ele>
        <time>2022-02-15T11:42:46.000Z</time>
      </trkpt>
      <trkpt lat="43.53248" lon="5.57554">
        <ele>848</ele>
        <time>2022-02-15T11:42:47.000Z</time>
      </trkpt>
      <trkpt lat="43.53248" lon="5.57554">
        <ele>848</ele>
        <time>2022-02-15T11:42:48.000Z</time>
      </trkpt>
      <trkpt lat="43.53249" lon="5.57554">
        <ele>848</ele>
        <time>2022-02-15T11:42:49.000Z</time>
      </trkpt>
      <trkpt lat="43.53249" lon="5.57553">
        <ele>848</ele>
        <time>2022-02-15T11:42:50.000Z</time>
      </trkpt>
      <trkpt lat="43.53249" lon="5.57553">
        <ele>848</ele>
        <time>2022-02-15T11:42:51.000Z</time>
      </trkpt>
      <trkpt lat="43.53249" lon="5.57552">
        <ele>848</ele>
        <time>2022-02-15T11:42:52.000Z</time>
      </trkpt>
      <trkpt lat="43.53249" lon="5.57552">
        <ele>848</ele>
        <time>2022-02-15T11:42:53.000Z</time>
      </trkpt>
      <trkpt lat="43.5325" lon="5.57552">
        <ele>847</ele>
        <time>2022-02-15T11:42:54.000Z</time>
      </trkpt>
      <trkpt lat="43.5325" lon="5.57552">
        <ele>847</ele>
        <time>2022-02-15T11:42:55.000Z</time>
      </trkpt>
      <trkpt lat="43.5325" lon="5.57552">
        <ele>847</ele>
        <time>2022-02-15T11:42:56.000Z</time>
      </trkpt>
      <trkpt lat="43.5325" lon="5.57551">
        <ele>847</ele>
        <time>2022-02-15T11:42:57.000Z</time>
      </trkpt>
      <trkpt lat="43.5325" lon="5.57551">
        <ele>847</ele>
        <time>2022-02-15T11:42:58.000Z</time>
      </trkpt>
      <trkpt lat="43.5325" lon="5.57551">
        <ele>847</ele>
        <time>2022-02-15T11:42:59.000Z</time>
      </trkpt>
      <trkpt lat="43.5325" lon="5.57551">
        <ele>847</ele>
        <time>2022-02-15T11:43:00.000Z</time>
      </trkpt>
      <trkpt lat="43.5325" lon="5.57551">
        <ele>847</ele>
        <time>2022-02-15T11:43:01.000Z</time>
      </trkpt>
      <trkpt lat="43.5325" lon="5.57551">
        <ele>847</ele>
        <time>2022-02-15T11:43:02.000Z</time>
      </trkpt>
      <trkpt lat="43.5325" lon="5.57551">
        <ele>847</ele>
        <time>2022-02-15T11:43:03.000Z</time>
      </trkpt>
      <trkpt lat="43.5325" lon="5.57551">
        <ele>847</ele>
        <time>2022-02-15T11:43:04.000Z</time>
      </trkpt>
      <trkpt lat="43.5325" lon="5.57551">
        <ele>847</ele>
        <time>2022-02-15T11:43:05.000Z</time>
      </trkpt>
      <trkpt lat="43.5325" lon="5.57551">
        <ele>847</ele>
        <time>2022-02-15T11:43:06.000Z</time>
      </trkpt>
      <trkpt lat="43.5325" lon="5.57551">
        <ele>847</ele>
        <time>2022-02-15T11:43:07.000Z</time>
      </trkpt>
      <trkpt lat="43.5325" lon="5.57551">
        <ele>847</ele>
        <time>2022-02-15T11:43:08.000Z</time>
      </trkpt>
      <trkpt lat="43.5325" lon="5.57551">
        <ele>847</ele>
        <time>2022-02-15T11:43:09.000Z</time>
      </trkpt>
      <trkpt lat="43.5325" lon="5.57551">
        <ele>847</ele>
        <time>2022-02-15T11:43:10.000Z</time>
      </trkpt>
      <trkpt lat="43.5325" lon="5.57551">
        <ele>847</ele>
        <time>2022-02-15T11:43:11.000Z</time>
      </trkpt>
      <trkpt lat="43.5325" lon="5.57551">
        <ele>847</ele>
        <time>2022-02-15T11:43:12.000Z</time>
      </trkpt>
      <trkpt lat="43.5325" lon="5.57551">
        <ele>847</ele>
        <time>2022-02-15T11:43:13.000Z</time>
      </trkpt>
      <trkpt lat="43.5325" lon="5.57551">
        <ele>847</ele>
        <time>2022-02-15T11:43:14.000Z</time>
      </trkpt>
      <trkpt lat="43.5325" lon="5.57551">
        <ele>847</ele>
        <time>2022-02-15T11:43:15.000Z</time>
      </trkpt>
      <trkpt lat="43.5325" lon="5.57551">
        <ele>847</ele>
        <time>2022-02-15T11:43:16.000Z</time>
      </trkpt>
      <trkpt lat="43.5325" lon="5.57551">
        <ele>847</ele>
        <time>2022-02-15T11:43:17.000Z</time>
      </trkpt>
      <trkpt lat="43.5325" lon="5.57551">
        <ele>847</ele>
        <time>2022-02-15T11:43:18.000Z</time>
      </trkpt>
      <trkpt lat="43.5325" lon="5.5755">
        <ele>847</ele>
        <time>2022-02-15T11:43:19.000Z</time>
      </trkpt>
      <trkpt lat="43.5325" lon="5.5755">
        <ele>847</ele>
        <time>2022-02-15T11:43:20.000Z</time>
      </trkpt>
      <trkpt lat="43.5325" lon="5.5755">
        <ele>847</ele>
        <time>2022-02-15T11:43:21.000Z</time>
      </trkpt>
      <trkpt lat="43.5325" lon="5.5755">
        <ele>847</ele>
        <time>2022-02-15T11:43:22.000Z</time>
      </trkpt>
      <trkpt lat="43.5325" lon="5.5755">
        <ele>847</ele>
        <time>2022-02-15T11:43:23.000Z</time>
      </trkpt>
      <trkpt lat="43.53251" lon="5.5755">
        <ele>847</ele>
        <time>2022-02-15T11:43:24.000Z</time>
      </trkpt>
      <trkpt lat="43.53251" lon="5.5755">
        <ele>847</ele>
        <time>2022-02-15T11:43:25.000Z</time>
      </trkpt>
      <trkpt lat="43.53251" lon="5.5755">
        <ele>847</ele>
        <time>2022-02-15T11:43:26.000Z</time>
      </trkpt>
      <trkpt lat="43.53251" lon="5.57549">
        <ele>847</ele>
        <time>2022-02-15T11:43:27.000Z</time>
      </trkpt>
      <trkpt lat="43.53251" lon="5.57549">
        <ele>847</ele>
        <time>2022-02-15T11:43:28.000Z</time>
      </trkpt>
      <trkpt lat="43.53252" lon="5.57549">
        <ele>847</ele>
        <time>2022-02-15T11:43:29.000Z</time>
      </trkpt>
      <trkpt lat="43.53253" lon="5.57548">
        <ele>847</ele>
        <time>2022-02-15T11:43:30.000Z</time>
      </trkpt>
      <trkpt lat="43.53253" lon="5.57548">
        <ele>847</ele>
        <time>2022-02-15T11:43:31.000Z</time>
      </trkpt>
      <trkpt lat="43.53253" lon="5.57548">
        <ele>847</ele>
        <time>2022-02-15T11:43:32.000Z</time>
      </trkpt>
      <trkpt lat="43.53254" lon="5.57549">
        <ele>846</ele>
        <time>2022-02-15T11:43:33.000Z</time>
      </trkpt>
      <trkpt lat="43.53254" lon="5.57549">
        <ele>846</ele>
        <time>2022-02-15T11:43:34.000Z</time>
      </trkpt>
      <trkpt lat="43.53254" lon="5.57549">
        <ele>846</ele>
        <time>2022-02-15T11:43:35.000Z</time>
      </trkpt>
      <trkpt lat="43.53254" lon="5.57549">
        <ele>846</ele>
        <time>2022-02-15T11:43:36.000Z</time>
      </trkpt>
      <trkpt lat="43.53255" lon="5.57549">
        <ele>846</ele>
        <time>2022-02-15T11:43:37.000Z</time>
      </trkpt>
      <trkpt lat="43.53255" lon="5.57549">
        <ele>846</ele>
        <time>2022-02-15T11:43:38.000Z</time>
      </trkpt>
      <trkpt lat="43.53255" lon="5.57548">
        <ele>845</ele>
        <time>2022-02-15T11:43:39.000Z</time>
      </trkpt>
      <trkpt lat="43.53255" lon="5.57547">
        <ele>845</ele>
        <time>2022-02-15T11:43:40.000Z</time>
      </trkpt>
      <trkpt lat="43.53255" lon="5.57547">
        <ele>845</ele>
        <time>2022-02-15T11:43:41.000Z</time>
      </trkpt>
      <trkpt lat="43.53256" lon="5.57547">
        <ele>845</ele>
        <time>2022-02-15T11:43:42.000Z</time>
      </trkpt>
      <trkpt lat="43.53256" lon="5.57547">
        <ele>845</ele>
        <time>2022-02-15T11:43:43.000Z</time>
      </trkpt>
      <trkpt lat="43.53256" lon="5.57547">
        <ele>845</ele>
        <time>2022-02-15T11:43:44.000Z</time>
      </trkpt>
      <trkpt lat="43.53256" lon="5.57547">
        <ele>845</ele>
        <time>2022-02-15T11:43:45.000Z</time>
      </trkpt>
      <trkpt lat="43.53256" lon="5.57547">
        <ele>845</ele>
        <time>2022-02-15T11:43:46.000Z</time>
      </trkpt>
      <trkpt lat="43.53256" lon="5.57547">
        <ele>845</ele>
        <time>2022-02-15T11:43:47.000Z</time>
      </trkpt>
      <trkpt lat="43.53256" lon="5.57547">
        <ele>845</ele>
        <time>2022-02-15T11:43:48.000Z</time>
      </trkpt>
      <trkpt lat="43.53256" lon="5.57547">
        <ele>845</ele>
        <time>2022-02-15T11:43:49.000Z</time>
      </trkpt>
      <trkpt lat="43.53256" lon="5.57547">
        <ele>845</ele>
        <time>2022-02-15T11:43:50.000Z</time>
      </trkpt>
      <trkpt lat="43.53256" lon="5.57547">
        <ele>845</ele>
        <time>2022-02-15T11:43:51.000Z</time>
      </trkpt>
      <trkpt lat="43.53256" lon="5.57547">
        <ele>845</ele>
        <time>2022-02-15T11:43:52.000Z</time>
      </trkpt>
      <trkpt lat="43.53256" lon="5.57547">
        <ele>845</ele>
        <time>2022-02-15T11:43:53.000Z</time>
      </trkpt>
      <trkpt lat="43.53256" lon="5.57547">
        <ele>845</ele>
        <time>2022-02-15T11:43:54.000Z</time>
      </trkpt>
      <trkpt lat="43.53256" lon="5.57547">
        <ele>845</ele>
        <time>2022-02-15T11:43:55.000Z</time>
      </trkpt>
      <trkpt lat="43.53256" lon="5.57547">
        <ele>845</ele>
        <time>2022-02-15T11:43:56.000Z</time>
      </trkpt>
      <trkpt lat="43.53256" lon="5.57547">
        <ele>845</ele>
        <time>2022-02-15T11:43:57.000Z</time>
      </trkpt>
      <trkpt lat="43.53256" lon="5.57547">
        <ele>845</ele>
        <time>2022-02-15T11:43:58.000Z</time>
      </trkpt>
      <trkpt lat="43.53256" lon="5.57547">
        <ele>845</ele>
        <time>2022-02-15T11:43:59.000Z</time>
      </trkpt>
      <trkpt lat="43.53256" lon="5.57546">
        <ele>845</ele>
        <time>2022-02-15T11:44:00.000Z</time>
      </trkpt>
      <trkpt lat="43.53256" lon="5.57546">
        <ele>845</ele>
        <time>2022-02-15T11:44:01.000Z</time>
      </trkpt>
      <trkpt lat="43.53256" lon="5.57546">
        <ele>845</ele>
        <time>2022-02-15T11:44:02.000Z</time>
      </trkpt>
      <trkpt lat="43.53256" lon="5.57546">
        <ele>845</ele>
        <time>2022-02-15T11:44:03.000Z</time>
      </trkpt>
      <trkpt lat="43.53257" lon="5.57545">
        <ele>845</ele>
        <time>2022-02-15T11:44:04.000Z</time>
      </trkpt>
      <trkpt lat="43.53257" lon="5.57545">
        <ele>845</ele>
        <time>2022-02-15T11:44:05.000Z</time>
      </trkpt>
      <trkpt lat="43.53257" lon="5.57545">
        <ele>845</ele>
        <time>2022-02-15T11:44:06.000Z</time>
      </trkpt>
      <trkpt lat="43.53257" lon="5.57545">
        <ele>845</ele>
        <time>2022-02-15T11:44:07.000Z</time>
      </trkpt>
      <trkpt lat="43.53256" lon="5.57544">
        <ele>845</ele>
        <time>2022-02-15T11:44:08.000Z</time>
      </trkpt>
      <trkpt lat="43.53256" lon="5.57544">
        <ele>844</ele>
        <time>2022-02-15T11:44:09.000Z</time>
      </trkpt>
      <trkpt lat="43.53256" lon="5.57544">
        <ele>844</ele>
        <time>2022-02-15T11:44:10.000Z</time>
      </trkpt>
      <trkpt lat="43.53256" lon="5.57544">
        <ele>844</ele>
        <time>2022-02-15T11:44:11.000Z</time>
      </trkpt>
      <trkpt lat="43.53256" lon="5.57543">
        <ele>844</ele>
        <time>2022-02-15T11:44:12.000Z</time>
      </trkpt>
      <trkpt lat="43.53256" lon="5.57542">
        <ele>844</ele>
        <time>2022-02-15T11:44:13.000Z</time>
      </trkpt>
      <trkpt lat="43.53257" lon="5.57542">
        <ele>844</ele>
        <time>2022-02-15T11:44:14.000Z</time>
      </trkpt>
      <trkpt lat="43.53257" lon="5.57541">
        <ele>844</ele>
        <time>2022-02-15T11:44:15.000Z</time>
      </trkpt>
      <trkpt lat="43.53258" lon="5.57541">
        <ele>843</ele>
        <time>2022-02-15T11:44:16.000Z</time>
      </trkpt>
      <trkpt lat="43.53258" lon="5.57541">
        <ele>843</ele>
        <time>2022-02-15T11:44:17.000Z</time>
      </trkpt>
      <trkpt lat="43.53258" lon="5.5754">
        <ele>843</ele>
        <time>2022-02-15T11:44:18.000Z</time>
      </trkpt>
      <trkpt lat="43.53259" lon="5.5754">
        <ele>843</ele>
        <time>2022-02-15T11:44:19.000Z</time>
      </trkpt>
      <trkpt lat="43.53259" lon="5.5754">
        <ele>843</ele>
        <time>2022-02-15T11:44:20.000Z</time>
      </trkpt>
      <trkpt lat="43.53259" lon="5.5754">
        <ele>843</ele>
        <time>2022-02-15T11:44:21.000Z</time>
      </trkpt>
      <trkpt lat="43.53259" lon="5.5754">
        <ele>843</ele>
        <time>2022-02-15T11:44:22.000Z</time>
      </trkpt>
      <trkpt lat="43.53259" lon="5.5754">
        <ele>843</ele>
        <time>2022-02-15T11:44:23.000Z</time>
      </trkpt>
      <trkpt lat="43.53259" lon="5.57539">
        <ele>843</ele>
        <time>2022-02-15T11:44:24.000Z</time>
      </trkpt>
      <trkpt lat="43.53259" lon="5.57539">
        <ele>843</ele>
        <time>2022-02-15T11:44:25.000Z</time>
      </trkpt>
      <trkpt lat="43.5326" lon="5.57539">
        <ele>842</ele>
        <time>2022-02-15T11:44:26.000Z</time>
      </trkpt>
      <trkpt lat="43.5326" lon="5.57539">
        <ele>842</ele>
        <time>2022-02-15T11:44:27.000Z</time>
      </trkpt>
      <trkpt lat="43.5326" lon="5.57538">
        <ele>842</ele>
        <time>2022-02-15T11:44:28.000Z</time>
      </trkpt>
      <trkpt lat="43.53261" lon="5.57538">
        <ele>842</ele>
        <time>2022-02-15T11:44:29.000Z</time>
      </trkpt>
      <trkpt lat="43.53261" lon="5.57538">
        <ele>842</ele>
        <time>2022-02-15T11:44:30.000Z</time>
      </trkpt>
      <trkpt lat="43.53261" lon="5.57538">
        <ele>842</ele>
        <time>2022-02-15T11:44:31.000Z</time>
      </trkpt>
      <trkpt lat="43.53261" lon="5.57538">
        <ele>842</ele>
        <time>2022-02-15T11:44:32.000Z</time>
      </trkpt>
      <trkpt lat="43.53262" lon="5.57538">
        <ele>842</ele>
        <time>2022-02-15T11:44:33.000Z</time>
      </trkpt>
      <trkpt lat="43.53262" lon="5.57538">
        <ele>842</ele>
        <time>2022-02-15T11:44:34.000Z</time>
      </trkpt>
      <trkpt lat="43.53262" lon="5.57538">
        <ele>842</ele>
        <time>2022-02-15T11:44:35.000Z</time>
      </trkpt>
      <trkpt lat="43.53262" lon="5.57538">
        <ele>842</ele>
        <time>2022-02-15T11:44:36.000Z</time>
      </trkpt>
      <trkpt lat="43.53263" lon="5.57538">
        <ele>842</ele>
        <time>2022-02-15T11:44:37.000Z</time>
      </trkpt>
      <trkpt lat="43.53263" lon="5.57537">
        <ele>842</ele>
        <time>2022-02-15T11:44:38.000Z</time>
      </trkpt>
      <trkpt lat="43.53263" lon="5.57537">
        <ele>842</ele>
        <time>2022-02-15T11:44:39.000Z</time>
      </trkpt>
      <trkpt lat="43.53264" lon="5.57536">
        <ele>842</ele>
        <time>2022-02-15T11:44:40.000Z</time>
      </trkpt>
      <trkpt lat="43.53264" lon="5.57536">
        <ele>842</ele>
        <time>2022-02-15T11:44:41.000Z</time>
      </trkpt>
      <trkpt lat="43.53264" lon="5.57537">
        <ele>842</ele>
        <time>2022-02-15T11:44:42.000Z</time>
      </trkpt>
      <trkpt lat="43.53265" lon="5.57537">
        <ele>842</ele>
        <time>2022-02-15T11:44:43.000Z</time>
      </trkpt>
      <trkpt lat="43.53265" lon="5.57537">
        <ele>841</ele>
        <time>2022-02-15T11:44:44.000Z</time>
      </trkpt>
      <trkpt lat="43.53265" lon="5.57537">
        <ele>841</ele>
        <time>2022-02-15T11:44:45.000Z</time>
      </trkpt>
      <trkpt lat="43.53266" lon="5.57537">
        <ele>841</ele>
        <time>2022-02-15T11:44:46.000Z</time>
      </trkpt>
      <trkpt lat="43.53266" lon="5.57537">
        <ele>841</ele>
        <time>2022-02-15T11:44:47.000Z</time>
      </trkpt>
      <trkpt lat="43.53266" lon="5.57536">
        <ele>841</ele>
        <time>2022-02-15T11:44:48.000Z</time>
      </trkpt>
      <trkpt lat="43.53267" lon="5.57536">
        <ele>841</ele>
        <time>2022-02-15T11:44:49.000Z</time>
      </trkpt>
      <trkpt lat="43.53267" lon="5.57536">
        <ele>841</ele>
        <time>2022-02-15T11:44:50.000Z</time>
      </trkpt>
      <trkpt lat="43.53268" lon="5.57535">
        <ele>840</ele>
        <time>2022-02-15T11:44:51.000Z</time>
      </trkpt>
      <trkpt lat="43.53268" lon="5.57535">
        <ele>840</ele>
        <time>2022-02-15T11:44:52.000Z</time>
      </trkpt>
      <trkpt lat="43.53269" lon="5.57535">
        <ele>840</ele>
        <time>2022-02-15T11:44:53.000Z</time>
      </trkpt>
      <trkpt lat="43.53269" lon="5.57534">
        <ele>840</ele>
        <time>2022-02-15T11:44:54.000Z</time>
      </trkpt>
      <trkpt lat="43.53269" lon="5.57534">
        <ele>840</ele>
        <time>2022-02-15T11:44:55.000Z</time>
      </trkpt>
      <trkpt lat="43.53269" lon="5.57533">
        <ele>839</ele>
        <time>2022-02-15T11:44:56.000Z</time>
      </trkpt>
      <trkpt lat="43.53269" lon="5.57532">
        <ele>839</ele>
        <time>2022-02-15T11:44:57.000Z</time>
      </trkpt>
      <trkpt lat="43.53269" lon="5.57532">
        <ele>839</ele>
        <time>2022-02-15T11:44:58.000Z</time>
      </trkpt>
      <trkpt lat="43.53269" lon="5.57532">
        <ele>839</ele>
        <time>2022-02-15T11:44:59.000Z</time>
      </trkpt>
      <trkpt lat="43.53269" lon="5.57531">
        <ele>839</ele>
        <time>2022-02-15T11:45:00.000Z</time>
      </trkpt>
      <trkpt lat="43.53268" lon="5.57531">
        <ele>839</ele>
        <time>2022-02-15T11:45:01.000Z</time>
      </trkpt>
      <trkpt lat="43.53268" lon="5.5753">
        <ele>839</ele>
        <time>2022-02-15T11:45:02.000Z</time>
      </trkpt>
      <trkpt lat="43.53268" lon="5.57529">
        <ele>839</ele>
        <time>2022-02-15T11:45:03.000Z</time>
      </trkpt>
      <trkpt lat="43.53267" lon="5.57528">
        <ele>839</ele>
        <time>2022-02-15T11:45:04.000Z</time>
      </trkpt>
      <trkpt lat="43.53267" lon="5.57528">
        <ele>839</ele>
        <time>2022-02-15T11:45:05.000Z</time>
      </trkpt>
      <trkpt lat="43.53267" lon="5.57527">
        <ele>839</ele>
        <time>2022-02-15T11:45:06.000Z</time>
      </trkpt>
      <trkpt lat="43.53267" lon="5.57527">
        <ele>839</ele>
        <time>2022-02-15T11:45:07.000Z</time>
      </trkpt>
      <trkpt lat="43.53267" lon="5.57527">
        <ele>839</ele>
        <time>2022-02-15T11:45:08.000Z</time>
      </trkpt>
      <trkpt lat="43.53267" lon="5.57526">
        <ele>839</ele>
        <time>2022-02-15T11:45:09.000Z</time>
      </trkpt>
      <trkpt lat="43.53267" lon="5.57525">
        <ele>838</ele>
        <time>2022-02-15T11:45:10.000Z</time>
      </trkpt>
      <trkpt lat="43.53267" lon="5.57525">
        <ele>838</ele>
        <time>2022-02-15T11:45:11.000Z</time>
      </trkpt>
      <trkpt lat="43.53267" lon="5.57525">
        <ele>838</ele>
        <time>2022-02-15T11:45:12.000Z</time>
      </trkpt>
      <trkpt lat="43.53267" lon="5.57525">
        <ele>838</ele>
        <time>2022-02-15T11:45:13.000Z</time>
      </trkpt>
      <trkpt lat="43.53268" lon="5.57526">
        <ele>838</ele>
        <time>2022-02-15T11:45:14.000Z</time>
      </trkpt>
      <trkpt lat="43.53268" lon="5.57526">
        <ele>838</ele>
        <time>2022-02-15T11:45:15.000Z</time>
      </trkpt>
      <trkpt lat="43.53269" lon="5.57526">
        <ele>838</ele>
        <time>2022-02-15T11:45:16.000Z</time>
      </trkpt>
      <trkpt lat="43.53269" lon="5.57526">
        <ele>838</ele>
        <time>2022-02-15T11:45:17.000Z</time>
      </trkpt>
      <trkpt lat="43.53269" lon="5.57525">
        <ele>838</ele>
        <time>2022-02-15T11:45:18.000Z</time>
      </trkpt>
      <trkpt lat="43.53269" lon="5.57526">
        <ele>837</ele>
        <time>2022-02-15T11:45:19.000Z</time>
      </trkpt>
      <trkpt lat="43.53269" lon="5.57526">
        <ele>837</ele>
        <time>2022-02-15T11:45:20.000Z</time>
      </trkpt>
      <trkpt lat="43.5327" lon="5.57526">
        <ele>837</ele>
        <time>2022-02-15T11:45:21.000Z</time>
      </trkpt>
      <trkpt lat="43.5327" lon="5.57526">
        <ele>837</ele>
        <time>2022-02-15T11:45:22.000Z</time>
      </trkpt>
      <trkpt lat="43.5327" lon="5.57526">
        <ele>837</ele>
        <time>2022-02-15T11:45:23.000Z</time>
      </trkpt>
      <trkpt lat="43.5327" lon="5.57526">
        <ele>837</ele>
        <time>2022-02-15T11:45:24.000Z</time>
      </trkpt>
      <trkpt lat="43.5327" lon="5.57525">
        <ele>837</ele>
        <time>2022-02-15T11:45:25.000Z</time>
      </trkpt>
      <trkpt lat="43.53271" lon="5.57525">
        <ele>837</ele>
        <time>2022-02-15T11:45:26.000Z</time>
      </trkpt>
      <trkpt lat="43.53271" lon="5.57525">
        <ele>837</ele>
        <time>2022-02-15T11:45:27.000Z</time>
      </trkpt>
      <trkpt lat="43.53271" lon="5.57525">
        <ele>837</ele>
        <time>2022-02-15T11:45:28.000Z</time>
      </trkpt>
      <trkpt lat="43.53272" lon="5.57525">
        <ele>837</ele>
        <time>2022-02-15T11:45:29.000Z</time>
      </trkpt>
      <trkpt lat="43.53272" lon="5.57526">
        <ele>836</ele>
        <time>2022-02-15T11:45:30.000Z</time>
      </trkpt>
      <trkpt lat="43.53273" lon="5.57526">
        <ele>836</ele>
        <time>2022-02-15T11:45:31.000Z</time>
      </trkpt>
      <trkpt lat="43.53273" lon="5.57527">
        <ele>836</ele>
        <time>2022-02-15T11:45:32.000Z</time>
      </trkpt>
      <trkpt lat="43.53274" lon="5.57527">
        <ele>836</ele>
        <time>2022-02-15T11:45:33.000Z</time>
      </trkpt>
      <trkpt lat="43.53274" lon="5.57527">
        <ele>836</ele>
        <time>2022-02-15T11:45:34.000Z</time>
      </trkpt>
      <trkpt lat="43.53275" lon="5.57527">
        <ele>836</ele>
        <time>2022-02-15T11:45:35.000Z</time>
      </trkpt>
      <trkpt lat="43.53275" lon="5.57527">
        <ele>836</ele>
        <time>2022-02-15T11:45:36.000Z</time>
      </trkpt>
      <trkpt lat="43.53276" lon="5.57527">
        <ele>835</ele>
        <time>2022-02-15T11:45:37.000Z</time>
      </trkpt>
      <trkpt lat="43.53277" lon="5.57527">
        <ele>835</ele>
        <time>2022-02-15T11:45:38.000Z</time>
      </trkpt>
      <trkpt lat="43.53277" lon="5.57527">
        <ele>835</ele>
        <time>2022-02-15T11:45:39.000Z</time>
      </trkpt>
      <trkpt lat="43.53278" lon="5.57526">
        <ele>835</ele>
        <time>2022-02-15T11:45:40.000Z</time>
      </trkpt>
      <trkpt lat="43.53278" lon="5.57526">
        <ele>835</ele>
        <time>2022-02-15T11:45:41.000Z</time>
      </trkpt>
      <trkpt lat="43.53278" lon="5.57525">
        <ele>835</ele>
        <time>2022-02-15T11:45:42.000Z</time>
      </trkpt>
      <trkpt lat="43.53279" lon="5.57525">
        <ele>834</ele>
        <time>2022-02-15T11:45:43.000Z</time>
      </trkpt>
      <trkpt lat="43.53279" lon="5.57524">
        <ele>834</ele>
        <time>2022-02-15T11:45:44.000Z</time>
      </trkpt>
      <trkpt lat="43.5328" lon="5.57523">
        <ele>834</ele>
        <time>2022-02-15T11:45:45.000Z</time>
      </trkpt>
      <trkpt lat="43.5328" lon="5.57522">
        <ele>834</ele>
        <time>2022-02-15T11:45:46.000Z</time>
      </trkpt>
      <trkpt lat="43.5328" lon="5.57522">
        <ele>833</ele>
        <time>2022-02-15T11:45:47.000Z</time>
      </trkpt>
      <trkpt lat="43.5328" lon="5.57521">
        <ele>833</ele>
        <time>2022-02-15T11:45:48.000Z</time>
      </trkpt>
      <trkpt lat="43.5328" lon="5.5752">
        <ele>833</ele>
        <time>2022-02-15T11:45:49.000Z</time>
      </trkpt>
      <trkpt lat="43.53281" lon="5.57519">
        <ele>833</ele>
        <time>2022-02-15T11:45:50.000Z</time>
      </trkpt>
      <trkpt lat="43.53281" lon="5.57518">
        <ele>833</ele>
        <time>2022-02-15T11:45:51.000Z</time>
      </trkpt>
      <trkpt lat="43.53282" lon="5.57518">
        <ele>833</ele>
        <time>2022-02-15T11:45:52.000Z</time>
      </trkpt>
      <trkpt lat="43.53283" lon="5.57518">
        <ele>833</ele>
        <time>2022-02-15T11:45:53.000Z</time>
      </trkpt>
      <trkpt lat="43.53283" lon="5.57518">
        <ele>833</ele>
        <time>2022-02-15T11:45:54.000Z</time>
      </trkpt>
      <trkpt lat="43.53284" lon="5.57517">
        <ele>833</ele>
        <time>2022-02-15T11:45:55.000Z</time>
      </trkpt>
      <trkpt lat="43.53284" lon="5.57517">
        <ele>832</ele>
        <time>2022-02-15T11:45:56.000Z</time>
      </trkpt>
      <trkpt lat="43.53285" lon="5.57517">
        <ele>832</ele>
        <time>2022-02-15T11:45:57.000Z</time>
      </trkpt>
      <trkpt lat="43.53285" lon="5.57517">
        <ele>832</ele>
        <time>2022-02-15T11:45:58.000Z</time>
      </trkpt>
      <trkpt lat="43.53285" lon="5.57516">
        <ele>832</ele>
        <time>2022-02-15T11:45:59.000Z</time>
      </trkpt>
      <trkpt lat="43.53285" lon="5.57516">
        <ele>832</ele>
        <time>2022-02-15T11:46:00.000Z</time>
      </trkpt>
      <trkpt lat="43.53286" lon="5.57515">
        <ele>832</ele>
        <time>2022-02-15T11:46:01.000Z</time>
      </trkpt>
      <trkpt lat="43.53286" lon="5.57514">
        <ele>832</ele>
        <time>2022-02-15T11:46:02.000Z</time>
      </trkpt>
      <trkpt lat="43.53286" lon="5.57514">
        <ele>831</ele>
        <time>2022-02-15T11:46:03.000Z</time>
      </trkpt>
      <trkpt lat="43.53286" lon="5.57514">
        <ele>831</ele>
        <time>2022-02-15T11:46:04.000Z</time>
      </trkpt>
      <trkpt lat="43.53286" lon="5.57513">
        <ele>831</ele>
        <time>2022-02-15T11:46:05.000Z</time>
      </trkpt>
      <trkpt lat="43.53286" lon="5.57512">
        <ele>831</ele>
        <time>2022-02-15T11:46:06.000Z</time>
      </trkpt>
      <trkpt lat="43.53286" lon="5.57511">
        <ele>831</ele>
        <time>2022-02-15T11:46:07.000Z</time>
      </trkpt>
      <trkpt lat="43.53287" lon="5.5751">
        <ele>831</ele>
        <time>2022-02-15T11:46:08.000Z</time>
      </trkpt>
      <trkpt lat="43.53287" lon="5.57509">
        <ele>831</ele>
        <time>2022-02-15T11:46:09.000Z</time>
      </trkpt>
      <trkpt lat="43.53287" lon="5.57508">
        <ele>830</ele>
        <time>2022-02-15T11:46:10.000Z</time>
      </trkpt>
      <trkpt lat="43.53288" lon="5.57507">
        <ele>830</ele>
        <time>2022-02-15T11:46:11.000Z</time>
      </trkpt>
      <trkpt lat="43.53288" lon="5.57506">
        <ele>830</ele>
        <time>2022-02-15T11:46:12.000Z</time>
      </trkpt>
      <trkpt lat="43.53289" lon="5.57506">
        <ele>830</ele>
        <time>2022-02-15T11:46:13.000Z</time>
      </trkpt>
      <trkpt lat="43.5329" lon="5.57505">
        <ele>830</ele>
        <time>2022-02-15T11:46:14.000Z</time>
      </trkpt>
      <trkpt lat="43.5329" lon="5.57505">
        <ele>829</ele>
        <time>2022-02-15T11:46:15.000Z</time>
      </trkpt>
      <trkpt lat="43.53291" lon="5.57505">
        <ele>829</ele>
        <time>2022-02-15T11:46:16.000Z</time>
      </trkpt>
      <trkpt lat="43.53292" lon="5.57505">
        <ele>829</ele>
        <time>2022-02-15T11:46:17.000Z</time>
      </trkpt>
      <trkpt lat="43.53292" lon="5.57506">
        <ele>829</ele>
        <time>2022-02-15T11:46:18.000Z</time>
      </trkpt>
      <trkpt lat="43.53293" lon="5.57506">
        <ele>829</ele>
        <time>2022-02-15T11:46:19.000Z</time>
      </trkpt>
      <trkpt lat="43.53293" lon="5.57506">
        <ele>828</ele>
        <time>2022-02-15T11:46:20.000Z</time>
      </trkpt>
      <trkpt lat="43.53294" lon="5.57506">
        <ele>828</ele>
        <time>2022-02-15T11:46:21.000Z</time>
      </trkpt>
      <trkpt lat="43.53294" lon="5.57506">
        <ele>828</ele>
        <time>2022-02-15T11:46:22.000Z</time>
      </trkpt>
      <trkpt lat="43.53294" lon="5.57506">
        <ele>828</ele>
        <time>2022-02-15T11:46:23.000Z</time>
      </trkpt>
      <trkpt lat="43.53294" lon="5.57506">
        <ele>828</ele>
        <time>2022-02-15T11:46:24.000Z</time>
      </trkpt>
      <trkpt lat="43.53294" lon="5.57506">
        <ele>828</ele>
        <time>2022-02-15T11:46:25.000Z</time>
      </trkpt>
      <trkpt lat="43.53294" lon="5.57506">
        <ele>828</ele>
        <time>2022-02-15T11:46:26.000Z</time>
      </trkpt>
      <trkpt lat="43.53294" lon="5.57506">
        <ele>828</ele>
        <time>2022-02-15T11:46:27.000Z</time>
      </trkpt>
      <trkpt lat="43.53294" lon="5.57506">
        <ele>828</ele>
        <time>2022-02-15T11:46:28.000Z</time>
      </trkpt>
      <trkpt lat="43.53294" lon="5.57506">
        <ele>828</ele>
        <time>2022-02-15T11:46:29.000Z</time>
      </trkpt>
      <trkpt lat="43.53294" lon="5.57506">
        <ele>828</ele>
        <time>2022-02-15T11:46:30.000Z</time>
      </trkpt>
      <trkpt lat="43.53294" lon="5.57506">
        <ele>828</ele>
        <time>2022-02-15T11:46:31.000Z</time>
      </trkpt>
      <trkpt lat="43.53294" lon="5.57506">
        <ele>828</ele>
        <time>2022-02-15T11:46:32.000Z</time>
      </trkpt>
      <trkpt lat="43.53294" lon="5.57506">
        <ele>828</ele>
        <time>2022-02-15T11:46:33.000Z</time>
      </trkpt>
      <trkpt lat="43.53294" lon="5.57506">
        <ele>828</ele>
        <time>2022-02-15T11:46:34.000Z</time>
      </trkpt>
      <trkpt lat="43.53294" lon="5.57506">
        <ele>828</ele>
        <time>2022-02-15T11:46:35.000Z</time>
      </trkpt>
      <trkpt lat="43.53294" lon="5.57506">
        <ele>828</ele>
        <time>2022-02-15T11:46:36.000Z</time>
      </trkpt>
      <trkpt lat="43.53294" lon="5.57506">
        <ele>828</ele>
        <time>2022-02-15T11:46:37.000Z</time>
      </trkpt>
      <trkpt lat="43.53294" lon="5.57506">
        <ele>828</ele>
        <time>2022-02-15T11:46:38.000Z</time>
      </trkpt>
      <trkpt lat="43.53293" lon="5.57506">
        <ele>828</ele>
        <time>2022-02-15T11:46:39.000Z</time>
      </trkpt>
      <trkpt lat="43.53293" lon="5.57506">
        <ele>828</ele>
        <time>2022-02-15T11:46:40.000Z</time>
      </trkpt>
      <trkpt lat="43.53294" lon="5.57505">
        <ele>828</ele>
        <time>2022-02-15T11:46:41.000Z</time>
      </trkpt>
      <trkpt lat="43.53294" lon="5.57504">
        <ele>828</ele>
        <time>2022-02-15T11:46:42.000Z</time>
      </trkpt>
      <trkpt lat="43.53294" lon="5.57503">
        <ele>828</ele>
        <time>2022-02-15T11:46:43.000Z</time>
      </trkpt>
      <trkpt lat="43.53294" lon="5.57503">
        <ele>828</ele>
        <time>2022-02-15T11:46:44.000Z</time>
      </trkpt>
      <trkpt lat="43.53295" lon="5.57502">
        <ele>828</ele>
        <time>2022-02-15T11:46:45.000Z</time>
      </trkpt>
      <trkpt lat="43.53295" lon="5.57502">
        <ele>827</ele>
        <time>2022-02-15T11:46:46.000Z</time>
      </trkpt>
      <trkpt lat="43.53295" lon="5.57501">
        <ele>827</ele>
        <time>2022-02-15T11:46:47.000Z</time>
      </trkpt>
      <trkpt lat="43.53295" lon="5.575">
        <ele>827</ele>
        <time>2022-02-15T11:46:48.000Z</time>
      </trkpt>
      <trkpt lat="43.53295" lon="5.57499">
        <ele>827</ele>
        <time>2022-02-15T11:46:49.000Z</time>
      </trkpt>
      <trkpt lat="43.53295" lon="5.57499">
        <ele>827</ele>
        <time>2022-02-15T11:46:50.000Z</time>
      </trkpt>
      <trkpt lat="43.53296" lon="5.57498">
        <ele>827</ele>
        <time>2022-02-15T11:46:51.000Z</time>
      </trkpt>
      <trkpt lat="43.53296" lon="5.57498">
        <ele>827</ele>
        <time>2022-02-15T11:46:52.000Z</time>
      </trkpt>
      <trkpt lat="43.53297" lon="5.57497">
        <ele>827</ele>
        <time>2022-02-15T11:46:53.000Z</time>
      </trkpt>
      <trkpt lat="43.53297" lon="5.57496">
        <ele>827</ele>
        <time>2022-02-15T11:46:54.000Z</time>
      </trkpt>
      <trkpt lat="43.53298" lon="5.57496">
        <ele>826</ele>
        <time>2022-02-15T11:46:55.000Z</time>
      </trkpt>
      <trkpt lat="43.53298" lon="5.57495">
        <ele>826</ele>
        <time>2022-02-15T11:46:56.000Z</time>
      </trkpt>
      <trkpt lat="43.53298" lon="5.57494">
        <ele>826</ele>
        <time>2022-02-15T11:46:57.000Z</time>
      </trkpt>
      <trkpt lat="43.53299" lon="5.57494">
        <ele>826</ele>
        <time>2022-02-15T11:46:58.000Z</time>
      </trkpt>
      <trkpt lat="43.533" lon="5.57493">
        <ele>826</ele>
        <time>2022-02-15T11:46:59.000Z</time>
      </trkpt>
      <trkpt lat="43.533" lon="5.57493">
        <ele>826</ele>
        <time>2022-02-15T11:47:00.000Z</time>
      </trkpt>
      <trkpt lat="43.533" lon="5.57492">
        <ele>826</ele>
        <time>2022-02-15T11:47:01.000Z</time>
      </trkpt>
      <trkpt lat="43.533" lon="5.57491">
        <ele>825</ele>
        <time>2022-02-15T11:47:02.000Z</time>
      </trkpt>
      <trkpt lat="43.53301" lon="5.5749">
        <ele>825</ele>
        <time>2022-02-15T11:47:03.000Z</time>
      </trkpt>
      <trkpt lat="43.53301" lon="5.57489">
        <ele>825</ele>
        <time>2022-02-15T11:47:04.000Z</time>
      </trkpt>
      <trkpt lat="43.53301" lon="5.57489">
        <ele>825</ele>
        <time>2022-02-15T11:47:05.000Z</time>
      </trkpt>
      <trkpt lat="43.53301" lon="5.57489">
        <ele>825</ele>
        <time>2022-02-15T11:47:06.000Z</time>
      </trkpt>
      <trkpt lat="43.53301" lon="5.57488">
        <ele>825</ele>
        <time>2022-02-15T11:47:07.000Z</time>
      </trkpt>
      <trkpt lat="43.53301" lon="5.57488">
        <ele>824</ele>
        <time>2022-02-15T11:47:08.000Z</time>
      </trkpt>
      <trkpt lat="43.53302" lon="5.57487">
        <ele>824</ele>
        <time>2022-02-15T11:47:09.000Z</time>
      </trkpt>
      <trkpt lat="43.53302" lon="5.57486">
        <ele>824</ele>
        <time>2022-02-15T11:47:10.000Z</time>
      </trkpt>
      <trkpt lat="43.53303" lon="5.57486">
        <ele>824</ele>
        <time>2022-02-15T11:47:11.000Z</time>
      </trkpt>
      <trkpt lat="43.53303" lon="5.57485">
        <ele>824</ele>
        <time>2022-02-15T11:47:12.000Z</time>
      </trkpt>
      <trkpt lat="43.53304" lon="5.57485">
        <ele>824</ele>
        <time>2022-02-15T11:47:13.000Z</time>
      </trkpt>
      <trkpt lat="43.53305" lon="5.57485">
        <ele>824</ele>
        <time>2022-02-15T11:47:14.000Z</time>
      </trkpt>
      <trkpt lat="43.53305" lon="5.57484">
        <ele>824</ele>
        <time>2022-02-15T11:47:15.000Z</time>
      </trkpt>
      <trkpt lat="43.53306" lon="5.57483">
        <ele>824</ele>
        <time>2022-02-15T11:47:16.000Z</time>
      </trkpt>
      <trkpt lat="43.53306" lon="5.57482">
        <ele>823</ele>
        <time>2022-02-15T11:47:17.000Z</time>
      </trkpt>
      <trkpt lat="43.53306" lon="5.57482">
        <ele>823</ele>
        <time>2022-02-15T11:47:18.000Z</time>
      </trkpt>
      <trkpt lat="43.53306" lon="5.57481">
        <ele>823</ele>
        <time>2022-02-15T11:47:19.000Z</time>
      </trkpt>
      <trkpt lat="43.53306" lon="5.5748">
        <ele>823</ele>
        <time>2022-02-15T11:47:20.000Z</time>
      </trkpt>
      <trkpt lat="43.53306" lon="5.5748">
        <ele>823</ele>
        <time>2022-02-15T11:47:21.000Z</time>
      </trkpt>
      <trkpt lat="43.53307" lon="5.57479">
        <ele>822</ele>
        <time>2022-02-15T11:47:22.000Z</time>
      </trkpt>
      <trkpt lat="43.53307" lon="5.57478">
        <ele>822</ele>
        <time>2022-02-15T11:47:23.000Z</time>
      </trkpt>
      <trkpt lat="43.53307" lon="5.57478">
        <ele>822</ele>
        <time>2022-02-15T11:47:24.000Z</time>
      </trkpt>
      <trkpt lat="43.53307" lon="5.57477">
        <ele>822</ele>
        <time>2022-02-15T11:47:25.000Z</time>
      </trkpt>
      <trkpt lat="43.53307" lon="5.57476">
        <ele>821</ele>
        <time>2022-02-15T11:47:26.000Z</time>
      </trkpt>
      <trkpt lat="43.53307" lon="5.57476">
        <ele>821</ele>
        <time>2022-02-15T11:47:27.000Z</time>
      </trkpt>
      <trkpt lat="43.53307" lon="5.57476">
        <ele>821</ele>
        <time>2022-02-15T11:47:28.000Z</time>
      </trkpt>
      <trkpt lat="43.53308" lon="5.57476">
        <ele>821</ele>
        <time>2022-02-15T11:47:29.000Z</time>
      </trkpt>
      <trkpt lat="43.53308" lon="5.57475">
        <ele>820</ele>
        <time>2022-02-15T11:47:30.000Z</time>
      </trkpt>
      <trkpt lat="43.53308" lon="5.57474">
        <ele>820</ele>
        <time>2022-02-15T11:47:31.000Z</time>
      </trkpt>
      <trkpt lat="43.53309" lon="5.57473">
        <ele>820</ele>
        <time>2022-02-15T11:47:32.000Z</time>
      </trkpt>
      <trkpt lat="43.53309" lon="5.57473">
        <ele>820</ele>
        <time>2022-02-15T11:47:33.000Z</time>
      </trkpt>
      <trkpt lat="43.5331" lon="5.57473">
        <ele>820</ele>
        <time>2022-02-15T11:47:34.000Z</time>
      </trkpt>
      <trkpt lat="43.53311" lon="5.57474">
        <ele>820</ele>
        <time>2022-02-15T11:47:35.000Z</time>
      </trkpt>
      <trkpt lat="43.53311" lon="5.57474">
        <ele>820</ele>
        <time>2022-02-15T11:47:36.000Z</time>
      </trkpt>
      <trkpt lat="43.53312" lon="5.57475">
        <ele>820</ele>
        <time>2022-02-15T11:47:37.000Z</time>
      </trkpt>
      <trkpt lat="43.53313" lon="5.57475">
        <ele>819</ele>
        <time>2022-02-15T11:47:38.000Z</time>
      </trkpt>
      <trkpt lat="43.53313" lon="5.57475">
        <ele>819</ele>
        <time>2022-02-15T11:47:39.000Z</time>
      </trkpt>
      <trkpt lat="43.53314" lon="5.57475">
        <ele>819</ele>
        <time>2022-02-15T11:47:40.000Z</time>
      </trkpt>
      <trkpt lat="43.53314" lon="5.57476">
        <ele>819</ele>
        <time>2022-02-15T11:47:41.000Z</time>
      </trkpt>
      <trkpt lat="43.53315" lon="5.57476">
        <ele>819</ele>
        <time>2022-02-15T11:47:42.000Z</time>
      </trkpt>
      <trkpt lat="43.53315" lon="5.57477">
        <ele>818</ele>
        <time>2022-02-15T11:47:43.000Z</time>
      </trkpt>
      <trkpt lat="43.53316" lon="5.57478">
        <ele>818</ele>
        <time>2022-02-15T11:47:44.000Z</time>
      </trkpt>
      <trkpt lat="43.53316" lon="5.57478">
        <ele>818</ele>
        <time>2022-02-15T11:47:45.000Z</time>
      </trkpt>
      <trkpt lat="43.53316" lon="5.57478">
        <ele>818</ele>
        <time>2022-02-15T11:47:46.000Z</time>
      </trkpt>
      <trkpt lat="43.53316" lon="5.57478">
        <ele>818</ele>
        <time>2022-02-15T11:47:47.000Z</time>
      </trkpt>
      <trkpt lat="43.53316" lon="5.57478">
        <ele>818</ele>
        <time>2022-02-15T11:47:48.000Z</time>
      </trkpt>
      <trkpt lat="43.53316" lon="5.57477">
        <ele>817</ele>
        <time>2022-02-15T11:47:49.000Z</time>
      </trkpt>
      <trkpt lat="43.53316" lon="5.57476">
        <ele>817</ele>
        <time>2022-02-15T11:47:50.000Z</time>
      </trkpt>
      <trkpt lat="43.53317" lon="5.57476">
        <ele>817</ele>
        <time>2022-02-15T11:47:51.000Z</time>
      </trkpt>
      <trkpt lat="43.53317" lon="5.57475">
        <ele>817</ele>
        <time>2022-02-15T11:47:52.000Z</time>
      </trkpt>
      <trkpt lat="43.53317" lon="5.57475">
        <ele>817</ele>
        <time>2022-02-15T11:47:53.000Z</time>
      </trkpt>
      <trkpt lat="43.53318" lon="5.57474">
        <ele>817</ele>
        <time>2022-02-15T11:47:54.000Z</time>
      </trkpt>
      <trkpt lat="43.53318" lon="5.57474">
        <ele>817</ele>
        <time>2022-02-15T11:47:55.000Z</time>
      </trkpt>
      <trkpt lat="43.53318" lon="5.57473">
        <ele>816</ele>
        <time>2022-02-15T11:47:56.000Z</time>
      </trkpt>
      <trkpt lat="43.53319" lon="5.57473">
        <ele>816</ele>
        <time>2022-02-15T11:47:57.000Z</time>
      </trkpt>
      <trkpt lat="43.53319" lon="5.57472">
        <ele>816</ele>
        <time>2022-02-15T11:47:58.000Z</time>
      </trkpt>
      <trkpt lat="43.5332" lon="5.57472">
        <ele>816</ele>
        <time>2022-02-15T11:47:59.000Z</time>
      </trkpt>
      <trkpt lat="43.5332" lon="5.57472">
        <ele>816</ele>
        <time>2022-02-15T11:48:00.000Z</time>
      </trkpt>
      <trkpt lat="43.53321" lon="5.57472">
        <ele>816</ele>
        <time>2022-02-15T11:48:01.000Z</time>
      </trkpt>
      <trkpt lat="43.53321" lon="5.57472">
        <ele>816</ele>
        <time>2022-02-15T11:48:02.000Z</time>
      </trkpt>
      <trkpt lat="43.53321" lon="5.57472">
        <ele>816</ele>
        <time>2022-02-15T11:48:03.000Z</time>
      </trkpt>
      <trkpt lat="43.53321" lon="5.57472">
        <ele>816</ele>
        <time>2022-02-15T11:48:04.000Z</time>
      </trkpt>
      <trkpt lat="43.53322" lon="5.57471">
        <ele>816</ele>
        <time>2022-02-15T11:48:05.000Z</time>
      </trkpt>
      <trkpt lat="43.53322" lon="5.57471">
        <ele>816</ele>
        <time>2022-02-15T11:48:06.000Z</time>
      </trkpt>
      <trkpt lat="43.53322" lon="5.5747">
        <ele>816</ele>
        <time>2022-02-15T11:48:07.000Z</time>
      </trkpt>
      <trkpt lat="43.53322" lon="5.57469">
        <ele>815</ele>
        <time>2022-02-15T11:48:08.000Z</time>
      </trkpt>
      <trkpt lat="43.53322" lon="5.57469">
        <ele>815</ele>
        <time>2022-02-15T11:48:09.000Z</time>
      </trkpt>
      <trkpt lat="43.53323" lon="5.57468">
        <ele>815</ele>
        <time>2022-02-15T11:48:10.000Z</time>
      </trkpt>
      <trkpt lat="43.53323" lon="5.57468">
        <ele>815</ele>
        <time>2022-02-15T11:48:11.000Z</time>
      </trkpt>
      <trkpt lat="43.53323" lon="5.57468">
        <ele>815</ele>
        <time>2022-02-15T11:48:12.000Z</time>
      </trkpt>
      <trkpt lat="43.53323" lon="5.57467">
        <ele>815</ele>
        <time>2022-02-15T11:48:13.000Z</time>
      </trkpt>
      <trkpt lat="43.53324" lon="5.57467">
        <ele>815</ele>
        <time>2022-02-15T11:48:14.000Z</time>
      </trkpt>
      <trkpt lat="43.53324" lon="5.57466">
        <ele>815</ele>
        <time>2022-02-15T11:48:15.000Z</time>
      </trkpt>
      <trkpt lat="43.53324" lon="5.57466">
        <ele>815</ele>
        <time>2022-02-15T11:48:16.000Z</time>
      </trkpt>
      <trkpt lat="43.53325" lon="5.57466">
        <ele>814</ele>
        <time>2022-02-15T11:48:17.000Z</time>
      </trkpt>
      <trkpt lat="43.53325" lon="5.57465">
        <ele>814</ele>
        <time>2022-02-15T11:48:18.000Z</time>
      </trkpt>
      <trkpt lat="43.53325" lon="5.57465">
        <ele>814</ele>
        <time>2022-02-15T11:48:19.000Z</time>
      </trkpt>
      <trkpt lat="43.53326" lon="5.57465">
        <ele>814</ele>
        <time>2022-02-15T11:48:20.000Z</time>
      </trkpt>
      <trkpt lat="43.53327" lon="5.57466">
        <ele>814</ele>
        <time>2022-02-15T11:48:21.000Z</time>
      </trkpt>
      <trkpt lat="43.53328" lon="5.57466">
        <ele>813</ele>
        <time>2022-02-15T11:48:22.000Z</time>
      </trkpt>
      <trkpt lat="43.53329" lon="5.57467">
        <ele>813</ele>
        <time>2022-02-15T11:48:23.000Z</time>
      </trkpt>
      <trkpt lat="43.53329" lon="5.57467">
        <ele>813</ele>
        <time>2022-02-15T11:48:24.000Z</time>
      </trkpt>
      <trkpt lat="43.53329" lon="5.57467">
        <ele>813</ele>
        <time>2022-02-15T11:48:25.000Z</time>
      </trkpt>
      <trkpt lat="43.53329" lon="5.57467">
        <ele>812</ele>
        <time>2022-02-15T11:48:26.000Z</time>
      </trkpt>
      <trkpt lat="43.53329" lon="5.57467">
        <ele>812</ele>
        <time>2022-02-15T11:48:27.000Z</time>
      </trkpt>
      <trkpt lat="43.5333" lon="5.57466">
        <ele>812</ele>
        <time>2022-02-15T11:48:28.000Z</time>
      </trkpt>
      <trkpt lat="43.5333" lon="5.57465">
        <ele>812</ele>
        <time>2022-02-15T11:48:29.000Z</time>
      </trkpt>
      <trkpt lat="43.5333" lon="5.57465">
        <ele>811</ele>
        <time>2022-02-15T11:48:30.000Z</time>
      </trkpt>
      <trkpt lat="43.53331" lon="5.57465">
        <ele>811</ele>
        <time>2022-02-15T11:48:31.000Z</time>
      </trkpt>
      <trkpt lat="43.53331" lon="5.57464">
        <ele>811</ele>
        <time>2022-02-15T11:48:32.000Z</time>
      </trkpt>
      <trkpt lat="43.53331" lon="5.57464">
        <ele>811</ele>
        <time>2022-02-15T11:48:33.000Z</time>
      </trkpt>
      <trkpt lat="43.53331" lon="5.57464">
        <ele>810</ele>
        <time>2022-02-15T11:48:34.000Z</time>
      </trkpt>
      <trkpt lat="43.53332" lon="5.57464">
        <ele>810</ele>
        <time>2022-02-15T11:48:35.000Z</time>
      </trkpt>
      <trkpt lat="43.53332" lon="5.57464">
        <ele>810</ele>
        <time>2022-02-15T11:48:36.000Z</time>
      </trkpt>
      <trkpt lat="43.53332" lon="5.57464">
        <ele>810</ele>
        <time>2022-02-15T11:48:37.000Z</time>
      </trkpt>
      <trkpt lat="43.53332" lon="5.57464">
        <ele>809</ele>
        <time>2022-02-15T11:48:38.000Z</time>
      </trkpt>
      <trkpt lat="43.53333" lon="5.57464">
        <ele>809</ele>
        <time>2022-02-15T11:48:39.000Z</time>
      </trkpt>
      <trkpt lat="43.53332" lon="5.57463">
        <ele>809</ele>
        <time>2022-02-15T11:48:40.000Z</time>
      </trkpt>
      <trkpt lat="43.53333" lon="5.57462">
        <ele>809</ele>
        <time>2022-02-15T11:48:41.000Z</time>
      </trkpt>
      <trkpt lat="43.53333" lon="5.57461">
        <ele>809</ele>
        <time>2022-02-15T11:48:42.000Z</time>
      </trkpt>
      <trkpt lat="43.53333" lon="5.57461">
        <ele>808</ele>
        <time>2022-02-15T11:48:43.000Z</time>
      </trkpt>
      <trkpt lat="43.53333" lon="5.5746">
        <ele>808</ele>
        <time>2022-02-15T11:48:44.000Z</time>
      </trkpt>
      <trkpt lat="43.53333" lon="5.57459">
        <ele>808</ele>
        <time>2022-02-15T11:48:45.000Z</time>
      </trkpt>
      <trkpt lat="43.53333" lon="5.57459">
        <ele>808</ele>
        <time>2022-02-15T11:48:46.000Z</time>
      </trkpt>
      <trkpt lat="43.53333" lon="5.57458">
        <ele>807</ele>
        <time>2022-02-15T11:48:47.000Z</time>
      </trkpt>
      <trkpt lat="43.53333" lon="5.57457">
        <ele>807</ele>
        <time>2022-02-15T11:48:48.000Z</time>
      </trkpt>
      <trkpt lat="43.53333" lon="5.57455">
        <ele>807</ele>
        <time>2022-02-15T11:48:49.000Z</time>
      </trkpt>
      <trkpt lat="43.53333" lon="5.57455">
        <ele>807</ele>
        <time>2022-02-15T11:48:50.000Z</time>
      </trkpt>
      <trkpt lat="43.53332" lon="5.57454">
        <ele>807</ele>
        <time>2022-02-15T11:48:51.000Z</time>
      </trkpt>
      <trkpt lat="43.53332" lon="5.57453">
        <ele>807</ele>
        <time>2022-02-15T11:48:52.000Z</time>
      </trkpt>
      <trkpt lat="43.53331" lon="5.57453">
        <ele>807</ele>
        <time>2022-02-15T11:48:53.000Z</time>
      </trkpt>
      <trkpt lat="43.53331" lon="5.57453">
        <ele>807</ele>
        <time>2022-02-15T11:48:54.000Z</time>
      </trkpt>
      <trkpt lat="43.5333" lon="5.57452">
        <ele>807</ele>
        <time>2022-02-15T11:48:55.000Z</time>
      </trkpt>
      <trkpt lat="43.5333" lon="5.57452">
        <ele>806</ele>
        <time>2022-02-15T11:48:56.000Z</time>
      </trkpt>
      <trkpt lat="43.5333" lon="5.57451">
        <ele>806</ele>
        <time>2022-02-15T11:48:57.000Z</time>
      </trkpt>
      <trkpt lat="43.53329" lon="5.57451">
        <ele>806</ele>
        <time>2022-02-15T11:48:58.000Z</time>
      </trkpt>
      <trkpt lat="43.53329" lon="5.5745">
        <ele>806</ele>
        <time>2022-02-15T11:48:59.000Z</time>
      </trkpt>
      <trkpt lat="43.53329" lon="5.57449">
        <ele>806</ele>
        <time>2022-02-15T11:49:00.000Z</time>
      </trkpt>
      <trkpt lat="43.53329" lon="5.57448">
        <ele>806</ele>
        <time>2022-02-15T11:49:01.000Z</time>
      </trkpt>
      <trkpt lat="43.53329" lon="5.57447">
        <ele>805</ele>
        <time>2022-02-15T11:49:02.000Z</time>
      </trkpt>
      <trkpt lat="43.53329" lon="5.57447">
        <ele>805</ele>
        <time>2022-02-15T11:49:03.000Z</time>
      </trkpt>
      <trkpt lat="43.53329" lon="5.57446">
        <ele>805</ele>
        <time>2022-02-15T11:49:04.000Z</time>
      </trkpt>
      <trkpt lat="43.53329" lon="5.57445">
        <ele>805</ele>
        <time>2022-02-15T11:49:05.000Z</time>
      </trkpt>
      <trkpt lat="43.53329" lon="5.57445">
        <ele>805</ele>
        <time>2022-02-15T11:49:06.000Z</time>
      </trkpt>
      <trkpt lat="43.53329" lon="5.57443">
        <ele>805</ele>
        <time>2022-02-15T11:49:07.000Z</time>
      </trkpt>
      <trkpt lat="43.53329" lon="5.57442">
        <ele>804</ele>
        <time>2022-02-15T11:49:08.000Z</time>
      </trkpt>
      <trkpt lat="43.53329" lon="5.57441">
        <ele>804</ele>
        <time>2022-02-15T11:49:09.000Z</time>
      </trkpt>
      <trkpt lat="43.53329" lon="5.5744">
        <ele>804</ele>
        <time>2022-02-15T11:49:10.000Z</time>
      </trkpt>
      <trkpt lat="43.53329" lon="5.57439">
        <ele>803</ele>
        <time>2022-02-15T11:49:11.000Z</time>
      </trkpt>
      <trkpt lat="43.53329" lon="5.57439">
        <ele>803</ele>
        <time>2022-02-15T11:49:12.000Z</time>
      </trkpt>
      <trkpt lat="43.53329" lon="5.57438">
        <ele>803</ele>
        <time>2022-02-15T11:49:13.000Z</time>
      </trkpt>
      <trkpt lat="43.53329" lon="5.57437">
        <ele>803</ele>
        <time>2022-02-15T11:49:14.000Z</time>
      </trkpt>
      <trkpt lat="43.53329" lon="5.57436">
        <ele>803</ele>
        <time>2022-02-15T11:49:15.000Z</time>
      </trkpt>
      <trkpt lat="43.5333" lon="5.57435">
        <ele>803</ele>
        <time>2022-02-15T11:49:16.000Z</time>
      </trkpt>
      <trkpt lat="43.5333" lon="5.57434">
        <ele>803</ele>
        <time>2022-02-15T11:49:17.000Z</time>
      </trkpt>
      <trkpt lat="43.5333" lon="5.57434">
        <ele>803</ele>
        <time>2022-02-15T11:49:18.000Z</time>
      </trkpt>
      <trkpt lat="43.5333" lon="5.57434">
        <ele>802</ele>
        <time>2022-02-15T11:49:19.000Z</time>
      </trkpt>
      <trkpt lat="43.53331" lon="5.57434">
        <ele>802</ele>
        <time>2022-02-15T11:49:20.000Z</time>
      </trkpt>
      <trkpt lat="43.53331" lon="5.57434">
        <ele>802</ele>
        <time>2022-02-15T11:49:21.000Z</time>
      </trkpt>
      <trkpt lat="43.53332" lon="5.57434">
        <ele>802</ele>
        <time>2022-02-15T11:49:22.000Z</time>
      </trkpt>
      <trkpt lat="43.53332" lon="5.57433">
        <ele>802</ele>
        <time>2022-02-15T11:49:23.000Z</time>
      </trkpt>
      <trkpt lat="43.53332" lon="5.57433">
        <ele>802</ele>
        <time>2022-02-15T11:49:24.000Z</time>
      </trkpt>
      <trkpt lat="43.53332" lon="5.57433">
        <ele>802</ele>
        <time>2022-02-15T11:49:25.000Z</time>
      </trkpt>
      <trkpt lat="43.53333" lon="5.57433">
        <ele>802</ele>
        <time>2022-02-15T11:49:26.000Z</time>
      </trkpt>
      <trkpt lat="43.53333" lon="5.57433">
        <ele>802</ele>
        <time>2022-02-15T11:49:27.000Z</time>
      </trkpt>
      <trkpt lat="43.53333" lon="5.57433">
        <ele>801</ele>
        <time>2022-02-15T11:49:28.000Z</time>
      </trkpt>
      <trkpt lat="43.53332" lon="5.57433">
        <ele>801</ele>
        <time>2022-02-15T11:49:29.000Z</time>
      </trkpt>
      <trkpt lat="43.53332" lon="5.57433">
        <ele>801</ele>
        <time>2022-02-15T11:49:30.000Z</time>
      </trkpt>
      <trkpt lat="43.53332" lon="5.57433">
        <ele>801</ele>
        <time>2022-02-15T11:49:31.000Z</time>
      </trkpt>
      <trkpt lat="43.53331" lon="5.57434">
        <ele>801</ele>
        <time>2022-02-15T11:49:32.000Z</time>
      </trkpt>
      <trkpt lat="43.53331" lon="5.57434">
        <ele>801</ele>
        <time>2022-02-15T11:49:33.000Z</time>
      </trkpt>
      <trkpt lat="43.5333" lon="5.57434">
        <ele>801</ele>
        <time>2022-02-15T11:49:34.000Z</time>
      </trkpt>
      <trkpt lat="43.53329" lon="5.57433">
        <ele>801</ele>
        <time>2022-02-15T11:49:35.000Z</time>
      </trkpt>
      <trkpt lat="43.53328" lon="5.57432">
        <ele>801</ele>
        <time>2022-02-15T11:49:36.000Z</time>
      </trkpt>
      <trkpt lat="43.53328" lon="5.57432">
        <ele>801</ele>
        <time>2022-02-15T11:49:37.000Z</time>
      </trkpt>
      <trkpt lat="43.53327" lon="5.57432">
        <ele>801</ele>
        <time>2022-02-15T11:49:38.000Z</time>
      </trkpt>
      <trkpt lat="43.53326" lon="5.57432">
        <ele>801</ele>
        <time>2022-02-15T11:49:39.000Z</time>
      </trkpt>
      <trkpt lat="43.53326" lon="5.57432">
        <ele>801</ele>
        <time>2022-02-15T11:49:40.000Z</time>
      </trkpt>
      <trkpt lat="43.53325" lon="5.57432">
        <ele>801</ele>
        <time>2022-02-15T11:49:41.000Z</time>
      </trkpt>
      <trkpt lat="43.53325" lon="5.57433">
        <ele>801</ele>
        <time>2022-02-15T11:49:42.000Z</time>
      </trkpt>
      <trkpt lat="43.53325" lon="5.57432">
        <ele>801</ele>
        <time>2022-02-15T11:49:43.000Z</time>
      </trkpt>
      <trkpt lat="43.53325" lon="5.57432">
        <ele>801</ele>
        <time>2022-02-15T11:49:44.000Z</time>
      </trkpt>
      <trkpt lat="43.53325" lon="5.57432">
        <ele>801</ele>
        <time>2022-02-15T11:49:45.000Z</time>
      </trkpt>
      <trkpt lat="43.53325" lon="5.57432">
        <ele>801</ele>
        <time>2022-02-15T11:49:46.000Z</time>
      </trkpt>
      <trkpt lat="43.53325" lon="5.57432">
        <ele>801</ele>
        <time>2022-02-15T11:49:47.000Z</time>
      </trkpt>
      <trkpt lat="43.53325" lon="5.57432">
        <ele>801</ele>
        <time>2022-02-15T11:49:48.000Z</time>
      </trkpt>
      <trkpt lat="43.53325" lon="5.57432">
        <ele>801</ele>
        <time>2022-02-15T11:49:49.000Z</time>
      </trkpt>
      <trkpt lat="43.53325" lon="5.57432">
        <ele>801</ele>
        <time>2022-02-15T11:49:50.000Z</time>
      </trkpt>
      <trkpt lat="43.53325" lon="5.57432">
        <ele>801</ele>
        <time>2022-02-15T11:49:51.000Z</time>
      </trkpt>
      <trkpt lat="43.53324" lon="5.57432">
        <ele>801</ele>
        <time>2022-02-15T11:49:52.000Z</time>
      </trkpt>
      <trkpt lat="43.53324" lon="5.57432">
        <ele>801</ele>
        <time>2022-02-15T11:49:53.000Z</time>
      </trkpt>
      <trkpt lat="43.53324" lon="5.57432">
        <ele>801</ele>
        <time>2022-02-15T11:49:54.000Z</time>
      </trkpt>
      <trkpt lat="43.53325" lon="5.57432">
        <ele>801</ele>
        <time>2022-02-15T11:49:55.000Z</time>
      </trkpt>
      <trkpt lat="43.53325" lon="5.57431">
        <ele>801</ele>
        <time>2022-02-15T11:49:56.000Z</time>
      </trkpt>
      <trkpt lat="43.53326" lon="5.57431">
        <ele>801</ele>
        <time>2022-02-15T11:49:57.000Z</time>
      </trkpt>
      <trkpt lat="43.53327" lon="5.57432">
        <ele>801</ele>
        <time>2022-02-15T11:49:58.000Z</time>
      </trkpt>
      <trkpt lat="43.53328" lon="5.57433">
        <ele>801</ele>
        <time>2022-02-15T11:49:59.000Z</time>
      </trkpt>
      <trkpt lat="43.53329" lon="5.57433">
        <ele>801</ele>
        <time>2022-02-15T11:50:00.000Z</time>
      </trkpt>
      <trkpt lat="43.5333" lon="5.57434">
        <ele>800</ele>
        <time>2022-02-15T11:50:01.000Z</time>
      </trkpt>
      <trkpt lat="43.5333" lon="5.57435">
        <ele>800</ele>
        <time>2022-02-15T11:50:02.000Z</time>
      </trkpt>
      <trkpt lat="43.53331" lon="5.57435">
        <ele>800</ele>
        <time>2022-02-15T11:50:03.000Z</time>
      </trkpt>
      <trkpt lat="43.53332" lon="5.57435">
        <ele>800</ele>
        <time>2022-02-15T11:50:04.000Z</time>
      </trkpt>
      <trkpt lat="43.53333" lon="5.57435">
        <ele>800</ele>
        <time>2022-02-15T11:50:05.000Z</time>
      </trkpt>
      <trkpt lat="43.53334" lon="5.57435">
        <ele>800</ele>
        <time>2022-02-15T11:50:06.000Z</time>
      </trkpt>
      <trkpt lat="43.53335" lon="5.57435">
        <ele>800</ele>
        <time>2022-02-15T11:50:07.000Z</time>
      </trkpt>
      <trkpt lat="43.53335" lon="5.57434">
        <ele>799</ele>
        <time>2022-02-15T11:50:08.000Z</time>
      </trkpt>
      <trkpt lat="43.53337" lon="5.57434">
        <ele>799</ele>
        <time>2022-02-15T11:50:09.000Z</time>
      </trkpt>
      <trkpt lat="43.53338" lon="5.57434">
        <ele>799</ele>
        <time>2022-02-15T11:50:10.000Z</time>
      </trkpt>
      <trkpt lat="43.53339" lon="5.57434">
        <ele>799</ele>
        <time>2022-02-15T11:50:11.000Z</time>
      </trkpt>
      <trkpt lat="43.5334" lon="5.57435">
        <ele>799</ele>
        <time>2022-02-15T11:50:12.000Z</time>
      </trkpt>
      <trkpt lat="43.53341" lon="5.57435">
        <ele>799</ele>
        <time>2022-02-15T11:50:13.000Z</time>
      </trkpt>
      <trkpt lat="43.53342" lon="5.57435">
        <ele>798</ele>
        <time>2022-02-15T11:50:14.000Z</time>
      </trkpt>
      <trkpt lat="43.53343" lon="5.57436">
        <ele>798</ele>
        <time>2022-02-15T11:50:15.000Z</time>
      </trkpt>
      <trkpt lat="43.53344" lon="5.57437">
        <ele>798</ele>
        <time>2022-02-15T11:50:16.000Z</time>
      </trkpt>
      <trkpt lat="43.53344" lon="5.57439">
        <ele>798</ele>
        <time>2022-02-15T11:50:17.000Z</time>
      </trkpt>
      <trkpt lat="43.53345" lon="5.5744">
        <ele>798</ele>
        <time>2022-02-15T11:50:18.000Z</time>
      </trkpt>
      <trkpt lat="43.53346" lon="5.57441">
        <ele>798</ele>
        <time>2022-02-15T11:50:19.000Z</time>
      </trkpt>
      <trkpt lat="43.53347" lon="5.57442">
        <ele>798</ele>
        <time>2022-02-15T11:50:20.000Z</time>
      </trkpt>
      <trkpt lat="43.53347" lon="5.57443">
        <ele>798</ele>
        <time>2022-02-15T11:50:21.000Z</time>
      </trkpt>
      <trkpt lat="43.53348" lon="5.57444">
        <ele>798</ele>
        <time>2022-02-15T11:50:22.000Z</time>
      </trkpt>
      <trkpt lat="43.53349" lon="5.57445">
        <ele>798</ele>
        <time>2022-02-15T11:50:23.000Z</time>
      </trkpt>
      <trkpt lat="43.53349" lon="5.57447">
        <ele>798</ele>
        <time>2022-02-15T11:50:24.000Z</time>
      </trkpt>
      <trkpt lat="43.5335" lon="5.57449">
        <ele>798</ele>
        <time>2022-02-15T11:50:25.000Z</time>
      </trkpt>
      <trkpt lat="43.5335" lon="5.5745">
        <ele>798</ele>
        <time>2022-02-15T11:50:26.000Z</time>
      </trkpt>
      <trkpt lat="43.53351" lon="5.57452">
        <ele>798</ele>
        <time>2022-02-15T11:50:27.000Z</time>
      </trkpt>
      <trkpt lat="43.53352" lon="5.57453">
        <ele>798</ele>
        <time>2022-02-15T11:50:28.000Z</time>
      </trkpt>
      <trkpt lat="43.53352" lon="5.57454">
        <ele>798</ele>
        <time>2022-02-15T11:50:29.000Z</time>
      </trkpt>
      <trkpt lat="43.53353" lon="5.57455">
        <ele>798</ele>
        <time>2022-02-15T11:50:30.000Z</time>
      </trkpt>
      <trkpt lat="43.53353" lon="5.57456">
        <ele>798</ele>
        <time>2022-02-15T11:50:31.000Z</time>
      </trkpt>
      <trkpt lat="43.53354" lon="5.57456">
        <ele>797</ele>
        <time>2022-02-15T11:50:32.000Z</time>
      </trkpt>
      <trkpt lat="43.53354" lon="5.57457">
        <ele>797</ele>
        <time>2022-02-15T11:50:33.000Z</time>
      </trkpt>
      <trkpt lat="43.53355" lon="5.57458">
        <ele>797</ele>
        <time>2022-02-15T11:50:34.000Z</time>
      </trkpt>
      <trkpt lat="43.53356" lon="5.57459">
        <ele>797</ele>
        <time>2022-02-15T11:50:35.000Z</time>
      </trkpt>
      <trkpt lat="43.53356" lon="5.5746">
        <ele>797</ele>
        <time>2022-02-15T11:50:36.000Z</time>
      </trkpt>
      <trkpt lat="43.53356" lon="5.57461">
        <ele>797</ele>
        <time>2022-02-15T11:50:37.000Z</time>
      </trkpt>
      <trkpt lat="43.53357" lon="5.57462">
        <ele>797</ele>
        <time>2022-02-15T11:50:38.000Z</time>
      </trkpt>
      <trkpt lat="43.53357" lon="5.57464">
        <ele>797</ele>
        <time>2022-02-15T11:50:39.000Z</time>
      </trkpt>
      <trkpt lat="43.53358" lon="5.57465">
        <ele>797</ele>
        <time>2022-02-15T11:50:40.000Z</time>
      </trkpt>
      <trkpt lat="43.53359" lon="5.57466">
        <ele>797</ele>
        <time>2022-02-15T11:50:41.000Z</time>
      </trkpt>
      <trkpt lat="43.53359" lon="5.57467">
        <ele>796</ele>
        <time>2022-02-15T11:50:42.000Z</time>
      </trkpt>
      <trkpt lat="43.5336" lon="5.57469">
        <ele>796</ele>
        <time>2022-02-15T11:50:43.000Z</time>
      </trkpt>
      <trkpt lat="43.5336" lon="5.5747">
        <ele>796</ele>
        <time>2022-02-15T11:50:44.000Z</time>
      </trkpt>
      <trkpt lat="43.5336" lon="5.5747">
        <ele>796</ele>
        <time>2022-02-15T11:50:45.000Z</time>
      </trkpt>
      <trkpt lat="43.53361" lon="5.57471">
        <ele>796</ele>
        <time>2022-02-15T11:50:46.000Z</time>
      </trkpt>
      <trkpt lat="43.53361" lon="5.57471">
        <ele>796</ele>
        <time>2022-02-15T11:50:47.000Z</time>
      </trkpt>
      <trkpt lat="43.53361" lon="5.57471">
        <ele>796</ele>
        <time>2022-02-15T11:50:48.000Z</time>
      </trkpt>
      <trkpt lat="43.53362" lon="5.57471">
        <ele>796</ele>
        <time>2022-02-15T11:50:49.000Z</time>
      </trkpt>
      <trkpt lat="43.53362" lon="5.57471">
        <ele>796</ele>
        <time>2022-02-15T11:50:50.000Z</time>
      </trkpt>
      <trkpt lat="43.53362" lon="5.5747">
        <ele>795</ele>
        <time>2022-02-15T11:50:51.000Z</time>
      </trkpt>
      <trkpt lat="43.53363" lon="5.57469">
        <ele>795</ele>
        <time>2022-02-15T11:50:52.000Z</time>
      </trkpt>
      <trkpt lat="43.53363" lon="5.57468">
        <ele>795</ele>
        <time>2022-02-15T11:50:53.000Z</time>
      </trkpt>
      <trkpt lat="43.53363" lon="5.57467">
        <ele>795</ele>
        <time>2022-02-15T11:50:54.000Z</time>
      </trkpt>
      <trkpt lat="43.53363" lon="5.57466">
        <ele>795</ele>
        <time>2022-02-15T11:50:55.000Z</time>
      </trkpt>
      <trkpt lat="43.53363" lon="5.57466">
        <ele>794</ele>
        <time>2022-02-15T11:50:56.000Z</time>
      </trkpt>
      <trkpt lat="43.53363" lon="5.57465">
        <ele>794</ele>
        <time>2022-02-15T11:50:57.000Z</time>
      </trkpt>
      <trkpt lat="43.53363" lon="5.57463">
        <ele>794</ele>
        <time>2022-02-15T11:50:58.000Z</time>
      </trkpt>
      <trkpt lat="43.53363" lon="5.57462">
        <ele>794</ele>
        <time>2022-02-15T11:50:59.000Z</time>
      </trkpt>
      <trkpt lat="43.53363" lon="5.57461">
        <ele>794</ele>
        <time>2022-02-15T11:51:00.000Z</time>
      </trkpt>
      <trkpt lat="43.53363" lon="5.5746">
        <ele>794</ele>
        <time>2022-02-15T11:51:01.000Z</time>
      </trkpt>
      <trkpt lat="43.53363" lon="5.57459">
        <ele>794</ele>
        <time>2022-02-15T11:51:02.000Z</time>
      </trkpt>
      <trkpt lat="43.53362" lon="5.57459">
        <ele>794</ele>
        <time>2022-02-15T11:51:03.000Z</time>
      </trkpt>
      <trkpt lat="43.53362" lon="5.57458">
        <ele>794</ele>
        <time>2022-02-15T11:51:04.000Z</time>
      </trkpt>
      <trkpt lat="43.53362" lon="5.57457">
        <ele>794</ele>
        <time>2022-02-15T11:51:05.000Z</time>
      </trkpt>
      <trkpt lat="43.53361" lon="5.57457">
        <ele>794</ele>
        <time>2022-02-15T11:51:06.000Z</time>
      </trkpt>
      <trkpt lat="43.53361" lon="5.57456">
        <ele>793</ele>
        <time>2022-02-15T11:51:07.000Z</time>
      </trkpt>
      <trkpt lat="43.53361" lon="5.57455">
        <ele>793</ele>
        <time>2022-02-15T11:51:08.000Z</time>
      </trkpt>
      <trkpt lat="43.5336" lon="5.57454">
        <ele>793</ele>
        <time>2022-02-15T11:51:09.000Z</time>
      </trkpt>
      <trkpt lat="43.5336" lon="5.57453">
        <ele>793</ele>
        <time>2022-02-15T11:51:10.000Z</time>
      </trkpt>
      <trkpt lat="43.5336" lon="5.57453">
        <ele>793</ele>
        <time>2022-02-15T11:51:11.000Z</time>
      </trkpt>
      <trkpt lat="43.5336" lon="5.57452">
        <ele>793</ele>
        <time>2022-02-15T11:51:12.000Z</time>
      </trkpt>
      <trkpt lat="43.5336" lon="5.57451">
        <ele>793</ele>
        <time>2022-02-15T11:51:13.000Z</time>
      </trkpt>
      <trkpt lat="43.5336" lon="5.5745">
        <ele>793</ele>
        <time>2022-02-15T11:51:14.000Z</time>
      </trkpt>
      <trkpt lat="43.5336" lon="5.5745">
        <ele>793</ele>
        <time>2022-02-15T11:51:15.000Z</time>
      </trkpt>
      <trkpt lat="43.5336" lon="5.57449">
        <ele>793</ele>
        <time>2022-02-15T11:51:16.000Z</time>
      </trkpt>
      <trkpt lat="43.5336" lon="5.57449">
        <ele>792</ele>
        <time>2022-02-15T11:51:17.000Z</time>
      </trkpt>
      <trkpt lat="43.53361" lon="5.57448">
        <ele>792</ele>
        <time>2022-02-15T11:51:18.000Z</time>
      </trkpt>
      <trkpt lat="43.53361" lon="5.57448">
        <ele>792</ele>
        <time>2022-02-15T11:51:19.000Z</time>
      </trkpt>
      <trkpt lat="43.53362" lon="5.57448">
        <ele>792</ele>
        <time>2022-02-15T11:51:20.000Z</time>
      </trkpt>
      <trkpt lat="43.53362" lon="5.57448">
        <ele>792</ele>
        <time>2022-02-15T11:51:21.000Z</time>
      </trkpt>
      <trkpt lat="43.53362" lon="5.57448">
        <ele>792</ele>
        <time>2022-02-15T11:51:22.000Z</time>
      </trkpt>
      <trkpt lat="43.53363" lon="5.57448">
        <ele>792</ele>
        <time>2022-02-15T11:51:23.000Z</time>
      </trkpt>
      <trkpt lat="43.53363" lon="5.57447">
        <ele>792</ele>
        <time>2022-02-15T11:51:24.000Z</time>
      </trkpt>
      <trkpt lat="43.53363" lon="5.57447">
        <ele>792</ele>
        <time>2022-02-15T11:51:25.000Z</time>
      </trkpt>
      <trkpt lat="43.53363" lon="5.57447">
        <ele>792</ele>
        <time>2022-02-15T11:51:26.000Z</time>
      </trkpt>
      <trkpt lat="43.53364" lon="5.57447">
        <ele>791</ele>
        <time>2022-02-15T11:51:27.000Z</time>
      </trkpt>
      <trkpt lat="43.53364" lon="5.57447">
        <ele>791</ele>
        <time>2022-02-15T11:51:28.000Z</time>
      </trkpt>
      <trkpt lat="43.53364" lon="5.57446">
        <ele>791</ele>
        <time>2022-02-15T11:51:29.000Z</time>
      </trkpt>
      <trkpt lat="43.53364" lon="5.57446">
        <ele>791</ele>
        <time>2022-02-15T11:51:30.000Z</time>
      </trkpt>
      <trkpt lat="43.53364" lon="5.57445">
        <ele>791</ele>
        <time>2022-02-15T11:51:31.000Z</time>
      </trkpt>
      <trkpt lat="43.53364" lon="5.57445">
        <ele>791</ele>
        <time>2022-02-15T11:51:32.000Z</time>
      </trkpt>
      <trkpt lat="43.53365" lon="5.57445">
        <ele>791</ele>
        <time>2022-02-15T11:51:33.000Z</time>
      </trkpt>
      <trkpt lat="43.53365" lon="5.57445">
        <ele>791</ele>
        <time>2022-02-15T11:51:34.000Z</time>
      </trkpt>
      <trkpt lat="43.53365" lon="5.57445">
        <ele>791</ele>
        <time>2022-02-15T11:51:35.000Z</time>
      </trkpt>
      <trkpt lat="43.53364" lon="5.57444">
        <ele>791</ele>
        <time>2022-02-15T11:51:36.000Z</time>
      </trkpt>
      <trkpt lat="43.53364" lon="5.57444">
        <ele>791</ele>
        <time>2022-02-15T11:51:37.000Z</time>
      </trkpt>
      <trkpt lat="43.53364" lon="5.57443">
        <ele>791</ele>
        <time>2022-02-15T11:51:38.000Z</time>
      </trkpt>
      <trkpt lat="43.53364" lon="5.57442">
        <ele>791</ele>
        <time>2022-02-15T11:51:39.000Z</time>
      </trkpt>
      <trkpt lat="43.53364" lon="5.57442">
        <ele>791</ele>
        <time>2022-02-15T11:51:40.000Z</time>
      </trkpt>
      <trkpt lat="43.53364" lon="5.57442">
        <ele>791</ele>
        <time>2022-02-15T11:51:41.000Z</time>
      </trkpt>
      <trkpt lat="43.53364" lon="5.57442">
        <ele>791</ele>
        <time>2022-02-15T11:51:42.000Z</time>
      </trkpt>
      <trkpt lat="43.53365" lon="5.57442">
        <ele>791</ele>
        <time>2022-02-15T11:51:43.000Z</time>
      </trkpt>
      <trkpt lat="43.53365" lon="5.57441">
        <ele>791</ele>
        <time>2022-02-15T11:51:44.000Z</time>
      </trkpt>
      <trkpt lat="43.53365" lon="5.57441">
        <ele>791</ele>
        <time>2022-02-15T11:51:45.000Z</time>
      </trkpt>
      <trkpt lat="43.53366" lon="5.5744">
        <ele>790</ele>
        <time>2022-02-15T11:51:46.000Z</time>
      </trkpt>
      <trkpt lat="43.53366" lon="5.5744">
        <ele>790</ele>
        <time>2022-02-15T11:51:47.000Z</time>
      </trkpt>
      <trkpt lat="43.53366" lon="5.57439">
        <ele>790</ele>
        <time>2022-02-15T11:51:48.000Z</time>
      </trkpt>
      <trkpt lat="43.53367" lon="5.57438">
        <ele>790</ele>
        <time>2022-02-15T11:51:49.000Z</time>
      </trkpt>
      <trkpt lat="43.53367" lon="5.57438">
        <ele>790</ele>
        <time>2022-02-15T11:51:50.000Z</time>
      </trkpt>
      <trkpt lat="43.53368" lon="5.57437">
        <ele>790</ele>
        <time>2022-02-15T11:51:51.000Z</time>
      </trkpt>
      <trkpt lat="43.53368" lon="5.57437">
        <ele>790</ele>
        <time>2022-02-15T11:51:52.000Z</time>
      </trkpt>
      <trkpt lat="43.53369" lon="5.57437">
        <ele>789</ele>
        <time>2022-02-15T11:51:53.000Z</time>
      </trkpt>
      <trkpt lat="43.5337" lon="5.57437">
        <ele>789</ele>
        <time>2022-02-15T11:51:54.000Z</time>
      </trkpt>
      <trkpt lat="43.5337" lon="5.57437">
        <ele>789</ele>
        <time>2022-02-15T11:51:55.000Z</time>
      </trkpt>
      <trkpt lat="43.53371" lon="5.57436">
        <ele>789</ele>
        <time>2022-02-15T11:51:56.000Z</time>
      </trkpt>
      <trkpt lat="43.53372" lon="5.57436">
        <ele>789</ele>
        <time>2022-02-15T11:51:57.000Z</time>
      </trkpt>
      <trkpt lat="43.53372" lon="5.57436">
        <ele>788</ele>
        <time>2022-02-15T11:51:58.000Z</time>
      </trkpt>
      <trkpt lat="43.53373" lon="5.57435">
        <ele>788</ele>
        <time>2022-02-15T11:51:59.000Z</time>
      </trkpt>
      <trkpt lat="43.53374" lon="5.57435">
        <ele>788</ele>
        <time>2022-02-15T11:52:00.000Z</time>
      </trkpt>
      <trkpt lat="43.53375" lon="5.57435">
        <ele>788</ele>
        <time>2022-02-15T11:52:01.000Z</time>
      </trkpt>
      <trkpt lat="43.53375" lon="5.57434">
        <ele>788</ele>
        <time>2022-02-15T11:52:02.000Z</time>
      </trkpt>
      <trkpt lat="43.53375" lon="5.57434">
        <ele>788</ele>
        <time>2022-02-15T11:52:03.000Z</time>
      </trkpt>
      <trkpt lat="43.53375" lon="5.57432">
        <ele>788</ele>
        <time>2022-02-15T11:52:04.000Z</time>
      </trkpt>
      <trkpt lat="43.53375" lon="5.57431">
        <ele>788</ele>
        <time>2022-02-15T11:52:05.000Z</time>
      </trkpt>
      <trkpt lat="43.53375" lon="5.5743">
        <ele>787</ele>
        <time>2022-02-15T11:52:06.000Z</time>
      </trkpt>
      <trkpt lat="43.53376" lon="5.57429">
        <ele>787</ele>
        <time>2022-02-15T11:52:07.000Z</time>
      </trkpt>
      <trkpt lat="43.53376" lon="5.57428">
        <ele>787</ele>
        <time>2022-02-15T11:52:08.000Z</time>
      </trkpt>
      <trkpt lat="43.53376" lon="5.57427">
        <ele>787</ele>
        <time>2022-02-15T11:52:09.000Z</time>
      </trkpt>
      <trkpt lat="43.53376" lon="5.57426">
        <ele>787</ele>
        <time>2022-02-15T11:52:10.000Z</time>
      </trkpt>
      <trkpt lat="43.53376" lon="5.57425">
        <ele>786</ele>
        <time>2022-02-15T11:52:11.000Z</time>
      </trkpt>
      <trkpt lat="43.53377" lon="5.57425">
        <ele>786</ele>
        <time>2022-02-15T11:52:12.000Z</time>
      </trkpt>
      <trkpt lat="43.53377" lon="5.57424">
        <ele>786</ele>
        <time>2022-02-15T11:52:13.000Z</time>
      </trkpt>
      <trkpt lat="43.53377" lon="5.57423">
        <ele>786</ele>
        <time>2022-02-15T11:52:14.000Z</time>
      </trkpt>
      <trkpt lat="43.53378" lon="5.57423">
        <ele>786</ele>
        <time>2022-02-15T11:52:15.000Z</time>
      </trkpt>
      <trkpt lat="43.53378" lon="5.57422">
        <ele>786</ele>
        <time>2022-02-15T11:52:16.000Z</time>
      </trkpt>
      <trkpt lat="43.53378" lon="5.57422">
        <ele>785</ele>
        <time>2022-02-15T11:52:17.000Z</time>
      </trkpt>
      <trkpt lat="43.53378" lon="5.57421">
        <ele>785</ele>
        <time>2022-02-15T11:52:18.000Z</time>
      </trkpt>
      <trkpt lat="43.53379" lon="5.5742">
        <ele>785</ele>
        <time>2022-02-15T11:52:19.000Z</time>
      </trkpt>
      <trkpt lat="43.53379" lon="5.57419">
        <ele>785</ele>
        <time>2022-02-15T11:52:20.000Z</time>
      </trkpt>
      <trkpt lat="43.53379" lon="5.57418">
        <ele>785</ele>
        <time>2022-02-15T11:52:21.000Z</time>
      </trkpt>
      <trkpt lat="43.53378" lon="5.57417">
        <ele>784</ele>
        <time>2022-02-15T11:52:22.000Z</time>
      </trkpt>
      <trkpt lat="43.53378" lon="5.57416">
        <ele>784</ele>
        <time>2022-02-15T11:52:23.000Z</time>
      </trkpt>
      <trkpt lat="43.53378" lon="5.57415">
        <ele>784</ele>
        <time>2022-02-15T11:52:24.000Z</time>
      </trkpt>
      <trkpt lat="43.53378" lon="5.57415">
        <ele>784</ele>
        <time>2022-02-15T11:52:25.000Z</time>
      </trkpt>
      <trkpt lat="43.53377" lon="5.57414">
        <ele>784</ele>
        <time>2022-02-15T11:52:26.000Z</time>
      </trkpt>
      <trkpt lat="43.53378" lon="5.57413">
        <ele>783</ele>
        <time>2022-02-15T11:52:27.000Z</time>
      </trkpt>
      <trkpt lat="43.53378" lon="5.57412">
        <ele>783</ele>
        <time>2022-02-15T11:52:28.000Z</time>
      </trkpt>
      <trkpt lat="43.53378" lon="5.57411">
        <ele>783</ele>
        <time>2022-02-15T11:52:29.000Z</time>
      </trkpt>
      <trkpt lat="43.53378" lon="5.57411">
        <ele>783</ele>
        <time>2022-02-15T11:52:30.000Z</time>
      </trkpt>
      <trkpt lat="43.53379" lon="5.57411">
        <ele>783</ele>
        <time>2022-02-15T11:52:31.000Z</time>
      </trkpt>
      <trkpt lat="43.53379" lon="5.5741">
        <ele>782</ele>
        <time>2022-02-15T11:52:32.000Z</time>
      </trkpt>
      <trkpt lat="43.53379" lon="5.57409">
        <ele>782</ele>
        <time>2022-02-15T11:52:33.000Z</time>
      </trkpt>
      <trkpt lat="43.53379" lon="5.57408">
        <ele>782</ele>
        <time>2022-02-15T11:52:34.000Z</time>
      </trkpt>
      <trkpt lat="43.5338" lon="5.57408">
        <ele>782</ele>
        <time>2022-02-15T11:52:35.000Z</time>
      </trkpt>
      <trkpt lat="43.5338" lon="5.57407">
        <ele>781</ele>
        <time>2022-02-15T11:52:36.000Z</time>
      </trkpt>
      <trkpt lat="43.5338" lon="5.57407">
        <ele>781</ele>
        <time>2022-02-15T11:52:37.000Z</time>
      </trkpt>
      <trkpt lat="43.5338" lon="5.57407">
        <ele>781</ele>
        <time>2022-02-15T11:52:38.000Z</time>
      </trkpt>
      <trkpt lat="43.5338" lon="5.57406">
        <ele>781</ele>
        <time>2022-02-15T11:52:39.000Z</time>
      </trkpt>
      <trkpt lat="43.5338" lon="5.57406">
        <ele>781</ele>
        <time>2022-02-15T11:52:40.000Z</time>
      </trkpt>
      <trkpt lat="43.5338" lon="5.57406">
        <ele>781</ele>
        <time>2022-02-15T11:52:41.000Z</time>
      </trkpt>
      <trkpt lat="43.5338" lon="5.57406">
        <ele>781</ele>
        <time>2022-02-15T11:52:42.000Z</time>
      </trkpt>
      <trkpt lat="43.5338" lon="5.57406">
        <ele>781</ele>
        <time>2022-02-15T11:52:43.000Z</time>
      </trkpt>
      <trkpt lat="43.5338" lon="5.57406">
        <ele>781</ele>
        <time>2022-02-15T11:52:44.000Z</time>
      </trkpt>
      <trkpt lat="43.5338" lon="5.57405">
        <ele>781</ele>
        <time>2022-02-15T11:52:45.000Z</time>
      </trkpt>
      <trkpt lat="43.53381" lon="5.57405">
        <ele>781</ele>
        <time>2022-02-15T11:52:46.000Z</time>
      </trkpt>
      <trkpt lat="43.53381" lon="5.57405">
        <ele>780</ele>
        <time>2022-02-15T11:52:47.000Z</time>
      </trkpt>
      <trkpt lat="43.53382" lon="5.57404">
        <ele>780</ele>
        <time>2022-02-15T11:52:48.000Z</time>
      </trkpt>
      <trkpt lat="43.53382" lon="5.57404">
        <ele>780</ele>
        <time>2022-02-15T11:52:49.000Z</time>
      </trkpt>
      <trkpt lat="43.53383" lon="5.57404">
        <ele>780</ele>
        <time>2022-02-15T11:52:50.000Z</time>
      </trkpt>
      <trkpt lat="43.53383" lon="5.57403">
        <ele>779</ele>
        <time>2022-02-15T11:52:51.000Z</time>
      </trkpt>
      <trkpt lat="43.53384" lon="5.57403">
        <ele>779</ele>
        <time>2022-02-15T11:52:52.000Z</time>
      </trkpt>
      <trkpt lat="43.53384" lon="5.57403">
        <ele>779</ele>
        <time>2022-02-15T11:52:53.000Z</time>
      </trkpt>
      <trkpt lat="43.53384" lon="5.57402">
        <ele>779</ele>
        <time>2022-02-15T11:52:54.000Z</time>
      </trkpt>
      <trkpt lat="43.53385" lon="5.57401">
        <ele>778</ele>
        <time>2022-02-15T11:52:55.000Z</time>
      </trkpt>
      <trkpt lat="43.53385" lon="5.57401">
        <ele>778</ele>
        <time>2022-02-15T11:52:56.000Z</time>
      </trkpt>
      <trkpt lat="43.53386" lon="5.574">
        <ele>778</ele>
        <time>2022-02-15T11:52:57.000Z</time>
      </trkpt>
      <trkpt lat="43.53386" lon="5.57399">
        <ele>778</ele>
        <time>2022-02-15T11:52:58.000Z</time>
      </trkpt>
      <trkpt lat="43.53386" lon="5.57398">
        <ele>778</ele>
        <time>2022-02-15T11:52:59.000Z</time>
      </trkpt>
      <trkpt lat="43.53387" lon="5.57398">
        <ele>777</ele>
        <time>2022-02-15T11:53:00.000Z</time>
      </trkpt>
      <trkpt lat="43.53387" lon="5.57398">
        <ele>777</ele>
        <time>2022-02-15T11:53:01.000Z</time>
      </trkpt>
      <trkpt lat="43.53388" lon="5.57398">
        <ele>777</ele>
        <time>2022-02-15T11:53:02.000Z</time>
      </trkpt>
      <trkpt lat="43.53389" lon="5.57398">
        <ele>777</ele>
        <time>2022-02-15T11:53:03.000Z</time>
      </trkpt>
      <trkpt lat="43.5339" lon="5.57398">
        <ele>777</ele>
        <time>2022-02-15T11:53:04.000Z</time>
      </trkpt>
      <trkpt lat="43.5339" lon="5.57398">
        <ele>777</ele>
        <time>2022-02-15T11:53:05.000Z</time>
      </trkpt>
      <trkpt lat="43.5339" lon="5.57398">
        <ele>776</ele>
        <time>2022-02-15T11:53:06.000Z</time>
      </trkpt>
      <trkpt lat="43.5339" lon="5.57397">
        <ele>776</ele>
        <time>2022-02-15T11:53:07.000Z</time>
      </trkpt>
      <trkpt lat="43.5339" lon="5.57396">
        <ele>776</ele>
        <time>2022-02-15T11:53:08.000Z</time>
      </trkpt>
      <trkpt lat="43.5339" lon="5.57395">
        <ele>776</ele>
        <time>2022-02-15T11:53:09.000Z</time>
      </trkpt>
      <trkpt lat="43.5339" lon="5.57394">
        <ele>775</ele>
        <time>2022-02-15T11:53:10.000Z</time>
      </trkpt>
      <trkpt lat="43.53391" lon="5.57393">
        <ele>775</ele>
        <time>2022-02-15T11:53:11.000Z</time>
      </trkpt>
      <trkpt lat="43.53392" lon="5.57393">
        <ele>775</ele>
        <time>2022-02-15T11:53:12.000Z</time>
      </trkpt>
      <trkpt lat="43.53392" lon="5.57393">
        <ele>775</ele>
        <time>2022-02-15T11:53:13.000Z</time>
      </trkpt>
      <trkpt lat="43.53393" lon="5.57393">
        <ele>774</ele>
        <time>2022-02-15T11:53:14.000Z</time>
      </trkpt>
      <trkpt lat="43.53394" lon="5.57393">
        <ele>774</ele>
        <time>2022-02-15T11:53:15.000Z</time>
      </trkpt>
      <trkpt lat="43.53395" lon="5.57393">
        <ele>774</ele>
        <time>2022-02-15T11:53:16.000Z</time>
      </trkpt>
      <trkpt lat="43.53395" lon="5.57392">
        <ele>774</ele>
        <time>2022-02-15T11:53:17.000Z</time>
      </trkpt>
      <trkpt lat="43.53396" lon="5.57392">
        <ele>773</ele>
        <time>2022-02-15T11:53:18.000Z</time>
      </trkpt>
      <trkpt lat="43.53397" lon="5.57392">
        <ele>773</ele>
        <time>2022-02-15T11:53:19.000Z</time>
      </trkpt>
      <trkpt lat="43.53398" lon="5.57392">
        <ele>773</ele>
        <time>2022-02-15T11:53:20.000Z</time>
      </trkpt>
      <trkpt lat="43.53399" lon="5.57392">
        <ele>773</ele>
        <time>2022-02-15T11:53:21.000Z</time>
      </trkpt>
      <trkpt lat="43.53399" lon="5.57393">
        <ele>772</ele>
        <time>2022-02-15T11:53:22.000Z</time>
      </trkpt>
      <trkpt lat="43.534" lon="5.57393">
        <ele>772</ele>
        <time>2022-02-15T11:53:23.000Z</time>
      </trkpt>
      <trkpt lat="43.534" lon="5.57393">
        <ele>772</ele>
        <time>2022-02-15T11:53:24.000Z</time>
      </trkpt>
      <trkpt lat="43.534" lon="5.57392">
        <ele>772</ele>
        <time>2022-02-15T11:53:25.000Z</time>
      </trkpt>
      <trkpt lat="43.534" lon="5.57391">
        <ele>772</ele>
        <time>2022-02-15T11:53:26.000Z</time>
      </trkpt>
      <trkpt lat="43.53401" lon="5.5739">
        <ele>771</ele>
        <time>2022-02-15T11:53:27.000Z</time>
      </trkpt>
      <trkpt lat="43.53401" lon="5.5739">
        <ele>771</ele>
        <time>2022-02-15T11:53:28.000Z</time>
      </trkpt>
      <trkpt lat="43.53402" lon="5.5739">
        <ele>771</ele>
        <time>2022-02-15T11:53:29.000Z</time>
      </trkpt>
      <trkpt lat="43.53402" lon="5.57389">
        <ele>771</ele>
        <time>2022-02-15T11:53:30.000Z</time>
      </trkpt>
      <trkpt lat="43.53402" lon="5.57389">
        <ele>771</ele>
        <time>2022-02-15T11:53:31.000Z</time>
      </trkpt>
      <trkpt lat="43.53402" lon="5.57389">
        <ele>771</ele>
        <time>2022-02-15T11:53:32.000Z</time>
      </trkpt>
      <trkpt lat="43.53402" lon="5.57389">
        <ele>771</ele>
        <time>2022-02-15T11:53:33.000Z</time>
      </trkpt>
      <trkpt lat="43.53402" lon="5.57389">
        <ele>771</ele>
        <time>2022-02-15T11:53:34.000Z</time>
      </trkpt>
      <trkpt lat="43.53402" lon="5.57389">
        <ele>771</ele>
        <time>2022-02-15T11:53:35.000Z</time>
      </trkpt>
      <trkpt lat="43.53402" lon="5.57389">
        <ele>771</ele>
        <time>2022-02-15T11:53:36.000Z</time>
      </trkpt>
      <trkpt lat="43.53402" lon="5.57389">
        <ele>771</ele>
        <time>2022-02-15T11:53:37.000Z</time>
      </trkpt>
      <trkpt lat="43.53402" lon="5.57389">
        <ele>771</ele>
        <time>2022-02-15T11:53:38.000Z</time>
      </trkpt>
      <trkpt lat="43.53402" lon="5.57389">
        <ele>771</ele>
        <time>2022-02-15T11:53:39.000Z</time>
      </trkpt>
      <trkpt lat="43.53402" lon="5.57389">
        <ele>771</ele>
        <time>2022-02-15T11:53:40.000Z</time>
      </trkpt>
      <trkpt lat="43.53402" lon="5.57388">
        <ele>771</ele>
        <time>2022-02-15T11:53:41.000Z</time>
      </trkpt>
      <trkpt lat="43.53403" lon="5.57388">
        <ele>771</ele>
        <time>2022-02-15T11:53:42.000Z</time>
      </trkpt>
      <trkpt lat="43.53403" lon="5.57388">
        <ele>771</ele>
        <time>2022-02-15T11:53:43.000Z</time>
      </trkpt>
      <trkpt lat="43.53403" lon="5.57388">
        <ele>771</ele>
        <time>2022-02-15T11:53:44.000Z</time>
      </trkpt>
      <trkpt lat="43.53403" lon="5.57388">
        <ele>771</ele>
        <time>2022-02-15T11:53:45.000Z</time>
      </trkpt>
      <trkpt lat="43.53403" lon="5.57388">
        <ele>771</ele>
        <time>2022-02-15T11:53:46.000Z</time>
      </trkpt>
      <trkpt lat="43.53403" lon="5.57388">
        <ele>771</ele>
        <time>2022-02-15T11:53:47.000Z</time>
      </trkpt>
      <trkpt lat="43.53403" lon="5.57388">
        <ele>771</ele>
        <time>2022-02-15T11:53:48.000Z</time>
      </trkpt>
      <trkpt lat="43.53403" lon="5.57388">
        <ele>771</ele>
        <time>2022-02-15T11:53:49.000Z</time>
      </trkpt>
      <trkpt lat="43.53403" lon="5.57388">
        <ele>771</ele>
        <time>2022-02-15T11:53:50.000Z</time>
      </trkpt>
      <trkpt lat="43.53403" lon="5.57388">
        <ele>771</ele>
        <time>2022-02-15T11:53:51.000Z</time>
      </trkpt>
      <trkpt lat="43.53403" lon="5.57388">
        <ele>771</ele>
        <time>2022-02-15T11:53:52.000Z</time>
      </trkpt>
      <trkpt lat="43.53403" lon="5.57388">
        <ele>771</ele>
        <time>2022-02-15T11:53:53.000Z</time>
      </trkpt>
      <trkpt lat="43.53403" lon="5.57388">
        <ele>771</ele>
        <time>2022-02-15T11:53:54.000Z</time>
      </trkpt>
      <trkpt lat="43.53403" lon="5.57388">
        <ele>771</ele>
        <time>2022-02-15T11:53:55.000Z</time>
      </trkpt>
      <trkpt lat="43.53403" lon="5.57388">
        <ele>771</ele>
        <time>2022-02-15T11:53:56.000Z</time>
      </trkpt>
      <trkpt lat="43.53403" lon="5.57388">
        <ele>771</ele>
        <time>2022-02-15T11:53:57.000Z</time>
      </trkpt>
      <trkpt lat="43.53403" lon="5.57388">
        <ele>771</ele>
        <time>2022-02-15T11:53:58.000Z</time>
      </trkpt>
      <trkpt lat="43.53403" lon="5.57388">
        <ele>771</ele>
        <time>2022-02-15T11:53:59.000Z</time>
      </trkpt>
      <trkpt lat="43.53403" lon="5.57388">
        <ele>771</ele>
        <time>2022-02-15T11:54:00.000Z</time>
      </trkpt>
      <trkpt lat="43.53403" lon="5.57388">
        <ele>771</ele>
        <time>2022-02-15T11:54:01.000Z</time>
      </trkpt>
      <trkpt lat="43.53403" lon="5.57388">
        <ele>771</ele>
        <time>2022-02-15T11:54:02.000Z</time>
      </trkpt>
      <trkpt lat="43.53403" lon="5.57387">
        <ele>771</ele>
        <time>2022-02-15T11:54:03.000Z</time>
      </trkpt>
      <trkpt lat="43.53403" lon="5.57388">
        <ele>771</ele>
        <time>2022-02-15T11:54:04.000Z</time>
      </trkpt>
      <trkpt lat="43.53403" lon="5.57387">
        <ele>770</ele>
        <time>2022-02-15T11:54:05.000Z</time>
      </trkpt>
      <trkpt lat="43.53403" lon="5.57387">
        <ele>770</ele>
        <time>2022-02-15T11:54:06.000Z</time>
      </trkpt>
      <trkpt lat="43.53404" lon="5.57386">
        <ele>770</ele>
        <time>2022-02-15T11:54:07.000Z</time>
      </trkpt>
      <trkpt lat="43.53405" lon="5.57386">
        <ele>770</ele>
        <time>2022-02-15T11:54:08.000Z</time>
      </trkpt>
      <trkpt lat="43.53405" lon="5.57386">
        <ele>770</ele>
        <time>2022-02-15T11:54:09.000Z</time>
      </trkpt>
      <trkpt lat="43.53406" lon="5.57386">
        <ele>770</ele>
        <time>2022-02-15T11:54:10.000Z</time>
      </trkpt>
      <trkpt lat="43.53407" lon="5.57386">
        <ele>770</ele>
        <time>2022-02-15T11:54:11.000Z</time>
      </trkpt>
      <trkpt lat="43.53407" lon="5.57386">
        <ele>770</ele>
        <time>2022-02-15T11:54:12.000Z</time>
      </trkpt>
      <trkpt lat="43.53408" lon="5.57385">
        <ele>770</ele>
        <time>2022-02-15T11:54:13.000Z</time>
      </trkpt>
      <trkpt lat="43.53408" lon="5.57385">
        <ele>770</ele>
        <time>2022-02-15T11:54:14.000Z</time>
      </trkpt>
      <trkpt lat="43.53408" lon="5.57384">
        <ele>769</ele>
        <time>2022-02-15T11:54:15.000Z</time>
      </trkpt>
      <trkpt lat="43.53409" lon="5.57383">
        <ele>769</ele>
        <time>2022-02-15T11:54:16.000Z</time>
      </trkpt>
      <trkpt lat="43.53409" lon="5.57383">
        <ele>769</ele>
        <time>2022-02-15T11:54:17.000Z</time>
      </trkpt>
      <trkpt lat="43.5341" lon="5.57382">
        <ele>769</ele>
        <time>2022-02-15T11:54:18.000Z</time>
      </trkpt>
      <trkpt lat="43.5341" lon="5.57382">
        <ele>769</ele>
        <time>2022-02-15T11:54:19.000Z</time>
      </trkpt>
      <trkpt lat="43.53411" lon="5.57381">
        <ele>768</ele>
        <time>2022-02-15T11:54:20.000Z</time>
      </trkpt>
      <trkpt lat="43.53411" lon="5.57381">
        <ele>768</ele>
        <time>2022-02-15T11:54:21.000Z</time>
      </trkpt>
      <trkpt lat="43.53412" lon="5.5738">
        <ele>768</ele>
        <time>2022-02-15T11:54:22.000Z</time>
      </trkpt>
      <trkpt lat="43.53413" lon="5.5738">
        <ele>768</ele>
        <time>2022-02-15T11:54:23.000Z</time>
      </trkpt>
      <trkpt lat="43.53414" lon="5.57379">
        <ele>768</ele>
        <time>2022-02-15T11:54:24.000Z</time>
      </trkpt>
      <trkpt lat="43.53415" lon="5.57379">
        <ele>768</ele>
        <time>2022-02-15T11:54:25.000Z</time>
      </trkpt>
      <trkpt lat="43.53415" lon="5.57378">
        <ele>768</ele>
        <time>2022-02-15T11:54:26.000Z</time>
      </trkpt>
      <trkpt lat="43.53415" lon="5.57378">
        <ele>768</ele>
        <time>2022-02-15T11:54:27.000Z</time>
      </trkpt>
      <trkpt lat="43.53415" lon="5.57377">
        <ele>768</ele>
        <time>2022-02-15T11:54:28.000Z</time>
      </trkpt>
      <trkpt lat="43.53415" lon="5.57376">
        <ele>767</ele>
        <time>2022-02-15T11:54:29.000Z</time>
      </trkpt>
      <trkpt lat="43.53415" lon="5.57375">
        <ele>767</ele>
        <time>2022-02-15T11:54:30.000Z</time>
      </trkpt>
      <trkpt lat="43.53416" lon="5.57374">
        <ele>767</ele>
        <time>2022-02-15T11:54:31.000Z</time>
      </trkpt>
      <trkpt lat="43.53416" lon="5.57373">
        <ele>767</ele>
        <time>2022-02-15T11:54:32.000Z</time>
      </trkpt>
      <trkpt lat="43.53416" lon="5.57372">
        <ele>767</ele>
        <time>2022-02-15T11:54:33.000Z</time>
      </trkpt>
      <trkpt lat="43.53417" lon="5.57371">
        <ele>767</ele>
        <time>2022-02-15T11:54:34.000Z</time>
      </trkpt>
      <trkpt lat="43.53418" lon="5.57371">
        <ele>766</ele>
        <time>2022-02-15T11:54:35.000Z</time>
      </trkpt>
      <trkpt lat="43.53419" lon="5.57372">
        <ele>766</ele>
        <time>2022-02-15T11:54:36.000Z</time>
      </trkpt>
      <trkpt lat="43.5342" lon="5.57372">
        <ele>766</ele>
        <time>2022-02-15T11:54:37.000Z</time>
      </trkpt>
      <trkpt lat="43.53421" lon="5.57372">
        <ele>766</ele>
        <time>2022-02-15T11:54:38.000Z</time>
      </trkpt>
      <trkpt lat="43.53421" lon="5.57372">
        <ele>766</ele>
        <time>2022-02-15T11:54:39.000Z</time>
      </trkpt>
      <trkpt lat="43.53421" lon="5.57371">
        <ele>765</ele>
        <time>2022-02-15T11:54:40.000Z</time>
      </trkpt>
      <trkpt lat="43.53422" lon="5.57371">
        <ele>765</ele>
        <time>2022-02-15T11:54:41.000Z</time>
      </trkpt>
      <trkpt lat="43.53422" lon="5.57371">
        <ele>765</ele>
        <time>2022-02-15T11:54:42.000Z</time>
      </trkpt>
      <trkpt lat="43.53422" lon="5.5737">
        <ele>765</ele>
        <time>2022-02-15T11:54:43.000Z</time>
      </trkpt>
      <trkpt lat="43.53422" lon="5.5737">
        <ele>765</ele>
        <time>2022-02-15T11:54:44.000Z</time>
      </trkpt>
      <trkpt lat="43.53423" lon="5.57369">
        <ele>765</ele>
        <time>2022-02-15T11:54:45.000Z</time>
      </trkpt>
      <trkpt lat="43.53424" lon="5.57369">
        <ele>765</ele>
        <time>2022-02-15T11:54:46.000Z</time>
      </trkpt>
      <trkpt lat="43.53425" lon="5.57369">
        <ele>765</ele>
        <time>2022-02-15T11:54:47.000Z</time>
      </trkpt>
      <trkpt lat="43.53425" lon="5.57368">
        <ele>764</ele>
        <time>2022-02-15T11:54:48.000Z</time>
      </trkpt>
      <trkpt lat="43.53426" lon="5.57367">
        <ele>764</ele>
        <time>2022-02-15T11:54:49.000Z</time>
      </trkpt>
      <trkpt lat="43.53426" lon="5.57367">
        <ele>764</ele>
        <time>2022-02-15T11:54:50.000Z</time>
      </trkpt>
      <trkpt lat="43.53426" lon="5.57366">
        <ele>764</ele>
        <time>2022-02-15T11:54:51.000Z</time>
      </trkpt>
      <trkpt lat="43.53427" lon="5.57364">
        <ele>763</ele>
        <time>2022-02-15T11:54:52.000Z</time>
      </trkpt>
      <trkpt lat="43.53428" lon="5.57363">
        <ele>763</ele>
        <time>2022-02-15T11:54:53.000Z</time>
      </trkpt>
      <trkpt lat="43.53429" lon="5.57363">
        <ele>763</ele>
        <time>2022-02-15T11:54:54.000Z</time>
      </trkpt>
      <trkpt lat="43.53429" lon="5.57363">
        <ele>763</ele>
        <time>2022-02-15T11:54:55.000Z</time>
      </trkpt>
      <trkpt lat="43.5343" lon="5.57363">
        <ele>763</ele>
        <time>2022-02-15T11:54:56.000Z</time>
      </trkpt>
      <trkpt lat="43.53431" lon="5.57363">
        <ele>763</ele>
        <time>2022-02-15T11:54:57.000Z</time>
      </trkpt>
      <trkpt lat="43.53432" lon="5.57363">
        <ele>762</ele>
        <time>2022-02-15T11:54:58.000Z</time>
      </trkpt>
      <trkpt lat="43.53433" lon="5.57363">
        <ele>762</ele>
        <time>2022-02-15T11:54:59.000Z</time>
      </trkpt>
      <trkpt lat="43.53433" lon="5.57363">
        <ele>762</ele>
        <time>2022-02-15T11:55:00.000Z</time>
      </trkpt>
      <trkpt lat="43.53434" lon="5.57363">
        <ele>762</ele>
        <time>2022-02-15T11:55:01.000Z</time>
      </trkpt>
      <trkpt lat="43.53435" lon="5.57363">
        <ele>762</ele>
        <time>2022-02-15T11:55:02.000Z</time>
      </trkpt>
      <trkpt lat="43.53436" lon="5.57362">
        <ele>761</ele>
        <time>2022-02-15T11:55:03.000Z</time>
      </trkpt>
      <trkpt lat="43.53437" lon="5.57362">
        <ele>761</ele>
        <time>2022-02-15T11:55:04.000Z</time>
      </trkpt>
      <trkpt lat="43.53437" lon="5.57362">
        <ele>761</ele>
        <time>2022-02-15T11:55:05.000Z</time>
      </trkpt>
      <trkpt lat="43.53438" lon="5.57362">
        <ele>761</ele>
        <time>2022-02-15T11:55:06.000Z</time>
      </trkpt>
      <trkpt lat="43.53439" lon="5.57361">
        <ele>761</ele>
        <time>2022-02-15T11:55:07.000Z</time>
      </trkpt>
      <trkpt lat="43.53439" lon="5.57361">
        <ele>760</ele>
        <time>2022-02-15T11:55:08.000Z</time>
      </trkpt>
      <trkpt lat="43.53439" lon="5.57361">
        <ele>760</ele>
        <time>2022-02-15T11:55:09.000Z</time>
      </trkpt>
      <trkpt lat="43.5344" lon="5.5736">
        <ele>760</ele>
        <time>2022-02-15T11:55:10.000Z</time>
      </trkpt>
      <trkpt lat="43.5344" lon="5.5736">
        <ele>759</ele>
        <time>2022-02-15T11:55:11.000Z</time>
      </trkpt>
      <trkpt lat="43.53441" lon="5.5736">
        <ele>759</ele>
        <time>2022-02-15T11:55:12.000Z</time>
      </trkpt>
      <trkpt lat="43.53441" lon="5.57359">
        <ele>759</ele>
        <time>2022-02-15T11:55:13.000Z</time>
      </trkpt>
      <trkpt lat="43.53441" lon="5.57358">
        <ele>759</ele>
        <time>2022-02-15T11:55:14.000Z</time>
      </trkpt>
      <trkpt lat="43.53442" lon="5.57357">
        <ele>758</ele>
        <time>2022-02-15T11:55:15.000Z</time>
      </trkpt>
      <trkpt lat="43.53442" lon="5.57357">
        <ele>758</ele>
        <time>2022-02-15T11:55:16.000Z</time>
      </trkpt>
      <trkpt lat="43.53443" lon="5.57356">
        <ele>758</ele>
        <time>2022-02-15T11:55:17.000Z</time>
      </trkpt>
      <trkpt lat="43.53443" lon="5.57356">
        <ele>758</ele>
        <time>2022-02-15T11:55:18.000Z</time>
      </trkpt>
      <trkpt lat="43.53444" lon="5.57355">
        <ele>758</ele>
        <time>2022-02-15T11:55:19.000Z</time>
      </trkpt>
      <trkpt lat="43.53445" lon="5.57355">
        <ele>758</ele>
        <time>2022-02-15T11:55:20.000Z</time>
      </trkpt>
      <trkpt lat="43.53445" lon="5.57355">
        <ele>757</ele>
        <time>2022-02-15T11:55:21.000Z</time>
      </trkpt>
      <trkpt lat="43.53446" lon="5.57355">
        <ele>757</ele>
        <time>2022-02-15T11:55:22.000Z</time>
      </trkpt>
      <trkpt lat="43.53447" lon="5.57355">
        <ele>757</ele>
        <time>2022-02-15T11:55:23.000Z</time>
      </trkpt>
      <trkpt lat="43.53447" lon="5.57355">
        <ele>757</ele>
        <time>2022-02-15T11:55:24.000Z</time>
      </trkpt>
      <trkpt lat="43.53448" lon="5.57354">
        <ele>757</ele>
        <time>2022-02-15T11:55:25.000Z</time>
      </trkpt>
      <trkpt lat="43.53448" lon="5.57354">
        <ele>757</ele>
        <time>2022-02-15T11:55:26.000Z</time>
      </trkpt>
      <trkpt lat="43.53449" lon="5.57354">
        <ele>757</ele>
        <time>2022-02-15T11:55:27.000Z</time>
      </trkpt>
      <trkpt lat="43.53449" lon="5.57353">
        <ele>757</ele>
        <time>2022-02-15T11:55:28.000Z</time>
      </trkpt>
      <trkpt lat="43.53449" lon="5.57352">
        <ele>757</ele>
        <time>2022-02-15T11:55:29.000Z</time>
      </trkpt>
      <trkpt lat="43.53449" lon="5.57352">
        <ele>756</ele>
        <time>2022-02-15T11:55:30.000Z</time>
      </trkpt>
      <trkpt lat="43.5345" lon="5.5735">
        <ele>756</ele>
        <time>2022-02-15T11:55:31.000Z</time>
      </trkpt>
      <trkpt lat="43.53451" lon="5.5735">
        <ele>756</ele>
        <time>2022-02-15T11:55:32.000Z</time>
      </trkpt>
      <trkpt lat="43.53452" lon="5.5735">
        <ele>756</ele>
        <time>2022-02-15T11:55:33.000Z</time>
      </trkpt>
      <trkpt lat="43.53452" lon="5.5735">
        <ele>756</ele>
        <time>2022-02-15T11:55:34.000Z</time>
      </trkpt>
      <trkpt lat="43.53453" lon="5.5735">
        <ele>756</ele>
        <time>2022-02-15T11:55:35.000Z</time>
      </trkpt>
      <trkpt lat="43.53454" lon="5.5735">
        <ele>756</ele>
        <time>2022-02-15T11:55:36.000Z</time>
      </trkpt>
      <trkpt lat="43.53454" lon="5.5735">
        <ele>755</ele>
        <time>2022-02-15T11:55:37.000Z</time>
      </trkpt>
      <trkpt lat="43.53455" lon="5.5735">
        <ele>755</ele>
        <time>2022-02-15T11:55:38.000Z</time>
      </trkpt>
      <trkpt lat="43.53455" lon="5.57351">
        <ele>755</ele>
        <time>2022-02-15T11:55:39.000Z</time>
      </trkpt>
      <trkpt lat="43.53456" lon="5.57351">
        <ele>755</ele>
        <time>2022-02-15T11:55:40.000Z</time>
      </trkpt>
      <trkpt lat="43.53456" lon="5.57351">
        <ele>755</ele>
        <time>2022-02-15T11:55:41.000Z</time>
      </trkpt>
      <trkpt lat="43.53457" lon="5.57351">
        <ele>755</ele>
        <time>2022-02-15T11:55:42.000Z</time>
      </trkpt>
      <trkpt lat="43.53457" lon="5.57351">
        <ele>755</ele>
        <time>2022-02-15T11:55:43.000Z</time>
      </trkpt>
      <trkpt lat="43.53457" lon="5.5735">
        <ele>755</ele>
        <time>2022-02-15T11:55:44.000Z</time>
      </trkpt>
      <trkpt lat="43.53457" lon="5.57349">
        <ele>755</ele>
        <time>2022-02-15T11:55:45.000Z</time>
      </trkpt>
      <trkpt lat="43.53457" lon="5.57349">
        <ele>755</ele>
        <time>2022-02-15T11:55:46.000Z</time>
      </trkpt>
      <trkpt lat="43.53457" lon="5.57349">
        <ele>755</ele>
        <time>2022-02-15T11:55:47.000Z</time>
      </trkpt>
      <trkpt lat="43.53457" lon="5.57349">
        <ele>754</ele>
        <time>2022-02-15T11:55:48.000Z</time>
      </trkpt>
      <trkpt lat="43.53457" lon="5.57349">
        <ele>754</ele>
        <time>2022-02-15T11:55:49.000Z</time>
      </trkpt>
      <trkpt lat="43.53457" lon="5.57349">
        <ele>754</ele>
        <time>2022-02-15T11:55:50.000Z</time>
      </trkpt>
      <trkpt lat="43.53457" lon="5.57349">
        <ele>754</ele>
        <time>2022-02-15T11:55:51.000Z</time>
      </trkpt>
      <trkpt lat="43.53457" lon="5.57349">
        <ele>754</ele>
        <time>2022-02-15T11:55:52.000Z</time>
      </trkpt>
      <trkpt lat="43.53457" lon="5.57348">
        <ele>754</ele>
        <time>2022-02-15T11:55:53.000Z</time>
      </trkpt>
      <trkpt lat="43.53457" lon="5.57347">
        <ele>754</ele>
        <time>2022-02-15T11:55:54.000Z</time>
      </trkpt>
      <trkpt lat="43.53457" lon="5.57346">
        <ele>754</ele>
        <time>2022-02-15T11:55:55.000Z</time>
      </trkpt>
      <trkpt lat="43.53458" lon="5.57345">
        <ele>754</ele>
        <time>2022-02-15T11:55:56.000Z</time>
      </trkpt>
      <trkpt lat="43.53459" lon="5.57345">
        <ele>754</ele>
        <time>2022-02-15T11:55:57.000Z</time>
      </trkpt>
      <trkpt lat="43.53459" lon="5.57344">
        <ele>754</ele>
        <time>2022-02-15T11:55:58.000Z</time>
      </trkpt>
      <trkpt lat="43.5346" lon="5.57344">
        <ele>754</ele>
        <time>2022-02-15T11:55:59.000Z</time>
      </trkpt>
      <trkpt lat="43.5346" lon="5.57344">
        <ele>753</ele>
        <time>2022-02-15T11:56:00.000Z</time>
      </trkpt>
      <trkpt lat="43.53461" lon="5.57343">
        <ele>753</ele>
        <time>2022-02-15T11:56:01.000Z</time>
      </trkpt>
      <trkpt lat="43.53461" lon="5.57342">
        <ele>753</ele>
        <time>2022-02-15T11:56:02.000Z</time>
      </trkpt>
      <trkpt lat="43.53462" lon="5.57341">
        <ele>753</ele>
        <time>2022-02-15T11:56:03.000Z</time>
      </trkpt>
      <trkpt lat="43.53462" lon="5.5734">
        <ele>753</ele>
        <time>2022-02-15T11:56:04.000Z</time>
      </trkpt>
      <trkpt lat="43.53463" lon="5.5734">
        <ele>753</ele>
        <time>2022-02-15T11:56:05.000Z</time>
      </trkpt>
      <trkpt lat="43.53464" lon="5.5734">
        <ele>753</ele>
        <time>2022-02-15T11:56:06.000Z</time>
      </trkpt>
      <trkpt lat="43.53465" lon="5.57339">
        <ele>752</ele>
        <time>2022-02-15T11:56:07.000Z</time>
      </trkpt>
      <trkpt lat="43.53465" lon="5.57339">
        <ele>752</ele>
        <time>2022-02-15T11:56:08.000Z</time>
      </trkpt>
      <trkpt lat="43.53465" lon="5.57338">
        <ele>752</ele>
        <time>2022-02-15T11:56:09.000Z</time>
      </trkpt>
      <trkpt lat="43.53465" lon="5.57338">
        <ele>752</ele>
        <time>2022-02-15T11:56:10.000Z</time>
      </trkpt>
      <trkpt lat="43.53465" lon="5.57337">
        <ele>752</ele>
        <time>2022-02-15T11:56:11.000Z</time>
      </trkpt>
      <trkpt lat="43.53466" lon="5.57335">
        <ele>752</ele>
        <time>2022-02-15T11:56:12.000Z</time>
      </trkpt>
      <trkpt lat="43.53467" lon="5.57335">
        <ele>752</ele>
        <time>2022-02-15T11:56:13.000Z</time>
      </trkpt>
      <trkpt lat="43.53468" lon="5.57335">
        <ele>752</ele>
        <time>2022-02-15T11:56:14.000Z</time>
      </trkpt>
      <trkpt lat="43.53468" lon="5.57334">
        <ele>751</ele>
        <time>2022-02-15T11:56:15.000Z</time>
      </trkpt>
      <trkpt lat="43.53469" lon="5.57334">
        <ele>751</ele>
        <time>2022-02-15T11:56:16.000Z</time>
      </trkpt>
      <trkpt lat="43.5347" lon="5.57333">
        <ele>751</ele>
        <time>2022-02-15T11:56:17.000Z</time>
      </trkpt>
      <trkpt lat="43.5347" lon="5.57333">
        <ele>751</ele>
        <time>2022-02-15T11:56:18.000Z</time>
      </trkpt>
      <trkpt lat="43.5347" lon="5.57332">
        <ele>751</ele>
        <time>2022-02-15T11:56:19.000Z</time>
      </trkpt>
      <trkpt lat="43.5347" lon="5.57331">
        <ele>751</ele>
        <time>2022-02-15T11:56:20.000Z</time>
      </trkpt>
      <trkpt lat="43.5347" lon="5.5733">
        <ele>751</ele>
        <time>2022-02-15T11:56:21.000Z</time>
      </trkpt>
      <trkpt lat="43.5347" lon="5.57329">
        <ele>751</ele>
        <time>2022-02-15T11:56:22.000Z</time>
      </trkpt>
      <trkpt lat="43.53471" lon="5.57328">
        <ele>751</ele>
        <time>2022-02-15T11:56:23.000Z</time>
      </trkpt>
      <trkpt lat="43.53471" lon="5.57327">
        <ele>750</ele>
        <time>2022-02-15T11:56:24.000Z</time>
      </trkpt>
      <trkpt lat="43.53472" lon="5.57327">
        <ele>750</ele>
        <time>2022-02-15T11:56:25.000Z</time>
      </trkpt>
      <trkpt lat="43.53473" lon="5.57326">
        <ele>750</ele>
        <time>2022-02-15T11:56:26.000Z</time>
      </trkpt>
      <trkpt lat="43.53473" lon="5.57326">
        <ele>750</ele>
        <time>2022-02-15T11:56:27.000Z</time>
      </trkpt>
      <trkpt lat="43.53473" lon="5.57325">
        <ele>750</ele>
        <time>2022-02-15T11:56:28.000Z</time>
      </trkpt>
      <trkpt lat="43.53474" lon="5.57324">
        <ele>749</ele>
        <time>2022-02-15T11:56:29.000Z</time>
      </trkpt>
      <trkpt lat="43.53475" lon="5.57324">
        <ele>749</ele>
        <time>2022-02-15T11:56:30.000Z</time>
      </trkpt>
      <trkpt lat="43.53475" lon="5.57323">
        <ele>749</ele>
        <time>2022-02-15T11:56:31.000Z</time>
      </trkpt>
      <trkpt lat="43.53475" lon="5.57322">
        <ele>749</ele>
        <time>2022-02-15T11:56:32.000Z</time>
      </trkpt>
      <trkpt lat="43.53476" lon="5.57322">
        <ele>749</ele>
        <time>2022-02-15T11:56:33.000Z</time>
      </trkpt>
      <trkpt lat="43.53476" lon="5.57321">
        <ele>749</ele>
        <time>2022-02-15T11:56:34.000Z</time>
      </trkpt>
      <trkpt lat="43.53476" lon="5.57321">
        <ele>748</ele>
        <time>2022-02-15T11:56:35.000Z</time>
      </trkpt>
      <trkpt lat="43.53477" lon="5.5732">
        <ele>748</ele>
        <time>2022-02-15T11:56:36.000Z</time>
      </trkpt>
      <trkpt lat="43.53477" lon="5.5732">
        <ele>748</ele>
        <time>2022-02-15T11:56:37.000Z</time>
      </trkpt>
      <trkpt lat="43.53478" lon="5.57319">
        <ele>748</ele>
        <time>2022-02-15T11:56:38.000Z</time>
      </trkpt>
      <trkpt lat="43.53479" lon="5.57319">
        <ele>747</ele>
        <time>2022-02-15T11:56:39.000Z</time>
      </trkpt>
      <trkpt lat="43.53479" lon="5.57319">
        <ele>747</ele>
        <time>2022-02-15T11:56:40.000Z</time>
      </trkpt>
      <trkpt lat="43.5348" lon="5.57318">
        <ele>747</ele>
        <time>2022-02-15T11:56:41.000Z</time>
      </trkpt>
      <trkpt lat="43.5348" lon="5.57318">
        <ele>747</ele>
        <time>2022-02-15T11:56:42.000Z</time>
      </trkpt>
      <trkpt lat="43.53481" lon="5.57318">
        <ele>747</ele>
        <time>2022-02-15T11:56:43.000Z</time>
      </trkpt>
      <trkpt lat="43.53482" lon="5.57318">
        <ele>747</ele>
        <time>2022-02-15T11:56:44.000Z</time>
      </trkpt>
      <trkpt lat="43.53483" lon="5.57317">
        <ele>747</ele>
        <time>2022-02-15T11:56:45.000Z</time>
      </trkpt>
      <trkpt lat="43.53483" lon="5.57317">
        <ele>746</ele>
        <time>2022-02-15T11:56:46.000Z</time>
      </trkpt>
      <trkpt lat="43.53484" lon="5.57318">
        <ele>746</ele>
        <time>2022-02-15T11:56:47.000Z</time>
      </trkpt>
      <trkpt lat="43.53485" lon="5.57318">
        <ele>746</ele>
        <time>2022-02-15T11:56:48.000Z</time>
      </trkpt>
      <trkpt lat="43.53485" lon="5.57317">
        <ele>746</ele>
        <time>2022-02-15T11:56:49.000Z</time>
      </trkpt>
      <trkpt lat="43.53485" lon="5.57317">
        <ele>746</ele>
        <time>2022-02-15T11:56:50.000Z</time>
      </trkpt>
      <trkpt lat="43.53486" lon="5.57316">
        <ele>746</ele>
        <time>2022-02-15T11:56:51.000Z</time>
      </trkpt>
      <trkpt lat="43.53486" lon="5.57314">
        <ele>746</ele>
        <time>2022-02-15T11:56:52.000Z</time>
      </trkpt>
      <trkpt lat="43.53486" lon="5.57314">
        <ele>746</ele>
        <time>2022-02-15T11:56:53.000Z</time>
      </trkpt>
      <trkpt lat="43.53486" lon="5.57313">
        <ele>746</ele>
        <time>2022-02-15T11:56:54.000Z</time>
      </trkpt>
      <trkpt lat="43.53487" lon="5.57312">
        <ele>746</ele>
        <time>2022-02-15T11:56:55.000Z</time>
      </trkpt>
      <trkpt lat="43.53487" lon="5.57312">
        <ele>746</ele>
        <time>2022-02-15T11:56:56.000Z</time>
      </trkpt>
      <trkpt lat="43.53488" lon="5.57312">
        <ele>745</ele>
        <time>2022-02-15T11:56:57.000Z</time>
      </trkpt>
      <trkpt lat="43.53489" lon="5.57313">
        <ele>745</ele>
        <time>2022-02-15T11:56:58.000Z</time>
      </trkpt>
      <trkpt lat="43.5349" lon="5.57313">
        <ele>745</ele>
        <time>2022-02-15T11:56:59.000Z</time>
      </trkpt>
      <trkpt lat="43.53491" lon="5.57313">
        <ele>745</ele>
        <time>2022-02-15T11:57:00.000Z</time>
      </trkpt>
      <trkpt lat="43.53492" lon="5.57314">
        <ele>745</ele>
        <time>2022-02-15T11:57:01.000Z</time>
      </trkpt>
      <trkpt lat="43.53492" lon="5.57314">
        <ele>745</ele>
        <time>2022-02-15T11:57:02.000Z</time>
      </trkpt>
      <trkpt lat="43.53492" lon="5.57314">
        <ele>745</ele>
        <time>2022-02-15T11:57:03.000Z</time>
      </trkpt>
      <trkpt lat="43.53492" lon="5.57314">
        <ele>744</ele>
        <time>2022-02-15T11:57:04.000Z</time>
      </trkpt>
      <trkpt lat="43.53493" lon="5.57314">
        <ele>744</ele>
        <time>2022-02-15T11:57:05.000Z</time>
      </trkpt>
      <trkpt lat="43.53494" lon="5.57314">
        <ele>744</ele>
        <time>2022-02-15T11:57:06.000Z</time>
      </trkpt>
      <trkpt lat="43.53494" lon="5.57314">
        <ele>744</ele>
        <time>2022-02-15T11:57:07.000Z</time>
      </trkpt>
      <trkpt lat="43.53495" lon="5.57314">
        <ele>744</ele>
        <time>2022-02-15T11:57:08.000Z</time>
      </trkpt>
      <trkpt lat="43.53496" lon="5.57313">
        <ele>744</ele>
        <time>2022-02-15T11:57:09.000Z</time>
      </trkpt>
      <trkpt lat="43.53497" lon="5.57313">
        <ele>744</ele>
        <time>2022-02-15T11:57:10.000Z</time>
      </trkpt>
      <trkpt lat="43.53498" lon="5.57312">
        <ele>743</ele>
        <time>2022-02-15T11:57:11.000Z</time>
      </trkpt>
      <trkpt lat="43.53499" lon="5.57312">
        <ele>743</ele>
        <time>2022-02-15T11:57:12.000Z</time>
      </trkpt>
      <trkpt lat="43.535" lon="5.57312">
        <ele>743</ele>
        <time>2022-02-15T11:57:13.000Z</time>
      </trkpt>
      <trkpt lat="43.535" lon="5.57313">
        <ele>743</ele>
        <time>2022-02-15T11:57:14.000Z</time>
      </trkpt>
      <trkpt lat="43.53501" lon="5.57312">
        <ele>743</ele>
        <time>2022-02-15T11:57:15.000Z</time>
      </trkpt>
      <trkpt lat="43.53501" lon="5.57312">
        <ele>743</ele>
        <time>2022-02-15T11:57:16.000Z</time>
      </trkpt>
      <trkpt lat="43.53502" lon="5.57311">
        <ele>743</ele>
        <time>2022-02-15T11:57:17.000Z</time>
      </trkpt>
      <trkpt lat="43.53502" lon="5.5731">
        <ele>743</ele>
        <time>2022-02-15T11:57:18.000Z</time>
      </trkpt>
      <trkpt lat="43.53502" lon="5.57309">
        <ele>742</ele>
        <time>2022-02-15T11:57:19.000Z</time>
      </trkpt>
      <trkpt lat="43.53502" lon="5.57309">
        <ele>742</ele>
        <time>2022-02-15T11:57:20.000Z</time>
      </trkpt>
      <trkpt lat="43.53503" lon="5.57308">
        <ele>742</ele>
        <time>2022-02-15T11:57:21.000Z</time>
      </trkpt>
      <trkpt lat="43.53503" lon="5.57307">
        <ele>742</ele>
        <time>2022-02-15T11:57:22.000Z</time>
      </trkpt>
      <trkpt lat="43.53504" lon="5.57306">
        <ele>742</ele>
        <time>2022-02-15T11:57:23.000Z</time>
      </trkpt>
      <trkpt lat="43.53505" lon="5.57305">
        <ele>741</ele>
        <time>2022-02-15T11:57:24.000Z</time>
      </trkpt>
      <trkpt lat="43.53505" lon="5.57305">
        <ele>741</ele>
        <time>2022-02-15T11:57:25.000Z</time>
      </trkpt>
      <trkpt lat="43.53506" lon="5.57304">
        <ele>741</ele>
        <time>2022-02-15T11:57:26.000Z</time>
      </trkpt>
      <trkpt lat="43.53506" lon="5.57302">
        <ele>741</ele>
        <time>2022-02-15T11:57:27.000Z</time>
      </trkpt>
      <trkpt lat="43.53506" lon="5.57301">
        <ele>741</ele>
        <time>2022-02-15T11:57:28.000Z</time>
      </trkpt>
      <trkpt lat="43.53506" lon="5.573">
        <ele>740</ele>
        <time>2022-02-15T11:57:29.000Z</time>
      </trkpt>
      <trkpt lat="43.53507" lon="5.573">
        <ele>740</ele>
        <time>2022-02-15T11:57:30.000Z</time>
      </trkpt>
      <trkpt lat="43.53507" lon="5.57299">
        <ele>740</ele>
        <time>2022-02-15T11:57:31.000Z</time>
      </trkpt>
      <trkpt lat="43.53508" lon="5.57298">
        <ele>740</ele>
        <time>2022-02-15T11:57:32.000Z</time>
      </trkpt>
      <trkpt lat="43.53509" lon="5.57298">
        <ele>740</ele>
        <time>2022-02-15T11:57:33.000Z</time>
      </trkpt>
      <trkpt lat="43.5351" lon="5.57298">
        <ele>740</ele>
        <time>2022-02-15T11:57:34.000Z</time>
      </trkpt>
      <trkpt lat="43.5351" lon="5.57298">
        <ele>740</ele>
        <time>2022-02-15T11:57:35.000Z</time>
      </trkpt>
      <trkpt lat="43.53511" lon="5.57298">
        <ele>739</ele>
        <time>2022-02-15T11:57:36.000Z</time>
      </trkpt>
      <trkpt lat="43.53512" lon="5.57297">
        <ele>739</ele>
        <time>2022-02-15T11:57:37.000Z</time>
      </trkpt>
      <trkpt lat="43.53512" lon="5.57297">
        <ele>739</ele>
        <time>2022-02-15T11:57:38.000Z</time>
      </trkpt>
      <trkpt lat="43.53513" lon="5.57296">
        <ele>739</ele>
        <time>2022-02-15T11:57:39.000Z</time>
      </trkpt>
      <trkpt lat="43.53513" lon="5.57296">
        <ele>739</ele>
        <time>2022-02-15T11:57:40.000Z</time>
      </trkpt>
      <trkpt lat="43.53513" lon="5.57295">
        <ele>739</ele>
        <time>2022-02-15T11:57:41.000Z</time>
      </trkpt>
      <trkpt lat="43.53514" lon="5.57294">
        <ele>739</ele>
        <time>2022-02-15T11:57:42.000Z</time>
      </trkpt>
      <trkpt lat="43.53514" lon="5.57293">
        <ele>739</ele>
        <time>2022-02-15T11:57:43.000Z</time>
      </trkpt>
      <trkpt lat="43.53514" lon="5.57292">
        <ele>738</ele>
        <time>2022-02-15T11:57:44.000Z</time>
      </trkpt>
      <trkpt lat="43.53515" lon="5.57291">
        <ele>738</ele>
        <time>2022-02-15T11:57:45.000Z</time>
      </trkpt>
      <trkpt lat="43.53515" lon="5.57291">
        <ele>738</ele>
        <time>2022-02-15T11:57:46.000Z</time>
      </trkpt>
      <trkpt lat="43.53515" lon="5.5729">
        <ele>738</ele>
        <time>2022-02-15T11:57:47.000Z</time>
      </trkpt>
      <trkpt lat="43.53516" lon="5.57289">
        <ele>738</ele>
        <time>2022-02-15T11:57:48.000Z</time>
      </trkpt>
      <trkpt lat="43.53516" lon="5.57288">
        <ele>737</ele>
        <time>2022-02-15T11:57:49.000Z</time>
      </trkpt>
      <trkpt lat="43.53516" lon="5.57286">
        <ele>737</ele>
        <time>2022-02-15T11:57:50.000Z</time>
      </trkpt>
      <trkpt lat="43.53517" lon="5.57286">
        <ele>737</ele>
        <time>2022-02-15T11:57:51.000Z</time>
      </trkpt>
      <trkpt lat="43.53518" lon="5.57285">
        <ele>737</ele>
        <time>2022-02-15T11:57:52.000Z</time>
      </trkpt>
      <trkpt lat="43.53518" lon="5.57286">
        <ele>737</ele>
        <time>2022-02-15T11:57:53.000Z</time>
      </trkpt>
      <trkpt lat="43.53519" lon="5.57285">
        <ele>737</ele>
        <time>2022-02-15T11:57:54.000Z</time>
      </trkpt>
      <trkpt lat="43.53519" lon="5.57284">
        <ele>736</ele>
        <time>2022-02-15T11:57:55.000Z</time>
      </trkpt>
      <trkpt lat="43.53519" lon="5.57284">
        <ele>736</ele>
        <time>2022-02-15T11:57:56.000Z</time>
      </trkpt>
      <trkpt lat="43.53519" lon="5.57283">
        <ele>736</ele>
        <time>2022-02-15T11:57:57.000Z</time>
      </trkpt>
      <trkpt lat="43.5352" lon="5.57282">
        <ele>736</ele>
        <time>2022-02-15T11:57:58.000Z</time>
      </trkpt>
      <trkpt lat="43.5352" lon="5.57281">
        <ele>736</ele>
        <time>2022-02-15T11:57:59.000Z</time>
      </trkpt>
      <trkpt lat="43.5352" lon="5.5728">
        <ele>736</ele>
        <time>2022-02-15T11:58:00.000Z</time>
      </trkpt>
      <trkpt lat="43.53521" lon="5.57279">
        <ele>735</ele>
        <time>2022-02-15T11:58:01.000Z</time>
      </trkpt>
      <trkpt lat="43.53521" lon="5.57278">
        <ele>735</ele>
        <time>2022-02-15T11:58:02.000Z</time>
      </trkpt>
      <trkpt lat="43.53522" lon="5.57278">
        <ele>735</ele>
        <time>2022-02-15T11:58:03.000Z</time>
      </trkpt>
      <trkpt lat="43.53522" lon="5.57277">
        <ele>735</ele>
        <time>2022-02-15T11:58:04.000Z</time>
      </trkpt>
      <trkpt lat="43.53523" lon="5.57277">
        <ele>735</ele>
        <time>2022-02-15T11:58:05.000Z</time>
      </trkpt>
      <trkpt lat="43.53524" lon="5.57276">
        <ele>735</ele>
        <time>2022-02-15T11:58:06.000Z</time>
      </trkpt>
      <trkpt lat="43.53524" lon="5.57276">
        <ele>735</ele>
        <time>2022-02-15T11:58:07.000Z</time>
      </trkpt>
      <trkpt lat="43.53525" lon="5.57276">
        <ele>734</ele>
        <time>2022-02-15T11:58:08.000Z</time>
      </trkpt>
      <trkpt lat="43.53526" lon="5.57276">
        <ele>734</ele>
        <time>2022-02-15T11:58:09.000Z</time>
      </trkpt>
      <trkpt lat="43.53526" lon="5.57276">
        <ele>734</ele>
        <time>2022-02-15T11:58:10.000Z</time>
      </trkpt>
      <trkpt lat="43.53527" lon="5.57275">
        <ele>734</ele>
        <time>2022-02-15T11:58:11.000Z</time>
      </trkpt>
      <trkpt lat="43.53527" lon="5.57275">
        <ele>734</ele>
        <time>2022-02-15T11:58:12.000Z</time>
      </trkpt>
      <trkpt lat="43.53528" lon="5.57274">
        <ele>734</ele>
        <time>2022-02-15T11:58:13.000Z</time>
      </trkpt>
      <trkpt lat="43.53528" lon="5.57272">
        <ele>734</ele>
        <time>2022-02-15T11:58:14.000Z</time>
      </trkpt>
      <trkpt lat="43.53528" lon="5.57272">
        <ele>733</ele>
        <time>2022-02-15T11:58:15.000Z</time>
      </trkpt>
      <trkpt lat="43.53528" lon="5.57271">
        <ele>733</ele>
        <time>2022-02-15T11:58:16.000Z</time>
      </trkpt>
      <trkpt lat="43.53529" lon="5.5727">
        <ele>733</ele>
        <time>2022-02-15T11:58:17.000Z</time>
      </trkpt>
      <trkpt lat="43.53529" lon="5.57269">
        <ele>733</ele>
        <time>2022-02-15T11:58:18.000Z</time>
      </trkpt>
      <trkpt lat="43.53529" lon="5.57268">
        <ele>733</ele>
        <time>2022-02-15T11:58:19.000Z</time>
      </trkpt>
      <trkpt lat="43.5353" lon="5.57267">
        <ele>733</ele>
        <time>2022-02-15T11:58:20.000Z</time>
      </trkpt>
      <trkpt lat="43.5353" lon="5.57267">
        <ele>732</ele>
        <time>2022-02-15T11:58:21.000Z</time>
      </trkpt>
      <trkpt lat="43.53531" lon="5.57266">
        <ele>732</ele>
        <time>2022-02-15T11:58:22.000Z</time>
      </trkpt>
      <trkpt lat="43.53531" lon="5.57266">
        <ele>732</ele>
        <time>2022-02-15T11:58:23.000Z</time>
      </trkpt>
      <trkpt lat="43.53532" lon="5.57264">
        <ele>732</ele>
        <time>2022-02-15T11:58:24.000Z</time>
      </trkpt>
      <trkpt lat="43.53532" lon="5.57263">
        <ele>732</ele>
        <time>2022-02-15T11:58:25.000Z</time>
      </trkpt>
      <trkpt lat="43.53533" lon="5.57263">
        <ele>732</ele>
        <time>2022-02-15T11:58:26.000Z</time>
      </trkpt>
      <trkpt lat="43.53533" lon="5.57262">
        <ele>732</ele>
        <time>2022-02-15T11:58:27.000Z</time>
      </trkpt>
      <trkpt lat="43.53534" lon="5.57261">
        <ele>731</ele>
        <time>2022-02-15T11:58:28.000Z</time>
      </trkpt>
      <trkpt lat="43.53535" lon="5.5726">
        <ele>731</ele>
        <time>2022-02-15T11:58:29.000Z</time>
      </trkpt>
      <trkpt lat="43.53535" lon="5.57259">
        <ele>731</ele>
        <time>2022-02-15T11:58:30.000Z</time>
      </trkpt>
      <trkpt lat="43.53536" lon="5.57258">
        <ele>731</ele>
        <time>2022-02-15T11:58:31.000Z</time>
      </trkpt>
      <trkpt lat="43.53537" lon="5.57257">
        <ele>731</ele>
        <time>2022-02-15T11:58:32.000Z</time>
      </trkpt>
      <trkpt lat="43.53538" lon="5.57256">
        <ele>731</ele>
        <time>2022-02-15T11:58:33.000Z</time>
      </trkpt>
      <trkpt lat="43.53538" lon="5.57256">
        <ele>731</ele>
        <time>2022-02-15T11:58:34.000Z</time>
      </trkpt>
      <trkpt lat="43.53538" lon="5.57255">
        <ele>730</ele>
        <time>2022-02-15T11:58:35.000Z</time>
      </trkpt>
      <trkpt lat="43.53539" lon="5.57254">
        <ele>730</ele>
        <time>2022-02-15T11:58:36.000Z</time>
      </trkpt>
      <trkpt lat="43.53539" lon="5.57254">
        <ele>730</ele>
        <time>2022-02-15T11:58:37.000Z</time>
      </trkpt>
      <trkpt lat="43.5354" lon="5.57253">
        <ele>730</ele>
        <time>2022-02-15T11:58:38.000Z</time>
      </trkpt>
      <trkpt lat="43.53541" lon="5.57253">
        <ele>730</ele>
        <time>2022-02-15T11:58:39.000Z</time>
      </trkpt>
      <trkpt lat="43.53542" lon="5.57253">
        <ele>730</ele>
        <time>2022-02-15T11:58:40.000Z</time>
      </trkpt>
      <trkpt lat="43.53543" lon="5.57252">
        <ele>729</ele>
        <time>2022-02-15T11:58:41.000Z</time>
      </trkpt>
      <trkpt lat="43.53544" lon="5.57252">
        <ele>729</ele>
        <time>2022-02-15T11:58:42.000Z</time>
      </trkpt>
      <trkpt lat="43.53544" lon="5.57251">
        <ele>729</ele>
        <time>2022-02-15T11:58:43.000Z</time>
      </trkpt>
      <trkpt lat="43.53545" lon="5.5725">
        <ele>729</ele>
        <time>2022-02-15T11:58:44.000Z</time>
      </trkpt>
      <trkpt lat="43.53545" lon="5.5725">
        <ele>729</ele>
        <time>2022-02-15T11:58:45.000Z</time>
      </trkpt>
      <trkpt lat="43.53545" lon="5.5725">
        <ele>729</ele>
        <time>2022-02-15T11:58:46.000Z</time>
      </trkpt>
      <trkpt lat="43.53546" lon="5.5725">
        <ele>729</ele>
        <time>2022-02-15T11:58:47.000Z</time>
      </trkpt>
      <trkpt lat="43.53546" lon="5.5725">
        <ele>729</ele>
        <time>2022-02-15T11:58:48.000Z</time>
      </trkpt>
      <trkpt lat="43.53546" lon="5.5725">
        <ele>729</ele>
        <time>2022-02-15T11:58:49.000Z</time>
      </trkpt>
      <trkpt lat="43.53546" lon="5.5725">
        <ele>728</ele>
        <time>2022-02-15T11:58:50.000Z</time>
      </trkpt>
      <trkpt lat="43.53546" lon="5.5725">
        <ele>728</ele>
        <time>2022-02-15T11:58:51.000Z</time>
      </trkpt>
      <trkpt lat="43.53546" lon="5.5725">
        <ele>728</ele>
        <time>2022-02-15T11:58:52.000Z</time>
      </trkpt>
      <trkpt lat="43.53546" lon="5.5725">
        <ele>728</ele>
        <time>2022-02-15T11:58:53.000Z</time>
      </trkpt>
      <trkpt lat="43.53546" lon="5.5725">
        <ele>728</ele>
        <time>2022-02-15T11:58:54.000Z</time>
      </trkpt>
      <trkpt lat="43.53546" lon="5.5725">
        <ele>728</ele>
        <time>2022-02-15T11:58:55.000Z</time>
      </trkpt>
      <trkpt lat="43.53546" lon="5.5725">
        <ele>728</ele>
        <time>2022-02-15T11:58:56.000Z</time>
      </trkpt>
      <trkpt lat="43.53546" lon="5.5725">
        <ele>728</ele>
        <time>2022-02-15T11:58:57.000Z</time>
      </trkpt>
      <trkpt lat="43.53546" lon="5.5725">
        <ele>728</ele>
        <time>2022-02-15T11:58:58.000Z</time>
      </trkpt>
      <trkpt lat="43.53546" lon="5.5725">
        <ele>728</ele>
        <time>2022-02-15T11:58:59.000Z</time>
      </trkpt>
      <trkpt lat="43.53547" lon="5.57249">
        <ele>728</ele>
        <time>2022-02-15T11:59:00.000Z</time>
      </trkpt>
      <trkpt lat="43.53547" lon="5.57249">
        <ele>728</ele>
        <time>2022-02-15T11:59:01.000Z</time>
      </trkpt>
      <trkpt lat="43.53548" lon="5.57248">
        <ele>728</ele>
        <time>2022-02-15T11:59:02.000Z</time>
      </trkpt>
      <trkpt lat="43.53548" lon="5.57247">
        <ele>728</ele>
        <time>2022-02-15T11:59:03.000Z</time>
      </trkpt>
      <trkpt lat="43.53548" lon="5.57246">
        <ele>728</ele>
        <time>2022-02-15T11:59:04.000Z</time>
      </trkpt>
      <trkpt lat="43.53548" lon="5.57246">
        <ele>728</ele>
        <time>2022-02-15T11:59:05.000Z</time>
      </trkpt>
      <trkpt lat="43.53549" lon="5.57245">
        <ele>728</ele>
        <time>2022-02-15T11:59:06.000Z</time>
      </trkpt>
      <trkpt lat="43.5355" lon="5.57245">
        <ele>728</ele>
        <time>2022-02-15T11:59:07.000Z</time>
      </trkpt>
      <trkpt lat="43.53551" lon="5.57245">
        <ele>728</ele>
        <time>2022-02-15T11:59:08.000Z</time>
      </trkpt>
      <trkpt lat="43.53552" lon="5.57244">
        <ele>727</ele>
        <time>2022-02-15T11:59:09.000Z</time>
      </trkpt>
      <trkpt lat="43.53553" lon="5.57243">
        <ele>727</ele>
        <time>2022-02-15T11:59:10.000Z</time>
      </trkpt>
      <trkpt lat="43.53554" lon="5.57243">
        <ele>727</ele>
        <time>2022-02-15T11:59:11.000Z</time>
      </trkpt>
      <trkpt lat="43.53554" lon="5.57242">
        <ele>727</ele>
        <time>2022-02-15T11:59:12.000Z</time>
      </trkpt>
      <trkpt lat="43.53555" lon="5.57241">
        <ele>727</ele>
        <time>2022-02-15T11:59:13.000Z</time>
      </trkpt>
      <trkpt lat="43.53556" lon="5.5724">
        <ele>727</ele>
        <time>2022-02-15T11:59:14.000Z</time>
      </trkpt>
      <trkpt lat="43.53556" lon="5.57239">
        <ele>727</ele>
        <time>2022-02-15T11:59:15.000Z</time>
      </trkpt>
      <trkpt lat="43.53557" lon="5.57238">
        <ele>727</ele>
        <time>2022-02-15T11:59:16.000Z</time>
      </trkpt>
      <trkpt lat="43.53557" lon="5.57238">
        <ele>727</ele>
        <time>2022-02-15T11:59:17.000Z</time>
      </trkpt>
      <trkpt lat="43.53558" lon="5.57237">
        <ele>726</ele>
        <time>2022-02-15T11:59:18.000Z</time>
      </trkpt>
      <trkpt lat="43.53559" lon="5.57237">
        <ele>726</ele>
        <time>2022-02-15T11:59:19.000Z</time>
      </trkpt>
      <trkpt lat="43.53559" lon="5.57235">
        <ele>726</ele>
        <time>2022-02-15T11:59:20.000Z</time>
      </trkpt>
      <trkpt lat="43.53559" lon="5.57234">
        <ele>726</ele>
        <time>2022-02-15T11:59:21.000Z</time>
      </trkpt>
      <trkpt lat="43.5356" lon="5.57232">
        <ele>726</ele>
        <time>2022-02-15T11:59:22.000Z</time>
      </trkpt>
      <trkpt lat="43.5356" lon="5.57231">
        <ele>726</ele>
        <time>2022-02-15T11:59:23.000Z</time>
      </trkpt>
      <trkpt lat="43.53561" lon="5.5723">
        <ele>726</ele>
        <time>2022-02-15T11:59:24.000Z</time>
      </trkpt>
      <trkpt lat="43.53561" lon="5.57229">
        <ele>726</ele>
        <time>2022-02-15T11:59:25.000Z</time>
      </trkpt>
      <trkpt lat="43.53562" lon="5.57229">
        <ele>726</ele>
        <time>2022-02-15T11:59:26.000Z</time>
      </trkpt>
      <trkpt lat="43.53562" lon="5.57228">
        <ele>726</ele>
        <time>2022-02-15T11:59:27.000Z</time>
      </trkpt>
      <trkpt lat="43.53563" lon="5.57228">
        <ele>726</ele>
        <time>2022-02-15T11:59:28.000Z</time>
      </trkpt>
      <trkpt lat="43.53564" lon="5.57228">
        <ele>726</ele>
        <time>2022-02-15T11:59:29.000Z</time>
      </trkpt>
      <trkpt lat="43.53564" lon="5.57228">
        <ele>725</ele>
        <time>2022-02-15T11:59:30.000Z</time>
      </trkpt>
      <trkpt lat="43.53564" lon="5.57227">
        <ele>725</ele>
        <time>2022-02-15T11:59:31.000Z</time>
      </trkpt>
      <trkpt lat="43.53565" lon="5.57226">
        <ele>725</ele>
        <time>2022-02-15T11:59:32.000Z</time>
      </trkpt>
      <trkpt lat="43.53566" lon="5.57225">
        <ele>725</ele>
        <time>2022-02-15T11:59:33.000Z</time>
      </trkpt>
      <trkpt lat="43.53566" lon="5.57224">
        <ele>725</ele>
        <time>2022-02-15T11:59:34.000Z</time>
      </trkpt>
      <trkpt lat="43.53566" lon="5.57224">
        <ele>725</ele>
        <time>2022-02-15T11:59:35.000Z</time>
      </trkpt>
      <trkpt lat="43.53566" lon="5.57223">
        <ele>725</ele>
        <time>2022-02-15T11:59:36.000Z</time>
      </trkpt>
      <trkpt lat="43.53566" lon="5.57223">
        <ele>725</ele>
        <time>2022-02-15T11:59:37.000Z</time>
      </trkpt>
      <trkpt lat="43.53566" lon="5.57222">
        <ele>725</ele>
        <time>2022-02-15T11:59:38.000Z</time>
      </trkpt>
      <trkpt lat="43.53566" lon="5.57221">
        <ele>725</ele>
        <time>2022-02-15T11:59:39.000Z</time>
      </trkpt>
      <trkpt lat="43.53566" lon="5.5722">
        <ele>725</ele>
        <time>2022-02-15T11:59:40.000Z</time>
      </trkpt>
      <trkpt lat="43.53567" lon="5.57219">
        <ele>725</ele>
        <time>2022-02-15T11:59:41.000Z</time>
      </trkpt>
      <trkpt lat="43.53567" lon="5.57219">
        <ele>725</ele>
        <time>2022-02-15T11:59:42.000Z</time>
      </trkpt>
      <trkpt lat="43.53568" lon="5.57218">
        <ele>725</ele>
        <time>2022-02-15T11:59:43.000Z</time>
      </trkpt>
      <trkpt lat="43.53569" lon="5.57217">
        <ele>725</ele>
        <time>2022-02-15T11:59:44.000Z</time>
      </trkpt>
      <trkpt lat="43.53569" lon="5.57217">
        <ele>725</ele>
        <time>2022-02-15T11:59:45.000Z</time>
      </trkpt>
      <trkpt lat="43.53569" lon="5.57217">
        <ele>725</ele>
        <time>2022-02-15T11:59:46.000Z</time>
      </trkpt>
      <trkpt lat="43.53569" lon="5.57217">
        <ele>725</ele>
        <time>2022-02-15T11:59:47.000Z</time>
      </trkpt>
      <trkpt lat="43.53569" lon="5.57217">
        <ele>725</ele>
        <time>2022-02-15T11:59:48.000Z</time>
      </trkpt>
      <trkpt lat="43.53569" lon="5.57216">
        <ele>725</ele>
        <time>2022-02-15T11:59:49.000Z</time>
      </trkpt>
      <trkpt lat="43.5357" lon="5.57215">
        <ele>725</ele>
        <time>2022-02-15T11:59:50.000Z</time>
      </trkpt>
      <trkpt lat="43.5357" lon="5.57214">
        <ele>725</ele>
        <time>2022-02-15T11:59:51.000Z</time>
      </trkpt>
      <trkpt lat="43.53571" lon="5.57214">
        <ele>725</ele>
        <time>2022-02-15T11:59:52.000Z</time>
      </trkpt>
      <trkpt lat="43.53572" lon="5.57214">
        <ele>724</ele>
        <time>2022-02-15T11:59:53.000Z</time>
      </trkpt>
      <trkpt lat="43.53573" lon="5.57213">
        <ele>724</ele>
        <time>2022-02-15T11:59:54.000Z</time>
      </trkpt>
      <trkpt lat="43.53573" lon="5.57212">
        <ele>724</ele>
        <time>2022-02-15T11:59:55.000Z</time>
      </trkpt>
      <trkpt lat="43.53574" lon="5.57212">
        <ele>724</ele>
        <time>2022-02-15T11:59:56.000Z</time>
      </trkpt>
      <trkpt lat="43.53574" lon="5.57211">
        <ele>724</ele>
        <time>2022-02-15T11:59:57.000Z</time>
      </trkpt>
      <trkpt lat="43.53575" lon="5.5721">
        <ele>724</ele>
        <time>2022-02-15T11:59:58.000Z</time>
      </trkpt>
      <trkpt lat="43.53575" lon="5.57209">
        <ele>724</ele>
        <time>2022-02-15T11:59:59.000Z</time>
      </trkpt>
      <trkpt lat="43.53576" lon="5.57209">
        <ele>724</ele>
        <time>2022-02-15T12:00:00.000Z</time>
      </trkpt>
      <trkpt lat="43.53577" lon="5.57208">
        <ele>724</ele>
        <time>2022-02-15T12:00:01.000Z</time>
      </trkpt>
      <trkpt lat="43.53577" lon="5.57207">
        <ele>723</ele>
        <time>2022-02-15T12:00:02.000Z</time>
      </trkpt>
      <trkpt lat="43.53578" lon="5.57207">
        <ele>723</ele>
        <time>2022-02-15T12:00:03.000Z</time>
      </trkpt>
      <trkpt lat="43.53578" lon="5.57207">
        <ele>723</ele>
        <time>2022-02-15T12:00:04.000Z</time>
      </trkpt>
      <trkpt lat="43.53579" lon="5.57206">
        <ele>723</ele>
        <time>2022-02-15T12:00:05.000Z</time>
      </trkpt>
      <trkpt lat="43.53579" lon="5.57206">
        <ele>723</ele>
        <time>2022-02-15T12:00:06.000Z</time>
      </trkpt>
      <trkpt lat="43.5358" lon="5.57205">
        <ele>723</ele>
        <time>2022-02-15T12:00:07.000Z</time>
      </trkpt>
      <trkpt lat="43.5358" lon="5.57205">
        <ele>723</ele>
        <time>2022-02-15T12:00:08.000Z</time>
      </trkpt>
      <trkpt lat="43.53581" lon="5.57204">
        <ele>722</ele>
        <time>2022-02-15T12:00:09.000Z</time>
      </trkpt>
      <trkpt lat="43.53581" lon="5.57203">
        <ele>722</ele>
        <time>2022-02-15T12:00:10.000Z</time>
      </trkpt>
      <trkpt lat="43.53582" lon="5.57203">
        <ele>722</ele>
        <time>2022-02-15T12:00:11.000Z</time>
      </trkpt>
      <trkpt lat="43.53583" lon="5.57202">
        <ele>722</ele>
        <time>2022-02-15T12:00:12.000Z</time>
      </trkpt>
      <trkpt lat="43.53583" lon="5.57202">
        <ele>722</ele>
        <time>2022-02-15T12:00:13.000Z</time>
      </trkpt>
      <trkpt lat="43.53584" lon="5.57202">
        <ele>722</ele>
        <time>2022-02-15T12:00:14.000Z</time>
      </trkpt>
      <trkpt lat="43.53585" lon="5.57202">
        <ele>721</ele>
        <time>2022-02-15T12:00:15.000Z</time>
      </trkpt>
      <trkpt lat="43.53585" lon="5.57202">
        <ele>721</ele>
        <time>2022-02-15T12:00:16.000Z</time>
      </trkpt>
      <trkpt lat="43.53586" lon="5.57203">
        <ele>721</ele>
        <time>2022-02-15T12:00:17.000Z</time>
      </trkpt>
      <trkpt lat="43.53586" lon="5.57204">
        <ele>721</ele>
        <time>2022-02-15T12:00:18.000Z</time>
      </trkpt>
      <trkpt lat="43.53587" lon="5.57205">
        <ele>721</ele>
        <time>2022-02-15T12:00:19.000Z</time>
      </trkpt>
      <trkpt lat="43.53587" lon="5.57205">
        <ele>721</ele>
        <time>2022-02-15T12:00:20.000Z</time>
      </trkpt>
      <trkpt lat="43.53587" lon="5.57205">
        <ele>721</ele>
        <time>2022-02-15T12:00:21.000Z</time>
      </trkpt>
      <trkpt lat="43.53588" lon="5.57204">
        <ele>721</ele>
        <time>2022-02-15T12:00:22.000Z</time>
      </trkpt>
      <trkpt lat="43.53588" lon="5.57204">
        <ele>720</ele>
        <time>2022-02-15T12:00:23.000Z</time>
      </trkpt>
      <trkpt lat="43.53589" lon="5.57204">
        <ele>720</ele>
        <time>2022-02-15T12:00:24.000Z</time>
      </trkpt>
      <trkpt lat="43.53589" lon="5.57204">
        <ele>720</ele>
        <time>2022-02-15T12:00:25.000Z</time>
      </trkpt>
      <trkpt lat="43.5359" lon="5.57204">
        <ele>720</ele>
        <time>2022-02-15T12:00:26.000Z</time>
      </trkpt>
      <trkpt lat="43.5359" lon="5.57204">
        <ele>720</ele>
        <time>2022-02-15T12:00:27.000Z</time>
      </trkpt>
      <trkpt lat="43.53591" lon="5.57204">
        <ele>720</ele>
        <time>2022-02-15T12:00:28.000Z</time>
      </trkpt>
      <trkpt lat="43.53592" lon="5.57204">
        <ele>719</ele>
        <time>2022-02-15T12:00:29.000Z</time>
      </trkpt>
      <trkpt lat="43.53592" lon="5.57203">
        <ele>719</ele>
        <time>2022-02-15T12:00:30.000Z</time>
      </trkpt>
      <trkpt lat="43.53593" lon="5.57203">
        <ele>719</ele>
        <time>2022-02-15T12:00:31.000Z</time>
      </trkpt>
      <trkpt lat="43.53594" lon="5.57203">
        <ele>719</ele>
        <time>2022-02-15T12:00:32.000Z</time>
      </trkpt>
      <trkpt lat="43.53595" lon="5.57204">
        <ele>719</ele>
        <time>2022-02-15T12:00:33.000Z</time>
      </trkpt>
      <trkpt lat="43.53595" lon="5.57204">
        <ele>719</ele>
        <time>2022-02-15T12:00:34.000Z</time>
      </trkpt>
      <trkpt lat="43.53596" lon="5.57205">
        <ele>718</ele>
        <time>2022-02-15T12:00:35.000Z</time>
      </trkpt>
      <trkpt lat="43.53597" lon="5.57206">
        <ele>718</ele>
        <time>2022-02-15T12:00:36.000Z</time>
      </trkpt>
      <trkpt lat="43.53597" lon="5.57206">
        <ele>718</ele>
        <time>2022-02-15T12:00:37.000Z</time>
      </trkpt>
      <trkpt lat="43.53597" lon="5.57207">
        <ele>718</ele>
        <time>2022-02-15T12:00:38.000Z</time>
      </trkpt>
      <trkpt lat="43.53598" lon="5.57207">
        <ele>718</ele>
        <time>2022-02-15T12:00:39.000Z</time>
      </trkpt>
      <trkpt lat="43.53599" lon="5.57207">
        <ele>718</ele>
        <time>2022-02-15T12:00:40.000Z</time>
      </trkpt>
      <trkpt lat="43.53599" lon="5.57208">
        <ele>718</ele>
        <time>2022-02-15T12:00:41.000Z</time>
      </trkpt>
      <trkpt lat="43.536" lon="5.57208">
        <ele>717</ele>
        <time>2022-02-15T12:00:42.000Z</time>
      </trkpt>
      <trkpt lat="43.536" lon="5.57208">
        <ele>717</ele>
        <time>2022-02-15T12:00:43.000Z</time>
      </trkpt>
      <trkpt lat="43.536" lon="5.57208">
        <ele>717</ele>
        <time>2022-02-15T12:00:44.000Z</time>
      </trkpt>
      <trkpt lat="43.53601" lon="5.57208">
        <ele>717</ele>
        <time>2022-02-15T12:00:45.000Z</time>
      </trkpt>
      <trkpt lat="43.53602" lon="5.57207">
        <ele>717</ele>
        <time>2022-02-15T12:00:46.000Z</time>
      </trkpt>
      <trkpt lat="43.53602" lon="5.57206">
        <ele>717</ele>
        <time>2022-02-15T12:00:47.000Z</time>
      </trkpt>
      <trkpt lat="43.53602" lon="5.57206">
        <ele>716</ele>
        <time>2022-02-15T12:00:48.000Z</time>
      </trkpt>
      <trkpt lat="43.53603" lon="5.57205">
        <ele>716</ele>
        <time>2022-02-15T12:00:49.000Z</time>
      </trkpt>
      <trkpt lat="43.53604" lon="5.57205">
        <ele>716</ele>
        <time>2022-02-15T12:00:50.000Z</time>
      </trkpt>
      <trkpt lat="43.53604" lon="5.57205">
        <ele>716</ele>
        <time>2022-02-15T12:00:51.000Z</time>
      </trkpt>
      <trkpt lat="43.53605" lon="5.57205">
        <ele>716</ele>
        <time>2022-02-15T12:00:52.000Z</time>
      </trkpt>
      <trkpt lat="43.53606" lon="5.57205">
        <ele>716</ele>
        <time>2022-02-15T12:00:53.000Z</time>
      </trkpt>
      <trkpt lat="43.53606" lon="5.57205">
        <ele>716</ele>
        <time>2022-02-15T12:00:54.000Z</time>
      </trkpt>
      <trkpt lat="43.53607" lon="5.57205">
        <ele>715</ele>
        <time>2022-02-15T12:00:55.000Z</time>
      </trkpt>
      <trkpt lat="43.53608" lon="5.57204">
        <ele>715</ele>
        <time>2022-02-15T12:00:56.000Z</time>
      </trkpt>
      <trkpt lat="43.53608" lon="5.57203">
        <ele>715</ele>
        <time>2022-02-15T12:00:57.000Z</time>
      </trkpt>
      <trkpt lat="43.53608" lon="5.57202">
        <ele>715</ele>
        <time>2022-02-15T12:00:58.000Z</time>
      </trkpt>
      <trkpt lat="43.53608" lon="5.57201">
        <ele>715</ele>
        <time>2022-02-15T12:00:59.000Z</time>
      </trkpt>
      <trkpt lat="43.53608" lon="5.572">
        <ele>714</ele>
        <time>2022-02-15T12:01:00.000Z</time>
      </trkpt>
      <trkpt lat="43.53609" lon="5.57199">
        <ele>714</ele>
        <time>2022-02-15T12:01:01.000Z</time>
      </trkpt>
      <trkpt lat="43.53609" lon="5.57199">
        <ele>714</ele>
        <time>2022-02-15T12:01:02.000Z</time>
      </trkpt>
      <trkpt lat="43.5361" lon="5.57198">
        <ele>714</ele>
        <time>2022-02-15T12:01:03.000Z</time>
      </trkpt>
      <trkpt lat="43.5361" lon="5.57197">
        <ele>714</ele>
        <time>2022-02-15T12:01:04.000Z</time>
      </trkpt>
      <trkpt lat="43.53611" lon="5.57196">
        <ele>714</ele>
        <time>2022-02-15T12:01:05.000Z</time>
      </trkpt>
      <trkpt lat="43.53611" lon="5.57195">
        <ele>714</ele>
        <time>2022-02-15T12:01:06.000Z</time>
      </trkpt>
      <trkpt lat="43.53611" lon="5.57194">
        <ele>714</ele>
        <time>2022-02-15T12:01:07.000Z</time>
      </trkpt>
      <trkpt lat="43.53611" lon="5.57193">
        <ele>714</ele>
        <time>2022-02-15T12:01:08.000Z</time>
      </trkpt>
      <trkpt lat="43.53611" lon="5.57192">
        <ele>714</ele>
        <time>2022-02-15T12:01:09.000Z</time>
      </trkpt>
      <trkpt lat="43.53612" lon="5.57191">
        <ele>713</ele>
        <time>2022-02-15T12:01:10.000Z</time>
      </trkpt>
      <trkpt lat="43.53612" lon="5.57191">
        <ele>713</ele>
        <time>2022-02-15T12:01:11.000Z</time>
      </trkpt>
      <trkpt lat="43.53613" lon="5.57191">
        <ele>713</ele>
        <time>2022-02-15T12:01:12.000Z</time>
      </trkpt>
      <trkpt lat="43.53613" lon="5.57191">
        <ele>713</ele>
        <time>2022-02-15T12:01:13.000Z</time>
      </trkpt>
      <trkpt lat="43.53614" lon="5.57191">
        <ele>713</ele>
        <time>2022-02-15T12:01:14.000Z</time>
      </trkpt>
      <trkpt lat="43.53614" lon="5.57189">
        <ele>713</ele>
        <time>2022-02-15T12:01:15.000Z</time>
      </trkpt>
      <trkpt lat="43.53614" lon="5.57188">
        <ele>712</ele>
        <time>2022-02-15T12:01:16.000Z</time>
      </trkpt>
      <trkpt lat="43.53615" lon="5.57188">
        <ele>712</ele>
        <time>2022-02-15T12:01:17.000Z</time>
      </trkpt>
      <trkpt lat="43.53615" lon="5.57187">
        <ele>712</ele>
        <time>2022-02-15T12:01:18.000Z</time>
      </trkpt>
      <trkpt lat="43.53615" lon="5.57186">
        <ele>712</ele>
        <time>2022-02-15T12:01:19.000Z</time>
      </trkpt>
      <trkpt lat="43.53616" lon="5.57186">
        <ele>712</ele>
        <time>2022-02-15T12:01:20.000Z</time>
      </trkpt>
      <trkpt lat="43.53616" lon="5.57185">
        <ele>712</ele>
        <time>2022-02-15T12:01:21.000Z</time>
      </trkpt>
      <trkpt lat="43.53616" lon="5.57184">
        <ele>712</ele>
        <time>2022-02-15T12:01:22.000Z</time>
      </trkpt>
      <trkpt lat="43.53617" lon="5.57183">
        <ele>711</ele>
        <time>2022-02-15T12:01:23.000Z</time>
      </trkpt>
      <trkpt lat="43.53617" lon="5.57183">
        <ele>711</ele>
        <time>2022-02-15T12:01:24.000Z</time>
      </trkpt>
      <trkpt lat="43.53617" lon="5.57183">
        <ele>711</ele>
        <time>2022-02-15T12:01:25.000Z</time>
      </trkpt>
      <trkpt lat="43.53618" lon="5.57183">
        <ele>711</ele>
        <time>2022-02-15T12:01:26.000Z</time>
      </trkpt>
      <trkpt lat="43.53618" lon="5.57183">
        <ele>711</ele>
        <time>2022-02-15T12:01:27.000Z</time>
      </trkpt>
      <trkpt lat="43.53619" lon="5.57183">
        <ele>711</ele>
        <time>2022-02-15T12:01:28.000Z</time>
      </trkpt>
      <trkpt lat="43.53619" lon="5.57183">
        <ele>710</ele>
        <time>2022-02-15T12:01:29.000Z</time>
      </trkpt>
      <trkpt lat="43.53619" lon="5.57183">
        <ele>710</ele>
        <time>2022-02-15T12:01:30.000Z</time>
      </trkpt>
      <trkpt lat="43.5362" lon="5.57182">
        <ele>710</ele>
        <time>2022-02-15T12:01:31.000Z</time>
      </trkpt>
      <trkpt lat="43.5362" lon="5.57182">
        <ele>710</ele>
        <time>2022-02-15T12:01:32.000Z</time>
      </trkpt>
      <trkpt lat="43.53621" lon="5.57182">
        <ele>710</ele>
        <time>2022-02-15T12:01:33.000Z</time>
      </trkpt>
      <trkpt lat="43.53621" lon="5.57182">
        <ele>710</ele>
        <time>2022-02-15T12:01:34.000Z</time>
      </trkpt>
      <trkpt lat="43.53621" lon="5.57182">
        <ele>710</ele>
        <time>2022-02-15T12:01:35.000Z</time>
      </trkpt>
      <trkpt lat="43.53622" lon="5.57182">
        <ele>709</ele>
        <time>2022-02-15T12:01:36.000Z</time>
      </trkpt>
      <trkpt lat="43.53623" lon="5.57182">
        <ele>709</ele>
        <time>2022-02-15T12:01:37.000Z</time>
      </trkpt>
      <trkpt lat="43.53623" lon="5.57182">
        <ele>709</ele>
        <time>2022-02-15T12:01:38.000Z</time>
      </trkpt>
      <trkpt lat="43.53623" lon="5.57182">
        <ele>709</ele>
        <time>2022-02-15T12:01:39.000Z</time>
      </trkpt>
      <trkpt lat="43.53624" lon="5.57182">
        <ele>709</ele>
        <time>2022-02-15T12:01:40.000Z</time>
      </trkpt>
      <trkpt lat="43.53624" lon="5.57182">
        <ele>709</ele>
        <time>2022-02-15T12:01:41.000Z</time>
      </trkpt>
      <trkpt lat="43.53624" lon="5.57181">
        <ele>708</ele>
        <time>2022-02-15T12:01:42.000Z</time>
      </trkpt>
      <trkpt lat="43.53624" lon="5.5718">
        <ele>708</ele>
        <time>2022-02-15T12:01:43.000Z</time>
      </trkpt>
      <trkpt lat="43.53624" lon="5.57179">
        <ele>708</ele>
        <time>2022-02-15T12:01:44.000Z</time>
      </trkpt>
      <trkpt lat="43.53625" lon="5.57179">
        <ele>708</ele>
        <time>2022-02-15T12:01:45.000Z</time>
      </trkpt>
      <trkpt lat="43.53626" lon="5.57179">
        <ele>708</ele>
        <time>2022-02-15T12:01:46.000Z</time>
      </trkpt>
      <trkpt lat="43.53626" lon="5.57178">
        <ele>708</ele>
        <time>2022-02-15T12:01:47.000Z</time>
      </trkpt>
      <trkpt lat="43.53626" lon="5.57177">
        <ele>708</ele>
        <time>2022-02-15T12:01:48.000Z</time>
      </trkpt>
      <trkpt lat="43.53627" lon="5.57175">
        <ele>707</ele>
        <time>2022-02-15T12:01:49.000Z</time>
      </trkpt>
      <trkpt lat="43.53627" lon="5.57174">
        <ele>707</ele>
        <time>2022-02-15T12:01:50.000Z</time>
      </trkpt>
      <trkpt lat="43.53627" lon="5.57173">
        <ele>707</ele>
        <time>2022-02-15T12:01:51.000Z</time>
      </trkpt>
      <trkpt lat="43.53627" lon="5.57173">
        <ele>707</ele>
        <time>2022-02-15T12:01:52.000Z</time>
      </trkpt>
      <trkpt lat="43.53627" lon="5.57173">
        <ele>707</ele>
        <time>2022-02-15T12:01:53.000Z</time>
      </trkpt>
      <trkpt lat="43.53627" lon="5.57172">
        <ele>707</ele>
        <time>2022-02-15T12:01:54.000Z</time>
      </trkpt>
      <trkpt lat="43.53628" lon="5.57172">
        <ele>707</ele>
        <time>2022-02-15T12:01:55.000Z</time>
      </trkpt>
      <trkpt lat="43.53628" lon="5.57172">
        <ele>707</ele>
        <time>2022-02-15T12:01:56.000Z</time>
      </trkpt>
      <trkpt lat="43.53628" lon="5.57171">
        <ele>707</ele>
        <time>2022-02-15T12:01:57.000Z</time>
      </trkpt>
      <trkpt lat="43.53628" lon="5.57171">
        <ele>707</ele>
        <time>2022-02-15T12:01:58.000Z</time>
      </trkpt>
      <trkpt lat="43.53628" lon="5.57171">
        <ele>707</ele>
        <time>2022-02-15T12:01:59.000Z</time>
      </trkpt>
      <trkpt lat="43.53628" lon="5.5717">
        <ele>707</ele>
        <time>2022-02-15T12:02:00.000Z</time>
      </trkpt>
      <trkpt lat="43.53628" lon="5.5717">
        <ele>707</ele>
        <time>2022-02-15T12:02:01.000Z</time>
      </trkpt>
      <trkpt lat="43.53628" lon="5.5717">
        <ele>707</ele>
        <time>2022-02-15T12:02:02.000Z</time>
      </trkpt>
      <trkpt lat="43.53628" lon="5.5717">
        <ele>706</ele>
        <time>2022-02-15T12:02:03.000Z</time>
      </trkpt>
      <trkpt lat="43.53629" lon="5.5717">
        <ele>706</ele>
        <time>2022-02-15T12:02:04.000Z</time>
      </trkpt>
      <trkpt lat="43.53629" lon="5.5717">
        <ele>706</ele>
        <time>2022-02-15T12:02:05.000Z</time>
      </trkpt>
      <trkpt lat="43.53629" lon="5.5717">
        <ele>706</ele>
        <time>2022-02-15T12:02:06.000Z</time>
      </trkpt>
      <trkpt lat="43.53629" lon="5.5717">
        <ele>706</ele>
        <time>2022-02-15T12:02:07.000Z</time>
      </trkpt>
      <trkpt lat="43.5363" lon="5.57169">
        <ele>706</ele>
        <time>2022-02-15T12:02:08.000Z</time>
      </trkpt>
      <trkpt lat="43.5363" lon="5.57169">
        <ele>706</ele>
        <time>2022-02-15T12:02:09.000Z</time>
      </trkpt>
      <trkpt lat="43.53631" lon="5.57168">
        <ele>705</ele>
        <time>2022-02-15T12:02:10.000Z</time>
      </trkpt>
      <trkpt lat="43.53631" lon="5.57168">
        <ele>705</ele>
        <time>2022-02-15T12:02:11.000Z</time>
      </trkpt>
      <trkpt lat="43.53631" lon="5.57168">
        <ele>705</ele>
        <time>2022-02-15T12:02:12.000Z</time>
      </trkpt>
      <trkpt lat="43.53631" lon="5.57168">
        <ele>705</ele>
        <time>2022-02-15T12:02:13.000Z</time>
      </trkpt>
      <trkpt lat="43.53631" lon="5.57167">
        <ele>705</ele>
        <time>2022-02-15T12:02:14.000Z</time>
      </trkpt>
      <trkpt lat="43.5363" lon="5.57166">
        <ele>705</ele>
        <time>2022-02-15T12:02:15.000Z</time>
      </trkpt>
      <trkpt lat="43.5363" lon="5.57166">
        <ele>705</ele>
        <time>2022-02-15T12:02:16.000Z</time>
      </trkpt>
      <trkpt lat="43.5363" lon="5.57165">
        <ele>705</ele>
        <time>2022-02-15T12:02:17.000Z</time>
      </trkpt>
      <trkpt lat="43.53631" lon="5.57165">
        <ele>705</ele>
        <time>2022-02-15T12:02:18.000Z</time>
      </trkpt>
      <trkpt lat="43.53631" lon="5.57164">
        <ele>705</ele>
        <time>2022-02-15T12:02:19.000Z</time>
      </trkpt>
      <trkpt lat="43.53631" lon="5.57163">
        <ele>705</ele>
        <time>2022-02-15T12:02:20.000Z</time>
      </trkpt>
      <trkpt lat="43.53631" lon="5.57163">
        <ele>705</ele>
        <time>2022-02-15T12:02:21.000Z</time>
      </trkpt>
      <trkpt lat="43.53632" lon="5.57163">
        <ele>704</ele>
        <time>2022-02-15T12:02:22.000Z</time>
      </trkpt>
      <trkpt lat="43.53632" lon="5.57163">
        <ele>704</ele>
        <time>2022-02-15T12:02:23.000Z</time>
      </trkpt>
      <trkpt lat="43.53632" lon="5.57163">
        <ele>704</ele>
        <time>2022-02-15T12:02:24.000Z</time>
      </trkpt>
      <trkpt lat="43.53633" lon="5.57163">
        <ele>704</ele>
        <time>2022-02-15T12:02:25.000Z</time>
      </trkpt>
      <trkpt lat="43.53633" lon="5.57163">
        <ele>704</ele>
        <time>2022-02-15T12:02:26.000Z</time>
      </trkpt>
      <trkpt lat="43.53634" lon="5.57164">
        <ele>704</ele>
        <time>2022-02-15T12:02:27.000Z</time>
      </trkpt>
      <trkpt lat="43.53634" lon="5.57163">
        <ele>704</ele>
        <time>2022-02-15T12:02:28.000Z</time>
      </trkpt>
      <trkpt lat="43.53634" lon="5.57163">
        <ele>704</ele>
        <time>2022-02-15T12:02:29.000Z</time>
      </trkpt>
      <trkpt lat="43.53635" lon="5.57163">
        <ele>703</ele>
        <time>2022-02-15T12:02:30.000Z</time>
      </trkpt>
      <trkpt lat="43.53635" lon="5.57163">
        <ele>703</ele>
        <time>2022-02-15T12:02:31.000Z</time>
      </trkpt>
      <trkpt lat="43.53636" lon="5.57163">
        <ele>703</ele>
        <time>2022-02-15T12:02:32.000Z</time>
      </trkpt>
      <trkpt lat="43.53636" lon="5.57164">
        <ele>703</ele>
        <time>2022-02-15T12:02:33.000Z</time>
      </trkpt>
      <trkpt lat="43.53637" lon="5.57164">
        <ele>703</ele>
        <time>2022-02-15T12:02:34.000Z</time>
      </trkpt>
      <trkpt lat="43.53637" lon="5.57163">
        <ele>703</ele>
        <time>2022-02-15T12:02:35.000Z</time>
      </trkpt>
      <trkpt lat="43.53638" lon="5.57163">
        <ele>703</ele>
        <time>2022-02-15T12:02:36.000Z</time>
      </trkpt>
      <trkpt lat="43.53638" lon="5.57163">
        <ele>702</ele>
        <time>2022-02-15T12:02:37.000Z</time>
      </trkpt>
      <trkpt lat="43.53638" lon="5.57162">
        <ele>702</ele>
        <time>2022-02-15T12:02:38.000Z</time>
      </trkpt>
      <trkpt lat="43.53638" lon="5.57162">
        <ele>702</ele>
        <time>2022-02-15T12:02:39.000Z</time>
      </trkpt>
      <trkpt lat="43.53638" lon="5.5716">
        <ele>702</ele>
        <time>2022-02-15T12:02:40.000Z</time>
      </trkpt>
      <trkpt lat="43.53638" lon="5.5716">
        <ele>702</ele>
        <time>2022-02-15T12:02:41.000Z</time>
      </trkpt>
      <trkpt lat="43.53638" lon="5.57159">
        <ele>702</ele>
        <time>2022-02-15T12:02:42.000Z</time>
      </trkpt>
      <trkpt lat="43.53639" lon="5.57158">
        <ele>701</ele>
        <time>2022-02-15T12:02:43.000Z</time>
      </trkpt>
      <trkpt lat="43.53639" lon="5.57157">
        <ele>701</ele>
        <time>2022-02-15T12:02:44.000Z</time>
      </trkpt>
      <trkpt lat="43.5364" lon="5.57156">
        <ele>701</ele>
        <time>2022-02-15T12:02:45.000Z</time>
      </trkpt>
      <trkpt lat="43.5364" lon="5.57156">
        <ele>701</ele>
        <time>2022-02-15T12:02:46.000Z</time>
      </trkpt>
      <trkpt lat="43.5364" lon="5.57156">
        <ele>701</ele>
        <time>2022-02-15T12:02:47.000Z</time>
      </trkpt>
      <trkpt lat="43.5364" lon="5.57156">
        <ele>701</ele>
        <time>2022-02-15T12:02:48.000Z</time>
      </trkpt>
      <trkpt lat="43.5364" lon="5.57156">
        <ele>701</ele>
        <time>2022-02-15T12:02:49.000Z</time>
      </trkpt>
      <trkpt lat="43.53641" lon="5.57156">
        <ele>701</ele>
        <time>2022-02-15T12:02:50.000Z</time>
      </trkpt>
      <trkpt lat="43.53641" lon="5.57156">
        <ele>701</ele>
        <time>2022-02-15T12:02:51.000Z</time>
      </trkpt>
      <trkpt lat="43.53641" lon="5.57156">
        <ele>701</ele>
        <time>2022-02-15T12:02:52.000Z</time>
      </trkpt>
      <trkpt lat="43.53641" lon="5.57156">
        <ele>701</ele>
        <time>2022-02-15T12:02:53.000Z</time>
      </trkpt>
      <trkpt lat="43.53641" lon="5.57156">
        <ele>700</ele>
        <time>2022-02-15T12:02:54.000Z</time>
      </trkpt>
      <trkpt lat="43.53641" lon="5.57156">
        <ele>700</ele>
        <time>2022-02-15T12:02:55.000Z</time>
      </trkpt>
      <trkpt lat="43.53641" lon="5.57156">
        <ele>700</ele>
        <time>2022-02-15T12:02:56.000Z</time>
      </trkpt>
      <trkpt lat="43.53641" lon="5.57155">
        <ele>700</ele>
        <time>2022-02-15T12:02:57.000Z</time>
      </trkpt>
      <trkpt lat="43.53641" lon="5.57155">
        <ele>700</ele>
        <time>2022-02-15T12:02:58.000Z</time>
      </trkpt>
      <trkpt lat="43.53641" lon="5.57155">
        <ele>700</ele>
        <time>2022-02-15T12:02:59.000Z</time>
      </trkpt>
      <trkpt lat="43.53641" lon="5.57155">
        <ele>700</ele>
        <time>2022-02-15T12:03:00.000Z</time>
      </trkpt>
      <trkpt lat="43.53641" lon="5.57155">
        <ele>700</ele>
        <time>2022-02-15T12:03:01.000Z</time>
      </trkpt>
      <trkpt lat="43.53641" lon="5.57155">
        <ele>700</ele>
        <time>2022-02-15T12:03:02.000Z</time>
      </trkpt>
      <trkpt lat="43.53641" lon="5.57155">
        <ele>700</ele>
        <time>2022-02-15T12:03:03.000Z</time>
      </trkpt>
      <trkpt lat="43.53641" lon="5.57155">
        <ele>700</ele>
        <time>2022-02-15T12:03:04.000Z</time>
      </trkpt>
      <trkpt lat="43.53641" lon="5.57155">
        <ele>700</ele>
        <time>2022-02-15T12:03:05.000Z</time>
      </trkpt>
      <trkpt lat="43.53641" lon="5.57155">
        <ele>700</ele>
        <time>2022-02-15T12:03:06.000Z</time>
      </trkpt>
      <trkpt lat="43.53641" lon="5.57155">
        <ele>700</ele>
        <time>2022-02-15T12:03:07.000Z</time>
      </trkpt>
      <trkpt lat="43.53641" lon="5.57155">
        <ele>700</ele>
        <time>2022-02-15T12:03:08.000Z</time>
      </trkpt>
      <trkpt lat="43.53642" lon="5.57155">
        <ele>700</ele>
        <time>2022-02-15T12:03:09.000Z</time>
      </trkpt>
      <trkpt lat="43.53643" lon="5.57155">
        <ele>700</ele>
        <time>2022-02-15T12:03:10.000Z</time>
      </trkpt>
      <trkpt lat="43.53643" lon="5.57155">
        <ele>700</ele>
        <time>2022-02-15T12:03:11.000Z</time>
      </trkpt>
      <trkpt lat="43.53644" lon="5.57156">
        <ele>700</ele>
        <time>2022-02-15T12:03:12.000Z</time>
      </trkpt>
      <trkpt lat="43.53644" lon="5.57156">
        <ele>699</ele>
        <time>2022-02-15T12:03:13.000Z</time>
      </trkpt>
      <trkpt lat="43.53645" lon="5.57157">
        <ele>699</ele>
        <time>2022-02-15T12:03:14.000Z</time>
      </trkpt>
      <trkpt lat="43.53645" lon="5.57158">
        <ele>699</ele>
        <time>2022-02-15T12:03:15.000Z</time>
      </trkpt>
      <trkpt lat="43.53646" lon="5.57159">
        <ele>699</ele>
        <time>2022-02-15T12:03:16.000Z</time>
      </trkpt>
      <trkpt lat="43.53647" lon="5.5716">
        <ele>699</ele>
        <time>2022-02-15T12:03:17.000Z</time>
      </trkpt>
      <trkpt lat="43.53647" lon="5.57161">
        <ele>699</ele>
        <time>2022-02-15T12:03:18.000Z</time>
      </trkpt>
      <trkpt lat="43.53647" lon="5.57162">
        <ele>699</ele>
        <time>2022-02-15T12:03:19.000Z</time>
      </trkpt>
      <trkpt lat="43.53647" lon="5.57163">
        <ele>698</ele>
        <time>2022-02-15T12:03:20.000Z</time>
      </trkpt>
      <trkpt lat="43.53648" lon="5.57163">
        <ele>698</ele>
        <time>2022-02-15T12:03:21.000Z</time>
      </trkpt>
      <trkpt lat="43.53648" lon="5.57164">
        <ele>698</ele>
        <time>2022-02-15T12:03:22.000Z</time>
      </trkpt>
      <trkpt lat="43.53648" lon="5.57164">
        <ele>698</ele>
        <time>2022-02-15T12:03:23.000Z</time>
      </trkpt>
      <trkpt lat="43.53648" lon="5.57164">
        <ele>698</ele>
        <time>2022-02-15T12:03:24.000Z</time>
      </trkpt>
      <trkpt lat="43.53648" lon="5.57165">
        <ele>698</ele>
        <time>2022-02-15T12:03:25.000Z</time>
      </trkpt>
      <trkpt lat="43.53649" lon="5.57165">
        <ele>698</ele>
        <time>2022-02-15T12:03:26.000Z</time>
      </trkpt>
      <trkpt lat="43.53649" lon="5.57166">
        <ele>697</ele>
        <time>2022-02-15T12:03:27.000Z</time>
      </trkpt>
      <trkpt lat="43.53649" lon="5.57167">
        <ele>697</ele>
        <time>2022-02-15T12:03:28.000Z</time>
      </trkpt>
      <trkpt lat="43.5365" lon="5.57167">
        <ele>697</ele>
        <time>2022-02-15T12:03:29.000Z</time>
      </trkpt>
      <trkpt lat="43.5365" lon="5.57168">
        <ele>697</ele>
        <time>2022-02-15T12:03:30.000Z</time>
      </trkpt>
      <trkpt lat="43.53651" lon="5.57168">
        <ele>697</ele>
        <time>2022-02-15T12:03:31.000Z</time>
      </trkpt>
      <trkpt lat="43.53651" lon="5.57168">
        <ele>696</ele>
        <time>2022-02-15T12:03:32.000Z</time>
      </trkpt>
      <trkpt lat="43.53652" lon="5.57169">
        <ele>696</ele>
        <time>2022-02-15T12:03:33.000Z</time>
      </trkpt>
      <trkpt lat="43.53652" lon="5.57169">
        <ele>696</ele>
        <time>2022-02-15T12:03:34.000Z</time>
      </trkpt>
      <trkpt lat="43.53652" lon="5.57169">
        <ele>696</ele>
        <time>2022-02-15T12:03:35.000Z</time>
      </trkpt>
      <trkpt lat="43.53652" lon="5.57169">
        <ele>696</ele>
        <time>2022-02-15T12:03:36.000Z</time>
      </trkpt>
      <trkpt lat="43.53652" lon="5.57169">
        <ele>696</ele>
        <time>2022-02-15T12:03:37.000Z</time>
      </trkpt>
      <trkpt lat="43.53652" lon="5.57169">
        <ele>696</ele>
        <time>2022-02-15T12:03:38.000Z</time>
      </trkpt>
      <trkpt lat="43.53652" lon="5.57169">
        <ele>696</ele>
        <time>2022-02-15T12:03:39.000Z</time>
      </trkpt>
      <trkpt lat="43.53652" lon="5.5717">
        <ele>696</ele>
        <time>2022-02-15T12:03:40.000Z</time>
      </trkpt>
      <trkpt lat="43.53652" lon="5.5717">
        <ele>696</ele>
        <time>2022-02-15T12:03:41.000Z</time>
      </trkpt>
      <trkpt lat="43.53653" lon="5.57171">
        <ele>696</ele>
        <time>2022-02-15T12:03:42.000Z</time>
      </trkpt>
      <trkpt lat="43.53653" lon="5.57172">
        <ele>696</ele>
        <time>2022-02-15T12:03:43.000Z</time>
      </trkpt>
      <trkpt lat="43.53653" lon="5.57173">
        <ele>695</ele>
        <time>2022-02-15T12:03:44.000Z</time>
      </trkpt>
      <trkpt lat="43.53654" lon="5.57173">
        <ele>695</ele>
        <time>2022-02-15T12:03:45.000Z</time>
      </trkpt>
      <trkpt lat="43.53654" lon="5.57174">
        <ele>695</ele>
        <time>2022-02-15T12:03:46.000Z</time>
      </trkpt>
      <trkpt lat="43.53654" lon="5.57174">
        <ele>695</ele>
        <time>2022-02-15T12:03:47.000Z</time>
      </trkpt>
      <trkpt lat="43.53655" lon="5.57173">
        <ele>695</ele>
        <time>2022-02-15T12:03:48.000Z</time>
      </trkpt>
      <trkpt lat="43.53655" lon="5.57173">
        <ele>694</ele>
        <time>2022-02-15T12:03:49.000Z</time>
      </trkpt>
      <trkpt lat="43.53655" lon="5.57173">
        <ele>694</ele>
        <time>2022-02-15T12:03:50.000Z</time>
      </trkpt>
      <trkpt lat="43.53655" lon="5.57172">
        <ele>694</ele>
        <time>2022-02-15T12:03:51.000Z</time>
      </trkpt>
      <trkpt lat="43.53655" lon="5.5717">
        <ele>694</ele>
        <time>2022-02-15T12:03:52.000Z</time>
      </trkpt>
      <trkpt lat="43.53656" lon="5.57169">
        <ele>694</ele>
        <time>2022-02-15T12:03:53.000Z</time>
      </trkpt>
      <trkpt lat="43.53656" lon="5.57168">
        <ele>694</ele>
        <time>2022-02-15T12:03:54.000Z</time>
      </trkpt>
      <trkpt lat="43.53657" lon="5.57166">
        <ele>694</ele>
        <time>2022-02-15T12:03:55.000Z</time>
      </trkpt>
      <trkpt lat="43.53657" lon="5.57164">
        <ele>694</ele>
        <time>2022-02-15T12:03:56.000Z</time>
      </trkpt>
      <trkpt lat="43.53657" lon="5.57163">
        <ele>693</ele>
        <time>2022-02-15T12:03:57.000Z</time>
      </trkpt>
      <trkpt lat="43.53657" lon="5.57161">
        <ele>693</ele>
        <time>2022-02-15T12:03:58.000Z</time>
      </trkpt>
      <trkpt lat="43.53657" lon="5.57159">
        <ele>693</ele>
        <time>2022-02-15T12:03:59.000Z</time>
      </trkpt>
      <trkpt lat="43.53657" lon="5.57158">
        <ele>693</ele>
        <time>2022-02-15T12:04:00.000Z</time>
      </trkpt>
      <trkpt lat="43.53656" lon="5.57156">
        <ele>693</ele>
        <time>2022-02-15T12:04:01.000Z</time>
      </trkpt>
      <trkpt lat="43.53656" lon="5.57155">
        <ele>693</ele>
        <time>2022-02-15T12:04:02.000Z</time>
      </trkpt>
      <trkpt lat="43.53656" lon="5.57153">
        <ele>693</ele>
        <time>2022-02-15T12:04:03.000Z</time>
      </trkpt>
      <trkpt lat="43.53656" lon="5.57152">
        <ele>693</ele>
        <time>2022-02-15T12:04:04.000Z</time>
      </trkpt>
      <trkpt lat="43.53656" lon="5.5715">
        <ele>692</ele>
        <time>2022-02-15T12:04:05.000Z</time>
      </trkpt>
      <trkpt lat="43.53655" lon="5.57149">
        <ele>692</ele>
        <time>2022-02-15T12:04:06.000Z</time>
      </trkpt>
      <trkpt lat="43.53655" lon="5.57147">
        <ele>692</ele>
        <time>2022-02-15T12:04:07.000Z</time>
      </trkpt>
      <trkpt lat="43.53655" lon="5.57146">
        <ele>692</ele>
        <time>2022-02-15T12:04:08.000Z</time>
      </trkpt>
      <trkpt lat="43.53655" lon="5.57145">
        <ele>692</ele>
        <time>2022-02-15T12:04:09.000Z</time>
      </trkpt>
      <trkpt lat="43.53654" lon="5.57144">
        <ele>692</ele>
        <time>2022-02-15T12:04:10.000Z</time>
      </trkpt>
      <trkpt lat="43.53654" lon="5.57143">
        <ele>691</ele>
        <time>2022-02-15T12:04:11.000Z</time>
      </trkpt>
      <trkpt lat="43.53655" lon="5.57142">
        <ele>691</ele>
        <time>2022-02-15T12:04:12.000Z</time>
      </trkpt>
      <trkpt lat="43.53655" lon="5.57142">
        <ele>691</ele>
        <time>2022-02-15T12:04:13.000Z</time>
      </trkpt>
      <trkpt lat="43.53655" lon="5.57141">
        <ele>691</ele>
        <time>2022-02-15T12:04:14.000Z</time>
      </trkpt>
      <trkpt lat="43.53656" lon="5.5714">
        <ele>691</ele>
        <time>2022-02-15T12:04:15.000Z</time>
      </trkpt>
      <trkpt lat="43.53656" lon="5.57139">
        <ele>691</ele>
        <time>2022-02-15T12:04:16.000Z</time>
      </trkpt>
      <trkpt lat="43.53656" lon="5.57138">
        <ele>690</ele>
        <time>2022-02-15T12:04:17.000Z</time>
      </trkpt>
      <trkpt lat="43.53657" lon="5.57137">
        <ele>690</ele>
        <time>2022-02-15T12:04:18.000Z</time>
      </trkpt>
      <trkpt lat="43.53657" lon="5.57136">
        <ele>690</ele>
        <time>2022-02-15T12:04:19.000Z</time>
      </trkpt>
      <trkpt lat="43.53657" lon="5.57134">
        <ele>690</ele>
        <time>2022-02-15T12:04:20.000Z</time>
      </trkpt>
      <trkpt lat="43.53657" lon="5.57133">
        <ele>690</ele>
        <time>2022-02-15T12:04:21.000Z</time>
      </trkpt>
      <trkpt lat="43.53657" lon="5.57132">
        <ele>690</ele>
        <time>2022-02-15T12:04:22.000Z</time>
      </trkpt>
      <trkpt lat="43.53658" lon="5.5713">
        <ele>689</ele>
        <time>2022-02-15T12:04:23.000Z</time>
      </trkpt>
      <trkpt lat="43.53658" lon="5.57129">
        <ele>689</ele>
        <time>2022-02-15T12:04:24.000Z</time>
      </trkpt>
      <trkpt lat="43.53658" lon="5.57127">
        <ele>689</ele>
        <time>2022-02-15T12:04:25.000Z</time>
      </trkpt>
      <trkpt lat="43.53657" lon="5.57126">
        <ele>689</ele>
        <time>2022-02-15T12:04:26.000Z</time>
      </trkpt>
      <trkpt lat="43.53657" lon="5.57125">
        <ele>689</ele>
        <time>2022-02-15T12:04:27.000Z</time>
      </trkpt>
      <trkpt lat="43.53656" lon="5.57124">
        <ele>689</ele>
        <time>2022-02-15T12:04:28.000Z</time>
      </trkpt>
      <trkpt lat="43.53656" lon="5.57123">
        <ele>689</ele>
        <time>2022-02-15T12:04:29.000Z</time>
      </trkpt>
      <trkpt lat="43.53656" lon="5.57121">
        <ele>689</ele>
        <time>2022-02-15T12:04:30.000Z</time>
      </trkpt>
      <trkpt lat="43.53656" lon="5.5712">
        <ele>689</ele>
        <time>2022-02-15T12:04:31.000Z</time>
      </trkpt>
      <trkpt lat="43.53656" lon="5.57119">
        <ele>689</ele>
        <time>2022-02-15T12:04:32.000Z</time>
      </trkpt>
      <trkpt lat="43.53656" lon="5.57118">
        <ele>689</ele>
        <time>2022-02-15T12:04:33.000Z</time>
      </trkpt>
      <trkpt lat="43.53656" lon="5.57117">
        <ele>689</ele>
        <time>2022-02-15T12:04:34.000Z</time>
      </trkpt>
      <trkpt lat="43.53656" lon="5.57115">
        <ele>688</ele>
        <time>2022-02-15T12:04:35.000Z</time>
      </trkpt>
      <trkpt lat="43.53656" lon="5.57114">
        <ele>688</ele>
        <time>2022-02-15T12:04:36.000Z</time>
      </trkpt>
      <trkpt lat="43.53656" lon="5.57112">
        <ele>688</ele>
        <time>2022-02-15T12:04:37.000Z</time>
      </trkpt>
      <trkpt lat="43.53657" lon="5.57111">
        <ele>688</ele>
        <time>2022-02-15T12:04:38.000Z</time>
      </trkpt>
      <trkpt lat="43.53657" lon="5.5711">
        <ele>688</ele>
        <time>2022-02-15T12:04:39.000Z</time>
      </trkpt>
      <trkpt lat="43.53658" lon="5.57108">
        <ele>688</ele>
        <time>2022-02-15T12:04:40.000Z</time>
      </trkpt>
      <trkpt lat="43.53658" lon="5.57107">
        <ele>687</ele>
        <time>2022-02-15T12:04:41.000Z</time>
      </trkpt>
      <trkpt lat="43.53658" lon="5.57106">
        <ele>687</ele>
        <time>2022-02-15T12:04:42.000Z</time>
      </trkpt>
      <trkpt lat="43.53658" lon="5.57105">
        <ele>687</ele>
        <time>2022-02-15T12:04:43.000Z</time>
      </trkpt>
      <trkpt lat="43.53658" lon="5.57104">
        <ele>687</ele>
        <time>2022-02-15T12:04:44.000Z</time>
      </trkpt>
      <trkpt lat="43.53658" lon="5.57104">
        <ele>687</ele>
        <time>2022-02-15T12:04:45.000Z</time>
      </trkpt>
      <trkpt lat="43.53658" lon="5.57102">
        <ele>687</ele>
        <time>2022-02-15T12:04:46.000Z</time>
      </trkpt>
      <trkpt lat="43.53659" lon="5.57102">
        <ele>686</ele>
        <time>2022-02-15T12:04:47.000Z</time>
      </trkpt>
      <trkpt lat="43.53659" lon="5.57101">
        <ele>686</ele>
        <time>2022-02-15T12:04:48.000Z</time>
      </trkpt>
      <trkpt lat="43.5366" lon="5.571">
        <ele>686</ele>
        <time>2022-02-15T12:04:49.000Z</time>
      </trkpt>
      <trkpt lat="43.5366" lon="5.57098">
        <ele>686</ele>
        <time>2022-02-15T12:04:50.000Z</time>
      </trkpt>
      <trkpt lat="43.5366" lon="5.57098">
        <ele>686</ele>
        <time>2022-02-15T12:04:51.000Z</time>
      </trkpt>
      <trkpt lat="43.5366" lon="5.57097">
        <ele>685</ele>
        <time>2022-02-15T12:04:52.000Z</time>
      </trkpt>
      <trkpt lat="43.5366" lon="5.57096">
        <ele>685</ele>
        <time>2022-02-15T12:04:53.000Z</time>
      </trkpt>
      <trkpt lat="43.5366" lon="5.57096">
        <ele>685</ele>
        <time>2022-02-15T12:04:54.000Z</time>
      </trkpt>
      <trkpt lat="43.5366" lon="5.57095">
        <ele>685</ele>
        <time>2022-02-15T12:04:55.000Z</time>
      </trkpt>
      <trkpt lat="43.5366" lon="5.57094">
        <ele>685</ele>
        <time>2022-02-15T12:04:56.000Z</time>
      </trkpt>
      <trkpt lat="43.5366" lon="5.57094">
        <ele>685</ele>
        <time>2022-02-15T12:04:57.000Z</time>
      </trkpt>
      <trkpt lat="43.5366" lon="5.57093">
        <ele>685</ele>
        <time>2022-02-15T12:04:58.000Z</time>
      </trkpt>
      <trkpt lat="43.53661" lon="5.57091">
        <ele>684</ele>
        <time>2022-02-15T12:04:59.000Z</time>
      </trkpt>
      <trkpt lat="43.53661" lon="5.5709">
        <ele>684</ele>
        <time>2022-02-15T12:05:00.000Z</time>
      </trkpt>
      <trkpt lat="43.53661" lon="5.57089">
        <ele>684</ele>
        <time>2022-02-15T12:05:01.000Z</time>
      </trkpt>
      <trkpt lat="43.53662" lon="5.57088">
        <ele>684</ele>
        <time>2022-02-15T12:05:02.000Z</time>
      </trkpt>
      <trkpt lat="43.53662" lon="5.57087">
        <ele>684</ele>
        <time>2022-02-15T12:05:03.000Z</time>
      </trkpt>
      <trkpt lat="43.53662" lon="5.57086">
        <ele>684</ele>
        <time>2022-02-15T12:05:04.000Z</time>
      </trkpt>
      <trkpt lat="43.53662" lon="5.57085">
        <ele>684</ele>
        <time>2022-02-15T12:05:05.000Z</time>
      </trkpt>
      <trkpt lat="43.53662" lon="5.57084">
        <ele>683</ele>
        <time>2022-02-15T12:05:06.000Z</time>
      </trkpt>
      <trkpt lat="43.53663" lon="5.57084">
        <ele>683</ele>
        <time>2022-02-15T12:05:07.000Z</time>
      </trkpt>
      <trkpt lat="43.53663" lon="5.57083">
        <ele>683</ele>
        <time>2022-02-15T12:05:08.000Z</time>
      </trkpt>
      <trkpt lat="43.53663" lon="5.57082">
        <ele>683</ele>
        <time>2022-02-15T12:05:09.000Z</time>
      </trkpt>
      <trkpt lat="43.53663" lon="5.57081">
        <ele>683</ele>
        <time>2022-02-15T12:05:10.000Z</time>
      </trkpt>
      <trkpt lat="43.53663" lon="5.57081">
        <ele>682</ele>
        <time>2022-02-15T12:05:11.000Z</time>
      </trkpt>
      <trkpt lat="43.53664" lon="5.5708">
        <ele>682</ele>
        <time>2022-02-15T12:05:12.000Z</time>
      </trkpt>
      <trkpt lat="43.53664" lon="5.57079">
        <ele>682</ele>
        <time>2022-02-15T12:05:13.000Z</time>
      </trkpt>
      <trkpt lat="43.53664" lon="5.57078">
        <ele>682</ele>
        <time>2022-02-15T12:05:14.000Z</time>
      </trkpt>
      <trkpt lat="43.53664" lon="5.57078">
        <ele>682</ele>
        <time>2022-02-15T12:05:15.000Z</time>
      </trkpt>
      <trkpt lat="43.53664" lon="5.57078">
        <ele>682</ele>
        <time>2022-02-15T12:05:16.000Z</time>
      </trkpt>
      <trkpt lat="43.53664" lon="5.57078">
        <ele>682</ele>
        <time>2022-02-15T12:05:17.000Z</time>
      </trkpt>
      <trkpt lat="43.53664" lon="5.57078">
        <ele>682</ele>
        <time>2022-02-15T12:05:18.000Z</time>
      </trkpt>
      <trkpt lat="43.53664" lon="5.57078">
        <ele>682</ele>
        <time>2022-02-15T12:05:19.000Z</time>
      </trkpt>
      <trkpt lat="43.53664" lon="5.57078">
        <ele>682</ele>
        <time>2022-02-15T12:05:20.000Z</time>
      </trkpt>
      <trkpt lat="43.53664" lon="5.57077">
        <ele>682</ele>
        <time>2022-02-15T12:05:21.000Z</time>
      </trkpt>
      <trkpt lat="43.53664" lon="5.57077">
        <ele>682</ele>
        <time>2022-02-15T12:05:22.000Z</time>
      </trkpt>
      <trkpt lat="43.53664" lon="5.57077">
        <ele>682</ele>
        <time>2022-02-15T12:05:23.000Z</time>
      </trkpt>
      <trkpt lat="43.53664" lon="5.57077">
        <ele>682</ele>
        <time>2022-02-15T12:05:24.000Z</time>
      </trkpt>
      <trkpt lat="43.53664" lon="5.57078">
        <ele>682</ele>
        <time>2022-02-15T12:05:25.000Z</time>
      </trkpt>
      <trkpt lat="43.53664" lon="5.57077">
        <ele>682</ele>
        <time>2022-02-15T12:05:26.000Z</time>
      </trkpt>
      <trkpt lat="43.53663" lon="5.57076">
        <ele>681</ele>
        <time>2022-02-15T12:05:27.000Z</time>
      </trkpt>
      <trkpt lat="43.53663" lon="5.57075">
        <ele>681</ele>
        <time>2022-02-15T12:05:28.000Z</time>
      </trkpt>
      <trkpt lat="43.53663" lon="5.57075">
        <ele>681</ele>
        <time>2022-02-15T12:05:29.000Z</time>
      </trkpt>
      <trkpt lat="43.53663" lon="5.57074">
        <ele>681</ele>
        <time>2022-02-15T12:05:30.000Z</time>
      </trkpt>
      <trkpt lat="43.53662" lon="5.57074">
        <ele>681</ele>
        <time>2022-02-15T12:05:31.000Z</time>
      </trkpt>
      <trkpt lat="43.53662" lon="5.57074">
        <ele>680</ele>
        <time>2022-02-15T12:05:32.000Z</time>
      </trkpt>
      <trkpt lat="43.53662" lon="5.57073">
        <ele>680</ele>
        <time>2022-02-15T12:05:33.000Z</time>
      </trkpt>
      <trkpt lat="43.53661" lon="5.57073">
        <ele>680</ele>
        <time>2022-02-15T12:05:34.000Z</time>
      </trkpt>
      <trkpt lat="43.53661" lon="5.57073">
        <ele>680</ele>
        <time>2022-02-15T12:05:35.000Z</time>
      </trkpt>
      <trkpt lat="43.5366" lon="5.57072">
        <ele>680</ele>
        <time>2022-02-15T12:05:36.000Z</time>
      </trkpt>
      <trkpt lat="43.5366" lon="5.57072">
        <ele>680</ele>
        <time>2022-02-15T12:05:37.000Z</time>
      </trkpt>
      <trkpt lat="43.5366" lon="5.57072">
        <ele>679</ele>
        <time>2022-02-15T12:05:38.000Z</time>
      </trkpt>
      <trkpt lat="43.5366" lon="5.57071">
        <ele>679</ele>
        <time>2022-02-15T12:05:39.000Z</time>
      </trkpt>
      <trkpt lat="43.53659" lon="5.57072">
        <ele>679</ele>
        <time>2022-02-15T12:05:40.000Z</time>
      </trkpt>
      <trkpt lat="43.53659" lon="5.57072">
        <ele>679</ele>
        <time>2022-02-15T12:05:41.000Z</time>
      </trkpt>
      <trkpt lat="43.53658" lon="5.57073">
        <ele>679</ele>
        <time>2022-02-15T12:05:42.000Z</time>
      </trkpt>
      <trkpt lat="43.53658" lon="5.57073">
        <ele>679</ele>
        <time>2022-02-15T12:05:43.000Z</time>
      </trkpt>
      <trkpt lat="43.53657" lon="5.57073">
        <ele>679</ele>
        <time>2022-02-15T12:05:44.000Z</time>
      </trkpt>
      <trkpt lat="43.53657" lon="5.57073">
        <ele>679</ele>
        <time>2022-02-15T12:05:45.000Z</time>
      </trkpt>
      <trkpt lat="43.53657" lon="5.57073">
        <ele>679</ele>
        <time>2022-02-15T12:05:46.000Z</time>
      </trkpt>
      <trkpt lat="43.53657" lon="5.57073">
        <ele>679</ele>
        <time>2022-02-15T12:05:47.000Z</time>
      </trkpt>
      <trkpt lat="43.53657" lon="5.57072">
        <ele>678</ele>
        <time>2022-02-15T12:05:48.000Z</time>
      </trkpt>
      <trkpt lat="43.53656" lon="5.57071">
        <ele>678</ele>
        <time>2022-02-15T12:05:49.000Z</time>
      </trkpt>
      <trkpt lat="43.53656" lon="5.57071">
        <ele>678</ele>
        <time>2022-02-15T12:05:50.000Z</time>
      </trkpt>
      <trkpt lat="43.53656" lon="5.57071">
        <ele>678</ele>
        <time>2022-02-15T12:05:51.000Z</time>
      </trkpt>
      <trkpt lat="43.53655" lon="5.57071">
        <ele>678</ele>
        <time>2022-02-15T12:05:52.000Z</time>
      </trkpt>
      <trkpt lat="43.53654" lon="5.5707">
        <ele>678</ele>
        <time>2022-02-15T12:05:53.000Z</time>
      </trkpt>
      <trkpt lat="43.53654" lon="5.5707">
        <ele>677</ele>
        <time>2022-02-15T12:05:54.000Z</time>
      </trkpt>
      <trkpt lat="43.53653" lon="5.5707">
        <ele>677</ele>
        <time>2022-02-15T12:05:55.000Z</time>
      </trkpt>
      <trkpt lat="43.53652" lon="5.5707">
        <ele>677</ele>
        <time>2022-02-15T12:05:56.000Z</time>
      </trkpt>
      <trkpt lat="43.53651" lon="5.57071">
        <ele>677</ele>
        <time>2022-02-15T12:05:57.000Z</time>
      </trkpt>
      <trkpt lat="43.5365" lon="5.57072">
        <ele>677</ele>
        <time>2022-02-15T12:05:58.000Z</time>
      </trkpt>
      <trkpt lat="43.5365" lon="5.57073">
        <ele>677</ele>
        <time>2022-02-15T12:05:59.000Z</time>
      </trkpt>
      <trkpt lat="43.53649" lon="5.57074">
        <ele>677</ele>
        <time>2022-02-15T12:06:00.000Z</time>
      </trkpt>
      <trkpt lat="43.53649" lon="5.57075">
        <ele>677</ele>
        <time>2022-02-15T12:06:01.000Z</time>
      </trkpt>
      <trkpt lat="43.53649" lon="5.57075">
        <ele>677</ele>
        <time>2022-02-15T12:06:02.000Z</time>
      </trkpt>
      <trkpt lat="43.53649" lon="5.57076">
        <ele>677</ele>
        <time>2022-02-15T12:06:03.000Z</time>
      </trkpt>
      <trkpt lat="43.53649" lon="5.57076">
        <ele>677</ele>
        <time>2022-02-15T12:06:04.000Z</time>
      </trkpt>
      <trkpt lat="43.53649" lon="5.57076">
        <ele>677</ele>
        <time>2022-02-15T12:06:05.000Z</time>
      </trkpt>
      <trkpt lat="43.53649" lon="5.57075">
        <ele>677</ele>
        <time>2022-02-15T12:06:06.000Z</time>
      </trkpt>
      <trkpt lat="43.53649" lon="5.57075">
        <ele>677</ele>
        <time>2022-02-15T12:06:07.000Z</time>
      </trkpt>
      <trkpt lat="43.53649" lon="5.57075">
        <ele>677</ele>
        <time>2022-02-15T12:06:08.000Z</time>
      </trkpt>
      <trkpt lat="43.53649" lon="5.57075">
        <ele>677</ele>
        <time>2022-02-15T12:06:09.000Z</time>
      </trkpt>
      <trkpt lat="43.53649" lon="5.57075">
        <ele>677</ele>
        <time>2022-02-15T12:06:10.000Z</time>
      </trkpt>
      <trkpt lat="43.53649" lon="5.57075">
        <ele>677</ele>
        <time>2022-02-15T12:06:11.000Z</time>
      </trkpt>
      <trkpt lat="43.53649" lon="5.57075">
        <ele>677</ele>
        <time>2022-02-15T12:06:12.000Z</time>
      </trkpt>
      <trkpt lat="43.53649" lon="5.57075">
        <ele>677</ele>
        <time>2022-02-15T12:06:13.000Z</time>
      </trkpt>
      <trkpt lat="43.53649" lon="5.57075">
        <ele>677</ele>
        <time>2022-02-15T12:06:14.000Z</time>
      </trkpt>
      <trkpt lat="43.53649" lon="5.57075">
        <ele>677</ele>
        <time>2022-02-15T12:06:15.000Z</time>
      </trkpt>
      <trkpt lat="43.53649" lon="5.57075">
        <ele>677</ele>
        <time>2022-02-15T12:06:16.000Z</time>
      </trkpt>
      <trkpt lat="43.53649" lon="5.57076">
        <ele>677</ele>
        <time>2022-02-15T12:06:17.000Z</time>
      </trkpt>
      <trkpt lat="43.53649" lon="5.57076">
        <ele>677</ele>
        <time>2022-02-15T12:06:18.000Z</time>
      </trkpt>
      <trkpt lat="43.53649" lon="5.57076">
        <ele>677</ele>
        <time>2022-02-15T12:06:19.000Z</time>
      </trkpt>
      <trkpt lat="43.53649" lon="5.57076">
        <ele>676</ele>
        <time>2022-02-15T12:06:20.000Z</time>
      </trkpt>
      <trkpt lat="43.5365" lon="5.57077">
        <ele>676</ele>
        <time>2022-02-15T12:06:21.000Z</time>
      </trkpt>
      <trkpt lat="43.5365" lon="5.57078">
        <ele>676</ele>
        <time>2022-02-15T12:06:22.000Z</time>
      </trkpt>
      <trkpt lat="43.5365" lon="5.57079">
        <ele>676</ele>
        <time>2022-02-15T12:06:23.000Z</time>
      </trkpt>
      <trkpt lat="43.53649" lon="5.57081">
        <ele>676</ele>
        <time>2022-02-15T12:06:24.000Z</time>
      </trkpt>
      <trkpt lat="43.53649" lon="5.57082">
        <ele>676</ele>
        <time>2022-02-15T12:06:25.000Z</time>
      </trkpt>
      <trkpt lat="43.53649" lon="5.57084">
        <ele>676</ele>
        <time>2022-02-15T12:06:26.000Z</time>
      </trkpt>
      <trkpt lat="43.53648" lon="5.57085">
        <ele>676</ele>
        <time>2022-02-15T12:06:27.000Z</time>
      </trkpt>
      <trkpt lat="43.53648" lon="5.57087">
        <ele>676</ele>
        <time>2022-02-15T12:06:28.000Z</time>
      </trkpt>
      <trkpt lat="43.53647" lon="5.57088">
        <ele>676</ele>
        <time>2022-02-15T12:06:29.000Z</time>
      </trkpt>
      <trkpt lat="43.53647" lon="5.57088">
        <ele>676</ele>
        <time>2022-02-15T12:06:30.000Z</time>
      </trkpt>
      <trkpt lat="43.53646" lon="5.57089">
        <ele>676</ele>
        <time>2022-02-15T12:06:31.000Z</time>
      </trkpt>
      <trkpt lat="43.53645" lon="5.5709">
        <ele>676</ele>
        <time>2022-02-15T12:06:32.000Z</time>
      </trkpt>
      <trkpt lat="43.53644" lon="5.57091">
        <ele>676</ele>
        <time>2022-02-15T12:06:33.000Z</time>
      </trkpt>
      <trkpt lat="43.53644" lon="5.57092">
        <ele>677</ele>
        <time>2022-02-15T12:06:34.000Z</time>
      </trkpt>
      <trkpt lat="43.53643" lon="5.57092">
        <ele>677</ele>
        <time>2022-02-15T12:06:35.000Z</time>
      </trkpt>
      <trkpt lat="43.53643" lon="5.57093">
        <ele>677</ele>
        <time>2022-02-15T12:06:36.000Z</time>
      </trkpt>
      <trkpt lat="43.53642" lon="5.57093">
        <ele>676</ele>
        <time>2022-02-15T12:06:37.000Z</time>
      </trkpt>
      <trkpt lat="43.53642" lon="5.57092">
        <ele>676</ele>
        <time>2022-02-15T12:06:38.000Z</time>
      </trkpt>
      <trkpt lat="43.53641" lon="5.57092">
        <ele>676</ele>
        <time>2022-02-15T12:06:39.000Z</time>
      </trkpt>
      <trkpt lat="43.53641" lon="5.57092">
        <ele>676</ele>
        <time>2022-02-15T12:06:40.000Z</time>
      </trkpt>
      <trkpt lat="43.5364" lon="5.57092">
        <ele>676</ele>
        <time>2022-02-15T12:06:41.000Z</time>
      </trkpt>
      <trkpt lat="43.5364" lon="5.57092">
        <ele>675</ele>
        <time>2022-02-15T12:06:42.000Z</time>
      </trkpt>
      <trkpt lat="43.5364" lon="5.57091">
        <ele>675</ele>
        <time>2022-02-15T12:06:43.000Z</time>
      </trkpt>
      <trkpt lat="43.5364" lon="5.57091">
        <ele>675</ele>
        <time>2022-02-15T12:06:44.000Z</time>
      </trkpt>
      <trkpt lat="43.5364" lon="5.57091">
        <ele>675</ele>
        <time>2022-02-15T12:06:45.000Z</time>
      </trkpt>
      <trkpt lat="43.53639" lon="5.57091">
        <ele>675</ele>
        <time>2022-02-15T12:06:46.000Z</time>
      </trkpt>
      <trkpt lat="43.53639" lon="5.57091">
        <ele>675</ele>
        <time>2022-02-15T12:06:47.000Z</time>
      </trkpt>
      <trkpt lat="43.53639" lon="5.57091">
        <ele>675</ele>
        <time>2022-02-15T12:06:48.000Z</time>
      </trkpt>
      <trkpt lat="43.53639" lon="5.57091">
        <ele>675</ele>
        <time>2022-02-15T12:06:49.000Z</time>
      </trkpt>
      <trkpt lat="43.53639" lon="5.57091">
        <ele>675</ele>
        <time>2022-02-15T12:06:50.000Z</time>
      </trkpt>
      <trkpt lat="43.53638" lon="5.57091">
        <ele>675</ele>
        <time>2022-02-15T12:06:51.000Z</time>
      </trkpt>
      <trkpt lat="43.53638" lon="5.57091">
        <ele>675</ele>
        <time>2022-02-15T12:06:52.000Z</time>
      </trkpt>
      <trkpt lat="43.53637" lon="5.5709">
        <ele>675</ele>
        <time>2022-02-15T12:06:53.000Z</time>
      </trkpt>
      <trkpt lat="43.53637" lon="5.5709">
        <ele>674</ele>
        <time>2022-02-15T12:06:54.000Z</time>
      </trkpt>
      <trkpt lat="43.53636" lon="5.5709">
        <ele>674</ele>
        <time>2022-02-15T12:06:55.000Z</time>
      </trkpt>
      <trkpt lat="43.53636" lon="5.5709">
        <ele>674</ele>
        <time>2022-02-15T12:06:56.000Z</time>
      </trkpt>
      <trkpt lat="43.53635" lon="5.5709">
        <ele>674</ele>
        <time>2022-02-15T12:06:57.000Z</time>
      </trkpt>
      <trkpt lat="43.53635" lon="5.5709">
        <ele>674</ele>
        <time>2022-02-15T12:06:58.000Z</time>
      </trkpt>
      <trkpt lat="43.53635" lon="5.5709">
        <ele>674</ele>
        <time>2022-02-15T12:06:59.000Z</time>
      </trkpt>
      <trkpt lat="43.53634" lon="5.5709">
        <ele>674</ele>
        <time>2022-02-15T12:07:00.000Z</time>
      </trkpt>
      <trkpt lat="43.53634" lon="5.5709">
        <ele>673</ele>
        <time>2022-02-15T12:07:01.000Z</time>
      </trkpt>
      <trkpt lat="43.53634" lon="5.57091">
        <ele>673</ele>
        <time>2022-02-15T12:07:02.000Z</time>
      </trkpt>
      <trkpt lat="43.53633" lon="5.57091">
        <ele>673</ele>
        <time>2022-02-15T12:07:03.000Z</time>
      </trkpt>
      <trkpt lat="43.53633" lon="5.57092">
        <ele>673</ele>
        <time>2022-02-15T12:07:04.000Z</time>
      </trkpt>
      <trkpt lat="43.53632" lon="5.57092">
        <ele>673</ele>
        <time>2022-02-15T12:07:05.000Z</time>
      </trkpt>
      <trkpt lat="43.53631" lon="5.57092">
        <ele>673</ele>
        <time>2022-02-15T12:07:06.000Z</time>
      </trkpt>
      <trkpt lat="43.53631" lon="5.57092">
        <ele>673</ele>
        <time>2022-02-15T12:07:07.000Z</time>
      </trkpt>
      <trkpt lat="43.5363" lon="5.57092">
        <ele>673</ele>
        <time>2022-02-15T12:07:08.000Z</time>
      </trkpt>
      <trkpt lat="43.53629" lon="5.57091">
        <ele>672</ele>
        <time>2022-02-15T12:07:09.000Z</time>
      </trkpt>
      <trkpt lat="43.53629" lon="5.57091">
        <ele>672</ele>
        <time>2022-02-15T12:07:10.000Z</time>
      </trkpt>
      <trkpt lat="43.53629" lon="5.57091">
        <ele>672</ele>
        <time>2022-02-15T12:07:11.000Z</time>
      </trkpt>
      <trkpt lat="43.53628" lon="5.5709">
        <ele>672</ele>
        <time>2022-02-15T12:07:12.000Z</time>
      </trkpt>
      <trkpt lat="43.53628" lon="5.5709">
        <ele>672</ele>
        <time>2022-02-15T12:07:13.000Z</time>
      </trkpt>
      <trkpt lat="43.53627" lon="5.5709">
        <ele>671</ele>
        <time>2022-02-15T12:07:14.000Z</time>
      </trkpt>
      <trkpt lat="43.53627" lon="5.5709">
        <ele>671</ele>
        <time>2022-02-15T12:07:15.000Z</time>
      </trkpt>
      <trkpt lat="43.53627" lon="5.5709">
        <ele>671</ele>
        <time>2022-02-15T12:07:16.000Z</time>
      </trkpt>
      <trkpt lat="43.53626" lon="5.5709">
        <ele>671</ele>
        <time>2022-02-15T12:07:17.000Z</time>
      </trkpt>
      <trkpt lat="43.53626" lon="5.5709">
        <ele>671</ele>
        <time>2022-02-15T12:07:18.000Z</time>
      </trkpt>
      <trkpt lat="43.53625" lon="5.5709">
        <ele>671</ele>
        <time>2022-02-15T12:07:19.000Z</time>
      </trkpt>
      <trkpt lat="43.53625" lon="5.57089">
        <ele>671</ele>
        <time>2022-02-15T12:07:20.000Z</time>
      </trkpt>
      <trkpt lat="43.53625" lon="5.57089">
        <ele>671</ele>
        <time>2022-02-15T12:07:21.000Z</time>
      </trkpt>
      <trkpt lat="43.53625" lon="5.57088">
        <ele>670</ele>
        <time>2022-02-15T12:07:22.000Z</time>
      </trkpt>
      <trkpt lat="43.53624" lon="5.57088">
        <ele>670</ele>
        <time>2022-02-15T12:07:23.000Z</time>
      </trkpt>
      <trkpt lat="43.53623" lon="5.57087">
        <ele>670</ele>
        <time>2022-02-15T12:07:24.000Z</time>
      </trkpt>
      <trkpt lat="43.53623" lon="5.57087">
        <ele>670</ele>
        <time>2022-02-15T12:07:25.000Z</time>
      </trkpt>
      <trkpt lat="43.53623" lon="5.57088">
        <ele>670</ele>
        <time>2022-02-15T12:07:26.000Z</time>
      </trkpt>
      <trkpt lat="43.53622" lon="5.57088">
        <ele>670</ele>
        <time>2022-02-15T12:07:27.000Z</time>
      </trkpt>
      <trkpt lat="43.53622" lon="5.57088">
        <ele>670</ele>
        <time>2022-02-15T12:07:28.000Z</time>
      </trkpt>
      <trkpt lat="43.53621" lon="5.57088">
        <ele>670</ele>
        <time>2022-02-15T12:07:29.000Z</time>
      </trkpt>
      <trkpt lat="43.53621" lon="5.57088">
        <ele>670</ele>
        <time>2022-02-15T12:07:30.000Z</time>
      </trkpt>
      <trkpt lat="43.5362" lon="5.57087">
        <ele>670</ele>
        <time>2022-02-15T12:07:31.000Z</time>
      </trkpt>
      <trkpt lat="43.5362" lon="5.57087">
        <ele>670</ele>
        <time>2022-02-15T12:07:32.000Z</time>
      </trkpt>
      <trkpt lat="43.5362" lon="5.57087">
        <ele>670</ele>
        <time>2022-02-15T12:07:33.000Z</time>
      </trkpt>
      <trkpt lat="43.5362" lon="5.57086">
        <ele>670</ele>
        <time>2022-02-15T12:07:34.000Z</time>
      </trkpt>
      <trkpt lat="43.53621" lon="5.57086">
        <ele>670</ele>
        <time>2022-02-15T12:07:35.000Z</time>
      </trkpt>
      <trkpt lat="43.53621" lon="5.57086">
        <ele>669</ele>
        <time>2022-02-15T12:07:36.000Z</time>
      </trkpt>
      <trkpt lat="43.53621" lon="5.57085">
        <ele>669</ele>
        <time>2022-02-15T12:07:37.000Z</time>
      </trkpt>
      <trkpt lat="43.5362" lon="5.57085">
        <ele>669</ele>
        <time>2022-02-15T12:07:38.000Z</time>
      </trkpt>
      <trkpt lat="43.5362" lon="5.57085">
        <ele>669</ele>
        <time>2022-02-15T12:07:39.000Z</time>
      </trkpt>
      <trkpt lat="43.53619" lon="5.57084">
        <ele>669</ele>
        <time>2022-02-15T12:07:40.000Z</time>
      </trkpt>
      <trkpt lat="43.53619" lon="5.57084">
        <ele>669</ele>
        <time>2022-02-15T12:07:41.000Z</time>
      </trkpt>
      <trkpt lat="43.53619" lon="5.57083">
        <ele>669</ele>
        <time>2022-02-15T12:07:42.000Z</time>
      </trkpt>
      <trkpt lat="43.53619" lon="5.57083">
        <ele>668</ele>
        <time>2022-02-15T12:07:43.000Z</time>
      </trkpt>
      <trkpt lat="43.53619" lon="5.57083">
        <ele>668</ele>
        <time>2022-02-15T12:07:44.000Z</time>
      </trkpt>
      <trkpt lat="43.53619" lon="5.57082">
        <ele>668</ele>
        <time>2022-02-15T12:07:45.000Z</time>
      </trkpt>
      <trkpt lat="43.53618" lon="5.57082">
        <ele>668</ele>
        <time>2022-02-15T12:07:46.000Z</time>
      </trkpt>
      <trkpt lat="43.53618" lon="5.57081">
        <ele>668</ele>
        <time>2022-02-15T12:07:47.000Z</time>
      </trkpt>
      <trkpt lat="43.53617" lon="5.57081">
        <ele>668</ele>
        <time>2022-02-15T12:07:48.000Z</time>
      </trkpt>
      <trkpt lat="43.53617" lon="5.5708">
        <ele>667</ele>
        <time>2022-02-15T12:07:49.000Z</time>
      </trkpt>
      <trkpt lat="43.53617" lon="5.5708">
        <ele>667</ele>
        <time>2022-02-15T12:07:50.000Z</time>
      </trkpt>
      <trkpt lat="43.53616" lon="5.5708">
        <ele>667</ele>
        <time>2022-02-15T12:07:51.000Z</time>
      </trkpt>
      <trkpt lat="43.53616" lon="5.57079">
        <ele>667</ele>
        <time>2022-02-15T12:07:52.000Z</time>
      </trkpt>
      <trkpt lat="43.53616" lon="5.57079">
        <ele>667</ele>
        <time>2022-02-15T12:07:53.000Z</time>
      </trkpt>
      <trkpt lat="43.53615" lon="5.57079">
        <ele>667</ele>
        <time>2022-02-15T12:07:54.000Z</time>
      </trkpt>
      <trkpt lat="43.53614" lon="5.57079">
        <ele>666</ele>
        <time>2022-02-15T12:07:55.000Z</time>
      </trkpt>
      <trkpt lat="43.53614" lon="5.57079">
        <ele>666</ele>
        <time>2022-02-15T12:07:56.000Z</time>
      </trkpt>
      <trkpt lat="43.53613" lon="5.57079">
        <ele>666</ele>
        <time>2022-02-15T12:07:57.000Z</time>
      </trkpt>
      <trkpt lat="43.53613" lon="5.57079">
        <ele>666</ele>
        <time>2022-02-15T12:07:58.000Z</time>
      </trkpt>
      <trkpt lat="43.53613" lon="5.57079">
        <ele>666</ele>
        <time>2022-02-15T12:07:59.000Z</time>
      </trkpt>
      <trkpt lat="43.53613" lon="5.57079">
        <ele>666</ele>
        <time>2022-02-15T12:08:00.000Z</time>
      </trkpt>
      <trkpt lat="43.53612" lon="5.57079">
        <ele>666</ele>
        <time>2022-02-15T12:08:01.000Z</time>
      </trkpt>
      <trkpt lat="43.53612" lon="5.5708">
        <ele>665</ele>
        <time>2022-02-15T12:08:02.000Z</time>
      </trkpt>
      <trkpt lat="43.53612" lon="5.5708">
        <ele>665</ele>
        <time>2022-02-15T12:08:03.000Z</time>
      </trkpt>
      <trkpt lat="43.53612" lon="5.5708">
        <ele>665</ele>
        <time>2022-02-15T12:08:04.000Z</time>
      </trkpt>
      <trkpt lat="43.53612" lon="5.5708">
        <ele>665</ele>
        <time>2022-02-15T12:08:05.000Z</time>
      </trkpt>
      <trkpt lat="43.53612" lon="5.5708">
        <ele>665</ele>
        <time>2022-02-15T12:08:06.000Z</time>
      </trkpt>
      <trkpt lat="43.53612" lon="5.5708">
        <ele>665</ele>
        <time>2022-02-15T12:08:07.000Z</time>
      </trkpt>
      <trkpt lat="43.53612" lon="5.5708">
        <ele>665</ele>
        <time>2022-02-15T12:08:08.000Z</time>
      </trkpt>
      <trkpt lat="43.53611" lon="5.5708">
        <ele>665</ele>
        <time>2022-02-15T12:08:09.000Z</time>
      </trkpt>
      <trkpt lat="43.53611" lon="5.5708">
        <ele>665</ele>
        <time>2022-02-15T12:08:10.000Z</time>
      </trkpt>
      <trkpt lat="43.5361" lon="5.57081">
        <ele>664</ele>
        <time>2022-02-15T12:08:11.000Z</time>
      </trkpt>
      <trkpt lat="43.5361" lon="5.57081">
        <ele>664</ele>
        <time>2022-02-15T12:08:12.000Z</time>
      </trkpt>
      <trkpt lat="43.5361" lon="5.57081">
        <ele>664</ele>
        <time>2022-02-15T12:08:13.000Z</time>
      </trkpt>
      <trkpt lat="43.5361" lon="5.57081">
        <ele>664</ele>
        <time>2022-02-15T12:08:14.000Z</time>
      </trkpt>
      <trkpt lat="43.5361" lon="5.57081">
        <ele>664</ele>
        <time>2022-02-15T12:08:15.000Z</time>
      </trkpt>
      <trkpt lat="43.5361" lon="5.57081">
        <ele>664</ele>
        <time>2022-02-15T12:08:16.000Z</time>
      </trkpt>
      <trkpt lat="43.5361" lon="5.57081">
        <ele>664</ele>
        <time>2022-02-15T12:08:17.000Z</time>
      </trkpt>
      <trkpt lat="43.5361" lon="5.57081">
        <ele>664</ele>
        <time>2022-02-15T12:08:18.000Z</time>
      </trkpt>
      <trkpt lat="43.5361" lon="5.57081">
        <ele>664</ele>
        <time>2022-02-15T12:08:19.000Z</time>
      </trkpt>
      <trkpt lat="43.5361" lon="5.57081">
        <ele>664</ele>
        <time>2022-02-15T12:08:20.000Z</time>
      </trkpt>
      <trkpt lat="43.5361" lon="5.57081">
        <ele>663</ele>
        <time>2022-02-15T12:08:21.000Z</time>
      </trkpt>
      <trkpt lat="43.5361" lon="5.57081">
        <ele>663</ele>
        <time>2022-02-15T12:08:22.000Z</time>
      </trkpt>
      <trkpt lat="43.53611" lon="5.5708">
        <ele>663</ele>
        <time>2022-02-15T12:08:23.000Z</time>
      </trkpt>
      <trkpt lat="43.53611" lon="5.5708">
        <ele>663</ele>
        <time>2022-02-15T12:08:24.000Z</time>
      </trkpt>
      <trkpt lat="43.53611" lon="5.5708">
        <ele>663</ele>
        <time>2022-02-15T12:08:25.000Z</time>
      </trkpt>
      <trkpt lat="43.5361" lon="5.5708">
        <ele>663</ele>
        <time>2022-02-15T12:08:26.000Z</time>
      </trkpt>
      <trkpt lat="43.5361" lon="5.5708">
        <ele>663</ele>
        <time>2022-02-15T12:08:27.000Z</time>
      </trkpt>
      <trkpt lat="43.5361" lon="5.5708">
        <ele>663</ele>
        <time>2022-02-15T12:08:28.000Z</time>
      </trkpt>
      <trkpt lat="43.5361" lon="5.5708">
        <ele>663</ele>
        <time>2022-02-15T12:08:29.000Z</time>
      </trkpt>
      <trkpt lat="43.5361" lon="5.5708">
        <ele>663</ele>
        <time>2022-02-15T12:08:30.000Z</time>
      </trkpt>
      <trkpt lat="43.5361" lon="5.5708">
        <ele>663</ele>
        <time>2022-02-15T12:08:31.000Z</time>
      </trkpt>
      <trkpt lat="43.5361" lon="5.5708">
        <ele>663</ele>
        <time>2022-02-15T12:08:32.000Z</time>
      </trkpt>
      <trkpt lat="43.5361" lon="5.5708">
        <ele>663</ele>
        <time>2022-02-15T12:08:33.000Z</time>
      </trkpt>
      <trkpt lat="43.5361" lon="5.5708">
        <ele>663</ele>
        <time>2022-02-15T12:08:34.000Z</time>
      </trkpt>
      <trkpt lat="43.5361" lon="5.5708">
        <ele>663</ele>
        <time>2022-02-15T12:08:35.000Z</time>
      </trkpt>
      <trkpt lat="43.5361" lon="5.57079">
        <ele>663</ele>
        <time>2022-02-15T12:08:36.000Z</time>
      </trkpt>
      <trkpt lat="43.5361" lon="5.57079">
        <ele>663</ele>
        <time>2022-02-15T12:08:37.000Z</time>
      </trkpt>
      <trkpt lat="43.53609" lon="5.57079">
        <ele>663</ele>
        <time>2022-02-15T12:08:38.000Z</time>
      </trkpt>
      <trkpt lat="43.53609" lon="5.57079">
        <ele>663</ele>
        <time>2022-02-15T12:08:39.000Z</time>
      </trkpt>
      <trkpt lat="43.53609" lon="5.57078">
        <ele>663</ele>
        <time>2022-02-15T12:08:40.000Z</time>
      </trkpt>
      <trkpt lat="43.53609" lon="5.57078">
        <ele>663</ele>
        <time>2022-02-15T12:08:41.000Z</time>
      </trkpt>
      <trkpt lat="43.53609" lon="5.57078">
        <ele>663</ele>
        <time>2022-02-15T12:08:42.000Z</time>
      </trkpt>
      <trkpt lat="43.53608" lon="5.57078">
        <ele>663</ele>
        <time>2022-02-15T12:08:43.000Z</time>
      </trkpt>
      <trkpt lat="43.53608" lon="5.57077">
        <ele>662</ele>
        <time>2022-02-15T12:08:44.000Z</time>
      </trkpt>
      <trkpt lat="43.53607" lon="5.57078">
        <ele>662</ele>
        <time>2022-02-15T12:08:45.000Z</time>
      </trkpt>
      <trkpt lat="43.53607" lon="5.57078">
        <ele>662</ele>
        <time>2022-02-15T12:08:46.000Z</time>
      </trkpt>
      <trkpt lat="43.53606" lon="5.57078">
        <ele>662</ele>
        <time>2022-02-15T12:08:47.000Z</time>
      </trkpt>
      <trkpt lat="43.53605" lon="5.57079">
        <ele>662</ele>
        <time>2022-02-15T12:08:48.000Z</time>
      </trkpt>
      <trkpt lat="43.53605" lon="5.57079">
        <ele>661</ele>
        <time>2022-02-15T12:08:49.000Z</time>
      </trkpt>
      <trkpt lat="43.53604" lon="5.57079">
        <ele>661</ele>
        <time>2022-02-15T12:08:50.000Z</time>
      </trkpt>
      <trkpt lat="43.53604" lon="5.57079">
        <ele>661</ele>
        <time>2022-02-15T12:08:51.000Z</time>
      </trkpt>
      <trkpt lat="43.53603" lon="5.57079">
        <ele>661</ele>
        <time>2022-02-15T12:08:52.000Z</time>
      </trkpt>
      <trkpt lat="43.53603" lon="5.5708">
        <ele>661</ele>
        <time>2022-02-15T12:08:53.000Z</time>
      </trkpt>
      <trkpt lat="43.53603" lon="5.57081">
        <ele>661</ele>
        <time>2022-02-15T12:08:54.000Z</time>
      </trkpt>
      <trkpt lat="43.53602" lon="5.57081">
        <ele>660</ele>
        <time>2022-02-15T12:08:55.000Z</time>
      </trkpt>
      <trkpt lat="43.53601" lon="5.57081">
        <ele>660</ele>
        <time>2022-02-15T12:08:56.000Z</time>
      </trkpt>
      <trkpt lat="43.53601" lon="5.57081">
        <ele>660</ele>
        <time>2022-02-15T12:08:57.000Z</time>
      </trkpt>
      <trkpt lat="43.53601" lon="5.5708">
        <ele>660</ele>
        <time>2022-02-15T12:08:58.000Z</time>
      </trkpt>
      <trkpt lat="43.53601" lon="5.5708">
        <ele>660</ele>
        <time>2022-02-15T12:08:59.000Z</time>
      </trkpt>
      <trkpt lat="43.536" lon="5.5708">
        <ele>660</ele>
        <time>2022-02-15T12:09:00.000Z</time>
      </trkpt>
      <trkpt lat="43.536" lon="5.5708">
        <ele>660</ele>
        <time>2022-02-15T12:09:01.000Z</time>
      </trkpt>
      <trkpt lat="43.536" lon="5.57079">
        <ele>660</ele>
        <time>2022-02-15T12:09:02.000Z</time>
      </trkpt>
      <trkpt lat="43.53599" lon="5.57079">
        <ele>660</ele>
        <time>2022-02-15T12:09:03.000Z</time>
      </trkpt>
      <trkpt lat="43.53599" lon="5.57079">
        <ele>660</ele>
        <time>2022-02-15T12:09:04.000Z</time>
      </trkpt>
      <trkpt lat="43.53599" lon="5.57079">
        <ele>659</ele>
        <time>2022-02-15T12:09:05.000Z</time>
      </trkpt>
      <trkpt lat="43.53598" lon="5.57079">
        <ele>659</ele>
        <time>2022-02-15T12:09:06.000Z</time>
      </trkpt>
      <trkpt lat="43.53598" lon="5.57079">
        <ele>659</ele>
        <time>2022-02-15T12:09:07.000Z</time>
      </trkpt>
      <trkpt lat="43.53598" lon="5.57079">
        <ele>659</ele>
        <time>2022-02-15T12:09:08.000Z</time>
      </trkpt>
      <trkpt lat="43.53597" lon="5.57079">
        <ele>659</ele>
        <time>2022-02-15T12:09:09.000Z</time>
      </trkpt>
      <trkpt lat="43.53597" lon="5.5708">
        <ele>659</ele>
        <time>2022-02-15T12:09:10.000Z</time>
      </trkpt>
      <trkpt lat="43.53597" lon="5.5708">
        <ele>659</ele>
        <time>2022-02-15T12:09:11.000Z</time>
      </trkpt>
      <trkpt lat="43.53597" lon="5.5708">
        <ele>658</ele>
        <time>2022-02-15T12:09:12.000Z</time>
      </trkpt>
      <trkpt lat="43.53596" lon="5.5708">
        <ele>658</ele>
        <time>2022-02-15T12:09:13.000Z</time>
      </trkpt>
      <trkpt lat="43.53596" lon="5.5708">
        <ele>658</ele>
        <time>2022-02-15T12:09:14.000Z</time>
      </trkpt>
      <trkpt lat="43.53596" lon="5.5708">
        <ele>658</ele>
        <time>2022-02-15T12:09:15.000Z</time>
      </trkpt>
      <trkpt lat="43.53595" lon="5.5708">
        <ele>658</ele>
        <time>2022-02-15T12:09:16.000Z</time>
      </trkpt>
      <trkpt lat="43.53594" lon="5.5708">
        <ele>658</ele>
        <time>2022-02-15T12:09:17.000Z</time>
      </trkpt>
      <trkpt lat="43.53594" lon="5.5708">
        <ele>658</ele>
        <time>2022-02-15T12:09:18.000Z</time>
      </trkpt>
      <trkpt lat="43.53593" lon="5.5708">
        <ele>658</ele>
        <time>2022-02-15T12:09:19.000Z</time>
      </trkpt>
      <trkpt lat="43.53593" lon="5.5708">
        <ele>657</ele>
        <time>2022-02-15T12:09:20.000Z</time>
      </trkpt>
      <trkpt lat="43.53592" lon="5.5708">
        <ele>657</ele>
        <time>2022-02-15T12:09:21.000Z</time>
      </trkpt>
      <trkpt lat="43.53592" lon="5.57079">
        <ele>657</ele>
        <time>2022-02-15T12:09:22.000Z</time>
      </trkpt>
      <trkpt lat="43.53592" lon="5.57079">
        <ele>657</ele>
        <time>2022-02-15T12:09:23.000Z</time>
      </trkpt>
      <trkpt lat="43.53591" lon="5.57079">
        <ele>657</ele>
        <time>2022-02-15T12:09:24.000Z</time>
      </trkpt>
      <trkpt lat="43.53591" lon="5.5708">
        <ele>657</ele>
        <time>2022-02-15T12:09:25.000Z</time>
      </trkpt>
      <trkpt lat="43.53591" lon="5.5708">
        <ele>656</ele>
        <time>2022-02-15T12:09:26.000Z</time>
      </trkpt>
      <trkpt lat="43.5359" lon="5.5708">
        <ele>656</ele>
        <time>2022-02-15T12:09:27.000Z</time>
      </trkpt>
      <trkpt lat="43.53589" lon="5.5708">
        <ele>656</ele>
        <time>2022-02-15T12:09:28.000Z</time>
      </trkpt>
      <trkpt lat="43.53589" lon="5.57079">
        <ele>656</ele>
        <time>2022-02-15T12:09:29.000Z</time>
      </trkpt>
      <trkpt lat="43.53589" lon="5.57079">
        <ele>656</ele>
        <time>2022-02-15T12:09:30.000Z</time>
      </trkpt>
      <trkpt lat="43.53588" lon="5.57079">
        <ele>655</ele>
        <time>2022-02-15T12:09:31.000Z</time>
      </trkpt>
      <trkpt lat="43.53587" lon="5.57078">
        <ele>655</ele>
        <time>2022-02-15T12:09:32.000Z</time>
      </trkpt>
      <trkpt lat="43.53587" lon="5.57078">
        <ele>655</ele>
        <time>2022-02-15T12:09:33.000Z</time>
      </trkpt>
      <trkpt lat="43.53587" lon="5.57078">
        <ele>655</ele>
        <time>2022-02-15T12:09:34.000Z</time>
      </trkpt>
      <trkpt lat="43.53586" lon="5.57078">
        <ele>655</ele>
        <time>2022-02-15T12:09:35.000Z</time>
      </trkpt>
      <trkpt lat="43.53586" lon="5.57078">
        <ele>655</ele>
        <time>2022-02-15T12:09:36.000Z</time>
      </trkpt>
      <trkpt lat="43.53586" lon="5.57078">
        <ele>655</ele>
        <time>2022-02-15T12:09:37.000Z</time>
      </trkpt>
      <trkpt lat="43.53586" lon="5.57078">
        <ele>655</ele>
        <time>2022-02-15T12:09:38.000Z</time>
      </trkpt>
      <trkpt lat="43.53586" lon="5.57078">
        <ele>655</ele>
        <time>2022-02-15T12:09:39.000Z</time>
      </trkpt>
      <trkpt lat="43.53586" lon="5.57078">
        <ele>655</ele>
        <time>2022-02-15T12:09:40.000Z</time>
      </trkpt>
      <trkpt lat="43.53586" lon="5.57077">
        <ele>654</ele>
        <time>2022-02-15T12:09:41.000Z</time>
      </trkpt>
      <trkpt lat="43.53586" lon="5.57078">
        <ele>654</ele>
        <time>2022-02-15T12:09:42.000Z</time>
      </trkpt>
      <trkpt lat="43.53586" lon="5.57078">
        <ele>654</ele>
        <time>2022-02-15T12:09:43.000Z</time>
      </trkpt>
      <trkpt lat="43.53586" lon="5.57078">
        <ele>654</ele>
        <time>2022-02-15T12:09:44.000Z</time>
      </trkpt>
      <trkpt lat="43.53586" lon="5.57078">
        <ele>654</ele>
        <time>2022-02-15T12:09:45.000Z</time>
      </trkpt>
      <trkpt lat="43.53586" lon="5.57078">
        <ele>654</ele>
        <time>2022-02-15T12:09:46.000Z</time>
      </trkpt>
      <trkpt lat="43.53586" lon="5.57078">
        <ele>654</ele>
        <time>2022-02-15T12:09:47.000Z</time>
      </trkpt>
      <trkpt lat="43.53586" lon="5.57078">
        <ele>654</ele>
        <time>2022-02-15T12:09:48.000Z</time>
      </trkpt>
      <trkpt lat="43.53586" lon="5.57078">
        <ele>654</ele>
        <time>2022-02-15T12:09:49.000Z</time>
      </trkpt>
      <trkpt lat="43.53586" lon="5.57078">
        <ele>654</ele>
        <time>2022-02-15T12:09:50.000Z</time>
      </trkpt>
      <trkpt lat="43.53586" lon="5.57078">
        <ele>654</ele>
        <time>2022-02-15T12:09:51.000Z</time>
      </trkpt>
      <trkpt lat="43.53586" lon="5.57078">
        <ele>654</ele>
        <time>2022-02-15T12:09:52.000Z</time>
      </trkpt>
      <trkpt lat="43.53585" lon="5.57078">
        <ele>654</ele>
        <time>2022-02-15T12:09:53.000Z</time>
      </trkpt>
      <trkpt lat="43.53585" lon="5.57078">
        <ele>654</ele>
        <time>2022-02-15T12:09:54.000Z</time>
      </trkpt>
      <trkpt lat="43.53584" lon="5.57078">
        <ele>653</ele>
        <time>2022-02-15T12:09:55.000Z</time>
      </trkpt>
      <trkpt lat="43.53584" lon="5.57077">
        <ele>653</ele>
        <time>2022-02-15T12:09:56.000Z</time>
      </trkpt>
      <trkpt lat="43.53584" lon="5.57077">
        <ele>653</ele>
        <time>2022-02-15T12:09:57.000Z</time>
      </trkpt>
      <trkpt lat="43.53583" lon="5.57077">
        <ele>652</ele>
        <time>2022-02-15T12:09:58.000Z</time>
      </trkpt>
      <trkpt lat="43.53583" lon="5.57077">
        <ele>652</ele>
        <time>2022-02-15T12:09:59.000Z</time>
      </trkpt>
      <trkpt lat="43.53583" lon="5.57077">
        <ele>652</ele>
        <time>2022-02-15T12:10:00.000Z</time>
      </trkpt>
      <trkpt lat="43.53582" lon="5.57076">
        <ele>652</ele>
        <time>2022-02-15T12:10:01.000Z</time>
      </trkpt>
      <trkpt lat="43.53582" lon="5.57076">
        <ele>652</ele>
        <time>2022-02-15T12:10:02.000Z</time>
      </trkpt>
      <trkpt lat="43.53582" lon="5.57076">
        <ele>652</ele>
        <time>2022-02-15T12:10:03.000Z</time>
      </trkpt>
      <trkpt lat="43.53582" lon="5.57076">
        <ele>652</ele>
        <time>2022-02-15T12:10:04.000Z</time>
      </trkpt>
      <trkpt lat="43.53581" lon="5.57076">
        <ele>652</ele>
        <time>2022-02-15T12:10:05.000Z</time>
      </trkpt>
      <trkpt lat="43.53581" lon="5.57077">
        <ele>651</ele>
        <time>2022-02-15T12:10:06.000Z</time>
      </trkpt>
      <trkpt lat="43.5358" lon="5.57077">
        <ele>651</ele>
        <time>2022-02-15T12:10:07.000Z</time>
      </trkpt>
      <trkpt lat="43.5358" lon="5.57077">
        <ele>651</ele>
        <time>2022-02-15T12:10:08.000Z</time>
      </trkpt>
      <trkpt lat="43.53579" lon="5.57077">
        <ele>651</ele>
        <time>2022-02-15T12:10:09.000Z</time>
      </trkpt>
      <trkpt lat="43.53579" lon="5.57076">
        <ele>651</ele>
        <time>2022-02-15T12:10:10.000Z</time>
      </trkpt>
      <trkpt lat="43.53579" lon="5.57075">
        <ele>651</ele>
        <time>2022-02-15T12:10:11.000Z</time>
      </trkpt>
      <trkpt lat="43.53578" lon="5.57075">
        <ele>651</ele>
        <time>2022-02-15T12:10:12.000Z</time>
      </trkpt>
      <trkpt lat="43.53578" lon="5.57075">
        <ele>651</ele>
        <time>2022-02-15T12:10:13.000Z</time>
      </trkpt>
      <trkpt lat="43.53578" lon="5.57075">
        <ele>651</ele>
        <time>2022-02-15T12:10:14.000Z</time>
      </trkpt>
      <trkpt lat="43.53577" lon="5.57075">
        <ele>651</ele>
        <time>2022-02-15T12:10:15.000Z</time>
      </trkpt>
      <trkpt lat="43.53577" lon="5.57074">
        <ele>651</ele>
        <time>2022-02-15T12:10:16.000Z</time>
      </trkpt>
      <trkpt lat="43.53577" lon="5.57075">
        <ele>651</ele>
        <time>2022-02-15T12:10:17.000Z</time>
      </trkpt>
      <trkpt lat="43.53576" lon="5.57075">
        <ele>650</ele>
        <time>2022-02-15T12:10:18.000Z</time>
      </trkpt>
      <trkpt lat="43.53575" lon="5.57074">
        <ele>650</ele>
        <time>2022-02-15T12:10:19.000Z</time>
      </trkpt>
      <trkpt lat="43.53575" lon="5.57074">
        <ele>650</ele>
        <time>2022-02-15T12:10:20.000Z</time>
      </trkpt>
      <trkpt lat="43.53574" lon="5.57073">
        <ele>650</ele>
        <time>2022-02-15T12:10:21.000Z</time>
      </trkpt>
      <trkpt lat="43.53574" lon="5.57072">
        <ele>650</ele>
        <time>2022-02-15T12:10:22.000Z</time>
      </trkpt>
      <trkpt lat="43.53573" lon="5.57072">
        <ele>650</ele>
        <time>2022-02-15T12:10:23.000Z</time>
      </trkpt>
      <trkpt lat="43.53572" lon="5.57072">
        <ele>650</ele>
        <time>2022-02-15T12:10:24.000Z</time>
      </trkpt>
      <trkpt lat="43.53572" lon="5.57072">
        <ele>650</ele>
        <time>2022-02-15T12:10:25.000Z</time>
      </trkpt>
      <trkpt lat="43.53571" lon="5.57072">
        <ele>649</ele>
        <time>2022-02-15T12:10:26.000Z</time>
      </trkpt>
      <trkpt lat="43.53571" lon="5.57071">
        <ele>649</ele>
        <time>2022-02-15T12:10:27.000Z</time>
      </trkpt>
      <trkpt lat="43.53571" lon="5.5707">
        <ele>649</ele>
        <time>2022-02-15T12:10:28.000Z</time>
      </trkpt>
      <trkpt lat="43.5357" lon="5.5707">
        <ele>649</ele>
        <time>2022-02-15T12:10:29.000Z</time>
      </trkpt>
      <trkpt lat="43.5357" lon="5.5707">
        <ele>649</ele>
        <time>2022-02-15T12:10:30.000Z</time>
      </trkpt>
      <trkpt lat="43.5357" lon="5.5707">
        <ele>649</ele>
        <time>2022-02-15T12:10:31.000Z</time>
      </trkpt>
      <trkpt lat="43.53569" lon="5.5707">
        <ele>649</ele>
        <time>2022-02-15T12:10:32.000Z</time>
      </trkpt>
      <trkpt lat="43.53569" lon="5.5707">
        <ele>649</ele>
        <time>2022-02-15T12:10:33.000Z</time>
      </trkpt>
      <trkpt lat="43.5357" lon="5.5707">
        <ele>649</ele>
        <time>2022-02-15T12:10:34.000Z</time>
      </trkpt>
      <trkpt lat="43.5357" lon="5.5707">
        <ele>649</ele>
        <time>2022-02-15T12:10:35.000Z</time>
      </trkpt>
      <trkpt lat="43.5357" lon="5.57071">
        <ele>649</ele>
        <time>2022-02-15T12:10:36.000Z</time>
      </trkpt>
      <trkpt lat="43.5357" lon="5.57071">
        <ele>648</ele>
        <time>2022-02-15T12:10:37.000Z</time>
      </trkpt>
      <trkpt lat="43.5357" lon="5.5707">
        <ele>648</ele>
        <time>2022-02-15T12:10:38.000Z</time>
      </trkpt>
      <trkpt lat="43.5357" lon="5.5707">
        <ele>648</ele>
        <time>2022-02-15T12:10:39.000Z</time>
      </trkpt>
      <trkpt lat="43.5357" lon="5.5707">
        <ele>648</ele>
        <time>2022-02-15T12:10:40.000Z</time>
      </trkpt>
      <trkpt lat="43.5357" lon="5.5707">
        <ele>648</ele>
        <time>2022-02-15T12:10:41.000Z</time>
      </trkpt>
      <trkpt lat="43.5357" lon="5.57069">
        <ele>648</ele>
        <time>2022-02-15T12:10:42.000Z</time>
      </trkpt>
      <trkpt lat="43.5357" lon="5.5707">
        <ele>648</ele>
        <time>2022-02-15T12:10:43.000Z</time>
      </trkpt>
      <trkpt lat="43.5357" lon="5.5707">
        <ele>648</ele>
        <time>2022-02-15T12:10:44.000Z</time>
      </trkpt>
      <trkpt lat="43.5357" lon="5.5707">
        <ele>648</ele>
        <time>2022-02-15T12:10:45.000Z</time>
      </trkpt>
      <trkpt lat="43.5357" lon="5.5707">
        <ele>648</ele>
        <time>2022-02-15T12:10:46.000Z</time>
      </trkpt>
      <trkpt lat="43.5357" lon="5.5707">
        <ele>648</ele>
        <time>2022-02-15T12:10:47.000Z</time>
      </trkpt>
      <trkpt lat="43.5357" lon="5.5707">
        <ele>648</ele>
        <time>2022-02-15T12:10:48.000Z</time>
      </trkpt>
      <trkpt lat="43.5357" lon="5.5707">
        <ele>647</ele>
        <time>2022-02-15T12:10:49.000Z</time>
      </trkpt>
      <trkpt lat="43.5357" lon="5.5707">
        <ele>647</ele>
        <time>2022-02-15T12:10:50.000Z</time>
      </trkpt>
      <trkpt lat="43.5357" lon="5.5707">
        <ele>647</ele>
        <time>2022-02-15T12:10:51.000Z</time>
      </trkpt>
      <trkpt lat="43.5357" lon="5.5707">
        <ele>647</ele>
        <time>2022-02-15T12:10:52.000Z</time>
      </trkpt>
      <trkpt lat="43.5357" lon="5.5707">
        <ele>647</ele>
        <time>2022-02-15T12:10:53.000Z</time>
      </trkpt>
      <trkpt lat="43.5357" lon="5.5707">
        <ele>647</ele>
        <time>2022-02-15T12:10:54.000Z</time>
      </trkpt>
      <trkpt lat="43.5357" lon="5.5707">
        <ele>647</ele>
        <time>2022-02-15T12:10:55.000Z</time>
      </trkpt>
      <trkpt lat="43.5357" lon="5.5707">
        <ele>647</ele>
        <time>2022-02-15T12:10:56.000Z</time>
      </trkpt>
      <trkpt lat="43.5357" lon="5.5707">
        <ele>647</ele>
        <time>2022-02-15T12:10:57.000Z</time>
      </trkpt>
      <trkpt lat="43.5357" lon="5.5707">
        <ele>647</ele>
        <time>2022-02-15T12:10:58.000Z</time>
      </trkpt>
      <trkpt lat="43.5357" lon="5.5707">
        <ele>647</ele>
        <time>2022-02-15T12:10:59.000Z</time>
      </trkpt>
      <trkpt lat="43.5357" lon="5.5707">
        <ele>647</ele>
        <time>2022-02-15T12:11:00.000Z</time>
      </trkpt>
      <trkpt lat="43.5357" lon="5.5707">
        <ele>647</ele>
        <time>2022-02-15T12:11:01.000Z</time>
      </trkpt>
      <trkpt lat="43.5357" lon="5.5707">
        <ele>647</ele>
        <time>2022-02-15T12:11:02.000Z</time>
      </trkpt>
      <trkpt lat="43.5357" lon="5.5707">
        <ele>647</ele>
        <time>2022-02-15T12:11:03.000Z</time>
      </trkpt>
      <trkpt lat="43.5357" lon="5.5707">
        <ele>646</ele>
        <time>2022-02-15T12:11:04.000Z</time>
      </trkpt>
      <trkpt lat="43.53571" lon="5.5707">
        <ele>646</ele>
        <time>2022-02-15T12:11:05.000Z</time>
      </trkpt>
      <trkpt lat="43.53571" lon="5.5707">
        <ele>646</ele>
        <time>2022-02-15T12:11:06.000Z</time>
      </trkpt>
      <trkpt lat="43.53571" lon="5.5707">
        <ele>646</ele>
        <time>2022-02-15T12:11:07.000Z</time>
      </trkpt>
      <trkpt lat="43.5357" lon="5.5707">
        <ele>646</ele>
        <time>2022-02-15T12:11:08.000Z</time>
      </trkpt>
      <trkpt lat="43.5357" lon="5.5707">
        <ele>646</ele>
        <time>2022-02-15T12:11:09.000Z</time>
      </trkpt>
      <trkpt lat="43.5357" lon="5.5707">
        <ele>646</ele>
        <time>2022-02-15T12:11:10.000Z</time>
      </trkpt>
      <trkpt lat="43.5357" lon="5.5707">
        <ele>646</ele>
        <time>2022-02-15T12:11:11.000Z</time>
      </trkpt>
      <trkpt lat="43.5357" lon="5.5707">
        <ele>646</ele>
        <time>2022-02-15T12:11:12.000Z</time>
      </trkpt>
      <trkpt lat="43.5357" lon="5.5707">
        <ele>646</ele>
        <time>2022-02-15T12:11:13.000Z</time>
      </trkpt>
      <trkpt lat="43.5357" lon="5.5707">
        <ele>646</ele>
        <time>2022-02-15T12:11:14.000Z</time>
      </trkpt>
      <trkpt lat="43.5357" lon="5.5707">
        <ele>646</ele>
        <time>2022-02-15T12:11:15.000Z</time>
      </trkpt>
      <trkpt lat="43.5357" lon="5.5707">
        <ele>646</ele>
        <time>2022-02-15T12:11:16.000Z</time>
      </trkpt>
      <trkpt lat="43.5357" lon="5.5707">
        <ele>646</ele>
        <time>2022-02-15T12:11:17.000Z</time>
      </trkpt>
      <trkpt lat="43.5357" lon="5.5707">
        <ele>646</ele>
        <time>2022-02-15T12:11:18.000Z</time>
      </trkpt>
      <trkpt lat="43.5357" lon="5.5707">
        <ele>646</ele>
        <time>2022-02-15T12:11:19.000Z</time>
      </trkpt>
      <trkpt lat="43.5357" lon="5.5707">
        <ele>646</ele>
        <time>2022-02-15T12:11:20.000Z</time>
      </trkpt>
      <trkpt lat="43.5357" lon="5.5707">
        <ele>646</ele>
        <time>2022-02-15T12:11:21.000Z</time>
      </trkpt>
      <trkpt lat="43.5357" lon="5.5707">
        <ele>646</ele>
        <time>2022-02-15T12:11:22.000Z</time>
      </trkpt>
      <trkpt lat="43.5357" lon="5.5707">
        <ele>646</ele>
        <time>2022-02-15T12:11:23.000Z</time>
      </trkpt>
      <trkpt lat="43.5357" lon="5.57069">
        <ele>646</ele>
        <time>2022-02-15T12:11:24.000Z</time>
      </trkpt>
      <trkpt lat="43.5357" lon="5.57069">
        <ele>646</ele>
        <time>2022-02-15T12:11:25.000Z</time>
      </trkpt>
      <trkpt lat="43.5357" lon="5.57069">
        <ele>646</ele>
        <time>2022-02-15T12:11:26.000Z</time>
      </trkpt>
      <trkpt lat="43.5357" lon="5.57069">
        <ele>646</ele>
        <time>2022-02-15T12:11:27.000Z</time>
      </trkpt>
      <trkpt lat="43.5357" lon="5.57069">
        <ele>646</ele>
        <time>2022-02-15T12:11:28.000Z</time>
      </trkpt>
      <trkpt lat="43.5357" lon="5.57069">
        <ele>646</ele>
        <time>2022-02-15T12:11:29.000Z</time>
      </trkpt>
      <trkpt lat="43.5357" lon="5.57069">
        <ele>646</ele>
        <time>2022-02-15T12:11:30.000Z</time>
      </trkpt>
      <trkpt lat="43.53571" lon="5.57068">
        <ele>646</ele>
        <time>2022-02-15T12:11:31.000Z</time>
      </trkpt>
      <trkpt lat="43.53571" lon="5.57069">
        <ele>646</ele>
        <time>2022-02-15T12:11:32.000Z</time>
      </trkpt>
      <trkpt lat="43.53571" lon="5.57068">
        <ele>646</ele>
        <time>2022-02-15T12:11:33.000Z</time>
      </trkpt>
      <trkpt lat="43.53571" lon="5.57068">
        <ele>646</ele>
        <time>2022-02-15T12:11:34.000Z</time>
      </trkpt>
      <trkpt lat="43.53571" lon="5.57068">
        <ele>646</ele>
        <time>2022-02-15T12:11:35.000Z</time>
      </trkpt>
      <trkpt lat="43.53571" lon="5.57068">
        <ele>646</ele>
        <time>2022-02-15T12:11:36.000Z</time>
      </trkpt>
      <trkpt lat="43.53571" lon="5.57068">
        <ele>646</ele>
        <time>2022-02-15T12:11:37.000Z</time>
      </trkpt>
      <trkpt lat="43.53571" lon="5.57068">
        <ele>646</ele>
        <time>2022-02-15T12:11:38.000Z</time>
      </trkpt>
      <trkpt lat="43.53571" lon="5.57068">
        <ele>646</ele>
        <time>2022-02-15T12:11:39.000Z</time>
      </trkpt>
      <trkpt lat="43.53571" lon="5.57068">
        <ele>646</ele>
        <time>2022-02-15T12:11:40.000Z</time>
      </trkpt>
      <trkpt lat="43.53571" lon="5.57068">
        <ele>646</ele>
        <time>2022-02-15T12:11:41.000Z</time>
      </trkpt>
      <trkpt lat="43.53571" lon="5.57068">
        <ele>646</ele>
        <time>2022-02-15T12:11:42.000Z</time>
      </trkpt>
      <trkpt lat="43.53571" lon="5.57068">
        <ele>646</ele>
        <time>2022-02-15T12:11:43.000Z</time>
      </trkpt>
      <trkpt lat="43.53571" lon="5.57068">
        <ele>646</ele>
        <time>2022-02-15T12:11:44.000Z</time>
      </trkpt>
      <trkpt lat="43.53571" lon="5.57068">
        <ele>646</ele>
        <time>2022-02-15T12:11:45.000Z</time>
      </trkpt>
      <trkpt lat="43.53571" lon="5.57068">
        <ele>646</ele>
        <time>2022-02-15T12:11:46.000Z</time>
      </trkpt>
      <trkpt lat="43.53571" lon="5.57068">
        <ele>646</ele>
        <time>2022-02-15T12:11:47.000Z</time>
      </trkpt>
      <trkpt lat="43.53571" lon="5.57068">
        <ele>646</ele>
        <time>2022-02-15T12:11:48.000Z</time>
      </trkpt>
      <trkpt lat="43.53571" lon="5.57068">
        <ele>646</ele>
        <time>2022-02-15T12:11:49.000Z</time>
      </trkpt>
      <trkpt lat="43.53571" lon="5.57068">
        <ele>646</ele>
        <time>2022-02-15T12:11:50.000Z</time>
      </trkpt>
      <trkpt lat="43.53571" lon="5.57068">
        <ele>646</ele>
        <time>2022-02-15T12:11:51.000Z</time>
      </trkpt>
      <trkpt lat="43.53571" lon="5.57068">
        <ele>646</ele>
        <time>2022-02-15T12:11:52.000Z</time>
      </trkpt>
      <trkpt lat="43.53571" lon="5.57068">
        <ele>646</ele>
        <time>2022-02-15T12:11:53.000Z</time>
      </trkpt>
      <trkpt lat="43.53571" lon="5.57068">
        <ele>646</ele>
        <time>2022-02-15T12:11:54.000Z</time>
      </trkpt>
      <trkpt lat="43.53571" lon="5.57068">
        <ele>646</ele>
        <time>2022-02-15T12:11:55.000Z</time>
      </trkpt>
      <trkpt lat="43.53571" lon="5.57068">
        <ele>646</ele>
        <time>2022-02-15T12:11:56.000Z</time>
      </trkpt>
      <trkpt lat="43.53571" lon="5.57068">
        <ele>646</ele>
        <time>2022-02-15T12:11:57.000Z</time>
      </trkpt>
      <trkpt lat="43.53571" lon="5.57068">
        <ele>646</ele>
        <time>2022-02-15T12:11:58.000Z</time>
      </trkpt>
      <trkpt lat="43.53571" lon="5.57068">
        <ele>646</ele>
        <time>2022-02-15T12:11:59.000Z</time>
      </trkpt>
      <trkpt lat="43.53571" lon="5.57068">
        <ele>646</ele>
        <time>2022-02-15T12:12:00.000Z</time>
      </trkpt>
      <trkpt lat="43.53571" lon="5.57068">
        <ele>646</ele>
        <time>2022-02-15T12:12:01.000Z</time>
      </trkpt>
      <trkpt lat="43.53571" lon="5.57068">
        <ele>646</ele>
        <time>2022-02-15T12:12:02.000Z</time>
      </trkpt>
      <trkpt lat="43.53571" lon="5.57068">
        <ele>646</ele>
        <time>2022-02-15T12:12:03.000Z</time>
      </trkpt>
      <trkpt lat="43.53571" lon="5.57068">
        <ele>646</ele>
        <time>2022-02-15T12:12:04.000Z</time>
      </trkpt>
      <trkpt lat="43.53571" lon="5.57068">
        <ele>646</ele>
        <time>2022-02-15T12:12:05.000Z</time>
      </trkpt>
      <trkpt lat="43.53571" lon="5.57068">
        <ele>646</ele>
        <time>2022-02-15T12:12:06.000Z</time>
      </trkpt>
      <trkpt lat="43.53571" lon="5.57068">
        <ele>646</ele>
        <time>2022-02-15T12:12:07.000Z</time>
      </trkpt>
      <trkpt lat="43.53571" lon="5.57068">
        <ele>646</ele>
        <time>2022-02-15T12:12:08.000Z</time>
      </trkpt>
      <trkpt lat="43.53571" lon="5.57068">
        <ele>646</ele>
        <time>2022-02-15T12:12:09.000Z</time>
      </trkpt>
      <trkpt lat="43.53571" lon="5.57068">
        <ele>646</ele>
        <time>2022-02-15T12:12:10.000Z</time>
      </trkpt>
      <trkpt lat="43.53571" lon="5.57068">
        <ele>646</ele>
        <time>2022-02-15T12:12:11.000Z</time>
      </trkpt>
      <trkpt lat="43.53571" lon="5.57068">
        <ele>646</ele>
        <time>2022-02-15T12:12:12.000Z</time>
      </trkpt>
      <trkpt lat="43.53571" lon="5.57068">
        <ele>646</ele>
        <time>2022-02-15T12:12:13.000Z</time>
      </trkpt>
      <trkpt lat="43.53571" lon="5.57068">
        <ele>646</ele>
        <time>2022-02-15T12:12:14.000Z</time>
      </trkpt>
      <trkpt lat="43.53571" lon="5.57068">
        <ele>646</ele>
        <time>2022-02-15T12:12:15.000Z</time>
      </trkpt>
      <trkpt lat="43.53571" lon="5.57068">
        <ele>646</ele>
        <time>2022-02-15T12:12:16.000Z</time>
      </trkpt>
      <trkpt lat="43.53571" lon="5.57068">
        <ele>646</ele>
        <time>2022-02-15T12:12:17.000Z</time>
      </trkpt>
      <trkpt lat="43.53571" lon="5.57068">
        <ele>646</ele>
        <time>2022-02-15T12:12:18.000Z</time>
      </trkpt>
      <trkpt lat="43.53571" lon="5.57068">
        <ele>646</ele>
        <time>2022-02-15T12:12:19.000Z</time>
      </trkpt>
      <trkpt lat="43.53571" lon="5.57068">
        <ele>646</ele>
        <time>2022-02-15T12:12:20.000Z</time>
      </trkpt>
      <trkpt lat="43.53571" lon="5.57068">
        <ele>646</ele>
        <time>2022-02-15T12:12:21.000Z</time>
      </trkpt>
      <trkpt lat="43.53571" lon="5.57069">
        <ele>646</ele>
        <time>2022-02-15T12:12:22.000Z</time>
      </trkpt>
      <trkpt lat="43.53571" lon="5.57069">
        <ele>646</ele>
        <time>2022-02-15T12:12:23.000Z</time>
      </trkpt>
      <trkpt lat="43.53571" lon="5.57069">
        <ele>646</ele>
        <time>2022-02-15T12:12:24.000Z</time>
      </trkpt>
      <trkpt lat="43.53571" lon="5.57069">
        <ele>646</ele>
        <time>2022-02-15T12:12:25.000Z</time>
      </trkpt>
      <trkpt lat="43.53571" lon="5.57069">
        <ele>646</ele>
        <time>2022-02-15T12:12:26.000Z</time>
      </trkpt>
      <trkpt lat="43.53571" lon="5.57069">
        <ele>645</ele>
        <time>2022-02-15T12:12:27.000Z</time>
      </trkpt>
      <trkpt lat="43.53571" lon="5.57069">
        <ele>645</ele>
        <time>2022-02-15T12:12:28.000Z</time>
      </trkpt>
      <trkpt lat="43.53571" lon="5.57069">
        <ele>645</ele>
        <time>2022-02-15T12:12:29.000Z</time>
      </trkpt>
      <trkpt lat="43.53571" lon="5.57069">
        <ele>645</ele>
        <time>2022-02-15T12:12:30.000Z</time>
      </trkpt>
      <trkpt lat="43.53571" lon="5.57069">
        <ele>645</ele>
        <time>2022-02-15T12:12:31.000Z</time>
      </trkpt>
      <trkpt lat="43.53571" lon="5.57069">
        <ele>645</ele>
        <time>2022-02-15T12:12:32.000Z</time>
      </trkpt>
      <trkpt lat="43.53571" lon="5.57069">
        <ele>645</ele>
        <time>2022-02-15T12:12:33.000Z</time>
      </trkpt>
      <trkpt lat="43.53571" lon="5.57069">
        <ele>645</ele>
        <time>2022-02-15T12:12:34.000Z</time>
      </trkpt>
      <trkpt lat="43.53571" lon="5.57069">
        <ele>645</ele>
        <time>2022-02-15T12:12:35.000Z</time>
      </trkpt>
      <trkpt lat="43.53571" lon="5.57069">
        <ele>645</ele>
        <time>2022-02-15T12:12:36.000Z</time>
      </trkpt>
      <trkpt lat="43.53571" lon="5.57069">
        <ele>645</ele>
        <time>2022-02-15T12:12:37.000Z</time>
      </trkpt>
      <trkpt lat="43.53571" lon="5.57069">
        <ele>645</ele>
        <time>2022-02-15T12:12:38.000Z</time>
      </trkpt>
      <trkpt lat="43.53571" lon="5.57069">
        <ele>645</ele>
        <time>2022-02-15T12:12:39.000Z</time>
      </trkpt>
      <trkpt lat="43.53571" lon="5.57069">
        <ele>645</ele>
        <time>2022-02-15T12:12:40.000Z</time>
      </trkpt>
      <trkpt lat="43.53571" lon="5.57069">
        <ele>645</ele>
        <time>2022-02-15T12:12:41.000Z</time>
      </trkpt>
      <trkpt lat="43.53571" lon="5.57069">
        <ele>645</ele>
        <time>2022-02-15T12:12:42.000Z</time>
      </trkpt>
      <trkpt lat="43.53571" lon="5.57069">
        <ele>645</ele>
        <time>2022-02-15T12:12:43.000Z</time>
      </trkpt>
      <trkpt lat="43.53571" lon="5.57068">
        <ele>645</ele>
        <time>2022-02-15T12:12:44.000Z</time>
      </trkpt>
      <trkpt lat="43.53571" lon="5.57068">
        <ele>645</ele>
        <time>2022-02-15T12:12:45.000Z</time>
      </trkpt>
      <trkpt lat="43.53571" lon="5.57068">
        <ele>645</ele>
        <time>2022-02-15T12:12:46.000Z</time>
      </trkpt>
      <trkpt lat="43.53571" lon="5.57068">
        <ele>645</ele>
        <time>2022-02-15T12:12:47.000Z</time>
      </trkpt>
      <trkpt lat="43.53571" lon="5.57068">
        <ele>645</ele>
        <time>2022-02-15T12:12:48.000Z</time>
      </trkpt>
      <trkpt lat="43.53571" lon="5.57069">
        <ele>645</ele>
        <time>2022-02-15T12:12:49.000Z</time>
      </trkpt>
      <trkpt lat="43.53571" lon="5.57068">
        <ele>645</ele>
        <time>2022-02-15T12:12:50.000Z</time>
      </trkpt>
      <trkpt lat="43.53571" lon="5.57069">
        <ele>645</ele>
        <time>2022-02-15T12:12:51.000Z</time>
      </trkpt>
      <trkpt lat="43.53571" lon="5.57069">
        <ele>645</ele>
        <time>2022-02-15T12:12:52.000Z</time>
      </trkpt>
      <trkpt lat="43.53571" lon="5.57069">
        <ele>645</ele>
        <time>2022-02-15T12:12:53.000Z</time>
      </trkpt>
      <trkpt lat="43.53571" lon="5.57069">
        <ele>645</ele>
        <time>2022-02-15T12:12:54.000Z</time>
      </trkpt>
      <trkpt lat="43.53571" lon="5.57069">
        <ele>645</ele>
        <time>2022-02-15T12:12:55.000Z</time>
      </trkpt>
      <trkpt lat="43.53571" lon="5.57069">
        <ele>645</ele>
        <time>2022-02-15T12:12:56.000Z</time>
      </trkpt>
      <trkpt lat="43.53571" lon="5.57069">
        <ele>645</ele>
        <time>2022-02-15T12:12:57.000Z</time>
      </trkpt>
      <trkpt lat="43.53571" lon="5.57069">
        <ele>645</ele>
        <time>2022-02-15T12:12:58.000Z</time>
      </trkpt>
      <trkpt lat="43.53571" lon="5.57069">
        <ele>645</ele>
        <time>2022-02-15T12:12:59.000Z</time>
      </trkpt>
      <trkpt lat="43.53571" lon="5.5707">
        <ele>645</ele>
        <time>2022-02-15T12:13:00.000Z</time>
      </trkpt>
      <trkpt lat="43.53571" lon="5.5707">
        <ele>645</ele>
        <time>2022-02-15T12:13:01.000Z</time>
      </trkpt>
      <trkpt lat="43.53571" lon="5.5707">
        <ele>645</ele>
        <time>2022-02-15T12:13:02.000Z</time>
      </trkpt>
      <trkpt lat="43.53571" lon="5.5707">
        <ele>645</ele>
        <time>2022-02-15T12:13:03.000Z</time>
      </trkpt>
      <trkpt lat="43.53571" lon="5.5707">
        <ele>645</ele>
        <time>2022-02-15T12:13:04.000Z</time>
      </trkpt>
      <trkpt lat="43.53571" lon="5.57069">
        <ele>645</ele>
        <time>2022-02-15T12:13:05.000Z</time>
      </trkpt>
      <trkpt lat="43.53571" lon="5.57069">
        <ele>645</ele>
        <time>2022-02-15T12:13:06.000Z</time>
      </trkpt>
      <trkpt lat="43.53571" lon="5.57069">
        <ele>645</ele>
        <time>2022-02-15T12:13:07.000Z</time>
      </trkpt>
      <trkpt lat="43.53571" lon="5.57069">
        <ele>645</ele>
        <time>2022-02-15T12:13:08.000Z</time>
      </trkpt>
      <trkpt lat="43.53571" lon="5.57069">
        <ele>645</ele>
        <time>2022-02-15T12:13:09.000Z</time>
      </trkpt>
      <trkpt lat="43.53571" lon="5.57069">
        <ele>645</ele>
        <time>2022-02-15T12:13:10.000Z</time>
      </trkpt>
      <trkpt lat="43.53571" lon="5.57069">
        <ele>645</ele>
        <time>2022-02-15T12:13:11.000Z</time>
      </trkpt>
      <trkpt lat="43.53571" lon="5.57069">
        <ele>645</ele>
        <time>2022-02-15T12:13:12.000Z</time>
      </trkpt>
      <trkpt lat="43.53571" lon="5.57069">
        <ele>645</ele>
        <time>2022-02-15T12:13:13.000Z</time>
      </trkpt>
      <trkpt lat="43.53571" lon="5.57069">
        <ele>645</ele>
        <time>2022-02-15T12:13:14.000Z</time>
      </trkpt>
      <trkpt lat="43.53571" lon="5.57069">
        <ele>645</ele>
        <time>2022-02-15T12:13:15.000Z</time>
      </trkpt>
      <trkpt lat="43.53571" lon="5.57069">
        <ele>645</ele>
        <time>2022-02-15T12:13:16.000Z</time>
      </trkpt>
      <trkpt lat="43.53571" lon="5.57069">
        <ele>645</ele>
        <time>2022-02-15T12:13:17.000Z</time>
      </trkpt>
      <trkpt lat="43.53571" lon="5.57069">
        <ele>645</ele>
        <time>2022-02-15T12:13:18.000Z</time>
      </trkpt>
      <trkpt lat="43.53571" lon="5.57069">
        <ele>645</ele>
        <time>2022-02-15T12:13:19.000Z</time>
      </trkpt>
      <trkpt lat="43.53571" lon="5.57069">
        <ele>645</ele>
        <time>2022-02-15T12:13:20.000Z</time>
      </trkpt>
      <trkpt lat="43.53571" lon="5.57069">
        <ele>645</ele>
        <time>2022-02-15T12:13:21.000Z</time>
      </trkpt>
      <trkpt lat="43.53571" lon="5.5707">
        <ele>645</ele>
        <time>2022-02-15T12:13:22.000Z</time>
      </trkpt>
      <trkpt lat="43.53571" lon="5.5707">
        <ele>645</ele>
        <time>2022-02-15T12:13:23.000Z</time>
      </trkpt>
      <trkpt lat="43.53571" lon="5.5707">
        <ele>645</ele>
        <time>2022-02-15T12:13:24.000Z</time>
      </trkpt>
      <trkpt lat="43.53571" lon="5.5707">
        <ele>645</ele>
        <time>2022-02-15T12:13:25.000Z</time>
      </trkpt>
      <trkpt lat="43.53571" lon="5.5707">
        <ele>645</ele>
        <time>2022-02-15T12:13:26.000Z</time>
      </trkpt>
      <trkpt lat="43.53571" lon="5.5707">
        <ele>645</ele>
        <time>2022-02-15T12:13:27.000Z</time>
      </trkpt>
      <trkpt lat="43.53571" lon="5.57071">
        <ele>645</ele>
        <time>2022-02-15T12:13:28.000Z</time>
      </trkpt>
      <trkpt lat="43.53571" lon="5.57071">
        <ele>645</ele>
        <time>2022-02-15T12:13:29.000Z</time>
      </trkpt>
      <trkpt lat="43.53571" lon="5.57071">
        <ele>645</ele>
        <time>2022-02-15T12:13:30.000Z</time>
      </trkpt>
      <trkpt lat="43.53572" lon="5.57071">
        <ele>645</ele>
        <time>2022-02-15T12:13:31.000Z</time>
      </trkpt>
      <trkpt lat="43.53571" lon="5.57071">
        <ele>645</ele>
        <time>2022-02-15T12:13:32.000Z</time>
      </trkpt>
      <trkpt lat="43.53571" lon="5.57071">
        <ele>645</ele>
        <time>2022-02-15T12:13:33.000Z</time>
      </trkpt>
      <trkpt lat="43.53571" lon="5.57071">
        <ele>645</ele>
        <time>2022-02-15T12:13:34.000Z</time>
      </trkpt>
      <trkpt lat="43.53571" lon="5.57071">
        <ele>645</ele>
        <time>2022-02-15T12:13:35.000Z</time>
      </trkpt>
      <trkpt lat="43.53571" lon="5.57071">
        <ele>645</ele>
        <time>2022-02-15T12:13:36.000Z</time>
      </trkpt>
      <trkpt lat="43.53571" lon="5.57072">
        <ele>645</ele>
        <time>2022-02-15T12:13:37.000Z</time>
      </trkpt>
      <trkpt lat="43.53571" lon="5.57072">
        <ele>645</ele>
        <time>2022-02-15T12:36:37.207Z</time>
      </trkpt>
      <trkpt lat="43.53572" lon="5.57072">
        <ele>645</ele>
        <time>2022-02-15T12:36:38.207Z</time>
      </trkpt>
      <trkpt lat="43.53572" lon="5.57072">
        <ele>645</ele>
        <time>2022-02-15T12:36:39.207Z</time>
      </trkpt>
      <trkpt lat="43.53572" lon="5.57072">
        <ele>645</ele>
        <time>2022-02-15T12:36:40.207Z</time>
      </trkpt>
      <trkpt lat="43.53572" lon="5.57072">
        <ele>645</ele>
        <time>2022-02-15T12:36:41.207Z</time>
      </trkpt>
      <trkpt lat="43.53572" lon="5.57072">
        <ele>645</ele>
        <time>2022-02-15T12:36:42.207Z</time>
      </trkpt>
      <trkpt lat="43.53572" lon="5.57072">
        <ele>645</ele>
        <time>2022-02-15T12:36:43.207Z</time>
      </trkpt>
      <trkpt lat="43.53572" lon="5.57072">
        <ele>645</ele>
        <time>2022-02-15T12:36:44.207Z</time>
      </trkpt>
      <trkpt lat="43.53572" lon="5.57072">
        <ele>645</ele>
        <time>2022-02-15T12:36:45.207Z</time>
      </trkpt>
      <trkpt lat="43.53572" lon="5.57072">
        <ele>645</ele>
        <time>2022-02-15T12:36:46.207Z</time>
      </trkpt>
      <trkpt lat="43.53572" lon="5.57072">
        <ele>645</ele>
        <time>2022-02-15T12:36:47.207Z</time>
      </trkpt>
      <trkpt lat="43.53572" lon="5.57072">
        <ele>645</ele>
        <time>2022-02-15T12:36:48.207Z</time>
      </trkpt>
      <trkpt lat="43.53572" lon="5.57072">
        <ele>645</ele>
        <time>2022-02-15T12:36:49.207Z</time>
      </trkpt>
      <trkpt lat="43.53572" lon="5.57072">
        <ele>645</ele>
        <time>2022-02-15T12:36:50.207Z</time>
      </trkpt>
      <trkpt lat="43.53572" lon="5.57072">
        <ele>645</ele>
        <time>2022-02-15T12:36:51.207Z</time>
      </trkpt>
      <trkpt lat="43.53572" lon="5.57072">
        <ele>645</ele>
        <time>2022-02-15T12:36:52.207Z</time>
      </trkpt>
      <trkpt lat="43.53572" lon="5.57072">
        <ele>645</ele>
        <time>2022-02-15T12:36:53.207Z</time>
      </trkpt>
      <trkpt lat="43.53572" lon="5.57072">
        <ele>645</ele>
        <time>2022-02-15T12:36:54.207Z</time>
      </trkpt>
      <trkpt lat="43.53572" lon="5.57072">
        <ele>645</ele>
        <time>2022-02-15T12:36:55.207Z</time>
      </trkpt>
      <trkpt lat="43.53572" lon="5.57072">
        <ele>645</ele>
        <time>2022-02-15T12:36:56.207Z</time>
      </trkpt>
      <trkpt lat="43.53572" lon="5.57072">
        <ele>645</ele>
        <time>2022-02-15T12:36:57.207Z</time>
      </trkpt>
      <trkpt lat="43.53572" lon="5.57072">
        <ele>645</ele>
        <time>2022-02-15T12:36:58.207Z</time>
      </trkpt>
      <trkpt lat="43.53572" lon="5.57072">
        <ele>645</ele>
        <time>2022-02-15T12:36:59.207Z</time>
      </trkpt>
      <trkpt lat="43.53572" lon="5.57072">
        <ele>645</ele>
        <time>2022-02-15T12:37:00.207Z</time>
      </trkpt>
      <trkpt lat="43.53572" lon="5.57072">
        <ele>645</ele>
        <time>2022-02-15T12:37:01.207Z</time>
      </trkpt>
      <trkpt lat="43.53572" lon="5.57072">
        <ele>645</ele>
        <time>2022-02-15T12:37:02.207Z</time>
      </trkpt>
      <trkpt lat="43.53572" lon="5.57072">
        <ele>645</ele>
        <time>2022-02-15T12:37:03.207Z</time>
      </trkpt>
      <trkpt lat="43.53572" lon="5.57072">
        <ele>645</ele>
        <time>2022-02-15T12:37:04.207Z</time>
      </trkpt>
      <trkpt lat="43.53572" lon="5.57072">
        <ele>645</ele>
        <time>2022-02-15T12:37:05.207Z</time>
      </trkpt>
      <trkpt lat="43.53572" lon="5.57072">
        <ele>645</ele>
        <time>2022-02-15T12:37:06.207Z</time>
      </trkpt>
      <trkpt lat="43.53572" lon="5.57072">
        <ele>645</ele>
        <time>2022-02-15T12:37:07.207Z</time>
      </trkpt>
      <trkpt lat="43.53572" lon="5.57071">
        <ele>645</ele>
        <time>2022-02-15T12:37:08.207Z</time>
      </trkpt>
      <trkpt lat="43.53572" lon="5.57071">
        <ele>645</ele>
        <time>2022-02-15T12:37:09.207Z</time>
      </trkpt>
      <trkpt lat="43.53572" lon="5.57071">
        <ele>645</ele>
        <time>2022-02-15T12:37:10.207Z</time>
      </trkpt>
      <trkpt lat="43.53572" lon="5.57071">
        <ele>645</ele>
        <time>2022-02-15T12:37:11.207Z</time>
      </trkpt>
      <trkpt lat="43.53572" lon="5.57071">
        <ele>645</ele>
        <time>2022-02-15T12:37:12.207Z</time>
      </trkpt>
      <trkpt lat="43.53572" lon="5.57071">
        <ele>645</ele>
        <time>2022-02-15T12:37:13.207Z</time>
      </trkpt>
      <trkpt lat="43.53572" lon="5.57071">
        <ele>645</ele>
        <time>2022-02-15T12:37:14.207Z</time>
      </trkpt>
      <trkpt lat="43.53572" lon="5.57071">
        <ele>645</ele>
        <time>2022-02-15T12:37:15.207Z</time>
      </trkpt>
      <trkpt lat="43.53572" lon="5.57071">
        <ele>645</ele>
        <time>2022-02-15T12:37:16.207Z</time>
      </trkpt>
      <trkpt lat="43.53572" lon="5.57071">
        <ele>645</ele>
        <time>2022-02-15T12:37:17.207Z</time>
      </trkpt>
      <trkpt lat="43.53572" lon="5.57071">
        <ele>645</ele>
        <time>2022-02-15T12:37:18.207Z</time>
      </trkpt>
      <trkpt lat="43.53572" lon="5.57071">
        <ele>645</ele>
        <time>2022-02-15T12:37:19.207Z</time>
      </trkpt>
      <trkpt lat="43.53572" lon="5.57071">
        <ele>645</ele>
        <time>2022-02-15T12:37:20.207Z</time>
      </trkpt>
      <trkpt lat="43.53572" lon="5.57072">
        <ele>645</ele>
        <time>2022-02-15T12:37:21.207Z</time>
      </trkpt>
      <trkpt lat="43.53572" lon="5.57072">
        <ele>645</ele>
        <time>2022-02-15T12:37:22.207Z</time>
      </trkpt>
      <trkpt lat="43.53572" lon="5.57072">
        <ele>645</ele>
        <time>2022-02-15T12:37:23.207Z</time>
      </trkpt>
      <trkpt lat="43.53572" lon="5.57072">
        <ele>645</ele>
        <time>2022-02-15T12:37:24.207Z</time>
      </trkpt>
      <trkpt lat="43.53572" lon="5.57071">
        <ele>645</ele>
        <time>2022-02-15T12:37:25.207Z</time>
      </trkpt>
      <trkpt lat="43.53572" lon="5.57071">
        <ele>645</ele>
        <time>2022-02-15T12:37:26.207Z</time>
      </trkpt>
      <trkpt lat="43.53572" lon="5.57071">
        <ele>645</ele>
        <time>2022-02-15T12:37:27.207Z</time>
      </trkpt>
      <trkpt lat="43.53572" lon="5.57071">
        <ele>645</ele>
        <time>2022-02-15T12:37:28.207Z</time>
      </trkpt>
      <trkpt lat="43.53572" lon="5.57071">
        <ele>645</ele>
        <time>2022-02-15T12:37:29.207Z</time>
      </trkpt>
      <trkpt lat="43.53572" lon="5.57071">
        <ele>645</ele>
        <time>2022-02-15T12:37:30.207Z</time>
      </trkpt>
      <trkpt lat="43.53572" lon="5.57071">
        <ele>645</ele>
        <time>2022-02-15T12:37:31.207Z</time>
      </trkpt>
      <trkpt lat="43.53572" lon="5.57071">
        <ele>645</ele>
        <time>2022-02-15T12:37:32.207Z</time>
      </trkpt>
      <trkpt lat="43.53572" lon="5.57071">
        <ele>645</ele>
        <time>2022-02-15T12:37:33.207Z</time>
      </trkpt>
      <trkpt lat="43.53572" lon="5.57071">
        <ele>645</ele>
        <time>2022-02-15T12:37:34.207Z</time>
      </trkpt>
      <trkpt lat="43.53572" lon="5.57071">
        <ele>645</ele>
        <time>2022-02-15T12:37:35.207Z</time>
      </trkpt>
      <trkpt lat="43.53572" lon="5.57071">
        <ele>645</ele>
        <time>2022-02-15T12:37:36.207Z</time>
      </trkpt>
      <trkpt lat="43.53571" lon="5.5707">
        <ele>645</ele>
        <time>2022-02-15T12:37:37.207Z</time>
      </trkpt>
      <trkpt lat="43.53572" lon="5.5707">
        <ele>645</ele>
        <time>2022-02-15T12:37:38.207Z</time>
      </trkpt>
      <trkpt lat="43.53572" lon="5.5707">
        <ele>645</ele>
        <time>2022-02-15T12:37:39.207Z</time>
      </trkpt>
      <trkpt lat="43.53571" lon="5.5707">
        <ele>645</ele>
        <time>2022-02-15T12:37:40.207Z</time>
      </trkpt>
      <trkpt lat="43.53571" lon="5.5707">
        <ele>645</ele>
        <time>2022-02-15T12:37:41.207Z</time>
      </trkpt>
      <trkpt lat="43.53571" lon="5.5707">
        <ele>645</ele>
        <time>2022-02-15T12:37:42.207Z</time>
      </trkpt>
      <trkpt lat="43.53571" lon="5.5707">
        <ele>645</ele>
        <time>2022-02-15T12:37:43.207Z</time>
      </trkpt>
      <trkpt lat="43.53571" lon="5.5707">
        <ele>645</ele>
        <time>2022-02-15T12:37:44.207Z</time>
      </trkpt>
      <trkpt lat="43.53571" lon="5.5707">
        <ele>645</ele>
        <time>2022-02-15T12:37:45.207Z</time>
      </trkpt>
      <trkpt lat="43.53571" lon="5.5707">
        <ele>645</ele>
        <time>2022-02-15T12:37:46.207Z</time>
      </trkpt>
      <trkpt lat="43.53571" lon="5.5707">
        <ele>645</ele>
        <time>2022-02-15T12:37:47.207Z</time>
      </trkpt>
      <trkpt lat="43.53571" lon="5.5707">
        <ele>645</ele>
        <time>2022-02-15T12:37:48.207Z</time>
      </trkpt>
      <trkpt lat="43.53571" lon="5.5707">
        <ele>645</ele>
        <time>2022-02-15T12:37:49.207Z</time>
      </trkpt>
      <trkpt lat="43.53571" lon="5.5707">
        <ele>645</ele>
        <time>2022-02-15T12:37:50.207Z</time>
      </trkpt>
      <trkpt lat="43.53571" lon="5.5707">
        <ele>645</ele>
        <time>2022-02-15T12:37:51.207Z</time>
      </trkpt>
      <trkpt lat="43.53571" lon="5.5707">
        <ele>645</ele>
        <time>2022-02-15T12:37:52.207Z</time>
      </trkpt>
      <trkpt lat="43.53571" lon="5.5707">
        <ele>645</ele>
        <time>2022-02-15T12:37:53.207Z</time>
      </trkpt>
      <trkpt lat="43.53571" lon="5.57069">
        <ele>645</ele>
        <time>2022-02-15T12:37:54.207Z</time>
      </trkpt>
      <trkpt lat="43.53572" lon="5.57069">
        <ele>645</ele>
        <time>2022-02-15T12:37:55.207Z</time>
      </trkpt>
      <trkpt lat="43.53571" lon="5.57069">
        <ele>645</ele>
        <time>2022-02-15T12:37:56.207Z</time>
      </trkpt>
      <trkpt lat="43.53571" lon="5.57068">
        <ele>645</ele>
        <time>2022-02-15T12:37:57.207Z</time>
      </trkpt>
      <trkpt lat="43.53571" lon="5.57068">
        <ele>645</ele>
        <time>2022-02-15T12:37:58.207Z</time>
      </trkpt>
      <trkpt lat="43.53571" lon="5.57068">
        <ele>645</ele>
        <time>2022-02-15T12:37:59.207Z</time>
      </trkpt>
      <trkpt lat="43.53572" lon="5.57068">
        <ele>645</ele>
        <time>2022-02-15T12:38:00.207Z</time>
      </trkpt>
      <trkpt lat="43.53572" lon="5.57068">
        <ele>645</ele>
        <time>2022-02-15T12:38:01.207Z</time>
      </trkpt>
      <trkpt lat="43.53572" lon="5.57068">
        <ele>645</ele>
        <time>2022-02-15T12:38:02.207Z</time>
      </trkpt>
      <trkpt lat="43.53571" lon="5.57068">
        <ele>645</ele>
        <time>2022-02-15T12:38:03.207Z</time>
      </trkpt>
      <trkpt lat="43.53571" lon="5.57068">
        <ele>645</ele>
        <time>2022-02-15T12:38:04.207Z</time>
      </trkpt>
      <trkpt lat="43.53571" lon="5.57068">
        <ele>645</ele>
        <time>2022-02-15T12:38:05.207Z</time>
      </trkpt>
      <trkpt lat="43.53571" lon="5.57068">
        <ele>645</ele>
        <time>2022-02-15T12:38:06.207Z</time>
      </trkpt>
      <trkpt lat="43.53571" lon="5.57068">
        <ele>645</ele>
        <time>2022-02-15T12:38:07.207Z</time>
      </trkpt>
      <trkpt lat="43.53571" lon="5.57068">
        <ele>645</ele>
        <time>2022-02-15T12:38:08.207Z</time>
      </trkpt>
      <trkpt lat="43.53571" lon="5.57068">
        <ele>645</ele>
        <time>2022-02-15T12:38:09.207Z</time>
      </trkpt>
      <trkpt lat="43.53571" lon="5.57068">
        <ele>645</ele>
        <time>2022-02-15T12:38:10.207Z</time>
      </trkpt>
      <trkpt lat="43.53571" lon="5.57068">
        <ele>645</ele>
        <time>2022-02-15T12:38:11.207Z</time>
      </trkpt>
      <trkpt lat="43.53571" lon="5.57069">
        <ele>645</ele>
        <time>2022-02-15T12:38:12.207Z</time>
      </trkpt>
      <trkpt lat="43.53571" lon="5.57069">
        <ele>645</ele>
        <time>2022-02-15T12:38:13.207Z</time>
      </trkpt>
      <trkpt lat="43.53571" lon="5.57069">
        <ele>645</ele>
        <time>2022-02-15T12:38:14.207Z</time>
      </trkpt>
      <trkpt lat="43.53571" lon="5.57069">
        <ele>645</ele>
        <time>2022-02-15T12:38:15.207Z</time>
      </trkpt>
      <trkpt lat="43.53571" lon="5.57069">
        <ele>645</ele>
        <time>2022-02-15T12:38:16.207Z</time>
      </trkpt>
      <trkpt lat="43.53571" lon="5.57069">
        <ele>645</ele>
        <time>2022-02-15T12:38:17.207Z</time>
      </trkpt>
      <trkpt lat="43.53571" lon="5.57069">
        <ele>645</ele>
        <time>2022-02-15T12:38:18.207Z</time>
      </trkpt>
      <trkpt lat="43.53571" lon="5.57069">
        <ele>645</ele>
        <time>2022-02-15T12:38:19.207Z</time>
      </trkpt>
      <trkpt lat="43.53571" lon="5.57069">
        <ele>645</ele>
        <time>2022-02-15T12:38:20.207Z</time>
      </trkpt>
      <trkpt lat="43.53571" lon="5.57069">
        <ele>645</ele>
        <time>2022-02-15T12:38:21.207Z</time>
      </trkpt>
      <trkpt lat="43.53571" lon="5.57069">
        <ele>645</ele>
        <time>2022-02-15T12:38:22.207Z</time>
      </trkpt>
      <trkpt lat="43.53571" lon="5.57069">
        <ele>645</ele>
        <time>2022-02-15T12:38:23.207Z</time>
      </trkpt>
      <trkpt lat="43.53571" lon="5.57069">
        <ele>645</ele>
        <time>2022-02-15T12:38:24.207Z</time>
      </trkpt>
      <trkpt lat="43.53571" lon="5.57069">
        <ele>645</ele>
        <time>2022-02-15T12:38:25.207Z</time>
      </trkpt>
      <trkpt lat="43.53571" lon="5.57069">
        <ele>645</ele>
        <time>2022-02-15T12:38:26.207Z</time>
      </trkpt>
      <trkpt lat="43.53571" lon="5.5707">
        <ele>645</ele>
        <time>2022-02-15T12:38:27.207Z</time>
      </trkpt>
      <trkpt lat="43.53571" lon="5.5707">
        <ele>645</ele>
        <time>2022-02-15T12:38:28.207Z</time>
      </trkpt>
      <trkpt lat="43.53571" lon="5.5707">
        <ele>645</ele>
        <time>2022-02-15T12:38:29.207Z</time>
      </trkpt>
      <trkpt lat="43.53571" lon="5.5707">
        <ele>645</ele>
        <time>2022-02-15T12:38:30.207Z</time>
      </trkpt>
      <trkpt lat="43.53571" lon="5.5707">
        <ele>645</ele>
        <time>2022-02-15T12:38:31.207Z</time>
      </trkpt>
      <trkpt lat="43.53571" lon="5.57071">
        <ele>645</ele>
        <time>2022-02-15T12:38:32.207Z</time>
      </trkpt>
      <trkpt lat="43.5357" lon="5.57071">
        <ele>645</ele>
        <time>2022-02-15T12:38:33.207Z</time>
      </trkpt>
      <trkpt lat="43.5357" lon="5.57071">
        <ele>645</ele>
        <time>2022-02-15T12:38:34.207Z</time>
      </trkpt>
      <trkpt lat="43.5357" lon="5.57071">
        <ele>645</ele>
        <time>2022-02-15T12:38:35.207Z</time>
      </trkpt>
      <trkpt lat="43.53569" lon="5.57071">
        <ele>645</ele>
        <time>2022-02-15T12:38:36.207Z</time>
      </trkpt>
      <trkpt lat="43.53568" lon="5.57071">
        <ele>645</ele>
        <time>2022-02-15T12:38:37.207Z</time>
      </trkpt>
      <trkpt lat="43.53568" lon="5.57072">
        <ele>644</ele>
        <time>2022-02-15T12:38:38.207Z</time>
      </trkpt>
      <trkpt lat="43.53567" lon="5.57072">
        <ele>644</ele>
        <time>2022-02-15T12:38:39.207Z</time>
      </trkpt>
      <trkpt lat="43.53566" lon="5.57073">
        <ele>644</ele>
        <time>2022-02-15T12:38:40.207Z</time>
      </trkpt>
      <trkpt lat="43.53566" lon="5.57073">
        <ele>644</ele>
        <time>2022-02-15T12:38:41.207Z</time>
      </trkpt>
      <trkpt lat="43.53565" lon="5.57074">
        <ele>644</ele>
        <time>2022-02-15T12:38:42.207Z</time>
      </trkpt>
      <trkpt lat="43.53565" lon="5.57074">
        <ele>644</ele>
        <time>2022-02-15T12:38:43.207Z</time>
      </trkpt>
      <trkpt lat="43.53565" lon="5.57074">
        <ele>644</ele>
        <time>2022-02-15T12:38:44.207Z</time>
      </trkpt>
      <trkpt lat="43.53564" lon="5.57073">
        <ele>644</ele>
        <time>2022-02-15T12:38:45.207Z</time>
      </trkpt>
      <trkpt lat="43.53564" lon="5.57073">
        <ele>644</ele>
        <time>2022-02-15T12:38:46.207Z</time>
      </trkpt>
      <trkpt lat="43.53563" lon="5.57073">
        <ele>644</ele>
        <time>2022-02-15T12:38:47.207Z</time>
      </trkpt>
      <trkpt lat="43.53563" lon="5.57073">
        <ele>644</ele>
        <time>2022-02-15T12:38:48.207Z</time>
      </trkpt>
      <trkpt lat="43.53562" lon="5.57073">
        <ele>644</ele>
        <time>2022-02-15T12:38:49.207Z</time>
      </trkpt>
      <trkpt lat="43.53562" lon="5.57073">
        <ele>644</ele>
        <time>2022-02-15T12:38:50.207Z</time>
      </trkpt>
      <trkpt lat="43.53561" lon="5.57073">
        <ele>643</ele>
        <time>2022-02-15T12:38:51.207Z</time>
      </trkpt>
      <trkpt lat="43.53561" lon="5.57074">
        <ele>643</ele>
        <time>2022-02-15T12:38:52.207Z</time>
      </trkpt>
      <trkpt lat="43.5356" lon="5.57074">
        <ele>643</ele>
        <time>2022-02-15T12:38:53.207Z</time>
      </trkpt>
      <trkpt lat="43.5356" lon="5.57074">
        <ele>643</ele>
        <time>2022-02-15T12:38:54.207Z</time>
      </trkpt>
      <trkpt lat="43.53559" lon="5.57073">
        <ele>643</ele>
        <time>2022-02-15T12:38:55.207Z</time>
      </trkpt>
      <trkpt lat="43.53559" lon="5.57073">
        <ele>643</ele>
        <time>2022-02-15T12:38:56.207Z</time>
      </trkpt>
      <trkpt lat="43.53558" lon="5.57073">
        <ele>642</ele>
        <time>2022-02-15T12:38:57.207Z</time>
      </trkpt>
      <trkpt lat="43.53557" lon="5.57073">
        <ele>642</ele>
        <time>2022-02-15T12:38:58.207Z</time>
      </trkpt>
      <trkpt lat="43.53556" lon="5.57073">
        <ele>642</ele>
        <time>2022-02-15T12:38:59.207Z</time>
      </trkpt>
      <trkpt lat="43.53556" lon="5.57073">
        <ele>642</ele>
        <time>2022-02-15T12:39:00.207Z</time>
      </trkpt>
      <trkpt lat="43.53555" lon="5.57073">
        <ele>642</ele>
        <time>2022-02-15T12:39:01.207Z</time>
      </trkpt>
      <trkpt lat="43.53554" lon="5.57074">
        <ele>642</ele>
        <time>2022-02-15T12:39:02.207Z</time>
      </trkpt>
      <trkpt lat="43.53554" lon="5.57074">
        <ele>642</ele>
        <time>2022-02-15T12:39:03.207Z</time>
      </trkpt>
      <trkpt lat="43.53553" lon="5.57074">
        <ele>642</ele>
        <time>2022-02-15T12:39:04.207Z</time>
      </trkpt>
      <trkpt lat="43.53553" lon="5.57074">
        <ele>642</ele>
        <time>2022-02-15T12:39:05.207Z</time>
      </trkpt>
      <trkpt lat="43.53553" lon="5.57074">
        <ele>642</ele>
        <time>2022-02-15T12:39:06.207Z</time>
      </trkpt>
      <trkpt lat="43.53553" lon="5.57074">
        <ele>642</ele>
        <time>2022-02-15T12:39:07.207Z</time>
      </trkpt>
      <trkpt lat="43.53553" lon="5.57074">
        <ele>642</ele>
        <time>2022-02-15T12:39:08.207Z</time>
      </trkpt>
      <trkpt lat="43.53553" lon="5.57074">
        <ele>642</ele>
        <time>2022-02-15T12:39:09.207Z</time>
      </trkpt>
      <trkpt lat="43.53552" lon="5.57073">
        <ele>642</ele>
        <time>2022-02-15T12:39:10.207Z</time>
      </trkpt>
      <trkpt lat="43.53552" lon="5.57073">
        <ele>642</ele>
        <time>2022-02-15T12:39:11.207Z</time>
      </trkpt>
      <trkpt lat="43.53551" lon="5.57073">
        <ele>642</ele>
        <time>2022-02-15T12:39:12.207Z</time>
      </trkpt>
      <trkpt lat="43.53551" lon="5.57073">
        <ele>642</ele>
        <time>2022-02-15T12:39:13.207Z</time>
      </trkpt>
      <trkpt lat="43.53551" lon="5.57073">
        <ele>642</ele>
        <time>2022-02-15T12:39:14.207Z</time>
      </trkpt>
      <trkpt lat="43.53551" lon="5.57073">
        <ele>642</ele>
        <time>2022-02-15T12:39:15.207Z</time>
      </trkpt>
      <trkpt lat="43.53551" lon="5.57073">
        <ele>642</ele>
        <time>2022-02-15T12:39:16.207Z</time>
      </trkpt>
      <trkpt lat="43.5355" lon="5.57072">
        <ele>642</ele>
        <time>2022-02-15T12:39:17.207Z</time>
      </trkpt>
      <trkpt lat="43.5355" lon="5.57072">
        <ele>642</ele>
        <time>2022-02-15T12:39:18.207Z</time>
      </trkpt>
      <trkpt lat="43.5355" lon="5.57071">
        <ele>642</ele>
        <time>2022-02-15T12:39:19.207Z</time>
      </trkpt>
      <trkpt lat="43.53549" lon="5.57071">
        <ele>641</ele>
        <time>2022-02-15T12:39:20.207Z</time>
      </trkpt>
      <trkpt lat="43.53549" lon="5.57071">
        <ele>641</ele>
        <time>2022-02-15T12:39:21.207Z</time>
      </trkpt>
      <trkpt lat="43.53549" lon="5.5707">
        <ele>641</ele>
        <time>2022-02-15T12:39:22.207Z</time>
      </trkpt>
      <trkpt lat="43.53549" lon="5.5707">
        <ele>641</ele>
        <time>2022-02-15T12:39:23.207Z</time>
      </trkpt>
      <trkpt lat="43.53548" lon="5.5707">
        <ele>641</ele>
        <time>2022-02-15T12:39:24.207Z</time>
      </trkpt>
      <trkpt lat="43.53548" lon="5.5707">
        <ele>641</ele>
        <time>2022-02-15T12:39:25.207Z</time>
      </trkpt>
      <trkpt lat="43.53547" lon="5.5707">
        <ele>641</ele>
        <time>2022-02-15T12:39:26.207Z</time>
      </trkpt>
      <trkpt lat="43.53547" lon="5.5707">
        <ele>641</ele>
        <time>2022-02-15T12:39:27.207Z</time>
      </trkpt>
      <trkpt lat="43.53546" lon="5.5707">
        <ele>641</ele>
        <time>2022-02-15T12:39:28.207Z</time>
      </trkpt>
      <trkpt lat="43.53546" lon="5.57071">
        <ele>641</ele>
        <time>2022-02-15T12:39:29.207Z</time>
      </trkpt>
      <trkpt lat="43.53545" lon="5.5707">
        <ele>640</ele>
        <time>2022-02-15T12:39:30.207Z</time>
      </trkpt>
      <trkpt lat="43.53544" lon="5.5707">
        <ele>640</ele>
        <time>2022-02-15T12:39:31.207Z</time>
      </trkpt>
      <trkpt lat="43.53544" lon="5.5707">
        <ele>640</ele>
        <time>2022-02-15T12:39:32.207Z</time>
      </trkpt>
      <trkpt lat="43.53543" lon="5.5707">
        <ele>640</ele>
        <time>2022-02-15T12:39:33.207Z</time>
      </trkpt>
      <trkpt lat="43.53543" lon="5.57069">
        <ele>640</ele>
        <time>2022-02-15T12:39:34.207Z</time>
      </trkpt>
      <trkpt lat="43.53543" lon="5.57069">
        <ele>640</ele>
        <time>2022-02-15T12:39:35.207Z</time>
      </trkpt>
      <trkpt lat="43.53542" lon="5.57069">
        <ele>640</ele>
        <time>2022-02-15T12:39:36.207Z</time>
      </trkpt>
      <trkpt lat="43.53541" lon="5.57069">
        <ele>640</ele>
        <time>2022-02-15T12:39:37.207Z</time>
      </trkpt>
      <trkpt lat="43.53541" lon="5.57069">
        <ele>640</ele>
        <time>2022-02-15T12:39:38.207Z</time>
      </trkpt>
      <trkpt lat="43.5354" lon="5.57068">
        <ele>640</ele>
        <time>2022-02-15T12:39:39.207Z</time>
      </trkpt>
      <trkpt lat="43.53539" lon="5.57068">
        <ele>640</ele>
        <time>2022-02-15T12:39:40.207Z</time>
      </trkpt>
      <trkpt lat="43.53539" lon="5.57067">
        <ele>640</ele>
        <time>2022-02-15T12:39:41.207Z</time>
      </trkpt>
      <trkpt lat="43.53539" lon="5.57066">
        <ele>640</ele>
        <time>2022-02-15T12:39:42.207Z</time>
      </trkpt>
      <trkpt lat="43.53539" lon="5.57065">
        <ele>640</ele>
        <time>2022-02-15T12:39:43.207Z</time>
      </trkpt>
      <trkpt lat="43.53539" lon="5.57064">
        <ele>639</ele>
        <time>2022-02-15T12:39:44.207Z</time>
      </trkpt>
      <trkpt lat="43.53539" lon="5.57064">
        <ele>639</ele>
        <time>2022-02-15T12:39:45.207Z</time>
      </trkpt>
      <trkpt lat="43.53539" lon="5.57063">
        <ele>639</ele>
        <time>2022-02-15T12:39:46.207Z</time>
      </trkpt>
      <trkpt lat="43.53539" lon="5.57062">
        <ele>639</ele>
        <time>2022-02-15T12:39:47.207Z</time>
      </trkpt>
      <trkpt lat="43.53539" lon="5.5706">
        <ele>639</ele>
        <time>2022-02-15T12:39:48.207Z</time>
      </trkpt>
      <trkpt lat="43.53539" lon="5.57061">
        <ele>639</ele>
        <time>2022-02-15T12:39:49.207Z</time>
      </trkpt>
      <trkpt lat="43.53539" lon="5.5706">
        <ele>638</ele>
        <time>2022-02-15T12:39:50.207Z</time>
      </trkpt>
      <trkpt lat="43.53539" lon="5.5706">
        <ele>638</ele>
        <time>2022-02-15T12:39:51.207Z</time>
      </trkpt>
      <trkpt lat="43.53539" lon="5.57059">
        <ele>638</ele>
        <time>2022-02-15T12:39:52.207Z</time>
      </trkpt>
      <trkpt lat="43.53539" lon="5.57059">
        <ele>638</ele>
        <time>2022-02-15T12:39:53.207Z</time>
      </trkpt>
      <trkpt lat="43.53539" lon="5.57058">
        <ele>638</ele>
        <time>2022-02-15T12:39:54.207Z</time>
      </trkpt>
      <trkpt lat="43.53539" lon="5.57058">
        <ele>637</ele>
        <time>2022-02-15T12:39:55.207Z</time>
      </trkpt>
      <trkpt lat="43.53539" lon="5.57057">
        <ele>637</ele>
        <time>2022-02-15T12:39:56.207Z</time>
      </trkpt>
      <trkpt lat="43.53539" lon="5.57057">
        <ele>637</ele>
        <time>2022-02-15T12:39:57.207Z</time>
      </trkpt>
      <trkpt lat="43.53539" lon="5.57056">
        <ele>637</ele>
        <time>2022-02-15T12:39:58.207Z</time>
      </trkpt>
      <trkpt lat="43.53539" lon="5.57056">
        <ele>637</ele>
        <time>2022-02-15T12:39:59.207Z</time>
      </trkpt>
      <trkpt lat="43.53539" lon="5.57055">
        <ele>637</ele>
        <time>2022-02-15T12:40:00.207Z</time>
      </trkpt>
      <trkpt lat="43.53538" lon="5.57055">
        <ele>637</ele>
        <time>2022-02-15T12:40:01.207Z</time>
      </trkpt>
      <trkpt lat="43.53538" lon="5.57055">
        <ele>636</ele>
        <time>2022-02-15T12:40:02.207Z</time>
      </trkpt>
      <trkpt lat="43.53538" lon="5.57055">
        <ele>636</ele>
        <time>2022-02-15T12:40:03.207Z</time>
      </trkpt>
      <trkpt lat="43.53537" lon="5.57055">
        <ele>636</ele>
        <time>2022-02-15T12:40:04.207Z</time>
      </trkpt>
      <trkpt lat="43.53538" lon="5.57055">
        <ele>636</ele>
        <time>2022-02-15T12:40:05.207Z</time>
      </trkpt>
      <trkpt lat="43.53538" lon="5.57054">
        <ele>636</ele>
        <time>2022-02-15T12:40:06.207Z</time>
      </trkpt>
      <trkpt lat="43.53538" lon="5.57054">
        <ele>636</ele>
        <time>2022-02-15T12:40:07.207Z</time>
      </trkpt>
      <trkpt lat="43.53538" lon="5.57054">
        <ele>636</ele>
        <time>2022-02-15T12:40:08.207Z</time>
      </trkpt>
      <trkpt lat="43.53538" lon="5.57054">
        <ele>636</ele>
        <time>2022-02-15T12:40:09.207Z</time>
      </trkpt>
      <trkpt lat="43.53537" lon="5.57054">
        <ele>636</ele>
        <time>2022-02-15T12:40:10.207Z</time>
      </trkpt>
      <trkpt lat="43.53537" lon="5.57054">
        <ele>636</ele>
        <time>2022-02-15T12:40:11.207Z</time>
      </trkpt>
      <trkpt lat="43.53537" lon="5.57054">
        <ele>636</ele>
        <time>2022-02-15T12:40:12.207Z</time>
      </trkpt>
      <trkpt lat="43.53537" lon="5.57054">
        <ele>636</ele>
        <time>2022-02-15T12:40:13.207Z</time>
      </trkpt>
      <trkpt lat="43.53537" lon="5.57054">
        <ele>636</ele>
        <time>2022-02-15T12:40:14.207Z</time>
      </trkpt>
      <trkpt lat="43.53537" lon="5.57054">
        <ele>636</ele>
        <time>2022-02-15T12:40:15.207Z</time>
      </trkpt>
      <trkpt lat="43.53537" lon="5.57054">
        <ele>636</ele>
        <time>2022-02-15T12:40:16.207Z</time>
      </trkpt>
      <trkpt lat="43.53537" lon="5.57053">
        <ele>636</ele>
        <time>2022-02-15T12:40:17.207Z</time>
      </trkpt>
      <trkpt lat="43.53537" lon="5.57053">
        <ele>636</ele>
        <time>2022-02-15T12:40:18.207Z</time>
      </trkpt>
      <trkpt lat="43.53537" lon="5.57053">
        <ele>636</ele>
        <time>2022-02-15T12:40:19.207Z</time>
      </trkpt>
      <trkpt lat="43.53537" lon="5.57053">
        <ele>636</ele>
        <time>2022-02-15T12:40:20.207Z</time>
      </trkpt>
      <trkpt lat="43.53537" lon="5.57053">
        <ele>636</ele>
        <time>2022-02-15T12:40:21.207Z</time>
      </trkpt>
      <trkpt lat="43.53537" lon="5.57053">
        <ele>636</ele>
        <time>2022-02-15T12:40:22.207Z</time>
      </trkpt>
      <trkpt lat="43.53537" lon="5.57053">
        <ele>636</ele>
        <time>2022-02-15T12:40:23.207Z</time>
      </trkpt>
      <trkpt lat="43.53537" lon="5.57053">
        <ele>636</ele>
        <time>2022-02-15T12:40:24.207Z</time>
      </trkpt>
      <trkpt lat="43.53537" lon="5.57053">
        <ele>636</ele>
        <time>2022-02-15T12:40:25.207Z</time>
      </trkpt>
      <trkpt lat="43.53537" lon="5.57053">
        <ele>636</ele>
        <time>2022-02-15T12:40:26.207Z</time>
      </trkpt>
      <trkpt lat="43.53537" lon="5.57053">
        <ele>636</ele>
        <time>2022-02-15T12:40:27.207Z</time>
      </trkpt>
      <trkpt lat="43.53537" lon="5.57053">
        <ele>636</ele>
        <time>2022-02-15T12:40:28.207Z</time>
      </trkpt>
      <trkpt lat="43.53537" lon="5.57053">
        <ele>636</ele>
        <time>2022-02-15T12:40:29.207Z</time>
      </trkpt>
      <trkpt lat="43.53537" lon="5.57053">
        <ele>636</ele>
        <time>2022-02-15T12:40:30.207Z</time>
      </trkpt>
      <trkpt lat="43.53537" lon="5.57053">
        <ele>636</ele>
        <time>2022-02-15T12:40:31.207Z</time>
      </trkpt>
      <trkpt lat="43.53537" lon="5.57053">
        <ele>636</ele>
        <time>2022-02-15T12:40:32.207Z</time>
      </trkpt>
      <trkpt lat="43.53537" lon="5.57053">
        <ele>636</ele>
        <time>2022-02-15T12:40:33.207Z</time>
      </trkpt>
      <trkpt lat="43.53537" lon="5.57053">
        <ele>636</ele>
        <time>2022-02-15T12:40:34.207Z</time>
      </trkpt>
      <trkpt lat="43.53537" lon="5.57053">
        <ele>636</ele>
        <time>2022-02-15T12:40:35.207Z</time>
      </trkpt>
      <trkpt lat="43.53537" lon="5.57053">
        <ele>636</ele>
        <time>2022-02-15T12:40:36.207Z</time>
      </trkpt>
      <trkpt lat="43.53537" lon="5.57053">
        <ele>636</ele>
        <time>2022-02-15T12:40:37.207Z</time>
      </trkpt>
      <trkpt lat="43.53537" lon="5.57053">
        <ele>636</ele>
        <time>2022-02-15T12:40:38.207Z</time>
      </trkpt>
      <trkpt lat="43.53537" lon="5.57053">
        <ele>636</ele>
        <time>2022-02-15T12:40:39.207Z</time>
      </trkpt>
      <trkpt lat="43.53537" lon="5.57053">
        <ele>636</ele>
        <time>2022-02-15T12:40:40.207Z</time>
      </trkpt>
      <trkpt lat="43.53537" lon="5.57053">
        <ele>636</ele>
        <time>2022-02-15T12:40:41.207Z</time>
      </trkpt>
      <trkpt lat="43.53537" lon="5.57053">
        <ele>636</ele>
        <time>2022-02-15T12:40:42.207Z</time>
      </trkpt>
      <trkpt lat="43.53537" lon="5.57053">
        <ele>636</ele>
        <time>2022-02-15T12:40:43.207Z</time>
      </trkpt>
      <trkpt lat="43.53537" lon="5.57053">
        <ele>636</ele>
        <time>2022-02-15T12:40:44.207Z</time>
      </trkpt>
      <trkpt lat="43.53537" lon="5.57053">
        <ele>636</ele>
        <time>2022-02-15T12:40:45.207Z</time>
      </trkpt>
      <trkpt lat="43.53537" lon="5.57053">
        <ele>636</ele>
        <time>2022-02-15T12:40:46.207Z</time>
      </trkpt>
      <trkpt lat="43.53537" lon="5.57053">
        <ele>636</ele>
        <time>2022-02-15T12:40:47.207Z</time>
      </trkpt>
      <trkpt lat="43.53537" lon="5.57053">
        <ele>636</ele>
        <time>2022-02-15T12:40:48.207Z</time>
      </trkpt>
      <trkpt lat="43.53537" lon="5.57053">
        <ele>636</ele>
        <time>2022-02-15T12:40:49.207Z</time>
      </trkpt>
      <trkpt lat="43.53537" lon="5.57053">
        <ele>636</ele>
        <time>2022-02-15T12:40:50.207Z</time>
      </trkpt>
      <trkpt lat="43.53537" lon="5.57053">
        <ele>636</ele>
        <time>2022-02-15T12:40:51.207Z</time>
      </trkpt>
      <trkpt lat="43.53537" lon="5.57053">
        <ele>636</ele>
        <time>2022-02-15T12:40:52.207Z</time>
      </trkpt>
      <trkpt lat="43.53537" lon="5.57053">
        <ele>636</ele>
        <time>2022-02-15T12:40:53.207Z</time>
      </trkpt>
      <trkpt lat="43.53537" lon="5.57053">
        <ele>636</ele>
        <time>2022-02-15T12:40:54.207Z</time>
      </trkpt>
      <trkpt lat="43.53537" lon="5.57053">
        <ele>636</ele>
        <time>2022-02-15T12:40:55.207Z</time>
      </trkpt>
      <trkpt lat="43.53537" lon="5.57053">
        <ele>636</ele>
        <time>2022-02-15T12:40:56.207Z</time>
      </trkpt>
      <trkpt lat="43.53537" lon="5.57053">
        <ele>636</ele>
        <time>2022-02-15T12:40:57.207Z</time>
      </trkpt>
      <trkpt lat="43.53537" lon="5.57053">
        <ele>636</ele>
        <time>2022-02-15T12:40:58.207Z</time>
      </trkpt>
      <trkpt lat="43.53537" lon="5.57053">
        <ele>636</ele>
        <time>2022-02-15T12:40:59.207Z</time>
      </trkpt>
      <trkpt lat="43.53537" lon="5.57053">
        <ele>636</ele>
        <time>2022-02-15T12:41:00.207Z</time>
      </trkpt>
      <trkpt lat="43.53537" lon="5.57053">
        <ele>636</ele>
        <time>2022-02-15T12:41:01.207Z</time>
      </trkpt>
      <trkpt lat="43.53537" lon="5.57053">
        <ele>636</ele>
        <time>2022-02-15T12:41:02.207Z</time>
      </trkpt>
      <trkpt lat="43.53537" lon="5.57053">
        <ele>636</ele>
        <time>2022-02-15T12:41:03.207Z</time>
      </trkpt>
      <trkpt lat="43.53536" lon="5.57052">
        <ele>636</ele>
        <time>2022-02-15T12:41:04.207Z</time>
      </trkpt>
      <trkpt lat="43.53536" lon="5.57052">
        <ele>636</ele>
        <time>2022-02-15T12:41:05.207Z</time>
      </trkpt>
      <trkpt lat="43.53536" lon="5.57052">
        <ele>636</ele>
        <time>2022-02-15T12:41:06.207Z</time>
      </trkpt>
      <trkpt lat="43.53535" lon="5.57052">
        <ele>636</ele>
        <time>2022-02-15T12:41:07.207Z</time>
      </trkpt>
      <trkpt lat="43.53534" lon="5.57052">
        <ele>635</ele>
        <time>2022-02-15T12:41:08.207Z</time>
      </trkpt>
      <trkpt lat="43.53534" lon="5.57052">
        <ele>635</ele>
        <time>2022-02-15T12:41:09.207Z</time>
      </trkpt>
      <trkpt lat="43.53533" lon="5.57052">
        <ele>635</ele>
        <time>2022-02-15T12:41:10.207Z</time>
      </trkpt>
      <trkpt lat="43.53532" lon="5.57052">
        <ele>635</ele>
        <time>2022-02-15T12:41:11.207Z</time>
      </trkpt>
      <trkpt lat="43.53532" lon="5.57052">
        <ele>635</ele>
        <time>2022-02-15T12:41:12.207Z</time>
      </trkpt>
      <trkpt lat="43.53531" lon="5.57053">
        <ele>635</ele>
        <time>2022-02-15T12:41:13.207Z</time>
      </trkpt>
      <trkpt lat="43.5353" lon="5.57053">
        <ele>635</ele>
        <time>2022-02-15T12:41:14.207Z</time>
      </trkpt>
      <trkpt lat="43.5353" lon="5.57053">
        <ele>635</ele>
        <time>2022-02-15T12:41:15.207Z</time>
      </trkpt>
      <trkpt lat="43.53529" lon="5.57054">
        <ele>634</ele>
        <time>2022-02-15T12:41:16.207Z</time>
      </trkpt>
      <trkpt lat="43.53528" lon="5.57054">
        <ele>634</ele>
        <time>2022-02-15T12:41:17.207Z</time>
      </trkpt>
      <trkpt lat="43.53528" lon="5.57054">
        <ele>634</ele>
        <time>2022-02-15T12:41:18.207Z</time>
      </trkpt>
      <trkpt lat="43.53527" lon="5.57054">
        <ele>633</ele>
        <time>2022-02-15T12:41:19.207Z</time>
      </trkpt>
      <trkpt lat="43.53527" lon="5.57055">
        <ele>633</ele>
        <time>2022-02-15T12:41:20.207Z</time>
      </trkpt>
      <trkpt lat="43.53526" lon="5.57055">
        <ele>633</ele>
        <time>2022-02-15T12:41:21.207Z</time>
      </trkpt>
      <trkpt lat="43.53525" lon="5.57055">
        <ele>633</ele>
        <time>2022-02-15T12:41:22.207Z</time>
      </trkpt>
      <trkpt lat="43.53525" lon="5.57055">
        <ele>632</ele>
        <time>2022-02-15T12:41:23.207Z</time>
      </trkpt>
      <trkpt lat="43.53524" lon="5.57056">
        <ele>632</ele>
        <time>2022-02-15T12:41:24.207Z</time>
      </trkpt>
      <trkpt lat="43.53524" lon="5.57056">
        <ele>632</ele>
        <time>2022-02-15T12:41:25.207Z</time>
      </trkpt>
      <trkpt lat="43.53524" lon="5.57056">
        <ele>632</ele>
        <time>2022-02-15T12:41:26.207Z</time>
      </trkpt>
      <trkpt lat="43.53524" lon="5.57055">
        <ele>631</ele>
        <time>2022-02-15T12:41:27.207Z</time>
      </trkpt>
      <trkpt lat="43.53523" lon="5.57055">
        <ele>631</ele>
        <time>2022-02-15T12:41:28.207Z</time>
      </trkpt>
      <trkpt lat="43.53522" lon="5.57054">
        <ele>631</ele>
        <time>2022-02-15T12:41:29.207Z</time>
      </trkpt>
      <trkpt lat="43.53522" lon="5.57054">
        <ele>631</ele>
        <time>2022-02-15T12:41:30.207Z</time>
      </trkpt>
      <trkpt lat="43.53522" lon="5.57054">
        <ele>631</ele>
        <time>2022-02-15T12:41:31.207Z</time>
      </trkpt>
      <trkpt lat="43.53522" lon="5.57054">
        <ele>631</ele>
        <time>2022-02-15T12:41:32.207Z</time>
      </trkpt>
      <trkpt lat="43.53521" lon="5.57055">
        <ele>630</ele>
        <time>2022-02-15T12:41:33.207Z</time>
      </trkpt>
      <trkpt lat="43.5352" lon="5.57054">
        <ele>630</ele>
        <time>2022-02-15T12:41:34.207Z</time>
      </trkpt>
      <trkpt lat="43.5352" lon="5.57054">
        <ele>630</ele>
        <time>2022-02-15T12:41:35.207Z</time>
      </trkpt>
      <trkpt lat="43.53519" lon="5.57054">
        <ele>630</ele>
        <time>2022-02-15T12:41:36.207Z</time>
      </trkpt>
      <trkpt lat="43.53519" lon="5.57053">
        <ele>630</ele>
        <time>2022-02-15T12:41:37.207Z</time>
      </trkpt>
      <trkpt lat="43.53518" lon="5.57052">
        <ele>630</ele>
        <time>2022-02-15T12:41:38.207Z</time>
      </trkpt>
      <trkpt lat="43.53518" lon="5.57052">
        <ele>630</ele>
        <time>2022-02-15T12:41:39.207Z</time>
      </trkpt>
      <trkpt lat="43.53518" lon="5.57051">
        <ele>629</ele>
        <time>2022-02-15T12:41:40.207Z</time>
      </trkpt>
      <trkpt lat="43.53518" lon="5.5705">
        <ele>629</ele>
        <time>2022-02-15T12:41:41.207Z</time>
      </trkpt>
      <trkpt lat="43.53517" lon="5.5705">
        <ele>629</ele>
        <time>2022-02-15T12:41:42.207Z</time>
      </trkpt>
      <trkpt lat="43.53516" lon="5.5705">
        <ele>629</ele>
        <time>2022-02-15T12:41:43.207Z</time>
      </trkpt>
      <trkpt lat="43.53516" lon="5.5705">
        <ele>629</ele>
        <time>2022-02-15T12:41:44.207Z</time>
      </trkpt>
      <trkpt lat="43.53515" lon="5.5705">
        <ele>628</ele>
        <time>2022-02-15T12:41:45.207Z</time>
      </trkpt>
      <trkpt lat="43.53515" lon="5.57051">
        <ele>628</ele>
        <time>2022-02-15T12:41:46.207Z</time>
      </trkpt>
      <trkpt lat="43.53515" lon="5.5705">
        <ele>628</ele>
        <time>2022-02-15T12:41:47.207Z</time>
      </trkpt>
      <trkpt lat="43.53514" lon="5.5705">
        <ele>628</ele>
        <time>2022-02-15T12:41:48.207Z</time>
      </trkpt>
      <trkpt lat="43.53513" lon="5.5705">
        <ele>627</ele>
        <time>2022-02-15T12:41:49.207Z</time>
      </trkpt>
      <trkpt lat="43.53513" lon="5.5705">
        <ele>627</ele>
        <time>2022-02-15T12:41:50.207Z</time>
      </trkpt>
      <trkpt lat="43.53512" lon="5.57051">
        <ele>627</ele>
        <time>2022-02-15T12:41:51.207Z</time>
      </trkpt>
      <trkpt lat="43.53511" lon="5.57051">
        <ele>627</ele>
        <time>2022-02-15T12:41:52.207Z</time>
      </trkpt>
      <trkpt lat="43.5351" lon="5.57052">
        <ele>627</ele>
        <time>2022-02-15T12:41:53.207Z</time>
      </trkpt>
      <trkpt lat="43.5351" lon="5.57052">
        <ele>626</ele>
        <time>2022-02-15T12:41:54.207Z</time>
      </trkpt>
      <trkpt lat="43.53509" lon="5.57053">
        <ele>626</ele>
        <time>2022-02-15T12:41:55.207Z</time>
      </trkpt>
      <trkpt lat="43.53509" lon="5.57053">
        <ele>626</ele>
        <time>2022-02-15T12:41:56.207Z</time>
      </trkpt>
      <trkpt lat="43.53508" lon="5.57053">
        <ele>626</ele>
        <time>2022-02-15T12:41:57.207Z</time>
      </trkpt>
      <trkpt lat="43.53508" lon="5.57053">
        <ele>626</ele>
        <time>2022-02-15T12:41:58.207Z</time>
      </trkpt>
      <trkpt lat="43.53508" lon="5.57053">
        <ele>625</ele>
        <time>2022-02-15T12:41:59.207Z</time>
      </trkpt>
      <trkpt lat="43.53507" lon="5.57053">
        <ele>625</ele>
        <time>2022-02-15T12:42:00.207Z</time>
      </trkpt>
      <trkpt lat="43.53506" lon="5.57053">
        <ele>625</ele>
        <time>2022-02-15T12:42:01.207Z</time>
      </trkpt>
      <trkpt lat="43.53505" lon="5.57053">
        <ele>624</ele>
        <time>2022-02-15T12:42:02.207Z</time>
      </trkpt>
      <trkpt lat="43.53505" lon="5.57054">
        <ele>624</ele>
        <time>2022-02-15T12:42:03.207Z</time>
      </trkpt>
      <trkpt lat="43.53504" lon="5.57054">
        <ele>624</ele>
        <time>2022-02-15T12:42:04.207Z</time>
      </trkpt>
      <trkpt lat="43.53504" lon="5.57054">
        <ele>624</ele>
        <time>2022-02-15T12:42:05.207Z</time>
      </trkpt>
      <trkpt lat="43.53503" lon="5.57054">
        <ele>624</ele>
        <time>2022-02-15T12:42:06.207Z</time>
      </trkpt>
      <trkpt lat="43.53502" lon="5.57054">
        <ele>623</ele>
        <time>2022-02-15T12:42:07.207Z</time>
      </trkpt>
      <trkpt lat="43.53501" lon="5.57054">
        <ele>623</ele>
        <time>2022-02-15T12:42:08.207Z</time>
      </trkpt>
      <trkpt lat="43.53501" lon="5.57054">
        <ele>623</ele>
        <time>2022-02-15T12:42:09.207Z</time>
      </trkpt>
      <trkpt lat="43.535" lon="5.57054">
        <ele>623</ele>
        <time>2022-02-15T12:42:10.207Z</time>
      </trkpt>
      <trkpt lat="43.53499" lon="5.57054">
        <ele>623</ele>
        <time>2022-02-15T12:42:11.207Z</time>
      </trkpt>
      <trkpt lat="43.53498" lon="5.57053">
        <ele>622</ele>
        <time>2022-02-15T12:42:12.207Z</time>
      </trkpt>
      <trkpt lat="43.53497" lon="5.57053">
        <ele>622</ele>
        <time>2022-02-15T12:42:13.207Z</time>
      </trkpt>
      <trkpt lat="43.53497" lon="5.57052">
        <ele>622</ele>
        <time>2022-02-15T12:42:14.207Z</time>
      </trkpt>
      <trkpt lat="43.53496" lon="5.57052">
        <ele>622</ele>
        <time>2022-02-15T12:42:15.207Z</time>
      </trkpt>
      <trkpt lat="43.53495" lon="5.57052">
        <ele>622</ele>
        <time>2022-02-15T12:42:16.207Z</time>
      </trkpt>
      <trkpt lat="43.53493" lon="5.57051">
        <ele>621</ele>
        <time>2022-02-15T12:42:17.207Z</time>
      </trkpt>
      <trkpt lat="43.53492" lon="5.5705">
        <ele>621</ele>
        <time>2022-02-15T12:42:18.207Z</time>
      </trkpt>
      <trkpt lat="43.53491" lon="5.57048">
        <ele>621</ele>
        <time>2022-02-15T12:42:19.207Z</time>
      </trkpt>
      <trkpt lat="43.53491" lon="5.57047">
        <ele>621</ele>
        <time>2022-02-15T12:42:20.207Z</time>
      </trkpt>
      <trkpt lat="43.53491" lon="5.57046">
        <ele>621</ele>
        <time>2022-02-15T12:42:21.207Z</time>
      </trkpt>
      <trkpt lat="43.53491" lon="5.57046">
        <ele>620</ele>
        <time>2022-02-15T12:42:22.207Z</time>
      </trkpt>
      <trkpt lat="43.53491" lon="5.57045">
        <ele>620</ele>
        <time>2022-02-15T12:42:23.207Z</time>
      </trkpt>
      <trkpt lat="43.53491" lon="5.57045">
        <ele>620</ele>
        <time>2022-02-15T12:42:24.207Z</time>
      </trkpt>
      <trkpt lat="43.5349" lon="5.57046">
        <ele>620</ele>
        <time>2022-02-15T12:42:25.207Z</time>
      </trkpt>
      <trkpt lat="43.5349" lon="5.57046">
        <ele>620</ele>
        <time>2022-02-15T12:42:26.207Z</time>
      </trkpt>
      <trkpt lat="43.53489" lon="5.57046">
        <ele>619</ele>
        <time>2022-02-15T12:42:27.207Z</time>
      </trkpt>
      <trkpt lat="43.53489" lon="5.57045">
        <ele>619</ele>
        <time>2022-02-15T12:42:28.207Z</time>
      </trkpt>
      <trkpt lat="43.53488" lon="5.57045">
        <ele>619</ele>
        <time>2022-02-15T12:42:29.207Z</time>
      </trkpt>
      <trkpt lat="43.53487" lon="5.57044">
        <ele>619</ele>
        <time>2022-02-15T12:42:30.207Z</time>
      </trkpt>
      <trkpt lat="43.53486" lon="5.57043">
        <ele>618</ele>
        <time>2022-02-15T12:42:31.207Z</time>
      </trkpt>
      <trkpt lat="43.53487" lon="5.57042">
        <ele>618</ele>
        <time>2022-02-15T12:42:32.207Z</time>
      </trkpt>
      <trkpt lat="43.53487" lon="5.57042">
        <ele>618</ele>
        <time>2022-02-15T12:42:33.207Z</time>
      </trkpt>
      <trkpt lat="43.53488" lon="5.57041">
        <ele>617</ele>
        <time>2022-02-15T12:42:34.207Z</time>
      </trkpt>
      <trkpt lat="43.53488" lon="5.5704">
        <ele>617</ele>
        <time>2022-02-15T12:42:35.207Z</time>
      </trkpt>
      <trkpt lat="43.53488" lon="5.5704">
        <ele>616</ele>
        <time>2022-02-15T12:42:36.207Z</time>
      </trkpt>
      <trkpt lat="43.53488" lon="5.57039">
        <ele>616</ele>
        <time>2022-02-15T12:42:37.207Z</time>
      </trkpt>
      <trkpt lat="43.53487" lon="5.57038">
        <ele>615</ele>
        <time>2022-02-15T12:42:38.207Z</time>
      </trkpt>
      <trkpt lat="43.53486" lon="5.57038">
        <ele>615</ele>
        <time>2022-02-15T12:42:39.207Z</time>
      </trkpt>
      <trkpt lat="43.53486" lon="5.57039">
        <ele>615</ele>
        <time>2022-02-15T12:42:40.207Z</time>
      </trkpt>
      <trkpt lat="43.53485" lon="5.57039">
        <ele>614</ele>
        <time>2022-02-15T12:42:41.207Z</time>
      </trkpt>
      <trkpt lat="43.53484" lon="5.57039">
        <ele>614</ele>
        <time>2022-02-15T12:42:42.207Z</time>
      </trkpt>
      <trkpt lat="43.53483" lon="5.5704">
        <ele>614</ele>
        <time>2022-02-15T12:42:43.207Z</time>
      </trkpt>
      <trkpt lat="43.53482" lon="5.57041">
        <ele>614</ele>
        <time>2022-02-15T12:42:44.207Z</time>
      </trkpt>
      <trkpt lat="43.53482" lon="5.57042">
        <ele>613</ele>
        <time>2022-02-15T12:42:45.207Z</time>
      </trkpt>
      <trkpt lat="43.53481" lon="5.57043">
        <ele>613</ele>
        <time>2022-02-15T12:42:46.207Z</time>
      </trkpt>
      <trkpt lat="43.5348" lon="5.57044">
        <ele>613</ele>
        <time>2022-02-15T12:42:47.207Z</time>
      </trkpt>
      <trkpt lat="43.53479" lon="5.57045">
        <ele>613</ele>
        <time>2022-02-15T12:42:48.207Z</time>
      </trkpt>
      <trkpt lat="43.53478" lon="5.57045">
        <ele>612</ele>
        <time>2022-02-15T12:42:49.207Z</time>
      </trkpt>
      <trkpt lat="43.53478" lon="5.57046">
        <ele>612</ele>
        <time>2022-02-15T12:42:50.207Z</time>
      </trkpt>
      <trkpt lat="43.53477" lon="5.57047">
        <ele>612</ele>
        <time>2022-02-15T12:42:51.207Z</time>
      </trkpt>
      <trkpt lat="43.53476" lon="5.57047">
        <ele>612</ele>
        <time>2022-02-15T12:42:52.207Z</time>
      </trkpt>
      <trkpt lat="43.53475" lon="5.57048">
        <ele>611</ele>
        <time>2022-02-15T12:42:53.207Z</time>
      </trkpt>
      <trkpt lat="43.53474" lon="5.57047">
        <ele>611</ele>
        <time>2022-02-15T12:42:54.207Z</time>
      </trkpt>
      <trkpt lat="43.53472" lon="5.57047">
        <ele>611</ele>
        <time>2022-02-15T12:42:55.207Z</time>
      </trkpt>
      <trkpt lat="43.53471" lon="5.57047">
        <ele>611</ele>
        <time>2022-02-15T12:42:56.207Z</time>
      </trkpt>
      <trkpt lat="43.5347" lon="5.57047">
        <ele>611</ele>
        <time>2022-02-15T12:42:57.207Z</time>
      </trkpt>
      <trkpt lat="43.53469" lon="5.57046">
        <ele>611</ele>
        <time>2022-02-15T12:42:58.207Z</time>
      </trkpt>
      <trkpt lat="43.53468" lon="5.57046">
        <ele>611</ele>
        <time>2022-02-15T12:42:59.207Z</time>
      </trkpt>
      <trkpt lat="43.53466" lon="5.57045">
        <ele>611</ele>
        <time>2022-02-15T12:43:00.207Z</time>
      </trkpt>
      <trkpt lat="43.53465" lon="5.57044">
        <ele>611</ele>
        <time>2022-02-15T12:43:01.207Z</time>
      </trkpt>
      <trkpt lat="43.53464" lon="5.57043">
        <ele>611</ele>
        <time>2022-02-15T12:43:02.207Z</time>
      </trkpt>
      <trkpt lat="43.53463" lon="5.57043">
        <ele>611</ele>
        <time>2022-02-15T12:43:03.207Z</time>
      </trkpt>
      <trkpt lat="43.53462" lon="5.57043">
        <ele>611</ele>
        <time>2022-02-15T12:43:04.207Z</time>
      </trkpt>
      <trkpt lat="43.53461" lon="5.57042">
        <ele>611</ele>
        <time>2022-02-15T12:43:05.207Z</time>
      </trkpt>
      <trkpt lat="43.5346" lon="5.57042">
        <ele>610</ele>
        <time>2022-02-15T12:43:06.207Z</time>
      </trkpt>
      <trkpt lat="43.53459" lon="5.57042">
        <ele>610</ele>
        <time>2022-02-15T12:43:07.207Z</time>
      </trkpt>
      <trkpt lat="43.53458" lon="5.57042">
        <ele>610</ele>
        <time>2022-02-15T12:43:08.207Z</time>
      </trkpt>
      <trkpt lat="43.53457" lon="5.57041">
        <ele>610</ele>
        <time>2022-02-15T12:43:09.207Z</time>
      </trkpt>
      <trkpt lat="43.53456" lon="5.57042">
        <ele>610</ele>
        <time>2022-02-15T12:43:10.207Z</time>
      </trkpt>
      <trkpt lat="43.53455" lon="5.57041">
        <ele>609</ele>
        <time>2022-02-15T12:43:11.207Z</time>
      </trkpt>
      <trkpt lat="43.53455" lon="5.57041">
        <ele>609</ele>
        <time>2022-02-15T12:43:12.207Z</time>
      </trkpt>
      <trkpt lat="43.53454" lon="5.57041">
        <ele>609</ele>
        <time>2022-02-15T12:43:13.207Z</time>
      </trkpt>
      <trkpt lat="43.53453" lon="5.5704">
        <ele>609</ele>
        <time>2022-02-15T12:43:14.207Z</time>
      </trkpt>
      <trkpt lat="43.53452" lon="5.5704">
        <ele>608</ele>
        <time>2022-02-15T12:43:15.207Z</time>
      </trkpt>
      <trkpt lat="43.53452" lon="5.57039">
        <ele>608</ele>
        <time>2022-02-15T12:43:16.207Z</time>
      </trkpt>
      <trkpt lat="43.53451" lon="5.57039">
        <ele>608</ele>
        <time>2022-02-15T12:43:17.207Z</time>
      </trkpt>
      <trkpt lat="43.5345" lon="5.57039">
        <ele>608</ele>
        <time>2022-02-15T12:43:18.207Z</time>
      </trkpt>
      <trkpt lat="43.53449" lon="5.57038">
        <ele>608</ele>
        <time>2022-02-15T12:43:19.207Z</time>
      </trkpt>
      <trkpt lat="43.53448" lon="5.57038">
        <ele>608</ele>
        <time>2022-02-15T12:43:20.207Z</time>
      </trkpt>
      <trkpt lat="43.53447" lon="5.57038">
        <ele>607</ele>
        <time>2022-02-15T12:43:21.207Z</time>
      </trkpt>
      <trkpt lat="43.53445" lon="5.57038">
        <ele>607</ele>
        <time>2022-02-15T12:43:22.207Z</time>
      </trkpt>
      <trkpt lat="43.53444" lon="5.57038">
        <ele>607</ele>
        <time>2022-02-15T12:43:23.207Z</time>
      </trkpt>
      <trkpt lat="43.53443" lon="5.57037">
        <ele>607</ele>
        <time>2022-02-15T12:43:24.207Z</time>
      </trkpt>
      <trkpt lat="43.53442" lon="5.57036">
        <ele>607</ele>
        <time>2022-02-15T12:43:25.207Z</time>
      </trkpt>
      <trkpt lat="43.53441" lon="5.57035">
        <ele>606</ele>
        <time>2022-02-15T12:43:26.207Z</time>
      </trkpt>
      <trkpt lat="43.5344" lon="5.57035">
        <ele>606</ele>
        <time>2022-02-15T12:43:27.207Z</time>
      </trkpt>
      <trkpt lat="43.53438" lon="5.57034">
        <ele>606</ele>
        <time>2022-02-15T12:43:28.207Z</time>
      </trkpt>
      <trkpt lat="43.53438" lon="5.57033">
        <ele>606</ele>
        <time>2022-02-15T12:43:29.207Z</time>
      </trkpt>
      <trkpt lat="43.53437" lon="5.57033">
        <ele>605</ele>
        <time>2022-02-15T12:43:30.207Z</time>
      </trkpt>
      <trkpt lat="43.53436" lon="5.57033">
        <ele>605</ele>
        <time>2022-02-15T12:43:31.207Z</time>
      </trkpt>
      <trkpt lat="43.53435" lon="5.57033">
        <ele>605</ele>
        <time>2022-02-15T12:43:32.207Z</time>
      </trkpt>
      <trkpt lat="43.53433" lon="5.57034">
        <ele>605</ele>
        <time>2022-02-15T12:43:33.207Z</time>
      </trkpt>
      <trkpt lat="43.53432" lon="5.57034">
        <ele>605</ele>
        <time>2022-02-15T12:43:34.207Z</time>
      </trkpt>
      <trkpt lat="43.53431" lon="5.57034">
        <ele>604</ele>
        <time>2022-02-15T12:43:35.207Z</time>
      </trkpt>
      <trkpt lat="43.5343" lon="5.57034">
        <ele>604</ele>
        <time>2022-02-15T12:43:36.207Z</time>
      </trkpt>
      <trkpt lat="43.5343" lon="5.57034">
        <ele>604</ele>
        <time>2022-02-15T12:43:37.207Z</time>
      </trkpt>
      <trkpt lat="43.53429" lon="5.57034">
        <ele>604</ele>
        <time>2022-02-15T12:43:38.207Z</time>
      </trkpt>
      <trkpt lat="43.53428" lon="5.57033">
        <ele>603</ele>
        <time>2022-02-15T12:43:39.207Z</time>
      </trkpt>
      <trkpt lat="43.53428" lon="5.57033">
        <ele>603</ele>
        <time>2022-02-15T12:43:40.207Z</time>
      </trkpt>
      <trkpt lat="43.53427" lon="5.57032">
        <ele>603</ele>
        <time>2022-02-15T12:43:41.207Z</time>
      </trkpt>
      <trkpt lat="43.53427" lon="5.57032">
        <ele>602</ele>
        <time>2022-02-15T12:43:42.207Z</time>
      </trkpt>
      <trkpt lat="43.53426" lon="5.57031">
        <ele>602</ele>
        <time>2022-02-15T12:43:43.207Z</time>
      </trkpt>
      <trkpt lat="43.53426" lon="5.57029">
        <ele>602</ele>
        <time>2022-02-15T12:43:44.207Z</time>
      </trkpt>
      <trkpt lat="43.53426" lon="5.57028">
        <ele>601</ele>
        <time>2022-02-15T12:43:45.207Z</time>
      </trkpt>
      <trkpt lat="43.53426" lon="5.57027">
        <ele>601</ele>
        <time>2022-02-15T12:43:46.207Z</time>
      </trkpt>
      <trkpt lat="43.53426" lon="5.57026">
        <ele>601</ele>
        <time>2022-02-15T12:43:47.207Z</time>
      </trkpt>
      <trkpt lat="43.53425" lon="5.57025">
        <ele>600</ele>
        <time>2022-02-15T12:43:48.207Z</time>
      </trkpt>
      <trkpt lat="43.53425" lon="5.57024">
        <ele>600</ele>
        <time>2022-02-15T12:43:49.207Z</time>
      </trkpt>
      <trkpt lat="43.53424" lon="5.57023">
        <ele>600</ele>
        <time>2022-02-15T12:43:50.207Z</time>
      </trkpt>
      <trkpt lat="43.53423" lon="5.57023">
        <ele>599</ele>
        <time>2022-02-15T12:43:51.207Z</time>
      </trkpt>
      <trkpt lat="43.53422" lon="5.57023">
        <ele>599</ele>
        <time>2022-02-15T12:43:52.207Z</time>
      </trkpt>
      <trkpt lat="43.53421" lon="5.57023">
        <ele>599</ele>
        <time>2022-02-15T12:43:53.207Z</time>
      </trkpt>
      <trkpt lat="43.5342" lon="5.57023">
        <ele>598</ele>
        <time>2022-02-15T12:43:54.207Z</time>
      </trkpt>
      <trkpt lat="43.53419" lon="5.57023">
        <ele>598</ele>
        <time>2022-02-15T12:43:55.207Z</time>
      </trkpt>
      <trkpt lat="43.53418" lon="5.57023">
        <ele>598</ele>
        <time>2022-02-15T12:43:56.207Z</time>
      </trkpt>
      <trkpt lat="43.53417" lon="5.57023">
        <ele>598</ele>
        <time>2022-02-15T12:43:57.207Z</time>
      </trkpt>
      <trkpt lat="43.53416" lon="5.57022">
        <ele>598</ele>
        <time>2022-02-15T12:43:58.207Z</time>
      </trkpt>
      <trkpt lat="43.53416" lon="5.57021">
        <ele>597</ele>
        <time>2022-02-15T12:43:59.207Z</time>
      </trkpt>
      <trkpt lat="43.53415" lon="5.5702">
        <ele>597</ele>
        <time>2022-02-15T12:44:00.207Z</time>
      </trkpt>
      <trkpt lat="43.53415" lon="5.57019">
        <ele>597</ele>
        <time>2022-02-15T12:44:01.207Z</time>
      </trkpt>
      <trkpt lat="43.53414" lon="5.57018">
        <ele>597</ele>
        <time>2022-02-15T12:44:02.207Z</time>
      </trkpt>
      <trkpt lat="43.53413" lon="5.57017">
        <ele>596</ele>
        <time>2022-02-15T12:44:03.207Z</time>
      </trkpt>
      <trkpt lat="43.53412" lon="5.57017">
        <ele>596</ele>
        <time>2022-02-15T12:44:04.207Z</time>
      </trkpt>
      <trkpt lat="43.53411" lon="5.57016">
        <ele>596</ele>
        <time>2022-02-15T12:44:05.207Z</time>
      </trkpt>
      <trkpt lat="43.5341" lon="5.57015">
        <ele>596</ele>
        <time>2022-02-15T12:44:06.207Z</time>
      </trkpt>
      <trkpt lat="43.53409" lon="5.57016">
        <ele>596</ele>
        <time>2022-02-15T12:44:07.207Z</time>
      </trkpt>
      <trkpt lat="43.53408" lon="5.57016">
        <ele>596</ele>
        <time>2022-02-15T12:44:08.207Z</time>
      </trkpt>
      <trkpt lat="43.53407" lon="5.57017">
        <ele>596</ele>
        <time>2022-02-15T12:44:09.207Z</time>
      </trkpt>
      <trkpt lat="43.53407" lon="5.57017">
        <ele>595</ele>
        <time>2022-02-15T12:44:10.207Z</time>
      </trkpt>
      <trkpt lat="43.53406" lon="5.57017">
        <ele>595</ele>
        <time>2022-02-15T12:44:11.207Z</time>
      </trkpt>
      <trkpt lat="43.53405" lon="5.57018">
        <ele>595</ele>
        <time>2022-02-15T12:44:12.207Z</time>
      </trkpt>
      <trkpt lat="43.53405" lon="5.57017">
        <ele>595</ele>
        <time>2022-02-15T12:44:13.207Z</time>
      </trkpt>
      <trkpt lat="43.53404" lon="5.57016">
        <ele>595</ele>
        <time>2022-02-15T12:44:14.207Z</time>
      </trkpt>
      <trkpt lat="43.53403" lon="5.57016">
        <ele>595</ele>
        <time>2022-02-15T12:44:15.207Z</time>
      </trkpt>
      <trkpt lat="43.53402" lon="5.57015">
        <ele>594</ele>
        <time>2022-02-15T12:44:16.207Z</time>
      </trkpt>
      <trkpt lat="43.53401" lon="5.57014">
        <ele>594</ele>
        <time>2022-02-15T12:44:17.207Z</time>
      </trkpt>
      <trkpt lat="43.53401" lon="5.57014">
        <ele>594</ele>
        <time>2022-02-15T12:44:18.207Z</time>
      </trkpt>
      <trkpt lat="43.534" lon="5.57013">
        <ele>594</ele>
        <time>2022-02-15T12:44:19.207Z</time>
      </trkpt>
      <trkpt lat="43.53399" lon="5.57013">
        <ele>594</ele>
        <time>2022-02-15T12:44:20.207Z</time>
      </trkpt>
      <trkpt lat="43.53399" lon="5.57012">
        <ele>594</ele>
        <time>2022-02-15T12:44:21.207Z</time>
      </trkpt>
      <trkpt lat="43.53398" lon="5.57013">
        <ele>594</ele>
        <time>2022-02-15T12:44:22.207Z</time>
      </trkpt>
      <trkpt lat="43.53397" lon="5.57013">
        <ele>594</ele>
        <time>2022-02-15T12:44:23.207Z</time>
      </trkpt>
      <trkpt lat="43.53397" lon="5.57013">
        <ele>594</ele>
        <time>2022-02-15T12:44:24.207Z</time>
      </trkpt>
      <trkpt lat="43.53396" lon="5.57013">
        <ele>594</ele>
        <time>2022-02-15T12:44:25.207Z</time>
      </trkpt>
      <trkpt lat="43.53395" lon="5.57014">
        <ele>594</ele>
        <time>2022-02-15T12:44:26.207Z</time>
      </trkpt>
      <trkpt lat="43.53395" lon="5.57014">
        <ele>593</ele>
        <time>2022-02-15T12:44:27.207Z</time>
      </trkpt>
      <trkpt lat="43.53394" lon="5.57014">
        <ele>593</ele>
        <time>2022-02-15T12:44:28.207Z</time>
      </trkpt>
      <trkpt lat="43.53393" lon="5.57014">
        <ele>593</ele>
        <time>2022-02-15T12:44:29.207Z</time>
      </trkpt>
      <trkpt lat="43.53393" lon="5.57014">
        <ele>593</ele>
        <time>2022-02-15T12:44:30.207Z</time>
      </trkpt>
      <trkpt lat="43.53393" lon="5.57015">
        <ele>593</ele>
        <time>2022-02-15T12:44:31.207Z</time>
      </trkpt>
      <trkpt lat="43.53393" lon="5.57014">
        <ele>593</ele>
        <time>2022-02-15T12:44:32.207Z</time>
      </trkpt>
      <trkpt lat="43.53393" lon="5.57014">
        <ele>593</ele>
        <time>2022-02-15T12:44:33.207Z</time>
      </trkpt>
      <trkpt lat="43.53392" lon="5.57014">
        <ele>593</ele>
        <time>2022-02-15T12:44:34.207Z</time>
      </trkpt>
      <trkpt lat="43.53392" lon="5.57014">
        <ele>593</ele>
        <time>2022-02-15T12:44:35.207Z</time>
      </trkpt>
      <trkpt lat="43.53392" lon="5.57014">
        <ele>593</ele>
        <time>2022-02-15T12:44:36.207Z</time>
      </trkpt>
      <trkpt lat="43.53392" lon="5.57014">
        <ele>593</ele>
        <time>2022-02-15T12:44:37.207Z</time>
      </trkpt>
      <trkpt lat="43.53392" lon="5.57015">
        <ele>593</ele>
        <time>2022-02-15T12:44:38.207Z</time>
      </trkpt>
      <trkpt lat="43.53392" lon="5.57014">
        <ele>593</ele>
        <time>2022-02-15T12:44:39.207Z</time>
      </trkpt>
      <trkpt lat="43.53392" lon="5.57015">
        <ele>593</ele>
        <time>2022-02-15T12:44:40.207Z</time>
      </trkpt>
      <trkpt lat="43.53391" lon="5.57015">
        <ele>593</ele>
        <time>2022-02-15T12:44:41.207Z</time>
      </trkpt>
      <trkpt lat="43.5339" lon="5.57015">
        <ele>593</ele>
        <time>2022-02-15T12:44:42.207Z</time>
      </trkpt>
      <trkpt lat="43.5339" lon="5.57015">
        <ele>592</ele>
        <time>2022-02-15T12:44:43.207Z</time>
      </trkpt>
      <trkpt lat="43.5339" lon="5.57015">
        <ele>592</ele>
        <time>2022-02-15T12:44:44.207Z</time>
      </trkpt>
      <trkpt lat="43.5339" lon="5.57015">
        <ele>592</ele>
        <time>2022-02-15T12:44:45.207Z</time>
      </trkpt>
      <trkpt lat="43.5339" lon="5.57015">
        <ele>592</ele>
        <time>2022-02-15T12:44:46.207Z</time>
      </trkpt>
      <trkpt lat="43.5339" lon="5.57015">
        <ele>592</ele>
        <time>2022-02-15T12:44:47.207Z</time>
      </trkpt>
      <trkpt lat="43.5339" lon="5.57014">
        <ele>592</ele>
        <time>2022-02-15T12:44:48.207Z</time>
      </trkpt>
      <trkpt lat="43.5339" lon="5.57014">
        <ele>592</ele>
        <time>2022-02-15T12:44:49.207Z</time>
      </trkpt>
      <trkpt lat="43.5339" lon="5.57014">
        <ele>592</ele>
        <time>2022-02-15T12:44:50.207Z</time>
      </trkpt>
      <trkpt lat="43.5339" lon="5.57014">
        <ele>592</ele>
        <time>2022-02-15T12:44:51.207Z</time>
      </trkpt>
      <trkpt lat="43.5339" lon="5.57014">
        <ele>592</ele>
        <time>2022-02-15T12:44:52.207Z</time>
      </trkpt>
      <trkpt lat="43.5339" lon="5.57014">
        <ele>592</ele>
        <time>2022-02-15T12:44:53.207Z</time>
      </trkpt>
      <trkpt lat="43.5339" lon="5.57014">
        <ele>592</ele>
        <time>2022-02-15T12:44:54.207Z</time>
      </trkpt>
      <trkpt lat="43.5339" lon="5.57014">
        <ele>591</ele>
        <time>2022-02-15T12:44:55.207Z</time>
      </trkpt>
      <trkpt lat="43.5339" lon="5.57014">
        <ele>591</ele>
        <time>2022-02-15T12:44:56.207Z</time>
      </trkpt>
      <trkpt lat="43.5339" lon="5.57014">
        <ele>591</ele>
        <time>2022-02-15T12:44:57.207Z</time>
      </trkpt>
      <trkpt lat="43.5339" lon="5.57014">
        <ele>591</ele>
        <time>2022-02-15T12:44:58.207Z</time>
      </trkpt>
      <trkpt lat="43.53389" lon="5.57014">
        <ele>591</ele>
        <time>2022-02-15T12:44:59.207Z</time>
      </trkpt>
      <trkpt lat="43.53389" lon="5.57014">
        <ele>591</ele>
        <time>2022-02-15T12:45:00.207Z</time>
      </trkpt>
      <trkpt lat="43.53389" lon="5.57014">
        <ele>591</ele>
        <time>2022-02-15T12:45:01.207Z</time>
      </trkpt>
      <trkpt lat="43.53389" lon="5.57014">
        <ele>591</ele>
        <time>2022-02-15T12:45:02.207Z</time>
      </trkpt>
      <trkpt lat="43.53388" lon="5.57015">
        <ele>591</ele>
        <time>2022-02-15T12:45:03.207Z</time>
      </trkpt>
      <trkpt lat="43.53387" lon="5.57015">
        <ele>590</ele>
        <time>2022-02-15T12:45:04.207Z</time>
      </trkpt>
      <trkpt lat="43.53387" lon="5.57015">
        <ele>590</ele>
        <time>2022-02-15T12:45:05.207Z</time>
      </trkpt>
      <trkpt lat="43.53386" lon="5.57015">
        <ele>590</ele>
        <time>2022-02-15T12:45:06.207Z</time>
      </trkpt>
      <trkpt lat="43.53385" lon="5.57015">
        <ele>590</ele>
        <time>2022-02-15T12:45:07.207Z</time>
      </trkpt>
      <trkpt lat="43.53384" lon="5.57015">
        <ele>589</ele>
        <time>2022-02-15T12:45:08.207Z</time>
      </trkpt>
      <trkpt lat="43.53383" lon="5.57015">
        <ele>589</ele>
        <time>2022-02-15T12:45:09.207Z</time>
      </trkpt>
      <trkpt lat="43.53383" lon="5.57015">
        <ele>589</ele>
        <time>2022-02-15T12:45:10.207Z</time>
      </trkpt>
      <trkpt lat="43.53382" lon="5.57015">
        <ele>589</ele>
        <time>2022-02-15T12:45:11.207Z</time>
      </trkpt>
      <trkpt lat="43.53381" lon="5.57015">
        <ele>588</ele>
        <time>2022-02-15T12:45:12.207Z</time>
      </trkpt>
      <trkpt lat="43.5338" lon="5.57015">
        <ele>588</ele>
        <time>2022-02-15T12:45:13.207Z</time>
      </trkpt>
      <trkpt lat="43.53379" lon="5.57015">
        <ele>588</ele>
        <time>2022-02-15T12:45:14.207Z</time>
      </trkpt>
      <trkpt lat="43.53378" lon="5.57015">
        <ele>587</ele>
        <time>2022-02-15T12:45:15.207Z</time>
      </trkpt>
      <trkpt lat="43.53377" lon="5.57014">
        <ele>587</ele>
        <time>2022-02-15T12:45:16.207Z</time>
      </trkpt>
      <trkpt lat="43.53376" lon="5.57014">
        <ele>587</ele>
        <time>2022-02-15T12:45:17.207Z</time>
      </trkpt>
      <trkpt lat="43.53374" lon="5.57013">
        <ele>587</ele>
        <time>2022-02-15T12:45:18.207Z</time>
      </trkpt>
      <trkpt lat="43.53373" lon="5.57012">
        <ele>586</ele>
        <time>2022-02-15T12:45:19.207Z</time>
      </trkpt>
      <trkpt lat="43.53372" lon="5.57012">
        <ele>586</ele>
        <time>2022-02-15T12:45:20.207Z</time>
      </trkpt>
      <trkpt lat="43.53371" lon="5.57012">
        <ele>586</ele>
        <time>2022-02-15T12:45:21.207Z</time>
      </trkpt>
      <trkpt lat="43.5337" lon="5.57012">
        <ele>586</ele>
        <time>2022-02-15T12:45:22.207Z</time>
      </trkpt>
      <trkpt lat="43.53369" lon="5.57012">
        <ele>585</ele>
        <time>2022-02-15T12:45:23.207Z</time>
      </trkpt>
      <trkpt lat="43.53368" lon="5.57012">
        <ele>585</ele>
        <time>2022-02-15T12:45:24.207Z</time>
      </trkpt>
      <trkpt lat="43.53367" lon="5.57012">
        <ele>585</ele>
        <time>2022-02-15T12:45:25.207Z</time>
      </trkpt>
      <trkpt lat="43.53366" lon="5.57013">
        <ele>584</ele>
        <time>2022-02-15T12:45:26.207Z</time>
      </trkpt>
      <trkpt lat="43.53365" lon="5.57013">
        <ele>584</ele>
        <time>2022-02-15T12:45:27.207Z</time>
      </trkpt>
      <trkpt lat="43.53365" lon="5.57013">
        <ele>584</ele>
        <time>2022-02-15T12:45:28.207Z</time>
      </trkpt>
      <trkpt lat="43.53364" lon="5.57013">
        <ele>583</ele>
        <time>2022-02-15T12:45:29.207Z</time>
      </trkpt>
      <trkpt lat="43.53363" lon="5.57012">
        <ele>583</ele>
        <time>2022-02-15T12:45:30.207Z</time>
      </trkpt>
      <trkpt lat="43.53362" lon="5.57012">
        <ele>583</ele>
        <time>2022-02-15T12:45:31.207Z</time>
      </trkpt>
      <trkpt lat="43.53362" lon="5.57011">
        <ele>582</ele>
        <time>2022-02-15T12:45:32.207Z</time>
      </trkpt>
      <trkpt lat="43.53361" lon="5.57011">
        <ele>582</ele>
        <time>2022-02-15T12:45:33.207Z</time>
      </trkpt>
      <trkpt lat="43.53361" lon="5.5701">
        <ele>582</ele>
        <time>2022-02-15T12:45:34.207Z</time>
      </trkpt>
      <trkpt lat="43.5336" lon="5.57009">
        <ele>582</ele>
        <time>2022-02-15T12:45:35.207Z</time>
      </trkpt>
      <trkpt lat="43.5336" lon="5.57008">
        <ele>581</ele>
        <time>2022-02-15T12:45:36.207Z</time>
      </trkpt>
      <trkpt lat="43.53359" lon="5.57007">
        <ele>581</ele>
        <time>2022-02-15T12:45:37.207Z</time>
      </trkpt>
      <trkpt lat="43.53359" lon="5.57006">
        <ele>581</ele>
        <time>2022-02-15T12:45:38.207Z</time>
      </trkpt>
      <trkpt lat="43.53358" lon="5.57005">
        <ele>580</ele>
        <time>2022-02-15T12:45:39.207Z</time>
      </trkpt>
      <trkpt lat="43.53358" lon="5.57004">
        <ele>580</ele>
        <time>2022-02-15T12:45:40.207Z</time>
      </trkpt>
      <trkpt lat="43.53357" lon="5.57004">
        <ele>580</ele>
        <time>2022-02-15T12:45:41.207Z</time>
      </trkpt>
      <trkpt lat="43.53357" lon="5.57003">
        <ele>579</ele>
        <time>2022-02-15T12:45:42.207Z</time>
      </trkpt>
      <trkpt lat="43.53356" lon="5.57002">
        <ele>579</ele>
        <time>2022-02-15T12:45:43.207Z</time>
      </trkpt>
      <trkpt lat="43.53355" lon="5.57001">
        <ele>579</ele>
        <time>2022-02-15T12:45:44.207Z</time>
      </trkpt>
      <trkpt lat="43.53355" lon="5.57">
        <ele>578</ele>
        <time>2022-02-15T12:45:45.207Z</time>
      </trkpt>
      <trkpt lat="43.53355" lon="5.56999">
        <ele>578</ele>
        <time>2022-02-15T12:45:46.207Z</time>
      </trkpt>
      <trkpt lat="43.53354" lon="5.56998">
        <ele>578</ele>
        <time>2022-02-15T12:45:47.207Z</time>
      </trkpt>
      <trkpt lat="43.53353" lon="5.56997">
        <ele>577</ele>
        <time>2022-02-15T12:45:48.207Z</time>
      </trkpt>
      <trkpt lat="43.53353" lon="5.56996">
        <ele>577</ele>
        <time>2022-02-15T12:45:49.207Z</time>
      </trkpt>
      <trkpt lat="43.53352" lon="5.56995">
        <ele>577</ele>
        <time>2022-02-15T12:45:50.207Z</time>
      </trkpt>
      <trkpt lat="43.53352" lon="5.56994">
        <ele>576</ele>
        <time>2022-02-15T12:45:51.207Z</time>
      </trkpt>
      <trkpt lat="43.53351" lon="5.56994">
        <ele>576</ele>
        <time>2022-02-15T12:45:52.207Z</time>
      </trkpt>
      <trkpt lat="43.5335" lon="5.56994">
        <ele>576</ele>
        <time>2022-02-15T12:45:53.207Z</time>
      </trkpt>
      <trkpt lat="43.5335" lon="5.56994">
        <ele>575</ele>
        <time>2022-02-15T12:45:54.207Z</time>
      </trkpt>
      <trkpt lat="43.53349" lon="5.56994">
        <ele>575</ele>
        <time>2022-02-15T12:45:55.207Z</time>
      </trkpt>
      <trkpt lat="43.53348" lon="5.56995">
        <ele>575</ele>
        <time>2022-02-15T12:45:56.207Z</time>
      </trkpt>
      <trkpt lat="43.53347" lon="5.56995">
        <ele>575</ele>
        <time>2022-02-15T12:45:57.207Z</time>
      </trkpt>
      <trkpt lat="43.53346" lon="5.56996">
        <ele>574</ele>
        <time>2022-02-15T12:45:58.207Z</time>
      </trkpt>
      <trkpt lat="43.53345" lon="5.56996">
        <ele>574</ele>
        <time>2022-02-15T12:45:59.207Z</time>
      </trkpt>
      <trkpt lat="43.53345" lon="5.56996">
        <ele>574</ele>
        <time>2022-02-15T12:46:00.207Z</time>
      </trkpt>
      <trkpt lat="43.53344" lon="5.56996">
        <ele>574</ele>
        <time>2022-02-15T12:46:01.207Z</time>
      </trkpt>
      <trkpt lat="43.53343" lon="5.56996">
        <ele>573</ele>
        <time>2022-02-15T12:46:02.207Z</time>
      </trkpt>
      <trkpt lat="43.53342" lon="5.56996">
        <ele>573</ele>
        <time>2022-02-15T12:46:03.207Z</time>
      </trkpt>
      <trkpt lat="43.53341" lon="5.56996">
        <ele>573</ele>
        <time>2022-02-15T12:46:04.207Z</time>
      </trkpt>
      <trkpt lat="43.53341" lon="5.56995">
        <ele>573</ele>
        <time>2022-02-15T12:46:05.207Z</time>
      </trkpt>
      <trkpt lat="43.5334" lon="5.56994">
        <ele>573</ele>
        <time>2022-02-15T12:46:06.207Z</time>
      </trkpt>
      <trkpt lat="43.53339" lon="5.56994">
        <ele>572</ele>
        <time>2022-02-15T12:46:07.207Z</time>
      </trkpt>
      <trkpt lat="43.53338" lon="5.56994">
        <ele>572</ele>
        <time>2022-02-15T12:46:08.207Z</time>
      </trkpt>
      <trkpt lat="43.53337" lon="5.56994">
        <ele>572</ele>
        <time>2022-02-15T12:46:09.207Z</time>
      </trkpt>
      <trkpt lat="43.53336" lon="5.56994">
        <ele>572</ele>
        <time>2022-02-15T12:46:10.207Z</time>
      </trkpt>
      <trkpt lat="43.53335" lon="5.56994">
        <ele>571</ele>
        <time>2022-02-15T12:46:11.207Z</time>
      </trkpt>
      <trkpt lat="43.53334" lon="5.56993">
        <ele>571</ele>
        <time>2022-02-15T12:46:12.207Z</time>
      </trkpt>
      <trkpt lat="43.53333" lon="5.56993">
        <ele>571</ele>
        <time>2022-02-15T12:46:13.207Z</time>
      </trkpt>
      <trkpt lat="43.53332" lon="5.56992">
        <ele>571</ele>
        <time>2022-02-15T12:46:14.207Z</time>
      </trkpt>
      <trkpt lat="43.53331" lon="5.56991">
        <ele>570</ele>
        <time>2022-02-15T12:46:15.207Z</time>
      </trkpt>
      <trkpt lat="43.5333" lon="5.5699">
        <ele>570</ele>
        <time>2022-02-15T12:46:16.207Z</time>
      </trkpt>
      <trkpt lat="43.53329" lon="5.56989">
        <ele>570</ele>
        <time>2022-02-15T12:46:17.207Z</time>
      </trkpt>
      <trkpt lat="43.53329" lon="5.56988">
        <ele>570</ele>
        <time>2022-02-15T12:46:18.207Z</time>
      </trkpt>
      <trkpt lat="43.53328" lon="5.56987">
        <ele>570</ele>
        <time>2022-02-15T12:46:19.207Z</time>
      </trkpt>
      <trkpt lat="43.53327" lon="5.56986">
        <ele>570</ele>
        <time>2022-02-15T12:46:20.207Z</time>
      </trkpt>
      <trkpt lat="43.53326" lon="5.56986">
        <ele>570</ele>
        <time>2022-02-15T12:46:21.207Z</time>
      </trkpt>
      <trkpt lat="43.53325" lon="5.56984">
        <ele>570</ele>
        <time>2022-02-15T12:46:22.207Z</time>
      </trkpt>
      <trkpt lat="43.53325" lon="5.56983">
        <ele>570</ele>
        <time>2022-02-15T12:46:23.207Z</time>
      </trkpt>
      <trkpt lat="43.53324" lon="5.56981">
        <ele>570</ele>
        <time>2022-02-15T12:46:24.207Z</time>
      </trkpt>
      <trkpt lat="43.53324" lon="5.5698">
        <ele>570</ele>
        <time>2022-02-15T12:46:25.207Z</time>
      </trkpt>
      <trkpt lat="43.53323" lon="5.56979">
        <ele>569</ele>
        <time>2022-02-15T12:46:26.207Z</time>
      </trkpt>
      <trkpt lat="43.53323" lon="5.56977">
        <ele>569</ele>
        <time>2022-02-15T12:46:27.207Z</time>
      </trkpt>
      <trkpt lat="43.53322" lon="5.56976">
        <ele>569</ele>
        <time>2022-02-15T12:46:28.207Z</time>
      </trkpt>
      <trkpt lat="43.53322" lon="5.56975">
        <ele>569</ele>
        <time>2022-02-15T12:46:29.207Z</time>
      </trkpt>
      <trkpt lat="43.53321" lon="5.56973">
        <ele>569</ele>
        <time>2022-02-15T12:46:30.207Z</time>
      </trkpt>
      <trkpt lat="43.53321" lon="5.56972">
        <ele>569</ele>
        <time>2022-02-15T12:46:31.207Z</time>
      </trkpt>
      <trkpt lat="43.5332" lon="5.56971">
        <ele>569</ele>
        <time>2022-02-15T12:46:32.207Z</time>
      </trkpt>
      <trkpt lat="43.53319" lon="5.5697">
        <ele>569</ele>
        <time>2022-02-15T12:46:33.207Z</time>
      </trkpt>
      <trkpt lat="43.53318" lon="5.56969">
        <ele>569</ele>
        <time>2022-02-15T12:46:34.207Z</time>
      </trkpt>
      <trkpt lat="43.53318" lon="5.56968">
        <ele>568</ele>
        <time>2022-02-15T12:46:35.207Z</time>
      </trkpt>
      <trkpt lat="43.53317" lon="5.56967">
        <ele>568</ele>
        <time>2022-02-15T12:46:36.207Z</time>
      </trkpt>
      <trkpt lat="43.53317" lon="5.56967">
        <ele>568</ele>
        <time>2022-02-15T12:46:37.207Z</time>
      </trkpt>
      <trkpt lat="43.53316" lon="5.56966">
        <ele>568</ele>
        <time>2022-02-15T12:46:38.207Z</time>
      </trkpt>
      <trkpt lat="43.53316" lon="5.56966">
        <ele>568</ele>
        <time>2022-02-15T12:46:39.207Z</time>
      </trkpt>
      <trkpt lat="43.53316" lon="5.56966">
        <ele>568</ele>
        <time>2022-02-15T12:46:40.207Z</time>
      </trkpt>
      <trkpt lat="43.53316" lon="5.56967">
        <ele>568</ele>
        <time>2022-02-15T12:46:41.207Z</time>
      </trkpt>
      <trkpt lat="43.53315" lon="5.56967">
        <ele>568</ele>
        <time>2022-02-15T12:46:42.207Z</time>
      </trkpt>
      <trkpt lat="43.53315" lon="5.56967">
        <ele>568</ele>
        <time>2022-02-15T12:46:43.207Z</time>
      </trkpt>
      <trkpt lat="43.53315" lon="5.56967">
        <ele>567</ele>
        <time>2022-02-15T12:46:44.207Z</time>
      </trkpt>
      <trkpt lat="43.53315" lon="5.56968">
        <ele>567</ele>
        <time>2022-02-15T12:46:45.207Z</time>
      </trkpt>
      <trkpt lat="43.53314" lon="5.56968">
        <ele>567</ele>
        <time>2022-02-15T12:46:46.207Z</time>
      </trkpt>
      <trkpt lat="43.53314" lon="5.56968">
        <ele>567</ele>
        <time>2022-02-15T12:46:47.207Z</time>
      </trkpt>
      <trkpt lat="43.53313" lon="5.56969">
        <ele>566</ele>
        <time>2022-02-15T12:46:48.207Z</time>
      </trkpt>
      <trkpt lat="43.53313" lon="5.56969">
        <ele>566</ele>
        <time>2022-02-15T12:46:49.207Z</time>
      </trkpt>
      <trkpt lat="43.53313" lon="5.5697">
        <ele>566</ele>
        <time>2022-02-15T12:46:50.207Z</time>
      </trkpt>
      <trkpt lat="43.53313" lon="5.5697">
        <ele>566</ele>
        <time>2022-02-15T12:46:51.207Z</time>
      </trkpt>
      <trkpt lat="43.53312" lon="5.5697">
        <ele>566</ele>
        <time>2022-02-15T12:46:52.207Z</time>
      </trkpt>
      <trkpt lat="43.53312" lon="5.5697">
        <ele>566</ele>
        <time>2022-02-15T12:46:53.207Z</time>
      </trkpt>
      <trkpt lat="43.53311" lon="5.5697">
        <ele>565</ele>
        <time>2022-02-15T12:46:54.207Z</time>
      </trkpt>
      <trkpt lat="43.5331" lon="5.5697">
        <ele>565</ele>
        <time>2022-02-15T12:46:55.207Z</time>
      </trkpt>
      <trkpt lat="43.5331" lon="5.56971">
        <ele>565</ele>
        <time>2022-02-15T12:46:56.207Z</time>
      </trkpt>
      <trkpt lat="43.53309" lon="5.56971">
        <ele>565</ele>
        <time>2022-02-15T12:46:57.207Z</time>
      </trkpt>
      <trkpt lat="43.53308" lon="5.56971">
        <ele>565</ele>
        <time>2022-02-15T12:46:58.207Z</time>
      </trkpt>
      <trkpt lat="43.53307" lon="5.5697">
        <ele>565</ele>
        <time>2022-02-15T12:46:59.207Z</time>
      </trkpt>
      <trkpt lat="43.53307" lon="5.5697">
        <ele>564</ele>
        <time>2022-02-15T12:47:00.207Z</time>
      </trkpt>
      <trkpt lat="43.53306" lon="5.56969">
        <ele>564</ele>
        <time>2022-02-15T12:47:01.207Z</time>
      </trkpt>
      <trkpt lat="43.53306" lon="5.56968">
        <ele>564</ele>
        <time>2022-02-15T12:47:02.207Z</time>
      </trkpt>
      <trkpt lat="43.53305" lon="5.56967">
        <ele>564</ele>
        <time>2022-02-15T12:47:03.207Z</time>
      </trkpt>
      <trkpt lat="43.53305" lon="5.56966">
        <ele>563</ele>
        <time>2022-02-15T12:47:04.207Z</time>
      </trkpt>
      <trkpt lat="43.53304" lon="5.56966">
        <ele>563</ele>
        <time>2022-02-15T12:47:05.207Z</time>
      </trkpt>
      <trkpt lat="43.53303" lon="5.56965">
        <ele>563</ele>
        <time>2022-02-15T12:47:06.207Z</time>
      </trkpt>
      <trkpt lat="43.53303" lon="5.56964">
        <ele>563</ele>
        <time>2022-02-15T12:47:07.207Z</time>
      </trkpt>
      <trkpt lat="43.53302" lon="5.56964">
        <ele>563</ele>
        <time>2022-02-15T12:47:08.207Z</time>
      </trkpt>
      <trkpt lat="43.53301" lon="5.56963">
        <ele>563</ele>
        <time>2022-02-15T12:47:09.207Z</time>
      </trkpt>
      <trkpt lat="43.53301" lon="5.56962">
        <ele>563</ele>
        <time>2022-02-15T12:47:10.207Z</time>
      </trkpt>
      <trkpt lat="43.533" lon="5.56962">
        <ele>562</ele>
        <time>2022-02-15T12:47:11.207Z</time>
      </trkpt>
      <trkpt lat="43.533" lon="5.56961">
        <ele>562</ele>
        <time>2022-02-15T12:47:12.207Z</time>
      </trkpt>
      <trkpt lat="43.533" lon="5.56961">
        <ele>562</ele>
        <time>2022-02-15T12:47:13.207Z</time>
      </trkpt>
      <trkpt lat="43.53299" lon="5.5696">
        <ele>562</ele>
        <time>2022-02-15T12:47:14.207Z</time>
      </trkpt>
      <trkpt lat="43.53299" lon="5.5696">
        <ele>562</ele>
        <time>2022-02-15T12:47:15.207Z</time>
      </trkpt>
      <trkpt lat="43.53298" lon="5.5696">
        <ele>562</ele>
        <time>2022-02-15T12:47:16.207Z</time>
      </trkpt>
      <trkpt lat="43.53297" lon="5.5696">
        <ele>562</ele>
        <time>2022-02-15T12:47:17.207Z</time>
      </trkpt>
      <trkpt lat="43.53297" lon="5.5696">
        <ele>562</ele>
        <time>2022-02-15T12:47:18.207Z</time>
      </trkpt>
      <trkpt lat="43.53296" lon="5.5696">
        <ele>561</ele>
        <time>2022-02-15T12:47:19.207Z</time>
      </trkpt>
      <trkpt lat="43.53296" lon="5.56959">
        <ele>561</ele>
        <time>2022-02-15T12:47:20.207Z</time>
      </trkpt>
      <trkpt lat="43.53295" lon="5.56959">
        <ele>561</ele>
        <time>2022-02-15T12:47:21.207Z</time>
      </trkpt>
      <trkpt lat="43.53295" lon="5.56959">
        <ele>561</ele>
        <time>2022-02-15T12:47:22.207Z</time>
      </trkpt>
      <trkpt lat="43.53295" lon="5.56959">
        <ele>561</ele>
        <time>2022-02-15T12:47:23.207Z</time>
      </trkpt>
      <trkpt lat="43.53295" lon="5.56959">
        <ele>561</ele>
        <time>2022-02-15T12:47:24.207Z</time>
      </trkpt>
      <trkpt lat="43.53295" lon="5.56959">
        <ele>561</ele>
        <time>2022-02-15T12:47:25.207Z</time>
      </trkpt>
      <trkpt lat="43.53295" lon="5.56959">
        <ele>561</ele>
        <time>2022-02-15T12:47:26.207Z</time>
      </trkpt>
      <trkpt lat="43.53294" lon="5.56958">
        <ele>561</ele>
        <time>2022-02-15T12:47:27.207Z</time>
      </trkpt>
      <trkpt lat="43.53294" lon="5.56957">
        <ele>560</ele>
        <time>2022-02-15T12:47:28.207Z</time>
      </trkpt>
      <trkpt lat="43.53293" lon="5.56957">
        <ele>560</ele>
        <time>2022-02-15T12:47:29.207Z</time>
      </trkpt>
      <trkpt lat="43.53293" lon="5.56956">
        <ele>560</ele>
        <time>2022-02-15T12:47:30.207Z</time>
      </trkpt>
      <trkpt lat="43.53293" lon="5.56955">
        <ele>560</ele>
        <time>2022-02-15T12:47:31.207Z</time>
      </trkpt>
      <trkpt lat="43.53292" lon="5.56954">
        <ele>560</ele>
        <time>2022-02-15T12:47:32.207Z</time>
      </trkpt>
      <trkpt lat="43.53292" lon="5.56954">
        <ele>560</ele>
        <time>2022-02-15T12:47:33.207Z</time>
      </trkpt>
      <trkpt lat="43.53291" lon="5.56953">
        <ele>560</ele>
        <time>2022-02-15T12:47:34.207Z</time>
      </trkpt>
      <trkpt lat="43.53291" lon="5.56952">
        <ele>560</ele>
        <time>2022-02-15T12:47:35.207Z</time>
      </trkpt>
      <trkpt lat="43.53291" lon="5.56952">
        <ele>560</ele>
        <time>2022-02-15T12:47:36.207Z</time>
      </trkpt>
      <trkpt lat="43.5329" lon="5.56952">
        <ele>560</ele>
        <time>2022-02-15T12:47:37.207Z</time>
      </trkpt>
      <trkpt lat="43.5329" lon="5.56951">
        <ele>559</ele>
        <time>2022-02-15T12:47:38.207Z</time>
      </trkpt>
      <trkpt lat="43.53289" lon="5.5695">
        <ele>559</ele>
        <time>2022-02-15T12:47:39.207Z</time>
      </trkpt>
      <trkpt lat="43.53288" lon="5.5695">
        <ele>559</ele>
        <time>2022-02-15T12:47:40.207Z</time>
      </trkpt>
      <trkpt lat="43.53288" lon="5.56949">
        <ele>559</ele>
        <time>2022-02-15T12:47:41.207Z</time>
      </trkpt>
      <trkpt lat="43.53287" lon="5.56948">
        <ele>559</ele>
        <time>2022-02-15T12:47:42.207Z</time>
      </trkpt>
      <trkpt lat="43.53287" lon="5.56947">
        <ele>559</ele>
        <time>2022-02-15T12:47:43.207Z</time>
      </trkpt>
      <trkpt lat="43.53286" lon="5.56946">
        <ele>559</ele>
        <time>2022-02-15T12:47:44.207Z</time>
      </trkpt>
      <trkpt lat="43.53286" lon="5.56945">
        <ele>559</ele>
        <time>2022-02-15T12:47:45.207Z</time>
      </trkpt>
      <trkpt lat="43.53286" lon="5.56945">
        <ele>558</ele>
        <time>2022-02-15T12:47:46.207Z</time>
      </trkpt>
      <trkpt lat="43.53286" lon="5.56945">
        <ele>558</ele>
        <time>2022-02-15T12:47:47.207Z</time>
      </trkpt>
      <trkpt lat="43.53285" lon="5.56945">
        <ele>558</ele>
        <time>2022-02-15T12:47:48.207Z</time>
      </trkpt>
      <trkpt lat="43.53285" lon="5.56945">
        <ele>558</ele>
        <time>2022-02-15T12:47:49.207Z</time>
      </trkpt>
      <trkpt lat="43.53284" lon="5.56944">
        <ele>558</ele>
        <time>2022-02-15T12:47:50.207Z</time>
      </trkpt>
      <trkpt lat="43.53283" lon="5.56944">
        <ele>558</ele>
        <time>2022-02-15T12:47:51.207Z</time>
      </trkpt>
      <trkpt lat="43.53283" lon="5.56943">
        <ele>557</ele>
        <time>2022-02-15T12:47:52.207Z</time>
      </trkpt>
      <trkpt lat="43.53282" lon="5.56942">
        <ele>557</ele>
        <time>2022-02-15T12:47:53.207Z</time>
      </trkpt>
      <trkpt lat="43.53281" lon="5.56942">
        <ele>557</ele>
        <time>2022-02-15T12:47:54.207Z</time>
      </trkpt>
      <trkpt lat="43.53281" lon="5.56942">
        <ele>557</ele>
        <time>2022-02-15T12:47:55.207Z</time>
      </trkpt>
      <trkpt lat="43.5328" lon="5.56941">
        <ele>557</ele>
        <time>2022-02-15T12:47:56.207Z</time>
      </trkpt>
      <trkpt lat="43.5328" lon="5.56941">
        <ele>557</ele>
        <time>2022-02-15T12:47:57.207Z</time>
      </trkpt>
      <trkpt lat="43.53279" lon="5.56941">
        <ele>557</ele>
        <time>2022-02-15T12:47:58.207Z</time>
      </trkpt>
      <trkpt lat="43.53278" lon="5.56941">
        <ele>557</ele>
        <time>2022-02-15T12:47:59.207Z</time>
      </trkpt>
      <trkpt lat="43.53277" lon="5.56941">
        <ele>557</ele>
        <time>2022-02-15T12:48:00.207Z</time>
      </trkpt>
      <trkpt lat="43.53277" lon="5.56941">
        <ele>557</ele>
        <time>2022-02-15T12:48:01.207Z</time>
      </trkpt>
      <trkpt lat="43.53277" lon="5.56941">
        <ele>556</ele>
        <time>2022-02-15T12:48:02.207Z</time>
      </trkpt>
      <trkpt lat="43.53276" lon="5.5694">
        <ele>556</ele>
        <time>2022-02-15T12:48:03.207Z</time>
      </trkpt>
      <trkpt lat="43.53276" lon="5.5694">
        <ele>556</ele>
        <time>2022-02-15T12:48:04.207Z</time>
      </trkpt>
      <trkpt lat="43.53275" lon="5.56939">
        <ele>556</ele>
        <time>2022-02-15T12:48:05.207Z</time>
      </trkpt>
      <trkpt lat="43.53275" lon="5.56939">
        <ele>556</ele>
        <time>2022-02-15T12:48:06.207Z</time>
      </trkpt>
      <trkpt lat="43.53274" lon="5.56938">
        <ele>556</ele>
        <time>2022-02-15T12:48:07.207Z</time>
      </trkpt>
      <trkpt lat="43.53274" lon="5.56938">
        <ele>556</ele>
        <time>2022-02-15T12:48:08.207Z</time>
      </trkpt>
      <trkpt lat="43.53273" lon="5.56937">
        <ele>556</ele>
        <time>2022-02-15T12:48:09.207Z</time>
      </trkpt>
      <trkpt lat="43.53272" lon="5.56936">
        <ele>556</ele>
        <time>2022-02-15T12:48:10.207Z</time>
      </trkpt>
      <trkpt lat="43.53271" lon="5.56935">
        <ele>555</ele>
        <time>2022-02-15T12:48:11.207Z</time>
      </trkpt>
      <trkpt lat="43.5327" lon="5.56934">
        <ele>555</ele>
        <time>2022-02-15T12:48:12.207Z</time>
      </trkpt>
      <trkpt lat="43.53269" lon="5.56934">
        <ele>555</ele>
        <time>2022-02-15T12:48:13.207Z</time>
      </trkpt>
      <trkpt lat="43.53268" lon="5.56933">
        <ele>555</ele>
        <time>2022-02-15T12:48:14.207Z</time>
      </trkpt>
      <trkpt lat="43.53267" lon="5.56933">
        <ele>555</ele>
        <time>2022-02-15T12:48:15.207Z</time>
      </trkpt>
      <trkpt lat="43.53266" lon="5.56933">
        <ele>555</ele>
        <time>2022-02-15T12:48:16.207Z</time>
      </trkpt>
      <trkpt lat="43.53266" lon="5.56932">
        <ele>555</ele>
        <time>2022-02-15T12:48:17.207Z</time>
      </trkpt>
      <trkpt lat="43.53264" lon="5.56932">
        <ele>555</ele>
        <time>2022-02-15T12:48:18.207Z</time>
      </trkpt>
      <trkpt lat="43.53263" lon="5.56931">
        <ele>554</ele>
        <time>2022-02-15T12:48:19.207Z</time>
      </trkpt>
      <trkpt lat="43.53262" lon="5.5693">
        <ele>554</ele>
        <time>2022-02-15T12:48:20.207Z</time>
      </trkpt>
      <trkpt lat="43.53261" lon="5.56929">
        <ele>554</ele>
        <time>2022-02-15T12:48:21.207Z</time>
      </trkpt>
      <trkpt lat="43.53261" lon="5.56928">
        <ele>554</ele>
        <time>2022-02-15T12:48:22.207Z</time>
      </trkpt>
      <trkpt lat="43.5326" lon="5.56927">
        <ele>554</ele>
        <time>2022-02-15T12:48:23.207Z</time>
      </trkpt>
      <trkpt lat="43.53259" lon="5.56926">
        <ele>554</ele>
        <time>2022-02-15T12:48:24.207Z</time>
      </trkpt>
      <trkpt lat="43.53257" lon="5.56926">
        <ele>554</ele>
        <time>2022-02-15T12:48:25.207Z</time>
      </trkpt>
      <trkpt lat="43.53256" lon="5.56925">
        <ele>554</ele>
        <time>2022-02-15T12:48:26.207Z</time>
      </trkpt>
      <trkpt lat="43.53255" lon="5.56924">
        <ele>553</ele>
        <time>2022-02-15T12:48:27.207Z</time>
      </trkpt>
      <trkpt lat="43.53255" lon="5.56922">
        <ele>553</ele>
        <time>2022-02-15T12:48:28.207Z</time>
      </trkpt>
      <trkpt lat="43.53254" lon="5.56921">
        <ele>553</ele>
        <time>2022-02-15T12:48:29.207Z</time>
      </trkpt>
      <trkpt lat="43.53253" lon="5.56921">
        <ele>553</ele>
        <time>2022-02-15T12:48:30.207Z</time>
      </trkpt>
      <trkpt lat="43.53252" lon="5.5692">
        <ele>553</ele>
        <time>2022-02-15T12:48:31.207Z</time>
      </trkpt>
      <trkpt lat="43.53251" lon="5.56918">
        <ele>553</ele>
        <time>2022-02-15T12:48:32.207Z</time>
      </trkpt>
      <trkpt lat="43.5325" lon="5.56917">
        <ele>552</ele>
        <time>2022-02-15T12:48:33.207Z</time>
      </trkpt>
      <trkpt lat="43.53249" lon="5.56916">
        <ele>552</ele>
        <time>2022-02-15T12:48:34.207Z</time>
      </trkpt>
      <trkpt lat="43.53249" lon="5.56915">
        <ele>552</ele>
        <time>2022-02-15T12:48:35.207Z</time>
      </trkpt>
      <trkpt lat="43.53248" lon="5.56914">
        <ele>552</ele>
        <time>2022-02-15T12:48:36.207Z</time>
      </trkpt>
      <trkpt lat="43.53247" lon="5.56913">
        <ele>552</ele>
        <time>2022-02-15T12:48:37.207Z</time>
      </trkpt>
      <trkpt lat="43.53247" lon="5.56912">
        <ele>552</ele>
        <time>2022-02-15T12:48:38.207Z</time>
      </trkpt>
      <trkpt lat="43.53246" lon="5.56911">
        <ele>552</ele>
        <time>2022-02-15T12:48:39.207Z</time>
      </trkpt>
      <trkpt lat="43.53246" lon="5.5691">
        <ele>551</ele>
        <time>2022-02-15T12:48:40.207Z</time>
      </trkpt>
      <trkpt lat="43.53245" lon="5.56908">
        <ele>551</ele>
        <time>2022-02-15T12:48:41.207Z</time>
      </trkpt>
      <trkpt lat="43.53245" lon="5.56907">
        <ele>551</ele>
        <time>2022-02-15T12:48:42.207Z</time>
      </trkpt>
      <trkpt lat="43.53245" lon="5.56906">
        <ele>551</ele>
        <time>2022-02-15T12:48:43.207Z</time>
      </trkpt>
      <trkpt lat="43.53245" lon="5.56906">
        <ele>551</ele>
        <time>2022-02-15T12:48:44.207Z</time>
      </trkpt>
      <trkpt lat="43.53245" lon="5.56906">
        <ele>551</ele>
        <time>2022-02-15T12:48:45.207Z</time>
      </trkpt>
      <trkpt lat="43.53245" lon="5.56905">
        <ele>551</ele>
        <time>2022-02-15T12:48:46.207Z</time>
      </trkpt>
      <trkpt lat="43.53245" lon="5.56905">
        <ele>551</ele>
        <time>2022-02-15T12:48:47.207Z</time>
      </trkpt>
      <trkpt lat="43.53245" lon="5.56906">
        <ele>551</ele>
        <time>2022-02-15T12:48:48.207Z</time>
      </trkpt>
      <trkpt lat="43.53245" lon="5.56906">
        <ele>551</ele>
        <time>2022-02-15T12:48:49.207Z</time>
      </trkpt>
      <trkpt lat="43.53245" lon="5.56906">
        <ele>551</ele>
        <time>2022-02-15T12:48:50.207Z</time>
      </trkpt>
      <trkpt lat="43.53245" lon="5.56906">
        <ele>550</ele>
        <time>2022-02-15T12:48:51.207Z</time>
      </trkpt>
      <trkpt lat="43.53245" lon="5.56906">
        <ele>550</ele>
        <time>2022-02-15T12:48:52.207Z</time>
      </trkpt>
      <trkpt lat="43.53245" lon="5.56906">
        <ele>550</ele>
        <time>2022-02-15T12:48:53.207Z</time>
      </trkpt>
      <trkpt lat="43.53245" lon="5.56905">
        <ele>550</ele>
        <time>2022-02-15T12:48:54.207Z</time>
      </trkpt>
      <trkpt lat="43.53245" lon="5.56905">
        <ele>550</ele>
        <time>2022-02-15T12:48:55.207Z</time>
      </trkpt>
      <trkpt lat="43.53245" lon="5.56905">
        <ele>550</ele>
        <time>2022-02-15T12:48:56.207Z</time>
      </trkpt>
      <trkpt lat="43.53245" lon="5.56905">
        <ele>550</ele>
        <time>2022-02-15T12:48:57.207Z</time>
      </trkpt>
      <trkpt lat="43.53244" lon="5.56904">
        <ele>549</ele>
        <time>2022-02-15T12:48:58.207Z</time>
      </trkpt>
      <trkpt lat="43.53244" lon="5.56903">
        <ele>549</ele>
        <time>2022-02-15T12:48:59.207Z</time>
      </trkpt>
      <trkpt lat="43.53243" lon="5.56902">
        <ele>549</ele>
        <time>2022-02-15T12:49:00.207Z</time>
      </trkpt>
      <trkpt lat="43.53243" lon="5.569">
        <ele>549</ele>
        <time>2022-02-15T12:49:01.207Z</time>
      </trkpt>
      <trkpt lat="43.53242" lon="5.56898">
        <ele>549</ele>
        <time>2022-02-15T12:49:02.207Z</time>
      </trkpt>
      <trkpt lat="43.53242" lon="5.56897">
        <ele>549</ele>
        <time>2022-02-15T12:49:03.207Z</time>
      </trkpt>
      <trkpt lat="43.53241" lon="5.56896">
        <ele>549</ele>
        <time>2022-02-15T12:49:04.207Z</time>
      </trkpt>
      <trkpt lat="43.5324" lon="5.56894">
        <ele>549</ele>
        <time>2022-02-15T12:49:05.207Z</time>
      </trkpt>
      <trkpt lat="43.5324" lon="5.56892">
        <ele>548</ele>
        <time>2022-02-15T12:49:06.207Z</time>
      </trkpt>
      <trkpt lat="43.5324" lon="5.56891">
        <ele>548</ele>
        <time>2022-02-15T12:49:07.207Z</time>
      </trkpt>
      <trkpt lat="43.5324" lon="5.56889">
        <ele>548</ele>
        <time>2022-02-15T12:49:08.207Z</time>
      </trkpt>
      <trkpt lat="43.53239" lon="5.56888">
        <ele>548</ele>
        <time>2022-02-15T12:49:09.207Z</time>
      </trkpt>
      <trkpt lat="43.53239" lon="5.56887">
        <ele>548</ele>
        <time>2022-02-15T12:49:10.207Z</time>
      </trkpt>
      <trkpt lat="43.53238" lon="5.56885">
        <ele>548</ele>
        <time>2022-02-15T12:49:11.207Z</time>
      </trkpt>
      <trkpt lat="43.53237" lon="5.56884">
        <ele>548</ele>
        <time>2022-02-15T12:49:12.207Z</time>
      </trkpt>
      <trkpt lat="43.53236" lon="5.56883">
        <ele>548</ele>
        <time>2022-02-15T12:49:13.207Z</time>
      </trkpt>
      <trkpt lat="43.53235" lon="5.56882">
        <ele>548</ele>
        <time>2022-02-15T12:49:14.207Z</time>
      </trkpt>
      <trkpt lat="43.53234" lon="5.56881">
        <ele>548</ele>
        <time>2022-02-15T12:49:15.207Z</time>
      </trkpt>
      <trkpt lat="43.53234" lon="5.5688">
        <ele>548</ele>
        <time>2022-02-15T12:49:16.207Z</time>
      </trkpt>
      <trkpt lat="43.53233" lon="5.5688">
        <ele>548</ele>
        <time>2022-02-15T12:49:17.207Z</time>
      </trkpt>
      <trkpt lat="43.53233" lon="5.5688">
        <ele>548</ele>
        <time>2022-02-15T12:49:18.207Z</time>
      </trkpt>
      <trkpt lat="43.53233" lon="5.5688">
        <ele>548</ele>
        <time>2022-02-15T12:49:19.207Z</time>
      </trkpt>
      <trkpt lat="43.53233" lon="5.5688">
        <ele>547</ele>
        <time>2022-02-15T12:49:20.207Z</time>
      </trkpt>
      <trkpt lat="43.53232" lon="5.56879">
        <ele>547</ele>
        <time>2022-02-15T12:49:21.207Z</time>
      </trkpt>
      <trkpt lat="43.53232" lon="5.56879">
        <ele>547</ele>
        <time>2022-02-15T12:49:22.207Z</time>
      </trkpt>
      <trkpt lat="43.53232" lon="5.56879">
        <ele>547</ele>
        <time>2022-02-15T12:49:23.207Z</time>
      </trkpt>
      <trkpt lat="43.53232" lon="5.56879">
        <ele>547</ele>
        <time>2022-02-15T12:49:24.207Z</time>
      </trkpt>
      <trkpt lat="43.53232" lon="5.56879">
        <ele>547</ele>
        <time>2022-02-15T12:49:25.207Z</time>
      </trkpt>
      <trkpt lat="43.53231" lon="5.56878">
        <ele>547</ele>
        <time>2022-02-15T12:49:26.207Z</time>
      </trkpt>
      <trkpt lat="43.53231" lon="5.56877">
        <ele>547</ele>
        <time>2022-02-15T12:49:27.207Z</time>
      </trkpt>
      <trkpt lat="43.5323" lon="5.56877">
        <ele>547</ele>
        <time>2022-02-15T12:49:28.207Z</time>
      </trkpt>
      <trkpt lat="43.53229" lon="5.56876">
        <ele>547</ele>
        <time>2022-02-15T12:49:29.207Z</time>
      </trkpt>
      <trkpt lat="43.53228" lon="5.56875">
        <ele>547</ele>
        <time>2022-02-15T12:49:30.207Z</time>
      </trkpt>
      <trkpt lat="43.53228" lon="5.56874">
        <ele>546</ele>
        <time>2022-02-15T12:49:31.207Z</time>
      </trkpt>
      <trkpt lat="43.53227" lon="5.56873">
        <ele>546</ele>
        <time>2022-02-15T12:49:32.207Z</time>
      </trkpt>
      <trkpt lat="43.53226" lon="5.56873">
        <ele>546</ele>
        <time>2022-02-15T12:49:33.207Z</time>
      </trkpt>
      <trkpt lat="43.53226" lon="5.56872">
        <ele>546</ele>
        <time>2022-02-15T12:49:34.207Z</time>
      </trkpt>
      <trkpt lat="43.53225" lon="5.56872">
        <ele>546</ele>
        <time>2022-02-15T12:49:35.207Z</time>
      </trkpt>
      <trkpt lat="43.53225" lon="5.56872">
        <ele>546</ele>
        <time>2022-02-15T12:49:36.207Z</time>
      </trkpt>
      <trkpt lat="43.53224" lon="5.56871">
        <ele>546</ele>
        <time>2022-02-15T12:49:37.207Z</time>
      </trkpt>
      <trkpt lat="43.53224" lon="5.5687">
        <ele>546</ele>
        <time>2022-02-15T12:49:38.207Z</time>
      </trkpt>
      <trkpt lat="43.53223" lon="5.56869">
        <ele>546</ele>
        <time>2022-02-15T12:49:39.207Z</time>
      </trkpt>
      <trkpt lat="43.53223" lon="5.56868">
        <ele>546</ele>
        <time>2022-02-15T12:49:40.207Z</time>
      </trkpt>
      <trkpt lat="43.53223" lon="5.56867">
        <ele>546</ele>
        <time>2022-02-15T12:49:41.207Z</time>
      </trkpt>
      <trkpt lat="43.53223" lon="5.56866">
        <ele>546</ele>
        <time>2022-02-15T12:49:42.207Z</time>
      </trkpt>
      <trkpt lat="43.53223" lon="5.56865">
        <ele>545</ele>
        <time>2022-02-15T12:49:43.207Z</time>
      </trkpt>
      <trkpt lat="43.53222" lon="5.56864">
        <ele>545</ele>
        <time>2022-02-15T12:49:44.207Z</time>
      </trkpt>
      <trkpt lat="43.53222" lon="5.56863">
        <ele>545</ele>
        <time>2022-02-15T12:49:45.207Z</time>
      </trkpt>
      <trkpt lat="43.53222" lon="5.56862">
        <ele>545</ele>
        <time>2022-02-15T12:49:46.207Z</time>
      </trkpt>
      <trkpt lat="43.53222" lon="5.56861">
        <ele>545</ele>
        <time>2022-02-15T12:49:47.207Z</time>
      </trkpt>
      <trkpt lat="43.53223" lon="5.5686">
        <ele>545</ele>
        <time>2022-02-15T12:49:48.207Z</time>
      </trkpt>
      <trkpt lat="43.53223" lon="5.56858">
        <ele>544</ele>
        <time>2022-02-15T12:49:49.207Z</time>
      </trkpt>
      <trkpt lat="43.53223" lon="5.56857">
        <ele>544</ele>
        <time>2022-02-15T12:49:50.207Z</time>
      </trkpt>
      <trkpt lat="43.53223" lon="5.56856">
        <ele>544</ele>
        <time>2022-02-15T12:49:51.207Z</time>
      </trkpt>
      <trkpt lat="43.53222" lon="5.56855">
        <ele>544</ele>
        <time>2022-02-15T12:49:52.207Z</time>
      </trkpt>
      <trkpt lat="43.53221" lon="5.56854">
        <ele>544</ele>
        <time>2022-02-15T12:49:53.207Z</time>
      </trkpt>
      <trkpt lat="43.53221" lon="5.56853">
        <ele>544</ele>
        <time>2022-02-15T12:49:54.207Z</time>
      </trkpt>
      <trkpt lat="43.5322" lon="5.56852">
        <ele>544</ele>
        <time>2022-02-15T12:49:55.207Z</time>
      </trkpt>
      <trkpt lat="43.53219" lon="5.56851">
        <ele>544</ele>
        <time>2022-02-15T12:49:56.207Z</time>
      </trkpt>
      <trkpt lat="43.53219" lon="5.5685">
        <ele>544</ele>
        <time>2022-02-15T12:49:57.207Z</time>
      </trkpt>
      <trkpt lat="43.53218" lon="5.56849">
        <ele>544</ele>
        <time>2022-02-15T12:49:58.207Z</time>
      </trkpt>
      <trkpt lat="43.53218" lon="5.56848">
        <ele>544</ele>
        <time>2022-02-15T12:49:59.207Z</time>
      </trkpt>
      <trkpt lat="43.53217" lon="5.56847">
        <ele>544</ele>
        <time>2022-02-15T12:50:00.207Z</time>
      </trkpt>
      <trkpt lat="43.53217" lon="5.56846">
        <ele>544</ele>
        <time>2022-02-15T12:50:01.207Z</time>
      </trkpt>
      <trkpt lat="43.53216" lon="5.56845">
        <ele>544</ele>
        <time>2022-02-15T12:50:02.207Z</time>
      </trkpt>
      <trkpt lat="43.53215" lon="5.56844">
        <ele>544</ele>
        <time>2022-02-15T12:50:03.207Z</time>
      </trkpt>
      <trkpt lat="43.53215" lon="5.56842">
        <ele>544</ele>
        <time>2022-02-15T12:50:04.207Z</time>
      </trkpt>
      <trkpt lat="43.53215" lon="5.56841">
        <ele>544</ele>
        <time>2022-02-15T12:50:05.207Z</time>
      </trkpt>
      <trkpt lat="43.53215" lon="5.56839">
        <ele>543</ele>
        <time>2022-02-15T12:50:06.207Z</time>
      </trkpt>
      <trkpt lat="43.53216" lon="5.56837">
        <ele>543</ele>
        <time>2022-02-15T12:50:07.207Z</time>
      </trkpt>
      <trkpt lat="43.53216" lon="5.56836">
        <ele>543</ele>
        <time>2022-02-15T12:50:08.207Z</time>
      </trkpt>
      <trkpt lat="43.53216" lon="5.56835">
        <ele>543</ele>
        <time>2022-02-15T12:50:09.207Z</time>
      </trkpt>
      <trkpt lat="43.53216" lon="5.56833">
        <ele>543</ele>
        <time>2022-02-15T12:50:10.207Z</time>
      </trkpt>
      <trkpt lat="43.53216" lon="5.56832">
        <ele>543</ele>
        <time>2022-02-15T12:50:11.207Z</time>
      </trkpt>
      <trkpt lat="43.53215" lon="5.5683">
        <ele>543</ele>
        <time>2022-02-15T12:50:12.207Z</time>
      </trkpt>
      <trkpt lat="43.53214" lon="5.56829">
        <ele>543</ele>
        <time>2022-02-15T12:50:13.207Z</time>
      </trkpt>
      <trkpt lat="43.53213" lon="5.56828">
        <ele>542</ele>
        <time>2022-02-15T12:50:14.207Z</time>
      </trkpt>
      <trkpt lat="43.53212" lon="5.56827">
        <ele>542</ele>
        <time>2022-02-15T12:50:15.207Z</time>
      </trkpt>
      <trkpt lat="43.53212" lon="5.56826">
        <ele>542</ele>
        <time>2022-02-15T12:50:16.207Z</time>
      </trkpt>
      <trkpt lat="43.53211" lon="5.56825">
        <ele>542</ele>
        <time>2022-02-15T12:50:17.207Z</time>
      </trkpt>
      <trkpt lat="43.53211" lon="5.56823">
        <ele>542</ele>
        <time>2022-02-15T12:50:18.207Z</time>
      </trkpt>
      <trkpt lat="43.53211" lon="5.56823">
        <ele>542</ele>
        <time>2022-02-15T12:50:19.207Z</time>
      </trkpt>
      <trkpt lat="43.5321" lon="5.56822">
        <ele>542</ele>
        <time>2022-02-15T12:50:20.207Z</time>
      </trkpt>
      <trkpt lat="43.5321" lon="5.56821">
        <ele>542</ele>
        <time>2022-02-15T12:50:21.207Z</time>
      </trkpt>
      <trkpt lat="43.53209" lon="5.5682">
        <ele>542</ele>
        <time>2022-02-15T12:50:22.207Z</time>
      </trkpt>
      <trkpt lat="43.53209" lon="5.5682">
        <ele>542</ele>
        <time>2022-02-15T12:50:23.207Z</time>
      </trkpt>
      <trkpt lat="43.53209" lon="5.56819">
        <ele>541</ele>
        <time>2022-02-15T12:50:24.207Z</time>
      </trkpt>
      <trkpt lat="43.53209" lon="5.56818">
        <ele>541</ele>
        <time>2022-02-15T12:50:25.207Z</time>
      </trkpt>
      <trkpt lat="43.53208" lon="5.56817">
        <ele>541</ele>
        <time>2022-02-15T12:50:26.207Z</time>
      </trkpt>
      <trkpt lat="43.53208" lon="5.56816">
        <ele>541</ele>
        <time>2022-02-15T12:50:27.207Z</time>
      </trkpt>
      <trkpt lat="43.53207" lon="5.56815">
        <ele>541</ele>
        <time>2022-02-15T12:50:28.207Z</time>
      </trkpt>
      <trkpt lat="43.53207" lon="5.56815">
        <ele>541</ele>
        <time>2022-02-15T12:50:29.207Z</time>
      </trkpt>
      <trkpt lat="43.53207" lon="5.56814">
        <ele>541</ele>
        <time>2022-02-15T12:50:30.207Z</time>
      </trkpt>
      <trkpt lat="43.53207" lon="5.56813">
        <ele>541</ele>
        <time>2022-02-15T12:50:31.207Z</time>
      </trkpt>
      <trkpt lat="43.53206" lon="5.56812">
        <ele>541</ele>
        <time>2022-02-15T12:50:32.207Z</time>
      </trkpt>
      <trkpt lat="43.53206" lon="5.56811">
        <ele>541</ele>
        <time>2022-02-15T12:50:33.207Z</time>
      </trkpt>
      <trkpt lat="43.53205" lon="5.5681">
        <ele>540</ele>
        <time>2022-02-15T12:50:34.207Z</time>
      </trkpt>
      <trkpt lat="43.53205" lon="5.56809">
        <ele>540</ele>
        <time>2022-02-15T12:50:35.207Z</time>
      </trkpt>
      <trkpt lat="43.53205" lon="5.56808">
        <ele>540</ele>
        <time>2022-02-15T12:50:36.207Z</time>
      </trkpt>
      <trkpt lat="43.53204" lon="5.56807">
        <ele>540</ele>
        <time>2022-02-15T12:50:37.207Z</time>
      </trkpt>
      <trkpt lat="43.53204" lon="5.56806">
        <ele>540</ele>
        <time>2022-02-15T12:50:38.207Z</time>
      </trkpt>
      <trkpt lat="43.53203" lon="5.56805">
        <ele>540</ele>
        <time>2022-02-15T12:50:39.207Z</time>
      </trkpt>
      <trkpt lat="43.53202" lon="5.56805">
        <ele>539</ele>
        <time>2022-02-15T12:50:40.207Z</time>
      </trkpt>
      <trkpt lat="43.53202" lon="5.56804">
        <ele>539</ele>
        <time>2022-02-15T12:50:41.207Z</time>
      </trkpt>
      <trkpt lat="43.53201" lon="5.56804">
        <ele>539</ele>
        <time>2022-02-15T12:50:42.207Z</time>
      </trkpt>
      <trkpt lat="43.532" lon="5.56804">
        <ele>539</ele>
        <time>2022-02-15T12:50:43.207Z</time>
      </trkpt>
      <trkpt lat="43.532" lon="5.56804">
        <ele>539</ele>
        <time>2022-02-15T12:50:44.207Z</time>
      </trkpt>
      <trkpt lat="43.53199" lon="5.56804">
        <ele>539</ele>
        <time>2022-02-15T12:50:45.207Z</time>
      </trkpt>
      <trkpt lat="43.53199" lon="5.56803">
        <ele>539</ele>
        <time>2022-02-15T12:50:46.207Z</time>
      </trkpt>
      <trkpt lat="43.53198" lon="5.56803">
        <ele>538</ele>
        <time>2022-02-15T12:50:47.207Z</time>
      </trkpt>
      <trkpt lat="43.53197" lon="5.56802">
        <ele>538</ele>
        <time>2022-02-15T12:50:48.207Z</time>
      </trkpt>
      <trkpt lat="43.53196" lon="5.56801">
        <ele>538</ele>
        <time>2022-02-15T12:50:49.207Z</time>
      </trkpt>
      <trkpt lat="43.53196" lon="5.568">
        <ele>538</ele>
        <time>2022-02-15T12:50:50.207Z</time>
      </trkpt>
      <trkpt lat="43.53195" lon="5.56799">
        <ele>538</ele>
        <time>2022-02-15T12:50:51.207Z</time>
      </trkpt>
      <trkpt lat="43.53194" lon="5.56798">
        <ele>538</ele>
        <time>2022-02-15T12:50:52.207Z</time>
      </trkpt>
      <trkpt lat="43.53194" lon="5.56797">
        <ele>537</ele>
        <time>2022-02-15T12:50:53.207Z</time>
      </trkpt>
      <trkpt lat="43.53194" lon="5.56796">
        <ele>537</ele>
        <time>2022-02-15T12:50:54.207Z</time>
      </trkpt>
      <trkpt lat="43.53193" lon="5.56795">
        <ele>537</ele>
        <time>2022-02-15T12:50:55.207Z</time>
      </trkpt>
      <trkpt lat="43.53193" lon="5.56794">
        <ele>537</ele>
        <time>2022-02-15T12:50:56.207Z</time>
      </trkpt>
      <trkpt lat="43.53192" lon="5.56793">
        <ele>537</ele>
        <time>2022-02-15T12:50:57.207Z</time>
      </trkpt>
      <trkpt lat="43.53192" lon="5.56792">
        <ele>537</ele>
        <time>2022-02-15T12:50:58.207Z</time>
      </trkpt>
      <trkpt lat="43.53192" lon="5.56791">
        <ele>537</ele>
        <time>2022-02-15T12:50:59.207Z</time>
      </trkpt>
      <trkpt lat="43.53192" lon="5.5679">
        <ele>537</ele>
        <time>2022-02-15T12:51:00.207Z</time>
      </trkpt>
      <trkpt lat="43.53191" lon="5.56789">
        <ele>537</ele>
        <time>2022-02-15T12:51:01.207Z</time>
      </trkpt>
      <trkpt lat="43.53191" lon="5.56788">
        <ele>537</ele>
        <time>2022-02-15T12:51:02.207Z</time>
      </trkpt>
      <trkpt lat="43.5319" lon="5.56787">
        <ele>537</ele>
        <time>2022-02-15T12:51:03.207Z</time>
      </trkpt>
      <trkpt lat="43.53189" lon="5.56786">
        <ele>537</ele>
        <time>2022-02-15T12:51:04.207Z</time>
      </trkpt>
      <trkpt lat="43.53188" lon="5.56786">
        <ele>536</ele>
        <time>2022-02-15T12:51:05.207Z</time>
      </trkpt>
      <trkpt lat="43.53187" lon="5.56786">
        <ele>536</ele>
        <time>2022-02-15T12:51:06.207Z</time>
      </trkpt>
      <trkpt lat="43.53186" lon="5.56786">
        <ele>536</ele>
        <time>2022-02-15T12:51:07.207Z</time>
      </trkpt>
      <trkpt lat="43.53185" lon="5.56786">
        <ele>536</ele>
        <time>2022-02-15T12:51:08.207Z</time>
      </trkpt>
      <trkpt lat="43.53185" lon="5.56785">
        <ele>536</ele>
        <time>2022-02-15T12:51:09.207Z</time>
      </trkpt>
      <trkpt lat="43.53184" lon="5.56785">
        <ele>536</ele>
        <time>2022-02-15T12:51:10.207Z</time>
      </trkpt>
      <trkpt lat="43.53183" lon="5.56785">
        <ele>536</ele>
        <time>2022-02-15T12:51:11.207Z</time>
      </trkpt>
      <trkpt lat="43.53182" lon="5.56785">
        <ele>536</ele>
        <time>2022-02-15T12:51:12.207Z</time>
      </trkpt>
      <trkpt lat="43.53181" lon="5.56786">
        <ele>536</ele>
        <time>2022-02-15T12:51:13.207Z</time>
      </trkpt>
      <trkpt lat="43.5318" lon="5.56786">
        <ele>535</ele>
        <time>2022-02-15T12:51:14.207Z</time>
      </trkpt>
      <trkpt lat="43.5318" lon="5.56786">
        <ele>535</ele>
        <time>2022-02-15T12:51:15.207Z</time>
      </trkpt>
      <trkpt lat="43.53179" lon="5.56786">
        <ele>535</ele>
        <time>2022-02-15T12:51:16.207Z</time>
      </trkpt>
      <trkpt lat="43.53178" lon="5.56785">
        <ele>535</ele>
        <time>2022-02-15T12:51:17.207Z</time>
      </trkpt>
      <trkpt lat="43.53177" lon="5.56785">
        <ele>535</ele>
        <time>2022-02-15T12:51:18.207Z</time>
      </trkpt>
      <trkpt lat="43.53176" lon="5.56784">
        <ele>535</ele>
        <time>2022-02-15T12:51:19.207Z</time>
      </trkpt>
      <trkpt lat="43.53176" lon="5.56783">
        <ele>534</ele>
        <time>2022-02-15T12:51:20.207Z</time>
      </trkpt>
      <trkpt lat="43.53175" lon="5.56783">
        <ele>534</ele>
        <time>2022-02-15T12:51:21.207Z</time>
      </trkpt>
      <trkpt lat="43.53174" lon="5.56783">
        <ele>534</ele>
        <time>2022-02-15T12:51:22.207Z</time>
      </trkpt>
      <trkpt lat="43.53173" lon="5.56782">
        <ele>534</ele>
        <time>2022-02-15T12:51:23.207Z</time>
      </trkpt>
      <trkpt lat="43.53172" lon="5.56782">
        <ele>534</ele>
        <time>2022-02-15T12:51:24.207Z</time>
      </trkpt>
      <trkpt lat="43.53171" lon="5.56781">
        <ele>534</ele>
        <time>2022-02-15T12:51:25.207Z</time>
      </trkpt>
      <trkpt lat="43.5317" lon="5.5678">
        <ele>534</ele>
        <time>2022-02-15T12:51:26.207Z</time>
      </trkpt>
      <trkpt lat="43.5317" lon="5.5678">
        <ele>534</ele>
        <time>2022-02-15T12:51:27.207Z</time>
      </trkpt>
      <trkpt lat="43.53169" lon="5.5678">
        <ele>533</ele>
        <time>2022-02-15T12:51:28.207Z</time>
      </trkpt>
      <trkpt lat="43.53168" lon="5.5678">
        <ele>533</ele>
        <time>2022-02-15T12:51:29.207Z</time>
      </trkpt>
      <trkpt lat="43.53168" lon="5.5678">
        <ele>533</ele>
        <time>2022-02-15T12:51:30.207Z</time>
      </trkpt>
      <trkpt lat="43.53168" lon="5.5678">
        <ele>533</ele>
        <time>2022-02-15T12:51:31.207Z</time>
      </trkpt>
      <trkpt lat="43.53168" lon="5.56781">
        <ele>533</ele>
        <time>2022-02-15T12:51:32.207Z</time>
      </trkpt>
      <trkpt lat="43.53168" lon="5.56781">
        <ele>533</ele>
        <time>2022-02-15T12:51:33.207Z</time>
      </trkpt>
      <trkpt lat="43.53167" lon="5.5678">
        <ele>533</ele>
        <time>2022-02-15T12:51:34.207Z</time>
      </trkpt>
      <trkpt lat="43.53167" lon="5.5678">
        <ele>533</ele>
        <time>2022-02-15T12:51:35.207Z</time>
      </trkpt>
      <trkpt lat="43.53166" lon="5.56778">
        <ele>532</ele>
        <time>2022-02-15T12:51:36.207Z</time>
      </trkpt>
      <trkpt lat="43.53166" lon="5.56778">
        <ele>532</ele>
        <time>2022-02-15T12:51:37.207Z</time>
      </trkpt>
      <trkpt lat="43.53165" lon="5.56778">
        <ele>532</ele>
        <time>2022-02-15T12:51:38.207Z</time>
      </trkpt>
      <trkpt lat="43.53164" lon="5.56778">
        <ele>532</ele>
        <time>2022-02-15T12:51:39.207Z</time>
      </trkpt>
      <trkpt lat="43.53164" lon="5.56778">
        <ele>532</ele>
        <time>2022-02-15T12:51:40.207Z</time>
      </trkpt>
      <trkpt lat="43.53164" lon="5.56778">
        <ele>532</ele>
        <time>2022-02-15T12:51:41.207Z</time>
      </trkpt>
      <trkpt lat="43.53164" lon="5.56779">
        <ele>531</ele>
        <time>2022-02-15T12:51:42.207Z</time>
      </trkpt>
      <trkpt lat="43.53163" lon="5.56779">
        <ele>531</ele>
        <time>2022-02-15T12:51:43.207Z</time>
      </trkpt>
      <trkpt lat="43.53162" lon="5.56779">
        <ele>531</ele>
        <time>2022-02-15T12:51:44.207Z</time>
      </trkpt>
      <trkpt lat="43.53161" lon="5.56779">
        <ele>531</ele>
        <time>2022-02-15T12:51:45.207Z</time>
      </trkpt>
      <trkpt lat="43.5316" lon="5.56778">
        <ele>531</ele>
        <time>2022-02-15T12:51:46.207Z</time>
      </trkpt>
      <trkpt lat="43.5316" lon="5.56777">
        <ele>531</ele>
        <time>2022-02-15T12:51:47.207Z</time>
      </trkpt>
      <trkpt lat="43.53159" lon="5.56776">
        <ele>531</ele>
        <time>2022-02-15T12:51:48.207Z</time>
      </trkpt>
      <trkpt lat="43.53158" lon="5.56774">
        <ele>530</ele>
        <time>2022-02-15T12:51:49.207Z</time>
      </trkpt>
      <trkpt lat="43.53158" lon="5.56773">
        <ele>530</ele>
        <time>2022-02-15T12:51:50.207Z</time>
      </trkpt>
      <trkpt lat="43.53157" lon="5.56771">
        <ele>530</ele>
        <time>2022-02-15T12:51:51.207Z</time>
      </trkpt>
      <trkpt lat="43.53156" lon="5.56771">
        <ele>530</ele>
        <time>2022-02-15T12:51:52.207Z</time>
      </trkpt>
      <trkpt lat="43.53156" lon="5.5677">
        <ele>530</ele>
        <time>2022-02-15T12:51:53.207Z</time>
      </trkpt>
      <trkpt lat="43.53155" lon="5.56769">
        <ele>530</ele>
        <time>2022-02-15T12:51:54.207Z</time>
      </trkpt>
      <trkpt lat="43.53154" lon="5.56768">
        <ele>530</ele>
        <time>2022-02-15T12:51:55.207Z</time>
      </trkpt>
      <trkpt lat="43.53154" lon="5.56767">
        <ele>530</ele>
        <time>2022-02-15T12:51:56.207Z</time>
      </trkpt>
      <trkpt lat="43.53153" lon="5.56765">
        <ele>529</ele>
        <time>2022-02-15T12:51:57.207Z</time>
      </trkpt>
      <trkpt lat="43.53153" lon="5.56764">
        <ele>529</ele>
        <time>2022-02-15T12:51:58.207Z</time>
      </trkpt>
      <trkpt lat="43.53153" lon="5.56763">
        <ele>529</ele>
        <time>2022-02-15T12:51:59.207Z</time>
      </trkpt>
      <trkpt lat="43.53153" lon="5.56763">
        <ele>529</ele>
        <time>2022-02-15T12:52:00.207Z</time>
      </trkpt>
      <trkpt lat="43.53152" lon="5.56762">
        <ele>529</ele>
        <time>2022-02-15T12:52:01.207Z</time>
      </trkpt>
      <trkpt lat="43.53152" lon="5.56763">
        <ele>529</ele>
        <time>2022-02-15T12:52:02.207Z</time>
      </trkpt>
      <trkpt lat="43.53151" lon="5.56763">
        <ele>529</ele>
        <time>2022-02-15T12:52:03.207Z</time>
      </trkpt>
      <trkpt lat="43.53151" lon="5.56764">
        <ele>528</ele>
        <time>2022-02-15T12:52:04.207Z</time>
      </trkpt>
      <trkpt lat="43.5315" lon="5.56763">
        <ele>528</ele>
        <time>2022-02-15T12:52:05.207Z</time>
      </trkpt>
      <trkpt lat="43.5315" lon="5.56761">
        <ele>528</ele>
        <time>2022-02-15T12:52:06.207Z</time>
      </trkpt>
      <trkpt lat="43.53149" lon="5.5676">
        <ele>528</ele>
        <time>2022-02-15T12:52:07.207Z</time>
      </trkpt>
      <trkpt lat="43.53149" lon="5.56758">
        <ele>528</ele>
        <time>2022-02-15T12:52:08.207Z</time>
      </trkpt>
      <trkpt lat="43.53149" lon="5.56757">
        <ele>528</ele>
        <time>2022-02-15T12:52:09.207Z</time>
      </trkpt>
      <trkpt lat="43.53149" lon="5.56755">
        <ele>527</ele>
        <time>2022-02-15T12:52:10.207Z</time>
      </trkpt>
      <trkpt lat="43.53149" lon="5.56754">
        <ele>527</ele>
        <time>2022-02-15T12:52:11.207Z</time>
      </trkpt>
      <trkpt lat="43.53148" lon="5.56752">
        <ele>527</ele>
        <time>2022-02-15T12:52:12.207Z</time>
      </trkpt>
      <trkpt lat="43.53148" lon="5.56751">
        <ele>527</ele>
        <time>2022-02-15T12:52:13.207Z</time>
      </trkpt>
      <trkpt lat="43.53148" lon="5.56749">
        <ele>526</ele>
        <time>2022-02-15T12:52:14.207Z</time>
      </trkpt>
      <trkpt lat="43.53148" lon="5.56748">
        <ele>526</ele>
        <time>2022-02-15T12:52:15.207Z</time>
      </trkpt>
      <trkpt lat="43.53148" lon="5.56746">
        <ele>526</ele>
        <time>2022-02-15T12:52:16.207Z</time>
      </trkpt>
      <trkpt lat="43.53148" lon="5.56745">
        <ele>526</ele>
        <time>2022-02-15T12:52:17.207Z</time>
      </trkpt>
      <trkpt lat="43.53148" lon="5.56744">
        <ele>525</ele>
        <time>2022-02-15T12:52:18.207Z</time>
      </trkpt>
      <trkpt lat="43.53148" lon="5.56743">
        <ele>525</ele>
        <time>2022-02-15T12:52:19.207Z</time>
      </trkpt>
      <trkpt lat="43.53149" lon="5.56741">
        <ele>525</ele>
        <time>2022-02-15T12:52:20.207Z</time>
      </trkpt>
      <trkpt lat="43.53149" lon="5.56741">
        <ele>525</ele>
        <time>2022-02-15T12:52:21.207Z</time>
      </trkpt>
      <trkpt lat="43.53149" lon="5.56741">
        <ele>524</ele>
        <time>2022-02-15T12:52:22.207Z</time>
      </trkpt>
      <trkpt lat="43.53149" lon="5.56741">
        <ele>524</ele>
        <time>2022-02-15T12:52:23.207Z</time>
      </trkpt>
      <trkpt lat="43.53149" lon="5.5674">
        <ele>524</ele>
        <time>2022-02-15T12:52:24.207Z</time>
      </trkpt>
      <trkpt lat="43.53149" lon="5.5674">
        <ele>524</ele>
        <time>2022-02-15T12:52:25.207Z</time>
      </trkpt>
      <trkpt lat="43.53149" lon="5.56739">
        <ele>524</ele>
        <time>2022-02-15T12:52:26.207Z</time>
      </trkpt>
      <trkpt lat="43.53149" lon="5.56738">
        <ele>523</ele>
        <time>2022-02-15T12:52:27.207Z</time>
      </trkpt>
      <trkpt lat="43.53149" lon="5.56738">
        <ele>523</ele>
        <time>2022-02-15T12:52:28.207Z</time>
      </trkpt>
      <trkpt lat="43.53149" lon="5.56737">
        <ele>523</ele>
        <time>2022-02-15T12:52:29.207Z</time>
      </trkpt>
      <trkpt lat="43.53149" lon="5.56737">
        <ele>523</ele>
        <time>2022-02-15T12:52:30.207Z</time>
      </trkpt>
      <trkpt lat="43.53149" lon="5.56738">
        <ele>523</ele>
        <time>2022-02-15T12:52:31.207Z</time>
      </trkpt>
      <trkpt lat="43.53149" lon="5.56737">
        <ele>522</ele>
        <time>2022-02-15T12:52:32.207Z</time>
      </trkpt>
      <trkpt lat="43.53148" lon="5.56737">
        <ele>522</ele>
        <time>2022-02-15T12:52:33.207Z</time>
      </trkpt>
      <trkpt lat="43.53148" lon="5.56737">
        <ele>522</ele>
        <time>2022-02-15T12:52:34.207Z</time>
      </trkpt>
      <trkpt lat="43.53148" lon="5.56736">
        <ele>522</ele>
        <time>2022-02-15T12:52:35.207Z</time>
      </trkpt>
      <trkpt lat="43.53148" lon="5.56736">
        <ele>522</ele>
        <time>2022-02-15T12:52:36.207Z</time>
      </trkpt>
      <trkpt lat="43.53148" lon="5.56736">
        <ele>522</ele>
        <time>2022-02-15T12:52:37.207Z</time>
      </trkpt>
      <trkpt lat="43.53148" lon="5.56735">
        <ele>522</ele>
        <time>2022-02-15T12:52:38.207Z</time>
      </trkpt>
      <trkpt lat="43.53148" lon="5.56735">
        <ele>522</ele>
        <time>2022-02-15T12:52:39.207Z</time>
      </trkpt>
      <trkpt lat="43.53147" lon="5.56734">
        <ele>522</ele>
        <time>2022-02-15T12:52:40.207Z</time>
      </trkpt>
      <trkpt lat="43.53147" lon="5.56734">
        <ele>522</ele>
        <time>2022-02-15T12:52:41.207Z</time>
      </trkpt>
      <trkpt lat="43.53147" lon="5.56733">
        <ele>521</ele>
        <time>2022-02-15T12:52:42.207Z</time>
      </trkpt>
      <trkpt lat="43.53147" lon="5.56732">
        <ele>521</ele>
        <time>2022-02-15T12:52:43.207Z</time>
      </trkpt>
      <trkpt lat="43.53146" lon="5.56732">
        <ele>521</ele>
        <time>2022-02-15T12:52:44.207Z</time>
      </trkpt>
      <trkpt lat="43.53147" lon="5.56731">
        <ele>521</ele>
        <time>2022-02-15T12:52:45.207Z</time>
      </trkpt>
      <trkpt lat="43.53147" lon="5.5673">
        <ele>521</ele>
        <time>2022-02-15T12:52:46.207Z</time>
      </trkpt>
      <trkpt lat="43.53147" lon="5.5673">
        <ele>521</ele>
        <time>2022-02-15T12:52:47.207Z</time>
      </trkpt>
      <trkpt lat="43.53147" lon="5.56729">
        <ele>521</ele>
        <time>2022-02-15T12:52:48.207Z</time>
      </trkpt>
      <trkpt lat="43.53147" lon="5.56729">
        <ele>521</ele>
        <time>2022-02-15T12:52:49.207Z</time>
      </trkpt>
      <trkpt lat="43.53148" lon="5.56729">
        <ele>521</ele>
        <time>2022-02-15T12:52:50.207Z</time>
      </trkpt>
      <trkpt lat="43.53148" lon="5.56728">
        <ele>521</ele>
        <time>2022-02-15T12:52:51.207Z</time>
      </trkpt>
      <trkpt lat="43.53148" lon="5.56728">
        <ele>520</ele>
        <time>2022-02-15T12:52:52.207Z</time>
      </trkpt>
      <trkpt lat="43.53148" lon="5.56727">
        <ele>520</ele>
        <time>2022-02-15T12:52:53.207Z</time>
      </trkpt>
      <trkpt lat="43.53148" lon="5.56726">
        <ele>520</ele>
        <time>2022-02-15T12:52:54.207Z</time>
      </trkpt>
      <trkpt lat="43.53149" lon="5.56725">
        <ele>520</ele>
        <time>2022-02-15T12:52:55.207Z</time>
      </trkpt>
      <trkpt lat="43.53149" lon="5.56724">
        <ele>519</ele>
        <time>2022-02-15T12:52:56.207Z</time>
      </trkpt>
      <trkpt lat="43.5315" lon="5.56724">
        <ele>519</ele>
        <time>2022-02-15T12:52:57.207Z</time>
      </trkpt>
      <trkpt lat="43.5315" lon="5.56724">
        <ele>519</ele>
        <time>2022-02-15T12:52:58.207Z</time>
      </trkpt>
      <trkpt lat="43.5315" lon="5.56723">
        <ele>519</ele>
        <time>2022-02-15T12:52:59.207Z</time>
      </trkpt>
      <trkpt lat="43.5315" lon="5.56722">
        <ele>518</ele>
        <time>2022-02-15T12:53:00.207Z</time>
      </trkpt>
      <trkpt lat="43.5315" lon="5.56721">
        <ele>518</ele>
        <time>2022-02-15T12:53:01.207Z</time>
      </trkpt>
      <trkpt lat="43.53151" lon="5.5672">
        <ele>518</ele>
        <time>2022-02-15T12:53:02.207Z</time>
      </trkpt>
      <trkpt lat="43.5315" lon="5.56719">
        <ele>518</ele>
        <time>2022-02-15T12:53:03.207Z</time>
      </trkpt>
      <trkpt lat="43.5315" lon="5.56719">
        <ele>518</ele>
        <time>2022-02-15T12:53:04.207Z</time>
      </trkpt>
      <trkpt lat="43.5315" lon="5.56718">
        <ele>518</ele>
        <time>2022-02-15T12:53:05.207Z</time>
      </trkpt>
      <trkpt lat="43.53149" lon="5.56716">
        <ele>517</ele>
        <time>2022-02-15T12:53:06.207Z</time>
      </trkpt>
      <trkpt lat="43.53149" lon="5.56715">
        <ele>517</ele>
        <time>2022-02-15T12:53:07.207Z</time>
      </trkpt>
      <trkpt lat="43.53149" lon="5.56714">
        <ele>517</ele>
        <time>2022-02-15T12:53:08.207Z</time>
      </trkpt>
      <trkpt lat="43.53149" lon="5.56713">
        <ele>517</ele>
        <time>2022-02-15T12:53:09.207Z</time>
      </trkpt>
      <trkpt lat="43.53149" lon="5.56712">
        <ele>517</ele>
        <time>2022-02-15T12:53:10.207Z</time>
      </trkpt>
      <trkpt lat="43.53148" lon="5.56711">
        <ele>517</ele>
        <time>2022-02-15T12:53:11.207Z</time>
      </trkpt>
      <trkpt lat="43.53147" lon="5.56711">
        <ele>516</ele>
        <time>2022-02-15T12:53:12.207Z</time>
      </trkpt>
      <trkpt lat="43.53146" lon="5.5671">
        <ele>516</ele>
        <time>2022-02-15T12:53:13.207Z</time>
      </trkpt>
      <trkpt lat="43.53145" lon="5.5671">
        <ele>516</ele>
        <time>2022-02-15T12:53:14.207Z</time>
      </trkpt>
      <trkpt lat="43.53144" lon="5.56709">
        <ele>516</ele>
        <time>2022-02-15T12:53:15.207Z</time>
      </trkpt>
      <trkpt lat="43.53143" lon="5.56708">
        <ele>516</ele>
        <time>2022-02-15T12:53:16.207Z</time>
      </trkpt>
      <trkpt lat="43.53142" lon="5.56708">
        <ele>516</ele>
        <time>2022-02-15T12:53:17.207Z</time>
      </trkpt>
      <trkpt lat="43.53141" lon="5.56708">
        <ele>516</ele>
        <time>2022-02-15T12:53:18.207Z</time>
      </trkpt>
      <trkpt lat="43.5314" lon="5.56709">
        <ele>516</ele>
        <time>2022-02-15T12:53:19.207Z</time>
      </trkpt>
      <trkpt lat="43.5314" lon="5.56709">
        <ele>516</ele>
        <time>2022-02-15T12:53:20.207Z</time>
      </trkpt>
      <trkpt lat="43.53139" lon="5.56709">
        <ele>516</ele>
        <time>2022-02-15T12:53:21.207Z</time>
      </trkpt>
      <trkpt lat="43.53139" lon="5.56709">
        <ele>515</ele>
        <time>2022-02-15T12:53:22.207Z</time>
      </trkpt>
      <trkpt lat="43.53139" lon="5.56709">
        <ele>515</ele>
        <time>2022-02-15T12:53:23.207Z</time>
      </trkpt>
      <trkpt lat="43.53138" lon="5.56709">
        <ele>515</ele>
        <time>2022-02-15T12:53:24.207Z</time>
      </trkpt>
      <trkpt lat="43.53138" lon="5.5671">
        <ele>515</ele>
        <time>2022-02-15T12:53:25.207Z</time>
      </trkpt>
      <trkpt lat="43.53137" lon="5.5671">
        <ele>515</ele>
        <time>2022-02-15T12:53:26.207Z</time>
      </trkpt>
      <trkpt lat="43.53137" lon="5.5671">
        <ele>515</ele>
        <time>2022-02-15T12:53:27.207Z</time>
      </trkpt>
      <trkpt lat="43.53136" lon="5.56711">
        <ele>515</ele>
        <time>2022-02-15T12:53:28.207Z</time>
      </trkpt>
      <trkpt lat="43.53136" lon="5.56711">
        <ele>514</ele>
        <time>2022-02-15T12:53:29.207Z</time>
      </trkpt>
      <trkpt lat="43.53135" lon="5.56712">
        <ele>514</ele>
        <time>2022-02-15T12:53:30.207Z</time>
      </trkpt>
      <trkpt lat="43.53135" lon="5.56714">
        <ele>514</ele>
        <time>2022-02-15T12:53:31.207Z</time>
      </trkpt>
      <trkpt lat="43.53134" lon="5.56714">
        <ele>514</ele>
        <time>2022-02-15T12:53:32.207Z</time>
      </trkpt>
      <trkpt lat="43.53133" lon="5.56715">
        <ele>513</ele>
        <time>2022-02-15T12:53:33.207Z</time>
      </trkpt>
      <trkpt lat="43.53132" lon="5.56716">
        <ele>513</ele>
        <time>2022-02-15T12:53:34.207Z</time>
      </trkpt>
      <trkpt lat="43.53132" lon="5.56717">
        <ele>513</ele>
        <time>2022-02-15T12:53:35.207Z</time>
      </trkpt>
      <trkpt lat="43.53132" lon="5.56718">
        <ele>513</ele>
        <time>2022-02-15T12:53:36.207Z</time>
      </trkpt>
      <trkpt lat="43.53131" lon="5.56719">
        <ele>512</ele>
        <time>2022-02-15T12:53:37.207Z</time>
      </trkpt>
      <trkpt lat="43.53131" lon="5.5672">
        <ele>512</ele>
        <time>2022-02-15T12:53:38.207Z</time>
      </trkpt>
      <trkpt lat="43.53131" lon="5.56721">
        <ele>512</ele>
        <time>2022-02-15T12:53:39.207Z</time>
      </trkpt>
      <trkpt lat="43.53131" lon="5.56722">
        <ele>512</ele>
        <time>2022-02-15T12:53:40.207Z</time>
      </trkpt>
      <trkpt lat="43.53131" lon="5.56722">
        <ele>512</ele>
        <time>2022-02-15T12:53:41.207Z</time>
      </trkpt>
      <trkpt lat="43.53131" lon="5.56723">
        <ele>512</ele>
        <time>2022-02-15T12:53:42.207Z</time>
      </trkpt>
      <trkpt lat="43.53131" lon="5.56723">
        <ele>512</ele>
        <time>2022-02-15T12:53:43.207Z</time>
      </trkpt>
      <trkpt lat="43.53132" lon="5.56724">
        <ele>512</ele>
        <time>2022-02-15T12:53:44.207Z</time>
      </trkpt>
      <trkpt lat="43.53132" lon="5.56724">
        <ele>512</ele>
        <time>2022-02-15T12:53:45.207Z</time>
      </trkpt>
      <trkpt lat="43.53132" lon="5.56724">
        <ele>512</ele>
        <time>2022-02-15T12:53:46.207Z</time>
      </trkpt>
      <trkpt lat="43.53132" lon="5.56724">
        <ele>512</ele>
        <time>2022-02-15T12:53:47.207Z</time>
      </trkpt>
      <trkpt lat="43.53132" lon="5.56724">
        <ele>512</ele>
        <time>2022-02-15T12:53:48.207Z</time>
      </trkpt>
      <trkpt lat="43.53132" lon="5.56724">
        <ele>512</ele>
        <time>2022-02-15T12:53:49.207Z</time>
      </trkpt>
      <trkpt lat="43.53132" lon="5.56724">
        <ele>511</ele>
        <time>2022-02-15T12:53:50.207Z</time>
      </trkpt>
      <trkpt lat="43.53132" lon="5.56724">
        <ele>511</ele>
        <time>2022-02-15T12:53:51.207Z</time>
      </trkpt>
      <trkpt lat="43.53132" lon="5.56724">
        <ele>511</ele>
        <time>2022-02-15T12:53:52.207Z</time>
      </trkpt>
      <trkpt lat="43.53132" lon="5.56724">
        <ele>511</ele>
        <time>2022-02-15T12:53:53.207Z</time>
      </trkpt>
      <trkpt lat="43.53132" lon="5.56724">
        <ele>511</ele>
        <time>2022-02-15T12:53:54.207Z</time>
      </trkpt>
      <trkpt lat="43.53132" lon="5.56724">
        <ele>511</ele>
        <time>2022-02-15T12:53:55.207Z</time>
      </trkpt>
      <trkpt lat="43.53132" lon="5.56725">
        <ele>511</ele>
        <time>2022-02-15T12:53:56.207Z</time>
      </trkpt>
      <trkpt lat="43.53132" lon="5.56725">
        <ele>511</ele>
        <time>2022-02-15T12:53:57.207Z</time>
      </trkpt>
      <trkpt lat="43.53132" lon="5.56725">
        <ele>511</ele>
        <time>2022-02-15T12:53:58.207Z</time>
      </trkpt>
      <trkpt lat="43.53132" lon="5.56725">
        <ele>511</ele>
        <time>2022-02-15T12:53:59.207Z</time>
      </trkpt>
      <trkpt lat="43.53132" lon="5.56725">
        <ele>511</ele>
        <time>2022-02-15T12:54:00.207Z</time>
      </trkpt>
      <trkpt lat="43.53132" lon="5.56725">
        <ele>511</ele>
        <time>2022-02-15T12:54:01.207Z</time>
      </trkpt>
      <trkpt lat="43.53132" lon="5.56725">
        <ele>511</ele>
        <time>2022-02-15T12:54:02.207Z</time>
      </trkpt>
      <trkpt lat="43.53131" lon="5.56725">
        <ele>510</ele>
        <time>2022-02-15T12:54:03.207Z</time>
      </trkpt>
      <trkpt lat="43.53131" lon="5.56725">
        <ele>510</ele>
        <time>2022-02-15T12:54:04.207Z</time>
      </trkpt>
      <trkpt lat="43.53131" lon="5.56725">
        <ele>510</ele>
        <time>2022-02-15T12:54:05.207Z</time>
      </trkpt>
      <trkpt lat="43.53131" lon="5.56725">
        <ele>510</ele>
        <time>2022-02-15T12:54:06.207Z</time>
      </trkpt>
      <trkpt lat="43.53131" lon="5.56725">
        <ele>510</ele>
        <time>2022-02-15T12:54:07.207Z</time>
      </trkpt>
      <trkpt lat="43.5313" lon="5.56725">
        <ele>510</ele>
        <time>2022-02-15T12:54:08.207Z</time>
      </trkpt>
      <trkpt lat="43.5313" lon="5.56725">
        <ele>510</ele>
        <time>2022-02-15T12:54:09.207Z</time>
      </trkpt>
      <trkpt lat="43.53129" lon="5.56725">
        <ele>510</ele>
        <time>2022-02-15T12:54:10.207Z</time>
      </trkpt>
      <trkpt lat="43.53129" lon="5.56725">
        <ele>510</ele>
        <time>2022-02-15T12:54:11.207Z</time>
      </trkpt>
      <trkpt lat="43.53128" lon="5.56726">
        <ele>509</ele>
        <time>2022-02-15T12:54:12.207Z</time>
      </trkpt>
      <trkpt lat="43.53128" lon="5.56726">
        <ele>509</ele>
        <time>2022-02-15T12:54:13.207Z</time>
      </trkpt>
      <trkpt lat="43.53127" lon="5.56726">
        <ele>509</ele>
        <time>2022-02-15T12:54:14.207Z</time>
      </trkpt>
      <trkpt lat="43.53127" lon="5.56726">
        <ele>509</ele>
        <time>2022-02-15T12:54:15.207Z</time>
      </trkpt>
      <trkpt lat="43.53125" lon="5.56726">
        <ele>509</ele>
        <time>2022-02-15T12:54:16.207Z</time>
      </trkpt>
      <trkpt lat="43.53124" lon="5.56726">
        <ele>508</ele>
        <time>2022-02-15T12:54:17.207Z</time>
      </trkpt>
      <trkpt lat="43.53124" lon="5.56725">
        <ele>508</ele>
        <time>2022-02-15T12:54:18.207Z</time>
      </trkpt>
      <trkpt lat="43.53123" lon="5.56724">
        <ele>508</ele>
        <time>2022-02-15T12:54:19.207Z</time>
      </trkpt>
      <trkpt lat="43.53122" lon="5.56722">
        <ele>508</ele>
        <time>2022-02-15T12:54:20.207Z</time>
      </trkpt>
      <trkpt lat="43.53122" lon="5.56722">
        <ele>508</ele>
        <time>2022-02-15T12:54:21.207Z</time>
      </trkpt>
      <trkpt lat="43.53121" lon="5.56721">
        <ele>508</ele>
        <time>2022-02-15T12:54:22.207Z</time>
      </trkpt>
      <trkpt lat="43.53121" lon="5.5672">
        <ele>508</ele>
        <time>2022-02-15T12:54:23.207Z</time>
      </trkpt>
      <trkpt lat="43.5312" lon="5.56718">
        <ele>507</ele>
        <time>2022-02-15T12:54:24.207Z</time>
      </trkpt>
      <trkpt lat="43.5312" lon="5.56717">
        <ele>507</ele>
        <time>2022-02-15T12:54:25.207Z</time>
      </trkpt>
      <trkpt lat="43.53121" lon="5.56716">
        <ele>507</ele>
        <time>2022-02-15T12:54:26.207Z</time>
      </trkpt>
      <trkpt lat="43.53121" lon="5.56716">
        <ele>507</ele>
        <time>2022-02-15T12:54:27.207Z</time>
      </trkpt>
      <trkpt lat="43.5312" lon="5.56715">
        <ele>507</ele>
        <time>2022-02-15T12:54:28.207Z</time>
      </trkpt>
      <trkpt lat="43.5312" lon="5.56714">
        <ele>506</ele>
        <time>2022-02-15T12:54:29.207Z</time>
      </trkpt>
      <trkpt lat="43.5312" lon="5.56713">
        <ele>506</ele>
        <time>2022-02-15T12:54:30.207Z</time>
      </trkpt>
      <trkpt lat="43.5312" lon="5.56712">
        <ele>506</ele>
        <time>2022-02-15T12:54:31.207Z</time>
      </trkpt>
      <trkpt lat="43.5312" lon="5.56712">
        <ele>506</ele>
        <time>2022-02-15T12:54:32.207Z</time>
      </trkpt>
      <trkpt lat="43.5312" lon="5.56711">
        <ele>506</ele>
        <time>2022-02-15T12:54:33.207Z</time>
      </trkpt>
      <trkpt lat="43.5312" lon="5.56711">
        <ele>505</ele>
        <time>2022-02-15T12:54:34.207Z</time>
      </trkpt>
      <trkpt lat="43.5312" lon="5.5671">
        <ele>505</ele>
        <time>2022-02-15T12:54:35.207Z</time>
      </trkpt>
      <trkpt lat="43.53119" lon="5.56709">
        <ele>505</ele>
        <time>2022-02-15T12:54:36.207Z</time>
      </trkpt>
      <trkpt lat="43.53118" lon="5.56708">
        <ele>505</ele>
        <time>2022-02-15T12:54:37.207Z</time>
      </trkpt>
      <trkpt lat="43.53118" lon="5.56707">
        <ele>505</ele>
        <time>2022-02-15T12:54:38.207Z</time>
      </trkpt>
      <trkpt lat="43.53117" lon="5.56706">
        <ele>505</ele>
        <time>2022-02-15T12:54:39.207Z</time>
      </trkpt>
      <trkpt lat="43.53116" lon="5.56705">
        <ele>505</ele>
        <time>2022-02-15T12:54:40.207Z</time>
      </trkpt>
      <trkpt lat="43.53116" lon="5.56704">
        <ele>505</ele>
        <time>2022-02-15T12:54:41.207Z</time>
      </trkpt>
      <trkpt lat="43.53116" lon="5.56704">
        <ele>505</ele>
        <time>2022-02-15T12:54:42.207Z</time>
      </trkpt>
      <trkpt lat="43.53115" lon="5.56704">
        <ele>505</ele>
        <time>2022-02-15T12:54:43.207Z</time>
      </trkpt>
      <trkpt lat="43.53114" lon="5.56704">
        <ele>505</ele>
        <time>2022-02-15T12:54:44.207Z</time>
      </trkpt>
      <trkpt lat="43.53113" lon="5.56703">
        <ele>505</ele>
        <time>2022-02-15T12:54:45.207Z</time>
      </trkpt>
      <trkpt lat="43.53112" lon="5.56702">
        <ele>505</ele>
        <time>2022-02-15T12:54:46.207Z</time>
      </trkpt>
      <trkpt lat="43.53111" lon="5.56702">
        <ele>504</ele>
        <time>2022-02-15T12:54:47.207Z</time>
      </trkpt>
      <trkpt lat="43.53111" lon="5.56702">
        <ele>504</ele>
        <time>2022-02-15T12:54:48.207Z</time>
      </trkpt>
      <trkpt lat="43.5311" lon="5.56702">
        <ele>504</ele>
        <time>2022-02-15T12:54:49.207Z</time>
      </trkpt>
      <trkpt lat="43.53109" lon="5.56701">
        <ele>504</ele>
        <time>2022-02-15T12:54:50.207Z</time>
      </trkpt>
      <trkpt lat="43.53109" lon="5.56699">
        <ele>504</ele>
        <time>2022-02-15T12:54:51.207Z</time>
      </trkpt>
      <trkpt lat="43.53109" lon="5.56698">
        <ele>504</ele>
        <time>2022-02-15T12:54:52.207Z</time>
      </trkpt>
      <trkpt lat="43.53108" lon="5.56698">
        <ele>504</ele>
        <time>2022-02-15T12:54:53.207Z</time>
      </trkpt>
      <trkpt lat="43.53108" lon="5.56699">
        <ele>503</ele>
        <time>2022-02-15T12:54:54.207Z</time>
      </trkpt>
      <trkpt lat="43.53107" lon="5.56699">
        <ele>503</ele>
        <time>2022-02-15T12:54:55.207Z</time>
      </trkpt>
      <trkpt lat="43.53106" lon="5.567">
        <ele>503</ele>
        <time>2022-02-15T12:54:56.207Z</time>
      </trkpt>
      <trkpt lat="43.53105" lon="5.56699">
        <ele>503</ele>
        <time>2022-02-15T12:54:57.207Z</time>
      </trkpt>
      <trkpt lat="43.53104" lon="5.56698">
        <ele>502</ele>
        <time>2022-02-15T12:54:58.207Z</time>
      </trkpt>
      <trkpt lat="43.53103" lon="5.56697">
        <ele>502</ele>
        <time>2022-02-15T12:54:59.207Z</time>
      </trkpt>
      <trkpt lat="43.53103" lon="5.56696">
        <ele>502</ele>
        <time>2022-02-15T12:55:00.207Z</time>
      </trkpt>
      <trkpt lat="43.53102" lon="5.56696">
        <ele>502</ele>
        <time>2022-02-15T12:55:01.207Z</time>
      </trkpt>
      <trkpt lat="43.53102" lon="5.56697">
        <ele>502</ele>
        <time>2022-02-15T12:55:02.207Z</time>
      </trkpt>
      <trkpt lat="43.53102" lon="5.56697">
        <ele>502</ele>
        <time>2022-02-15T12:55:03.207Z</time>
      </trkpt>
      <trkpt lat="43.53102" lon="5.56698">
        <ele>502</ele>
        <time>2022-02-15T12:55:04.207Z</time>
      </trkpt>
      <trkpt lat="43.53102" lon="5.56698">
        <ele>502</ele>
        <time>2022-02-15T12:55:05.207Z</time>
      </trkpt>
      <trkpt lat="43.53101" lon="5.567">
        <ele>502</ele>
        <time>2022-02-15T12:55:06.207Z</time>
      </trkpt>
      <trkpt lat="43.53101" lon="5.567">
        <ele>501</ele>
        <time>2022-02-15T12:55:07.207Z</time>
      </trkpt>
      <trkpt lat="43.53101" lon="5.56701">
        <ele>501</ele>
        <time>2022-02-15T12:55:08.207Z</time>
      </trkpt>
      <trkpt lat="43.531" lon="5.56701">
        <ele>501</ele>
        <time>2022-02-15T12:55:09.207Z</time>
      </trkpt>
      <trkpt lat="43.531" lon="5.56701">
        <ele>500</ele>
        <time>2022-02-15T12:55:10.207Z</time>
      </trkpt>
      <trkpt lat="43.53099" lon="5.567">
        <ele>500</ele>
        <time>2022-02-15T12:55:11.207Z</time>
      </trkpt>
      <trkpt lat="43.53098" lon="5.56699">
        <ele>500</ele>
        <time>2022-02-15T12:55:12.207Z</time>
      </trkpt>
      <trkpt lat="43.53098" lon="5.56699">
        <ele>500</ele>
        <time>2022-02-15T12:55:13.207Z</time>
      </trkpt>
      <trkpt lat="43.53097" lon="5.56699">
        <ele>500</ele>
        <time>2022-02-15T12:55:14.207Z</time>
      </trkpt>
      <trkpt lat="43.53097" lon="5.56698">
        <ele>499</ele>
        <time>2022-02-15T12:55:15.207Z</time>
      </trkpt>
      <trkpt lat="43.53096" lon="5.56698">
        <ele>499</ele>
        <time>2022-02-15T12:55:16.207Z</time>
      </trkpt>
      <trkpt lat="43.53096" lon="5.56697">
        <ele>499</ele>
        <time>2022-02-15T12:55:17.207Z</time>
      </trkpt>
      <trkpt lat="43.53095" lon="5.56697">
        <ele>499</ele>
        <time>2022-02-15T12:55:18.207Z</time>
      </trkpt>
      <trkpt lat="43.53094" lon="5.56697">
        <ele>499</ele>
        <time>2022-02-15T12:55:19.207Z</time>
      </trkpt>
      <trkpt lat="43.53093" lon="5.56697">
        <ele>499</ele>
        <time>2022-02-15T12:55:20.207Z</time>
      </trkpt>
      <trkpt lat="43.53092" lon="5.56697">
        <ele>499</ele>
        <time>2022-02-15T12:55:21.207Z</time>
      </trkpt>
      <trkpt lat="43.53091" lon="5.56697">
        <ele>498</ele>
        <time>2022-02-15T12:55:22.207Z</time>
      </trkpt>
      <trkpt lat="43.5309" lon="5.56697">
        <ele>498</ele>
        <time>2022-02-15T12:55:23.207Z</time>
      </trkpt>
      <trkpt lat="43.53089" lon="5.56697">
        <ele>498</ele>
        <time>2022-02-15T12:55:24.207Z</time>
      </trkpt>
      <trkpt lat="43.53088" lon="5.56695">
        <ele>498</ele>
        <time>2022-02-15T12:55:25.207Z</time>
      </trkpt>
      <trkpt lat="43.53088" lon="5.56694">
        <ele>498</ele>
        <time>2022-02-15T12:55:26.207Z</time>
      </trkpt>
      <trkpt lat="43.53087" lon="5.56693">
        <ele>497</ele>
        <time>2022-02-15T12:55:27.207Z</time>
      </trkpt>
      <trkpt lat="43.53086" lon="5.56693">
        <ele>497</ele>
        <time>2022-02-15T12:55:28.207Z</time>
      </trkpt>
      <trkpt lat="43.53085" lon="5.56692">
        <ele>497</ele>
        <time>2022-02-15T12:55:29.207Z</time>
      </trkpt>
      <trkpt lat="43.53084" lon="5.56691">
        <ele>497</ele>
        <time>2022-02-15T12:55:30.207Z</time>
      </trkpt>
      <trkpt lat="43.53083" lon="5.56691">
        <ele>497</ele>
        <time>2022-02-15T12:55:31.207Z</time>
      </trkpt>
      <trkpt lat="43.53082" lon="5.56691">
        <ele>497</ele>
        <time>2022-02-15T12:55:32.207Z</time>
      </trkpt>
      <trkpt lat="43.53081" lon="5.5669">
        <ele>496</ele>
        <time>2022-02-15T12:55:33.207Z</time>
      </trkpt>
      <trkpt lat="43.5308" lon="5.5669">
        <ele>496</ele>
        <time>2022-02-15T12:55:34.207Z</time>
      </trkpt>
      <trkpt lat="43.5308" lon="5.5669">
        <ele>496</ele>
        <time>2022-02-15T12:55:35.207Z</time>
      </trkpt>
      <trkpt lat="43.53079" lon="5.56691">
        <ele>496</ele>
        <time>2022-02-15T12:55:36.207Z</time>
      </trkpt>
      <trkpt lat="43.53078" lon="5.56691">
        <ele>496</ele>
        <time>2022-02-15T12:55:37.207Z</time>
      </trkpt>
      <trkpt lat="43.53078" lon="5.56692">
        <ele>496</ele>
        <time>2022-02-15T12:55:38.207Z</time>
      </trkpt>
      <trkpt lat="43.53077" lon="5.56693">
        <ele>495</ele>
        <time>2022-02-15T12:55:39.207Z</time>
      </trkpt>
      <trkpt lat="43.53076" lon="5.56693">
        <ele>495</ele>
        <time>2022-02-15T12:55:40.207Z</time>
      </trkpt>
      <trkpt lat="43.53075" lon="5.56693">
        <ele>495</ele>
        <time>2022-02-15T12:55:41.207Z</time>
      </trkpt>
      <trkpt lat="43.53074" lon="5.56693">
        <ele>495</ele>
        <time>2022-02-15T12:55:42.207Z</time>
      </trkpt>
      <trkpt lat="43.53074" lon="5.56693">
        <ele>495</ele>
        <time>2022-02-15T12:55:43.207Z</time>
      </trkpt>
      <trkpt lat="43.53073" lon="5.56694">
        <ele>494</ele>
        <time>2022-02-15T12:55:44.207Z</time>
      </trkpt>
      <trkpt lat="43.53072" lon="5.56694">
        <ele>494</ele>
        <time>2022-02-15T12:55:45.207Z</time>
      </trkpt>
      <trkpt lat="43.53071" lon="5.56695">
        <ele>494</ele>
        <time>2022-02-15T12:55:46.207Z</time>
      </trkpt>
      <trkpt lat="43.53071" lon="5.56694">
        <ele>494</ele>
        <time>2022-02-15T12:55:47.207Z</time>
      </trkpt>
      <trkpt lat="43.5307" lon="5.56694">
        <ele>494</ele>
        <time>2022-02-15T12:55:48.207Z</time>
      </trkpt>
      <trkpt lat="43.53069" lon="5.56693">
        <ele>494</ele>
        <time>2022-02-15T12:55:49.207Z</time>
      </trkpt>
      <trkpt lat="43.53069" lon="5.56693">
        <ele>494</ele>
        <time>2022-02-15T12:55:50.207Z</time>
      </trkpt>
      <trkpt lat="43.53069" lon="5.56693">
        <ele>494</ele>
        <time>2022-02-15T12:55:51.207Z</time>
      </trkpt>
      <trkpt lat="43.53068" lon="5.56693">
        <ele>494</ele>
        <time>2022-02-15T12:55:52.207Z</time>
      </trkpt>
      <trkpt lat="43.53068" lon="5.56693">
        <ele>494</ele>
        <time>2022-02-15T12:55:53.207Z</time>
      </trkpt>
      <trkpt lat="43.53068" lon="5.56693">
        <ele>494</ele>
        <time>2022-02-15T12:55:54.207Z</time>
      </trkpt>
      <trkpt lat="43.53068" lon="5.56693">
        <ele>493</ele>
        <time>2022-02-15T12:55:55.207Z</time>
      </trkpt>
      <trkpt lat="43.53068" lon="5.56693">
        <ele>493</ele>
        <time>2022-02-15T12:55:56.207Z</time>
      </trkpt>
      <trkpt lat="43.53068" lon="5.56693">
        <ele>493</ele>
        <time>2022-02-15T12:55:57.207Z</time>
      </trkpt>
      <trkpt lat="43.53068" lon="5.56692">
        <ele>493</ele>
        <time>2022-02-15T12:55:58.207Z</time>
      </trkpt>
      <trkpt lat="43.53068" lon="5.56692">
        <ele>493</ele>
        <time>2022-02-15T12:55:59.207Z</time>
      </trkpt>
      <trkpt lat="43.53068" lon="5.56692">
        <ele>493</ele>
        <time>2022-02-15T12:56:00.207Z</time>
      </trkpt>
      <trkpt lat="43.53068" lon="5.56692">
        <ele>493</ele>
        <time>2022-02-15T12:56:01.207Z</time>
      </trkpt>
      <trkpt lat="43.53068" lon="5.56692">
        <ele>493</ele>
        <time>2022-02-15T12:56:02.207Z</time>
      </trkpt>
      <trkpt lat="43.53068" lon="5.56692">
        <ele>493</ele>
        <time>2022-02-15T12:56:03.207Z</time>
      </trkpt>
      <trkpt lat="43.53067" lon="5.56692">
        <ele>493</ele>
        <time>2022-02-15T12:56:04.207Z</time>
      </trkpt>
      <trkpt lat="43.53067" lon="5.56692">
        <ele>493</ele>
        <time>2022-02-15T12:56:05.207Z</time>
      </trkpt>
      <trkpt lat="43.53067" lon="5.56692">
        <ele>493</ele>
        <time>2022-02-15T12:56:06.207Z</time>
      </trkpt>
      <trkpt lat="43.53067" lon="5.56692">
        <ele>493</ele>
        <time>2022-02-15T12:56:07.207Z</time>
      </trkpt>
      <trkpt lat="43.53067" lon="5.56692">
        <ele>493</ele>
        <time>2022-02-15T12:56:08.207Z</time>
      </trkpt>
      <trkpt lat="43.53067" lon="5.56692">
        <ele>493</ele>
        <time>2022-02-15T12:56:09.207Z</time>
      </trkpt>
      <trkpt lat="43.53067" lon="5.56692">
        <ele>493</ele>
        <time>2022-02-15T12:56:10.207Z</time>
      </trkpt>
      <trkpt lat="43.53067" lon="5.56692">
        <ele>493</ele>
        <time>2022-02-15T12:56:11.207Z</time>
      </trkpt>
      <trkpt lat="43.53067" lon="5.56692">
        <ele>493</ele>
        <time>2022-02-15T12:56:12.207Z</time>
      </trkpt>
      <trkpt lat="43.53067" lon="5.56692">
        <ele>493</ele>
        <time>2022-02-15T12:56:13.207Z</time>
      </trkpt>
      <trkpt lat="43.53067" lon="5.56692">
        <ele>493</ele>
        <time>2022-02-15T12:56:14.207Z</time>
      </trkpt>
      <trkpt lat="43.53067" lon="5.56692">
        <ele>493</ele>
        <time>2022-02-15T12:56:15.207Z</time>
      </trkpt>
      <trkpt lat="43.53067" lon="5.56692">
        <ele>493</ele>
        <time>2022-02-15T12:56:16.207Z</time>
      </trkpt>
      <trkpt lat="43.53067" lon="5.56692">
        <ele>493</ele>
        <time>2022-02-15T12:56:17.207Z</time>
      </trkpt>
      <trkpt lat="43.53067" lon="5.56692">
        <ele>493</ele>
        <time>2022-02-15T12:56:18.207Z</time>
      </trkpt>
      <trkpt lat="43.53067" lon="5.56692">
        <ele>493</ele>
        <time>2022-02-15T12:56:19.207Z</time>
      </trkpt>
      <trkpt lat="43.53067" lon="5.56692">
        <ele>493</ele>
        <time>2022-02-15T12:56:20.207Z</time>
      </trkpt>
      <trkpt lat="43.53067" lon="5.56692">
        <ele>493</ele>
        <time>2022-02-15T12:56:21.207Z</time>
      </trkpt>
      <trkpt lat="43.53067" lon="5.56692">
        <ele>493</ele>
        <time>2022-02-15T12:56:22.207Z</time>
      </trkpt>
      <trkpt lat="43.53067" lon="5.56692">
        <ele>493</ele>
        <time>2022-02-15T12:56:23.207Z</time>
      </trkpt>
      <trkpt lat="43.53067" lon="5.56692">
        <ele>493</ele>
        <time>2022-02-15T12:56:24.207Z</time>
      </trkpt>
      <trkpt lat="43.53067" lon="5.56692">
        <ele>493</ele>
        <time>2022-02-15T12:56:25.207Z</time>
      </trkpt>
      <trkpt lat="43.53067" lon="5.56692">
        <ele>493</ele>
        <time>2022-02-15T12:56:26.207Z</time>
      </trkpt>
      <trkpt lat="43.53067" lon="5.56692">
        <ele>493</ele>
        <time>2022-02-15T12:56:27.207Z</time>
      </trkpt>
      <trkpt lat="43.53067" lon="5.56692">
        <ele>493</ele>
        <time>2022-02-15T12:56:28.207Z</time>
      </trkpt>
      <trkpt lat="43.53067" lon="5.56692">
        <ele>493</ele>
        <time>2022-02-15T12:56:29.207Z</time>
      </trkpt>
      <trkpt lat="43.53067" lon="5.56692">
        <ele>493</ele>
        <time>2022-02-15T12:56:30.207Z</time>
      </trkpt>
      <trkpt lat="43.53067" lon="5.56692">
        <ele>493</ele>
        <time>2022-02-15T12:56:31.207Z</time>
      </trkpt>
      <trkpt lat="43.53067" lon="5.56692">
        <ele>493</ele>
        <time>2022-02-15T12:56:32.207Z</time>
      </trkpt>
      <trkpt lat="43.53067" lon="5.56692">
        <ele>493</ele>
        <time>2022-02-15T12:56:33.207Z</time>
      </trkpt>
      <trkpt lat="43.53067" lon="5.56692">
        <ele>493</ele>
        <time>2022-02-15T12:56:34.207Z</time>
      </trkpt>
      <trkpt lat="43.53067" lon="5.56692">
        <ele>493</ele>
        <time>2022-02-15T12:56:35.207Z</time>
      </trkpt>
      <trkpt lat="43.53067" lon="5.56692">
        <ele>493</ele>
        <time>2022-02-15T12:56:36.207Z</time>
      </trkpt>
      <trkpt lat="43.53067" lon="5.56692">
        <ele>493</ele>
        <time>2022-02-15T12:56:37.207Z</time>
      </trkpt>
      <trkpt lat="43.53067" lon="5.56692">
        <ele>493</ele>
        <time>2022-02-15T12:56:38.207Z</time>
      </trkpt>
      <trkpt lat="43.53067" lon="5.56692">
        <ele>493</ele>
        <time>2022-02-15T12:56:39.207Z</time>
      </trkpt>
      <trkpt lat="43.53067" lon="5.56692">
        <ele>493</ele>
        <time>2022-02-15T12:56:40.207Z</time>
      </trkpt>
      <trkpt lat="43.53067" lon="5.56692">
        <ele>493</ele>
        <time>2022-02-15T12:56:41.207Z</time>
      </trkpt>
      <trkpt lat="43.53067" lon="5.56692">
        <ele>493</ele>
        <time>2022-02-15T12:56:42.207Z</time>
      </trkpt>
      <trkpt lat="43.53067" lon="5.56692">
        <ele>493</ele>
        <time>2022-02-15T12:56:43.207Z</time>
      </trkpt>
      <trkpt lat="43.53067" lon="5.56692">
        <ele>493</ele>
        <time>2022-02-15T12:56:44.207Z</time>
      </trkpt>
      <trkpt lat="43.53067" lon="5.56692">
        <ele>493</ele>
        <time>2022-02-15T12:56:45.207Z</time>
      </trkpt>
      <trkpt lat="43.53067" lon="5.56692">
        <ele>493</ele>
        <time>2022-02-15T12:56:46.207Z</time>
      </trkpt>
      <trkpt lat="43.53067" lon="5.56692">
        <ele>493</ele>
        <time>2022-02-15T12:56:47.207Z</time>
      </trkpt>
      <trkpt lat="43.53067" lon="5.56692">
        <ele>493</ele>
        <time>2022-02-15T12:56:48.207Z</time>
      </trkpt>
      <trkpt lat="43.53067" lon="5.56692">
        <ele>493</ele>
        <time>2022-02-15T12:56:49.207Z</time>
      </trkpt>
      <trkpt lat="43.53067" lon="5.56692">
        <ele>493</ele>
        <time>2022-02-15T12:56:50.207Z</time>
      </trkpt>
      <trkpt lat="43.53067" lon="5.56692">
        <ele>493</ele>
        <time>2022-02-15T12:56:51.207Z</time>
      </trkpt>
      <trkpt lat="43.53067" lon="5.56692">
        <ele>493</ele>
        <time>2022-02-15T12:56:52.207Z</time>
      </trkpt>
      <trkpt lat="43.53067" lon="5.56692">
        <ele>493</ele>
        <time>2022-02-15T12:56:53.207Z</time>
      </trkpt>
      <trkpt lat="43.53067" lon="5.56692">
        <ele>493</ele>
        <time>2022-02-15T12:56:54.207Z</time>
      </trkpt>
      <trkpt lat="43.53067" lon="5.56692">
        <ele>493</ele>
        <time>2022-02-15T12:56:55.207Z</time>
      </trkpt>
      <trkpt lat="43.53067" lon="5.56692">
        <ele>493</ele>
        <time>2022-02-15T12:56:56.207Z</time>
      </trkpt>
      <trkpt lat="43.53067" lon="5.56692">
        <ele>493</ele>
        <time>2022-02-15T12:56:57.207Z</time>
      </trkpt>
      <trkpt lat="43.53067" lon="5.56692">
        <ele>493</ele>
        <time>2022-02-15T12:56:58.207Z</time>
      </trkpt>
      <trkpt lat="43.53067" lon="5.56692">
        <ele>493</ele>
        <time>2022-02-15T12:56:59.207Z</time>
      </trkpt>
      <trkpt lat="43.53067" lon="5.56692">
        <ele>493</ele>
        <time>2022-02-15T12:57:00.207Z</time>
      </trkpt>
      <trkpt lat="43.53067" lon="5.56692">
        <ele>493</ele>
        <time>2022-02-15T12:57:01.207Z</time>
      </trkpt>
      <trkpt lat="43.53067" lon="5.56692">
        <ele>493</ele>
        <time>2022-02-15T12:57:02.207Z</time>
      </trkpt>
      <trkpt lat="43.53067" lon="5.56692">
        <ele>493</ele>
        <time>2022-02-15T12:57:03.207Z</time>
      </trkpt>
      <trkpt lat="43.53068" lon="5.56692">
        <ele>493</ele>
        <time>2022-02-15T12:57:04.207Z</time>
      </trkpt>
      <trkpt lat="43.53068" lon="5.56692">
        <ele>493</ele>
        <time>2022-02-15T12:57:05.207Z</time>
      </trkpt>
      <trkpt lat="43.53068" lon="5.56692">
        <ele>493</ele>
        <time>2022-02-15T12:57:06.207Z</time>
      </trkpt>
      <trkpt lat="43.53069" lon="5.56693">
        <ele>492</ele>
        <time>2022-02-15T12:57:07.207Z</time>
      </trkpt>
      <trkpt lat="43.53069" lon="5.56693">
        <ele>492</ele>
        <time>2022-02-15T12:57:08.207Z</time>
      </trkpt>
      <trkpt lat="43.53069" lon="5.56694">
        <ele>492</ele>
        <time>2022-02-15T12:57:09.207Z</time>
      </trkpt>
      <trkpt lat="43.53069" lon="5.56696">
        <ele>492</ele>
        <time>2022-02-15T12:57:10.207Z</time>
      </trkpt>
      <trkpt lat="43.53069" lon="5.56697">
        <ele>492</ele>
        <time>2022-02-15T12:57:11.207Z</time>
      </trkpt>
      <trkpt lat="43.53069" lon="5.56698">
        <ele>492</ele>
        <time>2022-02-15T12:57:12.207Z</time>
      </trkpt>
      <trkpt lat="43.53069" lon="5.567">
        <ele>492</ele>
        <time>2022-02-15T12:57:13.207Z</time>
      </trkpt>
      <trkpt lat="43.53069" lon="5.56701">
        <ele>492</ele>
        <time>2022-02-15T12:57:14.207Z</time>
      </trkpt>
      <trkpt lat="43.5307" lon="5.56703">
        <ele>491</ele>
        <time>2022-02-15T12:57:15.207Z</time>
      </trkpt>
      <trkpt lat="43.5307" lon="5.56704">
        <ele>491</ele>
        <time>2022-02-15T12:57:16.207Z</time>
      </trkpt>
      <trkpt lat="43.5307" lon="5.56705">
        <ele>491</ele>
        <time>2022-02-15T12:57:17.207Z</time>
      </trkpt>
      <trkpt lat="43.53071" lon="5.56706">
        <ele>491</ele>
        <time>2022-02-15T12:57:18.207Z</time>
      </trkpt>
      <trkpt lat="43.53071" lon="5.56707">
        <ele>491</ele>
        <time>2022-02-15T12:57:19.207Z</time>
      </trkpt>
      <trkpt lat="43.53071" lon="5.56709">
        <ele>491</ele>
        <time>2022-02-15T12:57:20.207Z</time>
      </trkpt>
      <trkpt lat="43.53071" lon="5.5671">
        <ele>491</ele>
        <time>2022-02-15T12:57:21.207Z</time>
      </trkpt>
      <trkpt lat="43.53071" lon="5.56711">
        <ele>490</ele>
        <time>2022-02-15T12:57:22.207Z</time>
      </trkpt>
      <trkpt lat="43.53071" lon="5.56713">
        <ele>490</ele>
        <time>2022-02-15T12:57:23.207Z</time>
      </trkpt>
      <trkpt lat="43.5307" lon="5.56714">
        <ele>490</ele>
        <time>2022-02-15T12:57:24.207Z</time>
      </trkpt>
      <trkpt lat="43.53069" lon="5.56715">
        <ele>490</ele>
        <time>2022-02-15T12:57:25.207Z</time>
      </trkpt>
      <trkpt lat="43.53068" lon="5.56716">
        <ele>490</ele>
        <time>2022-02-15T12:57:26.207Z</time>
      </trkpt>
      <trkpt lat="43.53067" lon="5.56716">
        <ele>490</ele>
        <time>2022-02-15T12:57:27.207Z</time>
      </trkpt>
      <trkpt lat="43.53066" lon="5.56716">
        <ele>490</ele>
        <time>2022-02-15T12:57:28.207Z</time>
      </trkpt>
      <trkpt lat="43.53065" lon="5.56716">
        <ele>489</ele>
        <time>2022-02-15T12:57:29.207Z</time>
      </trkpt>
      <trkpt lat="43.53064" lon="5.56717">
        <ele>489</ele>
        <time>2022-02-15T12:57:30.207Z</time>
      </trkpt>
      <trkpt lat="43.53062" lon="5.56717">
        <ele>489</ele>
        <time>2022-02-15T12:57:31.207Z</time>
      </trkpt>
      <trkpt lat="43.53061" lon="5.56718">
        <ele>489</ele>
        <time>2022-02-15T12:57:32.207Z</time>
      </trkpt>
      <trkpt lat="43.5306" lon="5.56718">
        <ele>489</ele>
        <time>2022-02-15T12:57:33.207Z</time>
      </trkpt>
      <trkpt lat="43.53059" lon="5.56719">
        <ele>489</ele>
        <time>2022-02-15T12:57:34.207Z</time>
      </trkpt>
      <trkpt lat="43.53058" lon="5.5672">
        <ele>489</ele>
        <time>2022-02-15T12:57:35.207Z</time>
      </trkpt>
      <trkpt lat="43.53057" lon="5.56721">
        <ele>488</ele>
        <time>2022-02-15T12:57:36.207Z</time>
      </trkpt>
      <trkpt lat="43.53056" lon="5.56722">
        <ele>488</ele>
        <time>2022-02-15T12:57:37.207Z</time>
      </trkpt>
      <trkpt lat="43.53055" lon="5.56723">
        <ele>488</ele>
        <time>2022-02-15T12:57:38.207Z</time>
      </trkpt>
      <trkpt lat="43.53054" lon="5.56723">
        <ele>488</ele>
        <time>2022-02-15T12:57:39.207Z</time>
      </trkpt>
      <trkpt lat="43.53053" lon="5.56724">
        <ele>488</ele>
        <time>2022-02-15T12:57:40.207Z</time>
      </trkpt>
      <trkpt lat="43.53052" lon="5.56725">
        <ele>488</ele>
        <time>2022-02-15T12:57:41.207Z</time>
      </trkpt>
      <trkpt lat="43.53051" lon="5.56726">
        <ele>487</ele>
        <time>2022-02-15T12:57:42.207Z</time>
      </trkpt>
      <trkpt lat="43.5305" lon="5.56727">
        <ele>487</ele>
        <time>2022-02-15T12:57:43.207Z</time>
      </trkpt>
      <trkpt lat="43.53049" lon="5.56728">
        <ele>487</ele>
        <time>2022-02-15T12:57:44.207Z</time>
      </trkpt>
      <trkpt lat="43.53048" lon="5.56728">
        <ele>487</ele>
        <time>2022-02-15T12:57:45.207Z</time>
      </trkpt>
      <trkpt lat="43.53047" lon="5.5673">
        <ele>487</ele>
        <time>2022-02-15T12:57:46.207Z</time>
      </trkpt>
      <trkpt lat="43.53046" lon="5.56731">
        <ele>486</ele>
        <time>2022-02-15T12:57:47.207Z</time>
      </trkpt>
      <trkpt lat="43.53046" lon="5.56731">
        <ele>486</ele>
        <time>2022-02-15T12:57:48.207Z</time>
      </trkpt>
      <trkpt lat="43.53045" lon="5.56732">
        <ele>486</ele>
        <time>2022-02-15T12:57:49.207Z</time>
      </trkpt>
      <trkpt lat="43.53045" lon="5.56734">
        <ele>486</ele>
        <time>2022-02-15T12:57:50.207Z</time>
      </trkpt>
      <trkpt lat="43.53045" lon="5.56736">
        <ele>486</ele>
        <time>2022-02-15T12:57:51.207Z</time>
      </trkpt>
      <trkpt lat="43.53044" lon="5.56737">
        <ele>485</ele>
        <time>2022-02-15T12:57:52.207Z</time>
      </trkpt>
      <trkpt lat="43.53043" lon="5.56738">
        <ele>485</ele>
        <time>2022-02-15T12:57:53.207Z</time>
      </trkpt>
      <trkpt lat="43.53042" lon="5.56739">
        <ele>485</ele>
        <time>2022-02-15T12:57:54.207Z</time>
      </trkpt>
      <trkpt lat="43.53042" lon="5.5674">
        <ele>485</ele>
        <time>2022-02-15T12:57:55.207Z</time>
      </trkpt>
      <trkpt lat="43.53042" lon="5.56741">
        <ele>485</ele>
        <time>2022-02-15T12:57:56.207Z</time>
      </trkpt>
      <trkpt lat="43.53042" lon="5.56742">
        <ele>485</ele>
        <time>2022-02-15T12:57:57.207Z</time>
      </trkpt>
      <trkpt lat="43.53041" lon="5.56742">
        <ele>485</ele>
        <time>2022-02-15T12:57:58.207Z</time>
      </trkpt>
      <trkpt lat="43.53041" lon="5.56743">
        <ele>485</ele>
        <time>2022-02-15T12:57:59.207Z</time>
      </trkpt>
      <trkpt lat="43.53041" lon="5.56744">
        <ele>484</ele>
        <time>2022-02-15T12:58:00.207Z</time>
      </trkpt>
      <trkpt lat="43.53041" lon="5.56745">
        <ele>484</ele>
        <time>2022-02-15T12:58:01.207Z</time>
      </trkpt>
      <trkpt lat="43.53041" lon="5.56747">
        <ele>484</ele>
        <time>2022-02-15T12:58:02.207Z</time>
      </trkpt>
      <trkpt lat="43.53041" lon="5.56748">
        <ele>484</ele>
        <time>2022-02-15T12:58:03.207Z</time>
      </trkpt>
      <trkpt lat="43.53041" lon="5.56749">
        <ele>484</ele>
        <time>2022-02-15T12:58:04.207Z</time>
      </trkpt>
      <trkpt lat="43.53041" lon="5.5675">
        <ele>484</ele>
        <time>2022-02-15T12:58:05.207Z</time>
      </trkpt>
      <trkpt lat="43.53041" lon="5.56751">
        <ele>484</ele>
        <time>2022-02-15T12:58:06.207Z</time>
      </trkpt>
      <trkpt lat="43.53041" lon="5.56752">
        <ele>483</ele>
        <time>2022-02-15T12:58:07.207Z</time>
      </trkpt>
      <trkpt lat="43.53042" lon="5.56753">
        <ele>483</ele>
        <time>2022-02-15T12:58:08.207Z</time>
      </trkpt>
      <trkpt lat="43.53043" lon="5.56755">
        <ele>483</ele>
        <time>2022-02-15T12:58:09.207Z</time>
      </trkpt>
      <trkpt lat="43.53043" lon="5.56756">
        <ele>483</ele>
        <time>2022-02-15T12:58:10.207Z</time>
      </trkpt>
      <trkpt lat="43.53044" lon="5.56758">
        <ele>483</ele>
        <time>2022-02-15T12:58:11.207Z</time>
      </trkpt>
      <trkpt lat="43.53044" lon="5.56759">
        <ele>483</ele>
        <time>2022-02-15T12:58:12.207Z</time>
      </trkpt>
      <trkpt lat="43.53045" lon="5.56761">
        <ele>483</ele>
        <time>2022-02-15T12:58:13.207Z</time>
      </trkpt>
      <trkpt lat="43.53045" lon="5.56762">
        <ele>483</ele>
        <time>2022-02-15T12:58:14.207Z</time>
      </trkpt>
      <trkpt lat="43.53046" lon="5.56763">
        <ele>483</ele>
        <time>2022-02-15T12:58:15.207Z</time>
      </trkpt>
      <trkpt lat="43.53047" lon="5.56764">
        <ele>483</ele>
        <time>2022-02-15T12:58:16.207Z</time>
      </trkpt>
      <trkpt lat="43.53048" lon="5.56765">
        <ele>483</ele>
        <time>2022-02-15T12:58:17.207Z</time>
      </trkpt>
      <trkpt lat="43.53048" lon="5.56767">
        <ele>483</ele>
        <time>2022-02-15T12:58:18.207Z</time>
      </trkpt>
      <trkpt lat="43.53049" lon="5.56768">
        <ele>482</ele>
        <time>2022-02-15T12:58:19.207Z</time>
      </trkpt>
      <trkpt lat="43.53049" lon="5.56769">
        <ele>482</ele>
        <time>2022-02-15T12:58:20.207Z</time>
      </trkpt>
      <trkpt lat="43.53049" lon="5.5677">
        <ele>482</ele>
        <time>2022-02-15T12:58:21.207Z</time>
      </trkpt>
      <trkpt lat="43.53049" lon="5.56772">
        <ele>482</ele>
        <time>2022-02-15T12:58:22.207Z</time>
      </trkpt>
      <trkpt lat="43.5305" lon="5.56772">
        <ele>482</ele>
        <time>2022-02-15T12:58:23.207Z</time>
      </trkpt>
      <trkpt lat="43.53051" lon="5.56773">
        <ele>482</ele>
        <time>2022-02-15T12:58:24.207Z</time>
      </trkpt>
      <trkpt lat="43.53052" lon="5.56774">
        <ele>481</ele>
        <time>2022-02-15T12:58:25.207Z</time>
      </trkpt>
      <trkpt lat="43.53052" lon="5.56775">
        <ele>481</ele>
        <time>2022-02-15T12:58:26.207Z</time>
      </trkpt>
      <trkpt lat="43.53053" lon="5.56775">
        <ele>481</ele>
        <time>2022-02-15T12:58:27.207Z</time>
      </trkpt>
      <trkpt lat="43.53054" lon="5.56775">
        <ele>481</ele>
        <time>2022-02-15T12:58:28.207Z</time>
      </trkpt>
      <trkpt lat="43.53054" lon="5.56775">
        <ele>481</ele>
        <time>2022-02-15T12:58:29.207Z</time>
      </trkpt>
      <trkpt lat="43.53055" lon="5.56776">
        <ele>481</ele>
        <time>2022-02-15T12:58:30.207Z</time>
      </trkpt>
      <trkpt lat="43.53056" lon="5.56777">
        <ele>480</ele>
        <time>2022-02-15T12:58:31.207Z</time>
      </trkpt>
      <trkpt lat="43.53057" lon="5.56779">
        <ele>480</ele>
        <time>2022-02-15T12:58:32.207Z</time>
      </trkpt>
      <trkpt lat="43.53057" lon="5.5678">
        <ele>480</ele>
        <time>2022-02-15T12:58:33.207Z</time>
      </trkpt>
      <trkpt lat="43.53057" lon="5.5678">
        <ele>480</ele>
        <time>2022-02-15T12:58:34.207Z</time>
      </trkpt>
      <trkpt lat="43.53057" lon="5.56781">
        <ele>479</ele>
        <time>2022-02-15T12:58:35.207Z</time>
      </trkpt>
      <trkpt lat="43.53057" lon="5.56782">
        <ele>479</ele>
        <time>2022-02-15T12:58:36.207Z</time>
      </trkpt>
      <trkpt lat="43.53057" lon="5.56783">
        <ele>479</ele>
        <time>2022-02-15T12:58:37.207Z</time>
      </trkpt>
      <trkpt lat="43.53056" lon="5.56784">
        <ele>479</ele>
        <time>2022-02-15T12:58:38.207Z</time>
      </trkpt>
      <trkpt lat="43.53056" lon="5.56784">
        <ele>478</ele>
        <time>2022-02-15T12:58:39.207Z</time>
      </trkpt>
      <trkpt lat="43.53056" lon="5.56785">
        <ele>478</ele>
        <time>2022-02-15T12:58:40.207Z</time>
      </trkpt>
      <trkpt lat="43.53057" lon="5.56785">
        <ele>478</ele>
        <time>2022-02-15T12:58:41.207Z</time>
      </trkpt>
      <trkpt lat="43.53057" lon="5.56786">
        <ele>478</ele>
        <time>2022-02-15T12:58:42.207Z</time>
      </trkpt>
      <trkpt lat="43.53057" lon="5.56787">
        <ele>478</ele>
        <time>2022-02-15T12:58:43.207Z</time>
      </trkpt>
      <trkpt lat="43.53058" lon="5.56787">
        <ele>477</ele>
        <time>2022-02-15T12:58:44.207Z</time>
      </trkpt>
      <trkpt lat="43.53058" lon="5.56788">
        <ele>477</ele>
        <time>2022-02-15T12:58:45.207Z</time>
      </trkpt>
      <trkpt lat="43.53058" lon="5.56789">
        <ele>477</ele>
        <time>2022-02-15T12:58:46.207Z</time>
      </trkpt>
      <trkpt lat="43.53059" lon="5.5679">
        <ele>477</ele>
        <time>2022-02-15T12:58:47.207Z</time>
      </trkpt>
      <trkpt lat="43.53059" lon="5.56791">
        <ele>477</ele>
        <time>2022-02-15T12:58:48.207Z</time>
      </trkpt>
      <trkpt lat="43.53059" lon="5.56791">
        <ele>477</ele>
        <time>2022-02-15T12:58:49.207Z</time>
      </trkpt>
      <trkpt lat="43.53059" lon="5.56792">
        <ele>476</ele>
        <time>2022-02-15T12:58:50.207Z</time>
      </trkpt>
      <trkpt lat="43.53059" lon="5.56793">
        <ele>476</ele>
        <time>2022-02-15T12:58:51.207Z</time>
      </trkpt>
      <trkpt lat="43.53059" lon="5.56794">
        <ele>476</ele>
        <time>2022-02-15T12:58:52.207Z</time>
      </trkpt>
      <trkpt lat="43.53059" lon="5.56794">
        <ele>476</ele>
        <time>2022-02-15T12:58:53.207Z</time>
      </trkpt>
      <trkpt lat="43.53058" lon="5.56795">
        <ele>476</ele>
        <time>2022-02-15T12:58:54.207Z</time>
      </trkpt>
      <trkpt lat="43.53058" lon="5.56796">
        <ele>475</ele>
        <time>2022-02-15T12:58:55.207Z</time>
      </trkpt>
      <trkpt lat="43.53058" lon="5.56796">
        <ele>475</ele>
        <time>2022-02-15T12:58:56.207Z</time>
      </trkpt>
      <trkpt lat="43.53058" lon="5.56797">
        <ele>475</ele>
        <time>2022-02-15T12:58:57.207Z</time>
      </trkpt>
      <trkpt lat="43.53057" lon="5.56798">
        <ele>475</ele>
        <time>2022-02-15T12:58:58.207Z</time>
      </trkpt>
      <trkpt lat="43.53057" lon="5.56798">
        <ele>474</ele>
        <time>2022-02-15T12:58:59.207Z</time>
      </trkpt>
      <trkpt lat="43.53057" lon="5.56799">
        <ele>474</ele>
        <time>2022-02-15T12:59:00.207Z</time>
      </trkpt>
      <trkpt lat="43.53057" lon="5.56799">
        <ele>474</ele>
        <time>2022-02-15T12:59:01.207Z</time>
      </trkpt>
      <trkpt lat="43.53056" lon="5.568">
        <ele>474</ele>
        <time>2022-02-15T12:59:02.207Z</time>
      </trkpt>
      <trkpt lat="43.53056" lon="5.56801">
        <ele>474</ele>
        <time>2022-02-15T12:59:03.207Z</time>
      </trkpt>
      <trkpt lat="43.53056" lon="5.56801">
        <ele>473</ele>
        <time>2022-02-15T12:59:04.207Z</time>
      </trkpt>
      <trkpt lat="43.53055" lon="5.56802">
        <ele>473</ele>
        <time>2022-02-15T12:59:05.207Z</time>
      </trkpt>
      <trkpt lat="43.53054" lon="5.56802">
        <ele>473</ele>
        <time>2022-02-15T12:59:06.207Z</time>
      </trkpt>
      <trkpt lat="43.53053" lon="5.56804">
        <ele>473</ele>
        <time>2022-02-15T12:59:07.207Z</time>
      </trkpt>
      <trkpt lat="43.53052" lon="5.56804">
        <ele>473</ele>
        <time>2022-02-15T12:59:08.207Z</time>
      </trkpt>
      <trkpt lat="43.53051" lon="5.56805">
        <ele>472</ele>
        <time>2022-02-15T12:59:09.207Z</time>
      </trkpt>
      <trkpt lat="43.5305" lon="5.56805">
        <ele>472</ele>
        <time>2022-02-15T12:59:10.207Z</time>
      </trkpt>
      <trkpt lat="43.53049" lon="5.56804">
        <ele>472</ele>
        <time>2022-02-15T12:59:11.207Z</time>
      </trkpt>
      <trkpt lat="43.53048" lon="5.56803">
        <ele>472</ele>
        <time>2022-02-15T12:59:12.207Z</time>
      </trkpt>
      <trkpt lat="43.53047" lon="5.56803">
        <ele>472</ele>
        <time>2022-02-15T12:59:13.207Z</time>
      </trkpt>
      <trkpt lat="43.53046" lon="5.56803">
        <ele>472</ele>
        <time>2022-02-15T12:59:14.207Z</time>
      </trkpt>
      <trkpt lat="43.53045" lon="5.56803">
        <ele>472</ele>
        <time>2022-02-15T12:59:15.207Z</time>
      </trkpt>
      <trkpt lat="43.53044" lon="5.56804">
        <ele>471</ele>
        <time>2022-02-15T12:59:16.207Z</time>
      </trkpt>
      <trkpt lat="43.53043" lon="5.56805">
        <ele>471</ele>
        <time>2022-02-15T12:59:17.207Z</time>
      </trkpt>
      <trkpt lat="43.53042" lon="5.56805">
        <ele>471</ele>
        <time>2022-02-15T12:59:18.207Z</time>
      </trkpt>
      <trkpt lat="43.53041" lon="5.56806">
        <ele>471</ele>
        <time>2022-02-15T12:59:19.207Z</time>
      </trkpt>
      <trkpt lat="43.5304" lon="5.56805">
        <ele>471</ele>
        <time>2022-02-15T12:59:20.207Z</time>
      </trkpt>
      <trkpt lat="43.53039" lon="5.56805">
        <ele>471</ele>
        <time>2022-02-15T12:59:21.207Z</time>
      </trkpt>
      <trkpt lat="43.53039" lon="5.56805">
        <ele>470</ele>
        <time>2022-02-15T12:59:22.207Z</time>
      </trkpt>
      <trkpt lat="43.53038" lon="5.56806">
        <ele>470</ele>
        <time>2022-02-15T12:59:23.207Z</time>
      </trkpt>
      <trkpt lat="43.53038" lon="5.56806">
        <ele>470</ele>
        <time>2022-02-15T12:59:24.207Z</time>
      </trkpt>
      <trkpt lat="43.53038" lon="5.56807">
        <ele>470</ele>
        <time>2022-02-15T12:59:25.207Z</time>
      </trkpt>
      <trkpt lat="43.53038" lon="5.56807">
        <ele>470</ele>
        <time>2022-02-15T12:59:26.207Z</time>
      </trkpt>
      <trkpt lat="43.53038" lon="5.56808">
        <ele>469</ele>
        <time>2022-02-15T12:59:27.207Z</time>
      </trkpt>
      <trkpt lat="43.53038" lon="5.56808">
        <ele>469</ele>
        <time>2022-02-15T12:59:28.207Z</time>
      </trkpt>
      <trkpt lat="43.53038" lon="5.56808">
        <ele>469</ele>
        <time>2022-02-15T12:59:29.207Z</time>
      </trkpt>
      <trkpt lat="43.53038" lon="5.56808">
        <ele>469</ele>
        <time>2022-02-15T12:59:30.207Z</time>
      </trkpt>
      <trkpt lat="43.53038" lon="5.56808">
        <ele>469</ele>
        <time>2022-02-15T12:59:31.207Z</time>
      </trkpt>
      <trkpt lat="43.53038" lon="5.56808">
        <ele>469</ele>
        <time>2022-02-15T12:59:32.207Z</time>
      </trkpt>
      <trkpt lat="43.53038" lon="5.56809">
        <ele>469</ele>
        <time>2022-02-15T12:59:33.207Z</time>
      </trkpt>
      <trkpt lat="43.53038" lon="5.56809">
        <ele>468</ele>
        <time>2022-02-15T12:59:34.207Z</time>
      </trkpt>
      <trkpt lat="43.53038" lon="5.5681">
        <ele>468</ele>
        <time>2022-02-15T12:59:35.207Z</time>
      </trkpt>
      <trkpt lat="43.53038" lon="5.5681">
        <ele>468</ele>
        <time>2022-02-15T12:59:36.207Z</time>
      </trkpt>
      <trkpt lat="43.53037" lon="5.56811">
        <ele>468</ele>
        <time>2022-02-15T12:59:37.207Z</time>
      </trkpt>
      <trkpt lat="43.53037" lon="5.56811">
        <ele>467</ele>
        <time>2022-02-15T12:59:38.207Z</time>
      </trkpt>
      <trkpt lat="43.53037" lon="5.56812">
        <ele>467</ele>
        <time>2022-02-15T12:59:39.207Z</time>
      </trkpt>
      <trkpt lat="43.53037" lon="5.56813">
        <ele>467</ele>
        <time>2022-02-15T12:59:40.207Z</time>
      </trkpt>
      <trkpt lat="43.53037" lon="5.56815">
        <ele>467</ele>
        <time>2022-02-15T12:59:41.207Z</time>
      </trkpt>
      <trkpt lat="43.53037" lon="5.56816">
        <ele>466</ele>
        <time>2022-02-15T12:59:42.207Z</time>
      </trkpt>
      <trkpt lat="43.53036" lon="5.56817">
        <ele>466</ele>
        <time>2022-02-15T12:59:43.207Z</time>
      </trkpt>
      <trkpt lat="43.53036" lon="5.56819">
        <ele>466</ele>
        <time>2022-02-15T12:59:44.207Z</time>
      </trkpt>
      <trkpt lat="43.53036" lon="5.5682">
        <ele>466</ele>
        <time>2022-02-15T12:59:45.207Z</time>
      </trkpt>
      <trkpt lat="43.53035" lon="5.56821">
        <ele>466</ele>
        <time>2022-02-15T12:59:46.207Z</time>
      </trkpt>
      <trkpt lat="43.53035" lon="5.56823">
        <ele>465</ele>
        <time>2022-02-15T12:59:47.207Z</time>
      </trkpt>
      <trkpt lat="43.53035" lon="5.56825">
        <ele>465</ele>
        <time>2022-02-15T12:59:48.207Z</time>
      </trkpt>
      <trkpt lat="43.53035" lon="5.56826">
        <ele>465</ele>
        <time>2022-02-15T12:59:49.207Z</time>
      </trkpt>
      <trkpt lat="43.53034" lon="5.56828">
        <ele>465</ele>
        <time>2022-02-15T12:59:50.207Z</time>
      </trkpt>
      <trkpt lat="43.53034" lon="5.56829">
        <ele>465</ele>
        <time>2022-02-15T12:59:51.207Z</time>
      </trkpt>
      <trkpt lat="43.53034" lon="5.5683">
        <ele>464</ele>
        <time>2022-02-15T12:59:52.207Z</time>
      </trkpt>
      <trkpt lat="43.53034" lon="5.56832">
        <ele>464</ele>
        <time>2022-02-15T12:59:53.207Z</time>
      </trkpt>
      <trkpt lat="43.53033" lon="5.56833">
        <ele>464</ele>
        <time>2022-02-15T12:59:54.207Z</time>
      </trkpt>
      <trkpt lat="43.53033" lon="5.56834">
        <ele>464</ele>
        <time>2022-02-15T12:59:55.207Z</time>
      </trkpt>
      <trkpt lat="43.53033" lon="5.56835">
        <ele>464</ele>
        <time>2022-02-15T12:59:56.207Z</time>
      </trkpt>
      <trkpt lat="43.53032" lon="5.56837">
        <ele>464</ele>
        <time>2022-02-15T12:59:57.207Z</time>
      </trkpt>
      <trkpt lat="43.53032" lon="5.56838">
        <ele>463</ele>
        <time>2022-02-15T12:59:58.207Z</time>
      </trkpt>
      <trkpt lat="43.53031" lon="5.5684">
        <ele>463</ele>
        <time>2022-02-15T12:59:59.207Z</time>
      </trkpt>
      <trkpt lat="43.5303" lon="5.56841">
        <ele>463</ele>
        <time>2022-02-15T13:00:00.207Z</time>
      </trkpt>
      <trkpt lat="43.5303" lon="5.56842">
        <ele>463</ele>
        <time>2022-02-15T13:00:01.207Z</time>
      </trkpt>
      <trkpt lat="43.5303" lon="5.56843">
        <ele>463</ele>
        <time>2022-02-15T13:00:02.207Z</time>
      </trkpt>
      <trkpt lat="43.5303" lon="5.56844">
        <ele>462</ele>
        <time>2022-02-15T13:00:03.207Z</time>
      </trkpt>
      <trkpt lat="43.5303" lon="5.56845">
        <ele>462</ele>
        <time>2022-02-15T13:00:04.207Z</time>
      </trkpt>
      <trkpt lat="43.53029" lon="5.56845">
        <ele>462</ele>
        <time>2022-02-15T13:00:05.207Z</time>
      </trkpt>
      <trkpt lat="43.53029" lon="5.56846">
        <ele>462</ele>
        <time>2022-02-15T13:00:06.207Z</time>
      </trkpt>
      <trkpt lat="43.53029" lon="5.56846">
        <ele>462</ele>
        <time>2022-02-15T13:00:07.207Z</time>
      </trkpt>
      <trkpt lat="43.53029" lon="5.56846">
        <ele>462</ele>
        <time>2022-02-15T13:00:08.207Z</time>
      </trkpt>
      <trkpt lat="43.53029" lon="5.56846">
        <ele>462</ele>
        <time>2022-02-15T13:00:09.207Z</time>
      </trkpt>
      <trkpt lat="43.53029" lon="5.56846">
        <ele>462</ele>
        <time>2022-02-15T13:00:10.207Z</time>
      </trkpt>
      <trkpt lat="43.53029" lon="5.56846">
        <ele>462</ele>
        <time>2022-02-15T13:00:11.207Z</time>
      </trkpt>
      <trkpt lat="43.53029" lon="5.56846">
        <ele>462</ele>
        <time>2022-02-15T13:00:12.207Z</time>
      </trkpt>
      <trkpt lat="43.53029" lon="5.56846">
        <ele>462</ele>
        <time>2022-02-15T13:00:13.207Z</time>
      </trkpt>
      <trkpt lat="43.53029" lon="5.56846">
        <ele>462</ele>
        <time>2022-02-15T13:00:14.207Z</time>
      </trkpt>
      <trkpt lat="43.53029" lon="5.56846">
        <ele>462</ele>
        <time>2022-02-15T13:00:15.207Z</time>
      </trkpt>
      <trkpt lat="43.53029" lon="5.56846">
        <ele>462</ele>
        <time>2022-02-15T13:00:16.207Z</time>
      </trkpt>
      <trkpt lat="43.53029" lon="5.56846">
        <ele>462</ele>
        <time>2022-02-15T13:00:17.207Z</time>
      </trkpt>
      <trkpt lat="43.53029" lon="5.56846">
        <ele>462</ele>
        <time>2022-02-15T13:00:18.207Z</time>
      </trkpt>
      <trkpt lat="43.53029" lon="5.56846">
        <ele>462</ele>
        <time>2022-02-15T13:00:19.207Z</time>
      </trkpt>
      <trkpt lat="43.53029" lon="5.56846">
        <ele>462</ele>
        <time>2022-02-15T13:00:20.207Z</time>
      </trkpt>
      <trkpt lat="43.53029" lon="5.56847">
        <ele>462</ele>
        <time>2022-02-15T13:00:21.207Z</time>
      </trkpt>
      <trkpt lat="43.53029" lon="5.56847">
        <ele>462</ele>
        <time>2022-02-15T13:00:22.207Z</time>
      </trkpt>
      <trkpt lat="43.53029" lon="5.56848">
        <ele>462</ele>
        <time>2022-02-15T13:00:23.207Z</time>
      </trkpt>
      <trkpt lat="43.53029" lon="5.56848">
        <ele>462</ele>
        <time>2022-02-15T13:00:24.207Z</time>
      </trkpt>
      <trkpt lat="43.53028" lon="5.56849">
        <ele>462</ele>
        <time>2022-02-15T13:00:25.207Z</time>
      </trkpt>
      <trkpt lat="43.53028" lon="5.5685">
        <ele>461</ele>
        <time>2022-02-15T13:00:26.207Z</time>
      </trkpt>
      <trkpt lat="43.53027" lon="5.56852">
        <ele>461</ele>
        <time>2022-02-15T13:00:27.207Z</time>
      </trkpt>
      <trkpt lat="43.53027" lon="5.56853">
        <ele>461</ele>
        <time>2022-02-15T13:00:28.207Z</time>
      </trkpt>
      <trkpt lat="43.53027" lon="5.56854">
        <ele>461</ele>
        <time>2022-02-15T13:00:29.207Z</time>
      </trkpt>
      <trkpt lat="43.53026" lon="5.56855">
        <ele>461</ele>
        <time>2022-02-15T13:00:30.207Z</time>
      </trkpt>
      <trkpt lat="43.53026" lon="5.56857">
        <ele>461</ele>
        <time>2022-02-15T13:00:31.207Z</time>
      </trkpt>
      <trkpt lat="43.53026" lon="5.56858">
        <ele>461</ele>
        <time>2022-02-15T13:00:32.207Z</time>
      </trkpt>
      <trkpt lat="43.53026" lon="5.56859">
        <ele>461</ele>
        <time>2022-02-15T13:00:33.207Z</time>
      </trkpt>
      <trkpt lat="43.53026" lon="5.5686">
        <ele>460</ele>
        <time>2022-02-15T13:00:34.207Z</time>
      </trkpt>
      <trkpt lat="43.53026" lon="5.56861">
        <ele>460</ele>
        <time>2022-02-15T13:00:35.207Z</time>
      </trkpt>
      <trkpt lat="43.53026" lon="5.56861">
        <ele>460</ele>
        <time>2022-02-15T13:00:36.207Z</time>
      </trkpt>
      <trkpt lat="43.53025" lon="5.56861">
        <ele>460</ele>
        <time>2022-02-15T13:00:37.207Z</time>
      </trkpt>
      <trkpt lat="43.53025" lon="5.56861">
        <ele>460</ele>
        <time>2022-02-15T13:00:38.207Z</time>
      </trkpt>
      <trkpt lat="43.53025" lon="5.56861">
        <ele>460</ele>
        <time>2022-02-15T13:00:39.207Z</time>
      </trkpt>
      <trkpt lat="43.53025" lon="5.56861">
        <ele>460</ele>
        <time>2022-02-15T13:00:40.207Z</time>
      </trkpt>
      <trkpt lat="43.53025" lon="5.56862">
        <ele>460</ele>
        <time>2022-02-15T13:00:41.207Z</time>
      </trkpt>
      <trkpt lat="43.53024" lon="5.56863">
        <ele>460</ele>
        <time>2022-02-15T13:00:42.207Z</time>
      </trkpt>
      <trkpt lat="43.53023" lon="5.56865">
        <ele>460</ele>
        <time>2022-02-15T13:00:43.207Z</time>
      </trkpt>
      <trkpt lat="43.53022" lon="5.56865">
        <ele>460</ele>
        <time>2022-02-15T13:00:44.207Z</time>
      </trkpt>
      <trkpt lat="43.53021" lon="5.56866">
        <ele>460</ele>
        <time>2022-02-15T13:00:45.207Z</time>
      </trkpt>
      <trkpt lat="43.5302" lon="5.56866">
        <ele>459</ele>
        <time>2022-02-15T13:00:46.207Z</time>
      </trkpt>
      <trkpt lat="43.5302" lon="5.56865">
        <ele>459</ele>
        <time>2022-02-15T13:00:47.207Z</time>
      </trkpt>
      <trkpt lat="43.53019" lon="5.56865">
        <ele>459</ele>
        <time>2022-02-15T13:00:48.207Z</time>
      </trkpt>
      <trkpt lat="43.53018" lon="5.56865">
        <ele>459</ele>
        <time>2022-02-15T13:00:49.207Z</time>
      </trkpt>
      <trkpt lat="43.53017" lon="5.56865">
        <ele>459</ele>
        <time>2022-02-15T13:00:50.207Z</time>
      </trkpt>
      <trkpt lat="43.53016" lon="5.56866">
        <ele>459</ele>
        <time>2022-02-15T13:00:51.207Z</time>
      </trkpt>
      <trkpt lat="43.53015" lon="5.56866">
        <ele>458</ele>
        <time>2022-02-15T13:00:52.207Z</time>
      </trkpt>
      <trkpt lat="43.53014" lon="5.56867">
        <ele>458</ele>
        <time>2022-02-15T13:00:53.207Z</time>
      </trkpt>
      <trkpt lat="43.53013" lon="5.56866">
        <ele>458</ele>
        <time>2022-02-15T13:00:54.207Z</time>
      </trkpt>
      <trkpt lat="43.53013" lon="5.56866">
        <ele>458</ele>
        <time>2022-02-15T13:00:55.207Z</time>
      </trkpt>
      <trkpt lat="43.53012" lon="5.56866">
        <ele>458</ele>
        <time>2022-02-15T13:00:56.207Z</time>
      </trkpt>
      <trkpt lat="43.53011" lon="5.56867">
        <ele>458</ele>
        <time>2022-02-15T13:00:57.207Z</time>
      </trkpt>
      <trkpt lat="43.53011" lon="5.56867">
        <ele>457</ele>
        <time>2022-02-15T13:00:58.207Z</time>
      </trkpt>
      <trkpt lat="43.5301" lon="5.56868">
        <ele>457</ele>
        <time>2022-02-15T13:00:59.207Z</time>
      </trkpt>
      <trkpt lat="43.53009" lon="5.56869">
        <ele>457</ele>
        <time>2022-02-15T13:01:00.207Z</time>
      </trkpt>
      <trkpt lat="43.53008" lon="5.56869">
        <ele>457</ele>
        <time>2022-02-15T13:01:01.207Z</time>
      </trkpt>
      <trkpt lat="43.53008" lon="5.56869">
        <ele>457</ele>
        <time>2022-02-15T13:01:02.207Z</time>
      </trkpt>
      <trkpt lat="43.53007" lon="5.5687">
        <ele>457</ele>
        <time>2022-02-15T13:01:03.207Z</time>
      </trkpt>
      <trkpt lat="43.53007" lon="5.56871">
        <ele>457</ele>
        <time>2022-02-15T13:01:04.207Z</time>
      </trkpt>
      <trkpt lat="43.53006" lon="5.56871">
        <ele>457</ele>
        <time>2022-02-15T13:01:05.207Z</time>
      </trkpt>
      <trkpt lat="43.53005" lon="5.56871">
        <ele>456</ele>
        <time>2022-02-15T13:01:06.207Z</time>
      </trkpt>
      <trkpt lat="43.53004" lon="5.56871">
        <ele>456</ele>
        <time>2022-02-15T13:01:07.207Z</time>
      </trkpt>
      <trkpt lat="43.53003" lon="5.56872">
        <ele>456</ele>
        <time>2022-02-15T13:01:08.207Z</time>
      </trkpt>
      <trkpt lat="43.53001" lon="5.56872">
        <ele>456</ele>
        <time>2022-02-15T13:01:09.207Z</time>
      </trkpt>
      <trkpt lat="43.53001" lon="5.56873">
        <ele>456</ele>
        <time>2022-02-15T13:01:10.207Z</time>
      </trkpt>
      <trkpt lat="43.52999" lon="5.56873">
        <ele>456</ele>
        <time>2022-02-15T13:01:11.207Z</time>
      </trkpt>
      <trkpt lat="43.52998" lon="5.56874">
        <ele>456</ele>
        <time>2022-02-15T13:01:12.207Z</time>
      </trkpt>
      <trkpt lat="43.52998" lon="5.56874">
        <ele>456</ele>
        <time>2022-02-15T13:01:13.207Z</time>
      </trkpt>
      <trkpt lat="43.52997" lon="5.56875">
        <ele>456</ele>
        <time>2022-02-15T13:01:14.207Z</time>
      </trkpt>
      <trkpt lat="43.52996" lon="5.56876">
        <ele>455</ele>
        <time>2022-02-15T13:01:15.207Z</time>
      </trkpt>
      <trkpt lat="43.52996" lon="5.56878">
        <ele>455</ele>
        <time>2022-02-15T13:01:16.207Z</time>
      </trkpt>
      <trkpt lat="43.52995" lon="5.56878">
        <ele>455</ele>
        <time>2022-02-15T13:01:17.207Z</time>
      </trkpt>
      <trkpt lat="43.52995" lon="5.56879">
        <ele>455</ele>
        <time>2022-02-15T13:01:18.207Z</time>
      </trkpt>
      <trkpt lat="43.52994" lon="5.56879">
        <ele>455</ele>
        <time>2022-02-15T13:01:19.207Z</time>
      </trkpt>
      <trkpt lat="43.52993" lon="5.56879">
        <ele>455</ele>
        <time>2022-02-15T13:01:20.207Z</time>
      </trkpt>
      <trkpt lat="43.52992" lon="5.56879">
        <ele>455</ele>
        <time>2022-02-15T13:01:21.207Z</time>
      </trkpt>
      <trkpt lat="43.52991" lon="5.56879">
        <ele>455</ele>
        <time>2022-02-15T13:01:22.207Z</time>
      </trkpt>
      <trkpt lat="43.5299" lon="5.56879">
        <ele>455</ele>
        <time>2022-02-15T13:01:23.207Z</time>
      </trkpt>
      <trkpt lat="43.52989" lon="5.5688">
        <ele>455</ele>
        <time>2022-02-15T13:01:24.207Z</time>
      </trkpt>
      <trkpt lat="43.52988" lon="5.5688">
        <ele>455</ele>
        <time>2022-02-15T13:01:25.207Z</time>
      </trkpt>
      <trkpt lat="43.52988" lon="5.56881">
        <ele>455</ele>
        <time>2022-02-15T13:01:26.207Z</time>
      </trkpt>
      <trkpt lat="43.52987" lon="5.56881">
        <ele>455</ele>
        <time>2022-02-15T13:01:27.207Z</time>
      </trkpt>
      <trkpt lat="43.52987" lon="5.56882">
        <ele>454</ele>
        <time>2022-02-15T13:01:28.207Z</time>
      </trkpt>
      <trkpt lat="43.52986" lon="5.56883">
        <ele>454</ele>
        <time>2022-02-15T13:01:29.207Z</time>
      </trkpt>
      <trkpt lat="43.52986" lon="5.56883">
        <ele>454</ele>
        <time>2022-02-15T13:01:30.207Z</time>
      </trkpt>
      <trkpt lat="43.52985" lon="5.56884">
        <ele>454</ele>
        <time>2022-02-15T13:01:31.207Z</time>
      </trkpt>
      <trkpt lat="43.52985" lon="5.56885">
        <ele>454</ele>
        <time>2022-02-15T13:01:32.207Z</time>
      </trkpt>
      <trkpt lat="43.52984" lon="5.56885">
        <ele>454</ele>
        <time>2022-02-15T13:01:33.207Z</time>
      </trkpt>
      <trkpt lat="43.52984" lon="5.56885">
        <ele>454</ele>
        <time>2022-02-15T13:01:34.207Z</time>
      </trkpt>
      <trkpt lat="43.52983" lon="5.56886">
        <ele>453</ele>
        <time>2022-02-15T13:01:35.207Z</time>
      </trkpt>
      <trkpt lat="43.52983" lon="5.56887">
        <ele>453</ele>
        <time>2022-02-15T13:01:36.207Z</time>
      </trkpt>
      <trkpt lat="43.52982" lon="5.56888">
        <ele>453</ele>
        <time>2022-02-15T13:01:37.207Z</time>
      </trkpt>
      <trkpt lat="43.52982" lon="5.56889">
        <ele>453</ele>
        <time>2022-02-15T13:01:38.207Z</time>
      </trkpt>
      <trkpt lat="43.52981" lon="5.56889">
        <ele>452</ele>
        <time>2022-02-15T13:01:39.207Z</time>
      </trkpt>
      <trkpt lat="43.52981" lon="5.5689">
        <ele>452</ele>
        <time>2022-02-15T13:01:40.207Z</time>
      </trkpt>
      <trkpt lat="43.5298" lon="5.5689">
        <ele>452</ele>
        <time>2022-02-15T13:01:41.207Z</time>
      </trkpt>
      <trkpt lat="43.5298" lon="5.5689">
        <ele>451</ele>
        <time>2022-02-15T13:01:42.207Z</time>
      </trkpt>
      <trkpt lat="43.5298" lon="5.5689">
        <ele>451</ele>
        <time>2022-02-15T13:01:43.207Z</time>
      </trkpt>
      <trkpt lat="43.5298" lon="5.56891">
        <ele>451</ele>
        <time>2022-02-15T13:01:44.207Z</time>
      </trkpt>
      <trkpt lat="43.5298" lon="5.56892">
        <ele>451</ele>
        <time>2022-02-15T13:01:45.207Z</time>
      </trkpt>
      <trkpt lat="43.52979" lon="5.56893">
        <ele>450</ele>
        <time>2022-02-15T13:01:46.207Z</time>
      </trkpt>
      <trkpt lat="43.52979" lon="5.56894">
        <ele>450</ele>
        <time>2022-02-15T13:01:47.207Z</time>
      </trkpt>
      <trkpt lat="43.52979" lon="5.56895">
        <ele>450</ele>
        <time>2022-02-15T13:01:48.207Z</time>
      </trkpt>
      <trkpt lat="43.52978" lon="5.56896">
        <ele>450</ele>
        <time>2022-02-15T13:01:49.207Z</time>
      </trkpt>
      <trkpt lat="43.52978" lon="5.56897">
        <ele>450</ele>
        <time>2022-02-15T13:01:50.207Z</time>
      </trkpt>
      <trkpt lat="43.52978" lon="5.56898">
        <ele>450</ele>
        <time>2022-02-15T13:01:51.207Z</time>
      </trkpt>
      <trkpt lat="43.52978" lon="5.56899">
        <ele>449</ele>
        <time>2022-02-15T13:01:52.207Z</time>
      </trkpt>
      <trkpt lat="43.52978" lon="5.569">
        <ele>449</ele>
        <time>2022-02-15T13:01:53.207Z</time>
      </trkpt>
      <trkpt lat="43.52977" lon="5.56901">
        <ele>449</ele>
        <time>2022-02-15T13:01:54.207Z</time>
      </trkpt>
      <trkpt lat="43.52977" lon="5.56902">
        <ele>449</ele>
        <time>2022-02-15T13:01:55.207Z</time>
      </trkpt>
      <trkpt lat="43.52977" lon="5.56904">
        <ele>449</ele>
        <time>2022-02-15T13:01:56.207Z</time>
      </trkpt>
      <trkpt lat="43.52977" lon="5.56905">
        <ele>449</ele>
        <time>2022-02-15T13:01:57.207Z</time>
      </trkpt>
      <trkpt lat="43.52976" lon="5.56906">
        <ele>449</ele>
        <time>2022-02-15T13:01:58.207Z</time>
      </trkpt>
      <trkpt lat="43.52976" lon="5.56908">
        <ele>449</ele>
        <time>2022-02-15T13:01:59.207Z</time>
      </trkpt>
      <trkpt lat="43.52976" lon="5.56908">
        <ele>448</ele>
        <time>2022-02-15T13:02:00.207Z</time>
      </trkpt>
      <trkpt lat="43.52976" lon="5.56909">
        <ele>448</ele>
        <time>2022-02-15T13:02:01.207Z</time>
      </trkpt>
      <trkpt lat="43.52976" lon="5.5691">
        <ele>448</ele>
        <time>2022-02-15T13:02:02.207Z</time>
      </trkpt>
      <trkpt lat="43.52976" lon="5.56911">
        <ele>448</ele>
        <time>2022-02-15T13:02:03.207Z</time>
      </trkpt>
      <trkpt lat="43.52976" lon="5.56912">
        <ele>448</ele>
        <time>2022-02-15T13:02:04.207Z</time>
      </trkpt>
      <trkpt lat="43.52976" lon="5.56913">
        <ele>448</ele>
        <time>2022-02-15T13:02:05.207Z</time>
      </trkpt>
      <trkpt lat="43.52975" lon="5.56913">
        <ele>448</ele>
        <time>2022-02-15T13:02:06.207Z</time>
      </trkpt>
      <trkpt lat="43.52975" lon="5.56914">
        <ele>448</ele>
        <time>2022-02-15T13:02:07.207Z</time>
      </trkpt>
      <trkpt lat="43.52974" lon="5.56914">
        <ele>448</ele>
        <time>2022-02-15T13:02:08.207Z</time>
      </trkpt>
      <trkpt lat="43.52974" lon="5.56916">
        <ele>448</ele>
        <time>2022-02-15T13:02:09.207Z</time>
      </trkpt>
      <trkpt lat="43.52974" lon="5.56917">
        <ele>447</ele>
        <time>2022-02-15T13:02:10.207Z</time>
      </trkpt>
      <trkpt lat="43.52973" lon="5.56917">
        <ele>447</ele>
        <time>2022-02-15T13:02:11.207Z</time>
      </trkpt>
      <trkpt lat="43.52972" lon="5.56919">
        <ele>447</ele>
        <time>2022-02-15T13:02:12.207Z</time>
      </trkpt>
      <trkpt lat="43.52972" lon="5.56919">
        <ele>447</ele>
        <time>2022-02-15T13:02:13.207Z</time>
      </trkpt>
      <trkpt lat="43.52971" lon="5.56921">
        <ele>447</ele>
        <time>2022-02-15T13:02:14.207Z</time>
      </trkpt>
      <trkpt lat="43.52971" lon="5.56921">
        <ele>448</ele>
        <time>2022-02-15T13:02:15.207Z</time>
      </trkpt>
      <trkpt lat="43.5297" lon="5.56922">
        <ele>448</ele>
        <time>2022-02-15T13:02:16.207Z</time>
      </trkpt>
      <trkpt lat="43.5297" lon="5.56923">
        <ele>448</ele>
        <time>2022-02-15T13:02:17.207Z</time>
      </trkpt>
      <trkpt lat="43.52969" lon="5.56924">
        <ele>448</ele>
        <time>2022-02-15T13:02:18.207Z</time>
      </trkpt>
      <trkpt lat="43.52969" lon="5.56925">
        <ele>447</ele>
        <time>2022-02-15T13:02:19.207Z</time>
      </trkpt>
      <trkpt lat="43.52969" lon="5.56925">
        <ele>447</ele>
        <time>2022-02-15T13:02:20.207Z</time>
      </trkpt>
      <trkpt lat="43.52968" lon="5.56926">
        <ele>447</ele>
        <time>2022-02-15T13:02:21.207Z</time>
      </trkpt>
      <trkpt lat="43.52967" lon="5.56926">
        <ele>447</ele>
        <time>2022-02-15T13:02:22.207Z</time>
      </trkpt>
      <trkpt lat="43.52966" lon="5.56927">
        <ele>447</ele>
        <time>2022-02-15T13:02:23.207Z</time>
      </trkpt>
      <trkpt lat="43.52965" lon="5.56927">
        <ele>447</ele>
        <time>2022-02-15T13:02:24.207Z</time>
      </trkpt>
      <trkpt lat="43.52964" lon="5.56927">
        <ele>447</ele>
        <time>2022-02-15T13:02:25.207Z</time>
      </trkpt>
      <trkpt lat="43.52963" lon="5.56927">
        <ele>447</ele>
        <time>2022-02-15T13:02:26.207Z</time>
      </trkpt>
      <trkpt lat="43.52962" lon="5.56927">
        <ele>447</ele>
        <time>2022-02-15T13:02:27.207Z</time>
      </trkpt>
      <trkpt lat="43.52961" lon="5.56927">
        <ele>447</ele>
        <time>2022-02-15T13:02:28.207Z</time>
      </trkpt>
      <trkpt lat="43.5296" lon="5.56926">
        <ele>447</ele>
        <time>2022-02-15T13:02:29.207Z</time>
      </trkpt>
      <trkpt lat="43.5296" lon="5.56926">
        <ele>447</ele>
        <time>2022-02-15T13:02:30.207Z</time>
      </trkpt>
      <trkpt lat="43.52959" lon="5.56925">
        <ele>446</ele>
        <time>2022-02-15T13:02:31.207Z</time>
      </trkpt>
      <trkpt lat="43.52958" lon="5.56925">
        <ele>447</ele>
        <time>2022-02-15T13:02:32.207Z</time>
      </trkpt>
      <trkpt lat="43.52958" lon="5.56925">
        <ele>447</ele>
        <time>2022-02-15T13:02:33.207Z</time>
      </trkpt>
      <trkpt lat="43.52957" lon="5.56925">
        <ele>446</ele>
        <time>2022-02-15T13:02:34.207Z</time>
      </trkpt>
      <trkpt lat="43.52956" lon="5.56925">
        <ele>446</ele>
        <time>2022-02-15T13:02:35.207Z</time>
      </trkpt>
      <trkpt lat="43.52956" lon="5.56926">
        <ele>446</ele>
        <time>2022-02-15T13:02:36.207Z</time>
      </trkpt>
      <trkpt lat="43.52956" lon="5.56926">
        <ele>446</ele>
        <time>2022-02-15T13:02:37.207Z</time>
      </trkpt>
      <trkpt lat="43.52955" lon="5.56927">
        <ele>446</ele>
        <time>2022-02-15T13:02:38.207Z</time>
      </trkpt>
      <trkpt lat="43.52953" lon="5.56926">
        <ele>446</ele>
        <time>2022-02-15T13:02:39.207Z</time>
      </trkpt>
      <trkpt lat="43.52952" lon="5.56926">
        <ele>446</ele>
        <time>2022-02-15T13:02:40.207Z</time>
      </trkpt>
      <trkpt lat="43.52951" lon="5.56926">
        <ele>446</ele>
        <time>2022-02-15T13:02:41.207Z</time>
      </trkpt>
      <trkpt lat="43.52951" lon="5.56926">
        <ele>446</ele>
        <time>2022-02-15T13:02:42.207Z</time>
      </trkpt>
      <trkpt lat="43.5295" lon="5.56926">
        <ele>446</ele>
        <time>2022-02-15T13:02:43.207Z</time>
      </trkpt>
      <trkpt lat="43.52949" lon="5.56927">
        <ele>446</ele>
        <time>2022-02-15T13:02:44.207Z</time>
      </trkpt>
      <trkpt lat="43.52949" lon="5.56927">
        <ele>446</ele>
        <time>2022-02-15T13:02:45.207Z</time>
      </trkpt>
      <trkpt lat="43.52948" lon="5.56927">
        <ele>446</ele>
        <time>2022-02-15T13:02:46.207Z</time>
      </trkpt>
      <trkpt lat="43.52947" lon="5.56927">
        <ele>445</ele>
        <time>2022-02-15T13:02:47.207Z</time>
      </trkpt>
      <trkpt lat="43.52946" lon="5.56927">
        <ele>445</ele>
        <time>2022-02-15T13:02:48.207Z</time>
      </trkpt>
      <trkpt lat="43.52945" lon="5.56927">
        <ele>445</ele>
        <time>2022-02-15T13:02:49.207Z</time>
      </trkpt>
      <trkpt lat="43.52944" lon="5.56927">
        <ele>445</ele>
        <time>2022-02-15T13:02:50.207Z</time>
      </trkpt>
      <trkpt lat="43.52943" lon="5.56926">
        <ele>445</ele>
        <time>2022-02-15T13:02:51.207Z</time>
      </trkpt>
      <trkpt lat="43.52942" lon="5.56926">
        <ele>445</ele>
        <time>2022-02-15T13:02:52.207Z</time>
      </trkpt>
      <trkpt lat="43.52941" lon="5.56925">
        <ele>445</ele>
        <time>2022-02-15T13:02:53.207Z</time>
      </trkpt>
      <trkpt lat="43.52941" lon="5.56924">
        <ele>445</ele>
        <time>2022-02-15T13:02:54.207Z</time>
      </trkpt>
      <trkpt lat="43.5294" lon="5.56923">
        <ele>445</ele>
        <time>2022-02-15T13:02:55.207Z</time>
      </trkpt>
      <trkpt lat="43.5294" lon="5.56923">
        <ele>445</ele>
        <time>2022-02-15T13:02:56.207Z</time>
      </trkpt>
      <trkpt lat="43.5294" lon="5.56923">
        <ele>445</ele>
        <time>2022-02-15T13:02:57.207Z</time>
      </trkpt>
      <trkpt lat="43.52939" lon="5.56923">
        <ele>444</ele>
        <time>2022-02-15T13:02:58.207Z</time>
      </trkpt>
      <trkpt lat="43.52938" lon="5.56923">
        <ele>444</ele>
        <time>2022-02-15T13:02:59.207Z</time>
      </trkpt>
      <trkpt lat="43.52937" lon="5.56923">
        <ele>444</ele>
        <time>2022-02-15T13:03:00.207Z</time>
      </trkpt>
      <trkpt lat="43.52937" lon="5.56923">
        <ele>444</ele>
        <time>2022-02-15T13:03:01.207Z</time>
      </trkpt>
      <trkpt lat="43.52936" lon="5.56923">
        <ele>444</ele>
        <time>2022-02-15T13:03:02.207Z</time>
      </trkpt>
      <trkpt lat="43.52935" lon="5.56923">
        <ele>444</ele>
        <time>2022-02-15T13:03:03.207Z</time>
      </trkpt>
      <trkpt lat="43.52934" lon="5.56923">
        <ele>444</ele>
        <time>2022-02-15T13:03:04.207Z</time>
      </trkpt>
      <trkpt lat="43.52933" lon="5.56923">
        <ele>444</ele>
        <time>2022-02-15T13:03:05.207Z</time>
      </trkpt>
      <trkpt lat="43.52933" lon="5.56923">
        <ele>444</ele>
        <time>2022-02-15T13:03:06.207Z</time>
      </trkpt>
      <trkpt lat="43.52933" lon="5.56923">
        <ele>443</ele>
        <time>2022-02-15T13:03:07.207Z</time>
      </trkpt>
      <trkpt lat="43.52933" lon="5.56923">
        <ele>443</ele>
        <time>2022-02-15T13:03:08.207Z</time>
      </trkpt>
      <trkpt lat="43.52933" lon="5.56923">
        <ele>443</ele>
        <time>2022-02-15T13:03:09.207Z</time>
      </trkpt>
      <trkpt lat="43.52933" lon="5.56923">
        <ele>443</ele>
        <time>2022-02-15T13:03:10.207Z</time>
      </trkpt>
      <trkpt lat="43.52933" lon="5.56923">
        <ele>443</ele>
        <time>2022-02-15T13:03:11.207Z</time>
      </trkpt>
      <trkpt lat="43.52933" lon="5.56923">
        <ele>443</ele>
        <time>2022-02-15T13:03:12.207Z</time>
      </trkpt>
      <trkpt lat="43.52933" lon="5.56923">
        <ele>443</ele>
        <time>2022-02-15T13:03:13.207Z</time>
      </trkpt>
      <trkpt lat="43.52933" lon="5.56923">
        <ele>443</ele>
        <time>2022-02-15T13:03:14.207Z</time>
      </trkpt>
      <trkpt lat="43.52933" lon="5.56923">
        <ele>443</ele>
        <time>2022-02-15T13:03:15.207Z</time>
      </trkpt>
      <trkpt lat="43.52933" lon="5.56923">
        <ele>443</ele>
        <time>2022-02-15T13:03:16.207Z</time>
      </trkpt>
      <trkpt lat="43.52933" lon="5.56922">
        <ele>443</ele>
        <time>2022-02-15T13:03:17.207Z</time>
      </trkpt>
      <trkpt lat="43.52933" lon="5.56923">
        <ele>442</ele>
        <time>2022-02-15T13:03:18.207Z</time>
      </trkpt>
      <trkpt lat="43.52933" lon="5.56923">
        <ele>442</ele>
        <time>2022-02-15T13:03:19.207Z</time>
      </trkpt>
      <trkpt lat="43.52933" lon="5.56923">
        <ele>442</ele>
        <time>2022-02-15T13:03:20.207Z</time>
      </trkpt>
      <trkpt lat="43.52933" lon="5.56923">
        <ele>442</ele>
        <time>2022-02-15T13:03:21.207Z</time>
      </trkpt>
      <trkpt lat="43.52933" lon="5.56923">
        <ele>442</ele>
        <time>2022-02-15T13:03:22.207Z</time>
      </trkpt>
      <trkpt lat="43.52933" lon="5.56923">
        <ele>442</ele>
        <time>2022-02-15T13:03:23.207Z</time>
      </trkpt>
      <trkpt lat="43.52933" lon="5.56923">
        <ele>442</ele>
        <time>2022-02-15T13:03:24.207Z</time>
      </trkpt>
      <trkpt lat="43.52933" lon="5.56923">
        <ele>442</ele>
        <time>2022-02-15T13:03:25.207Z</time>
      </trkpt>
      <trkpt lat="43.52933" lon="5.56924">
        <ele>442</ele>
        <time>2022-02-15T13:03:26.207Z</time>
      </trkpt>
      <trkpt lat="43.52932" lon="5.56924">
        <ele>442</ele>
        <time>2022-02-15T13:03:27.207Z</time>
      </trkpt>
      <trkpt lat="43.52931" lon="5.56923">
        <ele>442</ele>
        <time>2022-02-15T13:03:28.207Z</time>
      </trkpt>
      <trkpt lat="43.52931" lon="5.56922">
        <ele>442</ele>
        <time>2022-02-15T13:03:29.207Z</time>
      </trkpt>
      <trkpt lat="43.5293" lon="5.56921">
        <ele>442</ele>
        <time>2022-02-15T13:03:30.207Z</time>
      </trkpt>
      <trkpt lat="43.5293" lon="5.5692">
        <ele>442</ele>
        <time>2022-02-15T13:03:31.207Z</time>
      </trkpt>
      <trkpt lat="43.52929" lon="5.56919">
        <ele>442</ele>
        <time>2022-02-15T13:03:32.207Z</time>
      </trkpt>
      <trkpt lat="43.52927" lon="5.56918">
        <ele>442</ele>
        <time>2022-02-15T13:03:33.207Z</time>
      </trkpt>
      <trkpt lat="43.52926" lon="5.56918">
        <ele>442</ele>
        <time>2022-02-15T13:03:34.207Z</time>
      </trkpt>
      <trkpt lat="43.52925" lon="5.56917">
        <ele>442</ele>
        <time>2022-02-15T13:03:35.207Z</time>
      </trkpt>
      <trkpt lat="43.52924" lon="5.56917">
        <ele>442</ele>
        <time>2022-02-15T13:03:36.207Z</time>
      </trkpt>
      <trkpt lat="43.52923" lon="5.56916">
        <ele>442</ele>
        <time>2022-02-15T13:03:37.207Z</time>
      </trkpt>
      <trkpt lat="43.52921" lon="5.56916">
        <ele>442</ele>
        <time>2022-02-15T13:03:38.207Z</time>
      </trkpt>
      <trkpt lat="43.5292" lon="5.56916">
        <ele>442</ele>
        <time>2022-02-15T13:03:39.207Z</time>
      </trkpt>
      <trkpt lat="43.52919" lon="5.56915">
        <ele>442</ele>
        <time>2022-02-15T13:03:40.207Z</time>
      </trkpt>
      <trkpt lat="43.52918" lon="5.56915">
        <ele>442</ele>
        <time>2022-02-15T13:03:41.207Z</time>
      </trkpt>
      <trkpt lat="43.52917" lon="5.56916">
        <ele>442</ele>
        <time>2022-02-15T13:03:42.207Z</time>
      </trkpt>
      <trkpt lat="43.52916" lon="5.56916">
        <ele>442</ele>
        <time>2022-02-15T13:03:43.207Z</time>
      </trkpt>
      <trkpt lat="43.52915" lon="5.56916">
        <ele>442</ele>
        <time>2022-02-15T13:03:44.207Z</time>
      </trkpt>
      <trkpt lat="43.52914" lon="5.56917">
        <ele>442</ele>
        <time>2022-02-15T13:03:45.207Z</time>
      </trkpt>
      <trkpt lat="43.52913" lon="5.56916">
        <ele>442</ele>
        <time>2022-02-15T13:03:46.207Z</time>
      </trkpt>
      <trkpt lat="43.52912" lon="5.56916">
        <ele>442</ele>
        <time>2022-02-15T13:03:47.207Z</time>
      </trkpt>
      <trkpt lat="43.52911" lon="5.56917">
        <ele>442</ele>
        <time>2022-02-15T13:03:48.207Z</time>
      </trkpt>
      <trkpt lat="43.5291" lon="5.56917">
        <ele>441</ele>
        <time>2022-02-15T13:03:49.207Z</time>
      </trkpt>
      <trkpt lat="43.52909" lon="5.56917">
        <ele>441</ele>
        <time>2022-02-15T13:03:50.207Z</time>
      </trkpt>
      <trkpt lat="43.52908" lon="5.56917">
        <ele>441</ele>
        <time>2022-02-15T13:03:51.207Z</time>
      </trkpt>
      <trkpt lat="43.52907" lon="5.56917">
        <ele>441</ele>
        <time>2022-02-15T13:03:52.207Z</time>
      </trkpt>
      <trkpt lat="43.52906" lon="5.56918">
        <ele>441</ele>
        <time>2022-02-15T13:03:53.207Z</time>
      </trkpt>
      <trkpt lat="43.52905" lon="5.56918">
        <ele>441</ele>
        <time>2022-02-15T13:03:54.207Z</time>
      </trkpt>
      <trkpt lat="43.52904" lon="5.56918">
        <ele>441</ele>
        <time>2022-02-15T13:03:55.207Z</time>
      </trkpt>
      <trkpt lat="43.52903" lon="5.56918">
        <ele>441</ele>
        <time>2022-02-15T13:03:56.207Z</time>
      </trkpt>
      <trkpt lat="43.52902" lon="5.56918">
        <ele>441</ele>
        <time>2022-02-15T13:03:57.207Z</time>
      </trkpt>
      <trkpt lat="43.52901" lon="5.56918">
        <ele>441</ele>
        <time>2022-02-15T13:03:58.207Z</time>
      </trkpt>
      <trkpt lat="43.529" lon="5.56917">
        <ele>441</ele>
        <time>2022-02-15T13:03:59.207Z</time>
      </trkpt>
      <trkpt lat="43.52899" lon="5.56917">
        <ele>441</ele>
        <time>2022-02-15T13:04:00.207Z</time>
      </trkpt>
      <trkpt lat="43.52898" lon="5.56917">
        <ele>441</ele>
        <time>2022-02-15T13:04:01.207Z</time>
      </trkpt>
      <trkpt lat="43.52896" lon="5.56917">
        <ele>441</ele>
        <time>2022-02-15T13:04:02.207Z</time>
      </trkpt>
      <trkpt lat="43.52895" lon="5.56916">
        <ele>441</ele>
        <time>2022-02-15T13:04:03.207Z</time>
      </trkpt>
      <trkpt lat="43.52894" lon="5.56916">
        <ele>440</ele>
        <time>2022-02-15T13:04:04.207Z</time>
      </trkpt>
      <trkpt lat="43.52893" lon="5.56916">
        <ele>440</ele>
        <time>2022-02-15T13:04:05.207Z</time>
      </trkpt>
      <trkpt lat="43.52892" lon="5.56915">
        <ele>440</ele>
        <time>2022-02-15T13:04:06.207Z</time>
      </trkpt>
      <trkpt lat="43.52891" lon="5.56914">
        <ele>440</ele>
        <time>2022-02-15T13:04:07.207Z</time>
      </trkpt>
      <trkpt lat="43.5289" lon="5.56914">
        <ele>440</ele>
        <time>2022-02-15T13:04:08.207Z</time>
      </trkpt>
      <trkpt lat="43.52889" lon="5.56913">
        <ele>440</ele>
        <time>2022-02-15T13:04:09.207Z</time>
      </trkpt>
      <trkpt lat="43.52888" lon="5.56913">
        <ele>440</ele>
        <time>2022-02-15T13:04:10.207Z</time>
      </trkpt>
      <trkpt lat="43.52887" lon="5.56912">
        <ele>440</ele>
        <time>2022-02-15T13:04:11.207Z</time>
      </trkpt>
      <trkpt lat="43.52886" lon="5.56912">
        <ele>440</ele>
        <time>2022-02-15T13:04:12.207Z</time>
      </trkpt>
      <trkpt lat="43.52885" lon="5.56911">
        <ele>440</ele>
        <time>2022-02-15T13:04:13.207Z</time>
      </trkpt>
      <trkpt lat="43.52885" lon="5.5691">
        <ele>440</ele>
        <time>2022-02-15T13:04:14.207Z</time>
      </trkpt>
      <trkpt lat="43.52884" lon="5.56909">
        <ele>440</ele>
        <time>2022-02-15T13:04:15.207Z</time>
      </trkpt>
      <trkpt lat="43.52883" lon="5.56909">
        <ele>440</ele>
        <time>2022-02-15T13:04:16.207Z</time>
      </trkpt>
      <trkpt lat="43.52882" lon="5.56908">
        <ele>440</ele>
        <time>2022-02-15T13:04:17.207Z</time>
      </trkpt>
      <trkpt lat="43.52881" lon="5.56907">
        <ele>440</ele>
        <time>2022-02-15T13:04:18.207Z</time>
      </trkpt>
      <trkpt lat="43.52881" lon="5.56906">
        <ele>440</ele>
        <time>2022-02-15T13:04:19.207Z</time>
      </trkpt>
      <trkpt lat="43.5288" lon="5.56906">
        <ele>440</ele>
        <time>2022-02-15T13:04:20.207Z</time>
      </trkpt>
      <trkpt lat="43.52879" lon="5.56905">
        <ele>440</ele>
        <time>2022-02-15T13:04:21.207Z</time>
      </trkpt>
      <trkpt lat="43.52878" lon="5.56904">
        <ele>440</ele>
        <time>2022-02-15T13:04:22.207Z</time>
      </trkpt>
      <trkpt lat="43.52878" lon="5.56903">
        <ele>440</ele>
        <time>2022-02-15T13:04:23.207Z</time>
      </trkpt>
      <trkpt lat="43.52877" lon="5.56902">
        <ele>440</ele>
        <time>2022-02-15T13:04:24.207Z</time>
      </trkpt>
      <trkpt lat="43.52877" lon="5.56901">
        <ele>440</ele>
        <time>2022-02-15T13:04:25.207Z</time>
      </trkpt>
      <trkpt lat="43.52876" lon="5.569">
        <ele>440</ele>
        <time>2022-02-15T13:04:26.207Z</time>
      </trkpt>
      <trkpt lat="43.52876" lon="5.569">
        <ele>440</ele>
        <time>2022-02-15T13:04:27.207Z</time>
      </trkpt>
      <trkpt lat="43.52875" lon="5.56899">
        <ele>440</ele>
        <time>2022-02-15T13:04:28.207Z</time>
      </trkpt>
      <trkpt lat="43.52874" lon="5.56898">
        <ele>439</ele>
        <time>2022-02-15T13:04:29.207Z</time>
      </trkpt>
      <trkpt lat="43.52873" lon="5.56898">
        <ele>439</ele>
        <time>2022-02-15T13:04:30.207Z</time>
      </trkpt>
      <trkpt lat="43.52872" lon="5.56897">
        <ele>439</ele>
        <time>2022-02-15T13:04:31.207Z</time>
      </trkpt>
      <trkpt lat="43.52871" lon="5.56897">
        <ele>439</ele>
        <time>2022-02-15T13:04:32.207Z</time>
      </trkpt>
      <trkpt lat="43.5287" lon="5.56896">
        <ele>439</ele>
        <time>2022-02-15T13:04:33.207Z</time>
      </trkpt>
      <trkpt lat="43.5287" lon="5.56896">
        <ele>439</ele>
        <time>2022-02-15T13:04:34.207Z</time>
      </trkpt>
      <trkpt lat="43.52869" lon="5.56896">
        <ele>439</ele>
        <time>2022-02-15T13:04:35.207Z</time>
      </trkpt>
      <trkpt lat="43.52868" lon="5.56896">
        <ele>439</ele>
        <time>2022-02-15T13:04:36.207Z</time>
      </trkpt>
      <trkpt lat="43.52867" lon="5.56896">
        <ele>439</ele>
        <time>2022-02-15T13:04:37.207Z</time>
      </trkpt>
      <trkpt lat="43.52866" lon="5.56896">
        <ele>439</ele>
        <time>2022-02-15T13:04:38.207Z</time>
      </trkpt>
      <trkpt lat="43.52865" lon="5.56896">
        <ele>438</ele>
        <time>2022-02-15T13:04:39.207Z</time>
      </trkpt>
      <trkpt lat="43.52864" lon="5.56896">
        <ele>438</ele>
        <time>2022-02-15T13:04:40.207Z</time>
      </trkpt>
      <trkpt lat="43.52864" lon="5.56896">
        <ele>438</ele>
        <time>2022-02-15T13:04:41.207Z</time>
      </trkpt>
      <trkpt lat="43.52862" lon="5.56895">
        <ele>438</ele>
        <time>2022-02-15T13:04:42.207Z</time>
      </trkpt>
      <trkpt lat="43.52861" lon="5.56896">
        <ele>438</ele>
        <time>2022-02-15T13:04:43.207Z</time>
      </trkpt>
      <trkpt lat="43.5286" lon="5.56896">
        <ele>438</ele>
        <time>2022-02-15T13:04:44.207Z</time>
      </trkpt>
      <trkpt lat="43.52859" lon="5.56895">
        <ele>437</ele>
        <time>2022-02-15T13:04:45.207Z</time>
      </trkpt>
      <trkpt lat="43.52858" lon="5.56895">
        <ele>437</ele>
        <time>2022-02-15T13:04:46.207Z</time>
      </trkpt>
      <trkpt lat="43.52857" lon="5.56895">
        <ele>437</ele>
        <time>2022-02-15T13:04:47.207Z</time>
      </trkpt>
      <trkpt lat="43.52856" lon="5.56895">
        <ele>437</ele>
        <time>2022-02-15T13:04:48.207Z</time>
      </trkpt>
      <trkpt lat="43.52855" lon="5.56895">
        <ele>437</ele>
        <time>2022-02-15T13:04:49.207Z</time>
      </trkpt>
      <trkpt lat="43.52854" lon="5.56895">
        <ele>437</ele>
        <time>2022-02-15T13:04:50.207Z</time>
      </trkpt>
      <trkpt lat="43.52853" lon="5.56895">
        <ele>436</ele>
        <time>2022-02-15T13:04:51.207Z</time>
      </trkpt>
      <trkpt lat="43.52852" lon="5.56895">
        <ele>436</ele>
        <time>2022-02-15T13:04:52.207Z</time>
      </trkpt>
      <trkpt lat="43.52851" lon="5.56895">
        <ele>436</ele>
        <time>2022-02-15T13:04:53.207Z</time>
      </trkpt>
      <trkpt lat="43.5285" lon="5.56895">
        <ele>436</ele>
        <time>2022-02-15T13:04:54.207Z</time>
      </trkpt>
      <trkpt lat="43.52849" lon="5.56895">
        <ele>436</ele>
        <time>2022-02-15T13:04:55.207Z</time>
      </trkpt>
      <trkpt lat="43.52848" lon="5.56895">
        <ele>436</ele>
        <time>2022-02-15T13:04:56.207Z</time>
      </trkpt>
      <trkpt lat="43.52847" lon="5.56896">
        <ele>436</ele>
        <time>2022-02-15T13:04:57.207Z</time>
      </trkpt>
      <trkpt lat="43.52846" lon="5.56896">
        <ele>435</ele>
        <time>2022-02-15T13:04:58.207Z</time>
      </trkpt>
      <trkpt lat="43.52846" lon="5.56896">
        <ele>435</ele>
        <time>2022-02-15T13:04:59.207Z</time>
      </trkpt>
      <trkpt lat="43.52845" lon="5.56896">
        <ele>435</ele>
        <time>2022-02-15T13:05:00.207Z</time>
      </trkpt>
      <trkpt lat="43.52845" lon="5.56896">
        <ele>435</ele>
        <time>2022-02-15T13:05:01.207Z</time>
      </trkpt>
      <trkpt lat="43.52845" lon="5.56896">
        <ele>434</ele>
        <time>2022-02-15T13:05:02.207Z</time>
      </trkpt>
      <trkpt lat="43.52845" lon="5.56896">
        <ele>434</ele>
        <time>2022-02-15T13:05:03.207Z</time>
      </trkpt>
      <trkpt lat="43.52846" lon="5.56896">
        <ele>434</ele>
        <time>2022-02-15T13:05:04.207Z</time>
      </trkpt>
      <trkpt lat="43.52846" lon="5.56896">
        <ele>433</ele>
        <time>2022-02-15T13:05:05.207Z</time>
      </trkpt>
      <trkpt lat="43.52846" lon="5.56896">
        <ele>433</ele>
        <time>2022-02-15T13:05:06.207Z</time>
      </trkpt>
      <trkpt lat="43.52846" lon="5.56896">
        <ele>433</ele>
        <time>2022-02-15T13:05:07.207Z</time>
      </trkpt>
      <trkpt lat="43.52846" lon="5.56896">
        <ele>432</ele>
        <time>2022-02-15T13:05:08.207Z</time>
      </trkpt>
      <trkpt lat="43.52846" lon="5.56896">
        <ele>432</ele>
        <time>2022-02-15T13:05:09.207Z</time>
      </trkpt>
      <trkpt lat="43.52846" lon="5.56896">
        <ele>432</ele>
        <time>2022-02-15T13:05:10.207Z</time>
      </trkpt>
      <trkpt lat="43.52846" lon="5.56896">
        <ele>432</ele>
        <time>2022-02-15T13:05:11.207Z</time>
      </trkpt>
      <trkpt lat="43.52846" lon="5.56896">
        <ele>431</ele>
        <time>2022-02-15T13:05:12.207Z</time>
      </trkpt>
      <trkpt lat="43.52846" lon="5.56896">
        <ele>431</ele>
        <time>2022-02-15T13:05:13.207Z</time>
      </trkpt>
      <trkpt lat="43.52847" lon="5.56896">
        <ele>431</ele>
        <time>2022-02-15T13:05:14.207Z</time>
      </trkpt>
      <trkpt lat="43.52847" lon="5.56896">
        <ele>431</ele>
        <time>2022-02-15T13:05:15.207Z</time>
      </trkpt>
      <trkpt lat="43.52847" lon="5.56896">
        <ele>431</ele>
        <time>2022-02-15T13:05:16.207Z</time>
      </trkpt>
      <trkpt lat="43.52847" lon="5.56896">
        <ele>430</ele>
        <time>2022-02-15T13:05:17.207Z</time>
      </trkpt>
      <trkpt lat="43.52847" lon="5.56896">
        <ele>430</ele>
        <time>2022-02-15T13:05:18.207Z</time>
      </trkpt>
      <trkpt lat="43.52847" lon="5.56896">
        <ele>430</ele>
        <time>2022-02-15T13:05:19.207Z</time>
      </trkpt>
      <trkpt lat="43.52847" lon="5.56896">
        <ele>430</ele>
        <time>2022-02-15T13:05:20.207Z</time>
      </trkpt>
      <trkpt lat="43.52848" lon="5.56896">
        <ele>430</ele>
        <time>2022-02-15T13:05:21.207Z</time>
      </trkpt>
      <trkpt lat="43.52848" lon="5.56896">
        <ele>430</ele>
        <time>2022-02-15T13:05:22.207Z</time>
      </trkpt>
      <trkpt lat="43.52848" lon="5.56896">
        <ele>430</ele>
        <time>2022-02-15T13:05:23.207Z</time>
      </trkpt>
      <trkpt lat="43.52848" lon="5.56896">
        <ele>430</ele>
        <time>2022-02-15T13:05:24.207Z</time>
      </trkpt>
      <trkpt lat="43.52848" lon="5.56896">
        <ele>429</ele>
        <time>2022-02-15T13:05:25.207Z</time>
      </trkpt>
      <trkpt lat="43.52848" lon="5.56896">
        <ele>429</ele>
        <time>2022-02-15T13:05:26.207Z</time>
      </trkpt>
      <trkpt lat="43.52848" lon="5.56896">
        <ele>429</ele>
        <time>2022-02-15T13:05:27.207Z</time>
      </trkpt>
      <trkpt lat="43.52848" lon="5.56896">
        <ele>429</ele>
        <time>2022-02-15T13:05:28.207Z</time>
      </trkpt>
      <trkpt lat="43.52848" lon="5.56895">
        <ele>429</ele>
        <time>2022-02-15T13:05:29.207Z</time>
      </trkpt>
      <trkpt lat="43.52848" lon="5.56895">
        <ele>429</ele>
        <time>2022-02-15T13:05:30.207Z</time>
      </trkpt>
      <trkpt lat="43.52848" lon="5.56895">
        <ele>429</ele>
        <time>2022-02-15T13:05:31.207Z</time>
      </trkpt>
      <trkpt lat="43.52848" lon="5.56895">
        <ele>429</ele>
        <time>2022-02-15T13:05:32.207Z</time>
      </trkpt>
      <trkpt lat="43.52848" lon="5.56895">
        <ele>429</ele>
        <time>2022-02-15T13:05:33.207Z</time>
      </trkpt>
      <trkpt lat="43.52848" lon="5.56895">
        <ele>429</ele>
        <time>2022-02-15T13:05:34.207Z</time>
      </trkpt>
      <trkpt lat="43.52848" lon="5.56895">
        <ele>429</ele>
        <time>2022-02-15T13:05:35.207Z</time>
      </trkpt>
      <trkpt lat="43.52848" lon="5.56895">
        <ele>429</ele>
        <time>2022-02-15T13:05:36.207Z</time>
      </trkpt>
      <trkpt lat="43.52848" lon="5.56895">
        <ele>429</ele>
        <time>2022-02-15T13:05:37.207Z</time>
      </trkpt>
      <trkpt lat="43.52849" lon="5.56895">
        <ele>429</ele>
        <time>2022-02-15T13:05:38.207Z</time>
      </trkpt>
      <trkpt lat="43.52849" lon="5.56895">
        <ele>429</ele>
        <time>2022-02-15T13:05:39.207Z</time>
      </trkpt>
      <trkpt lat="43.52849" lon="5.56895">
        <ele>429</ele>
        <time>2022-02-15T13:05:40.207Z</time>
      </trkpt>
      <trkpt lat="43.52849" lon="5.56895">
        <ele>429</ele>
        <time>2022-02-15T13:05:41.207Z</time>
      </trkpt>
      <trkpt lat="43.52849" lon="5.56895">
        <ele>429</ele>
        <time>2022-02-15T13:05:42.207Z</time>
      </trkpt>
      <trkpt lat="43.52849" lon="5.56895">
        <ele>429</ele>
        <time>2022-02-15T13:05:43.207Z</time>
      </trkpt>
      <trkpt lat="43.52849" lon="5.56895">
        <ele>429</ele>
        <time>2022-02-15T13:05:44.207Z</time>
      </trkpt>
      <trkpt lat="43.52849" lon="5.56895">
        <ele>429</ele>
        <time>2022-02-15T13:05:45.207Z</time>
      </trkpt>
      <trkpt lat="43.52849" lon="5.56895">
        <ele>429</ele>
        <time>2022-02-15T13:05:46.207Z</time>
      </trkpt>
      <trkpt lat="43.52848" lon="5.56895">
        <ele>429</ele>
        <time>2022-02-15T13:05:47.207Z</time>
      </trkpt>
      <trkpt lat="43.52848" lon="5.56896">
        <ele>428</ele>
        <time>2022-02-15T13:05:48.207Z</time>
      </trkpt>
      <trkpt lat="43.52847" lon="5.56896">
        <ele>428</ele>
        <time>2022-02-15T13:05:49.207Z</time>
      </trkpt>
      <trkpt lat="43.52847" lon="5.56897">
        <ele>428</ele>
        <time>2022-02-15T13:05:50.207Z</time>
      </trkpt>
      <trkpt lat="43.52845" lon="5.56898">
        <ele>428</ele>
        <time>2022-02-15T13:05:51.207Z</time>
      </trkpt>
      <trkpt lat="43.52844" lon="5.56899">
        <ele>428</ele>
        <time>2022-02-15T13:05:52.207Z</time>
      </trkpt>
      <trkpt lat="43.52843" lon="5.569">
        <ele>428</ele>
        <time>2022-02-15T13:05:53.207Z</time>
      </trkpt>
      <trkpt lat="43.52842" lon="5.56901">
        <ele>428</ele>
        <time>2022-02-15T13:05:54.207Z</time>
      </trkpt>
      <trkpt lat="43.52841" lon="5.56902">
        <ele>428</ele>
        <time>2022-02-15T13:05:55.207Z</time>
      </trkpt>
      <trkpt lat="43.5284" lon="5.56903">
        <ele>428</ele>
        <time>2022-02-15T13:05:56.207Z</time>
      </trkpt>
      <trkpt lat="43.52839" lon="5.56904">
        <ele>428</ele>
        <time>2022-02-15T13:05:57.207Z</time>
      </trkpt>
      <trkpt lat="43.52838" lon="5.56904">
        <ele>428</ele>
        <time>2022-02-15T13:05:58.207Z</time>
      </trkpt>
      <trkpt lat="43.52837" lon="5.56905">
        <ele>428</ele>
        <time>2022-02-15T13:05:59.207Z</time>
      </trkpt>
      <trkpt lat="43.52836" lon="5.56905">
        <ele>428</ele>
        <time>2022-02-15T13:06:00.207Z</time>
      </trkpt>
      <trkpt lat="43.52834" lon="5.56906">
        <ele>428</ele>
        <time>2022-02-15T13:06:01.207Z</time>
      </trkpt>
      <trkpt lat="43.52833" lon="5.56906">
        <ele>429</ele>
        <time>2022-02-15T13:06:02.207Z</time>
      </trkpt>
      <trkpt lat="43.52832" lon="5.56907">
        <ele>429</ele>
        <time>2022-02-15T13:06:03.207Z</time>
      </trkpt>
      <trkpt lat="43.52831" lon="5.56908">
        <ele>429</ele>
        <time>2022-02-15T13:06:04.207Z</time>
      </trkpt>
      <trkpt lat="43.5283" lon="5.56908">
        <ele>429</ele>
        <time>2022-02-15T13:06:05.207Z</time>
      </trkpt>
      <trkpt lat="43.52829" lon="5.56909">
        <ele>429</ele>
        <time>2022-02-15T13:06:06.207Z</time>
      </trkpt>
      <trkpt lat="43.52828" lon="5.56909">
        <ele>429</ele>
        <time>2022-02-15T13:06:07.207Z</time>
      </trkpt>
      <trkpt lat="43.52827" lon="5.5691">
        <ele>429</ele>
        <time>2022-02-15T13:06:08.207Z</time>
      </trkpt>
      <trkpt lat="43.52826" lon="5.56911">
        <ele>429</ele>
        <time>2022-02-15T13:06:09.207Z</time>
      </trkpt>
      <trkpt lat="43.52826" lon="5.56912">
        <ele>429</ele>
        <time>2022-02-15T13:06:10.207Z</time>
      </trkpt>
      <trkpt lat="43.52824" lon="5.56913">
        <ele>429</ele>
        <time>2022-02-15T13:06:11.207Z</time>
      </trkpt>
      <trkpt lat="43.52823" lon="5.56913">
        <ele>429</ele>
        <time>2022-02-15T13:06:12.207Z</time>
      </trkpt>
      <trkpt lat="43.52823" lon="5.56914">
        <ele>429</ele>
        <time>2022-02-15T13:06:13.207Z</time>
      </trkpt>
      <trkpt lat="43.52821" lon="5.56915">
        <ele>429</ele>
        <time>2022-02-15T13:06:14.207Z</time>
      </trkpt>
      <trkpt lat="43.5282" lon="5.56915">
        <ele>429</ele>
        <time>2022-02-15T13:06:15.207Z</time>
      </trkpt>
      <trkpt lat="43.52819" lon="5.56916">
        <ele>429</ele>
        <time>2022-02-15T13:06:16.207Z</time>
      </trkpt>
      <trkpt lat="43.52818" lon="5.56916">
        <ele>429</ele>
        <time>2022-02-15T13:06:17.207Z</time>
      </trkpt>
      <trkpt lat="43.52817" lon="5.56917">
        <ele>429</ele>
        <time>2022-02-15T13:06:18.207Z</time>
      </trkpt>
      <trkpt lat="43.52815" lon="5.56917">
        <ele>429</ele>
        <time>2022-02-15T13:06:19.207Z</time>
      </trkpt>
      <trkpt lat="43.52814" lon="5.56917">
        <ele>429</ele>
        <time>2022-02-15T13:06:20.207Z</time>
      </trkpt>
      <trkpt lat="43.52813" lon="5.56917">
        <ele>429</ele>
        <time>2022-02-15T13:06:21.207Z</time>
      </trkpt>
      <trkpt lat="43.52812" lon="5.56917">
        <ele>429</ele>
        <time>2022-02-15T13:06:22.207Z</time>
      </trkpt>
      <trkpt lat="43.5281" lon="5.56917">
        <ele>429</ele>
        <time>2022-02-15T13:06:23.207Z</time>
      </trkpt>
      <trkpt lat="43.52809" lon="5.56917">
        <ele>429</ele>
        <time>2022-02-15T13:06:24.207Z</time>
      </trkpt>
      <trkpt lat="43.52807" lon="5.56918">
        <ele>429</ele>
        <time>2022-02-15T13:06:25.207Z</time>
      </trkpt>
      <trkpt lat="43.52806" lon="5.56918">
        <ele>429</ele>
        <time>2022-02-15T13:06:26.207Z</time>
      </trkpt>
      <trkpt lat="43.52804" lon="5.56918">
        <ele>429</ele>
        <time>2022-02-15T13:06:27.207Z</time>
      </trkpt>
      <trkpt lat="43.52803" lon="5.56918">
        <ele>429</ele>
        <time>2022-02-15T13:06:28.207Z</time>
      </trkpt>
      <trkpt lat="43.52802" lon="5.56918">
        <ele>430</ele>
        <time>2022-02-15T13:06:29.207Z</time>
      </trkpt>
      <trkpt lat="43.52801" lon="5.56917">
        <ele>430</ele>
        <time>2022-02-15T13:06:30.207Z</time>
      </trkpt>
      <trkpt lat="43.528" lon="5.56917">
        <ele>430</ele>
        <time>2022-02-15T13:06:31.207Z</time>
      </trkpt>
      <trkpt lat="43.52798" lon="5.56917">
        <ele>430</ele>
        <time>2022-02-15T13:06:32.207Z</time>
      </trkpt>
      <trkpt lat="43.52797" lon="5.56917">
        <ele>430</ele>
        <time>2022-02-15T13:06:33.207Z</time>
      </trkpt>
      <trkpt lat="43.52795" lon="5.56917">
        <ele>430</ele>
        <time>2022-02-15T13:06:34.207Z</time>
      </trkpt>
      <trkpt lat="43.52794" lon="5.56917">
        <ele>430</ele>
        <time>2022-02-15T13:06:35.207Z</time>
      </trkpt>
      <trkpt lat="43.52793" lon="5.56917">
        <ele>430</ele>
        <time>2022-02-15T13:06:36.207Z</time>
      </trkpt>
      <trkpt lat="43.52791" lon="5.56917">
        <ele>429</ele>
        <time>2022-02-15T13:06:37.207Z</time>
      </trkpt>
      <trkpt lat="43.5279" lon="5.56917">
        <ele>429</ele>
        <time>2022-02-15T13:06:38.207Z</time>
      </trkpt>
      <trkpt lat="43.52788" lon="5.56917">
        <ele>429</ele>
        <time>2022-02-15T13:06:39.207Z</time>
      </trkpt>
      <trkpt lat="43.52787" lon="5.56917">
        <ele>429</ele>
        <time>2022-02-15T13:06:40.207Z</time>
      </trkpt>
      <trkpt lat="43.52786" lon="5.56918">
        <ele>429</ele>
        <time>2022-02-15T13:06:41.207Z</time>
      </trkpt>
      <trkpt lat="43.52785" lon="5.56918">
        <ele>429</ele>
        <time>2022-02-15T13:06:42.207Z</time>
      </trkpt>
      <trkpt lat="43.52783" lon="5.56919">
        <ele>429</ele>
        <time>2022-02-15T13:06:43.207Z</time>
      </trkpt>
      <trkpt lat="43.52782" lon="5.5692">
        <ele>429</ele>
        <time>2022-02-15T13:06:44.207Z</time>
      </trkpt>
      <trkpt lat="43.52781" lon="5.5692">
        <ele>429</ele>
        <time>2022-02-15T13:06:45.207Z</time>
      </trkpt>
      <trkpt lat="43.5278" lon="5.5692">
        <ele>429</ele>
        <time>2022-02-15T13:06:46.207Z</time>
      </trkpt>
      <trkpt lat="43.52778" lon="5.56921">
        <ele>429</ele>
        <time>2022-02-15T13:06:47.207Z</time>
      </trkpt>
      <trkpt lat="43.52777" lon="5.56922">
        <ele>429</ele>
        <time>2022-02-15T13:06:48.207Z</time>
      </trkpt>
      <trkpt lat="43.52776" lon="5.56922">
        <ele>429</ele>
        <time>2022-02-15T13:06:49.207Z</time>
      </trkpt>
      <trkpt lat="43.52775" lon="5.56923">
        <ele>429</ele>
        <time>2022-02-15T13:06:50.207Z</time>
      </trkpt>
      <trkpt lat="43.52774" lon="5.56924">
        <ele>429</ele>
        <time>2022-02-15T13:06:51.207Z</time>
      </trkpt>
      <trkpt lat="43.52773" lon="5.56924">
        <ele>429</ele>
        <time>2022-02-15T13:06:52.207Z</time>
      </trkpt>
      <trkpt lat="43.52772" lon="5.56925">
        <ele>429</ele>
        <time>2022-02-15T13:06:53.207Z</time>
      </trkpt>
      <trkpt lat="43.52771" lon="5.56926">
        <ele>429</ele>
        <time>2022-02-15T13:06:54.207Z</time>
      </trkpt>
      <trkpt lat="43.5277" lon="5.56927">
        <ele>429</ele>
        <time>2022-02-15T13:06:55.207Z</time>
      </trkpt>
      <trkpt lat="43.52769" lon="5.56928">
        <ele>428</ele>
        <time>2022-02-15T13:06:56.207Z</time>
      </trkpt>
      <trkpt lat="43.52768" lon="5.56929">
        <ele>428</ele>
        <time>2022-02-15T13:06:57.207Z</time>
      </trkpt>
      <trkpt lat="43.52768" lon="5.56931">
        <ele>428</ele>
        <time>2022-02-15T13:06:58.207Z</time>
      </trkpt>
      <trkpt lat="43.52767" lon="5.56932">
        <ele>428</ele>
        <time>2022-02-15T13:06:59.207Z</time>
      </trkpt>
      <trkpt lat="43.52766" lon="5.56934">
        <ele>428</ele>
        <time>2022-02-15T13:07:00.207Z</time>
      </trkpt>
      <trkpt lat="43.52766" lon="5.56935">
        <ele>427</ele>
        <time>2022-02-15T13:07:01.207Z</time>
      </trkpt>
      <trkpt lat="43.52766" lon="5.56937">
        <ele>427</ele>
        <time>2022-02-15T13:07:02.207Z</time>
      </trkpt>
      <trkpt lat="43.52765" lon="5.56938">
        <ele>427</ele>
        <time>2022-02-15T13:07:03.207Z</time>
      </trkpt>
      <trkpt lat="43.52765" lon="5.56939">
        <ele>427</ele>
        <time>2022-02-15T13:07:04.207Z</time>
      </trkpt>
      <trkpt lat="43.52765" lon="5.56941">
        <ele>426</ele>
        <time>2022-02-15T13:07:05.207Z</time>
      </trkpt>
      <trkpt lat="43.52765" lon="5.56942">
        <ele>426</ele>
        <time>2022-02-15T13:07:06.207Z</time>
      </trkpt>
      <trkpt lat="43.52765" lon="5.56944">
        <ele>426</ele>
        <time>2022-02-15T13:07:07.207Z</time>
      </trkpt>
      <trkpt lat="43.52765" lon="5.56945">
        <ele>426</ele>
        <time>2022-02-15T13:07:08.207Z</time>
      </trkpt>
      <trkpt lat="43.52765" lon="5.56946">
        <ele>426</ele>
        <time>2022-02-15T13:07:09.207Z</time>
      </trkpt>
      <trkpt lat="43.52765" lon="5.56948">
        <ele>426</ele>
        <time>2022-02-15T13:07:10.207Z</time>
      </trkpt>
      <trkpt lat="43.52765" lon="5.56949">
        <ele>425</ele>
        <time>2022-02-15T13:07:11.207Z</time>
      </trkpt>
      <trkpt lat="43.52765" lon="5.56951">
        <ele>425</ele>
        <time>2022-02-15T13:07:12.207Z</time>
      </trkpt>
      <trkpt lat="43.52765" lon="5.56952">
        <ele>425</ele>
        <time>2022-02-15T13:07:13.207Z</time>
      </trkpt>
      <trkpt lat="43.52765" lon="5.56953">
        <ele>425</ele>
        <time>2022-02-15T13:07:14.207Z</time>
      </trkpt>
      <trkpt lat="43.52764" lon="5.56955">
        <ele>425</ele>
        <time>2022-02-15T13:07:15.207Z</time>
      </trkpt>
      <trkpt lat="43.52764" lon="5.56956">
        <ele>425</ele>
        <time>2022-02-15T13:07:16.207Z</time>
      </trkpt>
      <trkpt lat="43.52765" lon="5.56957">
        <ele>425</ele>
        <time>2022-02-15T13:07:17.207Z</time>
      </trkpt>
      <trkpt lat="43.52765" lon="5.56959">
        <ele>425</ele>
        <time>2022-02-15T13:07:18.207Z</time>
      </trkpt>
      <trkpt lat="43.52764" lon="5.5696">
        <ele>425</ele>
        <time>2022-02-15T13:07:19.207Z</time>
      </trkpt>
      <trkpt lat="43.52764" lon="5.56962">
        <ele>424</ele>
        <time>2022-02-15T13:07:20.207Z</time>
      </trkpt>
      <trkpt lat="43.52764" lon="5.56963">
        <ele>424</ele>
        <time>2022-02-15T13:07:21.207Z</time>
      </trkpt>
      <trkpt lat="43.52764" lon="5.56964">
        <ele>424</ele>
        <time>2022-02-15T13:07:22.207Z</time>
      </trkpt>
      <trkpt lat="43.52764" lon="5.56966">
        <ele>424</ele>
        <time>2022-02-15T13:07:23.207Z</time>
      </trkpt>
      <trkpt lat="43.52764" lon="5.56967">
        <ele>424</ele>
        <time>2022-02-15T13:07:24.207Z</time>
      </trkpt>
      <trkpt lat="43.52764" lon="5.56968">
        <ele>424</ele>
        <time>2022-02-15T13:07:25.207Z</time>
      </trkpt>
      <trkpt lat="43.52764" lon="5.56969">
        <ele>424</ele>
        <time>2022-02-15T13:07:26.207Z</time>
      </trkpt>
      <trkpt lat="43.52764" lon="5.56971">
        <ele>424</ele>
        <time>2022-02-15T13:07:27.207Z</time>
      </trkpt>
      <trkpt lat="43.52764" lon="5.56972">
        <ele>424</ele>
        <time>2022-02-15T13:07:28.207Z</time>
      </trkpt>
      <trkpt lat="43.52764" lon="5.56974">
        <ele>424</ele>
        <time>2022-02-15T13:07:29.207Z</time>
      </trkpt>
      <trkpt lat="43.52764" lon="5.56975">
        <ele>424</ele>
        <time>2022-02-15T13:07:30.207Z</time>
      </trkpt>
      <trkpt lat="43.52763" lon="5.56976">
        <ele>424</ele>
        <time>2022-02-15T13:07:31.207Z</time>
      </trkpt>
      <trkpt lat="43.52763" lon="5.56977">
        <ele>424</ele>
        <time>2022-02-15T13:07:32.207Z</time>
      </trkpt>
      <trkpt lat="43.52763" lon="5.56978">
        <ele>424</ele>
        <time>2022-02-15T13:07:33.207Z</time>
      </trkpt>
      <trkpt lat="43.52763" lon="5.56979">
        <ele>424</ele>
        <time>2022-02-15T13:07:34.207Z</time>
      </trkpt>
      <trkpt lat="43.52762" lon="5.5698">
        <ele>424</ele>
        <time>2022-02-15T13:07:35.207Z</time>
      </trkpt>
      <trkpt lat="43.52762" lon="5.5698">
        <ele>424</ele>
        <time>2022-02-15T13:07:36.207Z</time>
      </trkpt>
      <trkpt lat="43.52762" lon="5.5698">
        <ele>424</ele>
        <time>2022-02-15T13:07:37.207Z</time>
      </trkpt>
      <trkpt lat="43.52762" lon="5.5698">
        <ele>424</ele>
        <time>2022-02-15T13:07:38.207Z</time>
      </trkpt>
      <trkpt lat="43.52762" lon="5.5698">
        <ele>424</ele>
        <time>2022-02-15T13:07:39.207Z</time>
      </trkpt>
      <trkpt lat="43.52762" lon="5.5698">
        <ele>424</ele>
        <time>2022-02-15T13:07:40.207Z</time>
      </trkpt>
      <trkpt lat="43.52762" lon="5.56981">
        <ele>424</ele>
        <time>2022-02-15T13:07:41.207Z</time>
      </trkpt>
      <trkpt lat="43.52762" lon="5.56982">
        <ele>424</ele>
        <time>2022-02-15T13:07:42.207Z</time>
      </trkpt>
      <trkpt lat="43.52762" lon="5.56983">
        <ele>424</ele>
        <time>2022-02-15T13:07:43.207Z</time>
      </trkpt>
      <trkpt lat="43.52762" lon="5.56983">
        <ele>424</ele>
        <time>2022-02-15T13:07:44.207Z</time>
      </trkpt>
      <trkpt lat="43.52762" lon="5.56983">
        <ele>424</ele>
        <time>2022-02-15T13:07:45.207Z</time>
      </trkpt>
      <trkpt lat="43.52762" lon="5.56983">
        <ele>424</ele>
        <time>2022-02-15T13:07:46.207Z</time>
      </trkpt>
      <trkpt lat="43.52762" lon="5.56983">
        <ele>424</ele>
        <time>2022-02-15T13:07:47.207Z</time>
      </trkpt>
      <trkpt lat="43.52762" lon="5.56983">
        <ele>424</ele>
        <time>2022-02-15T13:07:48.207Z</time>
      </trkpt>
      <trkpt lat="43.52762" lon="5.56984">
        <ele>424</ele>
        <time>2022-02-15T13:07:49.207Z</time>
      </trkpt>
      <trkpt lat="43.52762" lon="5.56984">
        <ele>424</ele>
        <time>2022-02-15T13:07:50.207Z</time>
      </trkpt>
      <trkpt lat="43.52762" lon="5.56984">
        <ele>424</ele>
        <time>2022-02-15T13:07:51.207Z</time>
      </trkpt>
      <trkpt lat="43.52762" lon="5.56984">
        <ele>424</ele>
        <time>2022-02-15T13:07:52.207Z</time>
      </trkpt>
      <trkpt lat="43.52762" lon="5.56984">
        <ele>424</ele>
        <time>2022-02-15T13:07:53.207Z</time>
      </trkpt>
      <trkpt lat="43.52762" lon="5.56984">
        <ele>424</ele>
        <time>2022-02-15T13:07:54.207Z</time>
      </trkpt>
      <trkpt lat="43.52762" lon="5.56984">
        <ele>424</ele>
        <time>2022-02-15T13:07:55.207Z</time>
      </trkpt>
      <trkpt lat="43.52762" lon="5.56984">
        <ele>424</ele>
        <time>2022-02-15T13:07:56.207Z</time>
      </trkpt>
      <trkpt lat="43.52762" lon="5.56984">
        <ele>424</ele>
        <time>2022-02-15T13:07:57.207Z</time>
      </trkpt>
      <trkpt lat="43.52762" lon="5.56984">
        <ele>424</ele>
        <time>2022-02-15T13:07:58.207Z</time>
      </trkpt>
      <trkpt lat="43.52762" lon="5.56984">
        <ele>424</ele>
        <time>2022-02-15T13:07:59.207Z</time>
      </trkpt>
      <trkpt lat="43.52762" lon="5.56984">
        <ele>424</ele>
        <time>2022-02-15T13:08:00.207Z</time>
      </trkpt>
      <trkpt lat="43.52762" lon="5.56984">
        <ele>424</ele>
        <time>2022-02-15T13:08:01.207Z</time>
      </trkpt>
      <trkpt lat="43.52762" lon="5.56984">
        <ele>424</ele>
        <time>2022-02-15T13:08:02.207Z</time>
      </trkpt>
      <trkpt lat="43.52762" lon="5.56984">
        <ele>424</ele>
        <time>2022-02-15T13:08:03.207Z</time>
      </trkpt>
      <trkpt lat="43.52762" lon="5.56984">
        <ele>424</ele>
        <time>2022-02-15T13:08:04.207Z</time>
      </trkpt>
      <trkpt lat="43.52762" lon="5.56984">
        <ele>424</ele>
        <time>2022-02-15T13:08:05.207Z</time>
      </trkpt>
      <trkpt lat="43.52762" lon="5.56984">
        <ele>424</ele>
        <time>2022-02-15T13:08:06.207Z</time>
      </trkpt>
      <trkpt lat="43.52762" lon="5.56984">
        <ele>424</ele>
        <time>2022-02-15T13:08:07.207Z</time>
      </trkpt>
      <trkpt lat="43.52762" lon="5.56984">
        <ele>424</ele>
        <time>2022-02-15T13:08:08.207Z</time>
      </trkpt>
      <trkpt lat="43.52762" lon="5.56984">
        <ele>424</ele>
        <time>2022-02-15T13:08:09.207Z</time>
      </trkpt>
      <trkpt lat="43.52762" lon="5.56984">
        <ele>424</ele>
        <time>2022-02-15T13:08:10.207Z</time>
      </trkpt>
      <trkpt lat="43.52762" lon="5.56984">
        <ele>424</ele>
        <time>2022-02-15T13:08:11.207Z</time>
      </trkpt>
      <trkpt lat="43.52762" lon="5.56984">
        <ele>424</ele>
        <time>2022-02-15T13:08:12.207Z</time>
      </trkpt>
      <trkpt lat="43.52762" lon="5.56985">
        <ele>424</ele>
        <time>2022-02-15T13:08:13.207Z</time>
      </trkpt>
      <trkpt lat="43.52762" lon="5.56985">
        <ele>424</ele>
        <time>2022-02-15T13:08:14.207Z</time>
      </trkpt>
      <trkpt lat="43.52761" lon="5.56986">
        <ele>424</ele>
        <time>2022-02-15T13:08:15.207Z</time>
      </trkpt>
      <trkpt lat="43.52761" lon="5.56987">
        <ele>424</ele>
        <time>2022-02-15T13:08:16.207Z</time>
      </trkpt>
      <trkpt lat="43.52761" lon="5.56988">
        <ele>425</ele>
        <time>2022-02-15T13:08:17.207Z</time>
      </trkpt>
      <trkpt lat="43.52761" lon="5.56989">
        <ele>425</ele>
        <time>2022-02-15T13:08:18.207Z</time>
      </trkpt>
      <trkpt lat="43.5276" lon="5.5699">
        <ele>425</ele>
        <time>2022-02-15T13:08:19.207Z</time>
      </trkpt>
      <trkpt lat="43.5276" lon="5.5699">
        <ele>425</ele>
        <time>2022-02-15T13:08:20.207Z</time>
      </trkpt>
      <trkpt lat="43.5276" lon="5.56991">
        <ele>425</ele>
        <time>2022-02-15T13:08:21.207Z</time>
      </trkpt>
      <trkpt lat="43.5276" lon="5.56992">
        <ele>425</ele>
        <time>2022-02-15T13:08:22.207Z</time>
      </trkpt>
      <trkpt lat="43.5276" lon="5.56992">
        <ele>425</ele>
        <time>2022-02-15T13:08:23.207Z</time>
      </trkpt>
      <trkpt lat="43.5276" lon="5.56992">
        <ele>425</ele>
        <time>2022-02-15T13:08:24.207Z</time>
      </trkpt>
      <trkpt lat="43.5276" lon="5.56992">
        <ele>425</ele>
        <time>2022-02-15T13:08:25.207Z</time>
      </trkpt>
      <trkpt lat="43.5276" lon="5.56992">
        <ele>426</ele>
        <time>2022-02-15T13:08:26.207Z</time>
      </trkpt>
      <trkpt lat="43.5276" lon="5.56992">
        <ele>426</ele>
        <time>2022-02-15T13:08:27.207Z</time>
      </trkpt>
      <trkpt lat="43.5276" lon="5.56992">
        <ele>426</ele>
        <time>2022-02-15T13:08:28.207Z</time>
      </trkpt>
      <trkpt lat="43.5276" lon="5.56992">
        <ele>426</ele>
        <time>2022-02-15T13:08:29.207Z</time>
      </trkpt>
      <trkpt lat="43.5276" lon="5.56992">
        <ele>426</ele>
        <time>2022-02-15T13:08:30.207Z</time>
      </trkpt>
      <trkpt lat="43.5276" lon="5.56992">
        <ele>426</ele>
        <time>2022-02-15T13:08:31.207Z</time>
      </trkpt>
      <trkpt lat="43.5276" lon="5.56992">
        <ele>426</ele>
        <time>2022-02-15T13:08:32.207Z</time>
      </trkpt>
      <trkpt lat="43.5276" lon="5.56993">
        <ele>426</ele>
        <time>2022-02-15T13:08:33.207Z</time>
      </trkpt>
      <trkpt lat="43.5276" lon="5.56993">
        <ele>426</ele>
        <time>2022-02-15T13:08:34.207Z</time>
      </trkpt>
      <trkpt lat="43.52759" lon="5.56994">
        <ele>426</ele>
        <time>2022-02-15T13:08:35.207Z</time>
      </trkpt>
      <trkpt lat="43.52759" lon="5.56995">
        <ele>426</ele>
        <time>2022-02-15T13:08:36.207Z</time>
      </trkpt>
      <trkpt lat="43.52758" lon="5.56996">
        <ele>426</ele>
        <time>2022-02-15T13:08:37.207Z</time>
      </trkpt>
      <trkpt lat="43.52758" lon="5.56997">
        <ele>426</ele>
        <time>2022-02-15T13:08:38.207Z</time>
      </trkpt>
      <trkpt lat="43.52758" lon="5.56997">
        <ele>426</ele>
        <time>2022-02-15T13:08:39.207Z</time>
      </trkpt>
      <trkpt lat="43.52758" lon="5.56997">
        <ele>426</ele>
        <time>2022-02-15T13:08:40.207Z</time>
      </trkpt>
      <trkpt lat="43.52758" lon="5.56997">
        <ele>426</ele>
        <time>2022-02-15T13:08:41.207Z</time>
      </trkpt>
      <trkpt lat="43.52758" lon="5.56997">
        <ele>426</ele>
        <time>2022-02-15T13:08:42.207Z</time>
      </trkpt>
      <trkpt lat="43.52758" lon="5.56997">
        <ele>426</ele>
        <time>2022-02-15T13:08:43.207Z</time>
      </trkpt>
      <trkpt lat="43.52758" lon="5.56997">
        <ele>426</ele>
        <time>2022-02-15T13:08:44.207Z</time>
      </trkpt>
      <trkpt lat="43.52758" lon="5.56997">
        <ele>426</ele>
        <time>2022-02-15T13:08:45.207Z</time>
      </trkpt>
      <trkpt lat="43.52758" lon="5.56997">
        <ele>426</ele>
        <time>2022-02-15T13:08:46.207Z</time>
      </trkpt>
      <trkpt lat="43.52758" lon="5.56997">
        <ele>426</ele>
        <time>2022-02-15T13:08:47.207Z</time>
      </trkpt>
      <trkpt lat="43.52758" lon="5.56997">
        <ele>426</ele>
        <time>2022-02-15T13:08:48.207Z</time>
      </trkpt>
      <trkpt lat="43.52758" lon="5.56997">
        <ele>426</ele>
        <time>2022-02-15T13:08:49.207Z</time>
      </trkpt>
      <trkpt lat="43.52758" lon="5.56997">
        <ele>426</ele>
        <time>2022-02-15T13:08:50.207Z</time>
      </trkpt>
      <trkpt lat="43.52758" lon="5.56997">
        <ele>426</ele>
        <time>2022-02-15T13:08:51.207Z</time>
      </trkpt>
      <trkpt lat="43.52758" lon="5.56997">
        <ele>426</ele>
        <time>2022-02-15T13:08:52.207Z</time>
      </trkpt>
      <trkpt lat="43.52758" lon="5.56997">
        <ele>426</ele>
        <time>2022-02-15T13:08:53.207Z</time>
      </trkpt>
      <trkpt lat="43.52758" lon="5.56997">
        <ele>426</ele>
        <time>2022-02-15T13:08:54.207Z</time>
      </trkpt>
      <trkpt lat="43.52758" lon="5.56997">
        <ele>426</ele>
        <time>2022-02-15T13:08:55.207Z</time>
      </trkpt>
      <trkpt lat="43.52758" lon="5.56997">
        <ele>426</ele>
        <time>2022-02-15T13:08:56.207Z</time>
      </trkpt>
      <trkpt lat="43.52758" lon="5.56997">
        <ele>426</ele>
        <time>2022-02-15T13:08:57.207Z</time>
      </trkpt>
      <trkpt lat="43.52758" lon="5.56997">
        <ele>426</ele>
        <time>2022-02-15T13:08:58.207Z</time>
      </trkpt>
      <trkpt lat="43.52758" lon="5.56997">
        <ele>426</ele>
        <time>2022-02-15T13:08:59.207Z</time>
      </trkpt>
      <trkpt lat="43.52758" lon="5.56997">
        <ele>426</ele>
        <time>2022-02-15T13:09:00.207Z</time>
      </trkpt>
      <trkpt lat="43.52758" lon="5.56997">
        <ele>426</ele>
        <time>2022-02-15T13:09:01.207Z</time>
      </trkpt>
      <trkpt lat="43.52758" lon="5.56997">
        <ele>426</ele>
        <time>2022-02-15T13:09:02.207Z</time>
      </trkpt>
      <trkpt lat="43.52758" lon="5.56997">
        <ele>426</ele>
        <time>2022-02-15T13:09:03.207Z</time>
      </trkpt>
      <trkpt lat="43.52758" lon="5.56997">
        <ele>426</ele>
        <time>2022-02-15T13:09:04.207Z</time>
      </trkpt>
      <trkpt lat="43.52758" lon="5.56997">
        <ele>426</ele>
        <time>2022-02-15T13:09:05.207Z</time>
      </trkpt>
      <trkpt lat="43.52758" lon="5.56996">
        <ele>426</ele>
        <time>2022-02-15T13:09:06.207Z</time>
      </trkpt>
      <trkpt lat="43.52758" lon="5.56996">
        <ele>426</ele>
        <time>2022-02-15T13:09:07.207Z</time>
      </trkpt>
      <trkpt lat="43.52758" lon="5.56996">
        <ele>426</ele>
        <time>2022-02-15T13:09:08.207Z</time>
      </trkpt>
      <trkpt lat="43.52758" lon="5.56996">
        <ele>426</ele>
        <time>2022-02-15T13:09:09.207Z</time>
      </trkpt>
      <trkpt lat="43.52758" lon="5.56996">
        <ele>426</ele>
        <time>2022-02-15T13:09:10.207Z</time>
      </trkpt>
      <trkpt lat="43.52758" lon="5.56996">
        <ele>426</ele>
        <time>2022-02-15T13:09:11.207Z</time>
      </trkpt>
      <trkpt lat="43.52758" lon="5.56996">
        <ele>426</ele>
        <time>2022-02-15T13:09:12.207Z</time>
      </trkpt>
      <trkpt lat="43.52758" lon="5.56996">
        <ele>426</ele>
        <time>2022-02-15T13:09:13.207Z</time>
      </trkpt>
      <trkpt lat="43.52758" lon="5.56996">
        <ele>426</ele>
        <time>2022-02-15T13:09:14.207Z</time>
      </trkpt>
      <trkpt lat="43.52758" lon="5.56996">
        <ele>426</ele>
        <time>2022-02-15T13:09:15.207Z</time>
      </trkpt>
      <trkpt lat="43.52758" lon="5.56996">
        <ele>426</ele>
        <time>2022-02-15T13:09:16.207Z</time>
      </trkpt>
      <trkpt lat="43.52758" lon="5.56996">
        <ele>426</ele>
        <time>2022-02-15T13:09:17.207Z</time>
      </trkpt>
      <trkpt lat="43.52758" lon="5.56996">
        <ele>426</ele>
        <time>2022-02-15T13:09:18.207Z</time>
      </trkpt>
      <trkpt lat="43.52758" lon="5.56996">
        <ele>426</ele>
        <time>2022-02-15T13:09:19.207Z</time>
      </trkpt>
      <trkpt lat="43.52758" lon="5.56996">
        <ele>426</ele>
        <time>2022-02-15T13:09:20.207Z</time>
      </trkpt>
      <trkpt lat="43.52758" lon="5.56996">
        <ele>426</ele>
        <time>2022-02-15T13:09:21.207Z</time>
      </trkpt>
      <trkpt lat="43.52758" lon="5.56996">
        <ele>426</ele>
        <time>2022-02-15T13:09:22.207Z</time>
      </trkpt>
      <trkpt lat="43.52758" lon="5.56996">
        <ele>426</ele>
        <time>2022-02-15T13:09:23.207Z</time>
      </trkpt>
      <trkpt lat="43.52758" lon="5.56996">
        <ele>426</ele>
        <time>2022-02-15T13:09:24.207Z</time>
      </trkpt>
      <trkpt lat="43.52758" lon="5.56996">
        <ele>426</ele>
        <time>2022-02-15T13:09:25.207Z</time>
      </trkpt>
      <trkpt lat="43.52758" lon="5.56996">
        <ele>426</ele>
        <time>2022-02-15T13:09:26.207Z</time>
      </trkpt>
      <trkpt lat="43.52758" lon="5.56996">
        <ele>426</ele>
        <time>2022-02-15T13:09:27.207Z</time>
      </trkpt>
      <trkpt lat="43.52758" lon="5.56996">
        <ele>426</ele>
        <time>2022-02-15T13:09:28.207Z</time>
      </trkpt>
      <trkpt lat="43.52758" lon="5.56996">
        <ele>426</ele>
        <time>2022-02-15T13:09:29.207Z</time>
      </trkpt>
      <trkpt lat="43.52758" lon="5.56996">
        <ele>426</ele>
        <time>2022-02-15T13:09:30.207Z</time>
      </trkpt>
      <trkpt lat="43.52758" lon="5.56996">
        <ele>426</ele>
        <time>2022-02-15T13:09:31.207Z</time>
      </trkpt>
      <trkpt lat="43.52758" lon="5.56996">
        <ele>426</ele>
        <time>2022-02-15T13:09:32.207Z</time>
      </trkpt>
      <trkpt lat="43.52758" lon="5.56996">
        <ele>426</ele>
        <time>2022-02-15T13:09:33.207Z</time>
      </trkpt>
      <trkpt lat="43.52758" lon="5.56996">
        <ele>426</ele>
        <time>2022-02-15T13:09:34.207Z</time>
      </trkpt>
      <trkpt lat="43.52758" lon="5.56996">
        <ele>426</ele>
        <time>2022-02-15T13:09:35.207Z</time>
      </trkpt>
      <trkpt lat="43.52758" lon="5.56996">
        <ele>426</ele>
        <time>2022-02-15T13:09:36.207Z</time>
      </trkpt>
      <trkpt lat="43.52758" lon="5.56996">
        <ele>426</ele>
        <time>2022-02-15T13:09:37.207Z</time>
      </trkpt>
      <trkpt lat="43.52758" lon="5.56996">
        <ele>426</ele>
        <time>2022-02-15T13:09:38.207Z</time>
      </trkpt>
      <trkpt lat="43.52758" lon="5.56996">
        <ele>426</ele>
        <time>2022-02-15T13:09:39.207Z</time>
      </trkpt>
      <trkpt lat="43.52758" lon="5.56996">
        <ele>426</ele>
        <time>2022-02-15T13:09:40.207Z</time>
      </trkpt>
      <trkpt lat="43.52758" lon="5.56996">
        <ele>426</ele>
        <time>2022-02-15T13:09:41.207Z</time>
      </trkpt>
      <trkpt lat="43.52758" lon="5.56996">
        <ele>426</ele>
        <time>2022-02-15T13:09:42.207Z</time>
      </trkpt>
      <trkpt lat="43.52758" lon="5.56996">
        <ele>426</ele>
        <time>2022-02-15T13:09:43.207Z</time>
      </trkpt>
      <trkpt lat="43.52758" lon="5.56996">
        <ele>426</ele>
        <time>2022-02-15T13:09:44.207Z</time>
      </trkpt>
      <trkpt lat="43.52758" lon="5.56996">
        <ele>426</ele>
        <time>2022-02-15T13:09:45.207Z</time>
      </trkpt>
      <trkpt lat="43.52757" lon="5.56996">
        <ele>426</ele>
        <time>2022-02-15T13:09:46.207Z</time>
      </trkpt>
      <trkpt lat="43.52757" lon="5.56996">
        <ele>426</ele>
        <time>2022-02-15T13:09:47.207Z</time>
      </trkpt>
      <trkpt lat="43.52757" lon="5.56996">
        <ele>426</ele>
        <time>2022-02-15T13:09:48.207Z</time>
      </trkpt>
      <trkpt lat="43.52757" lon="5.56996">
        <ele>426</ele>
        <time>2022-02-15T13:09:49.207Z</time>
      </trkpt>
      <trkpt lat="43.52757" lon="5.56996">
        <ele>426</ele>
        <time>2022-02-15T13:09:50.207Z</time>
      </trkpt>
      <trkpt lat="43.52757" lon="5.56996">
        <ele>426</ele>
        <time>2022-02-15T13:09:51.207Z</time>
      </trkpt>
      <trkpt lat="43.52757" lon="5.56996">
        <ele>426</ele>
        <time>2022-02-15T13:09:52.207Z</time>
      </trkpt>
      <trkpt lat="43.52757" lon="5.56996">
        <ele>426</ele>
        <time>2022-02-15T13:09:53.207Z</time>
      </trkpt>
      <trkpt lat="43.52757" lon="5.56996">
        <ele>426</ele>
        <time>2022-02-15T13:09:54.207Z</time>
      </trkpt>
      <trkpt lat="43.52757" lon="5.56996">
        <ele>426</ele>
        <time>2022-02-15T13:09:55.207Z</time>
      </trkpt>
      <trkpt lat="43.52757" lon="5.56996">
        <ele>426</ele>
        <time>2022-02-15T13:09:56.207Z</time>
      </trkpt>
      <trkpt lat="43.52757" lon="5.56996">
        <ele>426</ele>
        <time>2022-02-15T13:09:57.207Z</time>
      </trkpt>
      <trkpt lat="43.52757" lon="5.56996">
        <ele>426</ele>
        <time>2022-02-15T13:09:58.207Z</time>
      </trkpt>
      <trkpt lat="43.52757" lon="5.56996">
        <ele>426</ele>
        <time>2022-02-15T13:09:59.207Z</time>
      </trkpt>
      <trkpt lat="43.52757" lon="5.56996">
        <ele>426</ele>
        <time>2022-02-15T13:10:00.207Z</time>
      </trkpt>
      <trkpt lat="43.52757" lon="5.56996">
        <ele>426</ele>
        <time>2022-02-15T13:10:01.207Z</time>
      </trkpt>
      <trkpt lat="43.52757" lon="5.56996">
        <ele>426</ele>
        <time>2022-02-15T13:10:02.207Z</time>
      </trkpt>
      <trkpt lat="43.52757" lon="5.56996">
        <ele>426</ele>
        <time>2022-02-15T13:10:03.207Z</time>
      </trkpt>
      <trkpt lat="43.52757" lon="5.56996">
        <ele>426</ele>
        <time>2022-02-15T13:10:04.207Z</time>
      </trkpt>
      <trkpt lat="43.52757" lon="5.56996">
        <ele>426</ele>
        <time>2022-02-15T13:10:05.207Z</time>
      </trkpt>
      <trkpt lat="43.52757" lon="5.56996">
        <ele>426</ele>
        <time>2022-02-15T13:10:06.207Z</time>
      </trkpt>
      <trkpt lat="43.52757" lon="5.56996">
        <ele>426</ele>
        <time>2022-02-15T13:10:07.207Z</time>
      </trkpt>
      <trkpt lat="43.52757" lon="5.56996">
        <ele>426</ele>
        <time>2022-02-15T13:10:08.207Z</time>
      </trkpt>
      <trkpt lat="43.52757" lon="5.56996">
        <ele>426</ele>
        <time>2022-02-15T13:10:09.207Z</time>
      </trkpt>
      <trkpt lat="43.52757" lon="5.56996">
        <ele>426</ele>
        <time>2022-02-15T13:10:10.207Z</time>
      </trkpt>
      <trkpt lat="43.52757" lon="5.56996">
        <ele>426</ele>
        <time>2022-02-15T13:10:11.207Z</time>
      </trkpt>
      <trkpt lat="43.52757" lon="5.56996">
        <ele>426</ele>
        <time>2022-02-15T13:10:12.207Z</time>
      </trkpt>
      <trkpt lat="43.52757" lon="5.56996">
        <ele>426</ele>
        <time>2022-02-15T13:10:13.207Z</time>
      </trkpt>
      <trkpt lat="43.52757" lon="5.56996">
        <ele>426</ele>
        <time>2022-02-15T13:10:14.207Z</time>
      </trkpt>
      <trkpt lat="43.52757" lon="5.56996">
        <ele>426</ele>
        <time>2022-02-15T13:10:15.207Z</time>
      </trkpt>
      <trkpt lat="43.52757" lon="5.56996">
        <ele>426</ele>
        <time>2022-02-15T13:10:16.207Z</time>
      </trkpt>
      <trkpt lat="43.52757" lon="5.56996">
        <ele>426</ele>
        <time>2022-02-15T13:10:17.207Z</time>
      </trkpt>
      <trkpt lat="43.52757" lon="5.56996">
        <ele>426</ele>
        <time>2022-02-15T13:10:18.207Z</time>
      </trkpt>
      <trkpt lat="43.52757" lon="5.56996">
        <ele>426</ele>
        <time>2022-02-15T13:10:19.207Z</time>
      </trkpt>
      <trkpt lat="43.52757" lon="5.56996">
        <ele>426</ele>
        <time>2022-02-15T13:10:20.207Z</time>
      </trkpt>
      <trkpt lat="43.52757" lon="5.56996">
        <ele>426</ele>
        <time>2022-02-15T13:10:21.207Z</time>
      </trkpt>
      <trkpt lat="43.52757" lon="5.56996">
        <ele>426</ele>
        <time>2022-02-15T13:10:22.207Z</time>
      </trkpt>
      <trkpt lat="43.52757" lon="5.56996">
        <ele>426</ele>
        <time>2022-02-15T13:10:23.207Z</time>
      </trkpt>
      <trkpt lat="43.52757" lon="5.56996">
        <ele>426</ele>
        <time>2022-02-15T13:10:24.207Z</time>
      </trkpt>
      <trkpt lat="43.52757" lon="5.56996">
        <ele>426</ele>
        <time>2022-02-15T13:10:25.207Z</time>
      </trkpt>
      <trkpt lat="43.52757" lon="5.56996">
        <ele>426</ele>
        <time>2022-02-15T13:10:26.207Z</time>
      </trkpt>
      <trkpt lat="43.52757" lon="5.56996">
        <ele>426</ele>
        <time>2022-02-15T13:10:27.207Z</time>
      </trkpt>
      <trkpt lat="43.52757" lon="5.56996">
        <ele>426</ele>
        <time>2022-02-15T13:10:28.207Z</time>
      </trkpt>
      <trkpt lat="43.52757" lon="5.56996">
        <ele>426</ele>
        <time>2022-02-15T13:10:29.207Z</time>
      </trkpt>
      <trkpt lat="43.52757" lon="5.56996">
        <ele>426</ele>
        <time>2022-02-15T13:10:30.207Z</time>
      </trkpt>
      <trkpt lat="43.52757" lon="5.56996">
        <ele>426</ele>
        <time>2022-02-15T13:10:31.207Z</time>
      </trkpt>
      <trkpt lat="43.52757" lon="5.56996">
        <ele>426</ele>
        <time>2022-02-15T13:10:32.207Z</time>
      </trkpt>
      <trkpt lat="43.52757" lon="5.56996">
        <ele>426</ele>
        <time>2022-02-15T13:10:33.207Z</time>
      </trkpt>
      <trkpt lat="43.52757" lon="5.56996">
        <ele>426</ele>
        <time>2022-02-15T13:10:34.207Z</time>
      </trkpt>
      <trkpt lat="43.52757" lon="5.56996">
        <ele>426</ele>
        <time>2022-02-15T13:10:35.207Z</time>
      </trkpt>
      <trkpt lat="43.52757" lon="5.56996">
        <ele>426</ele>
        <time>2022-02-15T13:10:36.207Z</time>
      </trkpt>
      <trkpt lat="43.52757" lon="5.56996">
        <ele>426</ele>
        <time>2022-02-15T13:10:37.207Z</time>
      </trkpt>
      <trkpt lat="43.52757" lon="5.56996">
        <ele>426</ele>
        <time>2022-02-15T13:10:38.207Z</time>
      </trkpt>
      <trkpt lat="43.52757" lon="5.56996">
        <ele>426</ele>
        <time>2022-02-15T13:10:39.207Z</time>
      </trkpt>
      <trkpt lat="43.52757" lon="5.56996">
        <ele>426</ele>
        <time>2022-02-15T13:10:40.207Z</time>
      </trkpt>
      <trkpt lat="43.52757" lon="5.56996">
        <ele>426</ele>
        <time>2022-02-15T13:10:41.207Z</time>
      </trkpt>
      <trkpt lat="43.52757" lon="5.56996">
        <ele>426</ele>
        <time>2022-02-15T13:10:42.207Z</time>
      </trkpt>
      <trkpt lat="43.52757" lon="5.56996">
        <ele>426</ele>
        <time>2022-02-15T13:10:43.207Z</time>
      </trkpt>
      <trkpt lat="43.52757" lon="5.56996">
        <ele>426</ele>
        <time>2022-02-15T13:10:44.207Z</time>
      </trkpt>
      <trkpt lat="43.52757" lon="5.56996">
        <ele>426</ele>
        <time>2022-02-15T13:10:45.207Z</time>
      </trkpt>
      <trkpt lat="43.52757" lon="5.56996">
        <ele>426</ele>
        <time>2022-02-15T13:10:46.207Z</time>
      </trkpt>
      <trkpt lat="43.52757" lon="5.56996">
        <ele>426</ele>
        <time>2022-02-15T13:10:47.207Z</time>
      </trkpt>
      <trkpt lat="43.52757" lon="5.56996">
        <ele>426</ele>
        <time>2022-02-15T13:10:48.207Z</time>
      </trkpt>
      <trkpt lat="43.52757" lon="5.56996">
        <ele>426</ele>
        <time>2022-02-15T13:10:49.207Z</time>
      </trkpt>
      <trkpt lat="43.52757" lon="5.56996">
        <ele>426</ele>
        <time>2022-02-15T13:10:50.207Z</time>
      </trkpt>
      <trkpt lat="43.52757" lon="5.56996">
        <ele>426</ele>
        <time>2022-02-15T13:10:51.207Z</time>
      </trkpt>
      <trkpt lat="43.52757" lon="5.56996">
        <ele>426</ele>
        <time>2022-02-15T13:10:52.207Z</time>
      </trkpt>
      <trkpt lat="43.52757" lon="5.56996">
        <ele>426</ele>
        <time>2022-02-15T13:10:53.207Z</time>
      </trkpt>
      <trkpt lat="43.52757" lon="5.56996">
        <ele>426</ele>
        <time>2022-02-15T13:10:54.207Z</time>
      </trkpt>
      <trkpt lat="43.52757" lon="5.56996">
        <ele>426</ele>
        <time>2022-02-15T13:10:55.207Z</time>
      </trkpt>
      <trkpt lat="43.52757" lon="5.56996">
        <ele>426</ele>
        <time>2022-02-15T13:10:56.207Z</time>
      </trkpt>
      <trkpt lat="43.52757" lon="5.56996">
        <ele>426</ele>
        <time>2022-02-15T13:10:57.207Z</time>
      </trkpt>
      <trkpt lat="43.52757" lon="5.56996">
        <ele>426</ele>
        <time>2022-02-15T13:10:58.207Z</time>
      </trkpt>
      <trkpt lat="43.52757" lon="5.56996">
        <ele>426</ele>
        <time>2022-02-15T13:10:59.207Z</time>
      </trkpt>
      <trkpt lat="43.52757" lon="5.56996">
        <ele>426</ele>
        <time>2022-02-15T13:11:00.207Z</time>
      </trkpt>
      <trkpt lat="43.52757" lon="5.56996">
        <ele>426</ele>
        <time>2022-02-15T13:11:01.207Z</time>
      </trkpt>
      <trkpt lat="43.52757" lon="5.56996">
        <ele>426</ele>
        <time>2022-02-15T13:11:02.207Z</time>
      </trkpt>
      <trkpt lat="43.52757" lon="5.56996">
        <ele>426</ele>
        <time>2022-02-15T13:11:03.207Z</time>
      </trkpt>
      <trkpt lat="43.52757" lon="5.56996">
        <ele>426</ele>
        <time>2022-02-15T13:11:04.207Z</time>
      </trkpt>
      <trkpt lat="43.52757" lon="5.56996">
        <ele>426</ele>
        <time>2022-02-15T13:11:05.207Z</time>
      </trkpt>
      <trkpt lat="43.52757" lon="5.56996">
        <ele>426</ele>
        <time>2022-02-15T13:11:06.207Z</time>
      </trkpt>
      <trkpt lat="43.52756" lon="5.56997">
        <ele>426</ele>
        <time>2022-02-15T13:11:07.207Z</time>
      </trkpt>
      <trkpt lat="43.52755" lon="5.56998">
        <ele>426</ele>
        <time>2022-02-15T13:11:08.207Z</time>
      </trkpt>
      <trkpt lat="43.52755" lon="5.56999">
        <ele>426</ele>
        <time>2022-02-15T13:11:09.207Z</time>
      </trkpt>
      <trkpt lat="43.52754" lon="5.57">
        <ele>426</ele>
        <time>2022-02-15T13:11:10.207Z</time>
      </trkpt>
      <trkpt lat="43.52754" lon="5.57001">
        <ele>426</ele>
        <time>2022-02-15T13:11:11.207Z</time>
      </trkpt>
      <trkpt lat="43.52753" lon="5.57002">
        <ele>426</ele>
        <time>2022-02-15T13:11:12.207Z</time>
      </trkpt>
      <trkpt lat="43.52752" lon="5.57002">
        <ele>426</ele>
        <time>2022-02-15T13:11:13.207Z</time>
      </trkpt>
      <trkpt lat="43.52752" lon="5.57003">
        <ele>426</ele>
        <time>2022-02-15T13:11:14.207Z</time>
      </trkpt>
      <trkpt lat="43.52751" lon="5.57004">
        <ele>426</ele>
        <time>2022-02-15T13:11:15.207Z</time>
      </trkpt>
      <trkpt lat="43.5275" lon="5.57004">
        <ele>426</ele>
        <time>2022-02-15T13:11:16.207Z</time>
      </trkpt>
      <trkpt lat="43.52749" lon="5.57004">
        <ele>426</ele>
        <time>2022-02-15T13:11:17.207Z</time>
      </trkpt>
      <trkpt lat="43.52748" lon="5.57004">
        <ele>426</ele>
        <time>2022-02-15T13:11:18.207Z</time>
      </trkpt>
      <trkpt lat="43.52747" lon="5.57005">
        <ele>426</ele>
        <time>2022-02-15T13:11:19.207Z</time>
      </trkpt>
      <trkpt lat="43.52746" lon="5.57005">
        <ele>426</ele>
        <time>2022-02-15T13:11:20.207Z</time>
      </trkpt>
      <trkpt lat="43.52745" lon="5.57005">
        <ele>426</ele>
        <time>2022-02-15T13:11:21.207Z</time>
      </trkpt>
      <trkpt lat="43.52744" lon="5.57006">
        <ele>425</ele>
        <time>2022-02-15T13:11:22.207Z</time>
      </trkpt>
      <trkpt lat="43.52744" lon="5.57006">
        <ele>425</ele>
        <time>2022-02-15T13:11:23.207Z</time>
      </trkpt>
      <trkpt lat="43.52743" lon="5.57007">
        <ele>425</ele>
        <time>2022-02-15T13:11:24.207Z</time>
      </trkpt>
      <trkpt lat="43.52742" lon="5.57007">
        <ele>425</ele>
        <time>2022-02-15T13:11:25.207Z</time>
      </trkpt>
      <trkpt lat="43.52741" lon="5.57008">
        <ele>425</ele>
        <time>2022-02-15T13:11:26.207Z</time>
      </trkpt>
      <trkpt lat="43.52741" lon="5.57008">
        <ele>425</ele>
        <time>2022-02-15T13:11:27.207Z</time>
      </trkpt>
      <trkpt lat="43.5274" lon="5.57009">
        <ele>425</ele>
        <time>2022-02-15T13:11:28.207Z</time>
      </trkpt>
      <trkpt lat="43.52739" lon="5.5701">
        <ele>425</ele>
        <time>2022-02-15T13:11:29.207Z</time>
      </trkpt>
      <trkpt lat="43.52738" lon="5.5701">
        <ele>425</ele>
        <time>2022-02-15T13:11:30.207Z</time>
      </trkpt>
      <trkpt lat="43.52737" lon="5.5701">
        <ele>425</ele>
        <time>2022-02-15T13:11:31.207Z</time>
      </trkpt>
      <trkpt lat="43.52736" lon="5.5701">
        <ele>425</ele>
        <time>2022-02-15T13:11:32.207Z</time>
      </trkpt>
      <trkpt lat="43.52735" lon="5.5701">
        <ele>425</ele>
        <time>2022-02-15T13:11:33.207Z</time>
      </trkpt>
      <trkpt lat="43.52734" lon="5.5701">
        <ele>425</ele>
        <time>2022-02-15T13:11:34.207Z</time>
      </trkpt>
      <trkpt lat="43.52733" lon="5.5701">
        <ele>425</ele>
        <time>2022-02-15T13:11:35.207Z</time>
      </trkpt>
      <trkpt lat="43.52732" lon="5.5701">
        <ele>424</ele>
        <time>2022-02-15T13:11:36.207Z</time>
      </trkpt>
      <trkpt lat="43.52732" lon="5.57011">
        <ele>424</ele>
        <time>2022-02-15T13:11:37.207Z</time>
      </trkpt>
      <trkpt lat="43.52731" lon="5.57011">
        <ele>424</ele>
        <time>2022-02-15T13:11:38.207Z</time>
      </trkpt>
      <trkpt lat="43.5273" lon="5.57011">
        <ele>424</ele>
        <time>2022-02-15T13:11:39.207Z</time>
      </trkpt>
      <trkpt lat="43.52729" lon="5.57011">
        <ele>424</ele>
        <time>2022-02-15T13:11:40.207Z</time>
      </trkpt>
      <trkpt lat="43.52728" lon="5.57012">
        <ele>424</ele>
        <time>2022-02-15T13:11:41.207Z</time>
      </trkpt>
      <trkpt lat="43.52727" lon="5.57012">
        <ele>424</ele>
        <time>2022-02-15T13:11:42.207Z</time>
      </trkpt>
      <trkpt lat="43.52726" lon="5.57012">
        <ele>424</ele>
        <time>2022-02-15T13:11:43.207Z</time>
      </trkpt>
      <trkpt lat="43.52725" lon="5.57012">
        <ele>424</ele>
        <time>2022-02-15T13:11:44.207Z</time>
      </trkpt>
      <trkpt lat="43.52725" lon="5.57012">
        <ele>424</ele>
        <time>2022-02-15T13:11:45.207Z</time>
      </trkpt>
      <trkpt lat="43.52724" lon="5.57013">
        <ele>424</ele>
        <time>2022-02-15T13:11:46.207Z</time>
      </trkpt>
      <trkpt lat="43.52723" lon="5.57013">
        <ele>424</ele>
        <time>2022-02-15T13:11:47.207Z</time>
      </trkpt>
      <trkpt lat="43.52722" lon="5.57013">
        <ele>424</ele>
        <time>2022-02-15T13:11:48.207Z</time>
      </trkpt>
      <trkpt lat="43.52722" lon="5.57014">
        <ele>424</ele>
        <time>2022-02-15T13:11:49.207Z</time>
      </trkpt>
      <trkpt lat="43.52721" lon="5.57013">
        <ele>424</ele>
        <time>2022-02-15T13:11:50.207Z</time>
      </trkpt>
      <trkpt lat="43.5272" lon="5.57013">
        <ele>424</ele>
        <time>2022-02-15T13:11:51.207Z</time>
      </trkpt>
      <trkpt lat="43.52719" lon="5.57013">
        <ele>424</ele>
        <time>2022-02-15T13:11:52.207Z</time>
      </trkpt>
      <trkpt lat="43.52719" lon="5.57012">
        <ele>423</ele>
        <time>2022-02-15T13:11:53.207Z</time>
      </trkpt>
      <trkpt lat="43.52718" lon="5.57013">
        <ele>423</ele>
        <time>2022-02-15T13:11:54.207Z</time>
      </trkpt>
      <trkpt lat="43.52718" lon="5.57013">
        <ele>423</ele>
        <time>2022-02-15T13:11:55.207Z</time>
      </trkpt>
      <trkpt lat="43.52717" lon="5.57013">
        <ele>423</ele>
        <time>2022-02-15T13:11:56.207Z</time>
      </trkpt>
      <trkpt lat="43.52716" lon="5.57013">
        <ele>423</ele>
        <time>2022-02-15T13:11:57.207Z</time>
      </trkpt>
      <trkpt lat="43.52715" lon="5.57013">
        <ele>423</ele>
        <time>2022-02-15T13:11:58.207Z</time>
      </trkpt>
      <trkpt lat="43.52715" lon="5.57013">
        <ele>423</ele>
        <time>2022-02-15T13:11:59.207Z</time>
      </trkpt>
      <trkpt lat="43.52714" lon="5.57014">
        <ele>422</ele>
        <time>2022-02-15T13:12:00.207Z</time>
      </trkpt>
      <trkpt lat="43.52713" lon="5.57014">
        <ele>422</ele>
        <time>2022-02-15T13:12:01.207Z</time>
      </trkpt>
      <trkpt lat="43.52712" lon="5.57014">
        <ele>422</ele>
        <time>2022-02-15T13:12:02.207Z</time>
      </trkpt>
      <trkpt lat="43.52711" lon="5.57014">
        <ele>422</ele>
        <time>2022-02-15T13:12:03.207Z</time>
      </trkpt>
      <trkpt lat="43.5271" lon="5.57014">
        <ele>422</ele>
        <time>2022-02-15T13:12:04.207Z</time>
      </trkpt>
      <trkpt lat="43.52709" lon="5.57014">
        <ele>422</ele>
        <time>2022-02-15T13:12:05.207Z</time>
      </trkpt>
      <trkpt lat="43.52708" lon="5.57014">
        <ele>422</ele>
        <time>2022-02-15T13:12:06.207Z</time>
      </trkpt>
      <trkpt lat="43.52707" lon="5.57015">
        <ele>421</ele>
        <time>2022-02-15T13:12:07.207Z</time>
      </trkpt>
      <trkpt lat="43.52706" lon="5.57015">
        <ele>421</ele>
        <time>2022-02-15T13:12:08.207Z</time>
      </trkpt>
      <trkpt lat="43.52706" lon="5.57015">
        <ele>421</ele>
        <time>2022-02-15T13:12:09.207Z</time>
      </trkpt>
      <trkpt lat="43.52705" lon="5.57015">
        <ele>421</ele>
        <time>2022-02-15T13:12:10.207Z</time>
      </trkpt>
      <trkpt lat="43.52704" lon="5.57015">
        <ele>421</ele>
        <time>2022-02-15T13:12:11.207Z</time>
      </trkpt>
      <trkpt lat="43.52703" lon="5.57015">
        <ele>421</ele>
        <time>2022-02-15T13:12:12.207Z</time>
      </trkpt>
      <trkpt lat="43.52702" lon="5.57015">
        <ele>421</ele>
        <time>2022-02-15T13:12:13.207Z</time>
      </trkpt>
      <trkpt lat="43.52701" lon="5.57015">
        <ele>421</ele>
        <time>2022-02-15T13:12:14.207Z</time>
      </trkpt>
      <trkpt lat="43.527" lon="5.57015">
        <ele>421</ele>
        <time>2022-02-15T13:12:15.207Z</time>
      </trkpt>
      <trkpt lat="43.52699" lon="5.57015">
        <ele>421</ele>
        <time>2022-02-15T13:12:16.207Z</time>
      </trkpt>
      <trkpt lat="43.52698" lon="5.57015">
        <ele>421</ele>
        <time>2022-02-15T13:12:17.207Z</time>
      </trkpt>
      <trkpt lat="43.52697" lon="5.57015">
        <ele>421</ele>
        <time>2022-02-15T13:12:18.207Z</time>
      </trkpt>
      <trkpt lat="43.52696" lon="5.57016">
        <ele>421</ele>
        <time>2022-02-15T13:12:19.207Z</time>
      </trkpt>
      <trkpt lat="43.52695" lon="5.57016">
        <ele>421</ele>
        <time>2022-02-15T13:12:20.207Z</time>
      </trkpt>
      <trkpt lat="43.52694" lon="5.57015">
        <ele>421</ele>
        <time>2022-02-15T13:12:21.207Z</time>
      </trkpt>
      <trkpt lat="43.52693" lon="5.57015">
        <ele>421</ele>
        <time>2022-02-15T13:12:22.207Z</time>
      </trkpt>
      <trkpt lat="43.52692" lon="5.57014">
        <ele>421</ele>
        <time>2022-02-15T13:12:23.207Z</time>
      </trkpt>
      <trkpt lat="43.52691" lon="5.57013">
        <ele>421</ele>
        <time>2022-02-15T13:12:24.207Z</time>
      </trkpt>
      <trkpt lat="43.5269" lon="5.57012">
        <ele>421</ele>
        <time>2022-02-15T13:12:25.207Z</time>
      </trkpt>
      <trkpt lat="43.5269" lon="5.57011">
        <ele>421</ele>
        <time>2022-02-15T13:12:26.207Z</time>
      </trkpt>
      <trkpt lat="43.52689" lon="5.5701">
        <ele>421</ele>
        <time>2022-02-15T13:12:27.207Z</time>
      </trkpt>
      <trkpt lat="43.52689" lon="5.57009">
        <ele>421</ele>
        <time>2022-02-15T13:12:28.207Z</time>
      </trkpt>
      <trkpt lat="43.52689" lon="5.57008">
        <ele>420</ele>
        <time>2022-02-15T13:12:29.207Z</time>
      </trkpt>
      <trkpt lat="43.52688" lon="5.57007">
        <ele>420</ele>
        <time>2022-02-15T13:12:30.207Z</time>
      </trkpt>
      <trkpt lat="43.52688" lon="5.57006">
        <ele>420</ele>
        <time>2022-02-15T13:12:31.207Z</time>
      </trkpt>
      <trkpt lat="43.52688" lon="5.57005">
        <ele>420</ele>
        <time>2022-02-15T13:12:32.207Z</time>
      </trkpt>
      <trkpt lat="43.52687" lon="5.57004">
        <ele>419</ele>
        <time>2022-02-15T13:12:33.207Z</time>
      </trkpt>
      <trkpt lat="43.52687" lon="5.57003">
        <ele>419</ele>
        <time>2022-02-15T13:12:34.207Z</time>
      </trkpt>
      <trkpt lat="43.52686" lon="5.57001">
        <ele>419</ele>
        <time>2022-02-15T13:12:35.207Z</time>
      </trkpt>
      <trkpt lat="43.52686" lon="5.57">
        <ele>419</ele>
        <time>2022-02-15T13:12:36.207Z</time>
      </trkpt>
      <trkpt lat="43.52686" lon="5.56998">
        <ele>418</ele>
        <time>2022-02-15T13:12:37.207Z</time>
      </trkpt>
      <trkpt lat="43.52685" lon="5.56997">
        <ele>418</ele>
        <time>2022-02-15T13:12:38.207Z</time>
      </trkpt>
      <trkpt lat="43.52685" lon="5.56997">
        <ele>418</ele>
        <time>2022-02-15T13:12:39.207Z</time>
      </trkpt>
      <trkpt lat="43.52685" lon="5.56996">
        <ele>418</ele>
        <time>2022-02-15T13:12:40.207Z</time>
      </trkpt>
      <trkpt lat="43.52684" lon="5.56996">
        <ele>418</ele>
        <time>2022-02-15T13:12:41.207Z</time>
      </trkpt>
      <trkpt lat="43.52683" lon="5.56995">
        <ele>417</ele>
        <time>2022-02-15T13:12:42.207Z</time>
      </trkpt>
      <trkpt lat="43.52683" lon="5.56994">
        <ele>417</ele>
        <time>2022-02-15T13:12:43.207Z</time>
      </trkpt>
      <trkpt lat="43.52682" lon="5.56993">
        <ele>417</ele>
        <time>2022-02-15T13:12:44.207Z</time>
      </trkpt>
      <trkpt lat="43.52682" lon="5.56991">
        <ele>417</ele>
        <time>2022-02-15T13:12:45.207Z</time>
      </trkpt>
      <trkpt lat="43.52682" lon="5.5699">
        <ele>416</ele>
        <time>2022-02-15T13:12:46.207Z</time>
      </trkpt>
      <trkpt lat="43.52681" lon="5.5699">
        <ele>416</ele>
        <time>2022-02-15T13:12:47.207Z</time>
      </trkpt>
      <trkpt lat="43.52681" lon="5.56988">
        <ele>416</ele>
        <time>2022-02-15T13:12:48.207Z</time>
      </trkpt>
      <trkpt lat="43.52681" lon="5.56987">
        <ele>416</ele>
        <time>2022-02-15T13:12:49.207Z</time>
      </trkpt>
      <trkpt lat="43.52681" lon="5.56986">
        <ele>416</ele>
        <time>2022-02-15T13:12:50.207Z</time>
      </trkpt>
      <trkpt lat="43.52681" lon="5.56985">
        <ele>415</ele>
        <time>2022-02-15T13:12:51.207Z</time>
      </trkpt>
      <trkpt lat="43.52681" lon="5.56984">
        <ele>415</ele>
        <time>2022-02-15T13:12:52.207Z</time>
      </trkpt>
      <trkpt lat="43.52681" lon="5.56983">
        <ele>415</ele>
        <time>2022-02-15T13:12:53.207Z</time>
      </trkpt>
      <trkpt lat="43.52681" lon="5.56982">
        <ele>415</ele>
        <time>2022-02-15T13:12:54.207Z</time>
      </trkpt>
      <trkpt lat="43.52681" lon="5.56981">
        <ele>415</ele>
        <time>2022-02-15T13:12:55.207Z</time>
      </trkpt>
      <trkpt lat="43.52681" lon="5.56979">
        <ele>415</ele>
        <time>2022-02-15T13:12:56.207Z</time>
      </trkpt>
      <trkpt lat="43.52681" lon="5.56978">
        <ele>415</ele>
        <time>2022-02-15T13:12:57.207Z</time>
      </trkpt>
      <trkpt lat="43.52681" lon="5.56976">
        <ele>414</ele>
        <time>2022-02-15T13:12:58.207Z</time>
      </trkpt>
      <trkpt lat="43.52681" lon="5.56975">
        <ele>414</ele>
        <time>2022-02-15T13:12:59.207Z</time>
      </trkpt>
      <trkpt lat="43.52682" lon="5.56974">
        <ele>414</ele>
        <time>2022-02-15T13:13:00.207Z</time>
      </trkpt>
      <trkpt lat="43.52682" lon="5.56972">
        <ele>413</ele>
        <time>2022-02-15T13:13:01.207Z</time>
      </trkpt>
      <trkpt lat="43.52682" lon="5.5697">
        <ele>413</ele>
        <time>2022-02-15T13:13:02.207Z</time>
      </trkpt>
      <trkpt lat="43.52682" lon="5.56969">
        <ele>413</ele>
        <time>2022-02-15T13:13:03.207Z</time>
      </trkpt>
      <trkpt lat="43.52683" lon="5.56968">
        <ele>412</ele>
        <time>2022-02-15T13:13:04.207Z</time>
      </trkpt>
      <trkpt lat="43.52683" lon="5.56966">
        <ele>412</ele>
        <time>2022-02-15T13:13:05.207Z</time>
      </trkpt>
      <trkpt lat="43.52683" lon="5.56965">
        <ele>412</ele>
        <time>2022-02-15T13:13:06.207Z</time>
      </trkpt>
      <trkpt lat="43.52683" lon="5.56963">
        <ele>412</ele>
        <time>2022-02-15T13:13:07.207Z</time>
      </trkpt>
      <trkpt lat="43.52683" lon="5.56962">
        <ele>412</ele>
        <time>2022-02-15T13:13:08.207Z</time>
      </trkpt>
      <trkpt lat="43.52684" lon="5.5696">
        <ele>411</ele>
        <time>2022-02-15T13:13:09.207Z</time>
      </trkpt>
      <trkpt lat="43.52684" lon="5.56959">
        <ele>411</ele>
        <time>2022-02-15T13:13:10.207Z</time>
      </trkpt>
      <trkpt lat="43.52684" lon="5.56957">
        <ele>411</ele>
        <time>2022-02-15T13:13:11.207Z</time>
      </trkpt>
      <trkpt lat="43.52685" lon="5.56956">
        <ele>411</ele>
        <time>2022-02-15T13:13:12.207Z</time>
      </trkpt>
      <trkpt lat="43.52686" lon="5.56955">
        <ele>410</ele>
        <time>2022-02-15T13:13:13.207Z</time>
      </trkpt>
      <trkpt lat="43.52686" lon="5.56953">
        <ele>410</ele>
        <time>2022-02-15T13:13:14.207Z</time>
      </trkpt>
      <trkpt lat="43.52686" lon="5.56951">
        <ele>410</ele>
        <time>2022-02-15T13:13:15.207Z</time>
      </trkpt>
      <trkpt lat="43.52687" lon="5.56949">
        <ele>410</ele>
        <time>2022-02-15T13:13:16.207Z</time>
      </trkpt>
      <trkpt lat="43.52687" lon="5.56948">
        <ele>409</ele>
        <time>2022-02-15T13:13:17.207Z</time>
      </trkpt>
      <trkpt lat="43.52688" lon="5.56946">
        <ele>409</ele>
        <time>2022-02-15T13:13:18.207Z</time>
      </trkpt>
      <trkpt lat="43.52688" lon="5.56945">
        <ele>409</ele>
        <time>2022-02-15T13:13:19.207Z</time>
      </trkpt>
      <trkpt lat="43.52689" lon="5.56944">
        <ele>408</ele>
        <time>2022-02-15T13:13:20.207Z</time>
      </trkpt>
      <trkpt lat="43.52689" lon="5.56943">
        <ele>408</ele>
        <time>2022-02-15T13:13:21.207Z</time>
      </trkpt>
      <trkpt lat="43.5269" lon="5.56941">
        <ele>408</ele>
        <time>2022-02-15T13:13:22.207Z</time>
      </trkpt>
      <trkpt lat="43.5269" lon="5.5694">
        <ele>408</ele>
        <time>2022-02-15T13:13:23.207Z</time>
      </trkpt>
      <trkpt lat="43.52691" lon="5.56938">
        <ele>408</ele>
        <time>2022-02-15T13:13:24.207Z</time>
      </trkpt>
      <trkpt lat="43.52691" lon="5.56937">
        <ele>408</ele>
        <time>2022-02-15T13:13:25.207Z</time>
      </trkpt>
      <trkpt lat="43.52692" lon="5.56935">
        <ele>407</ele>
        <time>2022-02-15T13:13:26.207Z</time>
      </trkpt>
      <trkpt lat="43.52692" lon="5.56934">
        <ele>407</ele>
        <time>2022-02-15T13:13:27.207Z</time>
      </trkpt>
      <trkpt lat="43.52693" lon="5.56933">
        <ele>407</ele>
        <time>2022-02-15T13:13:28.207Z</time>
      </trkpt>
      <trkpt lat="43.52694" lon="5.56931">
        <ele>407</ele>
        <time>2022-02-15T13:13:29.207Z</time>
      </trkpt>
      <trkpt lat="43.52694" lon="5.56929">
        <ele>407</ele>
        <time>2022-02-15T13:13:30.207Z</time>
      </trkpt>
      <trkpt lat="43.52695" lon="5.56928">
        <ele>407</ele>
        <time>2022-02-15T13:13:31.207Z</time>
      </trkpt>
      <trkpt lat="43.52695" lon="5.56927">
        <ele>406</ele>
        <time>2022-02-15T13:13:32.207Z</time>
      </trkpt>
      <trkpt lat="43.52696" lon="5.56925">
        <ele>406</ele>
        <time>2022-02-15T13:13:33.207Z</time>
      </trkpt>
      <trkpt lat="43.52696" lon="5.56924">
        <ele>406</ele>
        <time>2022-02-15T13:13:34.207Z</time>
      </trkpt>
      <trkpt lat="43.52697" lon="5.56922">
        <ele>406</ele>
        <time>2022-02-15T13:13:35.207Z</time>
      </trkpt>
      <trkpt lat="43.52698" lon="5.56921">
        <ele>406</ele>
        <time>2022-02-15T13:13:36.207Z</time>
      </trkpt>
      <trkpt lat="43.52698" lon="5.5692">
        <ele>406</ele>
        <time>2022-02-15T13:13:37.207Z</time>
      </trkpt>
      <trkpt lat="43.52699" lon="5.56919">
        <ele>406</ele>
        <time>2022-02-15T13:13:38.207Z</time>
      </trkpt>
      <trkpt lat="43.52699" lon="5.56917">
        <ele>406</ele>
        <time>2022-02-15T13:13:39.207Z</time>
      </trkpt>
      <trkpt lat="43.527" lon="5.56916">
        <ele>406</ele>
        <time>2022-02-15T13:13:40.207Z</time>
      </trkpt>
      <trkpt lat="43.527" lon="5.56914">
        <ele>406</ele>
        <time>2022-02-15T13:13:41.207Z</time>
      </trkpt>
      <trkpt lat="43.527" lon="5.56913">
        <ele>406</ele>
        <time>2022-02-15T13:13:42.207Z</time>
      </trkpt>
      <trkpt lat="43.52701" lon="5.56911">
        <ele>406</ele>
        <time>2022-02-15T13:13:43.207Z</time>
      </trkpt>
      <trkpt lat="43.52701" lon="5.56909">
        <ele>406</ele>
        <time>2022-02-15T13:13:44.207Z</time>
      </trkpt>
      <trkpt lat="43.52702" lon="5.56908">
        <ele>406</ele>
        <time>2022-02-15T13:13:45.207Z</time>
      </trkpt>
      <trkpt lat="43.52702" lon="5.56906">
        <ele>406</ele>
        <time>2022-02-15T13:13:46.207Z</time>
      </trkpt>
      <trkpt lat="43.52702" lon="5.56905">
        <ele>405</ele>
        <time>2022-02-15T13:13:47.207Z</time>
      </trkpt>
      <trkpt lat="43.52703" lon="5.56904">
        <ele>405</ele>
        <time>2022-02-15T13:13:48.207Z</time>
      </trkpt>
      <trkpt lat="43.52703" lon="5.56902">
        <ele>405</ele>
        <time>2022-02-15T13:13:49.207Z</time>
      </trkpt>
      <trkpt lat="43.52703" lon="5.56901">
        <ele>405</ele>
        <time>2022-02-15T13:13:50.207Z</time>
      </trkpt>
      <trkpt lat="43.52704" lon="5.56899">
        <ele>405</ele>
        <time>2022-02-15T13:13:51.207Z</time>
      </trkpt>
      <trkpt lat="43.52704" lon="5.56898">
        <ele>405</ele>
        <time>2022-02-15T13:13:52.207Z</time>
      </trkpt>
      <trkpt lat="43.52704" lon="5.56896">
        <ele>405</ele>
        <time>2022-02-15T13:13:53.207Z</time>
      </trkpt>
      <trkpt lat="43.52705" lon="5.56895">
        <ele>405</ele>
        <time>2022-02-15T13:13:54.207Z</time>
      </trkpt>
      <trkpt lat="43.52705" lon="5.56893">
        <ele>405</ele>
        <time>2022-02-15T13:13:55.207Z</time>
      </trkpt>
      <trkpt lat="43.52705" lon="5.56892">
        <ele>405</ele>
        <time>2022-02-15T13:13:56.207Z</time>
      </trkpt>
      <trkpt lat="43.52705" lon="5.5689">
        <ele>405</ele>
        <time>2022-02-15T13:13:57.207Z</time>
      </trkpt>
      <trkpt lat="43.52705" lon="5.56888">
        <ele>405</ele>
        <time>2022-02-15T13:13:58.207Z</time>
      </trkpt>
      <trkpt lat="43.52705" lon="5.56887">
        <ele>405</ele>
        <time>2022-02-15T13:13:59.207Z</time>
      </trkpt>
      <trkpt lat="43.52705" lon="5.56886">
        <ele>405</ele>
        <time>2022-02-15T13:14:00.207Z</time>
      </trkpt>
      <trkpt lat="43.52705" lon="5.56884">
        <ele>405</ele>
        <time>2022-02-15T13:14:01.207Z</time>
      </trkpt>
      <trkpt lat="43.52705" lon="5.56882">
        <ele>405</ele>
        <time>2022-02-15T13:14:02.207Z</time>
      </trkpt>
      <trkpt lat="43.52705" lon="5.56881">
        <ele>404</ele>
        <time>2022-02-15T13:14:03.207Z</time>
      </trkpt>
      <trkpt lat="43.52705" lon="5.56879">
        <ele>404</ele>
        <time>2022-02-15T13:14:04.207Z</time>
      </trkpt>
      <trkpt lat="43.52705" lon="5.56877">
        <ele>404</ele>
        <time>2022-02-15T13:14:05.207Z</time>
      </trkpt>
      <trkpt lat="43.52705" lon="5.56876">
        <ele>404</ele>
        <time>2022-02-15T13:14:06.207Z</time>
      </trkpt>
      <trkpt lat="43.52704" lon="5.56874">
        <ele>404</ele>
        <time>2022-02-15T13:14:07.207Z</time>
      </trkpt>
      <trkpt lat="43.52704" lon="5.56873">
        <ele>404</ele>
        <time>2022-02-15T13:14:08.207Z</time>
      </trkpt>
      <trkpt lat="43.52704" lon="5.56872">
        <ele>404</ele>
        <time>2022-02-15T13:14:09.207Z</time>
      </trkpt>
      <trkpt lat="43.52704" lon="5.56871">
        <ele>403</ele>
        <time>2022-02-15T13:14:10.207Z</time>
      </trkpt>
      <trkpt lat="43.52703" lon="5.5687">
        <ele>403</ele>
        <time>2022-02-15T13:14:11.207Z</time>
      </trkpt>
      <trkpt lat="43.52702" lon="5.56869">
        <ele>403</ele>
        <time>2022-02-15T13:14:12.207Z</time>
      </trkpt>
      <trkpt lat="43.52701" lon="5.56868">
        <ele>403</ele>
        <time>2022-02-15T13:14:13.207Z</time>
      </trkpt>
      <trkpt lat="43.527" lon="5.56867">
        <ele>403</ele>
        <time>2022-02-15T13:14:14.207Z</time>
      </trkpt>
      <trkpt lat="43.52699" lon="5.56867">
        <ele>403</ele>
        <time>2022-02-15T13:14:15.207Z</time>
      </trkpt>
      <trkpt lat="43.52698" lon="5.56866">
        <ele>403</ele>
        <time>2022-02-15T13:14:16.207Z</time>
      </trkpt>
      <trkpt lat="43.52698" lon="5.56865">
        <ele>403</ele>
        <time>2022-02-15T13:14:17.207Z</time>
      </trkpt>
      <trkpt lat="43.52697" lon="5.56864">
        <ele>403</ele>
        <time>2022-02-15T13:14:18.207Z</time>
      </trkpt>
      <trkpt lat="43.52696" lon="5.56863">
        <ele>403</ele>
        <time>2022-02-15T13:14:19.207Z</time>
      </trkpt>
      <trkpt lat="43.52695" lon="5.56862">
        <ele>403</ele>
        <time>2022-02-15T13:14:20.207Z</time>
      </trkpt>
      <trkpt lat="43.52694" lon="5.56861">
        <ele>403</ele>
        <time>2022-02-15T13:14:21.207Z</time>
      </trkpt>
      <trkpt lat="43.52693" lon="5.5686">
        <ele>403</ele>
        <time>2022-02-15T13:14:22.207Z</time>
      </trkpt>
      <trkpt lat="43.52693" lon="5.56859">
        <ele>403</ele>
        <time>2022-02-15T13:14:23.207Z</time>
      </trkpt>
      <trkpt lat="43.52692" lon="5.56858">
        <ele>403</ele>
        <time>2022-02-15T13:14:24.207Z</time>
      </trkpt>
      <trkpt lat="43.52691" lon="5.56858">
        <ele>403</ele>
        <time>2022-02-15T13:14:25.207Z</time>
      </trkpt>
      <trkpt lat="43.5269" lon="5.56857">
        <ele>403</ele>
        <time>2022-02-15T13:14:26.207Z</time>
      </trkpt>
      <trkpt lat="43.52689" lon="5.56856">
        <ele>403</ele>
        <time>2022-02-15T13:14:27.207Z</time>
      </trkpt>
      <trkpt lat="43.52688" lon="5.56855">
        <ele>403</ele>
        <time>2022-02-15T13:14:28.207Z</time>
      </trkpt>
      <trkpt lat="43.52687" lon="5.56854">
        <ele>403</ele>
        <time>2022-02-15T13:14:29.207Z</time>
      </trkpt>
      <trkpt lat="43.52686" lon="5.56853">
        <ele>403</ele>
        <time>2022-02-15T13:14:30.207Z</time>
      </trkpt>
      <trkpt lat="43.52684" lon="5.56852">
        <ele>403</ele>
        <time>2022-02-15T13:14:31.207Z</time>
      </trkpt>
      <trkpt lat="43.52683" lon="5.56852">
        <ele>403</ele>
        <time>2022-02-15T13:14:32.207Z</time>
      </trkpt>
      <trkpt lat="43.52682" lon="5.56851">
        <ele>403</ele>
        <time>2022-02-15T13:14:33.207Z</time>
      </trkpt>
      <trkpt lat="43.52681" lon="5.5685">
        <ele>403</ele>
        <time>2022-02-15T13:14:34.207Z</time>
      </trkpt>
      <trkpt lat="43.52679" lon="5.56849">
        <ele>403</ele>
        <time>2022-02-15T13:14:35.207Z</time>
      </trkpt>
      <trkpt lat="43.52678" lon="5.56849">
        <ele>403</ele>
        <time>2022-02-15T13:14:36.207Z</time>
      </trkpt>
      <trkpt lat="43.52677" lon="5.56848">
        <ele>403</ele>
        <time>2022-02-15T13:14:37.207Z</time>
      </trkpt>
      <trkpt lat="43.52676" lon="5.56848">
        <ele>403</ele>
        <time>2022-02-15T13:14:38.207Z</time>
      </trkpt>
      <trkpt lat="43.52675" lon="5.56847">
        <ele>403</ele>
        <time>2022-02-15T13:14:39.207Z</time>
      </trkpt>
      <trkpt lat="43.52674" lon="5.56847">
        <ele>403</ele>
        <time>2022-02-15T13:14:40.207Z</time>
      </trkpt>
      <trkpt lat="43.52673" lon="5.56847">
        <ele>403</ele>
        <time>2022-02-15T13:14:41.207Z</time>
      </trkpt>
      <trkpt lat="43.52671" lon="5.56847">
        <ele>403</ele>
        <time>2022-02-15T13:14:42.207Z</time>
      </trkpt>
      <trkpt lat="43.5267" lon="5.56846">
        <ele>403</ele>
        <time>2022-02-15T13:14:43.207Z</time>
      </trkpt>
      <trkpt lat="43.52669" lon="5.56846">
        <ele>403</ele>
        <time>2022-02-15T13:14:44.207Z</time>
      </trkpt>
      <trkpt lat="43.52668" lon="5.56845">
        <ele>403</ele>
        <time>2022-02-15T13:14:45.207Z</time>
      </trkpt>
      <trkpt lat="43.52667" lon="5.56845">
        <ele>403</ele>
        <time>2022-02-15T13:14:46.207Z</time>
      </trkpt>
      <trkpt lat="43.52666" lon="5.56845">
        <ele>403</ele>
        <time>2022-02-15T13:14:47.207Z</time>
      </trkpt>
      <trkpt lat="43.52665" lon="5.56845">
        <ele>403</ele>
        <time>2022-02-15T13:14:48.207Z</time>
      </trkpt>
      <trkpt lat="43.52663" lon="5.56844">
        <ele>403</ele>
        <time>2022-02-15T13:14:49.207Z</time>
      </trkpt>
      <trkpt lat="43.52662" lon="5.56844">
        <ele>403</ele>
        <time>2022-02-15T13:14:50.207Z</time>
      </trkpt>
      <trkpt lat="43.52661" lon="5.56843">
        <ele>403</ele>
        <time>2022-02-15T13:14:51.207Z</time>
      </trkpt>
      <trkpt lat="43.5266" lon="5.56843">
        <ele>403</ele>
        <time>2022-02-15T13:14:52.207Z</time>
      </trkpt>
      <trkpt lat="43.52659" lon="5.56842">
        <ele>403</ele>
        <time>2022-02-15T13:14:53.207Z</time>
      </trkpt>
      <trkpt lat="43.52658" lon="5.56841">
        <ele>403</ele>
        <time>2022-02-15T13:14:54.207Z</time>
      </trkpt>
      <trkpt lat="43.52657" lon="5.5684">
        <ele>403</ele>
        <time>2022-02-15T13:14:55.207Z</time>
      </trkpt>
      <trkpt lat="43.52657" lon="5.56839">
        <ele>403</ele>
        <time>2022-02-15T13:14:56.207Z</time>
      </trkpt>
      <trkpt lat="43.52656" lon="5.56837">
        <ele>403</ele>
        <time>2022-02-15T13:14:57.207Z</time>
      </trkpt>
      <trkpt lat="43.52655" lon="5.56836">
        <ele>403</ele>
        <time>2022-02-15T13:14:58.207Z</time>
      </trkpt>
      <trkpt lat="43.52655" lon="5.56836">
        <ele>403</ele>
        <time>2022-02-15T13:14:59.207Z</time>
      </trkpt>
      <trkpt lat="43.52654" lon="5.56836">
        <ele>402</ele>
        <time>2022-02-15T13:15:00.207Z</time>
      </trkpt>
      <trkpt lat="43.52653" lon="5.56835">
        <ele>402</ele>
        <time>2022-02-15T13:15:01.207Z</time>
      </trkpt>
      <trkpt lat="43.52652" lon="5.56834">
        <ele>402</ele>
        <time>2022-02-15T13:15:02.207Z</time>
      </trkpt>
      <trkpt lat="43.52651" lon="5.56833">
        <ele>402</ele>
        <time>2022-02-15T13:15:03.207Z</time>
      </trkpt>
      <trkpt lat="43.5265" lon="5.56832">
        <ele>402</ele>
        <time>2022-02-15T13:15:04.207Z</time>
      </trkpt>
      <trkpt lat="43.52649" lon="5.56831">
        <ele>402</ele>
        <time>2022-02-15T13:15:05.207Z</time>
      </trkpt>
      <trkpt lat="43.52649" lon="5.56829">
        <ele>402</ele>
        <time>2022-02-15T13:15:06.207Z</time>
      </trkpt>
      <trkpt lat="43.52649" lon="5.56828">
        <ele>402</ele>
        <time>2022-02-15T13:15:07.207Z</time>
      </trkpt>
      <trkpt lat="43.52648" lon="5.56826">
        <ele>402</ele>
        <time>2022-02-15T13:15:08.207Z</time>
      </trkpt>
      <trkpt lat="43.52648" lon="5.56825">
        <ele>402</ele>
        <time>2022-02-15T13:15:09.207Z</time>
      </trkpt>
      <trkpt lat="43.52649" lon="5.56824">
        <ele>402</ele>
        <time>2022-02-15T13:15:10.207Z</time>
      </trkpt>
      <trkpt lat="43.52649" lon="5.56822">
        <ele>401</ele>
        <time>2022-02-15T13:15:11.207Z</time>
      </trkpt>
      <trkpt lat="43.52649" lon="5.5682">
        <ele>401</ele>
        <time>2022-02-15T13:15:12.207Z</time>
      </trkpt>
      <trkpt lat="43.52649" lon="5.56819">
        <ele>400</ele>
        <time>2022-02-15T13:15:13.207Z</time>
      </trkpt>
      <trkpt lat="43.5265" lon="5.56819">
        <ele>400</ele>
        <time>2022-02-15T13:15:14.207Z</time>
      </trkpt>
      <trkpt lat="43.5265" lon="5.56818">
        <ele>400</ele>
        <time>2022-02-15T13:15:15.207Z</time>
      </trkpt>
      <trkpt lat="43.52651" lon="5.56817">
        <ele>399</ele>
        <time>2022-02-15T13:15:16.207Z</time>
      </trkpt>
      <trkpt lat="43.52652" lon="5.56816">
        <ele>399</ele>
        <time>2022-02-15T13:15:17.207Z</time>
      </trkpt>
      <trkpt lat="43.52652" lon="5.56815">
        <ele>399</ele>
        <time>2022-02-15T13:15:18.207Z</time>
      </trkpt>
      <trkpt lat="43.52653" lon="5.56814">
        <ele>399</ele>
        <time>2022-02-15T13:15:19.207Z</time>
      </trkpt>
      <trkpt lat="43.52653" lon="5.56813">
        <ele>398</ele>
        <time>2022-02-15T13:15:20.207Z</time>
      </trkpt>
      <trkpt lat="43.52654" lon="5.56812">
        <ele>398</ele>
        <time>2022-02-15T13:15:21.207Z</time>
      </trkpt>
      <trkpt lat="43.52655" lon="5.56811">
        <ele>398</ele>
        <time>2022-02-15T13:15:22.207Z</time>
      </trkpt>
      <trkpt lat="43.52655" lon="5.5681">
        <ele>397</ele>
        <time>2022-02-15T13:15:23.207Z</time>
      </trkpt>
      <trkpt lat="43.52656" lon="5.56809">
        <ele>397</ele>
        <time>2022-02-15T13:15:24.207Z</time>
      </trkpt>
      <trkpt lat="43.52657" lon="5.56808">
        <ele>397</ele>
        <time>2022-02-15T13:15:25.207Z</time>
      </trkpt>
      <trkpt lat="43.52658" lon="5.56807">
        <ele>396</ele>
        <time>2022-02-15T13:15:26.207Z</time>
      </trkpt>
      <trkpt lat="43.52658" lon="5.56806">
        <ele>396</ele>
        <time>2022-02-15T13:15:27.207Z</time>
      </trkpt>
      <trkpt lat="43.52659" lon="5.56805">
        <ele>396</ele>
        <time>2022-02-15T13:15:28.207Z</time>
      </trkpt>
      <trkpt lat="43.5266" lon="5.56804">
        <ele>396</ele>
        <time>2022-02-15T13:15:29.207Z</time>
      </trkpt>
      <trkpt lat="43.5266" lon="5.56803">
        <ele>395</ele>
        <time>2022-02-15T13:15:30.207Z</time>
      </trkpt>
      <trkpt lat="43.5266" lon="5.56802">
        <ele>395</ele>
        <time>2022-02-15T13:15:31.207Z</time>
      </trkpt>
      <trkpt lat="43.5266" lon="5.56802">
        <ele>395</ele>
        <time>2022-02-15T13:15:32.207Z</time>
      </trkpt>
      <trkpt lat="43.5266" lon="5.56801">
        <ele>395</ele>
        <time>2022-02-15T13:15:33.207Z</time>
      </trkpt>
      <trkpt lat="43.5266" lon="5.56801">
        <ele>395</ele>
        <time>2022-02-15T13:15:34.207Z</time>
      </trkpt>
      <trkpt lat="43.5266" lon="5.56801">
        <ele>395</ele>
        <time>2022-02-15T13:15:35.207Z</time>
      </trkpt>
      <trkpt lat="43.5266" lon="5.568">
        <ele>395</ele>
        <time>2022-02-15T13:15:36.207Z</time>
      </trkpt>
      <trkpt lat="43.5266" lon="5.56799">
        <ele>394</ele>
        <time>2022-02-15T13:15:37.207Z</time>
      </trkpt>
      <trkpt lat="43.5266" lon="5.56799">
        <ele>394</ele>
        <time>2022-02-15T13:15:38.207Z</time>
      </trkpt>
      <trkpt lat="43.52659" lon="5.56798">
        <ele>394</ele>
        <time>2022-02-15T13:15:39.207Z</time>
      </trkpt>
      <trkpt lat="43.52659" lon="5.56797">
        <ele>394</ele>
        <time>2022-02-15T13:15:40.207Z</time>
      </trkpt>
      <trkpt lat="43.52659" lon="5.56796">
        <ele>394</ele>
        <time>2022-02-15T13:15:41.207Z</time>
      </trkpt>
      <trkpt lat="43.52659" lon="5.56796">
        <ele>394</ele>
        <time>2022-02-15T13:15:42.207Z</time>
      </trkpt>
      <trkpt lat="43.52659" lon="5.56796">
        <ele>394</ele>
        <time>2022-02-15T13:15:43.207Z</time>
      </trkpt>
      <trkpt lat="43.52659" lon="5.56795">
        <ele>394</ele>
        <time>2022-02-15T13:15:44.207Z</time>
      </trkpt>
      <trkpt lat="43.52658" lon="5.56794">
        <ele>394</ele>
        <time>2022-02-15T13:15:45.207Z</time>
      </trkpt>
      <trkpt lat="43.52658" lon="5.56793">
        <ele>394</ele>
        <time>2022-02-15T13:15:46.207Z</time>
      </trkpt>
      <trkpt lat="43.52657" lon="5.56793">
        <ele>394</ele>
        <time>2022-02-15T13:15:47.207Z</time>
      </trkpt>
      <trkpt lat="43.52657" lon="5.56792">
        <ele>393</ele>
        <time>2022-02-15T13:15:48.207Z</time>
      </trkpt>
      <trkpt lat="43.52656" lon="5.5679">
        <ele>393</ele>
        <time>2022-02-15T13:15:49.207Z</time>
      </trkpt>
      <trkpt lat="43.52656" lon="5.56789">
        <ele>393</ele>
        <time>2022-02-15T13:15:50.207Z</time>
      </trkpt>
      <trkpt lat="43.52656" lon="5.56788">
        <ele>393</ele>
        <time>2022-02-15T13:15:51.207Z</time>
      </trkpt>
      <trkpt lat="43.52656" lon="5.56787">
        <ele>393</ele>
        <time>2022-02-15T13:15:52.207Z</time>
      </trkpt>
      <trkpt lat="43.52656" lon="5.56786">
        <ele>393</ele>
        <time>2022-02-15T13:15:53.207Z</time>
      </trkpt>
      <trkpt lat="43.52656" lon="5.56785">
        <ele>393</ele>
        <time>2022-02-15T13:15:54.207Z</time>
      </trkpt>
      <trkpt lat="43.52655" lon="5.56784">
        <ele>393</ele>
        <time>2022-02-15T13:15:55.207Z</time>
      </trkpt>
      <trkpt lat="43.52655" lon="5.56783">
        <ele>393</ele>
        <time>2022-02-15T13:15:56.207Z</time>
      </trkpt>
      <trkpt lat="43.52655" lon="5.56782">
        <ele>393</ele>
        <time>2022-02-15T13:15:57.207Z</time>
      </trkpt>
      <trkpt lat="43.52654" lon="5.56781">
        <ele>393</ele>
        <time>2022-02-15T13:15:58.207Z</time>
      </trkpt>
      <trkpt lat="43.52654" lon="5.56781">
        <ele>393</ele>
        <time>2022-02-15T13:15:59.207Z</time>
      </trkpt>
      <trkpt lat="43.52653" lon="5.56781">
        <ele>393</ele>
        <time>2022-02-15T13:16:00.207Z</time>
      </trkpt>
      <trkpt lat="43.52653" lon="5.56781">
        <ele>393</ele>
        <time>2022-02-15T13:16:01.207Z</time>
      </trkpt>
      <trkpt lat="43.52653" lon="5.56781">
        <ele>393</ele>
        <time>2022-02-15T13:16:02.207Z</time>
      </trkpt>
      <trkpt lat="43.52652" lon="5.5678">
        <ele>392</ele>
        <time>2022-02-15T13:16:03.207Z</time>
      </trkpt>
      <trkpt lat="43.52652" lon="5.5678">
        <ele>392</ele>
        <time>2022-02-15T13:16:04.207Z</time>
      </trkpt>
      <trkpt lat="43.52651" lon="5.56779">
        <ele>392</ele>
        <time>2022-02-15T13:16:05.207Z</time>
      </trkpt>
      <trkpt lat="43.52651" lon="5.56779">
        <ele>392</ele>
        <time>2022-02-15T13:16:06.207Z</time>
      </trkpt>
      <trkpt lat="43.5265" lon="5.56778">
        <ele>392</ele>
        <time>2022-02-15T13:16:07.207Z</time>
      </trkpt>
      <trkpt lat="43.52649" lon="5.56777">
        <ele>392</ele>
        <time>2022-02-15T13:16:08.207Z</time>
      </trkpt>
      <trkpt lat="43.52648" lon="5.56776">
        <ele>392</ele>
        <time>2022-02-15T13:16:09.207Z</time>
      </trkpt>
      <trkpt lat="43.52648" lon="5.56776">
        <ele>392</ele>
        <time>2022-02-15T13:16:10.207Z</time>
      </trkpt>
      <trkpt lat="43.52647" lon="5.56775">
        <ele>392</ele>
        <time>2022-02-15T13:16:11.207Z</time>
      </trkpt>
      <trkpt lat="43.52646" lon="5.56774">
        <ele>392</ele>
        <time>2022-02-15T13:16:12.207Z</time>
      </trkpt>
      <trkpt lat="43.52646" lon="5.56773">
        <ele>392</ele>
        <time>2022-02-15T13:16:13.207Z</time>
      </trkpt>
      <trkpt lat="43.52646" lon="5.56771">
        <ele>392</ele>
        <time>2022-02-15T13:16:14.207Z</time>
      </trkpt>
      <trkpt lat="43.52646" lon="5.5677">
        <ele>392</ele>
        <time>2022-02-15T13:16:15.207Z</time>
      </trkpt>
      <trkpt lat="43.52645" lon="5.56769">
        <ele>391</ele>
        <time>2022-02-15T13:16:16.207Z</time>
      </trkpt>
      <trkpt lat="43.52644" lon="5.56768">
        <ele>391</ele>
        <time>2022-02-15T13:16:17.207Z</time>
      </trkpt>
      <trkpt lat="43.52643" lon="5.56767">
        <ele>391</ele>
        <time>2022-02-15T13:16:18.207Z</time>
      </trkpt>
      <trkpt lat="43.52642" lon="5.56765">
        <ele>391</ele>
        <time>2022-02-15T13:16:19.207Z</time>
      </trkpt>
      <trkpt lat="43.52641" lon="5.56764">
        <ele>391</ele>
        <time>2022-02-15T13:16:20.207Z</time>
      </trkpt>
      <trkpt lat="43.5264" lon="5.56763">
        <ele>391</ele>
        <time>2022-02-15T13:16:21.207Z</time>
      </trkpt>
      <trkpt lat="43.5264" lon="5.56762">
        <ele>391</ele>
        <time>2022-02-15T13:16:22.207Z</time>
      </trkpt>
      <trkpt lat="43.52639" lon="5.56761">
        <ele>391</ele>
        <time>2022-02-15T13:16:23.207Z</time>
      </trkpt>
      <trkpt lat="43.52639" lon="5.56761">
        <ele>391</ele>
        <time>2022-02-15T13:16:24.207Z</time>
      </trkpt>
      <trkpt lat="43.52638" lon="5.5676">
        <ele>391</ele>
        <time>2022-02-15T13:16:25.207Z</time>
      </trkpt>
      <trkpt lat="43.52637" lon="5.5676">
        <ele>391</ele>
        <time>2022-02-15T13:16:26.207Z</time>
      </trkpt>
      <trkpt lat="43.52636" lon="5.56761">
        <ele>391</ele>
        <time>2022-02-15T13:16:27.207Z</time>
      </trkpt>
      <trkpt lat="43.52636" lon="5.56761">
        <ele>391</ele>
        <time>2022-02-15T13:16:28.207Z</time>
      </trkpt>
      <trkpt lat="43.52635" lon="5.56761">
        <ele>391</ele>
        <time>2022-02-15T13:16:29.207Z</time>
      </trkpt>
      <trkpt lat="43.52634" lon="5.5676">
        <ele>391</ele>
        <time>2022-02-15T13:16:30.207Z</time>
      </trkpt>
      <trkpt lat="43.52633" lon="5.5676">
        <ele>391</ele>
        <time>2022-02-15T13:16:31.207Z</time>
      </trkpt>
      <trkpt lat="43.52632" lon="5.5676">
        <ele>391</ele>
        <time>2022-02-15T13:16:32.207Z</time>
      </trkpt>
      <trkpt lat="43.52632" lon="5.56761">
        <ele>391</ele>
        <time>2022-02-15T13:16:33.207Z</time>
      </trkpt>
      <trkpt lat="43.52632" lon="5.56762">
        <ele>391</ele>
        <time>2022-02-15T13:16:34.207Z</time>
      </trkpt>
      <trkpt lat="43.52631" lon="5.56763">
        <ele>391</ele>
        <time>2022-02-15T13:16:35.207Z</time>
      </trkpt>
      <trkpt lat="43.52631" lon="5.56763">
        <ele>390</ele>
        <time>2022-02-15T13:16:36.207Z</time>
      </trkpt>
      <trkpt lat="43.52631" lon="5.56764">
        <ele>390</ele>
        <time>2022-02-15T13:16:37.207Z</time>
      </trkpt>
      <trkpt lat="43.5263" lon="5.56764">
        <ele>390</ele>
        <time>2022-02-15T13:16:38.207Z</time>
      </trkpt>
      <trkpt lat="43.5263" lon="5.56765">
        <ele>390</ele>
        <time>2022-02-15T13:16:39.207Z</time>
      </trkpt>
      <trkpt lat="43.52629" lon="5.56765">
        <ele>389</ele>
        <time>2022-02-15T13:16:40.207Z</time>
      </trkpt>
      <trkpt lat="43.52629" lon="5.56766">
        <ele>389</ele>
        <time>2022-02-15T13:16:41.207Z</time>
      </trkpt>
      <trkpt lat="43.52628" lon="5.56766">
        <ele>389</ele>
        <time>2022-02-15T13:16:42.207Z</time>
      </trkpt>
      <trkpt lat="43.52628" lon="5.56767">
        <ele>388</ele>
        <time>2022-02-15T13:16:43.207Z</time>
      </trkpt>
      <trkpt lat="43.52628" lon="5.56768">
        <ele>388</ele>
        <time>2022-02-15T13:16:44.207Z</time>
      </trkpt>
      <trkpt lat="43.52627" lon="5.56769">
        <ele>387</ele>
        <time>2022-02-15T13:16:45.207Z</time>
      </trkpt>
      <trkpt lat="43.52626" lon="5.56769">
        <ele>387</ele>
        <time>2022-02-15T13:16:46.207Z</time>
      </trkpt>
      <trkpt lat="43.52625" lon="5.56769">
        <ele>387</ele>
        <time>2022-02-15T13:16:47.207Z</time>
      </trkpt>
      <trkpt lat="43.52625" lon="5.5677">
        <ele>386</ele>
        <time>2022-02-15T13:16:48.207Z</time>
      </trkpt>
      <trkpt lat="43.52624" lon="5.56771">
        <ele>386</ele>
        <time>2022-02-15T13:16:49.207Z</time>
      </trkpt>
      <trkpt lat="43.52624" lon="5.56772">
        <ele>386</ele>
        <time>2022-02-15T13:16:50.207Z</time>
      </trkpt>
      <trkpt lat="43.52623" lon="5.56772">
        <ele>386</ele>
        <time>2022-02-15T13:16:51.207Z</time>
      </trkpt>
      <trkpt lat="43.52622" lon="5.56773">
        <ele>385</ele>
        <time>2022-02-15T13:16:52.207Z</time>
      </trkpt>
      <trkpt lat="43.52622" lon="5.56773">
        <ele>385</ele>
        <time>2022-02-15T13:16:53.207Z</time>
      </trkpt>
      <trkpt lat="43.52621" lon="5.56774">
        <ele>385</ele>
        <time>2022-02-15T13:16:54.207Z</time>
      </trkpt>
      <trkpt lat="43.52621" lon="5.56775">
        <ele>384</ele>
        <time>2022-02-15T13:16:55.207Z</time>
      </trkpt>
      <trkpt lat="43.52621" lon="5.56776">
        <ele>384</ele>
        <time>2022-02-15T13:16:56.207Z</time>
      </trkpt>
      <trkpt lat="43.52621" lon="5.56777">
        <ele>384</ele>
        <time>2022-02-15T13:16:57.207Z</time>
      </trkpt>
      <trkpt lat="43.5262" lon="5.56778">
        <ele>384</ele>
        <time>2022-02-15T13:16:58.207Z</time>
      </trkpt>
      <trkpt lat="43.5262" lon="5.56779">
        <ele>383</ele>
        <time>2022-02-15T13:16:59.207Z</time>
      </trkpt>
      <trkpt lat="43.52619" lon="5.56779">
        <ele>383</ele>
        <time>2022-02-15T13:17:00.207Z</time>
      </trkpt>
      <trkpt lat="43.52619" lon="5.5678">
        <ele>383</ele>
        <time>2022-02-15T13:17:01.207Z</time>
      </trkpt>
      <trkpt lat="43.52619" lon="5.5678">
        <ele>383</ele>
        <time>2022-02-15T13:17:02.207Z</time>
      </trkpt>
      <trkpt lat="43.52619" lon="5.5678">
        <ele>382</ele>
        <time>2022-02-15T13:17:03.207Z</time>
      </trkpt>
      <trkpt lat="43.52619" lon="5.5678">
        <ele>382</ele>
        <time>2022-02-15T13:17:04.207Z</time>
      </trkpt>
      <trkpt lat="43.52619" lon="5.56781">
        <ele>382</ele>
        <time>2022-02-15T13:17:05.207Z</time>
      </trkpt>
      <trkpt lat="43.52618" lon="5.56782">
        <ele>382</ele>
        <time>2022-02-15T13:17:06.207Z</time>
      </trkpt>
      <trkpt lat="43.52618" lon="5.56783">
        <ele>382</ele>
        <time>2022-02-15T13:17:07.207Z</time>
      </trkpt>
      <trkpt lat="43.52618" lon="5.56784">
        <ele>382</ele>
        <time>2022-02-15T13:17:08.207Z</time>
      </trkpt>
      <trkpt lat="43.52617" lon="5.56785">
        <ele>381</ele>
        <time>2022-02-15T13:17:09.207Z</time>
      </trkpt>
      <trkpt lat="43.52617" lon="5.56785">
        <ele>381</ele>
        <time>2022-02-15T13:17:10.207Z</time>
      </trkpt>
      <trkpt lat="43.52616" lon="5.56785">
        <ele>381</ele>
        <time>2022-02-15T13:17:11.207Z</time>
      </trkpt>
      <trkpt lat="43.52616" lon="5.56785">
        <ele>381</ele>
        <time>2022-02-15T13:17:12.207Z</time>
      </trkpt>
      <trkpt lat="43.52615" lon="5.56785">
        <ele>381</ele>
        <time>2022-02-15T13:17:13.207Z</time>
      </trkpt>
      <trkpt lat="43.52614" lon="5.56786">
        <ele>381</ele>
        <time>2022-02-15T13:17:14.207Z</time>
      </trkpt>
      <trkpt lat="43.52614" lon="5.56786">
        <ele>380</ele>
        <time>2022-02-15T13:17:15.207Z</time>
      </trkpt>
      <trkpt lat="43.52613" lon="5.56786">
        <ele>380</ele>
        <time>2022-02-15T13:17:16.207Z</time>
      </trkpt>
      <trkpt lat="43.52612" lon="5.56786">
        <ele>380</ele>
        <time>2022-02-15T13:17:17.207Z</time>
      </trkpt>
      <trkpt lat="43.52611" lon="5.56787">
        <ele>380</ele>
        <time>2022-02-15T13:17:18.207Z</time>
      </trkpt>
      <trkpt lat="43.5261" lon="5.56787">
        <ele>380</ele>
        <time>2022-02-15T13:17:19.207Z</time>
      </trkpt>
      <trkpt lat="43.52609" lon="5.56788">
        <ele>380</ele>
        <time>2022-02-15T13:17:20.207Z</time>
      </trkpt>
      <trkpt lat="43.52609" lon="5.56788">
        <ele>379</ele>
        <time>2022-02-15T13:17:21.207Z</time>
      </trkpt>
      <trkpt lat="43.52608" lon="5.56789">
        <ele>379</ele>
        <time>2022-02-15T13:17:22.207Z</time>
      </trkpt>
      <trkpt lat="43.52608" lon="5.56791">
        <ele>379</ele>
        <time>2022-02-15T13:17:23.207Z</time>
      </trkpt>
      <trkpt lat="43.52607" lon="5.56792">
        <ele>379</ele>
        <time>2022-02-15T13:17:24.207Z</time>
      </trkpt>
      <trkpt lat="43.52607" lon="5.56792">
        <ele>378</ele>
        <time>2022-02-15T13:17:25.207Z</time>
      </trkpt>
      <trkpt lat="43.52606" lon="5.56793">
        <ele>378</ele>
        <time>2022-02-15T13:17:26.207Z</time>
      </trkpt>
      <trkpt lat="43.52606" lon="5.56793">
        <ele>378</ele>
        <time>2022-02-15T13:17:27.207Z</time>
      </trkpt>
      <trkpt lat="43.52606" lon="5.56793">
        <ele>377</ele>
        <time>2022-02-15T13:17:28.207Z</time>
      </trkpt>
      <trkpt lat="43.52606" lon="5.56794">
        <ele>377</ele>
        <time>2022-02-15T13:17:29.207Z</time>
      </trkpt>
      <trkpt lat="43.52605" lon="5.56795">
        <ele>377</ele>
        <time>2022-02-15T13:17:30.207Z</time>
      </trkpt>
      <trkpt lat="43.52604" lon="5.56795">
        <ele>376</ele>
        <time>2022-02-15T13:17:31.207Z</time>
      </trkpt>
      <trkpt lat="43.52604" lon="5.56796">
        <ele>376</ele>
        <time>2022-02-15T13:17:32.207Z</time>
      </trkpt>
      <trkpt lat="43.52603" lon="5.56796">
        <ele>376</ele>
        <time>2022-02-15T13:17:33.207Z</time>
      </trkpt>
      <trkpt lat="43.52602" lon="5.56796">
        <ele>375</ele>
        <time>2022-02-15T13:17:34.207Z</time>
      </trkpt>
      <trkpt lat="43.52601" lon="5.56795">
        <ele>375</ele>
        <time>2022-02-15T13:17:35.207Z</time>
      </trkpt>
      <trkpt lat="43.52601" lon="5.56795">
        <ele>375</ele>
        <time>2022-02-15T13:17:36.207Z</time>
      </trkpt>
      <trkpt lat="43.526" lon="5.56794">
        <ele>375</ele>
        <time>2022-02-15T13:17:37.207Z</time>
      </trkpt>
      <trkpt lat="43.52599" lon="5.56793">
        <ele>374</ele>
        <time>2022-02-15T13:17:38.207Z</time>
      </trkpt>
      <trkpt lat="43.52598" lon="5.56792">
        <ele>374</ele>
        <time>2022-02-15T13:17:39.207Z</time>
      </trkpt>
      <trkpt lat="43.52598" lon="5.56791">
        <ele>374</ele>
        <time>2022-02-15T13:17:40.207Z</time>
      </trkpt>
      <trkpt lat="43.52597" lon="5.5679">
        <ele>374</ele>
        <time>2022-02-15T13:17:41.207Z</time>
      </trkpt>
      <trkpt lat="43.52597" lon="5.5679">
        <ele>374</ele>
        <time>2022-02-15T13:17:42.207Z</time>
      </trkpt>
      <trkpt lat="43.52597" lon="5.56789">
        <ele>374</ele>
        <time>2022-02-15T13:17:43.207Z</time>
      </trkpt>
      <trkpt lat="43.52597" lon="5.56788">
        <ele>373</ele>
        <time>2022-02-15T13:17:44.207Z</time>
      </trkpt>
      <trkpt lat="43.52597" lon="5.56787">
        <ele>373</ele>
        <time>2022-02-15T13:17:45.207Z</time>
      </trkpt>
      <trkpt lat="43.52596" lon="5.56785">
        <ele>373</ele>
        <time>2022-02-15T13:17:46.207Z</time>
      </trkpt>
      <trkpt lat="43.52596" lon="5.56784">
        <ele>373</ele>
        <time>2022-02-15T13:17:47.207Z</time>
      </trkpt>
      <trkpt lat="43.52595" lon="5.56783">
        <ele>373</ele>
        <time>2022-02-15T13:17:48.207Z</time>
      </trkpt>
      <trkpt lat="43.52594" lon="5.56781">
        <ele>373</ele>
        <time>2022-02-15T13:17:49.207Z</time>
      </trkpt>
      <trkpt lat="43.52594" lon="5.5678">
        <ele>373</ele>
        <time>2022-02-15T13:17:50.207Z</time>
      </trkpt>
      <trkpt lat="43.52595" lon="5.56778">
        <ele>373</ele>
        <time>2022-02-15T13:17:51.207Z</time>
      </trkpt>
      <trkpt lat="43.52596" lon="5.56777">
        <ele>372</ele>
        <time>2022-02-15T13:17:52.207Z</time>
      </trkpt>
      <trkpt lat="43.52596" lon="5.56776">
        <ele>372</ele>
        <time>2022-02-15T13:17:53.207Z</time>
      </trkpt>
      <trkpt lat="43.52597" lon="5.56775">
        <ele>372</ele>
        <time>2022-02-15T13:17:54.207Z</time>
      </trkpt>
      <trkpt lat="43.52597" lon="5.56774">
        <ele>372</ele>
        <time>2022-02-15T13:17:55.207Z</time>
      </trkpt>
      <trkpt lat="43.52597" lon="5.56773">
        <ele>372</ele>
        <time>2022-02-15T13:17:56.207Z</time>
      </trkpt>
      <trkpt lat="43.52597" lon="5.56772">
        <ele>372</ele>
        <time>2022-02-15T13:17:57.207Z</time>
      </trkpt>
      <trkpt lat="43.52597" lon="5.56771">
        <ele>372</ele>
        <time>2022-02-15T13:17:58.207Z</time>
      </trkpt>
      <trkpt lat="43.52596" lon="5.56769">
        <ele>372</ele>
        <time>2022-02-15T13:17:59.207Z</time>
      </trkpt>
      <trkpt lat="43.52596" lon="5.56768">
        <ele>371</ele>
        <time>2022-02-15T13:18:00.207Z</time>
      </trkpt>
      <trkpt lat="43.52596" lon="5.56766">
        <ele>371</ele>
        <time>2022-02-15T13:18:01.207Z</time>
      </trkpt>
      <trkpt lat="43.52597" lon="5.56765">
        <ele>371</ele>
        <time>2022-02-15T13:18:02.207Z</time>
      </trkpt>
      <trkpt lat="43.52597" lon="5.56763">
        <ele>371</ele>
        <time>2022-02-15T13:18:03.207Z</time>
      </trkpt>
      <trkpt lat="43.52597" lon="5.56762">
        <ele>371</ele>
        <time>2022-02-15T13:18:04.207Z</time>
      </trkpt>
      <trkpt lat="43.52598" lon="5.56761">
        <ele>370</ele>
        <time>2022-02-15T13:18:05.207Z</time>
      </trkpt>
      <trkpt lat="43.52598" lon="5.5676">
        <ele>370</ele>
        <time>2022-02-15T13:18:06.207Z</time>
      </trkpt>
      <trkpt lat="43.52598" lon="5.56759">
        <ele>370</ele>
        <time>2022-02-15T13:18:07.207Z</time>
      </trkpt>
      <trkpt lat="43.52599" lon="5.56758">
        <ele>370</ele>
        <time>2022-02-15T13:18:08.207Z</time>
      </trkpt>
      <trkpt lat="43.52599" lon="5.56756">
        <ele>370</ele>
        <time>2022-02-15T13:18:09.207Z</time>
      </trkpt>
      <trkpt lat="43.52599" lon="5.56755">
        <ele>369</ele>
        <time>2022-02-15T13:18:10.207Z</time>
      </trkpt>
      <trkpt lat="43.52599" lon="5.56754">
        <ele>369</ele>
        <time>2022-02-15T13:18:11.207Z</time>
      </trkpt>
      <trkpt lat="43.52599" lon="5.56753">
        <ele>369</ele>
        <time>2022-02-15T13:18:12.207Z</time>
      </trkpt>
      <trkpt lat="43.52599" lon="5.56751">
        <ele>369</ele>
        <time>2022-02-15T13:18:13.207Z</time>
      </trkpt>
      <trkpt lat="43.526" lon="5.5675">
        <ele>368</ele>
        <time>2022-02-15T13:18:14.207Z</time>
      </trkpt>
      <trkpt lat="43.526" lon="5.56749">
        <ele>368</ele>
        <time>2022-02-15T13:18:15.207Z</time>
      </trkpt>
      <trkpt lat="43.526" lon="5.56748">
        <ele>368</ele>
        <time>2022-02-15T13:18:16.207Z</time>
      </trkpt>
      <trkpt lat="43.526" lon="5.56747">
        <ele>368</ele>
        <time>2022-02-15T13:18:17.207Z</time>
      </trkpt>
      <trkpt lat="43.526" lon="5.56746">
        <ele>367</ele>
        <time>2022-02-15T13:18:18.207Z</time>
      </trkpt>
      <trkpt lat="43.526" lon="5.56745">
        <ele>367</ele>
        <time>2022-02-15T13:18:19.207Z</time>
      </trkpt>
      <trkpt lat="43.526" lon="5.56744">
        <ele>367</ele>
        <time>2022-02-15T13:18:20.207Z</time>
      </trkpt>
      <trkpt lat="43.526" lon="5.56742">
        <ele>367</ele>
        <time>2022-02-15T13:18:21.207Z</time>
      </trkpt>
      <trkpt lat="43.52599" lon="5.56741">
        <ele>367</ele>
        <time>2022-02-15T13:18:22.207Z</time>
      </trkpt>
      <trkpt lat="43.52599" lon="5.5674">
        <ele>367</ele>
        <time>2022-02-15T13:18:23.207Z</time>
      </trkpt>
      <trkpt lat="43.52599" lon="5.56739">
        <ele>366</ele>
        <time>2022-02-15T13:18:24.207Z</time>
      </trkpt>
      <trkpt lat="43.52599" lon="5.56737">
        <ele>366</ele>
        <time>2022-02-15T13:18:25.207Z</time>
      </trkpt>
      <trkpt lat="43.52599" lon="5.56736">
        <ele>366</ele>
        <time>2022-02-15T13:18:26.207Z</time>
      </trkpt>
      <trkpt lat="43.52598" lon="5.56735">
        <ele>366</ele>
        <time>2022-02-15T13:18:27.207Z</time>
      </trkpt>
      <trkpt lat="43.52598" lon="5.56734">
        <ele>366</ele>
        <time>2022-02-15T13:18:28.207Z</time>
      </trkpt>
      <trkpt lat="43.52597" lon="5.56733">
        <ele>366</ele>
        <time>2022-02-15T13:18:29.207Z</time>
      </trkpt>
      <trkpt lat="43.52597" lon="5.56732">
        <ele>366</ele>
        <time>2022-02-15T13:18:30.207Z</time>
      </trkpt>
      <trkpt lat="43.52597" lon="5.56731">
        <ele>366</ele>
        <time>2022-02-15T13:18:31.207Z</time>
      </trkpt>
      <trkpt lat="43.52597" lon="5.5673">
        <ele>366</ele>
        <time>2022-02-15T13:18:32.207Z</time>
      </trkpt>
      <trkpt lat="43.52597" lon="5.56729">
        <ele>366</ele>
        <time>2022-02-15T13:18:33.207Z</time>
      </trkpt>
      <trkpt lat="43.52597" lon="5.56729">
        <ele>366</ele>
        <time>2022-02-15T13:18:34.207Z</time>
      </trkpt>
      <trkpt lat="43.52596" lon="5.56728">
        <ele>366</ele>
        <time>2022-02-15T13:18:35.207Z</time>
      </trkpt>
      <trkpt lat="43.52596" lon="5.56727">
        <ele>365</ele>
        <time>2022-02-15T13:18:36.207Z</time>
      </trkpt>
      <trkpt lat="43.52595" lon="5.56726">
        <ele>365</ele>
        <time>2022-02-15T13:18:37.207Z</time>
      </trkpt>
      <trkpt lat="43.52595" lon="5.56725">
        <ele>365</ele>
        <time>2022-02-15T13:18:38.207Z</time>
      </trkpt>
      <trkpt lat="43.52595" lon="5.56724">
        <ele>365</ele>
        <time>2022-02-15T13:18:39.207Z</time>
      </trkpt>
      <trkpt lat="43.52595" lon="5.56723">
        <ele>365</ele>
        <time>2022-02-15T13:18:40.207Z</time>
      </trkpt>
      <trkpt lat="43.52595" lon="5.56722">
        <ele>365</ele>
        <time>2022-02-15T13:18:41.207Z</time>
      </trkpt>
      <trkpt lat="43.52595" lon="5.56721">
        <ele>365</ele>
        <time>2022-02-15T13:18:42.207Z</time>
      </trkpt>
      <trkpt lat="43.52595" lon="5.56721">
        <ele>365</ele>
        <time>2022-02-15T13:18:43.207Z</time>
      </trkpt>
      <trkpt lat="43.52595" lon="5.5672">
        <ele>365</ele>
        <time>2022-02-15T13:18:44.207Z</time>
      </trkpt>
      <trkpt lat="43.52594" lon="5.56719">
        <ele>364</ele>
        <time>2022-02-15T13:18:45.207Z</time>
      </trkpt>
      <trkpt lat="43.52594" lon="5.56718">
        <ele>364</ele>
        <time>2022-02-15T13:18:46.207Z</time>
      </trkpt>
      <trkpt lat="43.52594" lon="5.56716">
        <ele>364</ele>
        <time>2022-02-15T13:18:47.207Z</time>
      </trkpt>
      <trkpt lat="43.52594" lon="5.56715">
        <ele>364</ele>
        <time>2022-02-15T13:18:48.207Z</time>
      </trkpt>
      <trkpt lat="43.52594" lon="5.56713">
        <ele>364</ele>
        <time>2022-02-15T13:18:49.207Z</time>
      </trkpt>
      <trkpt lat="43.52594" lon="5.56712">
        <ele>364</ele>
        <time>2022-02-15T13:18:50.207Z</time>
      </trkpt>
      <trkpt lat="43.52594" lon="5.56711">
        <ele>364</ele>
        <time>2022-02-15T13:18:51.207Z</time>
      </trkpt>
      <trkpt lat="43.52594" lon="5.5671">
        <ele>364</ele>
        <time>2022-02-15T13:18:52.207Z</time>
      </trkpt>
      <trkpt lat="43.52594" lon="5.56709">
        <ele>364</ele>
        <time>2022-02-15T13:18:53.207Z</time>
      </trkpt>
      <trkpt lat="43.52594" lon="5.56709">
        <ele>364</ele>
        <time>2022-02-15T13:18:54.207Z</time>
      </trkpt>
      <trkpt lat="43.52593" lon="5.56708">
        <ele>364</ele>
        <time>2022-02-15T13:18:55.207Z</time>
      </trkpt>
      <trkpt lat="43.52593" lon="5.56708">
        <ele>364</ele>
        <time>2022-02-15T13:18:56.207Z</time>
      </trkpt>
      <trkpt lat="43.52593" lon="5.56707">
        <ele>364</ele>
        <time>2022-02-15T13:18:57.207Z</time>
      </trkpt>
      <trkpt lat="43.52593" lon="5.56706">
        <ele>364</ele>
        <time>2022-02-15T13:18:58.207Z</time>
      </trkpt>
      <trkpt lat="43.52592" lon="5.56705">
        <ele>364</ele>
        <time>2022-02-15T13:18:59.207Z</time>
      </trkpt>
      <trkpt lat="43.52592" lon="5.56705">
        <ele>364</ele>
        <time>2022-02-15T13:19:00.207Z</time>
      </trkpt>
      <trkpt lat="43.52592" lon="5.56704">
        <ele>364</ele>
        <time>2022-02-15T13:19:01.207Z</time>
      </trkpt>
      <trkpt lat="43.52592" lon="5.56703">
        <ele>364</ele>
        <time>2022-02-15T13:19:02.207Z</time>
      </trkpt>
      <trkpt lat="43.52592" lon="5.56702">
        <ele>364</ele>
        <time>2022-02-15T13:19:03.207Z</time>
      </trkpt>
      <trkpt lat="43.52591" lon="5.56702">
        <ele>364</ele>
        <time>2022-02-15T13:19:04.207Z</time>
      </trkpt>
      <trkpt lat="43.52591" lon="5.56701">
        <ele>364</ele>
        <time>2022-02-15T13:19:05.207Z</time>
      </trkpt>
      <trkpt lat="43.52591" lon="5.567">
        <ele>364</ele>
        <time>2022-02-15T13:19:06.207Z</time>
      </trkpt>
      <trkpt lat="43.5259" lon="5.56699">
        <ele>364</ele>
        <time>2022-02-15T13:19:07.207Z</time>
      </trkpt>
      <trkpt lat="43.5259" lon="5.56699">
        <ele>364</ele>
        <time>2022-02-15T13:19:08.207Z</time>
      </trkpt>
      <trkpt lat="43.5259" lon="5.56698">
        <ele>364</ele>
        <time>2022-02-15T13:19:09.207Z</time>
      </trkpt>
      <trkpt lat="43.5259" lon="5.56698">
        <ele>364</ele>
        <time>2022-02-15T13:19:10.207Z</time>
      </trkpt>
      <trkpt lat="43.5259" lon="5.56698">
        <ele>364</ele>
        <time>2022-02-15T13:19:11.207Z</time>
      </trkpt>
      <trkpt lat="43.52589" lon="5.56697">
        <ele>363</ele>
        <time>2022-02-15T13:19:12.207Z</time>
      </trkpt>
      <trkpt lat="43.52589" lon="5.56696">
        <ele>363</ele>
        <time>2022-02-15T13:19:13.207Z</time>
      </trkpt>
      <trkpt lat="43.52588" lon="5.56696">
        <ele>363</ele>
        <time>2022-02-15T13:19:14.207Z</time>
      </trkpt>
      <trkpt lat="43.52587" lon="5.56695">
        <ele>363</ele>
        <time>2022-02-15T13:19:15.207Z</time>
      </trkpt>
      <trkpt lat="43.52586" lon="5.56695">
        <ele>363</ele>
        <time>2022-02-15T13:19:16.207Z</time>
      </trkpt>
      <trkpt lat="43.52585" lon="5.56694">
        <ele>363</ele>
        <time>2022-02-15T13:19:17.207Z</time>
      </trkpt>
      <trkpt lat="43.52585" lon="5.56693">
        <ele>363</ele>
        <time>2022-02-15T13:19:18.207Z</time>
      </trkpt>
      <trkpt lat="43.52584" lon="5.56693">
        <ele>363</ele>
        <time>2022-02-15T13:19:19.207Z</time>
      </trkpt>
      <trkpt lat="43.52584" lon="5.56692">
        <ele>363</ele>
        <time>2022-02-15T13:19:20.207Z</time>
      </trkpt>
      <trkpt lat="43.52583" lon="5.56692">
        <ele>363</ele>
        <time>2022-02-15T13:19:21.207Z</time>
      </trkpt>
      <trkpt lat="43.52582" lon="5.56691">
        <ele>363</ele>
        <time>2022-02-15T13:19:22.207Z</time>
      </trkpt>
      <trkpt lat="43.52581" lon="5.56691">
        <ele>363</ele>
        <time>2022-02-15T13:19:23.207Z</time>
      </trkpt>
      <trkpt lat="43.52581" lon="5.5669">
        <ele>363</ele>
        <time>2022-02-15T13:19:24.207Z</time>
      </trkpt>
      <trkpt lat="43.5258" lon="5.5669">
        <ele>363</ele>
        <time>2022-02-15T13:19:25.207Z</time>
      </trkpt>
      <trkpt lat="43.52579" lon="5.56689">
        <ele>362</ele>
        <time>2022-02-15T13:19:26.207Z</time>
      </trkpt>
      <trkpt lat="43.52578" lon="5.56689">
        <ele>362</ele>
        <time>2022-02-15T13:19:27.207Z</time>
      </trkpt>
      <trkpt lat="43.52577" lon="5.56689">
        <ele>362</ele>
        <time>2022-02-15T13:19:28.207Z</time>
      </trkpt>
      <trkpt lat="43.52576" lon="5.56688">
        <ele>362</ele>
        <time>2022-02-15T13:19:29.207Z</time>
      </trkpt>
      <trkpt lat="43.52575" lon="5.56688">
        <ele>362</ele>
        <time>2022-02-15T13:19:30.207Z</time>
      </trkpt>
      <trkpt lat="43.52574" lon="5.56688">
        <ele>362</ele>
        <time>2022-02-15T13:19:31.207Z</time>
      </trkpt>
      <trkpt lat="43.52574" lon="5.56688">
        <ele>362</ele>
        <time>2022-02-15T13:19:32.207Z</time>
      </trkpt>
      <trkpt lat="43.52574" lon="5.56687">
        <ele>362</ele>
        <time>2022-02-15T13:19:33.207Z</time>
      </trkpt>
      <trkpt lat="43.52574" lon="5.56687">
        <ele>362</ele>
        <time>2022-02-15T13:19:34.207Z</time>
      </trkpt>
      <trkpt lat="43.52574" lon="5.56687">
        <ele>362</ele>
        <time>2022-02-15T13:19:35.207Z</time>
      </trkpt>
      <trkpt lat="43.52574" lon="5.56687">
        <ele>361</ele>
        <time>2022-02-15T13:19:36.207Z</time>
      </trkpt>
      <trkpt lat="43.52574" lon="5.56687">
        <ele>361</ele>
        <time>2022-02-15T13:19:37.207Z</time>
      </trkpt>
      <trkpt lat="43.52574" lon="5.56687">
        <ele>361</ele>
        <time>2022-02-15T13:19:38.207Z</time>
      </trkpt>
      <trkpt lat="43.52574" lon="5.56687">
        <ele>361</ele>
        <time>2022-02-15T13:19:39.207Z</time>
      </trkpt>
      <trkpt lat="43.52574" lon="5.56687">
        <ele>361</ele>
        <time>2022-02-15T13:19:40.207Z</time>
      </trkpt>
      <trkpt lat="43.52574" lon="5.56687">
        <ele>361</ele>
        <time>2022-02-15T13:19:41.207Z</time>
      </trkpt>
      <trkpt lat="43.52573" lon="5.56687">
        <ele>361</ele>
        <time>2022-02-15T13:19:42.207Z</time>
      </trkpt>
      <trkpt lat="43.52573" lon="5.56687">
        <ele>360</ele>
        <time>2022-02-15T13:19:43.207Z</time>
      </trkpt>
      <trkpt lat="43.52573" lon="5.56687">
        <ele>360</ele>
        <time>2022-02-15T13:19:44.207Z</time>
      </trkpt>
      <trkpt lat="43.52573" lon="5.56687">
        <ele>360</ele>
        <time>2022-02-15T13:19:45.207Z</time>
      </trkpt>
      <trkpt lat="43.52573" lon="5.56687">
        <ele>360</ele>
        <time>2022-02-15T13:19:46.207Z</time>
      </trkpt>
      <trkpt lat="43.52573" lon="5.56687">
        <ele>360</ele>
        <time>2022-02-15T13:19:47.207Z</time>
      </trkpt>
      <trkpt lat="43.52573" lon="5.56687">
        <ele>360</ele>
        <time>2022-02-15T13:19:48.207Z</time>
      </trkpt>
      <trkpt lat="43.52572" lon="5.56687">
        <ele>360</ele>
        <time>2022-02-15T13:19:49.207Z</time>
      </trkpt>
      <trkpt lat="43.52572" lon="5.56686">
        <ele>360</ele>
        <time>2022-02-15T13:19:50.207Z</time>
      </trkpt>
      <trkpt lat="43.52571" lon="5.56686">
        <ele>359</ele>
        <time>2022-02-15T13:19:51.207Z</time>
      </trkpt>
      <trkpt lat="43.5257" lon="5.56686">
        <ele>359</ele>
        <time>2022-02-15T13:19:52.207Z</time>
      </trkpt>
      <trkpt lat="43.52569" lon="5.56686">
        <ele>359</ele>
        <time>2022-02-15T13:19:53.207Z</time>
      </trkpt>
      <trkpt lat="43.52568" lon="5.56686">
        <ele>359</ele>
        <time>2022-02-15T13:19:54.207Z</time>
      </trkpt>
      <trkpt lat="43.52567" lon="5.56686">
        <ele>359</ele>
        <time>2022-02-15T13:19:55.207Z</time>
      </trkpt>
      <trkpt lat="43.52566" lon="5.56686">
        <ele>359</ele>
        <time>2022-02-15T13:19:56.207Z</time>
      </trkpt>
      <trkpt lat="43.52565" lon="5.56686">
        <ele>359</ele>
        <time>2022-02-15T13:19:57.207Z</time>
      </trkpt>
      <trkpt lat="43.52564" lon="5.56686">
        <ele>359</ele>
        <time>2022-02-15T13:19:58.207Z</time>
      </trkpt>
      <trkpt lat="43.52563" lon="5.56687">
        <ele>359</ele>
        <time>2022-02-15T13:19:59.207Z</time>
      </trkpt>
      <trkpt lat="43.52562" lon="5.56687">
        <ele>359</ele>
        <time>2022-02-15T13:20:00.207Z</time>
      </trkpt>
      <trkpt lat="43.52562" lon="5.56688">
        <ele>358</ele>
        <time>2022-02-15T13:20:01.207Z</time>
      </trkpt>
      <trkpt lat="43.52561" lon="5.56688">
        <ele>358</ele>
        <time>2022-02-15T13:20:02.207Z</time>
      </trkpt>
      <trkpt lat="43.5256" lon="5.56688">
        <ele>358</ele>
        <time>2022-02-15T13:20:03.207Z</time>
      </trkpt>
      <trkpt lat="43.52558" lon="5.56689">
        <ele>358</ele>
        <time>2022-02-15T13:20:04.207Z</time>
      </trkpt>
      <trkpt lat="43.52558" lon="5.56689">
        <ele>357</ele>
        <time>2022-02-15T13:20:05.207Z</time>
      </trkpt>
      <trkpt lat="43.52556" lon="5.56689">
        <ele>357</ele>
        <time>2022-02-15T13:20:06.207Z</time>
      </trkpt>
      <trkpt lat="43.52556" lon="5.5669">
        <ele>357</ele>
        <time>2022-02-15T13:20:07.207Z</time>
      </trkpt>
      <trkpt lat="43.52555" lon="5.5669">
        <ele>357</ele>
        <time>2022-02-15T13:20:08.207Z</time>
      </trkpt>
      <trkpt lat="43.52554" lon="5.5669">
        <ele>356</ele>
        <time>2022-02-15T13:20:09.207Z</time>
      </trkpt>
      <trkpt lat="43.52553" lon="5.5669">
        <ele>356</ele>
        <time>2022-02-15T13:20:10.207Z</time>
      </trkpt>
      <trkpt lat="43.52551" lon="5.56691">
        <ele>356</ele>
        <time>2022-02-15T13:20:11.207Z</time>
      </trkpt>
      <trkpt lat="43.5255" lon="5.56691">
        <ele>356</ele>
        <time>2022-02-15T13:20:12.207Z</time>
      </trkpt>
      <trkpt lat="43.52549" lon="5.56691">
        <ele>355</ele>
        <time>2022-02-15T13:20:13.207Z</time>
      </trkpt>
      <trkpt lat="43.52548" lon="5.56692">
        <ele>355</ele>
        <time>2022-02-15T13:20:14.207Z</time>
      </trkpt>
      <trkpt lat="43.52547" lon="5.56692">
        <ele>355</ele>
        <time>2022-02-15T13:20:15.207Z</time>
      </trkpt>
      <trkpt lat="43.52546" lon="5.56693">
        <ele>355</ele>
        <time>2022-02-15T13:20:16.207Z</time>
      </trkpt>
      <trkpt lat="43.52545" lon="5.56693">
        <ele>355</ele>
        <time>2022-02-15T13:20:17.207Z</time>
      </trkpt>
      <trkpt lat="43.52545" lon="5.56694">
        <ele>354</ele>
        <time>2022-02-15T13:20:18.207Z</time>
      </trkpt>
      <trkpt lat="43.52545" lon="5.56695">
        <ele>354</ele>
        <time>2022-02-15T13:20:19.207Z</time>
      </trkpt>
      <trkpt lat="43.52544" lon="5.56696">
        <ele>354</ele>
        <time>2022-02-15T13:20:20.207Z</time>
      </trkpt>
      <trkpt lat="43.52543" lon="5.56696">
        <ele>354</ele>
        <time>2022-02-15T13:20:21.207Z</time>
      </trkpt>
      <trkpt lat="43.52542" lon="5.56697">
        <ele>353</ele>
        <time>2022-02-15T13:20:22.207Z</time>
      </trkpt>
      <trkpt lat="43.52542" lon="5.56697">
        <ele>353</ele>
        <time>2022-02-15T13:20:23.207Z</time>
      </trkpt>
      <trkpt lat="43.52541" lon="5.56697">
        <ele>353</ele>
        <time>2022-02-15T13:20:24.207Z</time>
      </trkpt>
      <trkpt lat="43.52541" lon="5.56698">
        <ele>353</ele>
        <time>2022-02-15T13:20:25.207Z</time>
      </trkpt>
      <trkpt lat="43.5254" lon="5.56699">
        <ele>352</ele>
        <time>2022-02-15T13:20:26.207Z</time>
      </trkpt>
      <trkpt lat="43.52539" lon="5.567">
        <ele>352</ele>
        <time>2022-02-15T13:20:27.207Z</time>
      </trkpt>
      <trkpt lat="43.52538" lon="5.56699">
        <ele>352</ele>
        <time>2022-02-15T13:20:28.207Z</time>
      </trkpt>
      <trkpt lat="43.52537" lon="5.56699">
        <ele>352</ele>
        <time>2022-02-15T13:20:29.207Z</time>
      </trkpt>
      <trkpt lat="43.52536" lon="5.567">
        <ele>352</ele>
        <time>2022-02-15T13:20:30.207Z</time>
      </trkpt>
      <trkpt lat="43.52535" lon="5.567">
        <ele>352</ele>
        <time>2022-02-15T13:20:31.207Z</time>
      </trkpt>
      <trkpt lat="43.52534" lon="5.56701">
        <ele>351</ele>
        <time>2022-02-15T13:20:32.207Z</time>
      </trkpt>
      <trkpt lat="43.52533" lon="5.56701">
        <ele>351</ele>
        <time>2022-02-15T13:20:33.207Z</time>
      </trkpt>
      <trkpt lat="43.52532" lon="5.56702">
        <ele>351</ele>
        <time>2022-02-15T13:20:34.207Z</time>
      </trkpt>
      <trkpt lat="43.52531" lon="5.56702">
        <ele>351</ele>
        <time>2022-02-15T13:20:35.207Z</time>
      </trkpt>
      <trkpt lat="43.5253" lon="5.56703">
        <ele>351</ele>
        <time>2022-02-15T13:20:36.207Z</time>
      </trkpt>
      <trkpt lat="43.52529" lon="5.56703">
        <ele>351</ele>
        <time>2022-02-15T13:20:37.207Z</time>
      </trkpt>
      <trkpt lat="43.52528" lon="5.56704">
        <ele>351</ele>
        <time>2022-02-15T13:20:38.207Z</time>
      </trkpt>
      <trkpt lat="43.52527" lon="5.56704">
        <ele>351</ele>
        <time>2022-02-15T13:20:39.207Z</time>
      </trkpt>
      <trkpt lat="43.52527" lon="5.56705">
        <ele>350</ele>
        <time>2022-02-15T13:20:40.207Z</time>
      </trkpt>
      <trkpt lat="43.52526" lon="5.56706">
        <ele>350</ele>
        <time>2022-02-15T13:20:41.207Z</time>
      </trkpt>
      <trkpt lat="43.52525" lon="5.56706">
        <ele>350</ele>
        <time>2022-02-15T13:20:42.207Z</time>
      </trkpt>
      <trkpt lat="43.52524" lon="5.56707">
        <ele>350</ele>
        <time>2022-02-15T13:20:43.207Z</time>
      </trkpt>
      <trkpt lat="43.52523" lon="5.56708">
        <ele>349</ele>
        <time>2022-02-15T13:20:44.207Z</time>
      </trkpt>
      <trkpt lat="43.52523" lon="5.56709">
        <ele>349</ele>
        <time>2022-02-15T13:20:45.207Z</time>
      </trkpt>
      <trkpt lat="43.52522" lon="5.5671">
        <ele>349</ele>
        <time>2022-02-15T13:20:46.207Z</time>
      </trkpt>
      <trkpt lat="43.52521" lon="5.56711">
        <ele>348</ele>
        <time>2022-02-15T13:20:47.207Z</time>
      </trkpt>
      <trkpt lat="43.5252" lon="5.56711">
        <ele>348</ele>
        <time>2022-02-15T13:20:48.207Z</time>
      </trkpt>
      <trkpt lat="43.52519" lon="5.56712">
        <ele>348</ele>
        <time>2022-02-15T13:20:49.207Z</time>
      </trkpt>
      <trkpt lat="43.52519" lon="5.56712">
        <ele>347</ele>
        <time>2022-02-15T13:20:50.207Z</time>
      </trkpt>
      <trkpt lat="43.52518" lon="5.56713">
        <ele>347</ele>
        <time>2022-02-15T13:20:51.207Z</time>
      </trkpt>
      <trkpt lat="43.52517" lon="5.56713">
        <ele>347</ele>
        <time>2022-02-15T13:20:52.207Z</time>
      </trkpt>
      <trkpt lat="43.52516" lon="5.56713">
        <ele>347</ele>
        <time>2022-02-15T13:20:53.207Z</time>
      </trkpt>
      <trkpt lat="43.52515" lon="5.56713">
        <ele>347</ele>
        <time>2022-02-15T13:20:54.207Z</time>
      </trkpt>
      <trkpt lat="43.52514" lon="5.56713">
        <ele>346</ele>
        <time>2022-02-15T13:20:55.207Z</time>
      </trkpt>
      <trkpt lat="43.52513" lon="5.56714">
        <ele>346</ele>
        <time>2022-02-15T13:20:56.207Z</time>
      </trkpt>
      <trkpt lat="43.52512" lon="5.56715">
        <ele>346</ele>
        <time>2022-02-15T13:20:57.207Z</time>
      </trkpt>
      <trkpt lat="43.52511" lon="5.56715">
        <ele>346</ele>
        <time>2022-02-15T13:20:58.207Z</time>
      </trkpt>
      <trkpt lat="43.5251" lon="5.56716">
        <ele>345</ele>
        <time>2022-02-15T13:20:59.207Z</time>
      </trkpt>
      <trkpt lat="43.52509" lon="5.56716">
        <ele>345</ele>
        <time>2022-02-15T13:21:00.207Z</time>
      </trkpt>
      <trkpt lat="43.52509" lon="5.56717">
        <ele>345</ele>
        <time>2022-02-15T13:21:01.207Z</time>
      </trkpt>
      <trkpt lat="43.52508" lon="5.56718">
        <ele>345</ele>
        <time>2022-02-15T13:21:02.207Z</time>
      </trkpt>
      <trkpt lat="43.52507" lon="5.56719">
        <ele>344</ele>
        <time>2022-02-15T13:21:03.207Z</time>
      </trkpt>
      <trkpt lat="43.52506" lon="5.5672">
        <ele>344</ele>
        <time>2022-02-15T13:21:04.207Z</time>
      </trkpt>
      <trkpt lat="43.52506" lon="5.56721">
        <ele>344</ele>
        <time>2022-02-15T13:21:05.207Z</time>
      </trkpt>
      <trkpt lat="43.52505" lon="5.56722">
        <ele>344</ele>
        <time>2022-02-15T13:21:06.207Z</time>
      </trkpt>
      <trkpt lat="43.52505" lon="5.56723">
        <ele>344</ele>
        <time>2022-02-15T13:21:07.207Z</time>
      </trkpt>
      <trkpt lat="43.52504" lon="5.56725">
        <ele>344</ele>
        <time>2022-02-15T13:21:08.207Z</time>
      </trkpt>
      <trkpt lat="43.52503" lon="5.56726">
        <ele>344</ele>
        <time>2022-02-15T13:21:09.207Z</time>
      </trkpt>
      <trkpt lat="43.52503" lon="5.56727">
        <ele>343</ele>
        <time>2022-02-15T13:21:10.207Z</time>
      </trkpt>
      <trkpt lat="43.52502" lon="5.56727">
        <ele>343</ele>
        <time>2022-02-15T13:21:11.207Z</time>
      </trkpt>
      <trkpt lat="43.52501" lon="5.56728">
        <ele>343</ele>
        <time>2022-02-15T13:21:12.207Z</time>
      </trkpt>
      <trkpt lat="43.52501" lon="5.5673">
        <ele>343</ele>
        <time>2022-02-15T13:21:13.207Z</time>
      </trkpt>
      <trkpt lat="43.52501" lon="5.56731">
        <ele>343</ele>
        <time>2022-02-15T13:21:14.207Z</time>
      </trkpt>
      <trkpt lat="43.525" lon="5.56732">
        <ele>343</ele>
        <time>2022-02-15T13:21:15.207Z</time>
      </trkpt>
      <trkpt lat="43.52501" lon="5.56733">
        <ele>342</ele>
        <time>2022-02-15T13:21:16.207Z</time>
      </trkpt>
      <trkpt lat="43.525" lon="5.56735">
        <ele>342</ele>
        <time>2022-02-15T13:21:17.207Z</time>
      </trkpt>
      <trkpt lat="43.525" lon="5.56736">
        <ele>342</ele>
        <time>2022-02-15T13:21:18.207Z</time>
      </trkpt>
      <trkpt lat="43.525" lon="5.56737">
        <ele>342</ele>
        <time>2022-02-15T13:21:19.207Z</time>
      </trkpt>
      <trkpt lat="43.52499" lon="5.56738">
        <ele>341</ele>
        <time>2022-02-15T13:21:20.207Z</time>
      </trkpt>
      <trkpt lat="43.52499" lon="5.5674">
        <ele>341</ele>
        <time>2022-02-15T13:21:21.207Z</time>
      </trkpt>
      <trkpt lat="43.52499" lon="5.56741">
        <ele>341</ele>
        <time>2022-02-15T13:21:22.207Z</time>
      </trkpt>
      <trkpt lat="43.52498" lon="5.56741">
        <ele>341</ele>
        <time>2022-02-15T13:21:23.207Z</time>
      </trkpt>
      <trkpt lat="43.52498" lon="5.56742">
        <ele>341</ele>
        <time>2022-02-15T13:21:24.207Z</time>
      </trkpt>
      <trkpt lat="43.52498" lon="5.56743">
        <ele>341</ele>
        <time>2022-02-15T13:21:25.207Z</time>
      </trkpt>
      <trkpt lat="43.52498" lon="5.56743">
        <ele>341</ele>
        <time>2022-02-15T13:21:26.207Z</time>
      </trkpt>
      <trkpt lat="43.52498" lon="5.56743">
        <ele>340</ele>
        <time>2022-02-15T13:21:27.207Z</time>
      </trkpt>
      <trkpt lat="43.52498" lon="5.56743">
        <ele>340</ele>
        <time>2022-02-15T13:21:28.207Z</time>
      </trkpt>
      <trkpt lat="43.52498" lon="5.56743">
        <ele>340</ele>
        <time>2022-02-15T13:21:29.207Z</time>
      </trkpt>
      <trkpt lat="43.52498" lon="5.56743">
        <ele>340</ele>
        <time>2022-02-15T13:21:30.207Z</time>
      </trkpt>
      <trkpt lat="43.52498" lon="5.56743">
        <ele>340</ele>
        <time>2022-02-15T13:21:31.207Z</time>
      </trkpt>
      <trkpt lat="43.52498" lon="5.56743">
        <ele>340</ele>
        <time>2022-02-15T13:21:32.207Z</time>
      </trkpt>
      <trkpt lat="43.52498" lon="5.56743">
        <ele>340</ele>
        <time>2022-02-15T13:21:33.207Z</time>
      </trkpt>
      <trkpt lat="43.52498" lon="5.56743">
        <ele>340</ele>
        <time>2022-02-15T13:21:34.207Z</time>
      </trkpt>
      <trkpt lat="43.52498" lon="5.56744">
        <ele>340</ele>
        <time>2022-02-15T13:21:35.207Z</time>
      </trkpt>
      <trkpt lat="43.52498" lon="5.56745">
        <ele>340</ele>
        <time>2022-02-15T13:21:36.207Z</time>
      </trkpt>
      <trkpt lat="43.52498" lon="5.56746">
        <ele>340</ele>
        <time>2022-02-15T13:21:37.207Z</time>
      </trkpt>
      <trkpt lat="43.52497" lon="5.56748">
        <ele>339</ele>
        <time>2022-02-15T13:21:38.207Z</time>
      </trkpt>
      <trkpt lat="43.52497" lon="5.56749">
        <ele>339</ele>
        <time>2022-02-15T13:21:39.207Z</time>
      </trkpt>
      <trkpt lat="43.52497" lon="5.5675">
        <ele>339</ele>
        <time>2022-02-15T13:21:40.207Z</time>
      </trkpt>
      <trkpt lat="43.52496" lon="5.56751">
        <ele>339</ele>
        <time>2022-02-15T13:21:41.207Z</time>
      </trkpt>
      <trkpt lat="43.52495" lon="5.56752">
        <ele>339</ele>
        <time>2022-02-15T13:21:42.207Z</time>
      </trkpt>
      <trkpt lat="43.52495" lon="5.56754">
        <ele>339</ele>
        <time>2022-02-15T13:21:43.207Z</time>
      </trkpt>
      <trkpt lat="43.52494" lon="5.56755">
        <ele>339</ele>
        <time>2022-02-15T13:21:44.207Z</time>
      </trkpt>
      <trkpt lat="43.52494" lon="5.56756">
        <ele>339</ele>
        <time>2022-02-15T13:21:45.207Z</time>
      </trkpt>
      <trkpt lat="43.52494" lon="5.56757">
        <ele>339</ele>
        <time>2022-02-15T13:21:46.207Z</time>
      </trkpt>
      <trkpt lat="43.52493" lon="5.56759">
        <ele>339</ele>
        <time>2022-02-15T13:21:47.207Z</time>
      </trkpt>
      <trkpt lat="43.52493" lon="5.5676">
        <ele>338</ele>
        <time>2022-02-15T13:21:48.207Z</time>
      </trkpt>
      <trkpt lat="43.52493" lon="5.56761">
        <ele>338</ele>
        <time>2022-02-15T13:21:49.207Z</time>
      </trkpt>
      <trkpt lat="43.52492" lon="5.56762">
        <ele>338</ele>
        <time>2022-02-15T13:21:50.207Z</time>
      </trkpt>
      <trkpt lat="43.52491" lon="5.56764">
        <ele>338</ele>
        <time>2022-02-15T13:21:51.207Z</time>
      </trkpt>
      <trkpt lat="43.52491" lon="5.56765">
        <ele>338</ele>
        <time>2022-02-15T13:21:52.207Z</time>
      </trkpt>
      <trkpt lat="43.5249" lon="5.56766">
        <ele>338</ele>
        <time>2022-02-15T13:21:53.207Z</time>
      </trkpt>
      <trkpt lat="43.52489" lon="5.56766">
        <ele>337</ele>
        <time>2022-02-15T13:21:54.207Z</time>
      </trkpt>
      <trkpt lat="43.52489" lon="5.56768">
        <ele>337</ele>
        <time>2022-02-15T13:21:55.207Z</time>
      </trkpt>
      <trkpt lat="43.52488" lon="5.56769">
        <ele>337</ele>
        <time>2022-02-15T13:21:56.207Z</time>
      </trkpt>
      <trkpt lat="43.52487" lon="5.5677">
        <ele>337</ele>
        <time>2022-02-15T13:21:57.207Z</time>
      </trkpt>
      <trkpt lat="43.52487" lon="5.56771">
        <ele>337</ele>
        <time>2022-02-15T13:21:58.207Z</time>
      </trkpt>
      <trkpt lat="43.52486" lon="5.56772">
        <ele>337</ele>
        <time>2022-02-15T13:21:59.207Z</time>
      </trkpt>
      <trkpt lat="43.52485" lon="5.56773">
        <ele>337</ele>
        <time>2022-02-15T13:22:00.207Z</time>
      </trkpt>
      <trkpt lat="43.52484" lon="5.56774">
        <ele>336</ele>
        <time>2022-02-15T13:22:01.207Z</time>
      </trkpt>
      <trkpt lat="43.52483" lon="5.56775">
        <ele>336</ele>
        <time>2022-02-15T13:22:02.207Z</time>
      </trkpt>
      <trkpt lat="43.52482" lon="5.56775">
        <ele>336</ele>
        <time>2022-02-15T13:22:03.207Z</time>
      </trkpt>
      <trkpt lat="43.52481" lon="5.56776">
        <ele>336</ele>
        <time>2022-02-15T13:22:04.207Z</time>
      </trkpt>
      <trkpt lat="43.5248" lon="5.56776">
        <ele>336</ele>
        <time>2022-02-15T13:22:05.207Z</time>
      </trkpt>
      <trkpt lat="43.52479" lon="5.56777">
        <ele>336</ele>
        <time>2022-02-15T13:22:06.207Z</time>
      </trkpt>
      <trkpt lat="43.52478" lon="5.56777">
        <ele>336</ele>
        <time>2022-02-15T13:22:07.207Z</time>
      </trkpt>
      <trkpt lat="43.52477" lon="5.56777">
        <ele>335</ele>
        <time>2022-02-15T13:22:08.207Z</time>
      </trkpt>
      <trkpt lat="43.52476" lon="5.56778">
        <ele>335</ele>
        <time>2022-02-15T13:22:09.207Z</time>
      </trkpt>
      <trkpt lat="43.52474" lon="5.56778">
        <ele>335</ele>
        <time>2022-02-15T13:22:10.207Z</time>
      </trkpt>
      <trkpt lat="43.52473" lon="5.56779">
        <ele>335</ele>
        <time>2022-02-15T13:22:11.207Z</time>
      </trkpt>
      <trkpt lat="43.52472" lon="5.56779">
        <ele>335</ele>
        <time>2022-02-15T13:22:12.207Z</time>
      </trkpt>
      <trkpt lat="43.52471" lon="5.56779">
        <ele>335</ele>
        <time>2022-02-15T13:22:13.207Z</time>
      </trkpt>
      <trkpt lat="43.5247" lon="5.56779">
        <ele>335</ele>
        <time>2022-02-15T13:22:14.207Z</time>
      </trkpt>
      <trkpt lat="43.52469" lon="5.5678">
        <ele>335</ele>
        <time>2022-02-15T13:22:15.207Z</time>
      </trkpt>
      <trkpt lat="43.52468" lon="5.5678">
        <ele>334</ele>
        <time>2022-02-15T13:22:16.207Z</time>
      </trkpt>
      <trkpt lat="43.52467" lon="5.5678">
        <ele>334</ele>
        <time>2022-02-15T13:22:17.207Z</time>
      </trkpt>
      <trkpt lat="43.52466" lon="5.5678">
        <ele>334</ele>
        <time>2022-02-15T13:22:18.207Z</time>
      </trkpt>
      <trkpt lat="43.52465" lon="5.5678">
        <ele>334</ele>
        <time>2022-02-15T13:22:19.207Z</time>
      </trkpt>
      <trkpt lat="43.52464" lon="5.5678">
        <ele>334</ele>
        <time>2022-02-15T13:22:20.207Z</time>
      </trkpt>
      <trkpt lat="43.52462" lon="5.56781">
        <ele>333</ele>
        <time>2022-02-15T13:22:21.207Z</time>
      </trkpt>
      <trkpt lat="43.52461" lon="5.56781">
        <ele>333</ele>
        <time>2022-02-15T13:22:22.207Z</time>
      </trkpt>
      <trkpt lat="43.5246" lon="5.56781">
        <ele>333</ele>
        <time>2022-02-15T13:22:23.207Z</time>
      </trkpt>
      <trkpt lat="43.52459" lon="5.56781">
        <ele>333</ele>
        <time>2022-02-15T13:22:24.207Z</time>
      </trkpt>
      <trkpt lat="43.52458" lon="5.56782">
        <ele>333</ele>
        <time>2022-02-15T13:22:25.207Z</time>
      </trkpt>
      <trkpt lat="43.52457" lon="5.56782">
        <ele>333</ele>
        <time>2022-02-15T13:22:26.207Z</time>
      </trkpt>
      <trkpt lat="43.52456" lon="5.56782">
        <ele>333</ele>
        <time>2022-02-15T13:22:27.207Z</time>
      </trkpt>
      <trkpt lat="43.52455" lon="5.56782">
        <ele>333</ele>
        <time>2022-02-15T13:22:28.207Z</time>
      </trkpt>
      <trkpt lat="43.52454" lon="5.56782">
        <ele>333</ele>
        <time>2022-02-15T13:22:29.207Z</time>
      </trkpt>
      <trkpt lat="43.52453" lon="5.56782">
        <ele>333</ele>
        <time>2022-02-15T13:22:30.207Z</time>
      </trkpt>
      <trkpt lat="43.52451" lon="5.56782">
        <ele>333</ele>
        <time>2022-02-15T13:22:31.207Z</time>
      </trkpt>
      <trkpt lat="43.5245" lon="5.56781">
        <ele>333</ele>
        <time>2022-02-15T13:22:32.207Z</time>
      </trkpt>
      <trkpt lat="43.52449" lon="5.56781">
        <ele>333</ele>
        <time>2022-02-15T13:22:33.207Z</time>
      </trkpt>
      <trkpt lat="43.52448" lon="5.56781">
        <ele>333</ele>
        <time>2022-02-15T13:22:34.207Z</time>
      </trkpt>
      <trkpt lat="43.52447" lon="5.56781">
        <ele>333</ele>
        <time>2022-02-15T13:22:35.207Z</time>
      </trkpt>
      <trkpt lat="43.52446" lon="5.56781">
        <ele>333</ele>
        <time>2022-02-15T13:22:36.207Z</time>
      </trkpt>
      <trkpt lat="43.52445" lon="5.56781">
        <ele>333</ele>
        <time>2022-02-15T13:22:37.207Z</time>
      </trkpt>
      <trkpt lat="43.52444" lon="5.56781">
        <ele>333</ele>
        <time>2022-02-15T13:22:38.207Z</time>
      </trkpt>
      <trkpt lat="43.52443" lon="5.56781">
        <ele>333</ele>
        <time>2022-02-15T13:22:39.207Z</time>
      </trkpt>
      <trkpt lat="43.52443" lon="5.56781">
        <ele>333</ele>
        <time>2022-02-15T13:22:40.207Z</time>
      </trkpt>
      <trkpt lat="43.52442" lon="5.56781">
        <ele>333</ele>
        <time>2022-02-15T13:22:41.207Z</time>
      </trkpt>
      <trkpt lat="43.5244" lon="5.56781">
        <ele>333</ele>
        <time>2022-02-15T13:22:42.207Z</time>
      </trkpt>
      <trkpt lat="43.52439" lon="5.56781">
        <ele>333</ele>
        <time>2022-02-15T13:22:43.207Z</time>
      </trkpt>
      <trkpt lat="43.52438" lon="5.5678">
        <ele>333</ele>
        <time>2022-02-15T13:22:44.207Z</time>
      </trkpt>
      <trkpt lat="43.52437" lon="5.5678">
        <ele>333</ele>
        <time>2022-02-15T13:22:45.207Z</time>
      </trkpt>
      <trkpt lat="43.52436" lon="5.5678">
        <ele>333</ele>
        <time>2022-02-15T13:22:46.207Z</time>
      </trkpt>
      <trkpt lat="43.52435" lon="5.5678">
        <ele>333</ele>
        <time>2022-02-15T13:22:47.207Z</time>
      </trkpt>
      <trkpt lat="43.52434" lon="5.56779">
        <ele>333</ele>
        <time>2022-02-15T13:22:48.207Z</time>
      </trkpt>
      <trkpt lat="43.52433" lon="5.56779">
        <ele>333</ele>
        <time>2022-02-15T13:22:49.207Z</time>
      </trkpt>
      <trkpt lat="43.52432" lon="5.56778">
        <ele>333</ele>
        <time>2022-02-15T13:22:50.207Z</time>
      </trkpt>
      <trkpt lat="43.52431" lon="5.56778">
        <ele>333</ele>
        <time>2022-02-15T13:22:51.207Z</time>
      </trkpt>
      <trkpt lat="43.5243" lon="5.56777">
        <ele>333</ele>
        <time>2022-02-15T13:22:52.207Z</time>
      </trkpt>
      <trkpt lat="43.52429" lon="5.56776">
        <ele>333</ele>
        <time>2022-02-15T13:22:53.207Z</time>
      </trkpt>
      <trkpt lat="43.52429" lon="5.56776">
        <ele>333</ele>
        <time>2022-02-15T13:22:54.207Z</time>
      </trkpt>
      <trkpt lat="43.52428" lon="5.56775">
        <ele>332</ele>
        <time>2022-02-15T13:22:55.207Z</time>
      </trkpt>
      <trkpt lat="43.52427" lon="5.56775">
        <ele>332</ele>
        <time>2022-02-15T13:22:56.207Z</time>
      </trkpt>
      <trkpt lat="43.52427" lon="5.56774">
        <ele>332</ele>
        <time>2022-02-15T13:22:57.207Z</time>
      </trkpt>
      <trkpt lat="43.52426" lon="5.56774">
        <ele>332</ele>
        <time>2022-02-15T13:22:58.207Z</time>
      </trkpt>
      <trkpt lat="43.52425" lon="5.56773">
        <ele>331</ele>
        <time>2022-02-15T13:22:59.207Z</time>
      </trkpt>
      <trkpt lat="43.52424" lon="5.56772">
        <ele>331</ele>
        <time>2022-02-15T13:23:00.207Z</time>
      </trkpt>
      <trkpt lat="43.52424" lon="5.56771">
        <ele>331</ele>
        <time>2022-02-15T13:23:01.207Z</time>
      </trkpt>
      <trkpt lat="43.52423" lon="5.56771">
        <ele>331</ele>
        <time>2022-02-15T13:23:02.207Z</time>
      </trkpt>
      <trkpt lat="43.52423" lon="5.56771">
        <ele>331</ele>
        <time>2022-02-15T13:23:03.207Z</time>
      </trkpt>
      <trkpt lat="43.52423" lon="5.56771">
        <ele>331</ele>
        <time>2022-02-15T13:23:04.207Z</time>
      </trkpt>
      <trkpt lat="43.52423" lon="5.56771">
        <ele>331</ele>
        <time>2022-02-15T13:23:05.207Z</time>
      </trkpt>
      <trkpt lat="43.52423" lon="5.56771">
        <ele>331</ele>
        <time>2022-02-15T13:23:06.207Z</time>
      </trkpt>
      <trkpt lat="43.52424" lon="5.56771">
        <ele>331</ele>
        <time>2022-02-15T13:23:07.207Z</time>
      </trkpt>
      <trkpt lat="43.52424" lon="5.56771">
        <ele>331</ele>
        <time>2022-02-15T13:23:08.207Z</time>
      </trkpt>
      <trkpt lat="43.52424" lon="5.56771">
        <ele>331</ele>
        <time>2022-02-15T13:23:09.207Z</time>
      </trkpt>
      <trkpt lat="43.52424" lon="5.56771">
        <ele>331</ele>
        <time>2022-02-15T13:23:10.207Z</time>
      </trkpt>
      <trkpt lat="43.52424" lon="5.56771">
        <ele>331</ele>
        <time>2022-02-15T13:23:11.207Z</time>
      </trkpt>
      <trkpt lat="43.52424" lon="5.56771">
        <ele>331</ele>
        <time>2022-02-15T13:23:12.207Z</time>
      </trkpt>
      <trkpt lat="43.52424" lon="5.56771">
        <ele>331</ele>
        <time>2022-02-15T13:23:13.207Z</time>
      </trkpt>
      <trkpt lat="43.52424" lon="5.56771">
        <ele>331</ele>
        <time>2022-02-15T13:23:14.207Z</time>
      </trkpt>
      <trkpt lat="43.52424" lon="5.56771">
        <ele>331</ele>
        <time>2022-02-15T13:23:15.207Z</time>
      </trkpt>
      <trkpt lat="43.52423" lon="5.56771">
        <ele>331</ele>
        <time>2022-02-15T13:23:16.207Z</time>
      </trkpt>
      <trkpt lat="43.52422" lon="5.5677">
        <ele>331</ele>
        <time>2022-02-15T13:23:17.207Z</time>
      </trkpt>
      <trkpt lat="43.52422" lon="5.56769">
        <ele>331</ele>
        <time>2022-02-15T13:23:18.207Z</time>
      </trkpt>
      <trkpt lat="43.52421" lon="5.56768">
        <ele>331</ele>
        <time>2022-02-15T13:23:19.207Z</time>
      </trkpt>
      <trkpt lat="43.5242" lon="5.56766">
        <ele>331</ele>
        <time>2022-02-15T13:23:20.207Z</time>
      </trkpt>
      <trkpt lat="43.5242" lon="5.56765">
        <ele>331</ele>
        <time>2022-02-15T13:23:21.207Z</time>
      </trkpt>
      <trkpt lat="43.52419" lon="5.56764">
        <ele>331</ele>
        <time>2022-02-15T13:23:22.207Z</time>
      </trkpt>
      <trkpt lat="43.52418" lon="5.56763">
        <ele>331</ele>
        <time>2022-02-15T13:23:23.207Z</time>
      </trkpt>
      <trkpt lat="43.52417" lon="5.56761">
        <ele>330</ele>
        <time>2022-02-15T13:23:24.207Z</time>
      </trkpt>
      <trkpt lat="43.52417" lon="5.5676">
        <ele>330</ele>
        <time>2022-02-15T13:23:25.207Z</time>
      </trkpt>
      <trkpt lat="43.52416" lon="5.56758">
        <ele>330</ele>
        <time>2022-02-15T13:23:26.207Z</time>
      </trkpt>
      <trkpt lat="43.52416" lon="5.56757">
        <ele>330</ele>
        <time>2022-02-15T13:23:27.207Z</time>
      </trkpt>
      <trkpt lat="43.52415" lon="5.56755">
        <ele>330</ele>
        <time>2022-02-15T13:23:28.207Z</time>
      </trkpt>
      <trkpt lat="43.52415" lon="5.56754">
        <ele>330</ele>
        <time>2022-02-15T13:23:29.207Z</time>
      </trkpt>
      <trkpt lat="43.52415" lon="5.56752">
        <ele>330</ele>
        <time>2022-02-15T13:23:30.207Z</time>
      </trkpt>
      <trkpt lat="43.52414" lon="5.56751">
        <ele>330</ele>
        <time>2022-02-15T13:23:31.207Z</time>
      </trkpt>
      <trkpt lat="43.52413" lon="5.5675">
        <ele>330</ele>
        <time>2022-02-15T13:23:32.207Z</time>
      </trkpt>
      <trkpt lat="43.52413" lon="5.56749">
        <ele>330</ele>
        <time>2022-02-15T13:23:33.207Z</time>
      </trkpt>
      <trkpt lat="43.52412" lon="5.56748">
        <ele>330</ele>
        <time>2022-02-15T13:23:34.207Z</time>
      </trkpt>
      <trkpt lat="43.52411" lon="5.56747">
        <ele>330</ele>
        <time>2022-02-15T13:23:35.207Z</time>
      </trkpt>
      <trkpt lat="43.52411" lon="5.56745">
        <ele>330</ele>
        <time>2022-02-15T13:23:36.207Z</time>
      </trkpt>
      <trkpt lat="43.5241" lon="5.56744">
        <ele>330</ele>
        <time>2022-02-15T13:23:37.207Z</time>
      </trkpt>
      <trkpt lat="43.52409" lon="5.56743">
        <ele>330</ele>
        <time>2022-02-15T13:23:38.207Z</time>
      </trkpt>
      <trkpt lat="43.52408" lon="5.56742">
        <ele>330</ele>
        <time>2022-02-15T13:23:39.207Z</time>
      </trkpt>
      <trkpt lat="43.52407" lon="5.56741">
        <ele>330</ele>
        <time>2022-02-15T13:23:40.207Z</time>
      </trkpt>
      <trkpt lat="43.52407" lon="5.5674">
        <ele>330</ele>
        <time>2022-02-15T13:23:41.207Z</time>
      </trkpt>
      <trkpt lat="43.52406" lon="5.56738">
        <ele>330</ele>
        <time>2022-02-15T13:23:42.207Z</time>
      </trkpt>
      <trkpt lat="43.52405" lon="5.56737">
        <ele>330</ele>
        <time>2022-02-15T13:23:43.207Z</time>
      </trkpt>
      <trkpt lat="43.52405" lon="5.56736">
        <ele>330</ele>
        <time>2022-02-15T13:23:44.207Z</time>
      </trkpt>
      <trkpt lat="43.52404" lon="5.56735">
        <ele>330</ele>
        <time>2022-02-15T13:23:45.207Z</time>
      </trkpt>
      <trkpt lat="43.52404" lon="5.56733">
        <ele>330</ele>
        <time>2022-02-15T13:23:46.207Z</time>
      </trkpt>
      <trkpt lat="43.52403" lon="5.56732">
        <ele>330</ele>
        <time>2022-02-15T13:23:47.207Z</time>
      </trkpt>
      <trkpt lat="43.52403" lon="5.56731">
        <ele>330</ele>
        <time>2022-02-15T13:23:48.207Z</time>
      </trkpt>
      <trkpt lat="43.52402" lon="5.56729">
        <ele>330</ele>
        <time>2022-02-15T13:23:49.207Z</time>
      </trkpt>
      <trkpt lat="43.52401" lon="5.56728">
        <ele>330</ele>
        <time>2022-02-15T13:23:50.207Z</time>
      </trkpt>
      <trkpt lat="43.52401" lon="5.56727">
        <ele>330</ele>
        <time>2022-02-15T13:23:51.207Z</time>
      </trkpt>
      <trkpt lat="43.524" lon="5.56726">
        <ele>330</ele>
        <time>2022-02-15T13:23:52.207Z</time>
      </trkpt>
      <trkpt lat="43.52399" lon="5.56725">
        <ele>330</ele>
        <time>2022-02-15T13:23:53.207Z</time>
      </trkpt>
      <trkpt lat="43.52399" lon="5.56724">
        <ele>330</ele>
        <time>2022-02-15T13:23:54.207Z</time>
      </trkpt>
      <trkpt lat="43.52398" lon="5.56723">
        <ele>330</ele>
        <time>2022-02-15T13:23:55.207Z</time>
      </trkpt>
      <trkpt lat="43.52398" lon="5.56722">
        <ele>330</ele>
        <time>2022-02-15T13:23:56.207Z</time>
      </trkpt>
      <trkpt lat="43.52397" lon="5.5672">
        <ele>330</ele>
        <time>2022-02-15T13:23:57.207Z</time>
      </trkpt>
      <trkpt lat="43.52397" lon="5.56719">
        <ele>330</ele>
        <time>2022-02-15T13:23:58.207Z</time>
      </trkpt>
      <trkpt lat="43.52396" lon="5.56718">
        <ele>329</ele>
        <time>2022-02-15T13:23:59.207Z</time>
      </trkpt>
      <trkpt lat="43.52396" lon="5.56717">
        <ele>329</ele>
        <time>2022-02-15T13:24:00.207Z</time>
      </trkpt>
      <trkpt lat="43.52395" lon="5.56716">
        <ele>329</ele>
        <time>2022-02-15T13:24:01.207Z</time>
      </trkpt>
      <trkpt lat="43.52395" lon="5.56715">
        <ele>329</ele>
        <time>2022-02-15T13:24:02.207Z</time>
      </trkpt>
      <trkpt lat="43.52394" lon="5.56713">
        <ele>329</ele>
        <time>2022-02-15T13:24:03.207Z</time>
      </trkpt>
      <trkpt lat="43.52393" lon="5.56711">
        <ele>328</ele>
        <time>2022-02-15T13:24:04.207Z</time>
      </trkpt>
      <trkpt lat="43.52393" lon="5.5671">
        <ele>328</ele>
        <time>2022-02-15T13:24:05.207Z</time>
      </trkpt>
      <trkpt lat="43.52392" lon="5.56708">
        <ele>328</ele>
        <time>2022-02-15T13:24:06.207Z</time>
      </trkpt>
      <trkpt lat="43.52392" lon="5.56707">
        <ele>328</ele>
        <time>2022-02-15T13:24:07.207Z</time>
      </trkpt>
      <trkpt lat="43.52392" lon="5.56705">
        <ele>327</ele>
        <time>2022-02-15T13:24:08.207Z</time>
      </trkpt>
      <trkpt lat="43.52391" lon="5.56704">
        <ele>327</ele>
        <time>2022-02-15T13:24:09.207Z</time>
      </trkpt>
      <trkpt lat="43.52391" lon="5.56702">
        <ele>327</ele>
        <time>2022-02-15T13:24:10.207Z</time>
      </trkpt>
      <trkpt lat="43.52391" lon="5.56701">
        <ele>327</ele>
        <time>2022-02-15T13:24:11.207Z</time>
      </trkpt>
      <trkpt lat="43.52391" lon="5.56699">
        <ele>327</ele>
        <time>2022-02-15T13:24:12.207Z</time>
      </trkpt>
      <trkpt lat="43.5239" lon="5.56698">
        <ele>326</ele>
        <time>2022-02-15T13:24:13.207Z</time>
      </trkpt>
      <trkpt lat="43.5239" lon="5.56696">
        <ele>326</ele>
        <time>2022-02-15T13:24:14.207Z</time>
      </trkpt>
      <trkpt lat="43.5239" lon="5.56695">
        <ele>326</ele>
        <time>2022-02-15T13:24:15.207Z</time>
      </trkpt>
      <trkpt lat="43.5239" lon="5.56693">
        <ele>326</ele>
        <time>2022-02-15T13:24:16.207Z</time>
      </trkpt>
      <trkpt lat="43.52389" lon="5.56692">
        <ele>326</ele>
        <time>2022-02-15T13:24:17.207Z</time>
      </trkpt>
      <trkpt lat="43.52389" lon="5.5669">
        <ele>326</ele>
        <time>2022-02-15T13:24:18.207Z</time>
      </trkpt>
      <trkpt lat="43.52389" lon="5.56689">
        <ele>325</ele>
        <time>2022-02-15T13:24:19.207Z</time>
      </trkpt>
      <trkpt lat="43.52389" lon="5.56688">
        <ele>325</ele>
        <time>2022-02-15T13:24:20.207Z</time>
      </trkpt>
      <trkpt lat="43.52389" lon="5.56686">
        <ele>325</ele>
        <time>2022-02-15T13:24:21.207Z</time>
      </trkpt>
      <trkpt lat="43.52388" lon="5.56684">
        <ele>325</ele>
        <time>2022-02-15T13:24:22.207Z</time>
      </trkpt>
      <trkpt lat="43.52388" lon="5.56683">
        <ele>325</ele>
        <time>2022-02-15T13:24:23.207Z</time>
      </trkpt>
      <trkpt lat="43.52388" lon="5.56681">
        <ele>325</ele>
        <time>2022-02-15T13:24:24.207Z</time>
      </trkpt>
      <trkpt lat="43.52388" lon="5.5668">
        <ele>325</ele>
        <time>2022-02-15T13:24:25.207Z</time>
      </trkpt>
      <trkpt lat="43.52387" lon="5.56679">
        <ele>324</ele>
        <time>2022-02-15T13:24:26.207Z</time>
      </trkpt>
      <trkpt lat="43.52387" lon="5.56677">
        <ele>324</ele>
        <time>2022-02-15T13:24:27.207Z</time>
      </trkpt>
      <trkpt lat="43.52387" lon="5.56676">
        <ele>324</ele>
        <time>2022-02-15T13:24:28.207Z</time>
      </trkpt>
      <trkpt lat="43.52386" lon="5.56674">
        <ele>324</ele>
        <time>2022-02-15T13:24:29.207Z</time>
      </trkpt>
      <trkpt lat="43.52386" lon="5.56672">
        <ele>324</ele>
        <time>2022-02-15T13:24:30.207Z</time>
      </trkpt>
      <trkpt lat="43.52386" lon="5.56671">
        <ele>323</ele>
        <time>2022-02-15T13:24:31.207Z</time>
      </trkpt>
      <trkpt lat="43.52385" lon="5.5667">
        <ele>323</ele>
        <time>2022-02-15T13:24:32.207Z</time>
      </trkpt>
      <trkpt lat="43.52385" lon="5.56668">
        <ele>323</ele>
        <time>2022-02-15T13:24:33.207Z</time>
      </trkpt>
      <trkpt lat="43.52385" lon="5.56667">
        <ele>323</ele>
        <time>2022-02-15T13:24:34.207Z</time>
      </trkpt>
      <trkpt lat="43.52385" lon="5.56665">
        <ele>323</ele>
        <time>2022-02-15T13:24:35.207Z</time>
      </trkpt>
      <trkpt lat="43.52384" lon="5.56664">
        <ele>323</ele>
        <time>2022-02-15T13:24:36.207Z</time>
      </trkpt>
      <trkpt lat="43.52384" lon="5.56663">
        <ele>323</ele>
        <time>2022-02-15T13:24:37.207Z</time>
      </trkpt>
      <trkpt lat="43.52384" lon="5.56662">
        <ele>323</ele>
        <time>2022-02-15T13:24:38.207Z</time>
      </trkpt>
      <trkpt lat="43.52383" lon="5.56661">
        <ele>323</ele>
        <time>2022-02-15T13:24:39.207Z</time>
      </trkpt>
      <trkpt lat="43.52383" lon="5.56659">
        <ele>323</ele>
        <time>2022-02-15T13:24:40.207Z</time>
      </trkpt>
      <trkpt lat="43.52383" lon="5.56658">
        <ele>323</ele>
        <time>2022-02-15T13:24:41.207Z</time>
      </trkpt>
      <trkpt lat="43.52382" lon="5.56657">
        <ele>323</ele>
        <time>2022-02-15T13:24:42.207Z</time>
      </trkpt>
      <trkpt lat="43.52382" lon="5.56655">
        <ele>322</ele>
        <time>2022-02-15T13:24:43.207Z</time>
      </trkpt>
      <trkpt lat="43.52381" lon="5.56654">
        <ele>322</ele>
        <time>2022-02-15T13:24:44.207Z</time>
      </trkpt>
      <trkpt lat="43.52381" lon="5.56653">
        <ele>322</ele>
        <time>2022-02-15T13:24:45.207Z</time>
      </trkpt>
      <trkpt lat="43.52381" lon="5.56652">
        <ele>322</ele>
        <time>2022-02-15T13:24:46.207Z</time>
      </trkpt>
      <trkpt lat="43.52381" lon="5.56651">
        <ele>322</ele>
        <time>2022-02-15T13:24:47.207Z</time>
      </trkpt>
      <trkpt lat="43.5238" lon="5.5665">
        <ele>322</ele>
        <time>2022-02-15T13:24:48.207Z</time>
      </trkpt>
      <trkpt lat="43.5238" lon="5.56649">
        <ele>322</ele>
        <time>2022-02-15T13:24:49.207Z</time>
      </trkpt>
      <trkpt lat="43.52379" lon="5.56648">
        <ele>322</ele>
        <time>2022-02-15T13:24:50.207Z</time>
      </trkpt>
      <trkpt lat="43.52378" lon="5.56647">
        <ele>322</ele>
        <time>2022-02-15T13:24:51.207Z</time>
      </trkpt>
      <trkpt lat="43.52378" lon="5.56646">
        <ele>322</ele>
        <time>2022-02-15T13:24:52.207Z</time>
      </trkpt>
      <trkpt lat="43.52377" lon="5.56645">
        <ele>322</ele>
        <time>2022-02-15T13:24:53.207Z</time>
      </trkpt>
      <trkpt lat="43.52376" lon="5.56644">
        <ele>322</ele>
        <time>2022-02-15T13:24:54.207Z</time>
      </trkpt>
      <trkpt lat="43.52375" lon="5.56643">
        <ele>322</ele>
        <time>2022-02-15T13:24:55.207Z</time>
      </trkpt>
      <trkpt lat="43.52375" lon="5.56642">
        <ele>322</ele>
        <time>2022-02-15T13:24:56.207Z</time>
      </trkpt>
      <trkpt lat="43.52374" lon="5.56641">
        <ele>322</ele>
        <time>2022-02-15T13:24:57.207Z</time>
      </trkpt>
      <trkpt lat="43.52374" lon="5.5664">
        <ele>322</ele>
        <time>2022-02-15T13:24:58.207Z</time>
      </trkpt>
      <trkpt lat="43.52373" lon="5.56639">
        <ele>322</ele>
        <time>2022-02-15T13:24:59.207Z</time>
      </trkpt>
      <trkpt lat="43.52372" lon="5.56638">
        <ele>322</ele>
        <time>2022-02-15T13:25:00.207Z</time>
      </trkpt>
      <trkpt lat="43.52372" lon="5.56636">
        <ele>322</ele>
        <time>2022-02-15T13:25:01.207Z</time>
      </trkpt>
      <trkpt lat="43.52371" lon="5.56635">
        <ele>322</ele>
        <time>2022-02-15T13:25:02.207Z</time>
      </trkpt>
      <trkpt lat="43.52371" lon="5.56634">
        <ele>322</ele>
        <time>2022-02-15T13:25:03.207Z</time>
      </trkpt>
      <trkpt lat="43.5237" lon="5.56633">
        <ele>322</ele>
        <time>2022-02-15T13:25:04.207Z</time>
      </trkpt>
      <trkpt lat="43.5237" lon="5.56632">
        <ele>322</ele>
        <time>2022-02-15T13:25:05.207Z</time>
      </trkpt>
      <trkpt lat="43.52369" lon="5.56631">
        <ele>322</ele>
        <time>2022-02-15T13:25:06.207Z</time>
      </trkpt>
      <trkpt lat="43.52369" lon="5.5663">
        <ele>322</ele>
        <time>2022-02-15T13:25:07.207Z</time>
      </trkpt>
      <trkpt lat="43.52368" lon="5.56629">
        <ele>322</ele>
        <time>2022-02-15T13:25:08.207Z</time>
      </trkpt>
      <trkpt lat="43.52367" lon="5.56628">
        <ele>322</ele>
        <time>2022-02-15T13:25:09.207Z</time>
      </trkpt>
      <trkpt lat="43.52367" lon="5.56627">
        <ele>322</ele>
        <time>2022-02-15T13:25:10.207Z</time>
      </trkpt>
      <trkpt lat="43.52366" lon="5.56626">
        <ele>322</ele>
        <time>2022-02-15T13:25:11.207Z</time>
      </trkpt>
      <trkpt lat="43.52366" lon="5.56625">
        <ele>322</ele>
        <time>2022-02-15T13:25:12.207Z</time>
      </trkpt>
      <trkpt lat="43.52366" lon="5.56625">
        <ele>322</ele>
        <time>2022-02-15T13:25:13.207Z</time>
      </trkpt>
      <trkpt lat="43.52366" lon="5.56625">
        <ele>322</ele>
        <time>2022-02-15T13:25:14.207Z</time>
      </trkpt>
      <trkpt lat="43.52366" lon="5.56624">
        <ele>322</ele>
        <time>2022-02-15T13:25:15.207Z</time>
      </trkpt>
      <trkpt lat="43.52366" lon="5.56623">
        <ele>322</ele>
        <time>2022-02-15T13:25:16.207Z</time>
      </trkpt>
      <trkpt lat="43.52366" lon="5.56622">
        <ele>322</ele>
        <time>2022-02-15T13:25:17.207Z</time>
      </trkpt>
      <trkpt lat="43.52365" lon="5.56622">
        <ele>322</ele>
        <time>2022-02-15T13:25:18.207Z</time>
      </trkpt>
      <trkpt lat="43.52364" lon="5.5662">
        <ele>322</ele>
        <time>2022-02-15T13:25:19.207Z</time>
      </trkpt>
      <trkpt lat="43.52364" lon="5.56619">
        <ele>322</ele>
        <time>2022-02-15T13:25:20.207Z</time>
      </trkpt>
      <trkpt lat="43.52364" lon="5.56618">
        <ele>322</ele>
        <time>2022-02-15T13:25:21.207Z</time>
      </trkpt>
      <trkpt lat="43.52363" lon="5.56617">
        <ele>322</ele>
        <time>2022-02-15T13:25:22.207Z</time>
      </trkpt>
      <trkpt lat="43.52363" lon="5.56616">
        <ele>322</ele>
        <time>2022-02-15T13:25:23.207Z</time>
      </trkpt>
      <trkpt lat="43.52362" lon="5.56614">
        <ele>322</ele>
        <time>2022-02-15T13:25:24.207Z</time>
      </trkpt>
      <trkpt lat="43.52362" lon="5.56613">
        <ele>321</ele>
        <time>2022-02-15T13:25:25.207Z</time>
      </trkpt>
      <trkpt lat="43.52362" lon="5.56612">
        <ele>321</ele>
        <time>2022-02-15T13:25:26.207Z</time>
      </trkpt>
      <trkpt lat="43.52361" lon="5.56611">
        <ele>321</ele>
        <time>2022-02-15T13:25:27.207Z</time>
      </trkpt>
      <trkpt lat="43.52361" lon="5.5661">
        <ele>321</ele>
        <time>2022-02-15T13:25:28.207Z</time>
      </trkpt>
      <trkpt lat="43.5236" lon="5.56608">
        <ele>321</ele>
        <time>2022-02-15T13:25:29.207Z</time>
      </trkpt>
      <trkpt lat="43.5236" lon="5.56607">
        <ele>321</ele>
        <time>2022-02-15T13:25:30.207Z</time>
      </trkpt>
      <trkpt lat="43.5236" lon="5.56606">
        <ele>321</ele>
        <time>2022-02-15T13:25:31.207Z</time>
      </trkpt>
      <trkpt lat="43.52359" lon="5.56604">
        <ele>321</ele>
        <time>2022-02-15T13:25:32.207Z</time>
      </trkpt>
      <trkpt lat="43.52359" lon="5.56603">
        <ele>321</ele>
        <time>2022-02-15T13:25:33.207Z</time>
      </trkpt>
      <trkpt lat="43.52358" lon="5.56601">
        <ele>321</ele>
        <time>2022-02-15T13:25:34.207Z</time>
      </trkpt>
      <trkpt lat="43.52358" lon="5.56599">
        <ele>321</ele>
        <time>2022-02-15T13:25:35.207Z</time>
      </trkpt>
      <trkpt lat="43.52358" lon="5.56598">
        <ele>321</ele>
        <time>2022-02-15T13:25:36.207Z</time>
      </trkpt>
      <trkpt lat="43.52358" lon="5.56596">
        <ele>321</ele>
        <time>2022-02-15T13:25:37.207Z</time>
      </trkpt>
      <trkpt lat="43.52358" lon="5.56595">
        <ele>321</ele>
        <time>2022-02-15T13:25:38.207Z</time>
      </trkpt>
      <trkpt lat="43.52358" lon="5.56593">
        <ele>321</ele>
        <time>2022-02-15T13:25:39.207Z</time>
      </trkpt>
      <trkpt lat="43.52358" lon="5.56592">
        <ele>321</ele>
        <time>2022-02-15T13:25:40.207Z</time>
      </trkpt>
      <trkpt lat="43.52358" lon="5.5659">
        <ele>320</ele>
        <time>2022-02-15T13:25:41.207Z</time>
      </trkpt>
      <trkpt lat="43.52358" lon="5.56588">
        <ele>320</ele>
        <time>2022-02-15T13:25:42.207Z</time>
      </trkpt>
      <trkpt lat="43.52358" lon="5.56587">
        <ele>320</ele>
        <time>2022-02-15T13:25:43.207Z</time>
      </trkpt>
      <trkpt lat="43.52358" lon="5.56585">
        <ele>319</ele>
        <time>2022-02-15T13:25:44.207Z</time>
      </trkpt>
      <trkpt lat="43.52358" lon="5.56583">
        <ele>319</ele>
        <time>2022-02-15T13:25:45.207Z</time>
      </trkpt>
      <trkpt lat="43.52359" lon="5.56581">
        <ele>319</ele>
        <time>2022-02-15T13:25:46.207Z</time>
      </trkpt>
      <trkpt lat="43.52359" lon="5.56579">
        <ele>318</ele>
        <time>2022-02-15T13:25:47.207Z</time>
      </trkpt>
      <trkpt lat="43.52359" lon="5.56578">
        <ele>318</ele>
        <time>2022-02-15T13:25:48.207Z</time>
      </trkpt>
      <trkpt lat="43.52359" lon="5.56576">
        <ele>317</ele>
        <time>2022-02-15T13:25:49.207Z</time>
      </trkpt>
      <trkpt lat="43.52359" lon="5.56575">
        <ele>317</ele>
        <time>2022-02-15T13:25:50.207Z</time>
      </trkpt>
      <trkpt lat="43.52359" lon="5.56573">
        <ele>316</ele>
        <time>2022-02-15T13:25:51.207Z</time>
      </trkpt>
      <trkpt lat="43.5236" lon="5.56571">
        <ele>316</ele>
        <time>2022-02-15T13:25:52.207Z</time>
      </trkpt>
      <trkpt lat="43.5236" lon="5.56569">
        <ele>316</ele>
        <time>2022-02-15T13:25:53.207Z</time>
      </trkpt>
      <trkpt lat="43.5236" lon="5.56568">
        <ele>315</ele>
        <time>2022-02-15T13:25:54.207Z</time>
      </trkpt>
      <trkpt lat="43.5236" lon="5.56566">
        <ele>315</ele>
        <time>2022-02-15T13:25:55.207Z</time>
      </trkpt>
      <trkpt lat="43.5236" lon="5.56565">
        <ele>314</ele>
        <time>2022-02-15T13:25:56.207Z</time>
      </trkpt>
      <trkpt lat="43.5236" lon="5.56563">
        <ele>314</ele>
        <time>2022-02-15T13:25:57.207Z</time>
      </trkpt>
      <trkpt lat="43.5236" lon="5.56562">
        <ele>314</ele>
        <time>2022-02-15T13:25:58.207Z</time>
      </trkpt>
      <trkpt lat="43.52361" lon="5.5656">
        <ele>314</ele>
        <time>2022-02-15T13:25:59.207Z</time>
      </trkpt>
      <trkpt lat="43.52361" lon="5.56559">
        <ele>313</ele>
        <time>2022-02-15T13:26:00.207Z</time>
      </trkpt>
      <trkpt lat="43.52362" lon="5.56558">
        <ele>313</ele>
        <time>2022-02-15T13:26:01.207Z</time>
      </trkpt>
      <trkpt lat="43.52362" lon="5.56557">
        <ele>313</ele>
        <time>2022-02-15T13:26:02.207Z</time>
      </trkpt>
      <trkpt lat="43.52363" lon="5.56555">
        <ele>312</ele>
        <time>2022-02-15T13:26:03.207Z</time>
      </trkpt>
      <trkpt lat="43.52363" lon="5.56554">
        <ele>312</ele>
        <time>2022-02-15T13:26:04.207Z</time>
      </trkpt>
      <trkpt lat="43.52363" lon="5.56552">
        <ele>312</ele>
        <time>2022-02-15T13:26:05.207Z</time>
      </trkpt>
      <trkpt lat="43.52363" lon="5.56551">
        <ele>312</ele>
        <time>2022-02-15T13:26:06.207Z</time>
      </trkpt>
      <trkpt lat="43.52363" lon="5.56549">
        <ele>311</ele>
        <time>2022-02-15T13:26:07.207Z</time>
      </trkpt>
      <trkpt lat="43.52363" lon="5.56548">
        <ele>311</ele>
        <time>2022-02-15T13:26:08.207Z</time>
      </trkpt>
      <trkpt lat="43.52363" lon="5.56546">
        <ele>311</ele>
        <time>2022-02-15T13:26:09.207Z</time>
      </trkpt>
      <trkpt lat="43.52364" lon="5.56545">
        <ele>311</ele>
        <time>2022-02-15T13:26:10.207Z</time>
      </trkpt>
      <trkpt lat="43.52363" lon="5.56544">
        <ele>310</ele>
        <time>2022-02-15T13:26:11.207Z</time>
      </trkpt>
      <trkpt lat="43.52364" lon="5.56542">
        <ele>310</ele>
        <time>2022-02-15T13:26:12.207Z</time>
      </trkpt>
      <trkpt lat="43.52364" lon="5.56541">
        <ele>310</ele>
        <time>2022-02-15T13:26:13.207Z</time>
      </trkpt>
      <trkpt lat="43.52364" lon="5.56539">
        <ele>310</ele>
        <time>2022-02-15T13:26:14.207Z</time>
      </trkpt>
      <trkpt lat="43.52365" lon="5.56538">
        <ele>310</ele>
        <time>2022-02-15T13:26:15.207Z</time>
      </trkpt>
      <trkpt lat="43.52365" lon="5.56537">
        <ele>310</ele>
        <time>2022-02-15T13:26:16.207Z</time>
      </trkpt>
      <trkpt lat="43.52366" lon="5.56536">
        <ele>309</ele>
        <time>2022-02-15T13:26:17.207Z</time>
      </trkpt>
      <trkpt lat="43.52366" lon="5.56535">
        <ele>309</ele>
        <time>2022-02-15T13:26:18.207Z</time>
      </trkpt>
      <trkpt lat="43.52366" lon="5.56533">
        <ele>309</ele>
        <time>2022-02-15T13:26:19.207Z</time>
      </trkpt>
      <trkpt lat="43.52366" lon="5.56532">
        <ele>309</ele>
        <time>2022-02-15T13:26:20.207Z</time>
      </trkpt>
      <trkpt lat="43.52367" lon="5.56531">
        <ele>309</ele>
        <time>2022-02-15T13:26:21.207Z</time>
      </trkpt>
      <trkpt lat="43.52367" lon="5.5653">
        <ele>308</ele>
        <time>2022-02-15T13:26:22.207Z</time>
      </trkpt>
      <trkpt lat="43.52367" lon="5.56528">
        <ele>308</ele>
        <time>2022-02-15T13:26:23.207Z</time>
      </trkpt>
      <trkpt lat="43.52368" lon="5.56527">
        <ele>308</ele>
        <time>2022-02-15T13:26:24.207Z</time>
      </trkpt>
      <trkpt lat="43.52368" lon="5.56525">
        <ele>307</ele>
        <time>2022-02-15T13:26:25.207Z</time>
      </trkpt>
      <trkpt lat="43.52369" lon="5.56524">
        <ele>307</ele>
        <time>2022-02-15T13:26:26.207Z</time>
      </trkpt>
      <trkpt lat="43.5237" lon="5.56522">
        <ele>307</ele>
        <time>2022-02-15T13:26:27.207Z</time>
      </trkpt>
      <trkpt lat="43.52371" lon="5.56521">
        <ele>307</ele>
        <time>2022-02-15T13:26:28.207Z</time>
      </trkpt>
      <trkpt lat="43.52372" lon="5.5652">
        <ele>306</ele>
        <time>2022-02-15T13:26:29.207Z</time>
      </trkpt>
      <trkpt lat="43.52372" lon="5.56519">
        <ele>306</ele>
        <time>2022-02-15T13:26:30.207Z</time>
      </trkpt>
      <trkpt lat="43.52373" lon="5.56518">
        <ele>306</ele>
        <time>2022-02-15T13:26:31.207Z</time>
      </trkpt>
      <trkpt lat="43.52374" lon="5.56518">
        <ele>306</ele>
        <time>2022-02-15T13:26:32.207Z</time>
      </trkpt>
      <trkpt lat="43.52374" lon="5.56517">
        <ele>306</ele>
        <time>2022-02-15T13:26:33.207Z</time>
      </trkpt>
      <trkpt lat="43.52375" lon="5.56516">
        <ele>306</ele>
        <time>2022-02-15T13:26:34.207Z</time>
      </trkpt>
      <trkpt lat="43.52376" lon="5.56515">
        <ele>305</ele>
        <time>2022-02-15T13:26:35.207Z</time>
      </trkpt>
      <trkpt lat="43.52377" lon="5.56513">
        <ele>305</ele>
        <time>2022-02-15T13:26:36.207Z</time>
      </trkpt>
      <trkpt lat="43.52378" lon="5.56512">
        <ele>305</ele>
        <time>2022-02-15T13:26:37.207Z</time>
      </trkpt>
      <trkpt lat="43.52378" lon="5.56511">
        <ele>305</ele>
        <time>2022-02-15T13:26:38.207Z</time>
      </trkpt>
      <trkpt lat="43.52379" lon="5.5651">
        <ele>305</ele>
        <time>2022-02-15T13:26:39.207Z</time>
      </trkpt>
      <trkpt lat="43.52379" lon="5.56508">
        <ele>305</ele>
        <time>2022-02-15T13:26:40.207Z</time>
      </trkpt>
      <trkpt lat="43.52379" lon="5.56507">
        <ele>305</ele>
        <time>2022-02-15T13:26:41.207Z</time>
      </trkpt>
      <trkpt lat="43.52379" lon="5.56505">
        <ele>305</ele>
        <time>2022-02-15T13:26:42.207Z</time>
      </trkpt>
      <trkpt lat="43.5238" lon="5.56504">
        <ele>305</ele>
        <time>2022-02-15T13:26:43.207Z</time>
      </trkpt>
      <trkpt lat="43.52381" lon="5.56503">
        <ele>305</ele>
        <time>2022-02-15T13:26:44.207Z</time>
      </trkpt>
      <trkpt lat="43.52381" lon="5.56501">
        <ele>305</ele>
        <time>2022-02-15T13:26:45.207Z</time>
      </trkpt>
      <trkpt lat="43.52382" lon="5.56499">
        <ele>305</ele>
        <time>2022-02-15T13:26:46.207Z</time>
      </trkpt>
      <trkpt lat="43.52382" lon="5.56497">
        <ele>305</ele>
        <time>2022-02-15T13:26:47.207Z</time>
      </trkpt>
      <trkpt lat="43.52383" lon="5.56496">
        <ele>305</ele>
        <time>2022-02-15T13:26:48.207Z</time>
      </trkpt>
      <trkpt lat="43.52383" lon="5.56494">
        <ele>305</ele>
        <time>2022-02-15T13:26:49.207Z</time>
      </trkpt>
      <trkpt lat="43.52384" lon="5.56493">
        <ele>305</ele>
        <time>2022-02-15T13:26:50.207Z</time>
      </trkpt>
      <trkpt lat="43.52384" lon="5.56492">
        <ele>305</ele>
        <time>2022-02-15T13:26:51.207Z</time>
      </trkpt>
      <trkpt lat="43.52385" lon="5.56491">
        <ele>306</ele>
        <time>2022-02-15T13:26:52.207Z</time>
      </trkpt>
      <trkpt lat="43.52385" lon="5.5649">
        <ele>306</ele>
        <time>2022-02-15T13:26:53.207Z</time>
      </trkpt>
      <trkpt lat="43.52385" lon="5.56489">
        <ele>306</ele>
        <time>2022-02-15T13:26:54.207Z</time>
      </trkpt>
      <trkpt lat="43.52385" lon="5.56488">
        <ele>306</ele>
        <time>2022-02-15T13:26:55.207Z</time>
      </trkpt>
      <trkpt lat="43.52384" lon="5.56486">
        <ele>306</ele>
        <time>2022-02-15T13:26:56.207Z</time>
      </trkpt>
      <trkpt lat="43.52384" lon="5.56485">
        <ele>306</ele>
        <time>2022-02-15T13:26:57.207Z</time>
      </trkpt>
      <trkpt lat="43.52384" lon="5.56483">
        <ele>306</ele>
        <time>2022-02-15T13:26:58.207Z</time>
      </trkpt>
      <trkpt lat="43.52384" lon="5.56481">
        <ele>306</ele>
        <time>2022-02-15T13:26:59.207Z</time>
      </trkpt>
      <trkpt lat="43.52384" lon="5.5648">
        <ele>306</ele>
        <time>2022-02-15T13:27:00.207Z</time>
      </trkpt>
      <trkpt lat="43.52384" lon="5.56478">
        <ele>306</ele>
        <time>2022-02-15T13:27:01.207Z</time>
      </trkpt>
      <trkpt lat="43.52383" lon="5.56476">
        <ele>306</ele>
        <time>2022-02-15T13:27:02.207Z</time>
      </trkpt>
      <trkpt lat="43.52383" lon="5.56474">
        <ele>306</ele>
        <time>2022-02-15T13:27:03.207Z</time>
      </trkpt>
      <trkpt lat="43.52383" lon="5.56472">
        <ele>306</ele>
        <time>2022-02-15T13:27:04.207Z</time>
      </trkpt>
      <trkpt lat="43.52383" lon="5.56471">
        <ele>306</ele>
        <time>2022-02-15T13:27:05.207Z</time>
      </trkpt>
      <trkpt lat="43.52384" lon="5.56469">
        <ele>306</ele>
        <time>2022-02-15T13:27:06.207Z</time>
      </trkpt>
      <trkpt lat="43.52384" lon="5.56467">
        <ele>306</ele>
        <time>2022-02-15T13:27:07.207Z</time>
      </trkpt>
      <trkpt lat="43.52384" lon="5.56466">
        <ele>306</ele>
        <time>2022-02-15T13:27:08.207Z</time>
      </trkpt>
      <trkpt lat="43.52384" lon="5.56464">
        <ele>306</ele>
        <time>2022-02-15T13:27:09.207Z</time>
      </trkpt>
      <trkpt lat="43.52384" lon="5.56462">
        <ele>306</ele>
        <time>2022-02-15T13:27:10.207Z</time>
      </trkpt>
      <trkpt lat="43.52384" lon="5.56461">
        <ele>306</ele>
        <time>2022-02-15T13:27:11.207Z</time>
      </trkpt>
      <trkpt lat="43.52384" lon="5.5646">
        <ele>306</ele>
        <time>2022-02-15T13:27:12.207Z</time>
      </trkpt>
      <trkpt lat="43.52383" lon="5.56458">
        <ele>306</ele>
        <time>2022-02-15T13:27:13.207Z</time>
      </trkpt>
      <trkpt lat="43.52383" lon="5.56456">
        <ele>306</ele>
        <time>2022-02-15T13:27:14.207Z</time>
      </trkpt>
      <trkpt lat="43.52383" lon="5.56455">
        <ele>305</ele>
        <time>2022-02-15T13:27:15.207Z</time>
      </trkpt>
      <trkpt lat="43.52383" lon="5.56453">
        <ele>305</ele>
        <time>2022-02-15T13:27:16.207Z</time>
      </trkpt>
      <trkpt lat="43.52383" lon="5.56452">
        <ele>305</ele>
        <time>2022-02-15T13:27:17.207Z</time>
      </trkpt>
      <trkpt lat="43.52383" lon="5.56451">
        <ele>305</ele>
        <time>2022-02-15T13:27:18.207Z</time>
      </trkpt>
      <trkpt lat="43.52383" lon="5.5645">
        <ele>305</ele>
        <time>2022-02-15T13:27:19.207Z</time>
      </trkpt>
      <trkpt lat="43.52383" lon="5.56449">
        <ele>305</ele>
        <time>2022-02-15T13:27:20.207Z</time>
      </trkpt>
    </trkseg>
  </trk>
</gpx>